<?xml version='1.0' encoding='UTF-8'?><gpx version="1.1" creator="JPX - https://github.com/jenetics/jpx" xmlns="http://www.topografix.com/GPX/1/1"><trk><trkseg><trkpt lat="39.34839807082528" lon="16.175705509100617"><ele>382.0</ele><time>2026-03-22T09:27:23Z</time></trkpt><trkpt lat="39.34845962388221" lon="16.175490561689013"><ele>384.0</ele><time>2026-03-22T09:27:24Z</time></trkpt><trkpt lat="39.348517590954934" lon="16.175265949723983"><ele>386.0</ele><time>2026-03-22T09:27:25Z</time></trkpt><trkpt lat="39.34856878898033" lon="16.17502914107606"><ele>387.66666666666663</ele><time>2026-03-22T09:27:26Z</time></trkpt><trkpt lat="39.34861125761411" lon="16.174787162397003"><ele>389.33333333333337</ele><time>2026-03-22T09:27:27Z</time></trkpt><trkpt lat="39.34863991609255" lon="16.17454479663889"><ele>391.0</ele><time>2026-03-22T09:27:28Z</time></trkpt><trkpt lat="39.348659750186" lon="16.17430034039249"><ele>391.0</ele><time>2026-03-22T09:27:29Z</time></trkpt><trkpt lat="39.3486693657606" lon="16.1740541057691"><ele>391.0</ele><time>2026-03-22T09:27:30Z</time></trkpt><trkpt lat="39.348669985275336" lon="16.173805269762035"><ele>391.0</ele><time>2026-03-22T09:27:31Z</time></trkpt><trkpt lat="39.348656753720896" lon="16.17355463024496"><ele>393.0</ele><time>2026-03-22T09:27:32Z</time></trkpt><trkpt lat="39.34863401165657" lon="16.17330726361535"><ele>395.0</ele><time>2026-03-22T09:27:33Z</time></trkpt><trkpt lat="39.34860297951463" lon="16.1730605243185"><ele>397.0</ele><time>2026-03-22T09:27:34Z</time></trkpt><trkpt lat="39.34856248031152" lon="16.172814130347042"><ele>397.33333333333337</ele><time>2026-03-22T09:27:35Z</time></trkpt><trkpt lat="39.348513379264006" lon="16.172569657672234"><ele>397.66666666666663</ele><time>2026-03-22T09:27:36Z</time></trkpt><trkpt lat="39.34845366856821" lon="16.172325678664794"><ele>398.0</ele><time>2026-03-22T09:27:37Z</time></trkpt><trkpt lat="39.34837433182689" lon="16.172082889988946"><ele>396.66666666666663</ele><time>2026-03-22T09:27:38Z</time></trkpt><trkpt lat="39.348275447032165" lon="16.171837911059555"><ele>395.33333333333337</ele><time>2026-03-22T09:27:38.999Z</time></trkpt><trkpt lat="39.348180852746566" lon="16.171577109662906"><ele>394.0</ele><time>2026-03-22T09:27:39.999Z</time></trkpt><trkpt lat="39.34806235463767" lon="16.171311645130928"><ele>401.0</ele><time>2026-03-22T09:27:40.999Z</time></trkpt><trkpt lat="39.347937436641445" lon="16.171038651704816"><ele>408.0</ele><time>2026-03-22T09:27:41.999Z</time></trkpt><trkpt lat="39.347813178033455" lon="16.170767460249394"><ele>408.5</ele><time>2026-03-22T09:27:42.999Z</time></trkpt><trkpt lat="39.34768582329826" lon="16.170489956954576"><ele>409.0</ele><time>2026-03-22T09:27:43.999Z</time></trkpt><trkpt lat="39.34754825047149" lon="16.17021727858236"><ele>409.0</ele><time>2026-03-22T09:27:44.999Z</time></trkpt><trkpt lat="39.3474219598451" lon="16.169930085999315"><ele>409.0</ele><time>2026-03-22T09:27:45.999Z</time></trkpt><trkpt lat="39.34729402262344" lon="16.16965042087674"><ele>419.5</ele><time>2026-03-22T09:27:46.999Z</time></trkpt><trkpt lat="39.347171996777334" lon="16.169380353811484"><ele>430.0</ele><time>2026-03-22T09:27:47.999Z</time></trkpt><trkpt lat="39.3470517410098" lon="16.16912368612456"><ele>427.33333333333337</ele><time>2026-03-22T09:27:48.999Z</time></trkpt><trkpt lat="39.34693607613403" lon="16.168876525999075"><ele>424.66666666666663</ele><time>2026-03-22T09:27:49.999Z</time></trkpt><trkpt lat="39.34682493793278" lon="16.16863856891263"><ele>422.0</ele><time>2026-03-22T09:27:50.999Z</time></trkpt><trkpt lat="39.3467262384341" lon="16.16841571454861"><ele>422.0</ele><time>2026-03-22T09:27:51.999Z</time></trkpt><trkpt lat="39.34665868992284" lon="16.168196805097278"><ele>422.0</ele><time>2026-03-22T09:27:52.999Z</time></trkpt><trkpt lat="39.346641165575214" lon="16.167976936983525"><ele>422.0</ele><time>2026-03-22T09:27:53.999Z</time></trkpt><trkpt lat="39.34666697718897" lon="16.167767317925183"><ele>423.0</ele><time>2026-03-22T09:27:54.999Z</time></trkpt><trkpt lat="39.34674937932297" lon="16.167578403853735"><ele>424.0</ele><time>2026-03-22T09:27:55.999Z</time></trkpt><trkpt lat="39.34687731305397" lon="16.167408498555982"><ele>425.0</ele><time>2026-03-22T09:27:56.999Z</time></trkpt><trkpt lat="39.34701485742787" lon="16.167244966233078"><ele>424.3333333333333</ele><time>2026-03-22T09:27:57.999Z</time></trkpt><trkpt lat="39.347134828197035" lon="16.167063969180262"><ele>423.66666666666663</ele><time>2026-03-22T09:27:58.999Z</time></trkpt><trkpt lat="39.3472144420218" lon="16.16685210309512"><ele>423.0</ele><time>2026-03-22T09:27:59.999Z</time></trkpt><trkpt lat="39.34724054589481" lon="16.166617696874763"><ele>424.66666666666663</ele><time>2026-03-22T09:28:00.999Z</time></trkpt><trkpt lat="39.34720765168062" lon="16.16638839930261"><ele>426.3333333333333</ele><time>2026-03-22T09:28:01.999Z</time></trkpt><trkpt lat="39.34713670643492" lon="16.166166046406598"><ele>428.0</ele><time>2026-03-22T09:28:02.999Z</time></trkpt><trkpt lat="39.34701688861686" lon="16.16596953344643"><ele>428.0</ele><time>2026-03-22T09:28:03.999Z</time></trkpt><trkpt lat="39.34688291938624" lon="16.1658030304503"><ele>428.0</ele><time>2026-03-22T09:28:04.999Z</time></trkpt><trkpt lat="39.34676834482754" lon="16.165660335400645"><ele>428.0</ele><time>2026-03-22T09:28:05.999Z</time></trkpt><trkpt lat="39.34669940725129" lon="16.165490072332013"><ele>429.3333333333333</ele><time>2026-03-22T09:28:06.999Z</time></trkpt><trkpt lat="39.346669832701174" lon="16.16529485417234"><ele>430.66666666666663</ele><time>2026-03-22T09:28:07.999Z</time></trkpt><trkpt lat="39.34669798888747" lon="16.165084937926036"><ele>432.0</ele><time>2026-03-22T09:28:08.999Z</time></trkpt><trkpt lat="39.346775411189284" lon="16.16488954320186"><ele>437.66666666666663</ele><time>2026-03-22T09:28:09.999Z</time></trkpt><trkpt lat="39.34690216223964" lon="16.164715659170458"><ele>443.3333333333333</ele><time>2026-03-22T09:28:10.999Z</time></trkpt><trkpt lat="39.34704759986684" lon="16.164520318551684"><ele>449.0</ele><time>2026-03-22T09:28:11.999Z</time></trkpt><trkpt lat="39.347202074837064" lon="16.164296728379814"><ele>446.66666666666663</ele><time>2026-03-22T09:28:12.999Z</time></trkpt><trkpt lat="39.34735078688399" lon="16.164089043565497"><ele>444.33333333333337</ele><time>2026-03-22T09:28:13.999Z</time></trkpt><trkpt lat="39.34747794835431" lon="16.163899547333006"><ele>442.0</ele><time>2026-03-22T09:28:14.999Z</time></trkpt><trkpt lat="39.34757812842708" lon="16.163702554049934"><ele>442.0</ele><time>2026-03-22T09:28:15.999Z</time></trkpt><trkpt lat="39.34763294146658" lon="16.16347945152124"><ele>442.0</ele><time>2026-03-22T09:28:16.999Z</time></trkpt><trkpt lat="39.347639528351046" lon="16.163247098620825"><ele>442.0</ele><time>2026-03-22T09:28:17.999Z</time></trkpt><trkpt lat="39.3475882599542" lon="16.163007498079438"><ele>441.0</ele><time>2026-03-22T09:28:18.999Z</time></trkpt><trkpt lat="39.347502961497234" lon="16.162748803748283"><ele>440.0</ele><time>2026-03-22T09:28:19.999Z</time></trkpt><trkpt lat="39.34740135708322" lon="16.162467528326157"><ele>440.5</ele><time>2026-03-22T09:28:20.999Z</time></trkpt><trkpt lat="39.34730642453958" lon="16.162169834162203"><ele>441.0</ele><time>2026-03-22T09:28:21.999Z</time></trkpt><trkpt lat="39.347213202445296" lon="16.161861193860965"><ele>440.5</ele><time>2026-03-22T09:28:22.999Z</time></trkpt><trkpt lat="39.347120660828665" lon="16.16156062589942"><ele>440.0</ele><time>2026-03-22T09:28:23.999Z</time></trkpt><trkpt lat="39.347030932780235" lon="16.161268964151613"><ele>437.0</ele><time>2026-03-22T09:28:24.999Z</time></trkpt><trkpt lat="39.34694538091854" lon="16.160988886857524"><ele>434.0</ele><time>2026-03-22T09:28:25.999Z</time></trkpt><trkpt lat="39.346861796521125" lon="16.160721501430483"><ele>435.3333333333333</ele><time>2026-03-22T09:28:26.999Z</time></trkpt><trkpt lat="39.34677530274339" lon="16.16046616422744"><ele>436.66666666666663</ele><time>2026-03-22T09:28:27.999Z</time></trkpt><trkpt lat="39.34668474792638" lon="16.16023032054747"><ele>438.0</ele><time>2026-03-22T09:28:28.999Z</time></trkpt><trkpt lat="39.34658692420086" lon="16.16001422599971"><ele>444.33333333333337</ele><time>2026-03-22T09:28:29.999Z</time></trkpt><trkpt lat="39.34648228996561" lon="16.15981752259766"><ele>450.6666666666667</ele><time>2026-03-22T09:28:30.999Z</time></trkpt><trkpt lat="39.34637017999762" lon="16.159641565023364"><ele>457.0</ele><time>2026-03-22T09:28:31.999Z</time></trkpt><trkpt lat="39.34625045525611" lon="16.159493100590343"><ele>457.0</ele><time>2026-03-22T09:28:32.999Z</time></trkpt><trkpt lat="39.34612297434499" lon="16.159358861660735"><ele>457.0</ele><time>2026-03-22T09:28:33.999Z</time></trkpt><trkpt lat="39.34598439191066" lon="16.159235691567975"><ele>457.0</ele><time>2026-03-22T09:28:34.999Z</time></trkpt><trkpt lat="39.34583517475735" lon="16.15912927904688"><ele>457.0</ele><time>2026-03-22T09:28:36Z</time></trkpt><trkpt lat="39.34567856942367" lon="16.15904030403752"><ele>457.0</ele><time>2026-03-22T09:28:37Z</time></trkpt><trkpt lat="39.345515052543995" lon="16.158972572369795"><ele>457.0</ele><time>2026-03-22T09:28:38Z</time></trkpt><trkpt lat="39.34535032508625" lon="16.158900638199515"><ele>457.33333333333337</ele><time>2026-03-22T09:28:39Z</time></trkpt><trkpt lat="39.345159717882126" lon="16.158856559504095"><ele>457.66666666666663</ele><time>2026-03-22T09:28:40Z</time></trkpt><trkpt lat="39.344940758588976" lon="16.15882178092302"><ele>458.0</ele><time>2026-03-22T09:28:41Z</time></trkpt><trkpt lat="39.344701641441084" lon="16.158803112613388"><ele>462.5</ele><time>2026-03-22T09:28:42Z</time></trkpt><trkpt lat="39.344466121465125" lon="16.158791011585365"><ele>467.0</ele><time>2026-03-22T09:28:43Z</time></trkpt><trkpt lat="39.34423343308126" lon="16.15877990271271"><ele>467.0</ele><time>2026-03-22T09:28:44Z</time></trkpt><trkpt lat="39.34400274735154" lon="16.15878021966323"><ele>467.0</ele><time>2026-03-22T09:28:45Z</time></trkpt><trkpt lat="39.34377070816387" lon="16.158763404887097"><ele>473.0</ele><time>2026-03-22T09:28:46Z</time></trkpt><trkpt lat="39.343538716907496" lon="16.158738077264616"><ele>479.0</ele><time>2026-03-22T09:28:47Z</time></trkpt><trkpt lat="39.34330796081367" lon="16.15869733716339"><ele>479.0</ele><time>2026-03-22T09:28:48Z</time></trkpt><trkpt lat="39.34307885410886" lon="16.15863991768765"><ele>479.0</ele><time>2026-03-22T09:28:49Z</time></trkpt><trkpt lat="39.34285205761455" lon="16.158560160666127"><ele>473.5</ele><time>2026-03-22T09:28:50Z</time></trkpt><trkpt lat="39.34262632962352" lon="16.15845070947633"><ele>468.0</ele><time>2026-03-22T09:28:51Z</time></trkpt><trkpt lat="39.34240109150421" lon="16.15830946171751"><ele>470.0</ele><time>2026-03-22T09:28:52Z</time></trkpt><trkpt lat="39.342167838173445" lon="16.158135884301227"><ele>472.0</ele><time>2026-03-22T09:28:53Z</time></trkpt><trkpt lat="39.34192826835152" lon="16.157953390335297"><ele>472.0</ele><time>2026-03-22T09:28:54Z</time></trkpt><trkpt lat="39.34170452291178" lon="16.157773420009985"><ele>472.0</ele><time>2026-03-22T09:28:55Z</time></trkpt><trkpt lat="39.341497042697654" lon="16.157597134444412"><ele>474.0</ele><time>2026-03-22T09:28:56Z</time></trkpt><trkpt lat="39.34130073631693" lon="16.15741758554552"><ele>476.0</ele><time>2026-03-22T09:28:57Z</time></trkpt><trkpt lat="39.341115296701716" lon="16.15723136909684"><ele>476.0</ele><time>2026-03-22T09:28:58Z</time></trkpt><trkpt lat="39.34094354804433" lon="16.157035204338897"><ele>476.0</ele><time>2026-03-22T09:28:59Z</time></trkpt><trkpt lat="39.340785300678846" lon="16.156822280614147"><ele>476.0</ele><time>2026-03-22T09:29:00Z</time></trkpt><trkpt lat="39.3406393596743" lon="16.156590185245076"><ele>476.0</ele><time>2026-03-22T09:29:01Z</time></trkpt><trkpt lat="39.34050931442457" lon="16.156350923535836"><ele>476.0</ele><time>2026-03-22T09:29:02Z</time></trkpt><trkpt lat="39.34039044971111" lon="16.156121849722183"><ele>476.0</ele><time>2026-03-22T09:29:03Z</time></trkpt><trkpt lat="39.340284537245324" lon="16.15590838708905"><ele>476.0</ele><time>2026-03-22T09:29:04Z</time></trkpt><trkpt lat="39.340182639688834" lon="16.155706365539153"><ele>483.0</ele><time>2026-03-22T09:29:05Z</time></trkpt><trkpt lat="39.34008032912037" lon="16.155506882141605"><ele>490.0</ele><time>2026-03-22T09:29:06Z</time></trkpt><trkpt lat="39.33997661127131" lon="16.15531130077017"><ele>497.0</ele><time>2026-03-22T09:29:07Z</time></trkpt><trkpt lat="39.339872214862" lon="16.155120763462836"><ele>497.0</ele><time>2026-03-22T09:29:08Z</time></trkpt><trkpt lat="39.339763924401645" lon="16.154934932172704"><ele>497.0</ele><time>2026-03-22T09:29:09Z</time></trkpt><trkpt lat="39.33964670162432" lon="16.154750631794244"><ele>497.0</ele><time>2026-03-22T09:29:10Z</time></trkpt><trkpt lat="39.33952087764161" lon="16.154566594602866"><ele>490.3333333333333</ele><time>2026-03-22T09:29:11Z</time></trkpt><trkpt lat="39.33938924827945" lon="16.154388728776674"><ele>483.66666666666663</ele><time>2026-03-22T09:29:12Z</time></trkpt><trkpt lat="39.339253036509604" lon="16.15421736275727"><ele>477.0</ele><time>2026-03-22T09:29:13Z</time></trkpt><trkpt lat="39.33911538713352" lon="16.154057266572448"><ele>479.66666666666663</ele><time>2026-03-22T09:29:14Z</time></trkpt><trkpt lat="39.33898339936441" lon="16.153911935413973"><ele>482.3333333333333</ele><time>2026-03-22T09:29:15Z</time></trkpt><trkpt lat="39.33886130937369" lon="16.153781428521118"><ele>485.0</ele><time>2026-03-22T09:29:16Z</time></trkpt><trkpt lat="39.33873910966479" lon="16.153652184815048"><ele>473.3333333333333</ele><time>2026-03-22T09:29:17Z</time></trkpt><trkpt lat="39.338614117477185" lon="16.15352027068307"><ele>461.66666666666663</ele><time>2026-03-22T09:29:18Z</time></trkpt><trkpt lat="39.33848810542303" lon="16.15338326922913"><ele>450.0</ele><time>2026-03-22T09:29:19Z</time></trkpt><trkpt lat="39.3383627654796" lon="16.153245933788696"><ele>452.0</ele><time>2026-03-22T09:29:20Z</time></trkpt><trkpt lat="39.3382362462188" lon="16.15310874791962"><ele>454.0</ele><time>2026-03-22T09:29:21Z</time></trkpt><trkpt lat="39.33810972769646" lon="16.152972800285003"><ele>456.0</ele><time>2026-03-22T09:29:22Z</time></trkpt><trkpt lat="39.337980052284394" lon="16.152833984002758"><ele>457.0</ele><time>2026-03-22T09:29:23Z</time></trkpt><trkpt lat="39.33784597216519" lon="16.15269106911097"><ele>458.0</ele><time>2026-03-22T09:29:24Z</time></trkpt><trkpt lat="39.337712843265976" lon="16.15254961679537"><ele>459.0</ele><time>2026-03-22T09:29:25Z</time></trkpt><trkpt lat="39.33757793599277" lon="16.15240643183375"><ele>463.66666666666663</ele><time>2026-03-22T09:29:26Z</time></trkpt><trkpt lat="39.33744139154371" lon="16.15225324565409"><ele>468.3333333333333</ele><time>2026-03-22T09:29:27Z</time></trkpt><trkpt lat="39.33730974541075" lon="16.15208940261427"><ele>473.0</ele><time>2026-03-22T09:29:28Z</time></trkpt><trkpt lat="39.33718918000973" lon="16.15191842015223"><ele>479.66666666666663</ele><time>2026-03-22T09:29:29Z</time></trkpt><trkpt lat="39.33707455372878" lon="16.151733800849602"><ele>486.33333333333337</ele><time>2026-03-22T09:29:30Z</time></trkpt><trkpt lat="39.33697104254041" lon="16.151537359325154"><ele>493.0</ele><time>2026-03-22T09:29:31Z</time></trkpt><trkpt lat="39.336882519250395" lon="16.15133104858457"><ele>497.0</ele><time>2026-03-22T09:29:32Z</time></trkpt><trkpt lat="39.3368175236654" lon="16.15111186322648"><ele>501.0</ele><time>2026-03-22T09:29:33Z</time></trkpt><trkpt lat="39.33677115047486" lon="16.150881146812782"><ele>505.0</ele><time>2026-03-22T09:29:34Z</time></trkpt><trkpt lat="39.33673855000483" lon="16.150646168464423"><ele>505.6666666666667</ele><time>2026-03-22T09:29:35Z</time></trkpt><trkpt lat="39.33672080979542" lon="16.15040540081885"><ele>506.33333333333337</ele><time>2026-03-22T09:29:36Z</time></trkpt><trkpt lat="39.33671520952156" lon="16.150162544578638"><ele>507.0</ele><time>2026-03-22T09:29:37Z</time></trkpt><trkpt lat="39.336724276531925" lon="16.1499192919855"><ele>511.33333333333337</ele><time>2026-03-22T09:29:38Z</time></trkpt><trkpt lat="39.336748410450994" lon="16.14967882461537"><ele>515.6666666666667</ele><time>2026-03-22T09:29:39Z</time></trkpt><trkpt lat="39.33678462104232" lon="16.14944151889998"><ele>520.0</ele><time>2026-03-22T09:29:39.999Z</time></trkpt><trkpt lat="39.3368314635942" lon="16.14920503934904"><ele>525.6666666666667</ele><time>2026-03-22T09:29:40.999Z</time></trkpt><trkpt lat="39.3368789581421" lon="16.148970563626474"><ele>531.3333333333334</ele><time>2026-03-22T09:29:41.999Z</time></trkpt><trkpt lat="39.336924963476605" lon="16.148735444212093"><ele>537.0</ele><time>2026-03-22T09:29:42.999Z</time></trkpt><trkpt lat="39.336971153855345" lon="16.148499336452527"><ele>537.0</ele><time>2026-03-22T09:29:43.999Z</time></trkpt><trkpt lat="39.33701682033871" lon="16.148266850740168"><ele>537.0</ele><time>2026-03-22T09:29:44.999Z</time></trkpt><trkpt lat="39.33706508104265" lon="16.148034987344985"><ele>537.0</ele><time>2026-03-22T09:29:45.999Z</time></trkpt><trkpt lat="39.33710552127638" lon="16.147800483147634"><ele>542.3333333333334</ele><time>2026-03-22T09:29:46.999Z</time></trkpt><trkpt lat="39.337138099634565" lon="16.147563002275177"><ele>547.6666666666667</ele><time>2026-03-22T09:29:47.999Z</time></trkpt><trkpt lat="39.33716392112317" lon="16.147323609301818"><ele>553.0</ele><time>2026-03-22T09:29:48.999Z</time></trkpt><trkpt lat="39.337177321047186" lon="16.147079270101045"><ele>553.0</ele><time>2026-03-22T09:29:49.999Z</time></trkpt><trkpt lat="39.337176621955365" lon="16.146833241189494"><ele>553.0</ele><time>2026-03-22T09:29:50.999Z</time></trkpt><trkpt lat="39.33715893633692" lon="16.146587828159767"><ele>553.0</ele><time>2026-03-22T09:29:51.999Z</time></trkpt><trkpt lat="39.337124182573184" lon="16.146334061045735"><ele>552.3333333333334</ele><time>2026-03-22T09:29:52.999Z</time></trkpt><trkpt lat="39.33707228588192" lon="16.14606220409019"><ele>551.6666666666666</ele><time>2026-03-22T09:29:53.999Z</time></trkpt><trkpt lat="39.337030611903565" lon="16.145766656304257"><ele>551.0</ele><time>2026-03-22T09:29:54.999Z</time></trkpt><trkpt lat="39.33696428456295" lon="16.145436920369363"><ele>553.0</ele><time>2026-03-22T09:29:55.999Z</time></trkpt><trkpt lat="39.33689490668193" lon="16.14509506708003"><ele>555.0</ele><time>2026-03-22T09:29:56.999Z</time></trkpt><trkpt lat="39.33681554477091" lon="16.144782089811432"><ele>551.3333333333334</ele><time>2026-03-22T09:29:57.999Z</time></trkpt><trkpt lat="39.336760979818145" lon="16.144495097603887"><ele>547.6666666666667</ele><time>2026-03-22T09:29:58.999Z</time></trkpt><trkpt lat="39.33671322560201" lon="16.144229572018535"><ele>544.0</ele><time>2026-03-22T09:29:59.999Z</time></trkpt><trkpt lat="39.33666958491513" lon="16.14398762897767"><ele>538.6666666666667</ele><time>2026-03-22T09:30:00.999Z</time></trkpt><trkpt lat="39.336631206456325" lon="16.14375404273123"><ele>533.3333333333334</ele><time>2026-03-22T09:30:01.999Z</time></trkpt><trkpt lat="39.33659757111162" lon="16.14351156774858"><ele>528.0</ele><time>2026-03-22T09:30:02.999Z</time></trkpt><trkpt lat="39.33656916343468" lon="16.143248399012155"><ele>523.0</ele><time>2026-03-22T09:30:03.999Z</time></trkpt><trkpt lat="39.33654678559" lon="16.142959604536923"><ele>518.0</ele><time>2026-03-22T09:30:04.999Z</time></trkpt><trkpt lat="39.33655579115162" lon="16.14265886202322"><ele>534.5</ele><time>2026-03-22T09:30:05.999Z</time></trkpt><trkpt lat="39.33654029838472" lon="16.142356312589545"><ele>551.0</ele><time>2026-03-22T09:30:06.999Z</time></trkpt><trkpt lat="39.33654950719592" lon="16.142057255208698"><ele>551.0</ele><time>2026-03-22T09:30:07.999Z</time></trkpt><trkpt lat="39.33655432577817" lon="16.14174991374632"><ele>551.0</ele><time>2026-03-22T09:30:08.999Z</time></trkpt><trkpt lat="39.33655380047957" lon="16.141443538899992"><ele>568.5</ele><time>2026-03-22T09:30:09.999Z</time></trkpt><trkpt lat="39.3365521883708" lon="16.14113737039676"><ele>586.0</ele><time>2026-03-22T09:30:10.999Z</time></trkpt><trkpt lat="39.33654738645706" lon="16.140837913771257"><ele>591.0</ele><time>2026-03-22T09:30:11.999Z</time></trkpt><trkpt lat="39.33654299763789" lon="16.140537318215866"><ele>596.0</ele><time>2026-03-22T09:30:12.999Z</time></trkpt><trkpt lat="39.336538227000304" lon="16.14023547845207"><ele>596.0</ele><time>2026-03-22T09:30:13.999Z</time></trkpt><trkpt lat="39.336532785219774" lon="16.1399298250769"><ele>596.0</ele><time>2026-03-22T09:30:14.999Z</time></trkpt><trkpt lat="39.336527233045295" lon="16.139623166534683"><ele>590.0</ele><time>2026-03-22T09:30:15.999Z</time></trkpt><trkpt lat="39.336523580916094" lon="16.139326838966916"><ele>584.0</ele><time>2026-03-22T09:30:16.999Z</time></trkpt><trkpt lat="39.33651920672365" lon="16.139040086355273"><ele>576.6666666666666</ele><time>2026-03-22T09:30:17.999Z</time></trkpt><trkpt lat="39.33650679922509" lon="16.138758817507018"><ele>569.3333333333334</ele><time>2026-03-22T09:30:18.999Z</time></trkpt><trkpt lat="39.3364811805339" lon="16.138476429048918"><ele>562.0</ele><time>2026-03-22T09:30:19.999Z</time></trkpt><trkpt lat="39.33644264442499" lon="16.13818251861519"><ele>557.6666666666667</ele><time>2026-03-22T09:30:20.999Z</time></trkpt><trkpt lat="39.33639597277234" lon="16.1379152402411"><ele>553.3333333333334</ele><time>2026-03-22T09:30:21.999Z</time></trkpt><trkpt lat="39.33631180566524" lon="16.137653311778365"><ele>549.0</ele><time>2026-03-22T09:30:22.999Z</time></trkpt><trkpt lat="39.33621611860103" lon="16.137399530747917"><ele>554.6666666666666</ele><time>2026-03-22T09:30:23.999Z</time></trkpt><trkpt lat="39.33610307183622" lon="16.137171531342997"><ele>560.3333333333333</ele><time>2026-03-22T09:30:24.999Z</time></trkpt><trkpt lat="39.33599358912798" lon="16.136975353555794"><ele>566.0</ele><time>2026-03-22T09:30:25.999Z</time></trkpt><trkpt lat="39.335888388162836" lon="16.13679409518074"><ele>566.0</ele><time>2026-03-22T09:30:26.999Z</time></trkpt><trkpt lat="39.33577929195329" lon="16.136606394093043"><ele>566.0</ele><time>2026-03-22T09:30:27.999Z</time></trkpt><trkpt lat="39.33566314342467" lon="16.13640986223083"><ele>566.0</ele><time>2026-03-22T09:30:28.999Z</time></trkpt><trkpt lat="39.33554633250847" lon="16.136195809596273"><ele>567.3333333333333</ele><time>2026-03-22T09:30:29.999Z</time></trkpt><trkpt lat="39.33543956742768" lon="16.135967443318997"><ele>568.6666666666666</ele><time>2026-03-22T09:30:30.999Z</time></trkpt><trkpt lat="39.33534782259893" lon="16.1357206430261"><ele>570.0</ele><time>2026-03-22T09:30:31.999Z</time></trkpt><trkpt lat="39.33527017654239" lon="16.135464817058242"><ele>571.6666666666666</ele><time>2026-03-22T09:30:32.999Z</time></trkpt><trkpt lat="39.33521087178413" lon="16.13519692996059"><ele>573.3333333333333</ele><time>2026-03-22T09:30:33.999Z</time></trkpt><trkpt lat="39.33517465996349" lon="16.134918615684924"><ele>575.0</ele><time>2026-03-22T09:30:34.999Z</time></trkpt><trkpt lat="39.33515951178883" lon="16.134630775144267"><ele>581.5</ele><time>2026-03-22T09:30:35.999Z</time></trkpt><trkpt lat="39.335169100938955" lon="16.13433757720312"><ele>588.0</ele><time>2026-03-22T09:30:36.999Z</time></trkpt><trkpt lat="39.335200717922895" lon="16.13404343356416"><ele>598.0</ele><time>2026-03-22T09:30:37.999Z</time></trkpt><trkpt lat="39.33525298695284" lon="16.1337503491442"><ele>608.0</ele><time>2026-03-22T09:30:38.999Z</time></trkpt><trkpt lat="39.33532598871751" lon="16.13346376989313"><ele>611.5</ele><time>2026-03-22T09:30:39.999Z</time></trkpt><trkpt lat="39.33542513750653" lon="16.13318066612299"><ele>615.0</ele><time>2026-03-22T09:30:41Z</time></trkpt><trkpt lat="39.33554947951578" lon="16.132907227493654"><ele>602.5</ele><time>2026-03-22T09:30:42Z</time></trkpt><trkpt lat="39.335693433471484" lon="16.13265859015976"><ele>590.0</ele><time>2026-03-22T09:30:43Z</time></trkpt><trkpt lat="39.335850417850736" lon="16.13243144203115"><ele>602.5</ele><time>2026-03-22T09:30:44Z</time></trkpt><trkpt lat="39.33602400138584" lon="16.13223039640347"><ele>615.0</ele><time>2026-03-22T09:30:45Z</time></trkpt><trkpt lat="39.3362121476387" lon="16.132056797595347"><ele>609.5</ele><time>2026-03-22T09:30:46Z</time></trkpt><trkpt lat="39.336416034336345" lon="16.13191404390201"><ele>604.0</ele><time>2026-03-22T09:30:47Z</time></trkpt><trkpt lat="39.33663082387988" lon="16.131803748859415"><ele>604.0</ele><time>2026-03-22T09:30:48Z</time></trkpt><trkpt lat="39.33685459187157" lon="16.131722173391836"><ele>604.0</ele><time>2026-03-22T09:30:49Z</time></trkpt><trkpt lat="39.337087760602735" lon="16.131662602283356"><ele>601.5</ele><time>2026-03-22T09:30:50Z</time></trkpt><trkpt lat="39.33732309154724" lon="16.131613086147652"><ele>599.0</ele><time>2026-03-22T09:30:51Z</time></trkpt><trkpt lat="39.337549691782556" lon="16.131577863490964"><ele>610.3333333333333</ele><time>2026-03-22T09:30:52Z</time></trkpt><trkpt lat="39.33777073830782" lon="16.131556810884913"><ele>621.6666666666666</ele><time>2026-03-22T09:30:53Z</time></trkpt><trkpt lat="39.33798592306926" lon="16.131541770550925"><ele>633.0</ele><time>2026-03-22T09:30:54Z</time></trkpt><trkpt lat="39.33819300793381" lon="16.131526861935313"><ele>633.0</ele><time>2026-03-22T09:30:55Z</time></trkpt><trkpt lat="39.338394722896595" lon="16.131507875352575"><ele>633.0</ele><time>2026-03-22T09:30:56Z</time></trkpt><trkpt lat="39.338590863434966" lon="16.131479391582076"><ele>633.0</ele><time>2026-03-22T09:30:57Z</time></trkpt><trkpt lat="39.33878352902892" lon="16.131432845559445"><ele>630.6666666666666</ele><time>2026-03-22T09:30:58Z</time></trkpt><trkpt lat="39.33897369043332" lon="16.13136987037784"><ele>628.3333333333333</ele><time>2026-03-22T09:30:59Z</time></trkpt><trkpt lat="39.33915761378531" lon="16.131294315053985"><ele>626.0</ele><time>2026-03-22T09:31:00Z</time></trkpt><trkpt lat="39.33933648767247" lon="16.131194662729953"><ele>626.0</ele><time>2026-03-22T09:31:01Z</time></trkpt><trkpt lat="39.339507464618485" lon="16.13107493980028"><ele>626.0</ele><time>2026-03-22T09:31:02Z</time></trkpt><trkpt lat="39.33966610169154" lon="16.13093266727983"><ele>626.0</ele><time>2026-03-22T09:31:03Z</time></trkpt><trkpt lat="39.339818348429525" lon="16.13077304285944"><ele>626.6666666666666</ele><time>2026-03-22T09:31:04Z</time></trkpt><trkpt lat="39.33995710070291" lon="16.1305981064367"><ele>627.3333333333334</ele><time>2026-03-22T09:31:05Z</time></trkpt><trkpt lat="39.34008830651335" lon="16.13041193854131"><ele>628.0</ele><time>2026-03-22T09:31:06Z</time></trkpt><trkpt lat="39.34020488417316" lon="16.130210309243196"><ele>628.0</ele><time>2026-03-22T09:31:07Z</time></trkpt><trkpt lat="39.340305672862634" lon="16.129993190171437"><ele>628.0</ele><time>2026-03-22T09:31:08Z</time></trkpt><trkpt lat="39.34038975364409" lon="16.129761087696707"><ele>628.0</ele><time>2026-03-22T09:31:09Z</time></trkpt><trkpt lat="39.340455056517726" lon="16.129518073969063"><ele>626.6666666666667</ele><time>2026-03-22T09:31:10Z</time></trkpt><trkpt lat="39.3405036661388" lon="16.12926791791238"><ele>625.3333333333334</ele><time>2026-03-22T09:31:11Z</time></trkpt><trkpt lat="39.34053886815208" lon="16.129010739094486"><ele>624.0</ele><time>2026-03-22T09:31:12Z</time></trkpt><trkpt lat="39.34055672428263" lon="16.128750464321488"><ele>633.3333333333334</ele><time>2026-03-22T09:31:13Z</time></trkpt><trkpt lat="39.340549541885395" lon="16.12848352628625"><ele>642.6666666666667</ele><time>2026-03-22T09:31:14Z</time></trkpt><trkpt lat="39.34052666878979" lon="16.128218228934433"><ele>652.0</ele><time>2026-03-22T09:31:15Z</time></trkpt><trkpt lat="39.34048149206036" lon="16.127959989749385"><ele>652.0</ele><time>2026-03-22T09:31:16Z</time></trkpt><trkpt lat="39.340417958314134" lon="16.127708838606786"><ele>652.0</ele><time>2026-03-22T09:31:17Z</time></trkpt><trkpt lat="39.34033556333502" lon="16.12746533909359"><ele>652.0</ele><time>2026-03-22T09:31:18Z</time></trkpt><trkpt lat="39.34023374729825" lon="16.127235008832876"><ele>648.0</ele><time>2026-03-22T09:31:19Z</time></trkpt><trkpt lat="39.340114856859884" lon="16.127016679988277"><ele>644.0</ele><time>2026-03-22T09:31:20Z</time></trkpt><trkpt lat="39.33997730923518" lon="16.12681740977641"><ele>640.0</ele><time>2026-03-22T09:31:21Z</time></trkpt><trkpt lat="39.33982942716668" lon="16.126632033925905"><ele>637.6666666666667</ele><time>2026-03-22T09:31:22Z</time></trkpt><trkpt lat="39.33967002190276" lon="16.126467634754896"><ele>635.3333333333334</ele><time>2026-03-22T09:31:23Z</time></trkpt><trkpt lat="39.33949850277908" lon="16.126320257915538"><ele>633.0</ele><time>2026-03-22T09:31:24Z</time></trkpt><trkpt lat="39.33931808560323" lon="16.126195996265015"><ele>633.0</ele><time>2026-03-22T09:31:25Z</time></trkpt><trkpt lat="39.339128595019446" lon="16.12609530296964"><ele>633.0</ele><time>2026-03-22T09:31:26Z</time></trkpt><trkpt lat="39.338935838421904" lon="16.12601864360923"><ele>633.0</ele><time>2026-03-22T09:31:27Z</time></trkpt><trkpt lat="39.338741618642054" lon="16.1259674841237"><ele>638.0</ele><time>2026-03-22T09:31:28Z</time></trkpt><trkpt lat="39.338552108366976" lon="16.12592140216078"><ele>643.0</ele><time>2026-03-22T09:31:29Z</time></trkpt><trkpt lat="39.338364045954265" lon="16.125918788039026"><ele>648.0</ele><time>2026-03-22T09:31:30Z</time></trkpt><trkpt lat="39.33817333760719" lon="16.125941565229837"><ele>653.3333333333334</ele><time>2026-03-22T09:31:31Z</time></trkpt><trkpt lat="39.33800766057297" lon="16.12600155936909"><ele>658.6666666666667</ele><time>2026-03-22T09:31:32Z</time></trkpt><trkpt lat="39.337837426680636" lon="16.126065926217407"><ele>664.0</ele><time>2026-03-22T09:31:33Z</time></trkpt><trkpt lat="39.33766271372045" lon="16.126123566864358"><ele>664.0</ele><time>2026-03-22T09:31:34Z</time></trkpt><trkpt lat="39.33750230555813" lon="16.1262427553591"><ele>664.0</ele><time>2026-03-22T09:31:35Z</time></trkpt><trkpt lat="39.33734280254292" lon="16.126356863730873"><ele>664.0</ele><time>2026-03-22T09:31:36Z</time></trkpt><trkpt lat="39.33719384273026" lon="16.126488194920558"><ele>682.0</ele><time>2026-03-22T09:31:37Z</time></trkpt><trkpt lat="39.337055227035776" lon="16.126636837140996"><ele>700.0</ele><time>2026-03-22T09:31:38Z</time></trkpt><trkpt lat="39.3369262593858" lon="16.1267993970379"><ele>718.0</ele><time>2026-03-22T09:31:39Z</time></trkpt><trkpt lat="39.33679524048165" lon="16.12696094972092"><ele>718.0</ele><time>2026-03-22T09:31:40Z</time></trkpt><trkpt lat="39.33668574013588" lon="16.12715174840159"><ele>718.0</ele><time>2026-03-22T09:31:40.999Z</time></trkpt><trkpt lat="39.33658614055677" lon="16.127355390783702"><ele>718.0</ele><time>2026-03-22T09:31:41.999Z</time></trkpt><trkpt lat="39.33649356469294" lon="16.127570890843028"><ele>727.0</ele><time>2026-03-22T09:31:42.999Z</time></trkpt><trkpt lat="39.33640197283983" lon="16.12778601683255"><ele>736.0</ele><time>2026-03-22T09:31:43.999Z</time></trkpt><trkpt lat="39.33628549764422" lon="16.1280586522378"><ele>745.0</ele><time>2026-03-22T09:31:44.999Z</time></trkpt><trkpt lat="39.33618888084694" lon="16.128284067231267"><ele>752.6666666666667</ele><time>2026-03-22T09:31:45.999Z</time></trkpt><trkpt lat="39.336093173240094" lon="16.128507360940088"><ele>760.3333333333334</ele><time>2026-03-22T09:31:46.999Z</time></trkpt><trkpt lat="39.33599685562897" lon="16.128732077841473"><ele>768.0</ele><time>2026-03-22T09:31:47.999Z</time></trkpt><trkpt lat="39.33589844360853" lon="16.12895674809107"><ele>757.0</ele><time>2026-03-22T09:31:48.999Z</time></trkpt><trkpt lat="39.33579771158834" lon="16.129181506703176"><ele>746.0</ele><time>2026-03-22T09:31:49.999Z</time></trkpt><trkpt lat="39.33569408869228" lon="16.12939979234753"><ele>735.0</ele><time>2026-03-22T09:31:50.999Z</time></trkpt><trkpt lat="39.33558646223179" lon="16.12961412837712"><ele>738.6666666666666</ele><time>2026-03-22T09:31:51.999Z</time></trkpt><trkpt lat="39.33547898229901" lon="16.129817418807892"><ele>742.3333333333333</ele><time>2026-03-22T09:31:52.999Z</time></trkpt><trkpt lat="39.33536614222724" lon="16.130030798356348"><ele>746.0</ele><time>2026-03-22T09:31:53.999Z</time></trkpt><trkpt lat="39.335252083678405" lon="16.130226738934933"><ele>734.6666666666666</ele><time>2026-03-22T09:31:54.999Z</time></trkpt><trkpt lat="39.33513094790805" lon="16.130405520316614"><ele>723.3333333333334</ele><time>2026-03-22T09:31:55.999Z</time></trkpt><trkpt lat="39.33499681560449" lon="16.130566713735835"><ele>712.0</ele><time>2026-03-22T09:31:56.999Z</time></trkpt><trkpt lat="39.33486338738736" lon="16.130702509582356"><ele>708.6666666666667</ele><time>2026-03-22T09:31:57.999Z</time></trkpt><trkpt lat="39.3347238425044" lon="16.130823219892875"><ele>705.3333333333334</ele><time>2026-03-22T09:31:58.999Z</time></trkpt><trkpt lat="39.3345801699405" lon="16.130925224835053"><ele>702.0</ele><time>2026-03-22T09:31:59.999Z</time></trkpt><trkpt lat="39.334424080530255" lon="16.13101429512362"><ele>702.0</ele><time>2026-03-22T09:32:00.999Z</time></trkpt><trkpt lat="39.33426421763727" lon="16.13108702162705"><ele>702.0</ele><time>2026-03-22T09:32:01.999Z</time></trkpt><trkpt lat="39.33410983265544" lon="16.13114023109646"><ele>702.0</ele><time>2026-03-22T09:32:02.999Z</time></trkpt><trkpt lat="39.33394808817518" lon="16.131185246468533"><ele>706.6666666666666</ele><time>2026-03-22T09:32:03.999Z</time></trkpt><trkpt lat="39.33378353615071" lon="16.13121711267368"><ele>711.3333333333333</ele><time>2026-03-22T09:32:04.999Z</time></trkpt><trkpt lat="39.33363031521379" lon="16.131233315371215"><ele>716.0</ele><time>2026-03-22T09:32:05.999Z</time></trkpt><trkpt lat="39.333468459565196" lon="16.13124457049131"><ele>716.0</ele><time>2026-03-22T09:32:06.999Z</time></trkpt><trkpt lat="39.33330697772971" lon="16.13126055052456"><ele>716.0</ele><time>2026-03-22T09:32:07.999Z</time></trkpt><trkpt lat="39.333142914706414" lon="16.131244550980004"><ele>716.0</ele><time>2026-03-22T09:32:08.999Z</time></trkpt><trkpt lat="39.33297857996281" lon="16.131224375691453"><ele>718.6666666666666</ele><time>2026-03-22T09:32:09.999Z</time></trkpt><trkpt lat="39.33281735164685" lon="16.13119562943858"><ele>721.3333333333334</ele><time>2026-03-22T09:32:10.999Z</time></trkpt><trkpt lat="39.33265369149743" lon="16.131176665279778"><ele>724.0</ele><time>2026-03-22T09:32:11.999Z</time></trkpt><trkpt lat="39.33248832478157" lon="16.131154347334252"><ele>724.0</ele><time>2026-03-22T09:32:12.999Z</time></trkpt><trkpt lat="39.33232159263282" lon="16.13113404704854"><ele>724.0</ele><time>2026-03-22T09:32:13.999Z</time></trkpt><trkpt lat="39.3321560159217" lon="16.131116141066823"><ele>724.0</ele><time>2026-03-22T09:32:14.999Z</time></trkpt><trkpt lat="39.331989595833974" lon="16.131095140372903"><ele>722.3333333333334</ele><time>2026-03-22T09:32:15.999Z</time></trkpt><trkpt lat="39.331825148303274" lon="16.131070245347477"><ele>720.6666666666666</ele><time>2026-03-22T09:32:16.999Z</time></trkpt><trkpt lat="39.3316576643872" lon="16.131038690638537"><ele>719.0</ele><time>2026-03-22T09:32:17.999Z</time></trkpt><trkpt lat="39.33148890163177" lon="16.130995476339088"><ele>714.0</ele><time>2026-03-22T09:32:18.999Z</time></trkpt><trkpt lat="39.33129374465021" lon="16.130938403586534"><ele>709.0</ele><time>2026-03-22T09:32:19.999Z</time></trkpt><trkpt lat="39.33105777559831" lon="16.13085182172176"><ele>704.0</ele><time>2026-03-22T09:32:20.999Z</time></trkpt><trkpt lat="39.33080211744815" lon="16.13074602077535"><ele>712.0</ele><time>2026-03-22T09:32:21.999Z</time></trkpt><trkpt lat="39.33052689584872" lon="16.13064014967237"><ele>720.0</ele><time>2026-03-22T09:32:22.999Z</time></trkpt><trkpt lat="39.330204033204254" lon="16.130488685716024"><ele>720.0</ele><time>2026-03-22T09:32:23.999Z</time></trkpt><trkpt lat="39.329859887218674" lon="16.130349899339066"><ele>720.0</ele><time>2026-03-22T09:32:24.999Z</time></trkpt><trkpt lat="39.32950283181717" lon="16.130211390757022"><ele>716.0</ele><time>2026-03-22T09:32:25.999Z</time></trkpt><trkpt lat="39.32916691278877" lon="16.130081081379394"><ele>712.0</ele><time>2026-03-22T09:32:26.999Z</time></trkpt><trkpt lat="39.328855725457586" lon="16.129960960507013"><ele>724.0</ele><time>2026-03-22T09:32:27.999Z</time></trkpt><trkpt lat="39.32856711922026" lon="16.12985019588772"><ele>736.0</ele><time>2026-03-22T09:32:28.999Z</time></trkpt><trkpt lat="39.32828375328015" lon="16.129759998813537"><ele>740.0</ele><time>2026-03-22T09:32:29.999Z</time></trkpt><trkpt lat="39.32801096160579" lon="16.129653225724464"><ele>744.0</ele><time>2026-03-22T09:32:30.999Z</time></trkpt><trkpt lat="39.32775438461198" lon="16.129550161670288"><ele>744.0</ele><time>2026-03-22T09:32:31.999Z</time></trkpt><trkpt lat="39.32750677419263" lon="16.129451417678837"><ele>744.0</ele><time>2026-03-22T09:32:32.999Z</time></trkpt><trkpt lat="39.32727153825498" lon="16.129343592778554"><ele>734.0</ele><time>2026-03-22T09:32:33.999Z</time></trkpt><trkpt lat="39.32704692005662" lon="16.12921756171621"><ele>724.0</ele><time>2026-03-22T09:32:34.999Z</time></trkpt><trkpt lat="39.32684016303441" lon="16.129077986904072"><ele>725.3333333333334</ele><time>2026-03-22T09:32:35.999Z</time></trkpt><trkpt lat="39.32665068081026" lon="16.128924299682318"><ele>726.6666666666666</ele><time>2026-03-22T09:32:36.999Z</time></trkpt><trkpt lat="39.32648173992416" lon="16.128751969568548"><ele>728.0</ele><time>2026-03-22T09:32:37.999Z</time></trkpt><trkpt lat="39.32633252191534" lon="16.128562190176964"><ele>728.0</ele><time>2026-03-22T09:32:38.999Z</time></trkpt><trkpt lat="39.326199194743744" lon="16.128352022662664"><ele>728.0</ele><time>2026-03-22T09:32:39.999Z</time></trkpt><trkpt lat="39.32607936143772" lon="16.128116758390643"><ele>728.0</ele><time>2026-03-22T09:32:40.999Z</time></trkpt><trkpt lat="39.32597401803399" lon="16.12786902861431"><ele>731.6666666666666</ele><time>2026-03-22T09:32:41.999Z</time></trkpt><trkpt lat="39.3258789625086" lon="16.127612996856982"><ele>735.3333333333334</ele><time>2026-03-22T09:32:42.999Z</time></trkpt><trkpt lat="39.32578782234988" lon="16.127356287174162"><ele>739.0</ele><time>2026-03-22T09:32:43.999Z</time></trkpt><trkpt lat="39.32570219959758" lon="16.127093857409232"><ele>740.3333333333334</ele><time>2026-03-22T09:32:44.999Z</time></trkpt><trkpt lat="39.325620219226494" lon="16.126829711767467"><ele>741.6666666666666</ele><time>2026-03-22T09:32:46Z</time></trkpt><trkpt lat="39.32553580871539" lon="16.12657003439222"><ele>743.0</ele><time>2026-03-22T09:32:47Z</time></trkpt><trkpt lat="39.32544620793835" lon="16.126316042029245"><ele>744.6666666666666</ele><time>2026-03-22T09:32:48Z</time></trkpt><trkpt lat="39.325350208451916" lon="16.126066276875353"><ele>746.3333333333334</ele><time>2026-03-22T09:32:49Z</time></trkpt><trkpt lat="39.32524190534308" lon="16.125826432787747"><ele>748.0</ele><time>2026-03-22T09:32:50Z</time></trkpt><trkpt lat="39.32512307013314" lon="16.12559248550242"><ele>746.6666666666667</ele><time>2026-03-22T09:32:51Z</time></trkpt><trkpt lat="39.32498769068899" lon="16.12537322323111"><ele>745.3333333333334</ele><time>2026-03-22T09:32:52Z</time></trkpt><trkpt lat="39.32483449180854" lon="16.125183124372924"><ele>744.0</ele><time>2026-03-22T09:32:53Z</time></trkpt><trkpt lat="39.3246711590718" lon="16.125021512012697"><ele>750.0</ele><time>2026-03-22T09:32:54Z</time></trkpt><trkpt lat="39.32449614774022" lon="16.124877701422598"><ele>756.0</ele><time>2026-03-22T09:32:55Z</time></trkpt><trkpt lat="39.32431071982288" lon="16.12474411659581"><ele>762.0</ele><time>2026-03-22T09:32:56Z</time></trkpt><trkpt lat="39.32411031759904" lon="16.124630854500804"><ele>766.0</ele><time>2026-03-22T09:32:57Z</time></trkpt><trkpt lat="39.323890365171756" lon="16.12451444717494"><ele>770.0</ele><time>2026-03-22T09:32:58Z</time></trkpt><trkpt lat="39.32362569506977" lon="16.124410941531767"><ele>770.0</ele><time>2026-03-22T09:32:59Z</time></trkpt><trkpt lat="39.3233412009296" lon="16.124314323939046"><ele>770.0</ele><time>2026-03-22T09:33:00Z</time></trkpt><trkpt lat="39.323048948336876" lon="16.124227861354534"><ele>770.0</ele><time>2026-03-22T09:33:01Z</time></trkpt><trkpt lat="39.32277041471745" lon="16.12412589204194"><ele>770.0</ele><time>2026-03-22T09:33:02Z</time></trkpt><trkpt lat="39.32251799943106" lon="16.124028357399908"><ele>775.5</ele><time>2026-03-22T09:33:03Z</time></trkpt><trkpt lat="39.3222820053205" lon="16.123926531229674"><ele>781.0</ele><time>2026-03-22T09:33:04Z</time></trkpt><trkpt lat="39.322056053271226" lon="16.123815928723065"><ele>781.0</ele><time>2026-03-22T09:33:05Z</time></trkpt><trkpt lat="39.32182823704904" lon="16.123695637409774"><ele>781.0</ele><time>2026-03-22T09:33:06Z</time></trkpt><trkpt lat="39.32159311612376" lon="16.123574283273687"><ele>777.5</ele><time>2026-03-22T09:33:07Z</time></trkpt><trkpt lat="39.321359908518126" lon="16.123448775178694"><ele>774.0</ele><time>2026-03-22T09:33:08Z</time></trkpt><trkpt lat="39.3211360571136" lon="16.12331732815671"><ele>782.5</ele><time>2026-03-22T09:33:09Z</time></trkpt><trkpt lat="39.32092697341137" lon="16.123173539961467"><ele>791.0</ele><time>2026-03-22T09:33:10Z</time></trkpt><trkpt lat="39.32073320646602" lon="16.12301645015788"><ele>788.0</ele><time>2026-03-22T09:33:11Z</time></trkpt><trkpt lat="39.32055110292324" lon="16.12283969551609"><ele>785.0</ele><time>2026-03-22T09:33:12Z</time></trkpt><trkpt lat="39.32038007003725" lon="16.122639572697956"><ele>785.0</ele><time>2026-03-22T09:33:13Z</time></trkpt><trkpt lat="39.32022666077397" lon="16.122416694111095"><ele>785.0</ele><time>2026-03-22T09:33:14Z</time></trkpt><trkpt lat="39.32009592971869" lon="16.122173594983987"><ele>791.0</ele><time>2026-03-22T09:33:15Z</time></trkpt><trkpt lat="39.319988663140464" lon="16.121910628650703"><ele>797.0</ele><time>2026-03-22T09:33:16Z</time></trkpt><trkpt lat="39.31989105470071" lon="16.12163896237357"><ele>800.3333333333334</ele><time>2026-03-22T09:33:17Z</time></trkpt><trkpt lat="39.31982803788522" lon="16.121356967975174"><ele>803.6666666666667</ele><time>2026-03-22T09:33:18Z</time></trkpt><trkpt lat="39.31978938697458" lon="16.121080232411906"><ele>807.0</ele><time>2026-03-22T09:33:19Z</time></trkpt><trkpt lat="39.319761932541674" lon="16.120800997720345"><ele>812.3333333333333</ele><time>2026-03-22T09:33:20Z</time></trkpt><trkpt lat="39.31975180957229" lon="16.12054576315976"><ele>817.6666666666666</ele><time>2026-03-22T09:33:21Z</time></trkpt><trkpt lat="39.319748455837285" lon="16.120295226490033"><ele>823.0</ele><time>2026-03-22T09:33:22Z</time></trkpt><trkpt lat="39.319745423828856" lon="16.120013200894405"><ele>839.5</ele><time>2026-03-22T09:33:23Z</time></trkpt><trkpt lat="39.319742231665785" lon="16.11970048489558"><ele>856.0</ele><time>2026-03-22T09:33:24Z</time></trkpt><trkpt lat="39.31973955586201" lon="16.119400575323645"><ele>888.0</ele><time>2026-03-22T09:33:25Z</time></trkpt><trkpt lat="39.31973343824666" lon="16.11878625629646"><ele>888.0</ele><time>2026-03-22T09:33:26Z</time></trkpt><trkpt lat="39.319729483451084" lon="16.118464556736424"><ele>888.0</ele><time>2026-03-22T09:33:27Z</time></trkpt><trkpt lat="39.31972590955507" lon="16.118146917513"><ele>897.0</ele><time>2026-03-22T09:33:28Z</time></trkpt><trkpt lat="39.31972357736343" lon="16.117843149454547"><ele>906.0</ele><time>2026-03-22T09:33:29Z</time></trkpt><trkpt lat="39.31972116529258" lon="16.117533449777543"><ele>908.0</ele><time>2026-03-22T09:33:30Z</time></trkpt><trkpt lat="39.31971764363816" lon="16.1172408589638"><ele>910.0</ele><time>2026-03-22T09:33:31Z</time></trkpt><trkpt lat="39.31971425195239" lon="16.11695906650019"><ele>912.0</ele><time>2026-03-22T09:33:32Z</time></trkpt><trkpt lat="39.31971124350201" lon="16.116690884540184"><ele>913.0</ele><time>2026-03-22T09:33:33Z</time></trkpt><trkpt lat="39.31970830681681" lon="16.116427884306365"><ele>914.0</ele><time>2026-03-22T09:33:34Z</time></trkpt><trkpt lat="39.31970528854541" lon="16.116157577347387"><ele>915.0</ele><time>2026-03-22T09:33:35Z</time></trkpt><trkpt lat="39.31970233310694" lon="16.115892897738547"><ele>923.0</ele><time>2026-03-22T09:33:36Z</time></trkpt><trkpt lat="39.31969937840237" lon="16.115628283185735"><ele>931.0</ele><time>2026-03-22T09:33:37Z</time></trkpt><trkpt lat="39.31969656613618" lon="16.115365863969252"><ele>939.0</ele><time>2026-03-22T09:33:38Z</time></trkpt><trkpt lat="39.31969407043689" lon="16.115109149154677"><ele>948.3333333333333</ele><time>2026-03-22T09:33:39Z</time></trkpt><trkpt lat="39.31969155487627" lon="16.11485039128059"><ele>957.6666666666666</ele><time>2026-03-22T09:33:40Z</time></trkpt><trkpt lat="39.31968914213861" lon="16.114602210200694"><ele>967.0</ele><time>2026-03-22T09:33:40.999Z</time></trkpt><trkpt lat="39.31968677190772" lon="16.114358401458105"><ele>967.0</ele><time>2026-03-22T09:33:41.999Z</time></trkpt><trkpt lat="39.31968447677362" lon="16.114121499808345"><ele>967.0</ele><time>2026-03-22T09:33:42.999Z</time></trkpt><trkpt lat="39.31968215109174" lon="16.113878340170302"><ele>967.0</ele><time>2026-03-22T09:33:43.999Z</time></trkpt><trkpt lat="39.319679834097634" lon="16.113636088895554"><ele>977.3333333333333</ele><time>2026-03-22T09:33:44.999Z</time></trkpt><trkpt lat="39.31967768735735" lon="16.113411637948502"><ele>987.6666666666667</ele><time>2026-03-22T09:33:45.999Z</time></trkpt><trkpt lat="39.319675610675596" lon="16.113194512219383"><ele>998.0</ele><time>2026-03-22T09:33:46.999Z</time></trkpt><trkpt lat="39.319673596978866" lon="16.112983971920976"><ele>1006.0</ele><time>2026-03-22T09:33:47.999Z</time></trkpt><trkpt lat="39.319671606136154" lon="16.11277582118988"><ele>1014.0</ele><time>2026-03-22T09:33:49.018Z</time></trkpt><trkpt lat="39.31962838372637" lon="16.11016380233025"><ele>905.0</ele><time>2026-03-22T09:33:52.37Z</time></trkpt><trkpt lat="39.319620703400254" lon="16.109353108045582"><ele>873.0</ele><time>2026-03-22T09:33:53.369Z</time></trkpt><trkpt lat="39.31961307328415" lon="16.108542646651127"><ele>841.0</ele><time>2026-03-22T09:33:54.367Z</time></trkpt><trkpt lat="39.319605411991105" lon="16.107728873680376"><ele>810.0</ele><time>2026-03-22T09:33:55.37Z</time></trkpt><trkpt lat="39.31959779040232" lon="16.10691931804679"><ele>775.0</ele><time>2026-03-22T09:33:56.367Z</time></trkpt><trkpt lat="39.31959012869662" lon="16.10610550124422"><ele>753.0</ele><time>2026-03-22T09:33:57.37Z</time></trkpt><trkpt lat="39.319584962545804" lon="16.10527173737299"><ele>753.0</ele><time>2026-03-22T09:34:11.999Z</time></trkpt><trkpt lat="39.31957997790916" lon="16.105011452332523"><ele>753.0</ele><time>2026-03-22T09:34:12.999Z</time></trkpt><trkpt lat="39.31958327412549" lon="16.104755379789133"><ele>753.0</ele><time>2026-03-22T09:34:13.999Z</time></trkpt><trkpt lat="39.319589694219694" lon="16.10450826590992"><ele>759.6666666666667</ele><time>2026-03-22T09:34:14.999Z</time></trkpt><trkpt lat="39.31958786646106" lon="16.104259012609216"><ele>766.3333333333334</ele><time>2026-03-22T09:34:15.999Z</time></trkpt><trkpt lat="39.31959194899069" lon="16.104005829779673"><ele>773.0</ele><time>2026-03-22T09:34:16.999Z</time></trkpt><trkpt lat="39.31958829555014" lon="16.103751918969007"><ele>773.6666666666667</ele><time>2026-03-22T09:34:17.999Z</time></trkpt><trkpt lat="39.31958488542124" lon="16.103490805554923"><ele>774.3333333333333</ele><time>2026-03-22T09:34:18.999Z</time></trkpt><trkpt lat="39.31957739553275" lon="16.103239075643383"><ele>775.0</ele><time>2026-03-22T09:34:19.999Z</time></trkpt><trkpt lat="39.319563465030335" lon="16.102997434067174"><ele>775.0</ele><time>2026-03-22T09:34:20.999Z</time></trkpt><trkpt lat="39.319545177778885" lon="16.102764552954497"><ele>775.0</ele><time>2026-03-22T09:34:21.999Z</time></trkpt><trkpt lat="39.319531520005135" lon="16.102506847659953"><ele>775.0</ele><time>2026-03-22T09:34:22.999Z</time></trkpt><trkpt lat="39.319502647817885" lon="16.10226480959007"><ele>763.6666666666666</ele><time>2026-03-22T09:34:23.999Z</time></trkpt><trkpt lat="39.31945916268959" lon="16.101997396103638"><ele>752.3333333333333</ele><time>2026-03-22T09:34:24.999Z</time></trkpt><trkpt lat="39.31940318460912" lon="16.101733343511928"><ele>741.0</ele><time>2026-03-22T09:34:25.999Z</time></trkpt><trkpt lat="39.319330907857164" lon="16.101454625021933"><ele>728.0</ele><time>2026-03-22T09:34:26.999Z</time></trkpt><trkpt lat="39.319245195627204" lon="16.10114773097826"><ele>715.0</ele><time>2026-03-22T09:34:27.999Z</time></trkpt><trkpt lat="39.31915416359723" lon="16.100822992083938"><ele>712.0</ele><time>2026-03-22T09:34:28.999Z</time></trkpt><trkpt lat="39.31906220876799" lon="16.10049496117471"><ele>709.0</ele><time>2026-03-22T09:34:29.999Z</time></trkpt><trkpt lat="39.31895733480251" lon="16.10017584212158"><ele>732.0</ele><time>2026-03-22T09:34:30.999Z</time></trkpt><trkpt lat="39.31887147129745" lon="16.09985199237997"><ele>755.0</ele><time>2026-03-22T09:34:31.999Z</time></trkpt><trkpt lat="39.318781318754574" lon="16.099528902399268"><ele>755.0</ele><time>2026-03-22T09:34:32.999Z</time></trkpt><trkpt lat="39.31869019309292" lon="16.09920389108635"><ele>755.0</ele><time>2026-03-22T09:34:33.999Z</time></trkpt><trkpt lat="39.318597437080385" lon="16.09887754335208"><ele>747.5</ele><time>2026-03-22T09:34:34.999Z</time></trkpt><trkpt lat="39.318504754039886" lon="16.098547443576464"><ele>740.0</ele><time>2026-03-22T09:34:35.999Z</time></trkpt><trkpt lat="39.31841336548855" lon="16.09821803463754"><ele>727.5</ele><time>2026-03-22T09:34:36.999Z</time></trkpt><trkpt lat="39.318327779513965" lon="16.097892819958318"><ele>715.0</ele><time>2026-03-22T09:34:37.999Z</time></trkpt><trkpt lat="39.31823135774023" lon="16.097574254546913"><ele>705.0</ele><time>2026-03-22T09:34:38.999Z</time></trkpt><trkpt lat="39.31814847795529" lon="16.09725032178951"><ele>695.0</ele><time>2026-03-22T09:34:39.999Z</time></trkpt><trkpt lat="39.31808040624231" lon="16.096927620105017"><ele>714.0</ele><time>2026-03-22T09:34:40.999Z</time></trkpt><trkpt lat="39.318023479476224" lon="16.096602376785242"><ele>733.0</ele><time>2026-03-22T09:34:41.999Z</time></trkpt><trkpt lat="39.31798069184349" lon="16.096270545115857"><ele>733.0</ele><time>2026-03-22T09:34:42.999Z</time></trkpt><trkpt lat="39.31794899725756" lon="16.09593032101249"><ele>733.0</ele><time>2026-03-22T09:34:43.999Z</time></trkpt><trkpt lat="39.317921323270745" lon="16.09558839989625"><ele>734.5</ele><time>2026-03-22T09:34:44.999Z</time></trkpt><trkpt lat="39.317896274478066" lon="16.09524491585946"><ele>736.0</ele><time>2026-03-22T09:34:45.999Z</time></trkpt><trkpt lat="39.31787056627399" lon="16.09490298457753"><ele>736.0</ele><time>2026-03-22T09:34:46.999Z</time></trkpt><trkpt lat="39.31784318931283" lon="16.09455545329587"><ele>736.0</ele><time>2026-03-22T09:34:47.999Z</time></trkpt><trkpt lat="39.3178174070779" lon="16.094209025245792"><ele>733.0</ele><time>2026-03-22T09:34:48.999Z</time></trkpt><trkpt lat="39.317790088510776" lon="16.09386666951673"><ele>730.0</ele><time>2026-03-22T09:34:49.999Z</time></trkpt><trkpt lat="39.3177638255146" lon="16.093528081386523"><ele>722.0</ele><time>2026-03-22T09:34:50.999Z</time></trkpt><trkpt lat="39.317734642079785" lon="16.093189584289302"><ele>714.0</ele><time>2026-03-22T09:34:52Z</time></trkpt><trkpt lat="39.31769841681081" lon="16.09285369217543"><ele>714.0</ele><time>2026-03-22T09:34:53Z</time></trkpt><trkpt lat="39.317645168772856" lon="16.092525412008964"><ele>714.0</ele><time>2026-03-22T09:34:54Z</time></trkpt><trkpt lat="39.317570657336624" lon="16.092203545907804"><ele>711.5</ele><time>2026-03-22T09:34:55Z</time></trkpt><trkpt lat="39.31747401920524" lon="16.091884385904926"><ele>709.0</ele><time>2026-03-22T09:34:56Z</time></trkpt><trkpt lat="39.31735638050309" lon="16.091568334345148"><ele>727.0</ele><time>2026-03-22T09:34:57Z</time></trkpt><trkpt lat="39.317218910262326" lon="16.09125664824784"><ele>745.0</ele><time>2026-03-22T09:34:58Z</time></trkpt><trkpt lat="39.31706445202636" lon="16.09094285810809"><ele>745.5</ele><time>2026-03-22T09:34:59Z</time></trkpt><trkpt lat="39.316900514810385" lon="16.090613709242966"><ele>746.0</ele><time>2026-03-22T09:35:00Z</time></trkpt><trkpt lat="39.31672044086833" lon="16.090256126069757"><ele>744.0</ele><time>2026-03-22T09:35:01Z</time></trkpt><trkpt lat="39.316541674665665" lon="16.089849823893154"><ele>742.0</ele><time>2026-03-22T09:35:02Z</time></trkpt><trkpt lat="39.316338155303434" lon="16.089428366302972"><ele>727.0</ele><time>2026-03-22T09:35:03Z</time></trkpt><trkpt lat="39.31612780743698" lon="16.088992325098296"><ele>712.0</ele><time>2026-03-22T09:35:04Z</time></trkpt><trkpt lat="39.315928106196054" lon="16.088578237246647"><ele>708.0</ele><time>2026-03-22T09:35:05Z</time></trkpt><trkpt lat="39.31573948245206" lon="16.088181785309185"><ele>704.0</ele><time>2026-03-22T09:35:06Z</time></trkpt><trkpt lat="39.31554069008438" lon="16.08776217295933"><ele>669.0</ele><time>2026-03-22T09:35:07.073Z</time></trkpt><trkpt lat="39.31520847942106" lon="16.087064016682046"><ele>669.0</ele><time>2026-03-22T09:35:10Z</time></trkpt><trkpt lat="39.31505524484447" lon="16.08675667683649"><ele>669.0</ele><time>2026-03-22T09:35:11Z</time></trkpt><trkpt lat="39.314892600022304" lon="16.086421554791148"><ele>672.0</ele><time>2026-03-22T09:35:12Z</time></trkpt><trkpt lat="39.31476209793342" lon="16.08614489505525"><ele>675.0</ele><time>2026-03-22T09:35:13Z</time></trkpt><trkpt lat="39.31463800930968" lon="16.08587720170245"><ele>659.5</ele><time>2026-03-22T09:35:14Z</time></trkpt><trkpt lat="39.3145184876401" lon="16.085614470613873"><ele>644.0</ele><time>2026-03-22T09:35:15Z</time></trkpt><trkpt lat="39.314421004197726" lon="16.085322691661602"><ele>644.0</ele><time>2026-03-22T09:35:16Z</time></trkpt><trkpt lat="39.314349451437195" lon="16.08503402920819"><ele>644.0</ele><time>2026-03-22T09:35:17Z</time></trkpt><trkpt lat="39.31429386340079" lon="16.08474442516405"><ele>650.5</ele><time>2026-03-22T09:35:18Z</time></trkpt><trkpt lat="39.31425366011522" lon="16.084452517055777"><ele>657.0</ele><time>2026-03-22T09:35:19Z</time></trkpt><trkpt lat="39.314239867556864" lon="16.084156255987637"><ele>652.0</ele><time>2026-03-22T09:35:20Z</time></trkpt><trkpt lat="39.31424593111778" lon="16.083863115244423"><ele>647.0</ele><time>2026-03-22T09:35:21Z</time></trkpt><trkpt lat="39.314278671430586" lon="16.083575688538875"><ele>647.0</ele><time>2026-03-22T09:35:22Z</time></trkpt><trkpt lat="39.314333006200954" lon="16.083290968122284"><ele>647.0</ele><time>2026-03-22T09:35:23Z</time></trkpt><trkpt lat="39.31440721669419" lon="16.08300787299736"><ele>633.5</ele><time>2026-03-22T09:35:24Z</time></trkpt><trkpt lat="39.31450835966198" lon="16.082727636330056"><ele>620.0</ele><time>2026-03-22T09:35:25Z</time></trkpt><trkpt lat="39.31463449863433" lon="16.08246034424367"><ele>640.0</ele><time>2026-03-22T09:35:26Z</time></trkpt><trkpt lat="39.31477265576021" lon="16.082207439950775"><ele>660.0</ele><time>2026-03-22T09:35:27Z</time></trkpt><trkpt lat="39.31492315716236" lon="16.081965989542564"><ele>660.0</ele><time>2026-03-22T09:35:28Z</time></trkpt><trkpt lat="39.31509182126467" lon="16.08172631971155"><ele>660.0</ele><time>2026-03-22T09:35:29Z</time></trkpt><trkpt lat="39.31528545344918" lon="16.081481758755075"><ele>657.0</ele><time>2026-03-22T09:35:30Z</time></trkpt><trkpt lat="39.31549952422797" lon="16.08122552811171"><ele>654.0</ele><time>2026-03-22T09:35:31Z</time></trkpt><trkpt lat="39.315726422476324" lon="16.0809565564282"><ele>629.5</ele><time>2026-03-22T09:35:32Z</time></trkpt><trkpt lat="39.315946136879695" lon="16.08070022313189"><ele>605.0</ele><time>2026-03-22T09:35:33Z</time></trkpt><trkpt lat="39.3161465488589" lon="16.080432693264388"><ele>605.0</ele><time>2026-03-22T09:35:34Z</time></trkpt><trkpt lat="39.31635882861312" lon="16.080171577023656"><ele>605.0</ele><time>2026-03-22T09:35:35Z</time></trkpt><trkpt lat="39.31656530049057" lon="16.079939045315516"><ele>602.0</ele><time>2026-03-22T09:35:36Z</time></trkpt><trkpt lat="39.31676573603088" lon="16.07971259332122"><ele>599.0</ele><time>2026-03-22T09:35:37Z</time></trkpt><trkpt lat="39.316959914336834" lon="16.07950233855142"><ele>599.0</ele><time>2026-03-22T09:35:38Z</time></trkpt><trkpt lat="39.31714732836777" lon="16.079304835463216"><ele>599.0</ele><time>2026-03-22T09:35:39Z</time></trkpt><trkpt lat="39.31732587258535" lon="16.07911841457655"><ele>602.3333333333333</ele><time>2026-03-22T09:35:40Z</time></trkpt><trkpt lat="39.31749425066471" lon="16.07894808759399"><ele>605.6666666666666</ele><time>2026-03-22T09:35:41Z</time></trkpt><trkpt lat="39.31765167120075" lon="16.078804382154406"><ele>609.0</ele><time>2026-03-22T09:35:41.999Z</time></trkpt><trkpt lat="39.31780852102414" lon="16.078682270758954"><ele>609.0</ele><time>2026-03-22T09:35:42.999Z</time></trkpt><trkpt lat="39.317962557993056" lon="16.078598913303495"><ele>609.0</ele><time>2026-03-22T09:35:43.999Z</time></trkpt><trkpt lat="39.3181168109987" lon="16.07855737463065"><ele>609.0</ele><time>2026-03-22T09:35:44.999Z</time></trkpt><trkpt lat="39.318269978703405" lon="16.078541040089213"><ele>620.25</ele><time>2026-03-22T09:35:45.999Z</time></trkpt><trkpt lat="39.31841539271344" lon="16.078541906080435"><ele>631.5</ele><time>2026-03-22T09:35:46.999Z</time></trkpt><trkpt lat="39.318554307982794" lon="16.078544226104867"><ele>642.75</ele><time>2026-03-22T09:35:47.999Z</time></trkpt><trkpt lat="39.31869228195156" lon="16.078550142849352"><ele>654.0</ele><time>2026-03-22T09:35:48.999Z</time></trkpt><trkpt lat="39.318829469361766" lon="16.07856641277473"><ele>649.0</ele><time>2026-03-22T09:35:49.999Z</time></trkpt><trkpt lat="39.318963374068254" lon="16.078608902905554"><ele>644.0</ele><time>2026-03-22T09:35:50.999Z</time></trkpt><trkpt lat="39.31908812825409" lon="16.078679754008462"><ele>639.0</ele><time>2026-03-22T09:35:51.999Z</time></trkpt><trkpt lat="39.319204572190976" lon="16.07876239860092"><ele>634.0</ele><time>2026-03-22T09:35:52.999Z</time></trkpt><trkpt lat="39.31927431309973" lon="16.07889534349752"><ele>634.0</ele><time>2026-03-22T09:35:53.999Z</time></trkpt><trkpt lat="39.319371673110176" lon="16.079016023651008"><ele>634.0</ele><time>2026-03-22T09:35:54.999Z</time></trkpt><trkpt lat="39.319468303542635" lon="16.079148831153734"><ele>634.0</ele><time>2026-03-22T09:35:55.999Z</time></trkpt><trkpt lat="39.31954821654544" lon="16.07929593883152"><ele>634.0</ele><time>2026-03-22T09:35:56.999Z</time></trkpt><trkpt lat="39.319619929141" lon="16.079450872027394"><ele>640.0</ele><time>2026-03-22T09:35:57.999Z</time></trkpt><trkpt lat="39.319681524037094" lon="16.07961769036265"><ele>646.0</ele><time>2026-03-22T09:35:58.999Z</time></trkpt><trkpt lat="39.31973276833366" lon="16.07980675603154"><ele>652.0</ele><time>2026-03-22T09:35:59.999Z</time></trkpt><trkpt lat="39.319804033028134" lon="16.080042902908136"><ele>634.3333333333334</ele><time>2026-03-22T09:36:00.999Z</time></trkpt><trkpt lat="39.31982359680376" lon="16.0803102545455"><ele>616.6666666666666</ele><time>2026-03-22T09:36:01.999Z</time></trkpt><trkpt lat="39.31983752121622" lon="16.080554093011617"><ele>599.0</ele><time>2026-03-22T09:36:02.999Z</time></trkpt><trkpt lat="39.31984042196064" lon="16.080834474296474"><ele>595.5</ele><time>2026-03-22T09:36:03.999Z</time></trkpt><trkpt lat="39.31984147771134" lon="16.081126508437638"><ele>592.0</ele><time>2026-03-22T09:36:04.999Z</time></trkpt><trkpt lat="39.31985044777411" lon="16.081439193451256"><ele>588.5</ele><time>2026-03-22T09:36:05.999Z</time></trkpt><trkpt lat="39.31985204997605" lon="16.081739469400507"><ele>585.0</ele><time>2026-03-22T09:36:06.999Z</time></trkpt><trkpt lat="39.31985391893706" lon="16.08203763322948"><ele>585.0</ele><time>2026-03-22T09:36:07.999Z</time></trkpt><trkpt lat="39.31985566878117" lon="16.082348867884736"><ele>585.0</ele><time>2026-03-22T09:36:08.999Z</time></trkpt><trkpt lat="39.319857706190675" lon="16.082667629071846"><ele>586.5</ele><time>2026-03-22T09:36:09.999Z</time></trkpt><trkpt lat="39.31985993160992" lon="16.08299449477421"><ele>588.0</ele><time>2026-03-22T09:36:10.999Z</time></trkpt><trkpt lat="39.31985967243267" lon="16.08331267255256"><ele>588.0</ele><time>2026-03-22T09:36:11.999Z</time></trkpt><trkpt lat="39.31986103211153" lon="16.083633459250187"><ele>588.0</ele><time>2026-03-22T09:36:12.999Z</time></trkpt><trkpt lat="39.319866252903076" lon="16.08397413890931"><ele>584.5</ele><time>2026-03-22T09:36:13.999Z</time></trkpt><trkpt lat="39.31987736368564" lon="16.084336478318317"><ele>581.0</ele><time>2026-03-22T09:36:14.999Z</time></trkpt><trkpt lat="39.31988682411589" lon="16.08468563311834"><ele>580.0</ele><time>2026-03-22T09:36:15.999Z</time></trkpt><trkpt lat="39.31989956731274" lon="16.085028470136898"><ele>579.0</ele><time>2026-03-22T09:36:16.999Z</time></trkpt><trkpt lat="39.31991795898734" lon="16.085363435641433"><ele>579.0</ele><time>2026-03-22T09:36:17.999Z</time></trkpt><trkpt lat="39.319943438208846" lon="16.085694523941953"><ele>579.0</ele><time>2026-03-22T09:36:18.999Z</time></trkpt><trkpt lat="39.31996150477588" lon="16.08600702773679"><ele>582.0</ele><time>2026-03-22T09:36:19.999Z</time></trkpt><trkpt lat="39.319993406039806" lon="16.08632624566122"><ele>585.0</ele><time>2026-03-22T09:36:20.999Z</time></trkpt><trkpt lat="39.32003460859876" lon="16.086639664505018"><ele>585.5</ele><time>2026-03-22T09:36:21.999Z</time></trkpt><trkpt lat="39.32009454111764" lon="16.086936064043083"><ele>586.0</ele><time>2026-03-22T09:36:22.999Z</time></trkpt><trkpt lat="39.32017284810225" lon="16.08722417627904"><ele>591.5</ele><time>2026-03-22T09:36:23.999Z</time></trkpt><trkpt lat="39.32026812417101" lon="16.087501919736322"><ele>597.0</ele><time>2026-03-22T09:36:24.999Z</time></trkpt><trkpt lat="39.32038422822132" lon="16.08775574013286"><ele>597.0</ele><time>2026-03-22T09:36:25.999Z</time></trkpt><trkpt lat="39.32053664712642" lon="16.087975807495443"><ele>597.0</ele><time>2026-03-22T09:36:26.999Z</time></trkpt><trkpt lat="39.32071046536058" lon="16.088166758975955"><ele>569.5</ele><time>2026-03-22T09:36:27.999Z</time></trkpt><trkpt lat="39.32089636520758" lon="16.08833764776288"><ele>542.0</ele><time>2026-03-22T09:36:28.999Z</time></trkpt><trkpt lat="39.321109994826315" lon="16.088474925069796"><ele>542.0</ele><time>2026-03-22T09:36:29.999Z</time></trkpt><trkpt lat="39.32132883497048" lon="16.088586165875927"><ele>542.0</ele><time>2026-03-22T09:36:30.999Z</time></trkpt><trkpt lat="39.321563528661464" lon="16.08866526282058"><ele>518.5</ele><time>2026-03-22T09:36:31.999Z</time></trkpt><trkpt lat="39.32182403922668" lon="16.08868815243946"><ele>495.0</ele><time>2026-03-22T09:36:32.999Z</time></trkpt><trkpt lat="39.322082383862984" lon="16.088681018093364"><ele>509.0</ele><time>2026-03-22T09:36:33.999Z</time></trkpt><trkpt lat="39.32232570414171" lon="16.088640518824505"><ele>523.0</ele><time>2026-03-22T09:36:34.999Z</time></trkpt><trkpt lat="39.32256259685408" lon="16.088557868380327"><ele>523.0</ele><time>2026-03-22T09:36:35.999Z</time></trkpt><trkpt lat="39.322794843437165" lon="16.088433106861107"><ele>523.0</ele><time>2026-03-22T09:36:36.999Z</time></trkpt><trkpt lat="39.32301281327161" lon="16.088272672034265"><ele>531.5</ele><time>2026-03-22T09:36:37.999Z</time></trkpt><trkpt lat="39.32321370176346" lon="16.088082486708725"><ele>540.0</ele><time>2026-03-22T09:36:38.999Z</time></trkpt><trkpt lat="39.3234053390282" lon="16.08786190599088"><ele>540.0</ele><time>2026-03-22T09:36:39.999Z</time></trkpt><trkpt lat="39.32357804692804" lon="16.087596391739687"><ele>540.0</ele><time>2026-03-22T09:36:40.999Z</time></trkpt><trkpt lat="39.3237384965713" lon="16.08730890657529"><ele>547.0</ele><time>2026-03-22T09:36:41.999Z</time></trkpt><trkpt lat="39.32389305898074" lon="16.086998088877873"><ele>554.0</ele><time>2026-03-22T09:36:42.999Z</time></trkpt><trkpt lat="39.32405884079997" lon="16.086669910585286"><ele>536.5</ele><time>2026-03-22T09:36:43.999Z</time></trkpt><trkpt lat="39.324249913430066" lon="16.086309408385464"><ele>519.0</ele><time>2026-03-22T09:36:44.999Z</time></trkpt><trkpt lat="39.32445547638028" lon="16.08592070779799"><ele>503.0</ele><time>2026-03-22T09:36:45.999Z</time></trkpt><trkpt lat="39.32467073329739" lon="16.08551171478328"><ele>487.0</ele><time>2026-03-22T09:36:46.999Z</time></trkpt><trkpt lat="39.32487181465343" lon="16.085128534613947"><ele>481.5</ele><time>2026-03-22T09:36:47.999Z</time></trkpt><trkpt lat="39.32506179772807" lon="16.08477408720566"><ele>476.0</ele><time>2026-03-22T09:36:48.999Z</time></trkpt><trkpt lat="39.32524650720854" lon="16.084419497528174"><ele>479.5</ele><time>2026-03-22T09:36:49.999Z</time></trkpt><trkpt lat="39.32542402665306" lon="16.084077548782982"><ele>483.0</ele><time>2026-03-22T09:36:50.999Z</time></trkpt><trkpt lat="39.325594958193875" lon="16.08374767610462"><ele>492.5</ele><time>2026-03-22T09:36:51.999Z</time></trkpt><trkpt lat="39.32576537250814" lon="16.083420689899096"><ele>502.0</ele><time>2026-03-22T09:36:52.999Z</time></trkpt><trkpt lat="39.32593709621905" lon="16.083092977366235"><ele>502.0</ele><time>2026-03-22T09:36:53.999Z</time></trkpt><trkpt lat="39.326110939372974" lon="16.082765951030044"><ele>502.0</ele><time>2026-03-22T09:36:54.999Z</time></trkpt><trkpt lat="39.32628235047503" lon="16.08243808663887"><ele>491.5</ele><time>2026-03-22T09:36:55.999Z</time></trkpt><trkpt lat="39.32645533434333" lon="16.082111999277164"><ele>481.0</ele><time>2026-03-22T09:36:56.999Z</time></trkpt><trkpt lat="39.326620763513574" lon="16.08179272135432"><ele>484.5</ele><time>2026-03-22T09:36:58Z</time></trkpt><trkpt lat="39.326782296484105" lon="16.08148968450159"><ele>488.0</ele><time>2026-03-22T09:36:59Z</time></trkpt><trkpt lat="39.32693477649973" lon="16.08120001926064"><ele>488.0</ele><time>2026-03-22T09:37:00Z</time></trkpt><trkpt lat="39.32707928184263" lon="16.080927625301"><ele>488.0</ele><time>2026-03-22T09:37:01Z</time></trkpt><trkpt lat="39.327216920389795" lon="16.080658166470652"><ele>494.5</ele><time>2026-03-22T09:37:02Z</time></trkpt><trkpt lat="39.32735302163388" lon="16.080388091152333"><ele>501.0</ele><time>2026-03-22T09:37:03Z</time></trkpt><trkpt lat="39.32748645961423" lon="16.0801125390686"><ele>485.5</ele><time>2026-03-22T09:37:04Z</time></trkpt><trkpt lat="39.32761151176205" lon="16.07982286400295"><ele>470.0</ele><time>2026-03-22T09:37:05Z</time></trkpt><trkpt lat="39.32772073048661" lon="16.07952417024817"><ele>470.0</ele><time>2026-03-22T09:37:06Z</time></trkpt><trkpt lat="39.32781250649506" lon="16.079213020666195"><ele>470.0</ele><time>2026-03-22T09:37:07Z</time></trkpt><trkpt lat="39.327892104727106" lon="16.07888917922767"><ele>461.5</ele><time>2026-03-22T09:37:08Z</time></trkpt><trkpt lat="39.32796029486474" lon="16.078564216123002"><ele>453.0</ele><time>2026-03-22T09:37:09Z</time></trkpt><trkpt lat="39.32801252655807" lon="16.07823399786882"><ele>453.0</ele><time>2026-03-22T09:37:10Z</time></trkpt><trkpt lat="39.32804974641481" lon="16.077894469940915"><ele>453.0</ele><time>2026-03-22T09:37:11Z</time></trkpt><trkpt lat="39.32807130005357" lon="16.077558648249276"><ele>476.0</ele><time>2026-03-22T09:37:12Z</time></trkpt><trkpt lat="39.328077892370644" lon="16.077223601267644"><ele>499.0</ele><time>2026-03-22T09:37:13Z</time></trkpt><trkpt lat="39.328071712181654" lon="16.076886838236863"><ele>474.0</ele><time>2026-03-22T09:37:14Z</time></trkpt><trkpt lat="39.32805176987506" lon="16.07655292074857"><ele>449.0</ele><time>2026-03-22T09:37:15Z</time></trkpt><trkpt lat="39.32802264519773" lon="16.07622223137476"><ele>449.0</ele><time>2026-03-22T09:37:16Z</time></trkpt><trkpt lat="39.3279924444347" lon="16.075897835218374"><ele>449.0</ele><time>2026-03-22T09:37:17Z</time></trkpt><trkpt lat="39.32798371166522" lon="16.075589752409915"><ele>452.0</ele><time>2026-03-22T09:37:18Z</time></trkpt><trkpt lat="39.328007584424014" lon="16.07529565658233"><ele>455.0</ele><time>2026-03-22T09:37:19Z</time></trkpt><trkpt lat="39.328064091687004" lon="16.075013778527754"><ele>461.5</ele><time>2026-03-22T09:37:20Z</time></trkpt><trkpt lat="39.32814324224159" lon="16.074737376334888"><ele>468.0</ele><time>2026-03-22T09:37:21Z</time></trkpt><trkpt lat="39.32824855426826" lon="16.074479369817237"><ele>468.0</ele><time>2026-03-22T09:37:22Z</time></trkpt><trkpt lat="39.32838685332324" lon="16.074238517397678"><ele>468.0</ele><time>2026-03-22T09:37:23Z</time></trkpt><trkpt lat="39.32855217840821" lon="16.074016482593947"><ele>466.0</ele><time>2026-03-22T09:37:24Z</time></trkpt><trkpt lat="39.328737491322684" lon="16.073815817434703"><ele>464.0</ele><time>2026-03-22T09:37:25Z</time></trkpt><trkpt lat="39.328951941792916" lon="16.07365105835378"><ele>464.0</ele><time>2026-03-22T09:37:26Z</time></trkpt><trkpt lat="39.32918822339006" lon="16.073536664877317"><ele>464.0</ele><time>2026-03-22T09:37:27Z</time></trkpt><trkpt lat="39.329427776028304" lon="16.073428134285532"><ele>464.0</ele><time>2026-03-22T09:37:28Z</time></trkpt><trkpt lat="39.32967179433618" lon="16.073370501484682"><ele>464.0</ele><time>2026-03-22T09:37:29Z</time></trkpt><trkpt lat="39.32990144397269" lon="16.07333638542479"><ele>464.66666666666663</ele><time>2026-03-22T09:37:30Z</time></trkpt><trkpt lat="39.330106878457585" lon="16.073292874191267"><ele>465.33333333333337</ele><time>2026-03-22T09:37:31Z</time></trkpt><trkpt lat="39.33029514856528" lon="16.07323283101594"><ele>466.0</ele><time>2026-03-22T09:37:32Z</time></trkpt><trkpt lat="39.33045497286251" lon="16.073158594354844"><ele>471.0</ele><time>2026-03-22T09:37:33Z</time></trkpt><trkpt lat="39.3305956039196" lon="16.07307856666127"><ele>476.0</ele><time>2026-03-22T09:37:34Z</time></trkpt><trkpt lat="39.330725972181995" lon="16.07298283302143"><ele>481.0</ele><time>2026-03-22T09:37:35Z</time></trkpt><trkpt lat="39.330846011828015" lon="16.07286478395996"><ele>481.0</ele><time>2026-03-22T09:37:36Z</time></trkpt><trkpt lat="39.330967365387544" lon="16.07273743437923"><ele>481.0</ele><time>2026-03-22T09:37:37Z</time></trkpt><trkpt lat="39.33108391944016" lon="16.07260455603846"><ele>481.0</ele><time>2026-03-22T09:37:38Z</time></trkpt><trkpt lat="39.33119923653461" lon="16.072473664036334"><ele>485.33333333333337</ele><time>2026-03-22T09:37:39Z</time></trkpt><trkpt lat="39.33131604981458" lon="16.072344225589102"><ele>489.66666666666663</ele><time>2026-03-22T09:37:40Z</time></trkpt><trkpt lat="39.3314323379201" lon="16.07220848970388"><ele>494.0</ele><time>2026-03-22T09:37:41Z</time></trkpt><trkpt lat="39.33151302827285" lon="16.072044094448955"><ele>503.0</ele><time>2026-03-22T09:37:42Z</time></trkpt><trkpt lat="39.33159211739543" lon="16.071895276051908"><ele>512.0</ele><time>2026-03-22T09:37:43Z</time></trkpt><trkpt lat="39.33167279571872" lon="16.071743467158793"><ele>521.0</ele><time>2026-03-22T09:37:44Z</time></trkpt><trkpt lat="39.33174970558012" lon="16.071598749429857"><ele>530.0</ele><time>2026-03-22T09:37:44.999Z</time></trkpt><trkpt lat="39.33183674913257" lon="16.071434963191255"><ele>533.3333333333333</ele><time>2026-03-22T09:37:45.999Z</time></trkpt><trkpt lat="39.33192211345213" lon="16.07127482248985"><ele>536.6666666666666</ele><time>2026-03-22T09:37:46.999Z</time></trkpt><trkpt lat="39.331926188965255" lon="16.07106894678981"><ele>540.0</ele><time>2026-03-22T09:37:47.999Z</time></trkpt><trkpt lat="39.33201740817424" lon="16.070926881371165"><ele>540.0</ele><time>2026-03-22T09:37:48.999Z</time></trkpt><trkpt lat="39.332098481513256" lon="16.070775529921917"><ele>540.0</ele><time>2026-03-22T09:37:49.999Z</time></trkpt><trkpt lat="39.33217962790567" lon="16.070624043113057"><ele>540.0</ele><time>2026-03-22T09:37:50.999Z</time></trkpt><trkpt lat="39.33225729440797" lon="16.07047905158884"><ele>540.0</ele><time>2026-03-22T09:37:51.999Z</time></trkpt><trkpt lat="39.332329274996184" lon="16.070344228783373"><ele>536.75</ele><time>2026-03-22T09:37:52.999Z</time></trkpt><trkpt lat="39.33240446768581" lon="16.07020220560181"><ele>533.5</ele><time>2026-03-22T09:37:53.999Z</time></trkpt><trkpt lat="39.3324740223792" lon="16.07007083171876"><ele>530.25</ele><time>2026-03-22T09:37:54.999Z</time></trkpt><trkpt lat="39.332533585231324" lon="16.069927858974378"><ele>527.0</ele><time>2026-03-22T09:37:55.999Z</time></trkpt><trkpt lat="39.33260618289944" lon="16.069793230754502"><ele>527.0</ele><time>2026-03-22T09:37:56.999Z</time></trkpt><trkpt lat="39.332676265346564" lon="16.069658127734805"><ele>527.0</ele><time>2026-03-22T09:37:57.999Z</time></trkpt><trkpt lat="39.33274751223116" lon="16.069527567566816"><ele>527.0</ele><time>2026-03-22T09:37:58.999Z</time></trkpt><trkpt lat="39.33281789163488" lon="16.069392612927075"><ele>527.0</ele><time>2026-03-22T09:37:59.999Z</time></trkpt><trkpt lat="39.33289255446778" lon="16.069253713533282"><ele>527.0</ele><time>2026-03-22T09:38:00.999Z</time></trkpt><trkpt lat="39.332964331543415" lon="16.069111371892706"><ele>527.0</ele><time>2026-03-22T09:38:01.999Z</time></trkpt><trkpt lat="39.3330631996168" lon="16.06894895260725"><ele>527.0</ele><time>2026-03-22T09:38:02.999Z</time></trkpt><trkpt lat="39.333159710004495" lon="16.068726180830367"><ele>513.3333333333333</ele><time>2026-03-22T09:38:03.999Z</time></trkpt><trkpt lat="39.333245944215626" lon="16.068481173012024"><ele>499.66666666666663</ele><time>2026-03-22T09:38:04.999Z</time></trkpt><trkpt lat="39.333303351010954" lon="16.068247797129015"><ele>486.0</ele><time>2026-03-22T09:38:05.999Z</time></trkpt><trkpt lat="39.33333904975808" lon="16.068036243768262"><ele>469.33333333333337</ele><time>2026-03-22T09:38:06.999Z</time></trkpt><trkpt lat="39.33335930200162" lon="16.067814858440354"><ele>452.6666666666667</ele><time>2026-03-22T09:38:07.999Z</time></trkpt><trkpt lat="39.33336409739659" lon="16.067606606927296"><ele>436.0</ele><time>2026-03-22T09:38:08.999Z</time></trkpt><trkpt lat="39.333363926182905" lon="16.06740371620094"><ele>414.0</ele><time>2026-03-22T09:38:09.999Z</time></trkpt><trkpt lat="39.333372960947734" lon="16.067084423225893"><ele>392.0</ele><time>2026-03-22T09:38:10.999Z</time></trkpt><trkpt lat="39.333360614818595" lon="16.06680545924156"><ele>392.3333333333333</ele><time>2026-03-22T09:38:11.999Z</time></trkpt><trkpt lat="39.33333707283946" lon="16.066514331132886"><ele>392.66666666666663</ele><time>2026-03-22T09:38:12.999Z</time></trkpt><trkpt lat="39.333316250802454" lon="16.06624357856023"><ele>393.0</ele><time>2026-03-22T09:38:13.999Z</time></trkpt><trkpt lat="39.33330848857748" lon="16.06597625601552"><ele>400.0</ele><time>2026-03-22T09:38:14.999Z</time></trkpt><trkpt lat="39.333282686393616" lon="16.065673570704895"><ele>407.0</ele><time>2026-03-22T09:38:15.999Z</time></trkpt><trkpt lat="39.33327306892027" lon="16.065392715612088"><ele>407.0</ele><time>2026-03-22T09:38:16.999Z</time></trkpt><trkpt lat="39.33326700432808" lon="16.06510936595864"><ele>407.0</ele><time>2026-03-22T09:38:17.999Z</time></trkpt><trkpt lat="39.33325868740441" lon="16.064826967924784"><ele>407.0</ele><time>2026-03-22T09:38:18.999Z</time></trkpt><trkpt lat="39.333247400455605" lon="16.064544634993176"><ele>408.66666666666663</ele><time>2026-03-22T09:38:19.999Z</time></trkpt><trkpt lat="39.333238680234516" lon="16.06426100715143"><ele>410.33333333333337</ele><time>2026-03-22T09:38:20.999Z</time></trkpt><trkpt lat="39.333230511342585" lon="16.063980229850717"><ele>412.0</ele><time>2026-03-22T09:38:21.999Z</time></trkpt><trkpt lat="39.33322699851302" lon="16.06370835011862"><ele>412.0</ele><time>2026-03-22T09:38:22.999Z</time></trkpt><trkpt lat="39.333228123333704" lon="16.06343827240775"><ele>412.0</ele><time>2026-03-22T09:38:23.999Z</time></trkpt><trkpt lat="39.33324568301805" lon="16.0631738069094"><ele>412.0</ele><time>2026-03-22T09:38:24.999Z</time></trkpt><trkpt lat="39.33328515442547" lon="16.062917226027697"><ele>406.6666666666667</ele><time>2026-03-22T09:38:25.999Z</time></trkpt><trkpt lat="39.33335628209779" lon="16.06268731492833"><ele>401.33333333333337</ele><time>2026-03-22T09:38:26.999Z</time></trkpt><trkpt lat="39.33344485000015" lon="16.062477479104572"><ele>396.0</ele><time>2026-03-22T09:38:27.999Z</time></trkpt><trkpt lat="39.33356223642042" lon="16.06229065336839"><ele>392.66666666666663</ele><time>2026-03-22T09:38:28.999Z</time></trkpt><trkpt lat="39.33369645086853" lon="16.0621250158669"><ele>389.3333333333333</ele><time>2026-03-22T09:38:29.999Z</time></trkpt><trkpt lat="39.33384767791736" lon="16.061980702578225"><ele>386.0</ele><time>2026-03-22T09:38:30.999Z</time></trkpt><trkpt lat="39.334012944457804" lon="16.061855389519565"><ele>386.0</ele><time>2026-03-22T09:38:31.999Z</time></trkpt><trkpt lat="39.33418513402116" lon="16.061750645552735"><ele>386.0</ele><time>2026-03-22T09:38:32.999Z</time></trkpt><trkpt lat="39.33435805081396" lon="16.061656888418103"><ele>386.0</ele><time>2026-03-22T09:38:33.999Z</time></trkpt><trkpt lat="39.334531695527" lon="16.06156608984895"><ele>381.3333333333333</ele><time>2026-03-22T09:38:34.999Z</time></trkpt><trkpt lat="39.33470363781349" lon="16.061477373928938"><ele>376.66666666666663</ele><time>2026-03-22T09:38:35.999Z</time></trkpt><trkpt lat="39.3348752220153" lon="16.061379728457116"><ele>372.0</ele><time>2026-03-22T09:38:36.999Z</time></trkpt><trkpt lat="39.33503930849642" lon="16.061265495619747"><ele>372.0</ele><time>2026-03-22T09:38:37.999Z</time></trkpt><trkpt lat="39.33519726665107" lon="16.06113629819746"><ele>372.0</ele><time>2026-03-22T09:38:38.999Z</time></trkpt><trkpt lat="39.33534748841318" lon="16.060990315218014"><ele>372.0</ele><time>2026-03-22T09:38:39.999Z</time></trkpt><trkpt lat="39.335492458506536" lon="16.060821080066916"><ele>361.0</ele><time>2026-03-22T09:38:40.999Z</time></trkpt><trkpt lat="39.33563159138749" lon="16.060646539756473"><ele>350.0</ele><time>2026-03-22T09:38:41.999Z</time></trkpt><trkpt lat="39.33575322007435" lon="16.060475939816804"><ele>339.0</ele><time>2026-03-22T09:38:42.999Z</time></trkpt><trkpt lat="39.33586789769172" lon="16.060304036004872"><ele>339.0</ele><time>2026-03-22T09:38:43.999Z</time></trkpt><trkpt lat="39.3359868747574" lon="16.060125012007216"><ele>339.0</ele><time>2026-03-22T09:38:44.999Z</time></trkpt><trkpt lat="39.336106378813675" lon="16.05994538373761"><ele>339.0</ele><time>2026-03-22T09:38:45.999Z</time></trkpt><trkpt lat="39.336228652339464" lon="16.05976628626838"><ele>333.3333333333333</ele><time>2026-03-22T09:38:46.999Z</time></trkpt><trkpt lat="39.33635048490888" lon="16.059588817995618"><ele>327.66666666666663</ele><time>2026-03-22T09:38:47.999Z</time></trkpt><trkpt lat="39.33646922757399" lon="16.059411942507143"><ele>322.0</ele><time>2026-03-22T09:38:48.999Z</time></trkpt><trkpt lat="39.33658486579462" lon="16.05923718092281"><ele>324.66666666666663</ele><time>2026-03-22T09:38:49.999Z</time></trkpt><trkpt lat="39.336699597505586" lon="16.059065446423922"><ele>327.3333333333333</ele><time>2026-03-22T09:38:50.999Z</time></trkpt><trkpt lat="39.33681302390116" lon="16.058898505208496"><ele>330.0</ele><time>2026-03-22T09:38:51.999Z</time></trkpt><trkpt lat="39.336927177873314" lon="16.058737085762573"><ele>330.0</ele><time>2026-03-22T09:38:52.999Z</time></trkpt><trkpt lat="39.33704984221325" lon="16.058575956308914"><ele>330.0</ele><time>2026-03-22T09:38:53.999Z</time></trkpt><trkpt lat="39.33718050557876" lon="16.058423248501523"><ele>330.0</ele><time>2026-03-22T09:38:54.999Z</time></trkpt><trkpt lat="39.33731827425264" lon="16.058280256668066"><ele>330.0</ele><time>2026-03-22T09:38:55.999Z</time></trkpt><trkpt lat="39.337463263610374" lon="16.058145807657922"><ele>330.0</ele><time>2026-03-22T09:38:56.999Z</time></trkpt><trkpt lat="39.337615185772314" lon="16.05802357649143"><ele>330.0</ele><time>2026-03-22T09:38:57.999Z</time></trkpt><trkpt lat="39.337777608898136" lon="16.057917260284935"><ele>330.0</ele><time>2026-03-22T09:38:58.999Z</time></trkpt><trkpt lat="39.33794162676055" lon="16.057808360500417"><ele>330.0</ele><time>2026-03-22T09:38:59.999Z</time></trkpt><trkpt lat="39.3381082927383" lon="16.057696420719072"><ele>330.0</ele><time>2026-03-22T09:39:00.999Z</time></trkpt><trkpt lat="39.33827717426256" lon="16.057584332858834"><ele>325.3333333333333</ele><time>2026-03-22T09:39:01.999Z</time></trkpt><trkpt lat="39.3384428787119" lon="16.057470515889573"><ele>320.66666666666663</ele><time>2026-03-22T09:39:03Z</time></trkpt><trkpt lat="39.33860043907237" lon="16.05735575150509"><ele>316.0</ele><time>2026-03-22T09:39:04Z</time></trkpt><trkpt lat="39.338755765434335" lon="16.05723674592322"><ele>323.3333333333333</ele><time>2026-03-22T09:39:05Z</time></trkpt><trkpt lat="39.33890805582136" lon="16.057109413363733"><ele>330.6666666666667</ele><time>2026-03-22T09:39:06Z</time></trkpt><trkpt lat="39.33905979205276" lon="16.05697322961018"><ele>338.0</ele><time>2026-03-22T09:39:07Z</time></trkpt><trkpt lat="39.33920752167187" lon="16.05682642995747"><ele>338.0</ele><time>2026-03-22T09:39:08Z</time></trkpt><trkpt lat="39.33935204740593" lon="16.05667092709692"><ele>338.0</ele><time>2026-03-22T09:39:09Z</time></trkpt><trkpt lat="39.339489887764344" lon="16.056511503484707"><ele>338.0</ele><time>2026-03-22T09:39:10Z</time></trkpt><trkpt lat="39.33962306016341" lon="16.05635438331737"><ele>332.33333333333337</ele><time>2026-03-22T09:39:11Z</time></trkpt><trkpt lat="39.33975127825457" lon="16.056202066004932"><ele>326.6666666666667</ele><time>2026-03-22T09:39:12Z</time></trkpt><trkpt lat="39.33987789315939" lon="16.056064010833605"><ele>321.0</ele><time>2026-03-22T09:39:13Z</time></trkpt><trkpt lat="39.34000828567974" lon="16.055946568480675"><ele>321.0</ele><time>2026-03-22T09:39:14Z</time></trkpt><trkpt lat="39.34014218456855" lon="16.055876566609047"><ele>321.0</ele><time>2026-03-22T09:39:15Z</time></trkpt><trkpt lat="39.34027820440056" lon="16.055839274211262"><ele>321.0</ele><time>2026-03-22T09:39:16Z</time></trkpt><trkpt lat="39.34041030709774" lon="16.05582032219768"><ele>321.0</ele><time>2026-03-22T09:39:17Z</time></trkpt><trkpt lat="39.3405372942534" lon="16.05582180126531"><ele>320.75</ele><time>2026-03-22T09:39:18Z</time></trkpt><trkpt lat="39.34065872567576" lon="16.05584633977748"><ele>320.5</ele><time>2026-03-22T09:39:19Z</time></trkpt><trkpt lat="39.340772890664084" lon="16.055900404166216"><ele>320.25</ele><time>2026-03-22T09:39:20Z</time></trkpt><trkpt lat="39.34088537771019" lon="16.055976495423224"><ele>320.0</ele><time>2026-03-22T09:39:21Z</time></trkpt><trkpt lat="39.340994474356364" lon="16.05606429885343"><ele>320.0</ele><time>2026-03-22T09:39:22Z</time></trkpt><trkpt lat="39.34110166807191" lon="16.056153240811792"><ele>320.0</ele><time>2026-03-22T09:39:23Z</time></trkpt><trkpt lat="39.34120688053094" lon="16.056235819813658"><ele>320.0</ele><time>2026-03-22T09:39:24Z</time></trkpt><trkpt lat="39.34131358111353" lon="16.056314198438056"><ele>320.0</ele><time>2026-03-22T09:39:25Z</time></trkpt><trkpt lat="39.34142361057873" lon="16.056380421375902"><ele>318.0</ele><time>2026-03-22T09:39:26Z</time></trkpt><trkpt lat="39.34153915287783" lon="16.056409309452466"><ele>316.0</ele><time>2026-03-22T09:39:27Z</time></trkpt><trkpt lat="39.341656822886435" lon="16.056397409996183"><ele>314.0</ele><time>2026-03-22T09:39:28Z</time></trkpt><trkpt lat="39.34176945606804" lon="16.056347295030896"><ele>312.0</ele><time>2026-03-22T09:39:29Z</time></trkpt><trkpt lat="39.34186513974344" lon="16.056255922787823"><ele>312.0</ele><time>2026-03-22T09:39:30Z</time></trkpt><trkpt lat="39.3419461266266" lon="16.056120828116985"><ele>312.0</ele><time>2026-03-22T09:39:31Z</time></trkpt><trkpt lat="39.3420173368829" lon="16.055952592536915"><ele>312.0</ele><time>2026-03-22T09:39:32Z</time></trkpt><trkpt lat="39.342087595884024" lon="16.05577016000553"><ele>312.0</ele><time>2026-03-22T09:39:33Z</time></trkpt><trkpt lat="39.342156343503866" lon="16.05558699189198"><ele>314.3333333333333</ele><time>2026-03-22T09:39:34Z</time></trkpt><trkpt lat="39.34222524752223" lon="16.055409632101803"><ele>316.66666666666663</ele><time>2026-03-22T09:39:35Z</time></trkpt><trkpt lat="39.342294733503806" lon="16.055238380830506"><ele>319.0</ele><time>2026-03-22T09:39:36Z</time></trkpt><trkpt lat="39.342373362605954" lon="16.05507476905763"><ele>308.66666666666663</ele><time>2026-03-22T09:39:37Z</time></trkpt><trkpt lat="39.34246399927588" lon="16.05491790915712"><ele>298.3333333333333</ele><time>2026-03-22T09:39:38Z</time></trkpt><trkpt lat="39.34256421084724" lon="16.054769172561365"><ele>288.0</ele><time>2026-03-22T09:39:39Z</time></trkpt><trkpt lat="39.34267716681798" lon="16.05462722823735"><ele>288.0</ele><time>2026-03-22T09:39:40Z</time></trkpt><trkpt lat="39.3428008303542" lon="16.05449513589914"><ele>288.0</ele><time>2026-03-22T09:39:41Z</time></trkpt><trkpt lat="39.34294324701676" lon="16.05437815447874"><ele>288.0</ele><time>2026-03-22T09:39:42Z</time></trkpt><trkpt lat="39.34309974441163" lon="16.054272795345856"><ele>292.3333333333333</ele><time>2026-03-22T09:39:43Z</time></trkpt><trkpt lat="39.34326105592515" lon="16.054172338232053"><ele>296.66666666666663</ele><time>2026-03-22T09:39:44Z</time></trkpt><trkpt lat="39.34342829882227" lon="16.054076936174223"><ele>301.0</ele><time>2026-03-22T09:39:45Z</time></trkpt><trkpt lat="39.343595797191234" lon="16.053980222278902"><ele>295.66666666666663</ele><time>2026-03-22T09:39:46Z</time></trkpt><trkpt lat="39.34376352564163" lon="16.053883425796865"><ele>290.3333333333333</ele><time>2026-03-22T09:39:47Z</time></trkpt><trkpt lat="39.34393215690609" lon="16.053785687794186"><ele>285.0</ele><time>2026-03-22T09:39:48Z</time></trkpt><trkpt lat="39.344098441234834" lon="16.053687710749596"><ele>285.0</ele><time>2026-03-22T09:39:49Z</time></trkpt><trkpt lat="39.344260541363724" lon="16.05359304820143"><ele>285.0</ele><time>2026-03-22T09:39:50Z</time></trkpt><trkpt lat="39.34441723394845" lon="16.05349708535499"><ele>285.0</ele><time>2026-03-22T09:39:51Z</time></trkpt><trkpt lat="39.34456607270589" lon="16.05338353066009"><ele>282.6666666666667</ele><time>2026-03-22T09:39:52Z</time></trkpt><trkpt lat="39.34470990277003" lon="16.053226229588816"><ele>280.33333333333337</ele><time>2026-03-22T09:39:52.999Z</time></trkpt><trkpt lat="39.34489496273038" lon="16.053016552496842"><ele>278.0</ele><time>2026-03-22T09:39:53.999Z</time></trkpt><trkpt lat="39.34505662038473" lon="16.052713126578936"><ele>267.5</ele><time>2026-03-22T09:39:54.999Z</time></trkpt><trkpt lat="39.34521655089685" lon="16.05241888438038"><ele>257.0</ele><time>2026-03-22T09:39:55.999Z</time></trkpt><trkpt lat="39.34535090848707" lon="16.05213545604618"><ele>257.0</ele><time>2026-03-22T09:39:56.999Z</time></trkpt><trkpt lat="39.34547079581258" lon="16.051862947238334"><ele>257.0</ele><time>2026-03-22T09:39:57.999Z</time></trkpt><trkpt lat="39.34559890791496" lon="16.0516258408213"><ele>255.0</ele><time>2026-03-22T09:39:58.999Z</time></trkpt><trkpt lat="39.34576307942686" lon="16.051418188986744"><ele>253.0</ele><time>2026-03-22T09:39:59.999Z</time></trkpt><trkpt lat="39.34595759393688" lon="16.051242856267756"><ele>253.0</ele><time>2026-03-22T09:40:00.999Z</time></trkpt><trkpt lat="39.34617571049614" lon="16.051121494911204"><ele>253.0</ele><time>2026-03-22T09:40:01.999Z</time></trkpt><trkpt lat="39.346403334996666" lon="16.051041307380014"><ele>257.0</ele><time>2026-03-22T09:40:02.999Z</time></trkpt><trkpt lat="39.34663527580734" lon="16.050973590134515"><ele>261.0</ele><time>2026-03-22T09:40:03.999Z</time></trkpt><trkpt lat="39.346853045870816" lon="16.050916449676595"><ele>261.0</ele><time>2026-03-22T09:40:04.999Z</time></trkpt><trkpt lat="39.347056679041266" lon="16.05086618690879"><ele>261.0</ele><time>2026-03-22T09:40:05.999Z</time></trkpt><trkpt lat="39.347240379926816" lon="16.050869174496118"><ele>261.0</ele><time>2026-03-22T09:40:06.999Z</time></trkpt><trkpt lat="39.347421010026075" lon="16.0508822651622"><ele>258.6666666666667</ele><time>2026-03-22T09:40:07.999Z</time></trkpt><trkpt lat="39.34759161210202" lon="16.050956337210337"><ele>256.33333333333337</ele><time>2026-03-22T09:40:08.999Z</time></trkpt><trkpt lat="39.34774289880485" lon="16.05106097333595"><ele>254.0</ele><time>2026-03-22T09:40:09.999Z</time></trkpt><trkpt lat="39.34786271061247" lon="16.051208201195458"><ele>254.0</ele><time>2026-03-22T09:40:10.999Z</time></trkpt><trkpt lat="39.347954730419225" lon="16.051395108420525"><ele>254.0</ele><time>2026-03-22T09:40:11.999Z</time></trkpt><trkpt lat="39.34802314053839" lon="16.05159973740414"><ele>254.0</ele><time>2026-03-22T09:40:12.999Z</time></trkpt><trkpt lat="39.348077709181375" lon="16.051800143424103"><ele>249.75</ele><time>2026-03-22T09:40:13.999Z</time></trkpt><trkpt lat="39.348136446180774" lon="16.051985141677275"><ele>245.5</ele><time>2026-03-22T09:40:14.999Z</time></trkpt><trkpt lat="39.348194105544586" lon="16.052127677274775"><ele>241.25</ele><time>2026-03-22T09:40:15.999Z</time></trkpt><trkpt lat="39.34827821556391" lon="16.05224599627158"><ele>237.0</ele><time>2026-03-22T09:40:16.999Z</time></trkpt><trkpt lat="39.34839064540338" lon="16.052342638023234"><ele>237.0</ele><time>2026-03-22T09:40:17.999Z</time></trkpt><trkpt lat="39.3485219344681" lon="16.05239008405015"><ele>237.0</ele><time>2026-03-22T09:40:18.999Z</time></trkpt><trkpt lat="39.348659747179184" lon="16.052369115987666"><ele>237.0</ele><time>2026-03-22T09:40:19.999Z</time></trkpt><trkpt lat="39.348784619685084" lon="16.052274596258005"><ele>237.0</ele><time>2026-03-22T09:40:20.999Z</time></trkpt><trkpt lat="39.348890097265304" lon="16.052122591824993"><ele>232.66666666666669</ele><time>2026-03-22T09:40:21.999Z</time></trkpt><trkpt lat="39.34897500476419" lon="16.051899515894007"><ele>228.33333333333334</ele><time>2026-03-22T09:40:22.999Z</time></trkpt><trkpt lat="39.349055049438704" lon="16.05166723985729"><ele>224.0</ele><time>2026-03-22T09:40:23.999Z</time></trkpt><trkpt lat="39.349148383695564" lon="16.051409793253097"><ele>224.0</ele><time>2026-03-22T09:40:24.999Z</time></trkpt><trkpt lat="39.34924533382641" lon="16.05114513719604"><ele>224.0</ele><time>2026-03-22T09:40:25.999Z</time></trkpt><trkpt lat="39.349343503340975" lon="16.05088186577369"><ele>216.66666666666669</ele><time>2026-03-22T09:40:26.999Z</time></trkpt><trkpt lat="39.34943742252805" lon="16.050625851157175"><ele>209.33333333333331</ele><time>2026-03-22T09:40:27.999Z</time></trkpt><trkpt lat="39.349533633211344" lon="16.050375986373282"><ele>202.0</ele><time>2026-03-22T09:40:28.999Z</time></trkpt><trkpt lat="39.34963101444874" lon="16.050136671387087"><ele>201.33333333333331</ele><time>2026-03-22T09:40:29.999Z</time></trkpt><trkpt lat="39.34973775731953" lon="16.049909555562554"><ele>200.66666666666669</ele><time>2026-03-22T09:40:30.999Z</time></trkpt><trkpt lat="39.34986766511158" lon="16.04970010369552"><ele>200.0</ele><time>2026-03-22T09:40:31.999Z</time></trkpt><trkpt lat="39.35001925024867" lon="16.0495196727518"><ele>200.0</ele><time>2026-03-22T09:40:32.999Z</time></trkpt><trkpt lat="39.350184176085214" lon="16.049380162149046"><ele>200.0</ele><time>2026-03-22T09:40:33.999Z</time></trkpt><trkpt lat="39.35035908536408" lon="16.049265193844274"><ele>200.0</ele><time>2026-03-22T09:40:34.999Z</time></trkpt><trkpt lat="39.350545323975815" lon="16.0491841625057"><ele>204.33333333333334</ele><time>2026-03-22T09:40:35.999Z</time></trkpt><trkpt lat="39.35073109425606" lon="16.04912908472701"><ele>208.66666666666669</ele><time>2026-03-22T09:40:36.999Z</time></trkpt><trkpt lat="39.350926300253555" lon="16.049085174352363"><ele>213.0</ele><time>2026-03-22T09:40:37.999Z</time></trkpt><trkpt lat="39.35112832860388" lon="16.04903880144366"><ele>200.66666666666666</ele><time>2026-03-22T09:40:38.999Z</time></trkpt><trkpt lat="39.35133288116981" lon="16.048988478870264"><ele>188.33333333333331</ele><time>2026-03-22T09:40:39.999Z</time></trkpt><trkpt lat="39.3515283534942" lon="16.048941912495387"><ele>176.0</ele><time>2026-03-22T09:40:40.999Z</time></trkpt><trkpt lat="39.35171229711676" lon="16.048900891491765"><ele>175.33333333333331</ele><time>2026-03-22T09:40:41.999Z</time></trkpt><trkpt lat="39.351889007820716" lon="16.04887424220578"><ele>174.66666666666666</ele><time>2026-03-22T09:40:42.999Z</time></trkpt><trkpt lat="39.35205878314738" lon="16.048881609800635"><ele>174.0</ele><time>2026-03-22T09:40:43.999Z</time></trkpt><trkpt lat="39.35222098156997" lon="16.0489277950504"><ele>173.66666666666666</ele><time>2026-03-22T09:40:44.999Z</time></trkpt><trkpt lat="39.35236810894008" lon="16.04901013376259"><ele>173.33333333333331</ele><time>2026-03-22T09:40:45.999Z</time></trkpt><trkpt lat="39.352502214927355" lon="16.049119405253926"><ele>173.0</ele><time>2026-03-22T09:40:46.999Z</time></trkpt><trkpt lat="39.352626383385626" lon="16.049257758130306"><ele>181.33333333333331</ele><time>2026-03-22T09:40:47.999Z</time></trkpt><trkpt lat="39.35274242711787" lon="16.049403406792063"><ele>189.66666666666666</ele><time>2026-03-22T09:40:48.999Z</time></trkpt><trkpt lat="39.35286040531638" lon="16.049529739692243"><ele>198.0</ele><time>2026-03-22T09:40:49.999Z</time></trkpt><trkpt lat="39.352988664973346" lon="16.049612280225034"><ele>195.75</ele><time>2026-03-22T09:40:50.999Z</time></trkpt><trkpt lat="39.35312528063899" lon="16.04963089592523"><ele>193.5</ele><time>2026-03-22T09:40:51.999Z</time></trkpt><trkpt lat="39.35326675891999" lon="16.049582918435572"><ele>191.25</ele><time>2026-03-22T09:40:52.999Z</time></trkpt><trkpt lat="39.35339645577135" lon="16.049475988745478"><ele>189.0</ele><time>2026-03-22T09:40:53.999Z</time></trkpt><trkpt lat="39.35350540878259" lon="16.049318015321294"><ele>189.0</ele><time>2026-03-22T09:40:54.999Z</time></trkpt><trkpt lat="39.35359909958436" lon="16.049130416654595"><ele>189.0</ele><time>2026-03-22T09:40:55.999Z</time></trkpt><trkpt lat="39.353697361078844" lon="16.048935249945348"><ele>189.0</ele><time>2026-03-22T09:40:56.999Z</time></trkpt><trkpt lat="39.35381845315181" lon="16.04875975598895"><ele>182.66666666666666</ele><time>2026-03-22T09:40:57.999Z</time></trkpt><trkpt lat="39.353953418027686" lon="16.048606843181993"><ele>176.33333333333331</ele><time>2026-03-22T09:40:58.999Z</time></trkpt><trkpt lat="39.35410065754795" lon="16.048484468191162"><ele>170.0</ele><time>2026-03-22T09:40:59.999Z</time></trkpt><trkpt lat="39.35426221585148" lon="16.04838941448367"><ele>170.0</ele><time>2026-03-22T09:41:00.999Z</time></trkpt><trkpt lat="39.354436031063486" lon="16.04832168081811"><ele>170.0</ele><time>2026-03-22T09:41:01.999Z</time></trkpt><trkpt lat="39.35462327795991" lon="16.04829274656177"><ele>170.0</ele><time>2026-03-22T09:41:02.999Z</time></trkpt><trkpt lat="39.35481976371356" lon="16.048292135605735"><ele>164.66666666666666</ele><time>2026-03-22T09:41:03.999Z</time></trkpt><trkpt lat="39.35502806301285" lon="16.048291894402734"><ele>159.33333333333334</ele><time>2026-03-22T09:41:04.999Z</time></trkpt><trkpt lat="39.35522457429259" lon="16.048264198732177"><ele>154.0</ele><time>2026-03-22T09:41:05.999Z</time></trkpt><trkpt lat="39.355407001783895" lon="16.048196408838876"><ele>155.33333333333334</ele><time>2026-03-22T09:41:06.999Z</time></trkpt><trkpt lat="39.35557293986103" lon="16.048084703988216"><ele>156.66666666666666</ele><time>2026-03-22T09:41:08Z</time></trkpt><trkpt lat="39.35572630084254" lon="16.047921790175504"><ele>158.0</ele><time>2026-03-22T09:41:09Z</time></trkpt><trkpt lat="39.35587381897084" lon="16.047709753772516"><ele>158.0</ele><time>2026-03-22T09:41:10Z</time></trkpt><trkpt lat="39.35600774206683" lon="16.047475937453434"><ele>158.0</ele><time>2026-03-22T09:41:11Z</time></trkpt><trkpt lat="39.35612435702904" lon="16.04724650611289"><ele>158.0</ele><time>2026-03-22T09:41:12Z</time></trkpt><trkpt lat="39.356219812261116" lon="16.047020015416486"><ele>152.66666666666666</ele><time>2026-03-22T09:41:13Z</time></trkpt><trkpt lat="39.35629276834121" lon="16.046800148747458"><ele>147.33333333333334</ele><time>2026-03-22T09:41:14Z</time></trkpt><trkpt lat="39.35635455590393" lon="16.046594168288394"><ele>142.0</ele><time>2026-03-22T09:41:15Z</time></trkpt><trkpt lat="39.35642109838035" lon="16.046416772446378"><ele>142.0</ele><time>2026-03-22T09:41:16Z</time></trkpt><trkpt lat="39.35649476888927" lon="16.046253076737177"><ele>142.0</ele><time>2026-03-22T09:41:17Z</time></trkpt><trkpt lat="39.356565131781174" lon="16.046100445422553"><ele>142.0</ele><time>2026-03-22T09:41:18Z</time></trkpt><trkpt lat="39.35663268769422" lon="16.0459487481181"><ele>142.0</ele><time>2026-03-22T09:41:19Z</time></trkpt><trkpt lat="39.356693509712585" lon="16.04580148541385"><ele>138.25</ele><time>2026-03-22T09:41:20Z</time></trkpt><trkpt lat="39.35675979958962" lon="16.045659864327604"><ele>134.5</ele><time>2026-03-22T09:41:21Z</time></trkpt><trkpt lat="39.35683929106631" lon="16.04552089498782"><ele>130.75</ele><time>2026-03-22T09:41:22Z</time></trkpt><trkpt lat="39.35693469775124" lon="16.045386048510146"><ele>127.0</ele><time>2026-03-22T09:41:23Z</time></trkpt><trkpt lat="39.357042609154156" lon="16.045264203692515"><ele>127.0</ele><time>2026-03-22T09:41:24Z</time></trkpt><trkpt lat="39.35716450211961" lon="16.045164235704238"><ele>127.0</ele><time>2026-03-22T09:41:25Z</time></trkpt><trkpt lat="39.35729991695333" lon="16.045105993940922"><ele>127.0</ele><time>2026-03-22T09:41:26Z</time></trkpt><trkpt lat="39.35744501495704" lon="16.045093602572177"><ele>127.0</ele><time>2026-03-22T09:41:27Z</time></trkpt><trkpt lat="39.35759075001923" lon="16.04510320108181"><ele>127.66666666666667</ele><time>2026-03-22T09:41:28Z</time></trkpt><trkpt lat="39.35773927546509" lon="16.045127001908906"><ele>128.33333333333334</ele><time>2026-03-22T09:41:29Z</time></trkpt><trkpt lat="39.357887316398745" lon="16.04515594060742"><ele>129.0</ele><time>2026-03-22T09:41:30Z</time></trkpt><trkpt lat="39.35803630925769" lon="16.045183677632995"><ele>129.0</ele><time>2026-03-22T09:41:31Z</time></trkpt><trkpt lat="39.35819089442081" lon="16.04520676660049"><ele>129.0</ele><time>2026-03-22T09:41:32Z</time></trkpt><trkpt lat="39.358354616496605" lon="16.045229126690707"><ele>129.0</ele><time>2026-03-22T09:41:33Z</time></trkpt><trkpt lat="39.358529625937" lon="16.045253365144966"><ele>129.0</ele><time>2026-03-22T09:41:34Z</time></trkpt><trkpt lat="39.358696505836555" lon="16.045283674755762"><ele>129.0</ele><time>2026-03-22T09:41:35Z</time></trkpt><trkpt lat="39.35886203397594" lon="16.045310196952634"><ele>129.0</ele><time>2026-03-22T09:41:36Z</time></trkpt><trkpt lat="39.359028020265335" lon="16.0453382008785"><ele>131.0</ele><time>2026-03-22T09:41:37Z</time></trkpt><trkpt lat="39.359194201220014" lon="16.045365386343565"><ele>133.0</ele><time>2026-03-22T09:41:38Z</time></trkpt><trkpt lat="39.359356997788" lon="16.04539275169089"><ele>135.0</ele><time>2026-03-22T09:41:39Z</time></trkpt><trkpt lat="39.359517473466546" lon="16.04541811971872"><ele>135.0</ele><time>2026-03-22T09:41:40Z</time></trkpt><trkpt lat="39.35967689530378" lon="16.045437944998923"><ele>135.0</ele><time>2026-03-22T09:41:41Z</time></trkpt><trkpt lat="39.359835316106526" lon="16.04544970196239"><ele>135.0</ele><time>2026-03-22T09:41:42Z</time></trkpt><trkpt lat="39.35999383642241" lon="16.045453120377932"><ele>138.33333333333334</ele><time>2026-03-22T09:41:43Z</time></trkpt><trkpt lat="39.36015156768311" lon="16.0454515986889"><ele>141.66666666666669</ele><time>2026-03-22T09:41:44Z</time></trkpt><trkpt lat="39.36031450516714" lon="16.045443081955558"><ele>145.0</ele><time>2026-03-22T09:41:45Z</time></trkpt><trkpt lat="39.36049044506159" lon="16.04542955483993"><ele>146.0</ele><time>2026-03-22T09:41:46Z</time></trkpt><trkpt lat="39.36066228066261" lon="16.045415597892887"><ele>147.0</ele><time>2026-03-22T09:41:47Z</time></trkpt><trkpt lat="39.36084120217721" lon="16.045396743028352"><ele>148.0</ele><time>2026-03-22T09:41:48Z</time></trkpt><trkpt lat="39.361019861997256" lon="16.04537327466111"><ele>148.0</ele><time>2026-03-22T09:41:49Z</time></trkpt><trkpt lat="39.36119852544965" lon="16.04534618495897"><ele>148.0</ele><time>2026-03-22T09:41:50Z</time></trkpt><trkpt lat="39.36137787308019" lon="16.04532085896067"><ele>148.0</ele><time>2026-03-22T09:41:51Z</time></trkpt><trkpt lat="39.36155790870619" lon="16.045298359797638"><ele>149.66666666666669</ele><time>2026-03-22T09:41:52Z</time></trkpt><trkpt lat="39.36173989115338" lon="16.045274212697315"><ele>151.33333333333334</ele><time>2026-03-22T09:41:53Z</time></trkpt><trkpt lat="39.36192253682018" lon="16.045252213192914"><ele>153.0</ele><time>2026-03-22T09:41:54Z</time></trkpt><trkpt lat="39.36210582462546" lon="16.045230094934134"><ele>154.0</ele><time>2026-03-22T09:41:55Z</time></trkpt><trkpt lat="39.36228977734492" lon="16.04520886227878"><ele>155.0</ele><time>2026-03-22T09:41:56Z</time></trkpt><trkpt lat="39.3624718141805" lon="16.045186768897395"><ele>156.0</ele><time>2026-03-22T09:41:57Z</time></trkpt><trkpt lat="39.36265480821729" lon="16.045165576110982"><ele>156.0</ele><time>2026-03-22T09:41:58Z</time></trkpt><trkpt lat="39.36283142346843" lon="16.045139468437213"><ele>156.0</ele><time>2026-03-22T09:41:59Z</time></trkpt><trkpt lat="39.362999498792675" lon="16.04510815452943"><ele>156.0</ele><time>2026-03-22T09:42:00Z</time></trkpt><trkpt lat="39.36316535199819" lon="16.045062773796136"><ele>155.0</ele><time>2026-03-22T09:42:01Z</time></trkpt><trkpt lat="39.36332098128637" lon="16.0449973997418"><ele>154.0</ele><time>2026-03-22T09:42:02Z</time></trkpt><trkpt lat="39.36347771225005" lon="16.044927315592872"><ele>153.0</ele><time>2026-03-22T09:42:03Z</time></trkpt><trkpt lat="39.36362636975549" lon="16.04485767738892"><ele>148.66666666666666</ele><time>2026-03-22T09:42:04Z</time></trkpt><trkpt lat="39.36377365280755" lon="16.044786227475143"><ele>144.33333333333331</ele><time>2026-03-22T09:42:05Z</time></trkpt><trkpt lat="39.363921701462715" lon="16.044715683011436"><ele>140.0</ele><time>2026-03-22T09:42:05.999Z</time></trkpt><trkpt lat="39.36407209527685" lon="16.044646884169648"><ele>140.0</ele><time>2026-03-22T09:42:06.999Z</time></trkpt><trkpt lat="39.36422445277181" lon="16.04457304381242"><ele>140.0</ele><time>2026-03-22T09:42:07.999Z</time></trkpt><trkpt lat="39.364379392128164" lon="16.04449878920094"><ele>140.0</ele><time>2026-03-22T09:42:08.999Z</time></trkpt><trkpt lat="39.36453528893462" lon="16.044424645343785"><ele>140.0</ele><time>2026-03-22T09:42:09.999Z</time></trkpt><trkpt lat="39.36469046660455" lon="16.04435101425343"><ele>140.0</ele><time>2026-03-22T09:42:10.999Z</time></trkpt><trkpt lat="39.36484460922809" lon="16.044276692210513"><ele>140.0</ele><time>2026-03-22T09:42:11.999Z</time></trkpt><trkpt lat="39.36499754511065" lon="16.044198082488855"><ele>140.66666666666666</ele><time>2026-03-22T09:42:12.999Z</time></trkpt><trkpt lat="39.365150822232536" lon="16.044117363139026"><ele>141.33333333333334</ele><time>2026-03-22T09:42:13.999Z</time></trkpt><trkpt lat="39.36530318208664" lon="16.04403049180829"><ele>142.0</ele><time>2026-03-22T09:42:14.999Z</time></trkpt><trkpt lat="39.365453129484905" lon="16.043933319500002"><ele>143.33333333333334</ele><time>2026-03-22T09:42:15.999Z</time></trkpt><trkpt lat="39.36559903546103" lon="16.04383080167961"><ele>144.66666666666666</ele><time>2026-03-22T09:42:16.999Z</time></trkpt><trkpt lat="39.36573887433616" lon="16.043722439358675"><ele>146.0</ele><time>2026-03-22T09:42:17.999Z</time></trkpt><trkpt lat="39.36587653892886" lon="16.043608845318047"><ele>146.0</ele><time>2026-03-22T09:42:18.999Z</time></trkpt><trkpt lat="39.36601552465758" lon="16.043493655210565"><ele>146.0</ele><time>2026-03-22T09:42:19.999Z</time></trkpt><trkpt lat="39.36615566715933" lon="16.043377316593126"><ele>146.0</ele><time>2026-03-22T09:42:20.999Z</time></trkpt><trkpt lat="39.36629329315807" lon="16.043261998900824"><ele>144.0</ele><time>2026-03-22T09:42:21.999Z</time></trkpt><trkpt lat="39.36642676527421" lon="16.043147773550423"><ele>142.0</ele><time>2026-03-22T09:42:22.999Z</time></trkpt><trkpt lat="39.366555005306395" lon="16.04303537684141"><ele>140.0</ele><time>2026-03-22T09:42:23.999Z</time></trkpt><trkpt lat="39.36667765606203" lon="16.042924285522112"><ele>140.0</ele><time>2026-03-22T09:42:24.999Z</time></trkpt><trkpt lat="39.36679284108205" lon="16.0428186141913"><ele>140.0</ele><time>2026-03-22T09:42:25.999Z</time></trkpt><trkpt lat="39.36690456803492" lon="16.042715537996596"><ele>140.0</ele><time>2026-03-22T09:42:26.999Z</time></trkpt><trkpt lat="39.36702327766168" lon="16.04260607893863"><ele>140.0</ele><time>2026-03-22T09:42:27.999Z</time></trkpt><trkpt lat="39.36713736931564" lon="16.04249951096264"><ele>138.25</ele><time>2026-03-22T09:42:28.999Z</time></trkpt><trkpt lat="39.36724429498069" lon="16.042395605075953"><ele>136.5</ele><time>2026-03-22T09:42:29.999Z</time></trkpt><trkpt lat="39.3673525253179" lon="16.042290558971537"><ele>134.75</ele><time>2026-03-22T09:42:30.999Z</time></trkpt><trkpt lat="39.367465788371966" lon="16.0421832135425"><ele>133.0</ele><time>2026-03-22T09:42:31.999Z</time></trkpt><trkpt lat="39.36757734015871" lon="16.042079113250622"><ele>133.0</ele><time>2026-03-22T09:42:32.999Z</time></trkpt><trkpt lat="39.36768811332354" lon="16.041973946921175"><ele>133.0</ele><time>2026-03-22T09:42:33.999Z</time></trkpt><trkpt lat="39.36779587505198" lon="16.04186892139976"><ele>133.0</ele><time>2026-03-22T09:42:34.999Z</time></trkpt><trkpt lat="39.36789551428894" lon="16.04176971426535"><ele>133.0</ele><time>2026-03-22T09:42:35.999Z</time></trkpt><trkpt lat="39.36798785512463" lon="16.04167674920986"><ele>132.6</ele><time>2026-03-22T09:42:36.999Z</time></trkpt><trkpt lat="39.36807487038389" lon="16.04158706008642"><ele>132.20000000000002</ele><time>2026-03-22T09:42:37.999Z</time></trkpt><trkpt lat="39.36816178401979" lon="16.041497642700158"><ele>131.8</ele><time>2026-03-22T09:42:38.999Z</time></trkpt><trkpt lat="39.368248345022856" lon="16.04140361576552"><ele>131.4</ele><time>2026-03-22T09:42:39.999Z</time></trkpt><trkpt lat="39.36833456516556" lon="16.041307735541515"><ele>131.0</ele><time>2026-03-22T09:42:40.999Z</time></trkpt><trkpt lat="39.36842556684461" lon="16.041206874234266"><ele>131.0</ele><time>2026-03-22T09:42:41.999Z</time></trkpt><trkpt lat="39.36851773865909" lon="16.041099338918517"><ele>131.0</ele><time>2026-03-22T09:42:42.999Z</time></trkpt><trkpt lat="39.368614831943944" lon="16.040980624283677"><ele>131.0</ele><time>2026-03-22T09:42:43.999Z</time></trkpt><trkpt lat="39.3687139530655" lon="16.04085402712756"><ele>131.0</ele><time>2026-03-22T09:42:44.999Z</time></trkpt><trkpt lat="39.368812998163015" lon="16.040720956837923"><ele>129.33333333333331</ele><time>2026-03-22T09:42:45.999Z</time></trkpt><trkpt lat="39.36891033809417" lon="16.040579989598857"><ele>127.66666666666666</ele><time>2026-03-22T09:42:46.999Z</time></trkpt><trkpt lat="39.369006450547246" lon="16.040432884638694"><ele>126.0</ele><time>2026-03-22T09:42:47.999Z</time></trkpt><trkpt lat="39.369105493975155" lon="16.040275193103447"><ele>126.0</ele><time>2026-03-22T09:42:48.999Z</time></trkpt><trkpt lat="39.369208422308056" lon="16.04010573624253"><ele>126.0</ele><time>2026-03-22T09:42:49.999Z</time></trkpt><trkpt lat="39.36931520628564" lon="16.03993008736493"><ele>126.0</ele><time>2026-03-22T09:42:50.999Z</time></trkpt><trkpt lat="39.36942062465217" lon="16.03975263889742"><ele>125.0</ele><time>2026-03-22T09:42:51.999Z</time></trkpt><trkpt lat="39.36953145989146" lon="16.039569020152538"><ele>124.0</ele><time>2026-03-22T09:42:52.999Z</time></trkpt><trkpt lat="39.3696436737843" lon="16.039378557473473"><ele>123.0</ele><time>2026-03-22T09:42:53.999Z</time></trkpt><trkpt lat="39.36975960328838" lon="16.039186828186217"><ele>121.0</ele><time>2026-03-22T09:42:54.999Z</time></trkpt><trkpt lat="39.369878610771195" lon="16.03899194875724"><ele>119.0</ele><time>2026-03-22T09:42:55.999Z</time></trkpt><trkpt lat="39.36999817503527" lon="16.03879891649732"><ele>117.0</ele><time>2026-03-22T09:42:56.999Z</time></trkpt><trkpt lat="39.37012063301285" lon="16.038605292206658"><ele>117.0</ele><time>2026-03-22T09:42:57.999Z</time></trkpt><trkpt lat="39.370243492091916" lon="16.038412785842127"><ele>117.0</ele><time>2026-03-22T09:42:58.999Z</time></trkpt><trkpt lat="39.37036737763794" lon="16.038219038642403"><ele>117.0</ele><time>2026-03-22T09:42:59.999Z</time></trkpt><trkpt lat="39.370494979667384" lon="16.038025964660086"><ele>115.66666666666666</ele><time>2026-03-22T09:43:00.999Z</time></trkpt><trkpt lat="39.370624631232204" lon="16.037835953776945"><ele>114.33333333333333</ele><time>2026-03-22T09:43:01.999Z</time></trkpt><trkpt lat="39.37075818822693" lon="16.037645604060668"><ele>113.0</ele><time>2026-03-22T09:43:02.999Z</time></trkpt><trkpt lat="39.37089366581263" lon="16.037457997859605"><ele>109.66666666666666</ele><time>2026-03-22T09:43:03.999Z</time></trkpt><trkpt lat="39.371031963338005" lon="16.037267348775302"><ele>106.33333333333334</ele><time>2026-03-22T09:43:04.999Z</time></trkpt><trkpt lat="39.37116740309491" lon="16.037077121623614"><ele>103.0</ele><time>2026-03-22T09:43:05.999Z</time></trkpt><trkpt lat="39.37130571852209" lon="16.036887410217272"><ele>102.33333333333334</ele><time>2026-03-22T09:43:06.999Z</time></trkpt><trkpt lat="39.371447819235996" lon="16.036696069318236"><ele>101.66666666666666</ele><time>2026-03-22T09:43:07.999Z</time></trkpt><trkpt lat="39.371583905920815" lon="16.036506916155997"><ele>101.0</ele><time>2026-03-22T09:43:08.999Z</time></trkpt><trkpt lat="39.37172169846763" lon="16.036318859946956"><ele>101.0</ele><time>2026-03-22T09:43:09.999Z</time></trkpt><trkpt lat="39.371860702768764" lon="16.03613214674454"><ele>101.0</ele><time>2026-03-22T09:43:10.999Z</time></trkpt><trkpt lat="39.372000154000595" lon="16.0359426978933"><ele>101.0</ele><time>2026-03-22T09:43:11.999Z</time></trkpt><trkpt lat="39.372137902208394" lon="16.035753674984917"><ele>99.33333333333333</ele><time>2026-03-22T09:43:12.999Z</time></trkpt><trkpt lat="39.372274131332084" lon="16.03556716458386"><ele>97.66666666666666</ele><time>2026-03-22T09:43:14Z</time></trkpt><trkpt lat="39.372413012107565" lon="16.035379709861797"><ele>96.0</ele><time>2026-03-22T09:43:15Z</time></trkpt><trkpt lat="39.372552429220384" lon="16.035191582322824"><ele>96.0</ele><time>2026-03-22T09:43:16Z</time></trkpt><trkpt lat="39.37269231637006" lon="16.035002805508434"><ele>96.0</ele><time>2026-03-22T09:43:17Z</time></trkpt><trkpt lat="39.3728308222341" lon="16.034812776945945"><ele>96.0</ele><time>2026-03-22T09:43:18Z</time></trkpt><trkpt lat="39.37296749845011" lon="16.03462645887331"><ele>94.66666666666667</ele><time>2026-03-22T09:43:19Z</time></trkpt><trkpt lat="39.37310371851576" lon="16.034438343068967"><ele>93.33333333333334</ele><time>2026-03-22T09:43:20Z</time></trkpt><trkpt lat="39.37323987078371" lon="16.034249701218762"><ele>92.0</ele><time>2026-03-22T09:43:21Z</time></trkpt><trkpt lat="39.37337389469109" lon="16.03406466295576"><ele>90.0</ele><time>2026-03-22T09:43:22Z</time></trkpt><trkpt lat="39.37350928811028" lon="16.03388341978961"><ele>88.0</ele><time>2026-03-22T09:43:23Z</time></trkpt><trkpt lat="39.37365003676193" lon="16.033703370902074"><ele>86.0</ele><time>2026-03-22T09:43:24Z</time></trkpt><trkpt lat="39.37379622785063" lon="16.033542192306523"><ele>86.66666666666667</ele><time>2026-03-22T09:43:25Z</time></trkpt><trkpt lat="39.373950858108444" lon="16.03338928984162"><ele>87.33333333333333</ele><time>2026-03-22T09:43:26Z</time></trkpt><trkpt lat="39.37411571062464" lon="16.033255770917208"><ele>88.0</ele><time>2026-03-22T09:43:27Z</time></trkpt><trkpt lat="39.37428785635204" lon="16.033142054645648"><ele>88.0</ele><time>2026-03-22T09:43:28Z</time></trkpt><trkpt lat="39.37447031372318" lon="16.033046106291"><ele>88.0</ele><time>2026-03-22T09:43:29Z</time></trkpt><trkpt lat="39.37466179612623" lon="16.032960084028186"><ele>88.0</ele><time>2026-03-22T09:43:30Z</time></trkpt><trkpt lat="39.37486024003014" lon="16.03288767368283"><ele>88.33333333333333</ele><time>2026-03-22T09:43:31Z</time></trkpt><trkpt lat="39.37506068388746" lon="16.03282352137356"><ele>88.66666666666667</ele><time>2026-03-22T09:43:32Z</time></trkpt><trkpt lat="39.37526106780344" lon="16.032754926072695"><ele>89.0</ele><time>2026-03-22T09:43:33Z</time></trkpt><trkpt lat="39.37546093346649" lon="16.03268433975685"><ele>88.66666666666667</ele><time>2026-03-22T09:43:34Z</time></trkpt><trkpt lat="39.37566035250835" lon="16.0326164605796"><ele>88.33333333333333</ele><time>2026-03-22T09:43:35Z</time></trkpt><trkpt lat="39.375859178105614" lon="16.032545349569837"><ele>88.0</ele><time>2026-03-22T09:43:36Z</time></trkpt><trkpt lat="39.376059676152494" lon="16.03247663764151"><ele>83.0</ele><time>2026-03-22T09:43:37Z</time></trkpt><trkpt lat="39.376261842108" lon="16.032408700576948"><ele>78.0</ele><time>2026-03-22T09:43:38Z</time></trkpt><trkpt lat="39.37646453856566" lon="16.032339879947788"><ele>73.0</ele><time>2026-03-22T09:43:39Z</time></trkpt><trkpt lat="39.376669315181516" lon="16.032266130356724"><ele>72.66666666666666</ele><time>2026-03-22T09:43:40Z</time></trkpt><trkpt lat="39.376872469684066" lon="16.032181200112003"><ele>72.33333333333333</ele><time>2026-03-22T09:43:41Z</time></trkpt><trkpt lat="39.37707140100275" lon="16.03207574478241"><ele>72.0</ele><time>2026-03-22T09:43:42Z</time></trkpt><trkpt lat="39.377262272135184" lon="16.031948076874468"><ele>73.33333333333333</ele><time>2026-03-22T09:43:43Z</time></trkpt><trkpt lat="39.37744213229933" lon="16.031793633211798"><ele>74.66666666666666</ele><time>2026-03-22T09:43:44Z</time></trkpt><trkpt lat="39.37760752838041" lon="16.031620638451574"><ele>76.0</ele><time>2026-03-22T09:43:45Z</time></trkpt><trkpt lat="39.3777622814546" lon="16.031429576147126"><ele>75.33333333333333</ele><time>2026-03-22T09:43:46Z</time></trkpt><trkpt lat="39.37790688869281" lon="16.031224895213388"><ele>74.66666666666667</ele><time>2026-03-22T09:43:47Z</time></trkpt><trkpt lat="39.378035429912146" lon="16.031003089730657"><ele>74.0</ele><time>2026-03-22T09:43:48Z</time></trkpt><trkpt lat="39.37815130864842" lon="16.030771505081876"><ele>74.0</ele><time>2026-03-22T09:43:49Z</time></trkpt><trkpt lat="39.37826624885514" lon="16.030537780613273"><ele>74.0</ele><time>2026-03-22T09:43:50Z</time></trkpt><trkpt lat="39.378392862689026" lon="16.03031411757825"><ele>74.0</ele><time>2026-03-22T09:43:51Z</time></trkpt><trkpt lat="39.37853189609982" lon="16.03010763223379"><ele>72.33333333333334</ele><time>2026-03-22T09:43:52Z</time></trkpt><trkpt lat="39.37868340214021" lon="16.029921693318528"><ele>70.66666666666667</ele><time>2026-03-22T09:43:53Z</time></trkpt><trkpt lat="39.378853688779415" lon="16.029763013599972"><ele>69.0</ele><time>2026-03-22T09:43:54Z</time></trkpt><trkpt lat="39.37903366128198" lon="16.029624311178946"><ele>69.0</ele><time>2026-03-22T09:43:55Z</time></trkpt><trkpt lat="39.37922026200527" lon="16.029507018983086"><ele>69.0</ele><time>2026-03-22T09:43:56Z</time></trkpt><trkpt lat="39.3794121698774" lon="16.029409916057425"><ele>69.0</ele><time>2026-03-22T09:43:57Z</time></trkpt><trkpt lat="39.37960534856484" lon="16.029339484564808"><ele>67.66666666666667</ele><time>2026-03-22T09:43:58Z</time></trkpt><trkpt lat="39.3797896870324" lon="16.02929267916595"><ele>66.33333333333334</ele><time>2026-03-22T09:43:59Z</time></trkpt><trkpt lat="39.37996298094662" lon="16.029260555300795"><ele>65.0</ele><time>2026-03-22T09:44:00Z</time></trkpt><trkpt lat="39.3801289495688" lon="16.029237715378905"><ele>65.0</ele><time>2026-03-22T09:44:01Z</time></trkpt><trkpt lat="39.38028559924617" lon="16.029220185299923"><ele>65.0</ele><time>2026-03-22T09:44:02Z</time></trkpt><trkpt lat="39.38042879948164" lon="16.029203535655668"><ele>65.0</ele><time>2026-03-22T09:44:03Z</time></trkpt><trkpt lat="39.38056235043039" lon="16.029187062491523"><ele>65.0</ele><time>2026-03-22T09:44:04Z</time></trkpt><trkpt lat="39.38068770463039" lon="16.02917034904482"><ele>63.4</ele><time>2026-03-22T09:44:05Z</time></trkpt><trkpt lat="39.380804114810566" lon="16.029150973874817"><ele>61.8</ele><time>2026-03-22T09:44:06Z</time></trkpt><trkpt lat="39.380911894248136" lon="16.029128003614453"><ele>60.2</ele><time>2026-03-22T09:44:07Z</time></trkpt><trkpt lat="39.38100958943118" lon="16.029104590074322"><ele>58.6</ele><time>2026-03-22T09:44:08Z</time></trkpt><trkpt lat="39.38109848140445" lon="16.029076996388664"><ele>57.0</ele><time>2026-03-22T09:44:09Z</time></trkpt><trkpt lat="39.38118301339615" lon="16.029048839269393"><ele>56.833333333333336</ele><time>2026-03-22T09:44:10Z</time></trkpt><trkpt lat="39.381261032917195" lon="16.029021053790817"><ele>56.66666666666667</ele><time>2026-03-22T09:44:11Z</time></trkpt><trkpt lat="39.38133410440996" lon="16.028989764002826"><ele>56.5</ele><time>2026-03-22T09:44:12Z</time></trkpt><trkpt lat="39.381403397295365" lon="16.02896003462172"><ele>56.333333333333336</ele><time>2026-03-22T09:44:13Z</time></trkpt><trkpt lat="39.381464760925965" lon="16.02892780607912"><ele>56.16666666666667</ele><time>2026-03-22T09:44:14Z</time></trkpt><trkpt lat="39.38157950755013" lon="16.028875843663574"><ele>56.0</ele><time>2026-03-22T09:44:16Z</time></trkpt><trkpt lat="39.38170298646378" lon="16.028870666048935"><ele>56.00000000000001</ele><time>2026-03-22T09:44:18Z</time></trkpt><trkpt lat="39.38182628906258" lon="16.028868770723555"><ele>56.0</ele><time>2026-03-22T09:44:19.999Z</time></trkpt><trkpt lat="39.381883929667914" lon="16.028828013198698"><ele>56.0</ele><time>2026-03-22T09:44:20.999Z</time></trkpt><trkpt lat="39.381930856985115" lon="16.028758951677144"><ele>56.0</ele><time>2026-03-22T09:44:21.999Z</time></trkpt><trkpt lat="39.38197661969939" lon="16.02867507290766"><ele>56.00000000000001</ele><time>2026-03-22T09:44:22.999Z</time></trkpt><trkpt lat="39.38203050657737" lon="16.028589262027534"><ele>56.0</ele><time>2026-03-22T09:44:23.999Z</time></trkpt><trkpt lat="39.382095062771526" lon="16.02850094852059"><ele>56.0</ele><time>2026-03-22T09:44:24.999Z</time></trkpt><trkpt lat="39.38216463247079" lon="16.028411758218308"><ele>55.99999999999999</ele><time>2026-03-22T09:44:25.999Z</time></trkpt><trkpt lat="39.38223940606739" lon="16.028322104205284"><ele>55.99999999999999</ele><time>2026-03-22T09:44:26.999Z</time></trkpt><trkpt lat="39.382314916916854" lon="16.028229083391352"><ele>56.0</ele><time>2026-03-22T09:44:27.999Z</time></trkpt><trkpt lat="39.38239475145401" lon="16.028128375222217"><ele>56.0</ele><time>2026-03-22T09:44:28.999Z</time></trkpt><trkpt lat="39.38248120606024" lon="16.02801788760895"><ele>55.0</ele><time>2026-03-22T09:44:29.999Z</time></trkpt><trkpt lat="39.382573260689114" lon="16.027902951830697"><ele>54.0</ele><time>2026-03-22T09:44:30.999Z</time></trkpt><trkpt lat="39.382670554313286" lon="16.0277818893122"><ele>53.0</ele><time>2026-03-22T09:44:31.999Z</time></trkpt><trkpt lat="39.382770020184864" lon="16.02765850821501"><ele>52.0</ele><time>2026-03-22T09:44:32.999Z</time></trkpt><trkpt lat="39.38287317458415" lon="16.027530735595402"><ele>53.0</ele><time>2026-03-22T09:44:33.999Z</time></trkpt><trkpt lat="39.382980263073065" lon="16.02739340994624"><ele>54.0</ele><time>2026-03-22T09:44:34.999Z</time></trkpt><trkpt lat="39.38309088247388" lon="16.027249261064608"><ele>55.0</ele><time>2026-03-22T09:44:35.999Z</time></trkpt><trkpt lat="39.383203553190725" lon="16.02709681146303"><ele>52.666666666666664</ele><time>2026-03-22T09:44:36.999Z</time></trkpt><trkpt lat="39.3833205042433" lon="16.026941178243124"><ele>50.33333333333333</ele><time>2026-03-22T09:44:37.999Z</time></trkpt><trkpt lat="39.383441225886365" lon="16.02678322592408"><ele>48.0</ele><time>2026-03-22T09:44:38.999Z</time></trkpt><trkpt lat="39.38356441398773" lon="16.026622450212788"><ele>47.333333333333336</ele><time>2026-03-22T09:44:39.999Z</time></trkpt><trkpt lat="39.3836869199534" lon="16.026462160492667"><ele>46.66666666666667</ele><time>2026-03-22T09:44:40.999Z</time></trkpt><trkpt lat="39.38381766296368" lon="16.026290953026926"><ele>46.0</ele><time>2026-03-22T09:44:41.999Z</time></trkpt><trkpt lat="39.3839494803277" lon="16.026115563632715"><ele>44.66666666666667</ele><time>2026-03-22T09:44:42.999Z</time></trkpt><trkpt lat="39.38408077008002" lon="16.025937589667258"><ele>43.333333333333336</ele><time>2026-03-22T09:44:43.999Z</time></trkpt><trkpt lat="39.38420994404822" lon="16.025756780346306"><ele>42.0</ele><time>2026-03-22T09:44:44.999Z</time></trkpt><trkpt lat="39.38433718423516" lon="16.025571741875936"><ele>40.333333333333336</ele><time>2026-03-22T09:44:45.999Z</time></trkpt><trkpt lat="39.38446159457765" lon="16.025383782788207"><ele>38.66666666666667</ele><time>2026-03-22T09:44:46.999Z</time></trkpt><trkpt lat="39.3845798242009" lon="16.02519768981213"><ele>37.0</ele><time>2026-03-22T09:44:47.999Z</time></trkpt><trkpt lat="39.384696626411525" lon="16.025008939359054"><ele>35.333333333333336</ele><time>2026-03-22T09:44:48.999Z</time></trkpt><trkpt lat="39.384811521578555" lon="16.024823436520204"><ele>33.666666666666664</ele><time>2026-03-22T09:44:49.999Z</time></trkpt><trkpt lat="39.38492359471774" lon="16.02464362589378"><ele>32.0</ele><time>2026-03-22T09:44:50.999Z</time></trkpt><trkpt lat="39.38503050087895" lon="16.02447423048237"><ele>32.0</ele><time>2026-03-22T09:44:51.999Z</time></trkpt><trkpt lat="39.38513622679242" lon="16.02430934934602"><ele>32.0</ele><time>2026-03-22T09:44:52.999Z</time></trkpt><trkpt lat="39.385239299578664" lon="16.024146222373293"><ele>32.0</ele><time>2026-03-22T09:44:53.999Z</time></trkpt><trkpt lat="39.38534227787659" lon="16.023983258984973"><ele>30.666666666666664</ele><time>2026-03-22T09:44:54.999Z</time></trkpt><trkpt lat="39.385447608857916" lon="16.023818987864416"><ele>29.333333333333336</ele><time>2026-03-22T09:44:55.999Z</time></trkpt><trkpt lat="39.3855550195033" lon="16.023653839587464"><ele>28.0</ele><time>2026-03-22T09:44:56.999Z</time></trkpt><trkpt lat="39.38566537294285" lon="16.02348708053181"><ele>28.0</ele><time>2026-03-22T09:44:57.999Z</time></trkpt><trkpt lat="39.38577821724808" lon="16.0233206909531"><ele>28.0</ele><time>2026-03-22T09:44:58.999Z</time></trkpt><trkpt lat="39.385898479499154" lon="16.023156102333537"><ele>28.0</ele><time>2026-03-22T09:44:59.999Z</time></trkpt><trkpt lat="39.38602605340472" lon="16.02299795997253"><ele>28.333333333333336</ele><time>2026-03-22T09:45:00.999Z</time></trkpt><trkpt lat="39.38616059551025" lon="16.022850418977796"><ele>28.666666666666664</ele><time>2026-03-22T09:45:01.999Z</time></trkpt><trkpt lat="39.386298447090816" lon="16.022716590811076"><ele>29.0</ele><time>2026-03-22T09:45:02.999Z</time></trkpt><trkpt lat="39.38644062321714" lon="16.022587373603603"><ele>23.666666666666664</ele><time>2026-03-22T09:45:03.999Z</time></trkpt><trkpt lat="39.38658883880285" lon="16.022467358485205"><ele>18.333333333333332</ele><time>2026-03-22T09:45:04.999Z</time></trkpt><trkpt lat="39.386741726902855" lon="16.02235485951981"><ele>13.0</ele><time>2026-03-22T09:45:05.999Z</time></trkpt><trkpt lat="39.386900967999516" lon="16.02225053176729"><ele>13.0</ele><time>2026-03-22T09:45:06.999Z</time></trkpt><trkpt lat="39.387063125306206" lon="16.022149047210057"><ele>13.0</ele><time>2026-03-22T09:45:07.999Z</time></trkpt><trkpt lat="39.3872228495106" lon="16.022043183361255"><ele>13.0</ele><time>2026-03-22T09:45:08.999Z</time></trkpt><trkpt lat="39.387390145389496" lon="16.02193692784221"><ele>13.333333333333332</ele><time>2026-03-22T09:45:09.999Z</time></trkpt><trkpt lat="39.387557534748986" lon="16.021827961732892"><ele>13.666666666666668</ele><time>2026-03-22T09:45:10.999Z</time></trkpt><trkpt lat="39.38772668384004" lon="16.02171864875063"><ele>14.0</ele><time>2026-03-22T09:45:11.999Z</time></trkpt><trkpt lat="39.3878998417275" lon="16.02160579908787"><ele>11.666666666666668</ele><time>2026-03-22T09:45:12.999Z</time></trkpt><trkpt lat="39.38807364855861" lon="16.02148875343481"><ele>9.333333333333334</ele><time>2026-03-22T09:45:13.999Z</time></trkpt><trkpt lat="39.388249770614244" lon="16.021371339746022"><ele>7.0</ele><time>2026-03-22T09:45:14.999Z</time></trkpt><trkpt lat="39.388427234225574" lon="16.02125489329437"><ele>7.0</ele><time>2026-03-22T09:45:15.999Z</time></trkpt><trkpt lat="39.3886076957985" lon="16.021135542540602"><ele>7.0</ele><time>2026-03-22T09:45:16.999Z</time></trkpt><trkpt lat="39.388783913045685" lon="16.02101684302164"><ele>7.0</ele><time>2026-03-22T09:45:17.999Z</time></trkpt><trkpt lat="39.38896173787903" lon="16.02090341740041"><ele>6.666666666666667</ele><time>2026-03-22T09:45:18.999Z</time></trkpt><trkpt lat="39.38913915144967" lon="16.02079076353785"><ele>6.333333333333334</ele><time>2026-03-22T09:45:20Z</time></trkpt><trkpt lat="39.389314630665474" lon="16.02067909929654"><ele>6.0</ele><time>2026-03-22T09:45:21Z</time></trkpt><trkpt lat="39.389489329053184" lon="16.020562758629417"><ele>6.0</ele><time>2026-03-22T09:45:22Z</time></trkpt><trkpt lat="39.38966279326508" lon="16.020445688979766"><ele>6.0</ele><time>2026-03-22T09:45:23Z</time></trkpt><trkpt lat="39.38982866091672" lon="16.020337448708986"><ele>6.0</ele><time>2026-03-22T09:45:24Z</time></trkpt><trkpt lat="39.389983941038466" lon="16.020235773727507"><ele>6.0</ele><time>2026-03-22T09:45:25Z</time></trkpt><trkpt lat="39.39012916875156" lon="16.02013800608751"><ele>6.0</ele><time>2026-03-22T09:45:26Z</time></trkpt><trkpt lat="39.39027638185993" lon="16.02004577802569"><ele>6.0</ele><time>2026-03-22T09:45:27Z</time></trkpt><trkpt lat="39.39041589320405" lon="16.019953494680042"><ele>6.75</ele><time>2026-03-22T09:45:28Z</time></trkpt><trkpt lat="39.39055527453647" lon="16.019866520941182"><ele>7.5</ele><time>2026-03-22T09:45:29Z</time></trkpt><trkpt lat="39.39068052286266" lon="16.0197788491119"><ele>8.25</ele><time>2026-03-22T09:45:30Z</time></trkpt><trkpt lat="39.39079962042112" lon="16.019698377610855"><ele>9.0</ele><time>2026-03-22T09:45:31Z</time></trkpt><trkpt lat="39.39091942934657" lon="16.01962316370603"><ele>9.0</ele><time>2026-03-22T09:45:32Z</time></trkpt><trkpt lat="39.39103790326909" lon="16.019545196817624"><ele>9.0</ele><time>2026-03-22T09:45:33Z</time></trkpt><trkpt lat="39.391156883552846" lon="16.019465259106084"><ele>9.0</ele><time>2026-03-22T09:45:34Z</time></trkpt><trkpt lat="39.39127834208815" lon="16.019385293803683"><ele>9.0</ele><time>2026-03-22T09:45:35Z</time></trkpt><trkpt lat="39.39140379210924" lon="16.01930118845321"><ele>8.5</ele><time>2026-03-22T09:45:36Z</time></trkpt><trkpt lat="39.39153197143187" lon="16.019214878034255"><ele>8.0</ele><time>2026-03-22T09:45:37Z</time></trkpt><trkpt lat="39.39166491599366" lon="16.01913058837882"><ele>7.5</ele><time>2026-03-22T09:45:38Z</time></trkpt><trkpt lat="39.391799364675705" lon="16.019041898249128"><ele>7.0</ele><time>2026-03-22T09:45:39Z</time></trkpt><trkpt lat="39.39193191963454" lon="16.0189506925025"><ele>7.0</ele><time>2026-03-22T09:45:40Z</time></trkpt><trkpt lat="39.392067342662656" lon="16.018859874267232"><ele>7.0</ele><time>2026-03-22T09:45:41Z</time></trkpt><trkpt lat="39.39220598160385" lon="16.018769636749678"><ele>7.0</ele><time>2026-03-22T09:45:42Z</time></trkpt><trkpt lat="39.39234791868668" lon="16.018681293019487"><ele>7.666666666666667</ele><time>2026-03-22T09:45:43Z</time></trkpt><trkpt lat="39.39249017590572" lon="16.018592543111"><ele>8.333333333333334</ele><time>2026-03-22T09:45:44Z</time></trkpt><trkpt lat="39.39263456791783" lon="16.018502931689138"><ele>9.0</ele><time>2026-03-22T09:45:45Z</time></trkpt><trkpt lat="39.39278557151469" lon="16.018413526264325"><ele>9.0</ele><time>2026-03-22T09:45:46Z</time></trkpt><trkpt lat="39.39294499643199" lon="16.018327805718318"><ele>9.0</ele><time>2026-03-22T09:45:47Z</time></trkpt><trkpt lat="39.39311127737702" lon="16.018249378635332"><ele>9.0</ele><time>2026-03-22T09:45:48Z</time></trkpt><trkpt lat="39.393284994817044" lon="16.01817549907089"><ele>8.0</ele><time>2026-03-22T09:45:49Z</time></trkpt><trkpt lat="39.39345879790523" lon="16.01811288190804"><ele>7.0</ele><time>2026-03-22T09:45:50Z</time></trkpt><trkpt lat="39.393635198876616" lon="16.018052086401426"><ele>6.0</ele><time>2026-03-22T09:45:51Z</time></trkpt><trkpt lat="39.39381319405019" lon="16.017992418343773"><ele>6.333333333333334</ele><time>2026-03-22T09:45:52Z</time></trkpt><trkpt lat="39.393990767820384" lon="16.017932534999886"><ele>6.666666666666667</ele><time>2026-03-22T09:45:53Z</time></trkpt><trkpt lat="39.39417184627572" lon="16.017892874189425"><ele>7.0</ele><time>2026-03-22T09:45:54Z</time></trkpt><trkpt lat="39.394348942966104" lon="16.017834819563866"><ele>7.0</ele><time>2026-03-22T09:45:55Z</time></trkpt><trkpt lat="39.39452597928066" lon="16.01777653170648"><ele>7.0</ele><time>2026-03-22T09:45:56Z</time></trkpt><trkpt lat="39.3946986542378" lon="16.017719679807982"><ele>7.0</ele><time>2026-03-22T09:45:57Z</time></trkpt><trkpt lat="39.39487409747757" lon="16.017661916489708"><ele>7.333333333333334</ele><time>2026-03-22T09:45:58Z</time></trkpt><trkpt lat="39.395051964380606" lon="16.017603355192065"><ele>7.666666666666666</ele><time>2026-03-22T09:45:59Z</time></trkpt><trkpt lat="39.39522983813224" lon="16.01754375470605"><ele>8.0</ele><time>2026-03-22T09:46:00Z</time></trkpt><trkpt lat="39.39540916876807" lon="16.017482078759475"><ele>7.0</ele><time>2026-03-22T09:46:01Z</time></trkpt><trkpt lat="39.39559096735861" lon="16.017419721693322"><ele>6.0</ele><time>2026-03-22T09:46:02Z</time></trkpt><trkpt lat="39.3957706693438" lon="16.01735825780165"><ele>5.0</ele><time>2026-03-22T09:46:03Z</time></trkpt><trkpt lat="39.39595599791553" lon="16.01729486939544"><ele>5.0</ele><time>2026-03-22T09:46:04Z</time></trkpt><trkpt lat="39.396155586137056" lon="16.017228580822"><ele>5.0</ele><time>2026-03-22T09:46:05Z</time></trkpt><trkpt lat="39.3963592232338" lon="16.017161160433627"><ele>5.0</ele><time>2026-03-22T09:46:06Z</time></trkpt><trkpt lat="39.396562673431816" lon="16.017087104099904"><ele>5.666666666666667</ele><time>2026-03-22T09:46:07Z</time></trkpt><trkpt lat="39.396770177358874" lon="16.01700089480644"><ele>6.333333333333334</ele><time>2026-03-22T09:46:08Z</time></trkpt><trkpt lat="39.39695375354938" lon="16.016923879916554"><ele>7.0</ele><time>2026-03-22T09:46:09Z</time></trkpt><trkpt lat="39.39712859114543" lon="16.01684958924569"><ele>6.25</ele><time>2026-03-22T09:46:10Z</time></trkpt><trkpt lat="39.39728120070032" lon="16.01678421987204"><ele>5.5</ele><time>2026-03-22T09:46:11Z</time></trkpt><trkpt lat="39.39742279352171" lon="16.016723569390937"><ele>4.75</ele><time>2026-03-22T09:46:12Z</time></trkpt><trkpt lat="39.39755201461569" lon="16.016668218330505"><ele>4.0</ele><time>2026-03-22T09:46:13Z</time></trkpt><trkpt lat="39.39768183412923" lon="16.01661261087495"><ele>4.0</ele><time>2026-03-22T09:46:14Z</time></trkpt><trkpt lat="39.39780533930455" lon="16.016559708139972"><ele>4.0</ele><time>2026-03-22T09:46:15Z</time></trkpt><trkpt lat="39.39792931110846" lon="16.01650704104366"><ele>4.0</ele><time>2026-03-22T09:46:16Z</time></trkpt><trkpt lat="39.398052160585415" lon="16.01645628067157"><ele>4.0</ele><time>2026-03-22T09:46:17Z</time></trkpt><trkpt lat="39.398179055927976" lon="16.016403848587746"><ele>5.25</ele><time>2026-03-22T09:46:18Z</time></trkpt><trkpt lat="39.39830975906981" lon="16.016349464445224"><ele>6.5</ele><time>2026-03-22T09:46:19Z</time></trkpt><trkpt lat="39.39844144225831" lon="16.016293875776302"><ele>7.75</ele><time>2026-03-22T09:46:20Z</time></trkpt><trkpt lat="39.398568803612555" lon="16.016240111568244"><ele>9.0</ele><time>2026-03-22T09:46:21Z</time></trkpt><trkpt lat="39.398699931957246" lon="16.01618525228647"><ele>9.0</ele><time>2026-03-22T09:46:22Z</time></trkpt><trkpt lat="39.398830605245976" lon="16.016130562037855"><ele>9.0</ele><time>2026-03-22T09:46:23Z</time></trkpt><trkpt lat="39.398966553509744" lon="16.016073664097693"><ele>9.0</ele><time>2026-03-22T09:46:23.999Z</time></trkpt><trkpt lat="39.39910753897435" lon="16.016013859552267"><ele>9.0</ele><time>2026-03-22T09:46:24.999Z</time></trkpt><trkpt lat="39.39925983563141" lon="16.015949169121384"><ele>8.333333333333334</ele><time>2026-03-22T09:46:25.999Z</time></trkpt><trkpt lat="39.399413596342015" lon="16.015880925262984"><ele>7.666666666666667</ele><time>2026-03-22T09:46:26.999Z</time></trkpt><trkpt lat="39.39956381672708" lon="16.015793001304058"><ele>7.0</ele><time>2026-03-22T09:46:27.999Z</time></trkpt><trkpt lat="39.399728584101666" lon="16.015720757067704"><ele>7.0</ele><time>2026-03-22T09:46:28.999Z</time></trkpt><trkpt lat="39.399917088900814" lon="16.015660823000864"><ele>7.0</ele><time>2026-03-22T09:46:29.999Z</time></trkpt><trkpt lat="39.40012838282028" lon="16.015569472303625"><ele>7.0</ele><time>2026-03-22T09:46:30.999Z</time></trkpt><trkpt lat="39.40035265928078" lon="16.01547251942886"><ele>9.0</ele><time>2026-03-22T09:46:31.999Z</time></trkpt><trkpt lat="39.400575216829864" lon="16.01537606286902"><ele>11.0</ele><time>2026-03-22T09:46:32.999Z</time></trkpt><trkpt lat="39.400779033702534" lon="16.01528678189396"><ele>11.0</ele><time>2026-03-22T09:46:33.999Z</time></trkpt><trkpt lat="39.40094901069918" lon="16.015212315784368"><ele>11.0</ele><time>2026-03-22T09:46:34.999Z</time></trkpt><trkpt lat="39.40109463234824" lon="16.015127836740323"><ele>11.0</ele><time>2026-03-22T09:46:35.999Z</time></trkpt><trkpt lat="39.401233744523424" lon="16.015072731974765"><ele>12.25</ele><time>2026-03-22T09:46:36.999Z</time></trkpt><trkpt lat="39.401355509476474" lon="16.015018981319898"><ele>13.5</ele><time>2026-03-22T09:46:37.999Z</time></trkpt><trkpt lat="39.40148184655654" lon="16.01496225370266"><ele>14.75</ele><time>2026-03-22T09:46:38.999Z</time></trkpt><trkpt lat="39.40161532180592" lon="16.01490721130608"><ele>16.0</ele><time>2026-03-22T09:46:39.999Z</time></trkpt><trkpt lat="39.40175280967869" lon="16.014851346908635"><ele>14.25</ele><time>2026-03-22T09:46:40.999Z</time></trkpt><trkpt lat="39.40188986784295" lon="16.01479599995002"><ele>12.5</ele><time>2026-03-22T09:46:41.999Z</time></trkpt><trkpt lat="39.40202443280827" lon="16.01473943586084"><ele>10.75</ele><time>2026-03-22T09:46:42.999Z</time></trkpt><trkpt lat="39.40215959951949" lon="16.014681845446667"><ele>9.0</ele><time>2026-03-22T09:46:43.999Z</time></trkpt><trkpt lat="39.402297358804894" lon="16.01462454396379"><ele>9.0</ele><time>2026-03-22T09:46:44.999Z</time></trkpt><trkpt lat="39.40243774617033" lon="16.014567980008835"><ele>9.0</ele><time>2026-03-22T09:46:45.999Z</time></trkpt><trkpt lat="39.40257537401816" lon="16.0145124371204"><ele>9.0</ele><time>2026-03-22T09:46:46.999Z</time></trkpt><trkpt lat="39.402711309691234" lon="16.014461088479862"><ele>9.0</ele><time>2026-03-22T09:46:47.999Z</time></trkpt><trkpt lat="39.4028470837143" lon="16.014416495187877"><ele>9.0</ele><time>2026-03-22T09:46:48.999Z</time></trkpt><trkpt lat="39.402988858723205" lon="16.014386449753268"><ele>9.0</ele><time>2026-03-22T09:46:49.999Z</time></trkpt><trkpt lat="39.40313165740618" lon="16.014363880312303"><ele>9.0</ele><time>2026-03-22T09:46:50.999Z</time></trkpt><trkpt lat="39.40327452227167" lon="16.014349665528133"><ele>9.0</ele><time>2026-03-22T09:46:51.999Z</time></trkpt><trkpt lat="39.4034170489237" lon="16.014347432154498"><ele>9.5</ele><time>2026-03-22T09:46:52.999Z</time></trkpt><trkpt lat="39.403555779121525" lon="16.014352069833176"><ele>10.0</ele><time>2026-03-22T09:46:53.999Z</time></trkpt><trkpt lat="39.40369338532344" lon="16.014364408595682"><ele>10.5</ele><time>2026-03-22T09:46:54.999Z</time></trkpt><trkpt lat="39.403829926495604" lon="16.01438073105261"><ele>11.0</ele><time>2026-03-22T09:46:55.999Z</time></trkpt><trkpt lat="39.403963527475945" lon="16.014397239433052"><ele>11.75</ele><time>2026-03-22T09:46:56.999Z</time></trkpt><trkpt lat="39.40409854505374" lon="16.0144133145203"><ele>12.5</ele><time>2026-03-22T09:46:57.999Z</time></trkpt><trkpt lat="39.404232076908826" lon="16.014429720079065"><ele>13.25</ele><time>2026-03-22T09:46:58.999Z</time></trkpt><trkpt lat="39.404365051267305" lon="16.014445118759866"><ele>14.0</ele><time>2026-03-22T09:46:59.999Z</time></trkpt><trkpt lat="39.404498172569305" lon="16.014461139485075"><ele>14.0</ele><time>2026-03-22T09:47:00.999Z</time></trkpt><trkpt lat="39.40463363049611" lon="16.014479321318678"><ele>14.0</ele><time>2026-03-22T09:47:01.999Z</time></trkpt><trkpt lat="39.4047700564675" lon="16.014498404382852"><ele>14.0</ele><time>2026-03-22T09:47:02.999Z</time></trkpt><trkpt lat="39.404907242123386" lon="16.014517037266998"><ele>14.0</ele><time>2026-03-22T09:47:03.999Z</time></trkpt><trkpt lat="39.40504809974291" lon="16.01453569516181"><ele>15.0</ele><time>2026-03-22T09:47:04.999Z</time></trkpt><trkpt lat="39.405189929398844" lon="16.014553209203473"><ele>16.0</ele><time>2026-03-22T09:47:05.999Z</time></trkpt><trkpt lat="39.40533116411261" lon="16.014571865988632"><ele>17.0</ele><time>2026-03-22T09:47:06.999Z</time></trkpt><trkpt lat="39.40547535523609" lon="16.014592405879483"><ele>18.0</ele><time>2026-03-22T09:47:07.999Z</time></trkpt><trkpt lat="39.405618545950894" lon="16.014613510066322"><ele>18.0</ele><time>2026-03-22T09:47:08.999Z</time></trkpt><trkpt lat="39.40576349658171" lon="16.014632191231236"><ele>18.0</ele><time>2026-03-22T09:47:09.999Z</time></trkpt><trkpt lat="39.40590964543523" lon="16.014648848475776"><ele>18.0</ele><time>2026-03-22T09:47:10.999Z</time></trkpt><trkpt lat="39.4060577032772" lon="16.0146666888018"><ele>18.0</ele><time>2026-03-22T09:47:11.999Z</time></trkpt><trkpt lat="39.406205284875675" lon="16.01468595993501"><ele>18.0</ele><time>2026-03-22T09:47:12.999Z</time></trkpt><trkpt lat="39.406352655102566" lon="16.014706038742595"><ele>18.0</ele><time>2026-03-22T09:47:13.999Z</time></trkpt><trkpt lat="39.406499168804224" lon="16.014725473123057"><ele>18.0</ele><time>2026-03-22T09:47:14.999Z</time></trkpt><trkpt lat="39.40664921996366" lon="16.014743598200987"><ele>18.0</ele><time>2026-03-22T09:47:15.999Z</time></trkpt><trkpt lat="39.40680316293489" lon="16.014762695825276"><ele>18.0</ele><time>2026-03-22T09:47:16.999Z</time></trkpt><trkpt lat="39.406962883089825" lon="16.014782429972023"><ele>18.0</ele><time>2026-03-22T09:47:17.999Z</time></trkpt><trkpt lat="39.407123696084746" lon="16.014803575453683"><ele>18.0</ele><time>2026-03-22T09:47:18.999Z</time></trkpt><trkpt lat="39.40728511046535" lon="16.014826641255254"><ele>19.333333333333332</ele><time>2026-03-22T09:47:19.999Z</time></trkpt><trkpt lat="39.407447675704645" lon="16.01484904298127"><ele>20.666666666666664</ele><time>2026-03-22T09:47:20.999Z</time></trkpt><trkpt lat="39.407612153719896" lon="16.01486807016022"><ele>22.0</ele><time>2026-03-22T09:47:21.999Z</time></trkpt><trkpt lat="39.40777823981301" lon="16.01488701019921"><ele>22.0</ele><time>2026-03-22T09:47:22.999Z</time></trkpt><trkpt lat="39.407944435956985" lon="16.01490704460373"><ele>22.0</ele><time>2026-03-22T09:47:23.999Z</time></trkpt><trkpt lat="39.408114318424126" lon="16.014928538483836"><ele>22.0</ele><time>2026-03-22T09:47:25Z</time></trkpt><trkpt lat="39.40828614091677" lon="16.01494990336374"><ele>23.0</ele><time>2026-03-22T09:47:26Z</time></trkpt><trkpt lat="39.40845521278176" lon="16.014971110548476"><ele>24.0</ele><time>2026-03-22T09:47:27Z</time></trkpt><trkpt lat="39.408624968615754" lon="16.01499222037635"><ele>25.0</ele><time>2026-03-22T09:47:28Z</time></trkpt><trkpt lat="39.40879469244854" lon="16.01501487920634"><ele>28.0</ele><time>2026-03-22T09:47:29Z</time></trkpt><trkpt lat="39.40896300068451" lon="16.01503726116772"><ele>31.0</ele><time>2026-03-22T09:47:30Z</time></trkpt><trkpt lat="39.409132062095374" lon="16.015057872711274"><ele>34.0</ele><time>2026-03-22T09:47:31Z</time></trkpt><trkpt lat="39.40930422550091" lon="16.01507529307567"><ele>34.0</ele><time>2026-03-22T09:47:32Z</time></trkpt><trkpt lat="39.40947822203306" lon="16.015083848711573"><ele>34.0</ele><time>2026-03-22T09:47:33Z</time></trkpt><trkpt lat="39.40964952145912" lon="16.015084910875544"><ele>34.0</ele><time>2026-03-22T09:47:34Z</time></trkpt><trkpt lat="39.409804851173625" lon="16.015075666744956"><ele>34.0</ele><time>2026-03-22T09:47:35Z</time></trkpt><trkpt lat="39.409953796149686" lon="16.015064223899607"><ele>34.0</ele><time>2026-03-22T09:47:36Z</time></trkpt><trkpt lat="39.41010871237972" lon="16.015042582800767"><ele>34.0</ele><time>2026-03-22T09:47:37Z</time></trkpt><trkpt lat="39.41026620900622" lon="16.015018438170898"><ele>34.0</ele><time>2026-03-22T09:47:38Z</time></trkpt><trkpt lat="39.41043128906106" lon="16.014995813466708"><ele>34.0</ele><time>2026-03-22T09:47:39Z</time></trkpt><trkpt lat="39.410597974479366" lon="16.014972317546704"><ele>34.0</ele><time>2026-03-22T09:47:40Z</time></trkpt><trkpt lat="39.410765244683304" lon="16.01493311435344"><ele>29.666666666666668</ele><time>2026-03-22T09:47:41Z</time></trkpt><trkpt lat="39.410937216950494" lon="16.014893715886252"><ele>25.333333333333336</ele><time>2026-03-22T09:47:42Z</time></trkpt><trkpt lat="39.41111585182824" lon="16.014856205155912"><ele>21.0</ele><time>2026-03-22T09:47:43Z</time></trkpt><trkpt lat="39.411294818913625" lon="16.014817759333773"><ele>22.333333333333336</ele><time>2026-03-22T09:47:44Z</time></trkpt><trkpt lat="39.41147216625504" lon="16.014780830206636"><ele>23.666666666666668</ele><time>2026-03-22T09:47:45Z</time></trkpt><trkpt lat="39.41165480332442" lon="16.014743181933706"><ele>25.0</ele><time>2026-03-22T09:47:46Z</time></trkpt><trkpt lat="39.41184993054446" lon="16.014699837561615"><ele>25.0</ele><time>2026-03-22T09:47:47Z</time></trkpt><trkpt lat="39.41206208235129" lon="16.014656350717875"><ele>25.0</ele><time>2026-03-22T09:47:48Z</time></trkpt><trkpt lat="39.4123138894767" lon="16.01461451577793"><ele>27.0</ele><time>2026-03-22T09:47:49Z</time></trkpt><trkpt lat="39.41256705633782" lon="16.0145728896109"><ele>29.0</ele><time>2026-03-22T09:47:50Z</time></trkpt><trkpt lat="39.41280209706909" lon="16.014537135643454"><ele>30.0</ele><time>2026-03-22T09:47:51Z</time></trkpt><trkpt lat="39.41302594567168" lon="16.014500001401085"><ele>31.0</ele><time>2026-03-22T09:47:52Z</time></trkpt><trkpt lat="39.41323504295174" lon="16.014451369929784"><ele>32.0</ele><time>2026-03-22T09:47:53Z</time></trkpt><trkpt lat="39.413456970471245" lon="16.01437416462754"><ele>32.0</ele><time>2026-03-22T09:47:54Z</time></trkpt><trkpt lat="39.413654396914005" lon="16.014279487791274"><ele>32.0</ele><time>2026-03-22T09:47:55Z</time></trkpt><trkpt lat="39.4138418844522" lon="16.01416549940708"><ele>32.0</ele><time>2026-03-22T09:47:56Z</time></trkpt><trkpt lat="39.41402032432877" lon="16.01404406839945"><ele>31.333333333333332</ele><time>2026-03-22T09:47:57Z</time></trkpt><trkpt lat="39.414193531604674" lon="16.013923854826277"><ele>30.666666666666664</ele><time>2026-03-22T09:47:58Z</time></trkpt><trkpt lat="39.414361642386304" lon="16.01380814891733"><ele>30.0</ele><time>2026-03-22T09:47:59Z</time></trkpt><trkpt lat="39.41452506486479" lon="16.01369576033837"><ele>33.333333333333336</ele><time>2026-03-22T09:48:00Z</time></trkpt><trkpt lat="39.414682622205056" lon="16.01358431350101"><ele>36.66666666666667</ele><time>2026-03-22T09:48:01Z</time></trkpt><trkpt lat="39.41483575236679" lon="16.01347196749512"><ele>40.0</ele><time>2026-03-22T09:48:02Z</time></trkpt><trkpt lat="39.414983288562325" lon="16.013365907273023"><ele>36.333333333333336</ele><time>2026-03-22T09:48:03Z</time></trkpt><trkpt lat="39.41512602457209" lon="16.013265508685436"><ele>32.666666666666664</ele><time>2026-03-22T09:48:04Z</time></trkpt><trkpt lat="39.415269615407794" lon="16.01316284945125"><ele>29.0</ele><time>2026-03-22T09:48:05Z</time></trkpt><trkpt lat="39.41541352330463" lon="16.013058307603675"><ele>30.666666666666664</ele><time>2026-03-22T09:48:06Z</time></trkpt><trkpt lat="39.41555822674619" lon="16.012952111258752"><ele>32.333333333333336</ele><time>2026-03-22T09:48:07Z</time></trkpt><trkpt lat="39.41570374855908" lon="16.01284184039773"><ele>34.0</ele><time>2026-03-22T09:48:08Z</time></trkpt><trkpt lat="39.4158446696963" lon="16.01272772433608"><ele>34.0</ele><time>2026-03-22T09:48:09Z</time></trkpt><trkpt lat="39.41598354131576" lon="16.01260694024822"><ele>34.0</ele><time>2026-03-22T09:48:10Z</time></trkpt><trkpt lat="39.4161214811966" lon="16.012478637551155"><ele>34.0</ele><time>2026-03-22T09:48:11Z</time></trkpt><trkpt lat="39.41625989715932" lon="16.012349631828915"><ele>31.666666666666668</ele><time>2026-03-22T09:48:12Z</time></trkpt><trkpt lat="39.41639822463076" lon="16.012220312717133"><ele>29.333333333333336</ele><time>2026-03-22T09:48:13Z</time></trkpt><trkpt lat="39.41653462360824" lon="16.012087204177465"><ele>27.0</ele><time>2026-03-22T09:48:14Z</time></trkpt><trkpt lat="39.41667237175701" lon="16.011956863226487"><ele>27.0</ele><time>2026-03-22T09:48:15Z</time></trkpt><trkpt lat="39.41680662143465" lon="16.01182736234595"><ele>27.0</ele><time>2026-03-22T09:48:16Z</time></trkpt><trkpt lat="39.41693913275102" lon="16.0116930167563"><ele>27.0</ele><time>2026-03-22T09:48:17Z</time></trkpt><trkpt lat="39.4170745868023" lon="16.011559245238104"><ele>26.666666666666664</ele><time>2026-03-22T09:48:18Z</time></trkpt><trkpt lat="39.41720897299151" lon="16.01142980448317"><ele>26.333333333333332</ele><time>2026-03-22T09:48:19Z</time></trkpt><trkpt lat="39.41734419657674" lon="16.01129594201759"><ele>26.0</ele><time>2026-03-22T09:48:20Z</time></trkpt><trkpt lat="39.417478344602436" lon="16.01116188560778"><ele>26.0</ele><time>2026-03-22T09:48:21Z</time></trkpt><trkpt lat="39.417614003011224" lon="16.011027532286956"><ele>26.0</ele><time>2026-03-22T09:48:22Z</time></trkpt><trkpt lat="39.417747933550174" lon="16.010894860733305"><ele>26.0</ele><time>2026-03-22T09:48:23Z</time></trkpt><trkpt lat="39.417883972802066" lon="16.01075747645022"><ele>23.333333333333332</ele><time>2026-03-22T09:48:24Z</time></trkpt><trkpt lat="39.418017916291305" lon="16.010622132054266"><ele>20.666666666666664</ele><time>2026-03-22T09:48:25Z</time></trkpt><trkpt lat="39.4181516591889" lon="16.010485853369364"><ele>18.0</ele><time>2026-03-22T09:48:26Z</time></trkpt><trkpt lat="39.418286648609225" lon="16.010351666400428"><ele>18.0</ele><time>2026-03-22T09:48:26.999Z</time></trkpt><trkpt lat="39.418420197318035" lon="16.010218381304163"><ele>18.0</ele><time>2026-03-22T09:48:27.999Z</time></trkpt><trkpt lat="39.41855393582323" lon="16.010083739052227"><ele>18.0</ele><time>2026-03-22T09:48:28.999Z</time></trkpt><trkpt lat="39.418687869694104" lon="16.00994872550468"><ele>15.333333333333334</ele><time>2026-03-22T09:48:29.999Z</time></trkpt><trkpt lat="39.41882174899257" lon="16.009813394133786"><ele>12.666666666666668</ele><time>2026-03-22T09:48:30.999Z</time></trkpt><trkpt lat="39.41895864733014" lon="16.009680069788484"><ele>10.0</ele><time>2026-03-22T09:48:31.999Z</time></trkpt><trkpt lat="39.419094883771194" lon="16.00954815070832"><ele>10.0</ele><time>2026-03-22T09:48:32.999Z</time></trkpt><trkpt lat="39.419231314136596" lon="16.009415099355977"><ele>10.0</ele><time>2026-03-22T09:48:33.999Z</time></trkpt><trkpt lat="39.419367312498935" lon="16.00928183191703"><ele>10.0</ele><time>2026-03-22T09:48:34.999Z</time></trkpt><trkpt lat="39.41950277114024" lon="16.009148987414136"><ele>9.333333333333334</ele><time>2026-03-22T09:48:35.999Z</time></trkpt><trkpt lat="39.41963711449535" lon="16.009015465471567"><ele>8.666666666666666</ele><time>2026-03-22T09:48:36.999Z</time></trkpt><trkpt lat="39.419771840706" lon="16.008881043574466"><ele>8.0</ele><time>2026-03-22T09:48:37.999Z</time></trkpt><trkpt lat="39.41990522297578" lon="16.00874721920212"><ele>8.0</ele><time>2026-03-22T09:48:38.999Z</time></trkpt><trkpt lat="39.420038986906846" lon="16.008612451149943"><ele>8.0</ele><time>2026-03-22T09:48:39.999Z</time></trkpt><trkpt lat="39.42017283183348" lon="16.008478354278004"><ele>8.0</ele><time>2026-03-22T09:48:40.999Z</time></trkpt><trkpt lat="39.420306792961384" lon="16.008346392138392"><ele>7.666666666666666</ele><time>2026-03-22T09:48:41.999Z</time></trkpt><trkpt lat="39.42043998737931" lon="16.008214895803324"><ele>7.333333333333334</ele><time>2026-03-22T09:48:42.999Z</time></trkpt><trkpt lat="39.420573593024116" lon="16.008085173340863"><ele>7.0</ele><time>2026-03-22T09:48:43.999Z</time></trkpt><trkpt lat="39.42070593915811" lon="16.007957102030744"><ele>7.0</ele><time>2026-03-22T09:48:44.999Z</time></trkpt><trkpt lat="39.420835912841866" lon="16.00782838531098"><ele>7.0</ele><time>2026-03-22T09:48:45.999Z</time></trkpt><trkpt lat="39.42096551986857" lon="16.007698266007058"><ele>7.0</ele><time>2026-03-22T09:48:46.999Z</time></trkpt><trkpt lat="39.42109348438439" lon="16.007568830673637"><ele>7.0</ele><time>2026-03-22T09:48:47.999Z</time></trkpt><trkpt lat="39.42122247204471" lon="16.007438740550153"><ele>7.0</ele><time>2026-03-22T09:48:48.999Z</time></trkpt><trkpt lat="39.42135112372146" lon="16.007310059960368"><ele>7.0</ele><time>2026-03-22T09:48:49.999Z</time></trkpt><trkpt lat="39.42148045370366" lon="16.00718271884193"><ele>7.333333333333334</ele><time>2026-03-22T09:48:50.999Z</time></trkpt><trkpt lat="39.421608701951904" lon="16.007054327560212"><ele>7.666666666666666</ele><time>2026-03-22T09:48:51.999Z</time></trkpt><trkpt lat="39.4217366221185" lon="16.006927305976035"><ele>8.0</ele><time>2026-03-22T09:48:52.999Z</time></trkpt><trkpt lat="39.421866134245825" lon="16.006803418635112"><ele>8.0</ele><time>2026-03-22T09:48:53.999Z</time></trkpt><trkpt lat="39.42199582639989" lon="16.006684469608313"><ele>8.0</ele><time>2026-03-22T09:48:54.999Z</time></trkpt><trkpt lat="39.422124635196056" lon="16.006573928101155"><ele>8.0</ele><time>2026-03-22T09:48:55.999Z</time></trkpt><trkpt lat="39.42225126267246" lon="16.006472703654257"><ele>8.5</ele><time>2026-03-22T09:48:56.999Z</time></trkpt><trkpt lat="39.42237836988999" lon="16.006384267358168"><ele>9.0</ele><time>2026-03-22T09:48:57.999Z</time></trkpt><trkpt lat="39.4225066075457" lon="16.00630236281955"><ele>9.5</ele><time>2026-03-22T09:48:58.999Z</time></trkpt><trkpt lat="39.42263570009719" lon="16.00622535980624"><ele>10.0</ele><time>2026-03-22T09:48:59.999Z</time></trkpt><trkpt lat="39.42276595291842" lon="16.006150683638545"><ele>10.0</ele><time>2026-03-22T09:49:00.999Z</time></trkpt><trkpt lat="39.42289528963475" lon="16.006079038890725"><ele>10.0</ele><time>2026-03-22T09:49:01.999Z</time></trkpt><trkpt lat="39.42302437903831" lon="16.00601078243652"><ele>10.0</ele><time>2026-03-22T09:49:02.999Z</time></trkpt><trkpt lat="39.42315090968388" lon="16.005942974614616"><ele>10.0</ele><time>2026-03-22T09:49:03.999Z</time></trkpt><trkpt lat="39.42327670934191" lon="16.005874937296444"><ele>10.0</ele><time>2026-03-22T09:49:04.999Z</time></trkpt><trkpt lat="39.42339990789268" lon="16.00580468414466"><ele>10.0</ele><time>2026-03-22T09:49:05.999Z</time></trkpt><trkpt lat="39.423523111988054" lon="16.005734037113193"><ele>10.0</ele><time>2026-03-22T09:49:06.999Z</time></trkpt><trkpt lat="39.42365380810088" lon="16.005660902706648"><ele>10.0</ele><time>2026-03-22T09:49:07.999Z</time></trkpt><trkpt lat="39.4237945646678" lon="16.005584510000887"><ele>10.25</ele><time>2026-03-22T09:49:08.999Z</time></trkpt><trkpt lat="39.42393311779765" lon="16.005508931278253"><ele>10.5</ele><time>2026-03-22T09:49:09.999Z</time></trkpt><trkpt lat="39.42406609582376" lon="16.00543560441799"><ele>10.75</ele><time>2026-03-22T09:49:10.999Z</time></trkpt><trkpt lat="39.42418766228649" lon="16.005368165000718"><ele>11.0</ele><time>2026-03-22T09:49:11.999Z</time></trkpt><trkpt lat="39.42430139278109" lon="16.005303119492698"><ele>11.0</ele><time>2026-03-22T09:49:12.999Z</time></trkpt><trkpt lat="39.42441820382088" lon="16.00523530422907"><ele>11.0</ele><time>2026-03-22T09:49:13.999Z</time></trkpt><trkpt lat="39.42453234027716" lon="16.00517096877678"><ele>11.0</ele><time>2026-03-22T09:49:14.999Z</time></trkpt><trkpt lat="39.42465471431675" lon="16.005104787756775"><ele>11.0</ele><time>2026-03-22T09:49:15.999Z</time></trkpt><trkpt lat="39.42477453667236" lon="16.005041245304877"><ele>10.600000000000001</ele><time>2026-03-22T09:49:16.999Z</time></trkpt><trkpt lat="39.42488420026201" lon="16.004983392965364"><ele>10.200000000000001</ele><time>2026-03-22T09:49:17.999Z</time></trkpt><trkpt lat="39.424984780340026" lon="16.00493655809087"><ele>9.8</ele><time>2026-03-22T09:49:18.999Z</time></trkpt><trkpt lat="39.42507514915509" lon="16.004898956227482"><ele>9.4</ele><time>2026-03-22T09:49:19.999Z</time></trkpt><trkpt lat="39.42516480775605" lon="16.00486214833206"><ele>9.0</ele><time>2026-03-22T09:49:20.999Z</time></trkpt><trkpt lat="39.425254148594725" lon="16.00482405222063"><ele>9.0</ele><time>2026-03-22T09:49:21.999Z</time></trkpt><trkpt lat="39.42534510496057" lon="16.004788283895813"><ele>9.0</ele><time>2026-03-22T09:49:22.999Z</time></trkpt><trkpt lat="39.4254375836023" lon="16.004751022857615"><ele>9.0</ele><time>2026-03-22T09:49:23.999Z</time></trkpt><trkpt lat="39.425540997315274" lon="16.004706645909057"><ele>9.0</ele><time>2026-03-22T09:49:24.999Z</time></trkpt><trkpt lat="39.42566524690605" lon="16.004654071595585"><ele>9.0</ele><time>2026-03-22T09:49:25.999Z</time></trkpt><trkpt lat="39.42579783696712" lon="16.00460425994175"><ele>9.2</ele><time>2026-03-22T09:49:26.999Z</time></trkpt><trkpt lat="39.42591610670741" lon="16.004562488284705"><ele>9.4</ele><time>2026-03-22T09:49:27.999Z</time></trkpt><trkpt lat="39.426020986591624" lon="16.00452520701144"><ele>9.6</ele><time>2026-03-22T09:49:28.999Z</time></trkpt><trkpt lat="39.426103365058154" lon="16.004495996991107"><ele>9.8</ele><time>2026-03-22T09:49:29.999Z</time></trkpt><trkpt lat="39.42616895367559" lon="16.004472331415283"><ele>10.0</ele><time>2026-03-22T09:49:31Z</time></trkpt><trkpt lat="39.42624034030423" lon="16.00444430697217"><ele>10.0</ele><time>2026-03-22T09:49:32Z</time></trkpt><trkpt lat="39.426323473143015" lon="16.004409847053836"><ele>10.0</ele><time>2026-03-22T09:49:33Z</time></trkpt><trkpt lat="39.426415853971164" lon="16.004372586396826"><ele>10.0</ele><time>2026-03-22T09:49:34Z</time></trkpt><trkpt lat="39.42652175712319" lon="16.004332197155662"><ele>10.0</ele><time>2026-03-22T09:49:35Z</time></trkpt><trkpt lat="39.42664580007851" lon="16.004286052164"><ele>10.0</ele><time>2026-03-22T09:49:36Z</time></trkpt><trkpt lat="39.426784764160224" lon="16.00423463159408"><ele>10.0</ele><time>2026-03-22T09:49:37Z</time></trkpt><trkpt lat="39.42693311060659" lon="16.00418165238639"><ele>10.0</ele><time>2026-03-22T09:49:38Z</time></trkpt><trkpt lat="39.42708518575571" lon="16.00412673686899"><ele>10.0</ele><time>2026-03-22T09:49:39Z</time></trkpt><trkpt lat="39.42724075132541" lon="16.004069205500187"><ele>9.0</ele><time>2026-03-22T09:49:40Z</time></trkpt><trkpt lat="39.427403895109116" lon="16.004006533010063"><ele>8.0</ele><time>2026-03-22T09:49:41Z</time></trkpt><trkpt lat="39.427564851433544" lon="16.003943674886642"><ele>7.0</ele><time>2026-03-22T09:49:42Z</time></trkpt><trkpt lat="39.42772611894892" lon="16.003881587270048"><ele>7.0</ele><time>2026-03-22T09:49:43Z</time></trkpt><trkpt lat="39.427886145672" lon="16.00382126311589"><ele>7.0</ele><time>2026-03-22T09:49:44Z</time></trkpt><trkpt lat="39.428052067244586" lon="16.00375944527987"><ele>7.0</ele><time>2026-03-22T09:49:45Z</time></trkpt><trkpt lat="39.42822467404527" lon="16.003696039798616"><ele>7.333333333333334</ele><time>2026-03-22T09:49:46Z</time></trkpt><trkpt lat="39.42840394446932" lon="16.003631171412373"><ele>7.666666666666666</ele><time>2026-03-22T09:49:47Z</time></trkpt><trkpt lat="39.42858934514712" lon="16.0035685887654"><ele>8.0</ele><time>2026-03-22T09:49:48Z</time></trkpt><trkpt lat="39.42878346632277" lon="16.003507499348384"><ele>8.0</ele><time>2026-03-22T09:49:49Z</time></trkpt><trkpt lat="39.42898821017581" lon="16.003447980494464"><ele>8.0</ele><time>2026-03-22T09:49:50Z</time></trkpt><trkpt lat="39.42919900203969" lon="16.00338981819071"><ele>8.0</ele><time>2026-03-22T09:49:51Z</time></trkpt><trkpt lat="39.42941907161919" lon="16.003329953151432"><ele>8.0</ele><time>2026-03-22T09:49:52Z</time></trkpt><trkpt lat="39.42964101284029" lon="16.003269639119786"><ele>8.0</ele><time>2026-03-22T09:49:53Z</time></trkpt><trkpt lat="39.429863548394934" lon="16.003211554646853"><ele>8.0</ele><time>2026-03-22T09:49:54Z</time></trkpt><trkpt lat="39.43007740099422" lon="16.003156090517244"><ele>8.0</ele><time>2026-03-22T09:49:55Z</time></trkpt><trkpt lat="39.430278088869045" lon="16.00310243979153"><ele>8.0</ele><time>2026-03-22T09:49:56Z</time></trkpt><trkpt lat="39.43046989442999" lon="16.003050011673178"><ele>8.0</ele><time>2026-03-22T09:49:57Z</time></trkpt><trkpt lat="39.43066119306208" lon="16.002991165892126"><ele>8.0</ele><time>2026-03-22T09:49:58Z</time></trkpt><trkpt lat="39.43084380725534" lon="16.002919102200327"><ele>8.0</ele><time>2026-03-22T09:49:59Z</time></trkpt><trkpt lat="39.43102565744636" lon="16.00283393488661"><ele>8.0</ele><time>2026-03-22T09:50:00Z</time></trkpt><trkpt lat="39.43120667376468" lon="16.002741314624018"><ele>8.0</ele><time>2026-03-22T09:50:01Z</time></trkpt><trkpt lat="39.43138698989543" lon="16.002644505018395"><ele>8.0</ele><time>2026-03-22T09:50:02Z</time></trkpt><trkpt lat="39.43156698990965" lon="16.002544753838105"><ele>7.333333333333333</ele><time>2026-03-22T09:50:03Z</time></trkpt><trkpt lat="39.431742843823706" lon="16.002445823698153"><ele>6.666666666666666</ele><time>2026-03-22T09:50:04Z</time></trkpt><trkpt lat="39.43191496335211" lon="16.002350224698596"><ele>6.0</ele><time>2026-03-22T09:50:05Z</time></trkpt><trkpt lat="39.43208706909156" lon="16.002256903751285"><ele>6.333333333333334</ele><time>2026-03-22T09:50:06Z</time></trkpt><trkpt lat="39.43225575256477" lon="16.00216561559559"><ele>6.666666666666667</ele><time>2026-03-22T09:50:07Z</time></trkpt><trkpt lat="39.432426864105764" lon="16.00207348268778"><ele>7.0</ele><time>2026-03-22T09:50:08Z</time></trkpt><trkpt lat="39.43259389775694" lon="16.001979306836414"><ele>7.0</ele><time>2026-03-22T09:50:09Z</time></trkpt><trkpt lat="39.43275839912746" lon="16.001886218489748"><ele>7.0</ele><time>2026-03-22T09:50:10Z</time></trkpt><trkpt lat="39.432923475082255" lon="16.00179344734115"><ele>7.0</ele><time>2026-03-22T09:50:11Z</time></trkpt><trkpt lat="39.43308601104935" lon="16.00169935009142"><ele>7.0</ele><time>2026-03-22T09:50:12Z</time></trkpt><trkpt lat="39.433246623051026" lon="16.00160532485857"><ele>7.0</ele><time>2026-03-22T09:50:13Z</time></trkpt><trkpt lat="39.43340287977863" lon="16.001507362553767"><ele>7.0</ele><time>2026-03-22T09:50:14Z</time></trkpt><trkpt lat="39.43355739405427" lon="16.00140912232232"><ele>7.0</ele><time>2026-03-22T09:50:15Z</time></trkpt><trkpt lat="39.433710066845755" lon="16.00130971523953"><ele>7.0</ele><time>2026-03-22T09:50:16Z</time></trkpt><trkpt lat="39.43387090973029" lon="16.00119973449793"><ele>7.0</ele><time>2026-03-22T09:50:17Z</time></trkpt><trkpt lat="39.43403430057618" lon="16.0010767154825"><ele>7.0</ele><time>2026-03-22T09:50:18Z</time></trkpt><trkpt lat="39.434228224841355" lon="16.000935340308835"><ele>7.0</ele><time>2026-03-22T09:50:19Z</time></trkpt><trkpt lat="39.434434757190175" lon="16.000799142520577"><ele>7.5</ele><time>2026-03-22T09:50:20Z</time></trkpt><trkpt lat="39.43464783365221" lon="16.00066692927051"><ele>8.0</ele><time>2026-03-22T09:50:21Z</time></trkpt><trkpt lat="39.43486252923653" lon="16.00054892464717"><ele>8.0</ele><time>2026-03-22T09:50:22Z</time></trkpt><trkpt lat="39.43507611905774" lon="16.00044279208247"><ele>8.0</ele><time>2026-03-22T09:50:23Z</time></trkpt><trkpt lat="39.435286537829136" lon="16.00033958763225"><ele>8.5</ele><time>2026-03-22T09:50:24Z</time></trkpt><trkpt lat="39.435499267608144" lon="16.000235351800477"><ele>9.0</ele><time>2026-03-22T09:50:25Z</time></trkpt><trkpt lat="39.43571187239796" lon="16.00012998001045"><ele>9.0</ele><time>2026-03-22T09:50:26Z</time></trkpt><trkpt lat="39.43592687661321" lon="16.000021943123993"><ele>9.0</ele><time>2026-03-22T09:50:27Z</time></trkpt><trkpt lat="39.4361403395252" lon="15.999912455157261"><ele>9.0</ele><time>2026-03-22T09:50:28Z</time></trkpt><trkpt lat="39.43635265381505" lon="15.999803879665121"><ele>9.0</ele><time>2026-03-22T09:50:29Z</time></trkpt><trkpt lat="39.436562221387156" lon="15.999699530069309"><ele>9.0</ele><time>2026-03-22T09:50:30Z</time></trkpt><trkpt lat="39.43676563955771" lon="15.9995985603873"><ele>9.0</ele><time>2026-03-22T09:50:30.999Z</time></trkpt><trkpt lat="39.43696407938227" lon="15.999499922023478"><ele>9.0</ele><time>2026-03-22T09:50:31.999Z</time></trkpt><trkpt lat="39.43715570097433" lon="15.999407425547188"><ele>8.333333333333334</ele><time>2026-03-22T09:50:32.999Z</time></trkpt><trkpt lat="39.43734185542209" lon="15.99931648327874"><ele>7.666666666666667</ele><time>2026-03-22T09:50:33.999Z</time></trkpt><trkpt lat="39.43752147340068" lon="15.999229920977923"><ele>7.0</ele><time>2026-03-22T09:50:34.999Z</time></trkpt><trkpt lat="39.437699199675436" lon="15.999142795353105"><ele>7.0</ele><time>2026-03-22T09:50:35.999Z</time></trkpt><trkpt lat="39.437875423611466" lon="15.999055026238858"><ele>7.0</ele><time>2026-03-22T09:50:36.999Z</time></trkpt><trkpt lat="39.438048520264616" lon="15.998969341310435"><ele>7.0</ele><time>2026-03-22T09:50:37.999Z</time></trkpt><trkpt lat="39.43821914963268" lon="15.998884117103334"><ele>7.0</ele><time>2026-03-22T09:50:38.999Z</time></trkpt><trkpt lat="39.43839188630494" lon="15.998800246943313"><ele>7.0</ele><time>2026-03-22T09:50:39.999Z</time></trkpt><trkpt lat="39.4385637659266" lon="15.998720504862924"><ele>7.0</ele><time>2026-03-22T09:50:40.999Z</time></trkpt><trkpt lat="39.43873348580314" lon="15.998643139399112"><ele>6.666666666666667</ele><time>2026-03-22T09:50:41.999Z</time></trkpt><trkpt lat="39.43890079960621" lon="15.998568896109564"><ele>6.333333333333334</ele><time>2026-03-22T09:50:42.999Z</time></trkpt><trkpt lat="39.43906423561771" lon="15.998497899874144"><ele>6.0</ele><time>2026-03-22T09:50:43.999Z</time></trkpt><trkpt lat="39.43922493770581" lon="15.998428696086362"><ele>6.0</ele><time>2026-03-22T09:50:44.999Z</time></trkpt><trkpt lat="39.43938822723878" lon="15.99835792866267"><ele>6.0</ele><time>2026-03-22T09:50:45.999Z</time></trkpt><trkpt lat="39.439563544840006" lon="15.998282829653503"><ele>6.0</ele><time>2026-03-22T09:50:46.999Z</time></trkpt><trkpt lat="39.43974413940375" lon="15.998205753087682"><ele>5.666666666666667</ele><time>2026-03-22T09:50:47.999Z</time></trkpt><trkpt lat="39.43992026561531" lon="15.998129690129923"><ele>5.333333333333334</ele><time>2026-03-22T09:50:48.999Z</time></trkpt><trkpt lat="39.44009834732758" lon="15.998052089068443"><ele>5.0</ele><time>2026-03-22T09:50:49.999Z</time></trkpt><trkpt lat="39.44027853378788" lon="15.99797214766886"><ele>5.0</ele><time>2026-03-22T09:50:50.999Z</time></trkpt><trkpt lat="39.44046488938663" lon="15.99788190531475"><ele>5.0</ele><time>2026-03-22T09:50:51.999Z</time></trkpt><trkpt lat="39.44066564972841" lon="15.997785967955163"><ele>5.0</ele><time>2026-03-22T09:50:52.999Z</time></trkpt><trkpt lat="39.44087703500619" lon="15.997692226583924"><ele>5.0</ele><time>2026-03-22T09:50:53.999Z</time></trkpt><trkpt lat="39.44109309701769" lon="15.997603884847969"><ele>5.0</ele><time>2026-03-22T09:50:54.999Z</time></trkpt><trkpt lat="39.44130999202335" lon="15.997517926378322"><ele>5.5</ele><time>2026-03-22T09:50:55.999Z</time></trkpt><trkpt lat="39.4415250893473" lon="15.997430086895973"><ele>6.0</ele><time>2026-03-22T09:50:56.999Z</time></trkpt><trkpt lat="39.441738740700806" lon="15.997338026170024"><ele>6.0</ele><time>2026-03-22T09:50:57.999Z</time></trkpt><trkpt lat="39.441950792398984" lon="15.997239472545042"><ele>6.0</ele><time>2026-03-22T09:50:58.999Z</time></trkpt><trkpt lat="39.44216073224367" lon="15.997130203702003"><ele>6.0</ele><time>2026-03-22T09:50:59.999Z</time></trkpt><trkpt lat="39.442368264476826" lon="15.997010067476165"><ele>6.0</ele><time>2026-03-22T09:51:00.999Z</time></trkpt><trkpt lat="39.44257545365391" lon="15.996884099476057"><ele>6.0</ele><time>2026-03-22T09:51:01.999Z</time></trkpt><trkpt lat="39.44278216269317" lon="15.996758019362144"><ele>6.0</ele><time>2026-03-22T09:51:02.999Z</time></trkpt><trkpt lat="39.44298958720488" lon="15.996631080582313"><ele>6.0</ele><time>2026-03-22T09:51:03.999Z</time></trkpt><trkpt lat="39.44319732412895" lon="15.996503150427742"><ele>6.0</ele><time>2026-03-22T09:51:04.999Z</time></trkpt><trkpt lat="39.443404859434914" lon="15.996373207278548"><ele>6.0</ele><time>2026-03-22T09:51:05.999Z</time></trkpt><trkpt lat="39.443611367725076" lon="15.996241225931268"><ele>6.0</ele><time>2026-03-22T09:51:06.999Z</time></trkpt><trkpt lat="39.443816048797075" lon="15.996106657485113"><ele>6.5</ele><time>2026-03-22T09:51:07.999Z</time></trkpt><trkpt lat="39.444018586403715" lon="15.995971269584624"><ele>7.0</ele><time>2026-03-22T09:51:08.999Z</time></trkpt><trkpt lat="39.44422616310297" lon="15.99583791790598"><ele>7.0</ele><time>2026-03-22T09:51:09.999Z</time></trkpt><trkpt lat="39.444433582156634" lon="15.995717453566767"><ele>7.0</ele><time>2026-03-22T09:51:10.999Z</time></trkpt><trkpt lat="39.444646476299766" lon="15.995615668435857"><ele>8.0</ele><time>2026-03-22T09:51:11.999Z</time></trkpt><trkpt lat="39.44486269097963" lon="15.995532369995288"><ele>9.0</ele><time>2026-03-22T09:51:12.999Z</time></trkpt><trkpt lat="39.445080545494925" lon="15.995459321089625"><ele>9.0</ele><time>2026-03-22T09:51:13.999Z</time></trkpt><trkpt lat="39.445299737247225" lon="15.99538992913055"><ele>9.0</ele><time>2026-03-22T09:51:14.999Z</time></trkpt><trkpt lat="39.445521796181595" lon="15.995319695950617"><ele>8.5</ele><time>2026-03-22T09:51:15.999Z</time></trkpt><trkpt lat="39.44574493882369" lon="15.995245475393"><ele>8.0</ele><time>2026-03-22T09:51:16.999Z</time></trkpt><trkpt lat="39.44596919307344" lon="15.995171553873012"><ele>8.0</ele><time>2026-03-22T09:51:17.999Z</time></trkpt><trkpt lat="39.446193637261366" lon="15.995094832099985"><ele>8.0</ele><time>2026-03-22T09:51:18.999Z</time></trkpt><trkpt lat="39.446416773988396" lon="15.995017531199753"><ele>8.0</ele><time>2026-03-22T09:51:19.999Z</time></trkpt><trkpt lat="39.446641082789334" lon="15.994939870888693"><ele>8.0</ele><time>2026-03-22T09:51:20.999Z</time></trkpt><trkpt lat="39.4468653877725" lon="15.994862212659633"><ele>8.0</ele><time>2026-03-22T09:51:21.999Z</time></trkpt><trkpt lat="39.44708872792213" lon="15.99477885082336"><ele>8.0</ele><time>2026-03-22T09:51:22.999Z</time></trkpt><trkpt lat="39.44730796192383" lon="15.994686570155462"><ele>8.5</ele><time>2026-03-22T09:51:23.999Z</time></trkpt><trkpt lat="39.447522003047254" lon="15.994579336002937"><ele>9.0</ele><time>2026-03-22T09:51:24.999Z</time></trkpt><trkpt lat="39.44773143145388" lon="15.994459614256902"><ele>9.0</ele><time>2026-03-22T09:51:25.999Z</time></trkpt><trkpt lat="39.4479392202877" lon="15.994335652228331"><ele>9.0</ele><time>2026-03-22T09:51:26.999Z</time></trkpt><trkpt lat="39.44814574939454" lon="15.994207181854067"><ele>11.5</ele><time>2026-03-22T09:51:27.999Z</time></trkpt><trkpt lat="39.448353959268765" lon="15.994083274924645"><ele>14.0</ele><time>2026-03-22T09:51:28.999Z</time></trkpt><trkpt lat="39.44856193289226" lon="15.99395829147578"><ele>14.0</ele><time>2026-03-22T09:51:29.999Z</time></trkpt><trkpt lat="39.44876867321229" lon="15.993832538309723"><ele>14.0</ele><time>2026-03-22T09:51:30.999Z</time></trkpt><trkpt lat="39.44897679631561" lon="15.993708194101018"><ele>20.5</ele><time>2026-03-22T09:51:31.999Z</time></trkpt><trkpt lat="39.44918288399614" lon="15.993583456663021"><ele>27.0</ele><time>2026-03-22T09:51:32.999Z</time></trkpt><trkpt lat="39.44939045307622" lon="15.993459232982607"><ele>29.0</ele><time>2026-03-22T09:51:33.999Z</time></trkpt><trkpt lat="39.449597196614434" lon="15.993333231161852"><ele>31.0</ele><time>2026-03-22T09:51:34.999Z</time></trkpt><trkpt lat="39.44980401422237" lon="15.99320773914186"><ele>51.0</ele><time>2026-03-22T09:51:35.999Z</time></trkpt><trkpt lat="39.45001237402016" lon="15.993083620770676"><ele>71.0</ele><time>2026-03-22T09:51:37Z</time></trkpt><trkpt lat="39.45022014221548" lon="15.992960729183986"><ele>71.0</ele><time>2026-03-22T09:51:38Z</time></trkpt><trkpt lat="39.45042736018219" lon="15.99283636309077"><ele>71.0</ele><time>2026-03-22T09:51:39Z</time></trkpt><trkpt lat="39.45063519940739" lon="15.992713868438882"><ele>84.5</ele><time>2026-03-22T09:51:40Z</time></trkpt><trkpt lat="39.450844096257306" lon="15.992593662912595"><ele>98.0</ele><time>2026-03-22T09:51:41Z</time></trkpt><trkpt lat="39.45105200642006" lon="15.99249467584883"><ele>106.0</ele><time>2026-03-22T09:51:42Z</time></trkpt><trkpt lat="39.45125860904347" lon="15.992366007019543"><ele>114.0</ele><time>2026-03-22T09:51:43Z</time></trkpt><trkpt lat="39.45146633251464" lon="15.992239163697132"><ele>128.0</ele><time>2026-03-22T09:51:44Z</time></trkpt><trkpt lat="39.45167645510429" lon="15.992117977535797"><ele>142.0</ele><time>2026-03-22T09:51:45Z</time></trkpt><trkpt lat="39.451888840750016" lon="15.992000802458739"><ele>142.0</ele><time>2026-03-22T09:51:46Z</time></trkpt><trkpt lat="39.45210142690891" lon="15.991887761878552"><ele>142.0</ele><time>2026-03-22T09:51:47Z</time></trkpt><trkpt lat="39.452315742035466" lon="15.991771001088532"><ele>146.5</ele><time>2026-03-22T09:51:48Z</time></trkpt><trkpt lat="39.45253526512461" lon="15.991657854840138"><ele>151.0</ele><time>2026-03-22T09:51:49Z</time></trkpt><trkpt lat="39.45276190567805" lon="15.991539473836143"><ele>154.0</ele><time>2026-03-22T09:51:50Z</time></trkpt><trkpt lat="39.45298455069216" lon="15.991414328671038"><ele>157.0</ele><time>2026-03-22T09:51:51Z</time></trkpt><trkpt lat="39.45320899661555" lon="15.991298942652714"><ele>157.0</ele><time>2026-03-22T09:51:52Z</time></trkpt><trkpt lat="39.45343435508507" lon="15.991183596972633"><ele>157.0</ele><time>2026-03-22T09:51:53Z</time></trkpt><trkpt lat="39.45365138656061" lon="15.991037944353975"><ele>158.0</ele><time>2026-03-22T09:51:54Z</time></trkpt><trkpt lat="39.45387587808234" lon="15.990910363856461"><ele>159.0</ele><time>2026-03-22T09:51:55Z</time></trkpt><trkpt lat="39.45409908765972" lon="15.990783511765978"><ele>159.0</ele><time>2026-03-22T09:51:56Z</time></trkpt><trkpt lat="39.45431948280632" lon="15.990659113357165"><ele>159.0</ele><time>2026-03-22T09:51:57Z</time></trkpt><trkpt lat="39.45453806889183" lon="15.990536404620814"><ele>163.0</ele><time>2026-03-22T09:51:58Z</time></trkpt><trkpt lat="39.45476149143081" lon="15.99041098078494"><ele>167.0</ele><time>2026-03-22T09:51:59Z</time></trkpt><trkpt lat="39.454982745581866" lon="15.990286773892805"><ele>167.0</ele><time>2026-03-22T09:52:00Z</time></trkpt><trkpt lat="39.45521185309805" lon="15.990158158788875"><ele>167.0</ele><time>2026-03-22T09:52:01Z</time></trkpt><trkpt lat="39.455436420099076" lon="15.990032092464036"><ele>154.0</ele><time>2026-03-22T09:52:02Z</time></trkpt><trkpt lat="39.45566016825971" lon="15.989906519789606"><ele>141.0</ele><time>2026-03-22T09:52:03Z</time></trkpt><trkpt lat="39.45588280945249" lon="15.989781569133571"><ele>87.0</ele><time>2026-03-22T09:52:04.022Z</time></trkpt><trkpt lat="39.45749460330494" lon="15.98874801180569"><ele>106.0</ele><time>2026-03-22T09:52:07.355Z</time></trkpt><trkpt lat="39.45798947269748" lon="15.988470198502016"><ele>70.0</ele><time>2026-03-22T09:52:08.354Z</time></trkpt><trkpt lat="39.45848627952967" lon="15.98819129754467"><ele>70.0</ele><time>2026-03-22T09:52:09.356Z</time></trkpt><trkpt lat="39.458981129642375" lon="15.987911122073362"><ele>70.0</ele><time>2026-03-22T09:52:10.356Z</time></trkpt><trkpt lat="39.459470735070404" lon="15.987617421856783"><ele>80.0</ele><time>2026-03-22T09:52:11.356Z</time></trkpt><trkpt lat="39.459953070047206" lon="15.987304965859352"><ele>80.0</ele><time>2026-03-22T09:52:12.354Z</time></trkpt><trkpt lat="39.46043014814323" lon="15.986975254442617"><ele>58.0</ele><time>2026-03-22T09:52:13.356Z</time></trkpt><trkpt lat="39.460901498865844" lon="15.986633529087648"><ele>56.0</ele><time>2026-03-22T09:52:14.356Z</time></trkpt><trkpt lat="39.46170270498884" lon="15.986077536137307"><ele>56.0</ele><time>2026-03-22T09:52:31Z</time></trkpt><trkpt lat="39.46192406527325" lon="15.985895100630632"><ele>56.0</ele><time>2026-03-22T09:52:31.999Z</time></trkpt><trkpt lat="39.46214253808258" lon="15.98573006470587"><ele>55.0</ele><time>2026-03-22T09:52:32.999Z</time></trkpt><trkpt lat="39.4623507825802" lon="15.98557682925546"><ele>54.0</ele><time>2026-03-22T09:52:33.999Z</time></trkpt><trkpt lat="39.46256063916532" lon="15.98542496461632"><ele>54.0</ele><time>2026-03-22T09:52:34.999Z</time></trkpt><trkpt lat="39.462771495438844" lon="15.985258543694135"><ele>54.0</ele><time>2026-03-22T09:52:35.999Z</time></trkpt><trkpt lat="39.46298995864428" lon="15.985118345417106"><ele>47.0</ele><time>2026-03-22T09:52:36.999Z</time></trkpt><trkpt lat="39.463200924225426" lon="15.984962868181375"><ele>40.0</ele><time>2026-03-22T09:52:37.999Z</time></trkpt><trkpt lat="39.46341239033415" lon="15.984806976518136"><ele>40.0</ele><time>2026-03-22T09:52:38.999Z</time></trkpt><trkpt lat="39.46362321120035" lon="15.984651043931489"><ele>40.0</ele><time>2026-03-22T09:52:39.999Z</time></trkpt><trkpt lat="39.463833511676846" lon="15.984495448548033"><ele>55.5</ele><time>2026-03-22T09:52:40.999Z</time></trkpt><trkpt lat="39.46404422443613" lon="15.984340106486032"><ele>71.0</ele><time>2026-03-22T09:52:41.999Z</time></trkpt><trkpt lat="39.46425645852491" lon="15.984184436257255"><ele>60.5</ele><time>2026-03-22T09:52:42.999Z</time></trkpt><trkpt lat="39.46446096265743" lon="15.98401325182067"><ele>50.0</ele><time>2026-03-22T09:52:43.999Z</time></trkpt><trkpt lat="39.464674240015235" lon="15.983858192427602"><ele>50.0</ele><time>2026-03-22T09:52:44.999Z</time></trkpt><trkpt lat="39.464884755945405" lon="15.983703758806062"><ele>50.0</ele><time>2026-03-22T09:52:45.999Z</time></trkpt><trkpt lat="39.465095648473394" lon="15.98354892219311"><ele>50.0</ele><time>2026-03-22T09:52:46.999Z</time></trkpt><trkpt lat="39.465307376482436" lon="15.983393706043874"><ele>50.0</ele><time>2026-03-22T09:52:47.999Z</time></trkpt><trkpt lat="39.465517318450786" lon="15.983238029433664"><ele>48.0</ele><time>2026-03-22T09:52:48.999Z</time></trkpt><trkpt lat="39.46572582283204" lon="15.98308239693984"><ele>46.0</ele><time>2026-03-22T09:52:49.999Z</time></trkpt><trkpt lat="39.465935280330136" lon="15.982925544951236"><ele>46.0</ele><time>2026-03-22T09:52:50.999Z</time></trkpt><trkpt lat="39.46615299660907" lon="15.982789482044748"><ele>46.0</ele><time>2026-03-22T09:52:51.999Z</time></trkpt><trkpt lat="39.466364598548516" lon="15.982636024527304"><ele>40.5</ele><time>2026-03-22T09:52:52.999Z</time></trkpt><trkpt lat="39.46657659176021" lon="15.982483701774642"><ele>35.0</ele><time>2026-03-22T09:52:53.999Z</time></trkpt><trkpt lat="39.46678166647284" lon="15.982317264279699"><ele>35.0</ele><time>2026-03-22T09:52:54.999Z</time></trkpt><trkpt lat="39.46699539058873" lon="15.982173828551545"><ele>35.0</ele><time>2026-03-22T09:52:55.999Z</time></trkpt><trkpt lat="39.46721067179052" lon="15.982030262962313"><ele>49.0</ele><time>2026-03-22T09:52:56.999Z</time></trkpt><trkpt lat="39.46742546111747" lon="15.981888982703142"><ele>63.0</ele><time>2026-03-22T09:52:57.999Z</time></trkpt><trkpt lat="39.46764081469063" lon="15.981746605992308"><ele>67.5</ele><time>2026-03-22T09:52:58.999Z</time></trkpt><trkpt lat="39.46785760487096" lon="15.9816070700589"><ele>72.0</ele><time>2026-03-22T09:52:59.999Z</time></trkpt><trkpt lat="39.46807458267587" lon="15.98147026858015"><ele>72.0</ele><time>2026-03-22T09:53:00.999Z</time></trkpt><trkpt lat="39.46829378103222" lon="15.98133414308107"><ele>72.0</ele><time>2026-03-22T09:53:01.999Z</time></trkpt><trkpt lat="39.46851384341731" lon="15.981197292956555"><ele>72.0</ele><time>2026-03-22T09:53:02.999Z</time></trkpt><trkpt lat="39.46873385284769" lon="15.981060701073417"><ele>72.0</ele><time>2026-03-22T09:53:03.999Z</time></trkpt><trkpt lat="39.46895386476391" lon="15.980923247959623"><ele>74.0</ele><time>2026-03-22T09:53:04.999Z</time></trkpt><trkpt lat="39.469172173024354" lon="15.980785414467794"><ele>76.0</ele><time>2026-03-22T09:53:05.999Z</time></trkpt><trkpt lat="39.4693912885575" lon="15.980647416386027"><ele>86.5</ele><time>2026-03-22T09:53:06.999Z</time></trkpt><trkpt lat="39.46961007930031" lon="15.98050889713341"><ele>97.0</ele><time>2026-03-22T09:53:07.999Z</time></trkpt><trkpt lat="39.46983677411789" lon="15.980428114460793"><ele>97.0</ele><time>2026-03-22T09:53:08.999Z</time></trkpt><trkpt lat="39.47005045903667" lon="15.980285084109822"><ele>97.0</ele><time>2026-03-22T09:53:09.999Z</time></trkpt><trkpt lat="39.47026139374107" lon="15.980141254402954"><ele>85.0</ele><time>2026-03-22T09:53:10.999Z</time></trkpt><trkpt lat="39.47047295325281" lon="15.980005678810883"><ele>73.0</ele><time>2026-03-22T09:53:11.999Z</time></trkpt><trkpt lat="39.470684261330554" lon="15.979866757557172"><ele>73.0</ele><time>2026-03-22T09:53:12.999Z</time></trkpt><trkpt lat="39.47089379777918" lon="15.979731694554058"><ele>73.0</ele><time>2026-03-22T09:53:13.999Z</time></trkpt><trkpt lat="39.47110440001593" lon="15.979600811348504"><ele>57.0</ele><time>2026-03-22T09:53:14.999Z</time></trkpt><trkpt lat="39.471312182348925" lon="15.979465220126452"><ele>41.0</ele><time>2026-03-22T09:53:15.999Z</time></trkpt><trkpt lat="39.47154183120956" lon="15.979325350271353"><ele>37.0</ele><time>2026-03-22T09:53:16.999Z</time></trkpt><trkpt lat="39.47178662948261" lon="15.979181653117283"><ele>33.0</ele><time>2026-03-22T09:53:17.999Z</time></trkpt><trkpt lat="39.472006239086085" lon="15.979046739853503"><ele>37.5</ele><time>2026-03-22T09:53:18.999Z</time></trkpt><trkpt lat="39.472215673014375" lon="15.978886667609775"><ele>42.0</ele><time>2026-03-22T09:53:19.999Z</time></trkpt><trkpt lat="39.47241737345955" lon="15.978711598711678"><ele>42.0</ele><time>2026-03-22T09:53:20.999Z</time></trkpt><trkpt lat="39.47261195468278" lon="15.978508917555082"><ele>42.0</ele><time>2026-03-22T09:53:21.999Z</time></trkpt><trkpt lat="39.47278950238802" lon="15.978303043820553"><ele>52.0</ele><time>2026-03-22T09:53:22.999Z</time></trkpt><trkpt lat="39.472958091102335" lon="15.978083066841855"><ele>62.0</ele><time>2026-03-22T09:53:23.999Z</time></trkpt><trkpt lat="39.47310587964748" lon="15.977837065417997"><ele>62.0</ele><time>2026-03-22T09:53:24.999Z</time></trkpt><trkpt lat="39.47323072174492" lon="15.977581502598344"><ele>62.0</ele><time>2026-03-22T09:53:25.999Z</time></trkpt><trkpt lat="39.47334130957592" lon="15.977313912081913"><ele>58.5</ele><time>2026-03-22T09:53:26.999Z</time></trkpt><trkpt lat="39.473446498132105" lon="15.977037059614702"><ele>55.0</ele><time>2026-03-22T09:53:27.999Z</time></trkpt><trkpt lat="39.47354310085934" lon="15.976752551627587"><ele>67.5</ele><time>2026-03-22T09:53:28.999Z</time></trkpt><trkpt lat="39.4736260592306" lon="15.97646306374024"><ele>80.0</ele><time>2026-03-22T09:53:29.999Z</time></trkpt><trkpt lat="39.473692147864355" lon="15.976168169741511"><ele>80.0</ele><time>2026-03-22T09:53:30.999Z</time></trkpt><trkpt lat="39.473738949282065" lon="15.975869453270837"><ele>80.0</ele><time>2026-03-22T09:53:31.999Z</time></trkpt><trkpt lat="39.47376833385991" lon="15.975569173177059"><ele>91.0</ele><time>2026-03-22T09:53:32.999Z</time></trkpt><trkpt lat="39.47379167514511" lon="15.97526860696229"><ele>102.0</ele><time>2026-03-22T09:53:33.999Z</time></trkpt><trkpt lat="39.47375682260917" lon="15.974985442222348"><ele>102.0</ele><time>2026-03-22T09:53:34.999Z</time></trkpt><trkpt lat="39.47374330810931" lon="15.97468434989851"><ele>102.0</ele><time>2026-03-22T09:53:35.999Z</time></trkpt><trkpt lat="39.47374178562646" lon="15.974381314582315"><ele>110.5</ele><time>2026-03-22T09:53:36.999Z</time></trkpt><trkpt lat="39.47374276887715" lon="15.974078977659124"><ele>119.0</ele><time>2026-03-22T09:53:37.999Z</time></trkpt><trkpt lat="39.47373857322499" lon="15.973777513908217"><ele>119.0</ele><time>2026-03-22T09:53:38.999Z</time></trkpt><trkpt lat="39.47373393863717" lon="15.973476936341196"><ele>119.0</ele><time>2026-03-22T09:53:39.999Z</time></trkpt><trkpt lat="39.4737292038912" lon="15.973176252240025"><ele>123.0</ele><time>2026-03-22T09:53:40.999Z</time></trkpt><trkpt lat="39.473724855336314" lon="15.972880785069654"><ele>127.0</ele><time>2026-03-22T09:53:41.999Z</time></trkpt><trkpt lat="39.473725790619866" lon="15.972584359337962"><ele>125.5</ele><time>2026-03-22T09:53:43Z</time></trkpt><trkpt lat="39.47372219442069" lon="15.972291666427461"><ele>124.0</ele><time>2026-03-22T09:53:44Z</time></trkpt><trkpt lat="39.47372266715531" lon="15.972001669437738"><ele>124.0</ele><time>2026-03-22T09:53:45Z</time></trkpt><trkpt lat="39.473726489359166" lon="15.971718501109365"><ele>124.0</ele><time>2026-03-22T09:53:46Z</time></trkpt><trkpt lat="39.47372741462386" lon="15.97143099589307"><ele>124.0</ele><time>2026-03-22T09:53:47Z</time></trkpt><trkpt lat="39.473728443043726" lon="15.97114647909646"><ele>121.33333333333334</ele><time>2026-03-22T09:53:48Z</time></trkpt><trkpt lat="39.47373155500043" lon="15.970863393483368"><ele>118.66666666666666</ele><time>2026-03-22T09:53:49Z</time></trkpt><trkpt lat="39.473734360965146" lon="15.970583673789935"><ele>116.0</ele><time>2026-03-22T09:53:50Z</time></trkpt><trkpt lat="39.473742116892126" lon="15.970307192487091"><ele>112.0</ele><time>2026-03-22T09:53:51Z</time></trkpt><trkpt lat="39.47374683774336" lon="15.970031599806543"><ele>108.0</ele><time>2026-03-22T09:53:52Z</time></trkpt><trkpt lat="39.47374367571835" lon="15.969763961723546"><ele>104.0</ele><time>2026-03-22T09:53:53Z</time></trkpt><trkpt lat="39.473742512143964" lon="15.969501075582029"><ele>100.33333333333333</ele><time>2026-03-22T09:53:54Z</time></trkpt><trkpt lat="39.47374398037685" lon="15.969228991359417"><ele>96.66666666666666</ele><time>2026-03-22T09:53:55Z</time></trkpt><trkpt lat="39.47374454412748" lon="15.968956815016602"><ele>93.0</ele><time>2026-03-22T09:53:56Z</time></trkpt><trkpt lat="39.473758092239606" lon="15.968621400310004"><ele>97.0</ele><time>2026-03-22T09:53:57Z</time></trkpt><trkpt lat="39.47379269961487" lon="15.968245761593337"><ele>101.0</ele><time>2026-03-22T09:53:58Z</time></trkpt><trkpt lat="39.473845760840355" lon="15.967902420996078"><ele>94.0</ele><time>2026-03-22T09:53:59Z</time></trkpt><trkpt lat="39.47388714371898" lon="15.967511188067588"><ele>87.0</ele><time>2026-03-22T09:54:00Z</time></trkpt><trkpt lat="39.47396626166695" lon="15.967134259710177"><ele>87.0</ele><time>2026-03-22T09:54:01Z</time></trkpt><trkpt lat="39.474054676733545" lon="15.966810338222496"><ele>87.0</ele><time>2026-03-22T09:54:02Z</time></trkpt><trkpt lat="39.4741620399293" lon="15.966507693189232"><ele>73.0</ele><time>2026-03-22T09:54:03Z</time></trkpt><trkpt lat="39.474295776354865" lon="15.9662044599793"><ele>59.0</ele><time>2026-03-22T09:54:04Z</time></trkpt><trkpt lat="39.4744382620158" lon="15.965744128167408"><ele>63.5</ele><time>2026-03-22T09:54:05Z</time></trkpt><trkpt lat="39.474588250157765" lon="15.965472502368302"><ele>68.0</ele><time>2026-03-22T09:54:06Z</time></trkpt><trkpt lat="39.47473314892508" lon="15.965235410532545"><ele>56.5</ele><time>2026-03-22T09:54:07Z</time></trkpt><trkpt lat="39.47487646714441" lon="15.964989238038003"><ele>45.0</ele><time>2026-03-22T09:54:08Z</time></trkpt><trkpt lat="39.47501599439684" lon="15.964729770139348"><ele>45.0</ele><time>2026-03-22T09:54:09Z</time></trkpt><trkpt lat="39.475143644142726" lon="15.964446760638326"><ele>45.0</ele><time>2026-03-22T09:54:10Z</time></trkpt><trkpt lat="39.475286216085266" lon="15.964190989358668"><ele>39.0</ele><time>2026-03-22T09:54:11Z</time></trkpt><trkpt lat="39.47543497825229" lon="15.963940281311201"><ele>33.0</ele><time>2026-03-22T09:54:12Z</time></trkpt><trkpt lat="39.47559108107585" lon="15.963713460142218"><ele>40.66666666666667</ele><time>2026-03-22T09:54:13Z</time></trkpt><trkpt lat="39.47574247870065" lon="15.963516444723329"><ele>48.333333333333336</ele><time>2026-03-22T09:54:14Z</time></trkpt><trkpt lat="39.475891941101246" lon="15.963338149474113"><ele>56.0</ele><time>2026-03-22T09:54:15Z</time></trkpt><trkpt lat="39.47604069583178" lon="15.963178124406369"><ele>56.0</ele><time>2026-03-22T09:54:16Z</time></trkpt><trkpt lat="39.47618773569704" lon="15.963034685196282"><ele>56.0</ele><time>2026-03-22T09:54:17Z</time></trkpt><trkpt lat="39.476336585644376" lon="15.962902021180263"><ele>56.0</ele><time>2026-03-22T09:54:18Z</time></trkpt><trkpt lat="39.476494073183325" lon="15.962792389070275"><ele>56.66666666666667</ele><time>2026-03-22T09:54:19Z</time></trkpt><trkpt lat="39.476658903591954" lon="15.962700076040518"><ele>57.33333333333333</ele><time>2026-03-22T09:54:20Z</time></trkpt><trkpt lat="39.47682550245386" lon="15.962601304826713"><ele>58.0</ele><time>2026-03-22T09:54:21Z</time></trkpt><trkpt lat="39.47698972180845" lon="15.96251652403"><ele>51.0</ele><time>2026-03-22T09:54:22Z</time></trkpt><trkpt lat="39.477154941756" lon="15.962435493472235"><ele>44.0</ele><time>2026-03-22T09:54:23Z</time></trkpt><trkpt lat="39.4773126554164" lon="15.96235855262061"><ele>37.0</ele><time>2026-03-22T09:54:24Z</time></trkpt><trkpt lat="39.47746209336169" lon="15.962284601621072"><ele>37.0</ele><time>2026-03-22T09:54:25Z</time></trkpt><trkpt lat="39.47760635949865" lon="15.96221711050445"><ele>37.0</ele><time>2026-03-22T09:54:26Z</time></trkpt><trkpt lat="39.47774027792458" lon="15.962151140663265"><ele>37.0</ele><time>2026-03-22T09:54:27Z</time></trkpt><trkpt lat="39.47786771577743" lon="15.96208881059059"><ele>37.0</ele><time>2026-03-22T09:54:28Z</time></trkpt><trkpt lat="39.477986494088995" lon="15.962028820811522"><ele>39.0</ele><time>2026-03-22T09:54:29Z</time></trkpt><trkpt lat="39.47809090133821" lon="15.961973654318786"><ele>41.0</ele><time>2026-03-22T09:54:30Z</time></trkpt><trkpt lat="39.478182531657424" lon="15.961927403242756"><ele>43.0</ele><time>2026-03-22T09:54:31Z</time></trkpt><trkpt lat="39.4782468043497" lon="15.961896911247806"><ele>45.0</ele><time>2026-03-22T09:54:32Z</time></trkpt><trkpt lat="39.47831663872833" lon="15.96186268967197"><ele>46.99999999999999</ele><time>2026-03-22T09:54:34Z</time></trkpt><trkpt lat="39.47836650650804" lon="15.96179839082101"><ele>49.0</ele><time>2026-03-22T09:55:38.999Z</time></trkpt><trkpt lat="39.47849088847072" lon="15.961731005077898"><ele>49.0</ele><time>2026-03-22T09:55:40.999Z</time></trkpt><trkpt lat="39.47857642510012" lon="15.961710683638731"><ele>49.0</ele><time>2026-03-22T09:55:41.999Z</time></trkpt><trkpt lat="39.47866679984878" lon="15.96166515542942"><ele>49.0</ele><time>2026-03-22T09:55:42.999Z</time></trkpt><trkpt lat="39.4787608995438" lon="15.961617929594777"><ele>49.0</ele><time>2026-03-22T09:55:43.999Z</time></trkpt><trkpt lat="39.47885871183314" lon="15.961547386309437"><ele>49.0</ele><time>2026-03-22T09:55:44.999Z</time></trkpt><trkpt lat="39.47896976237922" lon="15.961494481851908"><ele>47.6</ele><time>2026-03-22T09:55:45.999Z</time></trkpt><trkpt lat="39.479082612979035" lon="15.961440797748955"><ele>46.2</ele><time>2026-03-22T09:55:46.999Z</time></trkpt><trkpt lat="39.479190924225996" lon="15.961388403368025"><ele>44.800000000000004</ele><time>2026-03-22T09:55:48Z</time></trkpt><trkpt lat="39.47929036790121" lon="15.961339319495886"><ele>43.400000000000006</ele><time>2026-03-22T09:55:49Z</time></trkpt><trkpt lat="39.47938339846329" lon="15.96129298062992"><ele>42.0</ele><time>2026-03-22T09:55:50Z</time></trkpt><trkpt lat="39.47947515120548" lon="15.961248657087255"><ele>42.0</ele><time>2026-03-22T09:55:51Z</time></trkpt><trkpt lat="39.47956560416225" lon="15.96120293605189"><ele>42.0</ele><time>2026-03-22T09:55:52Z</time></trkpt><trkpt lat="39.47966020609539" lon="15.961154589790885"><ele>42.0</ele><time>2026-03-22T09:55:53Z</time></trkpt><trkpt lat="39.47976020340765" lon="15.961100793238707"><ele>42.0</ele><time>2026-03-22T09:55:54Z</time></trkpt><trkpt lat="39.47986872156727" lon="15.961038273235884"><ele>42.0</ele><time>2026-03-22T09:55:55Z</time></trkpt><trkpt lat="39.47998247489966" lon="15.960967886997176"><ele>42.25</ele><time>2026-03-22T09:55:56Z</time></trkpt><trkpt lat="39.48010320459389" lon="15.960890654343123"><ele>42.5</ele><time>2026-03-22T09:55:57Z</time></trkpt><trkpt lat="39.48022554171033" lon="15.960810414190165"><ele>42.75</ele><time>2026-03-22T09:55:58Z</time></trkpt><trkpt lat="39.480353606414305" lon="15.960725535890973"><ele>43.0</ele><time>2026-03-22T09:55:59Z</time></trkpt><trkpt lat="39.480485126176596" lon="15.960636578137256"><ele>43.0</ele><time>2026-03-22T09:56:00Z</time></trkpt><trkpt lat="39.480619484115174" lon="15.96054325939382"><ele>43.0</ele><time>2026-03-22T09:56:01Z</time></trkpt><trkpt lat="39.48076122498513" lon="15.960444572193984"><ele>43.0</ele><time>2026-03-22T09:56:02Z</time></trkpt><trkpt lat="39.48090786158763" lon="15.960342344990103"><ele>43.0</ele><time>2026-03-22T09:56:03Z</time></trkpt><trkpt lat="39.481056162809736" lon="15.960239869241969"><ele>43.0</ele><time>2026-03-22T09:56:04Z</time></trkpt><trkpt lat="39.48120050427849" lon="15.96014135465671"><ele>43.0</ele><time>2026-03-22T09:56:05Z</time></trkpt><trkpt lat="39.481340627509255" lon="15.960043471397414"><ele>38.0</ele><time>2026-03-22T09:56:06Z</time></trkpt><trkpt lat="39.48147933194262" lon="15.959946577608548"><ele>33.0</ele><time>2026-03-22T09:56:07Z</time></trkpt><trkpt lat="39.48161860270203" lon="15.959849524421449"><ele>28.0</ele><time>2026-03-22T09:56:08Z</time></trkpt><trkpt lat="39.48175881774353" lon="15.959752504225387"><ele>28.0</ele><time>2026-03-22T09:56:09Z</time></trkpt><trkpt lat="39.48190572122789" lon="15.959653203323331"><ele>28.0</ele><time>2026-03-22T09:56:10Z</time></trkpt><trkpt lat="39.48205130299375" lon="15.959552250296365"><ele>28.0</ele><time>2026-03-22T09:56:11Z</time></trkpt><trkpt lat="39.48220094323115" lon="15.959446531217992"><ele>28.666666666666668</ele><time>2026-03-22T09:56:12Z</time></trkpt><trkpt lat="39.48235640824032" lon="15.959337359393778"><ele>29.333333333333336</ele><time>2026-03-22T09:56:13Z</time></trkpt><trkpt lat="39.48251562922836" lon="15.959227023326473"><ele>30.0</ele><time>2026-03-22T09:56:14Z</time></trkpt><trkpt lat="39.48268121636" lon="15.959114761048875"><ele>26.0</ele><time>2026-03-22T09:56:15Z</time></trkpt><trkpt lat="39.482850035473945" lon="15.959000019714875"><ele>22.0</ele><time>2026-03-22T09:56:16Z</time></trkpt><trkpt lat="39.483022710732136" lon="15.958880973861636"><ele>18.0</ele><time>2026-03-22T09:56:17Z</time></trkpt><trkpt lat="39.48319800107655" lon="15.958757593542993"><ele>18.0</ele><time>2026-03-22T09:56:18Z</time></trkpt><trkpt lat="39.483378724388785" lon="15.958634048993664"><ele>18.0</ele><time>2026-03-22T09:56:19Z</time></trkpt><trkpt lat="39.483557329315474" lon="15.958511450378278"><ele>18.0</ele><time>2026-03-22T09:56:20Z</time></trkpt><trkpt lat="39.483740038487795" lon="15.958384731284124"><ele>16.0</ele><time>2026-03-22T09:56:21Z</time></trkpt><trkpt lat="39.48392258197278" lon="15.958257378163324"><ele>14.0</ele><time>2026-03-22T09:56:22Z</time></trkpt><trkpt lat="39.48410637820346" lon="15.95812982372783"><ele>12.0</ele><time>2026-03-22T09:56:23Z</time></trkpt><trkpt lat="39.48429258790112" lon="15.958007940575447"><ele>12.0</ele><time>2026-03-22T09:56:24Z</time></trkpt><trkpt lat="39.48448137710316" lon="15.95789329871242"><ele>12.0</ele><time>2026-03-22T09:56:25Z</time></trkpt><trkpt lat="39.48467410365674" lon="15.957788002020012"><ele>12.0</ele><time>2026-03-22T09:56:26Z</time></trkpt><trkpt lat="39.48486736200904" lon="15.957689854927583"><ele>11.333333333333334</ele><time>2026-03-22T09:56:27Z</time></trkpt><trkpt lat="39.48506216764084" lon="15.957591107557223"><ele>10.666666666666668</ele><time>2026-03-22T09:56:28Z</time></trkpt><trkpt lat="39.48525619364882" lon="15.957491169660363"><ele>10.0</ele><time>2026-03-22T09:56:29Z</time></trkpt><trkpt lat="39.48545109416618" lon="15.957389976896511"><ele>13.666666666666668</ele><time>2026-03-22T09:56:30Z</time></trkpt><trkpt lat="39.48564895290283" lon="15.95728552254943"><ele>17.333333333333332</ele><time>2026-03-22T09:56:31Z</time></trkpt><trkpt lat="39.48583946910804" lon="15.957176588642424"><ele>21.0</ele><time>2026-03-22T09:56:32Z</time></trkpt><trkpt lat="39.48602597564534" lon="15.957056893759837"><ele>21.0</ele><time>2026-03-22T09:56:33Z</time></trkpt><trkpt lat="39.48620375137374" lon="15.956926361623529"><ele>21.0</ele><time>2026-03-22T09:56:34Z</time></trkpt><trkpt lat="39.486375545001344" lon="15.956784627355828"><ele>21.0</ele><time>2026-03-22T09:56:35Z</time></trkpt><trkpt lat="39.48654233245704" lon="15.95663683223443"><ele>23.0</ele><time>2026-03-22T09:56:36Z</time></trkpt><trkpt lat="39.48670331850618" lon="15.956484337261642"><ele>25.0</ele><time>2026-03-22T09:56:37Z</time></trkpt><trkpt lat="39.48685790010269" lon="15.956326909351716"><ele>27.0</ele><time>2026-03-22T09:56:38Z</time></trkpt><trkpt lat="39.48700773939766" lon="15.95615568115788"><ele>28.333333333333336</ele><time>2026-03-22T09:56:38.999Z</time></trkpt><trkpt lat="39.48715347569464" lon="15.955980614148872"><ele>29.666666666666668</ele><time>2026-03-22T09:56:39.999Z</time></trkpt><trkpt lat="39.48729804079921" lon="15.9558092442423"><ele>31.0</ele><time>2026-03-22T09:56:40.999Z</time></trkpt><trkpt lat="39.48745093733551" lon="15.955648717489494"><ele>31.0</ele><time>2026-03-22T09:56:41.999Z</time></trkpt><trkpt lat="39.487605509895644" lon="15.955476837557784"><ele>31.0</ele><time>2026-03-22T09:56:42.999Z</time></trkpt><trkpt lat="39.487765730490054" lon="15.955332656127464"><ele>31.0</ele><time>2026-03-22T09:56:43.999Z</time></trkpt><trkpt lat="39.48793276771267" lon="15.955204459374794"><ele>29.0</ele><time>2026-03-22T09:56:44.999Z</time></trkpt><trkpt lat="39.488107450923664" lon="15.955099282251942"><ele>27.0</ele><time>2026-03-22T09:56:45.999Z</time></trkpt><trkpt lat="39.4882932889328" lon="15.955015814089231"><ele>25.0</ele><time>2026-03-22T09:56:46.999Z</time></trkpt><trkpt lat="39.48848668624586" lon="15.954939235034855"><ele>25.0</ele><time>2026-03-22T09:56:47.999Z</time></trkpt><trkpt lat="39.48868579891835" lon="15.95486881265357"><ele>25.0</ele><time>2026-03-22T09:56:48.999Z</time></trkpt><trkpt lat="39.48888748003503" lon="15.954796863560212"><ele>25.0</ele><time>2026-03-22T09:56:49.999Z</time></trkpt><trkpt lat="39.48909110912923" lon="15.954722889863639"><ele>30.333333333333336</ele><time>2026-03-22T09:56:50.999Z</time></trkpt><trkpt lat="39.48929380642169" lon="15.954647279560758"><ele>35.666666666666664</ele><time>2026-03-22T09:56:51.999Z</time></trkpt><trkpt lat="39.48949601509392" lon="15.954567336429852"><ele>41.0</ele><time>2026-03-22T09:56:52.999Z</time></trkpt><trkpt lat="39.489699354484756" lon="15.954483307931964"><ele>47.0</ele><time>2026-03-22T09:56:53.999Z</time></trkpt><trkpt lat="39.48990250197653" lon="15.95439526369579"><ele>53.0</ele><time>2026-03-22T09:56:54.999Z</time></trkpt><trkpt lat="39.490103671625334" lon="15.954308904319918"><ele>59.0</ele><time>2026-03-22T09:56:55.999Z</time></trkpt><trkpt lat="39.490306169526136" lon="15.95422220141719"><ele>50.0</ele><time>2026-03-22T09:56:56.999Z</time></trkpt><trkpt lat="39.490508179299226" lon="15.954139332105221"><ele>41.0</ele><time>2026-03-22T09:56:57.999Z</time></trkpt><trkpt lat="39.49070609758016" lon="15.954057688611432"><ele>32.0</ele><time>2026-03-22T09:56:58.999Z</time></trkpt><trkpt lat="39.49090501599869" lon="15.953976743529"><ele>32.0</ele><time>2026-03-22T09:56:59.999Z</time></trkpt><trkpt lat="39.491103281577445" lon="15.95389297011682"><ele>32.0</ele><time>2026-03-22T09:57:00.999Z</time></trkpt><trkpt lat="39.49130269076181" lon="15.95380790257588"><ele>32.0</ele><time>2026-03-22T09:57:01.999Z</time></trkpt><trkpt lat="39.49150379976725" lon="15.953720934144576"><ele>35.666666666666664</ele><time>2026-03-22T09:57:02.999Z</time></trkpt><trkpt lat="39.491704476342626" lon="15.953628826230947"><ele>39.333333333333336</ele><time>2026-03-22T09:57:03.999Z</time></trkpt><trkpt lat="39.49190330219949" lon="15.953530516680924"><ele>43.0</ele><time>2026-03-22T09:57:04.999Z</time></trkpt><trkpt lat="39.492100040695384" lon="15.953424211165615"><ele>38.0</ele><time>2026-03-22T09:57:05.999Z</time></trkpt><trkpt lat="39.49229421737161" lon="15.953313450705712"><ele>33.0</ele><time>2026-03-22T09:57:06.999Z</time></trkpt><trkpt lat="39.49249036826248" lon="15.9532051151797"><ele>28.0</ele><time>2026-03-22T09:57:07.999Z</time></trkpt><trkpt lat="39.492687766200255" lon="15.953105972762208"><ele>28.0</ele><time>2026-03-22T09:57:08.999Z</time></trkpt><trkpt lat="39.49288721352291" lon="15.953013019475607"><ele>28.0</ele><time>2026-03-22T09:57:09.999Z</time></trkpt><trkpt lat="39.493087797351826" lon="15.952926451690269"><ele>28.0</ele><time>2026-03-22T09:57:10.999Z</time></trkpt><trkpt lat="39.493289492119224" lon="15.952843402312787"><ele>34.0</ele><time>2026-03-22T09:57:11.999Z</time></trkpt><trkpt lat="39.49349065805197" lon="15.952758817867275"><ele>40.0</ele><time>2026-03-22T09:57:12.999Z</time></trkpt><trkpt lat="39.493692689135464" lon="15.952670631947164"><ele>46.0</ele><time>2026-03-22T09:57:13.999Z</time></trkpt><trkpt lat="39.49389322580538" lon="15.95258111197738"><ele>38.333333333333336</ele><time>2026-03-22T09:57:14.999Z</time></trkpt><trkpt lat="39.494093224932506" lon="15.95249092736184"><ele>30.666666666666668</ele><time>2026-03-22T09:57:15.999Z</time></trkpt><trkpt lat="39.49429621458139" lon="15.952401999383088"><ele>23.0</ele><time>2026-03-22T09:57:16.999Z</time></trkpt><trkpt lat="39.49450175399684" lon="15.952312384077668"><ele>28.0</ele><time>2026-03-22T09:57:17.999Z</time></trkpt><trkpt lat="39.49470758580688" lon="15.952223263152723"><ele>33.0</ele><time>2026-03-22T09:57:18.999Z</time></trkpt><trkpt lat="39.49491298290925" lon="15.952135166936706"><ele>38.0</ele><time>2026-03-22T09:57:19.999Z</time></trkpt><trkpt lat="39.49511814057118" lon="15.95204456703"><ele>38.0</ele><time>2026-03-22T09:57:20.999Z</time></trkpt><trkpt lat="39.49532202733215" lon="15.9519514460262"><ele>38.0</ele><time>2026-03-22T09:57:21.999Z</time></trkpt><trkpt lat="39.49552735537534" lon="15.95185471180134"><ele>38.0</ele><time>2026-03-22T09:57:22.999Z</time></trkpt><trkpt lat="39.49573138705433" lon="15.95174975448791"><ele>31.0</ele><time>2026-03-22T09:57:23.999Z</time></trkpt><trkpt lat="39.49593294732342" lon="15.95163398083854"><ele>24.0</ele><time>2026-03-22T09:57:24.999Z</time></trkpt><trkpt lat="39.49613207045025" lon="15.951511729587788"><ele>17.0</ele><time>2026-03-22T09:57:25.999Z</time></trkpt><trkpt lat="39.49633060094795" lon="15.95138832501161"><ele>17.0</ele><time>2026-03-22T09:57:26.999Z</time></trkpt><trkpt lat="39.496527646667495" lon="15.951266449262137"><ele>17.0</ele><time>2026-03-22T09:57:27.999Z</time></trkpt><trkpt lat="39.49672336223139" lon="15.951147347334572"><ele>17.0</ele><time>2026-03-22T09:57:28.999Z</time></trkpt><trkpt lat="39.49691642411503" lon="15.951026287578975"><ele>17.333333333333336</ele><time>2026-03-22T09:57:29.999Z</time></trkpt><trkpt lat="39.497109087103524" lon="15.950906326582102"><ele>17.666666666666668</ele><time>2026-03-22T09:57:30.999Z</time></trkpt><trkpt lat="39.49730213725618" lon="15.950787066282354"><ele>18.0</ele><time>2026-03-22T09:57:31.999Z</time></trkpt><trkpt lat="39.49749625297771" lon="15.950668117920246"><ele>17.333333333333332</ele><time>2026-03-22T09:57:32.999Z</time></trkpt><trkpt lat="39.49768902484135" lon="15.950548237778346"><ele>16.666666666666664</ele><time>2026-03-22T09:57:33.999Z</time></trkpt><trkpt lat="39.49788277050363" lon="15.950428002687143"><ele>16.0</ele><time>2026-03-22T09:57:34.999Z</time></trkpt><trkpt lat="39.498078678539414" lon="15.95030598548457"><ele>16.0</ele><time>2026-03-22T09:57:35.999Z</time></trkpt><trkpt lat="39.49827856996394" lon="15.950181759551276"><ele>16.0</ele><time>2026-03-22T09:57:36.999Z</time></trkpt><trkpt lat="39.498479222496904" lon="15.950058422999142"><ele>16.0</ele><time>2026-03-22T09:57:37.999Z</time></trkpt><trkpt lat="39.49868010813216" lon="15.949935281780053"><ele>14.333333333333332</ele><time>2026-03-22T09:57:38.999Z</time></trkpt><trkpt lat="39.49887944794641" lon="15.949812628197472"><ele>12.666666666666666</ele><time>2026-03-22T09:57:39.999Z</time></trkpt><trkpt lat="39.49907932213498" lon="15.949689412547107"><ele>11.0</ele><time>2026-03-22T09:57:40.999Z</time></trkpt><trkpt lat="39.49927988783781" lon="15.94956484964253"><ele>11.0</ele><time>2026-03-22T09:57:41.999Z</time></trkpt><trkpt lat="39.4994784719993" lon="15.94943976023081"><ele>11.0</ele><time>2026-03-22T09:57:42.999Z</time></trkpt><trkpt lat="39.499677798523884" lon="15.949314592458832"><ele>11.0</ele><time>2026-03-22T09:57:43.999Z</time></trkpt><trkpt lat="39.49987716946305" lon="15.94918763842479"><ele>11.666666666666666</ele><time>2026-03-22T09:57:44.999Z</time></trkpt><trkpt lat="39.50007653218057" lon="15.949062196992132"><ele>12.333333333333332</ele><time>2026-03-22T09:57:45.999Z</time></trkpt><trkpt lat="39.50027777604294" lon="15.948936236370553"><ele>13.0</ele><time>2026-03-22T09:57:46.999Z</time></trkpt><trkpt lat="39.500480130951615" lon="15.948811552141251"><ele>16.666666666666664</ele><time>2026-03-22T09:57:47.999Z</time></trkpt><trkpt lat="39.500683041948534" lon="15.948688116936879"><ele>20.333333333333332</ele><time>2026-03-22T09:57:48.999Z</time></trkpt><trkpt lat="39.50088417867747" lon="15.94856353731929"><ele>24.0</ele><time>2026-03-22T09:57:49.999Z</time></trkpt><trkpt lat="39.501084368942074" lon="15.948437703398188"><ele>21.333333333333332</ele><time>2026-03-22T09:57:50.999Z</time></trkpt><trkpt lat="39.5012800747189" lon="15.948312605902911"><ele>18.666666666666664</ele><time>2026-03-22T09:57:51.999Z</time></trkpt><trkpt lat="39.50147223522494" lon="15.94819142130668"><ele>16.0</ele><time>2026-03-22T09:57:52.998Z</time></trkpt><trkpt lat="39.50166118527043" lon="15.948071211341137"><ele>16.0</ele><time>2026-03-22T09:57:54Z</time></trkpt><trkpt lat="39.501837721727355" lon="15.947957882974961"><ele>16.0</ele><time>2026-03-22T09:57:55Z</time></trkpt><trkpt lat="39.50200632475993" lon="15.94785258187286"><ele>16.0</ele><time>2026-03-22T09:57:56Z</time></trkpt><trkpt lat="39.502176210922286" lon="15.947746580454298"><ele>15.0</ele><time>2026-03-22T09:57:57Z</time></trkpt><trkpt lat="39.50234623120835" lon="15.947640233234658"><ele>14.0</ele><time>2026-03-22T09:57:58Z</time></trkpt><trkpt lat="39.5025200822957" lon="15.947532092333429"><ele>13.0</ele><time>2026-03-22T09:57:59Z</time></trkpt><trkpt lat="39.502692398647355" lon="15.947419985338898"><ele>13.0</ele><time>2026-03-22T09:58:00Z</time></trkpt><trkpt lat="39.50286448319067" lon="15.947304792275755"><ele>13.0</ele><time>2026-03-22T09:58:01Z</time></trkpt><trkpt lat="39.50303687725843" lon="15.947186822343754"><ele>13.0</ele><time>2026-03-22T09:58:02Z</time></trkpt><trkpt lat="39.503211018591166" lon="15.94706643605865"><ele>13.0</ele><time>2026-03-22T09:58:03Z</time></trkpt><trkpt lat="39.50338876875094" lon="15.946945931686356"><ele>13.0</ele><time>2026-03-22T09:58:04Z</time></trkpt><trkpt lat="39.50356814252977" lon="15.946822716365062"><ele>13.0</ele><time>2026-03-22T09:58:05Z</time></trkpt><trkpt lat="39.50375005875131" lon="15.9466994228567"><ele>13.0</ele><time>2026-03-22T09:58:06Z</time></trkpt><trkpt lat="39.50393279219337" lon="15.946575401395743"><ele>13.0</ele><time>2026-03-22T09:58:07Z</time></trkpt><trkpt lat="39.5041154307046" lon="15.946449632967013"><ele>13.0</ele><time>2026-03-22T09:58:08Z</time></trkpt><trkpt lat="39.504298902521015" lon="15.946322268035061"><ele>13.0</ele><time>2026-03-22T09:58:09Z</time></trkpt><trkpt lat="39.504483323077785" lon="15.9461954285043"><ele>13.0</ele><time>2026-03-22T09:58:10Z</time></trkpt><trkpt lat="39.50466844135104" lon="15.946070563969554"><ele>13.0</ele><time>2026-03-22T09:58:11Z</time></trkpt><trkpt lat="39.50485487823624" lon="15.945946685517477"><ele>11.666666666666666</ele><time>2026-03-22T09:58:12Z</time></trkpt><trkpt lat="39.50504173844324" lon="15.945824119361253"><ele>10.333333333333332</ele><time>2026-03-22T09:58:13Z</time></trkpt><trkpt lat="39.50522733810246" lon="15.945710507549318"><ele>9.0</ele><time>2026-03-22T09:58:14Z</time></trkpt><trkpt lat="39.50540796826723" lon="15.94561284387258"><ele>9.333333333333334</ele><time>2026-03-22T09:58:15Z</time></trkpt><trkpt lat="39.50558934742063" lon="15.945529171870938"><ele>9.666666666666668</ele><time>2026-03-22T09:58:16Z</time></trkpt><trkpt lat="39.50576925824701" lon="15.945454967257325"><ele>10.0</ele><time>2026-03-22T09:58:17Z</time></trkpt><trkpt lat="39.50594528543681" lon="15.945391169999507"><ele>10.0</ele><time>2026-03-22T09:58:18Z</time></trkpt><trkpt lat="39.50612217919684" lon="15.945337078598456"><ele>10.0</ele><time>2026-03-22T09:58:19Z</time></trkpt><trkpt lat="39.50630117725854" lon="15.94529348893055"><ele>10.0</ele><time>2026-03-22T09:58:20Z</time></trkpt><trkpt lat="39.50645899455685" lon="15.945257175775316"><ele>11.0</ele><time>2026-03-22T09:58:21Z</time></trkpt><trkpt lat="39.506584603411085" lon="15.945233727393378"><ele>12.0</ele><time>2026-03-22T09:58:22Z</time></trkpt><trkpt lat="39.50671696302435" lon="15.945210857691288"><ele>13.0</ele><time>2026-03-22T09:58:23Z</time></trkpt><trkpt lat="39.50684535735114" lon="15.945198825049387"><ele>14.0</ele><time>2026-03-22T09:58:24Z</time></trkpt><trkpt lat="39.50697138609339" lon="15.945192189183562"><ele>14.5</ele><time>2026-03-22T09:58:25Z</time></trkpt><trkpt lat="39.50709214487977" lon="15.9451819297602"><ele>15.0</ele><time>2026-03-22T09:58:26Z</time></trkpt><trkpt lat="39.50722862943798" lon="15.94516572526014"><ele>15.5</ele><time>2026-03-22T09:58:27Z</time></trkpt><trkpt lat="39.507379604417224" lon="15.94514505091266"><ele>16.0</ele><time>2026-03-22T09:58:28Z</time></trkpt><trkpt lat="39.50753792680998" lon="15.945123151854785"><ele>16.0</ele><time>2026-03-22T09:58:29Z</time></trkpt><trkpt lat="39.507701228788875" lon="15.945099504822178"><ele>16.0</ele><time>2026-03-22T09:58:30Z</time></trkpt><trkpt lat="39.50787204827688" lon="15.945077243513314"><ele>16.0</ele><time>2026-03-22T09:58:31Z</time></trkpt><trkpt lat="39.50804210600848" lon="15.945055726852589"><ele>14.333333333333332</ele><time>2026-03-22T09:58:32Z</time></trkpt><trkpt lat="39.50822005911981" lon="15.945035081289474"><ele>12.666666666666666</ele><time>2026-03-22T09:58:33Z</time></trkpt><trkpt lat="39.50840082758352" lon="15.945013768108046"><ele>11.0</ele><time>2026-03-22T09:58:34Z</time></trkpt><trkpt lat="39.50858261848005" lon="15.944991419271668"><ele>11.666666666666666</ele><time>2026-03-22T09:58:35Z</time></trkpt><trkpt lat="39.508763739578164" lon="15.944968705645667"><ele>12.333333333333332</ele><time>2026-03-22T09:58:36Z</time></trkpt><trkpt lat="39.508943125781904" lon="15.94494527382549"><ele>13.0</ele><time>2026-03-22T09:58:37Z</time></trkpt><trkpt lat="39.50912382237492" lon="15.94492466594491"><ele>13.0</ele><time>2026-03-22T09:58:38Z</time></trkpt><trkpt lat="39.509303943080994" lon="15.944901601125668"><ele>13.0</ele><time>2026-03-22T09:58:39Z</time></trkpt><trkpt lat="39.50948650393388" lon="15.944872005829872"><ele>13.0</ele><time>2026-03-22T09:58:40Z</time></trkpt><trkpt lat="39.50967395345101" lon="15.94483411064644"><ele>17.0</ele><time>2026-03-22T09:58:40.999Z</time></trkpt><trkpt lat="39.50986020012125" lon="15.944783908832665"><ele>21.0</ele><time>2026-03-22T09:58:41.999Z</time></trkpt><trkpt lat="39.51004248060462" lon="15.944719552510545"><ele>25.0</ele><time>2026-03-22T09:58:42.999Z</time></trkpt><trkpt lat="39.51022388920547" lon="15.944641838819775"><ele>25.0</ele><time>2026-03-22T09:58:43.999Z</time></trkpt><trkpt lat="39.5104032039572" lon="15.944550051064374"><ele>25.0</ele><time>2026-03-22T09:58:44.999Z</time></trkpt><trkpt lat="39.51058047224501" lon="15.944442448293943"><ele>25.0</ele><time>2026-03-22T09:58:45.999Z</time></trkpt><trkpt lat="39.510753221947496" lon="15.944321891409468"><ele>20.333333333333336</ele><time>2026-03-22T09:58:46.999Z</time></trkpt><trkpt lat="39.51092112489577" lon="15.944187263752228"><ele>15.666666666666668</ele><time>2026-03-22T09:58:47.999Z</time></trkpt><trkpt lat="39.51108082799113" lon="15.94403496642723"><ele>11.0</ele><time>2026-03-22T09:58:48.999Z</time></trkpt><trkpt lat="39.51123545942596" lon="15.943871041605174"><ele>11.666666666666666</ele><time>2026-03-22T09:58:49.999Z</time></trkpt><trkpt lat="39.511382974981295" lon="15.943690415328874"><ele>12.333333333333332</ele><time>2026-03-22T09:58:50.999Z</time></trkpt><trkpt lat="39.51153134764918" lon="15.943508838996507"><ele>13.0</ele><time>2026-03-22T09:58:51.999Z</time></trkpt><trkpt lat="39.511680526109245" lon="15.943323666056333"><ele>13.0</ele><time>2026-03-22T09:58:52.999Z</time></trkpt><trkpt lat="39.51182853785842" lon="15.943140858369258"><ele>13.0</ele><time>2026-03-22T09:58:53.999Z</time></trkpt><trkpt lat="39.51197739186877" lon="15.942956760662463"><ele>13.0</ele><time>2026-03-22T09:58:54.999Z</time></trkpt><trkpt lat="39.512126460261385" lon="15.942773082551781"><ele>12.333333333333332</ele><time>2026-03-22T09:58:55.999Z</time></trkpt><trkpt lat="39.512273790871056" lon="15.942589876649572"><ele>11.666666666666666</ele><time>2026-03-22T09:58:56.999Z</time></trkpt><trkpt lat="39.51242161030938" lon="15.942408966245702"><ele>11.0</ele><time>2026-03-22T09:58:57.999Z</time></trkpt><trkpt lat="39.512568780237864" lon="15.942229861225343"><ele>11.0</ele><time>2026-03-22T09:58:58.999Z</time></trkpt><trkpt lat="39.512715507201065" lon="15.94205186547957"><ele>11.0</ele><time>2026-03-22T09:58:59.999Z</time></trkpt><trkpt lat="39.51286167976887" lon="15.941875165825248"><ele>11.0</ele><time>2026-03-22T09:59:00.999Z</time></trkpt><trkpt lat="39.51300992528291" lon="15.941694921360583"><ele>11.666666666666666</ele><time>2026-03-22T09:59:01.999Z</time></trkpt><trkpt lat="39.51315799108085" lon="15.941510614379258"><ele>12.333333333333332</ele><time>2026-03-22T09:59:02.999Z</time></trkpt><trkpt lat="39.51330486003673" lon="15.941324833804277"><ele>13.0</ele><time>2026-03-22T09:59:03.999Z</time></trkpt><trkpt lat="39.513453716082275" lon="15.941138400706112"><ele>13.0</ele><time>2026-03-22T09:59:04.999Z</time></trkpt><trkpt lat="39.51360614275786" lon="15.940946611646032"><ele>13.0</ele><time>2026-03-22T09:59:05.999Z</time></trkpt><trkpt lat="39.513761079101094" lon="15.940754670900358"><ele>13.0</ele><time>2026-03-22T09:59:06.999Z</time></trkpt><trkpt lat="39.51391615377491" lon="15.940562181075736"><ele>13.333333333333332</ele><time>2026-03-22T09:59:07.999Z</time></trkpt><trkpt lat="39.51406893280957" lon="15.940365184180099"><ele>13.666666666666668</ele><time>2026-03-22T09:59:08.999Z</time></trkpt><trkpt lat="39.514216703256906" lon="15.940160207699277"><ele>14.0</ele><time>2026-03-22T09:59:09.999Z</time></trkpt><trkpt lat="39.51435184532127" lon="15.939942369052757"><ele>14.0</ele><time>2026-03-22T09:59:10.999Z</time></trkpt><trkpt lat="39.514465120257306" lon="15.939706594899887"><ele>14.0</ele><time>2026-03-22T09:59:11.999Z</time></trkpt><trkpt lat="39.51456984964463" lon="15.939459361020075"><ele>14.0</ele><time>2026-03-22T09:59:12.999Z</time></trkpt><trkpt lat="39.51467474749348" lon="15.939204797525008"><ele>19.5</ele><time>2026-03-22T09:59:13.999Z</time></trkpt><trkpt lat="39.51478095570645" lon="15.938946772910999"><ele>25.0</ele><time>2026-03-22T09:59:14.999Z</time></trkpt><trkpt lat="39.514887249702554" lon="15.938690831946175"><ele>25.0</ele><time>2026-03-22T09:59:15.999Z</time></trkpt><trkpt lat="39.51499584565997" lon="15.938432867602142"><ele>25.0</ele><time>2026-03-22T09:59:16.999Z</time></trkpt><trkpt lat="39.5151069701207" lon="15.938178817659399"><ele>19.5</ele><time>2026-03-22T09:59:17.999Z</time></trkpt><trkpt lat="39.51522870622281" lon="15.937929724662432"><ele>14.0</ele><time>2026-03-22T09:59:18.999Z</time></trkpt><trkpt lat="39.51536481455749" lon="15.937695717549028"><ele>16.5</ele><time>2026-03-22T09:59:19.999Z</time></trkpt><trkpt lat="39.51551582024578" lon="15.937473822431633"><ele>19.0</ele><time>2026-03-22T09:59:20.999Z</time></trkpt><trkpt lat="39.51567616473005" lon="15.937257303821568"><ele>19.0</ele><time>2026-03-22T09:59:21.999Z</time></trkpt><trkpt lat="39.515834587044154" lon="15.937041903862651"><ele>19.0</ele><time>2026-03-22T09:59:22.999Z</time></trkpt><trkpt lat="39.515995959463645" lon="15.93682524410142"><ele>19.0</ele><time>2026-03-22T09:59:23.999Z</time></trkpt><trkpt lat="39.51616055514927" lon="15.936603369674119"><ele>19.0</ele><time>2026-03-22T09:59:24.999Z</time></trkpt><trkpt lat="39.51633117661323" lon="15.936370277137996"><ele>19.0</ele><time>2026-03-22T09:59:25.999Z</time></trkpt><trkpt lat="39.51650759342004" lon="15.936125973497395"><ele>19.0</ele><time>2026-03-22T09:59:26.999Z</time></trkpt><trkpt lat="39.516683707264086" lon="15.935882205878121"><ele>14.5</ele><time>2026-03-22T09:59:27.999Z</time></trkpt><trkpt lat="39.516858064240516" lon="15.935644340421762"><ele>10.0</ele><time>2026-03-22T09:59:28.999Z</time></trkpt><trkpt lat="39.51703102020084" lon="15.935412333808232"><ele>11.0</ele><time>2026-03-22T09:59:29.999Z</time></trkpt><trkpt lat="39.5172043685482" lon="15.935186388446807"><ele>12.0</ele><time>2026-03-22T09:59:30.999Z</time></trkpt><trkpt lat="39.51738121085188" lon="15.93496776679504"><ele>12.0</ele><time>2026-03-22T09:59:31.999Z</time></trkpt><trkpt lat="39.51756082100038" lon="15.93476439207437"><ele>12.0</ele><time>2026-03-22T09:59:32.999Z</time></trkpt><trkpt lat="39.517742314799484" lon="15.934577557939724"><ele>12.0</ele><time>2026-03-22T09:59:33.999Z</time></trkpt><trkpt lat="39.51792489765901" lon="15.93440616458853"><ele>12.0</ele><time>2026-03-22T09:59:34.999Z</time></trkpt><trkpt lat="39.51809743021393" lon="15.934252705365983"><ele>12.0</ele><time>2026-03-22T09:59:35.999Z</time></trkpt><trkpt lat="39.51824374555064" lon="15.934123114708546"><ele>12.0</ele><time>2026-03-22T09:59:36.999Z</time></trkpt><trkpt lat="39.51837247862624" lon="15.934006411616435"><ele>12.0</ele><time>2026-03-22T09:59:37.999Z</time></trkpt><trkpt lat="39.51849627484059" lon="15.933899281466127"><ele>12.0</ele><time>2026-03-22T09:59:38.999Z</time></trkpt><trkpt lat="39.51861123488676" lon="15.93380188939906"><ele>12.0</ele><time>2026-03-22T09:59:39.999Z</time></trkpt><trkpt lat="39.518720137365" lon="15.933708418065173"><ele>12.0</ele><time>2026-03-22T09:59:40.999Z</time></trkpt><trkpt lat="39.518815906010175" lon="15.933624593128265"><ele>12.0</ele><time>2026-03-22T09:59:41.999Z</time></trkpt><trkpt lat="39.518896246166214" lon="15.933548288921225"><ele>12.0</ele><time>2026-03-22T09:59:42.999Z</time></trkpt><trkpt lat="39.51897633172893" lon="15.933470838472138"><ele>12.0</ele><time>2026-03-22T09:59:43.999Z</time></trkpt><trkpt lat="39.51907177346091" lon="15.93338631909561"><ele>12.0</ele><time>2026-03-22T09:59:44.999Z</time></trkpt><trkpt lat="39.51918622884859" lon="15.933295125930744"><ele>12.0</ele><time>2026-03-22T09:59:45.999Z</time></trkpt><trkpt lat="39.51931359093203" lon="15.933192349414792"><ele>12.0</ele><time>2026-03-22T09:59:46.999Z</time></trkpt><trkpt lat="39.51945149108245" lon="15.933083658784186"><ele>12.0</ele><time>2026-03-22T09:59:47.999Z</time></trkpt><trkpt lat="39.51959953722427" lon="15.93297140191707"><ele>13.0</ele><time>2026-03-22T09:59:48.999Z</time></trkpt><trkpt lat="39.519759606327185" lon="15.932857791873014"><ele>14.0</ele><time>2026-03-22T09:59:49.999Z</time></trkpt><trkpt lat="39.51992941477773" lon="15.932746635477997"><ele>15.0</ele><time>2026-03-22T09:59:50.999Z</time></trkpt><trkpt lat="39.52010573921723" lon="15.932644623019604"><ele>14.0</ele><time>2026-03-22T09:59:51.999Z</time></trkpt><trkpt lat="39.52028663381217" lon="15.932547387753097"><ele>13.0</ele><time>2026-03-22T09:59:52.999Z</time></trkpt><trkpt lat="39.52047289600625" lon="15.93245299196293"><ele>12.0</ele><time>2026-03-22T09:59:53.998Z</time></trkpt><trkpt lat="39.5206605644133" lon="15.932359880892061"><ele>11.333333333333334</ele><time>2026-03-22T09:59:54.998Z</time></trkpt><trkpt lat="39.52085128782618" lon="15.93226296886348"><ele>10.666666666666668</ele><time>2026-03-22T09:59:55.998Z</time></trkpt><trkpt lat="39.52104434098025" lon="15.9321663732944"><ele>10.0</ele><time>2026-03-22T09:59:56.998Z</time></trkpt><trkpt lat="39.521241120716326" lon="15.932066450478615"><ele>9.0</ele><time>2026-03-22T09:59:57.998Z</time></trkpt><trkpt lat="39.52144160217051" lon="15.931965116112861"><ele>8.0</ele><time>2026-03-22T09:59:58.998Z</time></trkpt><trkpt lat="39.521643848359886" lon="15.931862478370103"><ele>7.0</ele><time>2026-03-22T10:00:00Z</time></trkpt><trkpt lat="39.52184787884126" lon="15.931758681380128"><ele>8.0</ele><time>2026-03-22T10:00:01Z</time></trkpt><trkpt lat="39.52205249882995" lon="15.931653177143279"><ele>9.0</ele><time>2026-03-22T10:00:02Z</time></trkpt><trkpt lat="39.52225426300088" lon="15.931546822523034"><ele>10.0</ele><time>2026-03-22T10:00:03Z</time></trkpt><trkpt lat="39.52245417840153" lon="15.931431763367433"><ele>11.0</ele><time>2026-03-22T10:00:04Z</time></trkpt><trkpt lat="39.522654259769276" lon="15.931303732781851"><ele>12.0</ele><time>2026-03-22T10:00:05Z</time></trkpt><trkpt lat="39.52285397065325" lon="15.931158816115282"><ele>11.0</ele><time>2026-03-22T10:00:06Z</time></trkpt><trkpt lat="39.52305516762979" lon="15.931003960206718"><ele>10.0</ele><time>2026-03-22T10:00:07Z</time></trkpt><trkpt lat="39.523260592942414" lon="15.93085000591667"><ele>10.0</ele><time>2026-03-22T10:00:08Z</time></trkpt><trkpt lat="39.523466589731335" lon="15.93069796932461"><ele>10.0</ele><time>2026-03-22T10:00:09Z</time></trkpt><trkpt lat="39.52366894896221" lon="15.93054396038988"><ele>11.5</ele><time>2026-03-22T10:00:10Z</time></trkpt><trkpt lat="39.52386574326485" lon="15.930389062332853"><ele>13.0</ele><time>2026-03-22T10:00:11Z</time></trkpt><trkpt lat="39.52405927781002" lon="15.930229818953865"><ele>13.0</ele><time>2026-03-22T10:00:12Z</time></trkpt><trkpt lat="39.52424892373918" lon="15.930067446555077"><ele>13.0</ele><time>2026-03-22T10:00:13Z</time></trkpt><trkpt lat="39.52443751940231" lon="15.929902109743066"><ele>13.5</ele><time>2026-03-22T10:00:14Z</time></trkpt><trkpt lat="39.52462640691291" lon="15.929736636636937"><ele>14.0</ele><time>2026-03-22T10:00:15Z</time></trkpt><trkpt lat="39.52481455601077" lon="15.929572451598016"><ele>14.0</ele><time>2026-03-22T10:00:16Z</time></trkpt><trkpt lat="39.52500250257243" lon="15.929408840475853"><ele>14.0</ele><time>2026-03-22T10:00:17Z</time></trkpt><trkpt lat="39.525190763155905" lon="15.929244170130767"><ele>12.5</ele><time>2026-03-22T10:00:18Z</time></trkpt><trkpt lat="39.525379082266" lon="15.92907853361919"><ele>11.0</ele><time>2026-03-22T10:00:19Z</time></trkpt><trkpt lat="39.525569574591515" lon="15.928911829871941"><ele>11.0</ele><time>2026-03-22T10:00:20Z</time></trkpt><trkpt lat="39.52576070153743" lon="15.928745167734398"><ele>11.0</ele><time>2026-03-22T10:00:21Z</time></trkpt><trkpt lat="39.52595028559795" lon="15.928576621554635"><ele>11.0</ele><time>2026-03-22T10:00:22Z</time></trkpt><trkpt lat="39.526141594938984" lon="15.92840873118901"><ele>11.0</ele><time>2026-03-22T10:00:23Z</time></trkpt><trkpt lat="39.52633295608223" lon="15.928242073149402"><ele>12.5</ele><time>2026-03-22T10:00:24Z</time></trkpt><trkpt lat="39.52652394543975" lon="15.928076560448748"><ele>14.0</ele><time>2026-03-22T10:00:25Z</time></trkpt><trkpt lat="39.52671336457388" lon="15.927913123863991"><ele>14.0</ele><time>2026-03-22T10:00:26Z</time></trkpt><trkpt lat="39.52690001907871" lon="15.927753412185329"><ele>14.0</ele><time>2026-03-22T10:00:27Z</time></trkpt><trkpt lat="39.52708309338309" lon="15.927594885509613"><ele>14.0</ele><time>2026-03-22T10:00:28Z</time></trkpt><trkpt lat="39.52726182579256" lon="15.927438477156294"><ele>14.333333333333334</ele><time>2026-03-22T10:00:29Z</time></trkpt><trkpt lat="39.52743627035737" lon="15.927285283641279"><ele>14.666666666666668</ele><time>2026-03-22T10:00:30Z</time></trkpt><trkpt lat="39.52760328448646" lon="15.927138136749948"><ele>15.0</ele><time>2026-03-22T10:00:31Z</time></trkpt><trkpt lat="39.52776618132034" lon="15.926996621248229"><ele>17.333333333333332</ele><time>2026-03-22T10:00:32Z</time></trkpt><trkpt lat="39.527923518415314" lon="15.92685933166928"><ele>19.666666666666664</ele><time>2026-03-22T10:00:33Z</time></trkpt><trkpt lat="39.528076746764704" lon="15.926726294297973"><ele>22.0</ele><time>2026-03-22T10:00:34Z</time></trkpt><trkpt lat="39.528224818366624" lon="15.926596589173931"><ele>22.0</ele><time>2026-03-22T10:00:35Z</time></trkpt><trkpt lat="39.52836572413937" lon="15.926470877762023"><ele>22.0</ele><time>2026-03-22T10:00:36Z</time></trkpt><trkpt lat="39.52850455624847" lon="15.926342273962984"><ele>22.0</ele><time>2026-03-22T10:00:37Z</time></trkpt><trkpt lat="39.52864079983441" lon="15.92620655089819"><ele>28.0</ele><time>2026-03-22T10:00:38Z</time></trkpt><trkpt lat="39.52877427509735" lon="15.926062586677256"><ele>34.0</ele><time>2026-03-22T10:00:39Z</time></trkpt><trkpt lat="39.5289029195485" lon="15.925908254035653"><ele>40.0</ele><time>2026-03-22T10:00:40Z</time></trkpt><trkpt lat="39.52902659265332" lon="15.925740763327916"><ele>40.0</ele><time>2026-03-22T10:00:41Z</time></trkpt><trkpt lat="39.52914306184913" lon="15.925565225092537"><ele>40.0</ele><time>2026-03-22T10:00:42Z</time></trkpt><trkpt lat="39.52925222587216" lon="15.925377889399208"><ele>40.0</ele><time>2026-03-22T10:00:43Z</time></trkpt><trkpt lat="39.52934934849462" lon="15.925179039925961"><ele>34.333333333333336</ele><time>2026-03-22T10:00:43.999Z</time></trkpt><trkpt lat="39.52943541432315" lon="15.924966814597557"><ele>28.666666666666668</ele><time>2026-03-22T10:00:44.999Z</time></trkpt><trkpt lat="39.52951214261231" lon="15.924748423709918"><ele>23.0</ele><time>2026-03-22T10:00:45.999Z</time></trkpt><trkpt lat="39.52958320025404" lon="15.924518331013008"><ele>33.0</ele><time>2026-03-22T10:00:46.999Z</time></trkpt><trkpt lat="39.52964990298101" lon="15.924285602435534"><ele>43.0</ele><time>2026-03-22T10:00:47.999Z</time></trkpt><trkpt lat="39.5297186191285" lon="15.92404701373491"><ele>53.0</ele><time>2026-03-22T10:00:48.999Z</time></trkpt><trkpt lat="39.52978947577225" lon="15.923808006964643"><ele>53.0</ele><time>2026-03-22T10:00:49.999Z</time></trkpt><trkpt lat="39.529861894023014" lon="15.923565284213755"><ele>53.0</ele><time>2026-03-22T10:00:50.999Z</time></trkpt><trkpt lat="39.529935197214805" lon="15.92332737439335"><ele>53.0</ele><time>2026-03-22T10:00:51.999Z</time></trkpt><trkpt lat="39.530012106537896" lon="15.923089335406443"><ele>49.66666666666667</ele><time>2026-03-22T10:00:52.999Z</time></trkpt><trkpt lat="39.53009398916652" lon="15.922851340387767"><ele>46.333333333333336</ele><time>2026-03-22T10:00:53.999Z</time></trkpt><trkpt lat="39.530181757715326" lon="15.92261431732921"><ele>43.0</ele><time>2026-03-22T10:00:54.999Z</time></trkpt><trkpt lat="39.530273162955424" lon="15.922380968788055"><ele>38.66666666666667</ele><time>2026-03-22T10:00:55.999Z</time></trkpt><trkpt lat="39.530369275253875" lon="15.922152288482343"><ele>34.333333333333336</ele><time>2026-03-22T10:00:56.999Z</time></trkpt><trkpt lat="39.530470232336704" lon="15.921926292984116"><ele>30.0</ele><time>2026-03-22T10:00:57.999Z</time></trkpt><trkpt lat="39.53057860688481" lon="15.921698391126672"><ele>40.0</ele><time>2026-03-22T10:00:58.999Z</time></trkpt><trkpt lat="39.53069340681021" lon="15.9214752806046"><ele>50.0</ele><time>2026-03-22T10:00:59.999Z</time></trkpt><trkpt lat="39.53081479515098" lon="15.921249032973263"><ele>60.0</ele><time>2026-03-22T10:01:00.999Z</time></trkpt><trkpt lat="39.530940317536405" lon="15.921022918545175"><ele>59.66666666666667</ele><time>2026-03-22T10:01:01.999Z</time></trkpt><trkpt lat="39.53106994513156" lon="15.920792087361022"><ele>59.333333333333336</ele><time>2026-03-22T10:01:02.999Z</time></trkpt><trkpt lat="39.53120508660643" lon="15.920554541486204"><ele>59.0</ele><time>2026-03-22T10:01:03.999Z</time></trkpt><trkpt lat="39.53134881438519" lon="15.920302811759534"><ele>66.0</ele><time>2026-03-22T10:01:04.999Z</time></trkpt><trkpt lat="39.531504048891875" lon="15.920031139785529"><ele>73.0</ele><time>2026-03-22T10:01:05.999Z</time></trkpt><trkpt lat="39.53167103838281" lon="15.919730828795164"><ele>73.0</ele><time>2026-03-22T10:01:06.999Z</time></trkpt><trkpt lat="39.531846045222444" lon="15.919400402372451"><ele>73.0</ele><time>2026-03-22T10:01:07.999Z</time></trkpt><trkpt lat="39.53205480590558" lon="15.919070813381706"><ele>68.5</ele><time>2026-03-22T10:01:08.999Z</time></trkpt><trkpt lat="39.53227597471722" lon="15.918657186776871"><ele>64.0</ele><time>2026-03-22T10:01:09.999Z</time></trkpt><trkpt lat="39.532514084290995" lon="15.918239801817277"><ele>51.5</ele><time>2026-03-22T10:01:10.999Z</time></trkpt><trkpt lat="39.532755829291126" lon="15.917816549809144"><ele>39.0</ele><time>2026-03-22T10:01:11.999Z</time></trkpt><trkpt lat="39.53299195240864" lon="15.917407346720008"><ele>38.5</ele><time>2026-03-22T10:01:12.999Z</time></trkpt><trkpt lat="39.53320494818953" lon="15.917037764898721"><ele>38.0</ele><time>2026-03-22T10:01:13.999Z</time></trkpt><trkpt lat="39.53340634719278" lon="15.916687445908929"><ele>38.0</ele><time>2026-03-22T10:01:14.999Z</time></trkpt><trkpt lat="39.53359386388204" lon="15.916362877016624"><ele>38.0</ele><time>2026-03-22T10:01:15.999Z</time></trkpt><trkpt lat="39.53376929724163" lon="15.916063144992638"><ele>57.0</ele><time>2026-03-22T10:01:16.999Z</time></trkpt><trkpt lat="39.53393762550298" lon="15.915791531775772"><ele>76.0</ele><time>2026-03-22T10:01:17.999Z</time></trkpt><trkpt lat="39.534114764838726" lon="15.915540901322112"><ele>76.0</ele><time>2026-03-22T10:01:18.999Z</time></trkpt><trkpt lat="39.53430881233017" lon="15.915316542211746"><ele>76.0</ele><time>2026-03-22T10:01:19.999Z</time></trkpt><trkpt lat="39.53452237698985" lon="15.915116658565227"><ele>79.5</ele><time>2026-03-22T10:01:20.999Z</time></trkpt><trkpt lat="39.5347635868164" lon="15.914932470912495"><ele>83.0</ele><time>2026-03-22T10:01:21.999Z</time></trkpt><trkpt lat="39.53502015462636" lon="15.914758908836243"><ele>83.0</ele><time>2026-03-22T10:01:22.999Z</time></trkpt><trkpt lat="39.535250122300255" lon="15.914592918711175"><ele>83.0</ele><time>2026-03-22T10:01:23.999Z</time></trkpt><trkpt lat="39.53546885633602" lon="15.914426480300163"><ele>84.0</ele><time>2026-03-22T10:01:24.999Z</time></trkpt><trkpt lat="39.53567323005845" lon="15.91425208526471"><ele>85.0</ele><time>2026-03-22T10:01:25.999Z</time></trkpt><trkpt lat="39.53585976733745" lon="15.914052567139734"><ele>85.0</ele><time>2026-03-22T10:01:26.999Z</time></trkpt><trkpt lat="39.53603400299687" lon="15.91383105208023"><ele>85.0</ele><time>2026-03-22T10:01:27.999Z</time></trkpt><trkpt lat="39.53618265194939" lon="15.913605413347474"><ele>90.33333333333333</ele><time>2026-03-22T10:01:28.999Z</time></trkpt><trkpt lat="39.53631327018931" lon="15.913372854241823"><ele>95.66666666666666</ele><time>2026-03-22T10:01:29.999Z</time></trkpt><trkpt lat="39.53643148281068" lon="15.91313547359237"><ele>101.0</ele><time>2026-03-22T10:01:30.999Z</time></trkpt><trkpt lat="39.536542923463195" lon="15.912900057172395"><ele>101.0</ele><time>2026-03-22T10:01:31.999Z</time></trkpt><trkpt lat="39.536648953024056" lon="15.912678473278099"><ele>101.0</ele><time>2026-03-22T10:01:32.999Z</time></trkpt><trkpt lat="39.53674720795291" lon="15.912477404370316"><ele>101.0</ele><time>2026-03-22T10:01:33.999Z</time></trkpt><trkpt lat="39.53683665986006" lon="15.91229280699055"><ele>102.0</ele><time>2026-03-22T10:01:34.999Z</time></trkpt><trkpt lat="39.53692278915459" lon="15.912112954489032"><ele>103.0</ele><time>2026-03-22T10:01:35.999Z</time></trkpt><trkpt lat="39.53701165690174" lon="15.911928456489793"><ele>104.0</ele><time>2026-03-22T10:01:36.999Z</time></trkpt><trkpt lat="39.5371014582799" lon="15.91173337811515"><ele>104.0</ele><time>2026-03-22T10:01:37.999Z</time></trkpt><trkpt lat="39.537186180724085" lon="15.911530329690628"><ele>104.0</ele><time>2026-03-22T10:01:38.999Z</time></trkpt><trkpt lat="39.53726860248056" lon="15.911303206006766"><ele>104.0</ele><time>2026-03-22T10:01:39.999Z</time></trkpt><trkpt lat="39.53735408958401" lon="15.911055701170142"><ele>103.0</ele><time>2026-03-22T10:01:40.999Z</time></trkpt><trkpt lat="39.53744158489493" lon="15.91079125594352"><ele>102.0</ele><time>2026-03-22T10:01:41.999Z</time></trkpt><trkpt lat="39.53752985635111" lon="15.910527351778619"><ele>101.0</ele><time>2026-03-22T10:01:42.999Z</time></trkpt><trkpt lat="39.53761833785278" lon="15.9102612691329"><ele>97.0</ele><time>2026-03-22T10:01:43.999Z</time></trkpt><trkpt lat="39.5377060626816" lon="15.909993536628201"><ele>93.0</ele><time>2026-03-22T10:01:44.999Z</time></trkpt><trkpt lat="39.53779410357256" lon="15.90971564304975"><ele>93.0</ele><time>2026-03-22T10:01:45.999Z</time></trkpt><trkpt lat="39.53788138600401" lon="15.909433542117094"><ele>93.0</ele><time>2026-03-22T10:01:46.999Z</time></trkpt><trkpt lat="39.53796726884137" lon="15.909148066963315"><ele>103.0</ele><time>2026-03-22T10:01:47.999Z</time></trkpt><trkpt lat="39.53805275519031" lon="15.908862679006502"><ele>113.0</ele><time>2026-03-22T10:01:48.999Z</time></trkpt><trkpt lat="39.53813842428706" lon="15.908578460963268"><ele>115.5</ele><time>2026-03-22T10:01:49.999Z</time></trkpt><trkpt lat="39.53822272019123" lon="15.908295095170377"><ele>118.0</ele><time>2026-03-22T10:01:50.999Z</time></trkpt><trkpt lat="39.53831088685474" lon="15.908011702724878"><ele>118.0</ele><time>2026-03-22T10:01:51.999Z</time></trkpt><trkpt lat="39.538400673311614" lon="15.907728796645383"><ele>118.0</ele><time>2026-03-22T10:01:52.999Z</time></trkpt><trkpt lat="39.53848868740781" lon="15.907448084953538"><ele>115.66666666666667</ele><time>2026-03-22T10:01:53.999Z</time></trkpt><trkpt lat="39.53857276202384" lon="15.907175877207054"><ele>113.33333333333334</ele><time>2026-03-22T10:01:54.999Z</time></trkpt><trkpt lat="39.538652275954234" lon="15.906905676773919"><ele>111.0</ele><time>2026-03-22T10:01:55.999Z</time></trkpt><trkpt lat="39.53871845396556" lon="15.906630130215653"><ele>124.0</ele><time>2026-03-22T10:01:56.998Z</time></trkpt><trkpt lat="39.53876583426145" lon="15.906337265600676"><ele>137.0</ele><time>2026-03-22T10:01:57.998Z</time></trkpt><trkpt lat="39.53879801906562" lon="15.90603729924627"><ele>137.5</ele><time>2026-03-22T10:01:58.998Z</time></trkpt><trkpt lat="39.53881333285229" lon="15.905729944631064"><ele>138.0</ele><time>2026-03-22T10:01:59.998Z</time></trkpt><trkpt lat="39.53881954450131" lon="15.905420443599223"><ele>138.0</ele><time>2026-03-22T10:02:00.998Z</time></trkpt><trkpt lat="39.53882213810681" lon="15.905105428259068"><ele>138.0</ele><time>2026-03-22T10:02:01.998Z</time></trkpt><trkpt lat="39.53882220579042" lon="15.904791213788581"><ele>137.5</ele><time>2026-03-22T10:02:02.998Z</time></trkpt><trkpt lat="39.53882294237377" lon="15.904481444455211"><ele>137.0</ele><time>2026-03-22T10:02:03.998Z</time></trkpt><trkpt lat="39.538821760075194" lon="15.904174726831421"><ele>137.0</ele><time>2026-03-22T10:02:04.998Z</time></trkpt><trkpt lat="39.53881720400746" lon="15.903872275630013"><ele>137.0</ele><time>2026-03-22T10:02:06Z</time></trkpt><trkpt lat="39.53881070531743" lon="15.903576722523349"><ele>134.33333333333331</ele><time>2026-03-22T10:02:07Z</time></trkpt><trkpt lat="39.538802729413966" lon="15.903285763393146"><ele>131.66666666666666</ele><time>2026-03-22T10:02:08Z</time></trkpt><trkpt lat="39.538796572118656" lon="15.902995022446502"><ele>129.0</ele><time>2026-03-22T10:02:09Z</time></trkpt><trkpt lat="39.53879377281096" lon="15.902706927309458"><ele>126.0</ele><time>2026-03-22T10:02:10Z</time></trkpt><trkpt lat="39.538793066932385" lon="15.90242256475724"><ele>123.0</ele><time>2026-03-22T10:02:11Z</time></trkpt><trkpt lat="39.538790038275295" lon="15.902139353729845"><ele>120.0</ele><time>2026-03-22T10:02:12Z</time></trkpt><trkpt lat="39.53878739511532" lon="15.901856713455611"><ele>119.0</ele><time>2026-03-22T10:02:13Z</time></trkpt><trkpt lat="39.53879256175296" lon="15.901570297348698"><ele>118.0</ele><time>2026-03-22T10:02:14Z</time></trkpt><trkpt lat="39.53881701204987" lon="15.90128409680658"><ele>117.0</ele><time>2026-03-22T10:02:15Z</time></trkpt><trkpt lat="39.53886479272933" lon="15.901001485763882"><ele>118.0</ele><time>2026-03-22T10:02:16Z</time></trkpt><trkpt lat="39.53891943071459" lon="15.900719201001046"><ele>119.0</ele><time>2026-03-22T10:02:17Z</time></trkpt><trkpt lat="39.5389789663748" lon="15.9004404506566"><ele>120.0</ele><time>2026-03-22T10:02:18Z</time></trkpt><trkpt lat="39.539035261932554" lon="15.900163302023426"><ele>117.0</ele><time>2026-03-22T10:02:19Z</time></trkpt><trkpt lat="39.53908548579583" lon="15.89988579393948"><ele>114.0</ele><time>2026-03-22T10:02:20Z</time></trkpt><trkpt lat="39.53912803153725" lon="15.89961149468544"><ele>111.0</ele><time>2026-03-22T10:02:21Z</time></trkpt><trkpt lat="39.5391631851228" lon="15.899338353936944"><ele>108.33333333333334</ele><time>2026-03-22T10:02:22Z</time></trkpt><trkpt lat="39.53919412787066" lon="15.899069757438317"><ele>105.66666666666667</ele><time>2026-03-22T10:02:23Z</time></trkpt><trkpt lat="39.53922242775223" lon="15.89880409490771"><ele>103.0</ele><time>2026-03-22T10:02:24Z</time></trkpt><trkpt lat="39.539251989388745" lon="15.898539355275528"><ele>99.66666666666667</ele><time>2026-03-22T10:02:25Z</time></trkpt><trkpt lat="39.5392815113784" lon="15.898266312816698"><ele>96.33333333333334</ele><time>2026-03-22T10:02:26Z</time></trkpt><trkpt lat="39.53931484035418" lon="15.897979490025516"><ele>93.0</ele><time>2026-03-22T10:02:27Z</time></trkpt><trkpt lat="39.53935102044589" lon="15.897672536827264"><ele>87.0</ele><time>2026-03-22T10:02:28Z</time></trkpt><trkpt lat="39.539384777022754" lon="15.897365195454853"><ele>81.0</ele><time>2026-03-22T10:02:29Z</time></trkpt><trkpt lat="39.53941591001343" lon="15.897061498718278"><ele>81.0</ele><time>2026-03-22T10:02:30Z</time></trkpt><trkpt lat="39.53945766639404" lon="15.896762668362587"><ele>81.0</ele><time>2026-03-22T10:02:31Z</time></trkpt><trkpt lat="39.5395260965862" lon="15.896473385394524"><ele>94.5</ele><time>2026-03-22T10:02:32Z</time></trkpt><trkpt lat="39.53961692623802" lon="15.896194056417832"><ele>108.0</ele><time>2026-03-22T10:02:33Z</time></trkpt><trkpt lat="39.53971748310337" lon="15.895919730183925"><ele>108.0</ele><time>2026-03-22T10:02:34Z</time></trkpt><trkpt lat="39.539835768658705" lon="15.89565542859072"><ele>108.0</ele><time>2026-03-22T10:02:35Z</time></trkpt><trkpt lat="39.539975237607244" lon="15.895402508613962"><ele>108.0</ele><time>2026-03-22T10:02:36Z</time></trkpt><trkpt lat="39.540138603913384" lon="15.895165891630269"><ele>108.0</ele><time>2026-03-22T10:02:37Z</time></trkpt><trkpt lat="39.540315985972164" lon="15.89494771929592"><ele>107.5</ele><time>2026-03-22T10:02:38Z</time></trkpt><trkpt lat="39.54050886947087" lon="15.894755111969038"><ele>107.0</ele><time>2026-03-22T10:02:39Z</time></trkpt><trkpt lat="39.540710762100304" lon="15.894574281609223"><ele>107.0</ele><time>2026-03-22T10:02:40Z</time></trkpt><trkpt lat="39.54091607387582" lon="15.89439696888114"><ele>107.0</ele><time>2026-03-22T10:02:41Z</time></trkpt><trkpt lat="39.541118541380406" lon="15.894215705217613"><ele>101.0</ele><time>2026-03-22T10:02:42Z</time></trkpt><trkpt lat="39.54131571333119" lon="15.89403090249136"><ele>95.0</ele><time>2026-03-22T10:02:43Z</time></trkpt><trkpt lat="39.54150721180605" lon="15.893837264878744"><ele>95.0</ele><time>2026-03-22T10:02:44Z</time></trkpt><trkpt lat="39.541686673335924" lon="15.893621590478341"><ele>95.0</ele><time>2026-03-22T10:02:45Z</time></trkpt><trkpt lat="39.541850970113565" lon="15.893388620309207"><ele>81.5</ele><time>2026-03-22T10:02:45.999Z</time></trkpt><trkpt lat="39.54200366031238" lon="15.893144982431169"><ele>68.0</ele><time>2026-03-22T10:02:46.999Z</time></trkpt><trkpt lat="39.542152663170285" lon="15.892897299162257"><ele>58.5</ele><time>2026-03-22T10:02:47.999Z</time></trkpt><trkpt lat="39.542298570122696" lon="15.892647323901159"><ele>49.0</ele><time>2026-03-22T10:02:48.999Z</time></trkpt><trkpt lat="39.54244695792115" lon="15.892395157110288"><ele>48.5</ele><time>2026-03-22T10:02:49.999Z</time></trkpt><trkpt lat="39.54259857183587" lon="15.892139281455774"><ele>48.0</ele><time>2026-03-22T10:02:50.999Z</time></trkpt><trkpt lat="39.54275192296572" lon="15.891881935144893"><ele>68.0</ele><time>2026-03-22T10:02:51.999Z</time></trkpt><trkpt lat="39.54290789016521" lon="15.891620135241435"><ele>88.0</ele><time>2026-03-22T10:02:52.999Z</time></trkpt><trkpt lat="39.54306427428037" lon="15.891359113085544"><ele>88.0</ele><time>2026-03-22T10:02:53.999Z</time></trkpt><trkpt lat="39.543220946459" lon="15.891096057275979"><ele>88.0</ele><time>2026-03-22T10:02:54.999Z</time></trkpt><trkpt lat="39.5433772418051" lon="15.890831003310618"><ele>82.0</ele><time>2026-03-22T10:02:55.999Z</time></trkpt><trkpt lat="39.5435332557284" lon="15.890566260618458"><ele>76.0</ele><time>2026-03-22T10:02:56.999Z</time></trkpt><trkpt lat="39.54369101832395" lon="15.89030277209724"><ele>76.5</ele><time>2026-03-22T10:02:57.999Z</time></trkpt><trkpt lat="39.54384848163704" lon="15.890037476976515"><ele>77.0</ele><time>2026-03-22T10:02:58.999Z</time></trkpt><trkpt lat="39.544001393460434" lon="15.889771478619444"><ele>77.0</ele><time>2026-03-22T10:02:59.999Z</time></trkpt><trkpt lat="39.5441455239661" lon="15.889495944067907"><ele>77.0</ele><time>2026-03-22T10:03:00.999Z</time></trkpt><trkpt lat="39.54427752499454" lon="15.889202833586117"><ele>69.0</ele><time>2026-03-22T10:03:01.999Z</time></trkpt><trkpt lat="39.544391751632965" lon="15.888892701135175"><ele>61.0</ele><time>2026-03-22T10:03:02.999Z</time></trkpt><trkpt lat="39.54448724765212" lon="15.888573111232487"><ele>69.5</ele><time>2026-03-22T10:03:03.999Z</time></trkpt><trkpt lat="39.54456990294172" lon="15.888245503097783"><ele>78.0</ele><time>2026-03-22T10:03:04.999Z</time></trkpt><trkpt lat="39.54464416758153" lon="15.887913882665138"><ele>74.5</ele><time>2026-03-22T10:03:05.999Z</time></trkpt><trkpt lat="39.54471618932593" lon="15.887581176286012"><ele>71.0</ele><time>2026-03-22T10:03:06.999Z</time></trkpt><trkpt lat="39.544791928524404" lon="15.887255479680789"><ele>71.0</ele><time>2026-03-22T10:03:07.999Z</time></trkpt><trkpt lat="39.54487568678981" lon="15.886943606537578"><ele>71.0</ele><time>2026-03-22T10:03:08.999Z</time></trkpt><trkpt lat="39.54497946698192" lon="15.886645008423331"><ele>68.5</ele><time>2026-03-22T10:03:09.999Z</time></trkpt><trkpt lat="39.545109189294756" lon="15.886358174000566"><ele>66.0</ele><time>2026-03-22T10:03:10.999Z</time></trkpt><trkpt lat="39.54526174258795" lon="15.886080199324946"><ele>83.0</ele><time>2026-03-22T10:03:11.999Z</time></trkpt><trkpt lat="39.54541860371002" lon="15.885798458927901"><ele>100.0</ele><time>2026-03-22T10:03:12.999Z</time></trkpt><trkpt lat="39.54557642850056" lon="15.885513974807441"><ele>100.0</ele><time>2026-03-22T10:03:13.999Z</time></trkpt><trkpt lat="39.54573919058482" lon="15.88521645338906"><ele>100.0</ele><time>2026-03-22T10:03:14.999Z</time></trkpt><trkpt lat="39.54590978990156" lon="15.884903377831881"><ele>100.5</ele><time>2026-03-22T10:03:15.999Z</time></trkpt><trkpt lat="39.54607977004757" lon="15.8845940320196"><ele>101.0</ele><time>2026-03-22T10:03:16.999Z</time></trkpt><trkpt lat="39.546245099719734" lon="15.884302141375464"><ele>87.5</ele><time>2026-03-22T10:03:17.999Z</time></trkpt><trkpt lat="39.546412290433246" lon="15.884030523102258"><ele>74.0</ele><time>2026-03-22T10:03:18.999Z</time></trkpt><trkpt lat="39.546580016416925" lon="15.88375660797539"><ele>74.0</ele><time>2026-03-22T10:03:19.999Z</time></trkpt><trkpt lat="39.546782010401685" lon="15.883533269923428"><ele>74.0</ele><time>2026-03-22T10:03:20.999Z</time></trkpt><trkpt lat="39.5470068660517" lon="15.883334684287476"><ele>77.0</ele><time>2026-03-22T10:03:21.999Z</time></trkpt><trkpt lat="39.54723648333381" lon="15.883156093402217"><ele>80.0</ele><time>2026-03-22T10:03:22.999Z</time></trkpt><trkpt lat="39.54748004663296" lon="15.88299656873375"><ele>80.0</ele><time>2026-03-22T10:03:23.999Z</time></trkpt><trkpt lat="39.547733537964454" lon="15.882841735715415"><ele>80.0</ele><time>2026-03-22T10:03:24.999Z</time></trkpt><trkpt lat="39.54798512095324" lon="15.882687350713836"><ele>74.5</ele><time>2026-03-22T10:03:25.999Z</time></trkpt><trkpt lat="39.54823617494455" lon="15.882530833548817"><ele>69.0</ele><time>2026-03-22T10:03:26.999Z</time></trkpt><trkpt lat="39.54849940368377" lon="15.882367574342911"><ele>75.5</ele><time>2026-03-22T10:03:27.999Z</time></trkpt><trkpt lat="39.5487526495366" lon="15.882212424494284"><ele>82.0</ele><time>2026-03-22T10:03:28.999Z</time></trkpt><trkpt lat="39.54900162989625" lon="15.882064133137396"><ele>82.0</ele><time>2026-03-22T10:03:29.999Z</time></trkpt><trkpt lat="39.54924439520727" lon="15.88191852119922"><ele>82.0</ele><time>2026-03-22T10:03:30.999Z</time></trkpt><trkpt lat="39.54948368944477" lon="15.88177361777164"><ele>76.5</ele><time>2026-03-22T10:03:31.999Z</time></trkpt><trkpt lat="39.54972283033042" lon="15.881624142835433"><ele>71.0</ele><time>2026-03-22T10:03:32.999Z</time></trkpt><trkpt lat="39.5499641404174" lon="15.881483333083274"><ele>71.0</ele><time>2026-03-22T10:03:33.999Z</time></trkpt><trkpt lat="39.55021519265339" lon="15.881384252137947"><ele>71.0</ele><time>2026-03-22T10:03:34.999Z</time></trkpt><trkpt lat="39.550470785248336" lon="15.881316204082248"><ele>76.0</ele><time>2026-03-22T10:03:35.999Z</time></trkpt><trkpt lat="39.55072982503359" lon="15.881270420563691"><ele>81.0</ele><time>2026-03-22T10:03:36.999Z</time></trkpt><trkpt lat="39.550995740677955" lon="15.881253274951147"><ele>85.5</ele><time>2026-03-22T10:03:37.999Z</time></trkpt><trkpt lat="39.55126519308554" lon="15.881258495784117"><ele>90.0</ele><time>2026-03-22T10:03:38.999Z</time></trkpt><trkpt lat="39.551534345832074" lon="15.88126730427476"><ele>90.0</ele><time>2026-03-22T10:03:39.999Z</time></trkpt><trkpt lat="39.55179928100769" lon="15.881272269467015"><ele>90.0</ele><time>2026-03-22T10:03:40.999Z</time></trkpt><trkpt lat="39.55205584003416" lon="15.881275344523816"><ele>88.5</ele><time>2026-03-22T10:03:41.999Z</time></trkpt><trkpt lat="39.552298231497524" lon="15.881279452101547"><ele>87.0</ele><time>2026-03-22T10:03:42.999Z</time></trkpt><trkpt lat="39.55252766539429" lon="15.881281448831336"><ele>87.0</ele><time>2026-03-22T10:03:43.999Z</time></trkpt><trkpt lat="39.55275426073621" lon="15.881277806705887"><ele>87.0</ele><time>2026-03-22T10:03:44.999Z</time></trkpt><trkpt lat="39.55297425678842" lon="15.881263789967269"><ele>87.0</ele><time>2026-03-22T10:03:45.999Z</time></trkpt><trkpt lat="39.55318028919641" lon="15.88122977251442"><ele>85.66666666666667</ele><time>2026-03-22T10:03:46.999Z</time></trkpt><trkpt lat="39.55337624118543" lon="15.88117527393199"><ele>84.33333333333334</ele><time>2026-03-22T10:03:47.999Z</time></trkpt><trkpt lat="39.55356432684929" lon="15.88110297752617"><ele>83.0</ele><time>2026-03-22T10:03:48.999Z</time></trkpt><trkpt lat="39.55375125874154" lon="15.881017996634942"><ele>79.33333333333334</ele><time>2026-03-22T10:03:49.999Z</time></trkpt><trkpt lat="39.55392946853292" lon="15.88092394217507"><ele>75.66666666666667</ele><time>2026-03-22T10:03:50.999Z</time></trkpt><trkpt lat="39.55410584312883" lon="15.880829856752017"><ele>72.0</ele><time>2026-03-22T10:03:51.999Z</time></trkpt><trkpt lat="39.55427942482935" lon="15.880737810389629"><ele>72.0</ele><time>2026-03-22T10:03:52.999Z</time></trkpt><trkpt lat="39.554448139733246" lon="15.88064365612705"><ele>72.0</ele><time>2026-03-22T10:03:53.999Z</time></trkpt><trkpt lat="39.554608548747524" lon="15.880538281665585"><ele>72.0</ele><time>2026-03-22T10:03:54.999Z</time></trkpt><trkpt lat="39.554761827249735" lon="15.880419176978764"><ele>73.33333333333333</ele><time>2026-03-22T10:03:55.999Z</time></trkpt><trkpt lat="39.5549092473677" lon="15.880284585682423"><ele>74.66666666666666</ele><time>2026-03-22T10:03:56.999Z</time></trkpt><trkpt lat="39.55505297851185" lon="15.880137976140874"><ele>76.0</ele><time>2026-03-22T10:03:57.999Z</time></trkpt><trkpt lat="39.555195277245026" lon="15.879980441276421"><ele>76.33333333333333</ele><time>2026-03-22T10:03:58.999Z</time></trkpt><trkpt lat="39.55534556705473" lon="15.879812176212493"><ele>76.66666666666667</ele><time>2026-03-22T10:03:59.998Z</time></trkpt><trkpt lat="39.5554954886975" lon="15.879649253283972"><ele>77.0</ele><time>2026-03-22T10:04:00.998Z</time></trkpt><trkpt lat="39.555639180581956" lon="15.879499459848166"><ele>77.0</ele><time>2026-03-22T10:04:01.998Z</time></trkpt><trkpt lat="39.5557746249645" lon="15.879361367793836"><ele>77.0</ele><time>2026-03-22T10:04:02.998Z</time></trkpt><trkpt lat="39.555905543530564" lon="15.879224456250146"><ele>77.0</ele><time>2026-03-22T10:04:03.998Z</time></trkpt><trkpt lat="39.55603525703866" lon="15.879085405583812"><ele>78.0</ele><time>2026-03-22T10:04:04.998Z</time></trkpt><trkpt lat="39.55616276036142" lon="15.87894775793598"><ele>79.0</ele><time>2026-03-22T10:04:05.998Z</time></trkpt><trkpt lat="39.55629176901704" lon="15.878810883969804"><ele>80.0</ele><time>2026-03-22T10:04:06.998Z</time></trkpt><trkpt lat="39.55642874426564" lon="15.87869582765526"><ele>84.66666666666667</ele><time>2026-03-22T10:04:07.998Z</time></trkpt><trkpt lat="39.55655183398902" lon="15.878566981373838"><ele>89.33333333333333</ele><time>2026-03-22T10:04:08.998Z</time></trkpt><trkpt lat="39.55667384033911" lon="15.878438684968037"><ele>94.0</ele><time>2026-03-22T10:04:09.998Z</time></trkpt><trkpt lat="39.55679645502002" lon="15.878315939585361"><ele>84.33333333333333</ele><time>2026-03-22T10:04:10.998Z</time></trkpt><trkpt lat="39.556917556534614" lon="15.878190342960353"><ele>74.66666666666667</ele><time>2026-03-22T10:04:12Z</time></trkpt><trkpt lat="39.557138444242696" lon="15.878010213370397"><ele>65.0</ele><time>2026-03-22T10:04:13Z</time></trkpt><trkpt lat="39.557316900527184" lon="15.877896185290544"><ele>64.0</ele><time>2026-03-22T10:04:14Z</time></trkpt><trkpt lat="39.55744236583306" lon="15.877821646011482"><ele>63.0</ele><time>2026-03-22T10:04:15Z</time></trkpt><trkpt lat="39.5575867031764" lon="15.87773569081452"><ele>62.0</ele><time>2026-03-22T10:04:16Z</time></trkpt><trkpt lat="39.55774788987105" lon="15.877687668656502"><ele>61.66666666666667</ele><time>2026-03-22T10:04:17Z</time></trkpt><trkpt lat="39.5579027549922" lon="15.877655933814472"><ele>61.33333333333333</ele><time>2026-03-22T10:04:18Z</time></trkpt><trkpt lat="39.55805280683986" lon="15.877632813691747"><ele>61.0</ele><time>2026-03-22T10:04:19Z</time></trkpt><trkpt lat="39.55821032544294" lon="15.877612810123166"><ele>58.0</ele><time>2026-03-22T10:04:20Z</time></trkpt><trkpt lat="39.55835554367098" lon="15.87759176853562"><ele>55.0</ele><time>2026-03-22T10:04:21Z</time></trkpt><trkpt lat="39.55849497236495" lon="15.877553920534274"><ele>52.0</ele><time>2026-03-22T10:04:22Z</time></trkpt><trkpt lat="39.558628840162385" lon="15.877507908186283"><ele>49.0</ele><time>2026-03-22T10:04:23Z</time></trkpt><trkpt lat="39.558755724862635" lon="15.877460807621828"><ele>48.75</ele><time>2026-03-22T10:04:24Z</time></trkpt><trkpt lat="39.558885870567885" lon="15.877420234587769"><ele>48.5</ele><time>2026-03-22T10:04:25Z</time></trkpt><trkpt lat="39.559009289213414" lon="15.877386733383108"><ele>48.25</ele><time>2026-03-22T10:04:26Z</time></trkpt><trkpt lat="39.55911943979569" lon="15.877352473684988"><ele>48.0</ele><time>2026-03-22T10:04:27Z</time></trkpt><trkpt lat="39.559209624879976" lon="15.877311705031172"><ele>48.0</ele><time>2026-03-22T10:04:28Z</time></trkpt><trkpt lat="39.55929503210828" lon="15.877244658336336"><ele>48.0</ele><time>2026-03-22T10:04:30Z</time></trkpt><trkpt lat="39.5593073431261" lon="15.87713656038207"><ele>48.0</ele><time>2026-03-22T10:04:33Z</time></trkpt><trkpt lat="39.559435748828996" lon="15.87709110567688"><ele>48.0</ele><time>2026-03-22T10:04:35Z</time></trkpt><trkpt lat="39.55953721777807" lon="15.877047879051407"><ele>48.0</ele><time>2026-03-22T10:04:36Z</time></trkpt><trkpt lat="39.55966116485746" lon="15.877013330960429"><ele>48.66666666666667</ele><time>2026-03-22T10:04:37Z</time></trkpt><trkpt lat="39.55982864213482" lon="15.87696173175742"><ele>49.333333333333336</ele><time>2026-03-22T10:04:38Z</time></trkpt><trkpt lat="39.559983402973366" lon="15.876904329616764"><ele>50.0</ele><time>2026-03-22T10:04:39Z</time></trkpt><trkpt lat="39.56013712333144" lon="15.876844927902738"><ele>50.0</ele><time>2026-03-22T10:04:40Z</time></trkpt><trkpt lat="39.56028737412092" lon="15.876788797577781"><ele>50.0</ele><time>2026-03-22T10:04:41Z</time></trkpt><trkpt lat="39.56042967456838" lon="15.876733610924257"><ele>50.0</ele><time>2026-03-22T10:04:42Z</time></trkpt><trkpt lat="39.560564769884856" lon="15.876683016965256"><ele>50.0</ele><time>2026-03-22T10:04:43Z</time></trkpt><trkpt lat="39.560695196509144" lon="15.876634280576537"><ele>47.5</ele><time>2026-03-22T10:04:44Z</time></trkpt><trkpt lat="39.56082740640527" lon="15.87658557201613"><ele>45.0</ele><time>2026-03-22T10:04:45Z</time></trkpt><trkpt lat="39.560963777154164" lon="15.876535683863157"><ele>42.5</ele><time>2026-03-22T10:04:46Z</time></trkpt><trkpt lat="39.56110001486165" lon="15.876487347621858"><ele>40.0</ele><time>2026-03-22T10:04:47Z</time></trkpt><trkpt lat="39.56122733980104" lon="15.876443322436543"><ele>39.25</ele><time>2026-03-22T10:04:48Z</time></trkpt><trkpt lat="39.56135160428486" lon="15.876397522773274"><ele>38.5</ele><time>2026-03-22T10:04:49Z</time></trkpt><trkpt lat="39.56147582023295" lon="15.876352685282548"><ele>37.75</ele><time>2026-03-22T10:04:50Z</time></trkpt><trkpt lat="39.561601463153536" lon="15.876302942018734"><ele>37.0</ele><time>2026-03-22T10:04:51Z</time></trkpt><trkpt lat="39.561734275662694" lon="15.876248469961327"><ele>37.0</ele><time>2026-03-22T10:04:52Z</time></trkpt><trkpt lat="39.56187927694729" lon="15.876186747812058"><ele>37.0</ele><time>2026-03-22T10:04:52.999Z</time></trkpt><trkpt lat="39.56204581423459" lon="15.87612123414507"><ele>37.0</ele><time>2026-03-22T10:04:53.999Z</time></trkpt><trkpt lat="39.56223091254249" lon="15.876057106258116"><ele>37.66666666666667</ele><time>2026-03-22T10:04:54.999Z</time></trkpt><trkpt lat="39.562432854671655" lon="15.875992106124698"><ele>38.333333333333336</ele><time>2026-03-22T10:04:55.999Z</time></trkpt><trkpt lat="39.56263558390789" lon="15.875928624052811"><ele>39.0</ele><time>2026-03-22T10:04:56.999Z</time></trkpt><trkpt lat="39.56284768740169" lon="15.875857479372266"><ele>41.5</ele><time>2026-03-22T10:04:57.999Z</time></trkpt><trkpt lat="39.56308671676122" lon="15.875775494950013"><ele>44.0</ele><time>2026-03-22T10:04:58.999Z</time></trkpt><trkpt lat="39.56333163002058" lon="15.87569322891563"><ele>44.0</ele><time>2026-03-22T10:04:59.999Z</time></trkpt><trkpt lat="39.56357424252193" lon="15.875616801301483"><ele>44.0</ele><time>2026-03-22T10:05:00.999Z</time></trkpt><trkpt lat="39.563813990400575" lon="15.875543899836137"><ele>46.0</ele><time>2026-03-22T10:05:01.999Z</time></trkpt><trkpt lat="39.564050818046944" lon="15.875474942304544"><ele>48.0</ele><time>2026-03-22T10:05:02.999Z</time></trkpt><trkpt lat="39.564284784440446" lon="15.875407746058231"><ele>48.0</ele><time>2026-03-22T10:05:03.999Z</time></trkpt><trkpt lat="39.56451519635384" lon="15.87534230264213"><ele>48.0</ele><time>2026-03-22T10:05:04.999Z</time></trkpt><trkpt lat="39.56474405940087" lon="15.875282370325893"><ele>49.33333333333333</ele><time>2026-03-22T10:05:05.999Z</time></trkpt><trkpt lat="39.564964889163825" lon="15.875223528404272"><ele>50.666666666666664</ele><time>2026-03-22T10:05:06.999Z</time></trkpt><trkpt lat="39.56517314166572" lon="15.875169855329371"><ele>52.0</ele><time>2026-03-22T10:05:07.999Z</time></trkpt><trkpt lat="39.56536878947387" lon="15.875114650521287"><ele>47.666666666666664</ele><time>2026-03-22T10:05:08.999Z</time></trkpt><trkpt lat="39.5655466456429" lon="15.875063584114693"><ele>43.33333333333333</ele><time>2026-03-22T10:05:09.999Z</time></trkpt><trkpt lat="39.56571038926203" lon="15.875016605306149"><ele>39.0</ele><time>2026-03-22T10:05:10.999Z</time></trkpt><trkpt lat="39.56588589864343" lon="15.874954518248462"><ele>39.0</ele><time>2026-03-22T10:05:11.999Z</time></trkpt><trkpt lat="39.56607845320209" lon="15.874895176414459"><ele>39.0</ele><time>2026-03-22T10:05:12.999Z</time></trkpt><trkpt lat="39.56628096486099" lon="15.874822399075462"><ele>39.0</ele><time>2026-03-22T10:05:13.999Z</time></trkpt><trkpt lat="39.56648321700498" lon="15.874738657647923"><ele>39.666666666666664</ele><time>2026-03-22T10:05:14.999Z</time></trkpt><trkpt lat="39.566676911554595" lon="15.874635093338144"><ele>40.33333333333333</ele><time>2026-03-22T10:05:15.999Z</time></trkpt><trkpt lat="39.56686321801838" lon="15.874513309090611"><ele>41.0</ele><time>2026-03-22T10:05:16.999Z</time></trkpt><trkpt lat="39.56703974170536" lon="15.874363827580762"><ele>35.33333333333333</ele><time>2026-03-22T10:05:17.999Z</time></trkpt><trkpt lat="39.56720907567378" lon="15.874201371726258"><ele>29.666666666666664</ele><time>2026-03-22T10:05:18.999Z</time></trkpt><trkpt lat="39.5673770702333" lon="15.87404125945408"><ele>24.0</ele><time>2026-03-22T10:05:19.999Z</time></trkpt><trkpt lat="39.56754193528128" lon="15.87388675687653"><ele>24.0</ele><time>2026-03-22T10:05:20.999Z</time></trkpt><trkpt lat="39.56770208888206" lon="15.873746967745285"><ele>24.0</ele><time>2026-03-22T10:05:21.999Z</time></trkpt><trkpt lat="39.56785113011881" lon="15.87361890898252"><ele>24.0</ele><time>2026-03-22T10:05:22.999Z</time></trkpt><trkpt lat="39.56800462460226" lon="15.873505524107774"><ele>25.666666666666664</ele><time>2026-03-22T10:05:23.999Z</time></trkpt><trkpt lat="39.56817018826891" lon="15.873411262981232"><ele>27.333333333333332</ele><time>2026-03-22T10:05:24.999Z</time></trkpt><trkpt lat="39.56834657197996" lon="15.873334871960333"><ele>29.0</ele><time>2026-03-22T10:05:25.999Z</time></trkpt><trkpt lat="39.56852694968268" lon="15.873268385701083"><ele>29.333333333333332</ele><time>2026-03-22T10:05:26.999Z</time></trkpt><trkpt lat="39.56869939119624" lon="15.873206789852818"><ele>29.666666666666664</ele><time>2026-03-22T10:05:27.999Z</time></trkpt><trkpt lat="39.568867161638494" lon="15.87314571067161"><ele>30.0</ele><time>2026-03-22T10:05:28.999Z</time></trkpt><trkpt lat="39.56902415909996" lon="15.873090145918429"><ele>30.0</ele><time>2026-03-22T10:05:29.999Z</time></trkpt><trkpt lat="39.5691685768015" lon="15.873042200390563"><ele>30.0</ele><time>2026-03-22T10:05:30.999Z</time></trkpt><trkpt lat="39.569286807341705" lon="15.873005621493645"><ele>30.0</ele><time>2026-03-22T10:05:31.999Z</time></trkpt><trkpt lat="39.56937803205332" lon="15.872986443379643"><ele>30.0</ele><time>2026-03-22T10:05:32.999Z</time></trkpt><trkpt lat="39.5694507075919" lon="15.873000501766091"><ele>30.0</ele><time>2026-03-22T10:05:33.999Z</time></trkpt><trkpt lat="39.56955939035637" lon="15.873063301973175"><ele>30.4</ele><time>2026-03-22T10:05:35.999Z</time></trkpt><trkpt lat="39.56967007854072" lon="15.87308317208583"><ele>30.8</ele><time>2026-03-22T10:05:37.999Z</time></trkpt><trkpt lat="39.56977570819339" lon="15.873061271187664"><ele>31.200000000000003</ele><time>2026-03-22T10:05:39.999Z</time></trkpt><trkpt lat="39.5698433529736" lon="15.87304268195398"><ele>31.6</ele><time>2026-03-22T10:05:41.999Z</time></trkpt><trkpt lat="39.569873670039634" lon="15.872876879696655"><ele>32.0</ele><time>2026-03-22T10:05:44.999Z</time></trkpt><trkpt lat="39.56985347248313" lon="15.87298861356039"><ele>32.0</ele><time>2026-03-22T10:05:45.999Z</time></trkpt><trkpt lat="39.56995934363621" lon="15.872848352081608"><ele>32.0</ele><time>2026-03-22T10:07:03.999Z</time></trkpt><trkpt lat="39.57020234943016" lon="15.872766608248462"><ele>32.0</ele><time>2026-03-22T10:07:37.999Z</time></trkpt><trkpt lat="39.570282960242665" lon="15.872825193309598"><ele>31.999999999999996</ele><time>2026-03-22T10:07:39.999Z</time></trkpt><trkpt lat="39.570319806667804" lon="15.872739822783672"><ele>32.0</ele><time>2026-03-22T10:07:41.999Z</time></trkpt><trkpt lat="39.57039684190452" lon="15.872719056171025"><ele>32.0</ele><time>2026-03-22T10:07:43.999Z</time></trkpt><trkpt lat="39.57047102312024" lon="15.872672623634433"><ele>32.0</ele><time>2026-03-22T10:07:45.999Z</time></trkpt><trkpt lat="39.57051664762243" lon="15.872587464379025"><ele>31.999999999999996</ele><time>2026-03-22T10:07:47.999Z</time></trkpt><trkpt lat="39.57052649289825" lon="15.872674159923422"><ele>32.0</ele><time>2026-03-22T10:07:52.999Z</time></trkpt><trkpt lat="39.57057652313367" lon="15.87280588461198"><ele>32.0</ele><time>2026-03-22T10:07:58.07Z</time></trkpt><trkpt lat="39.569883370356195" lon="15.872999299414861"><ele>32.0</ele><time>2026-03-22T10:08:06.828Z</time></trkpt><trkpt lat="39.56997236151799" lon="15.873187238900092"><ele>32.0</ele><time>2026-03-22T10:08:20.027Z</time></trkpt><trkpt lat="39.56975308937518" lon="15.873173420113954"><ele>32.0</ele><time>2026-03-22T10:08:26.026Z</time></trkpt><trkpt lat="39.56988232082342" lon="15.873203207860747"><ele>31.999999999999996</ele><time>2026-03-22T10:08:29.027Z</time></trkpt><trkpt lat="39.56990968618651" lon="15.87312290734819"><ele>32.0</ele><time>2026-03-22T10:08:45.012Z</time></trkpt><trkpt lat="39.57001429053089" lon="15.873108698347107"><ele>32.0</ele><time>2026-03-22T10:09:56.013Z</time></trkpt><trkpt lat="39.57008337946444" lon="15.873094538326265"><ele>32.0</ele><time>2026-03-22T10:09:59.015Z</time></trkpt><trkpt lat="39.57007619481087" lon="15.873193313823641"><ele>31.999999999999996</ele><time>2026-03-22T10:10:18.013Z</time></trkpt><trkpt lat="39.57020515932363" lon="15.873190011250193"><ele>32.0</ele><time>2026-03-22T10:10:21.015Z</time></trkpt><trkpt lat="39.570116142903096" lon="15.873106445567315"><ele>31.999999999999996</ele><time>2026-03-22T10:10:23.997Z</time></trkpt><trkpt lat="39.57003824992933" lon="15.873032912425577"><ele>32.0</ele><time>2026-03-22T10:10:24.997Z</time></trkpt><trkpt lat="39.56996484404649" lon="15.87301496210377"><ele>32.0</ele><time>2026-03-22T10:10:29Z</time></trkpt><trkpt lat="39.56987356016866" lon="15.872979497935033"><ele>32.0</ele><time>2026-03-22T10:17:44.999Z</time></trkpt><trkpt lat="39.56979489569598" lon="15.872933827283013"><ele>31.999999999999996</ele><time>2026-03-22T10:17:47.999Z</time></trkpt><trkpt lat="39.56980169335051" lon="15.872847547624868"><ele>32.0</ele><time>2026-03-22T10:17:49.999Z</time></trkpt><trkpt lat="39.569903228028025" lon="15.872771763493857"><ele>32.0</ele><time>2026-03-22T10:17:52.999Z</time></trkpt><trkpt lat="39.56998318016376" lon="15.872748058247423"><ele>32.0</ele><time>2026-03-22T10:17:53.999Z</time></trkpt><trkpt lat="39.57008501008658" lon="15.872713361717075"><ele>32.0</ele><time>2026-03-22T10:17:54.999Z</time></trkpt><trkpt lat="39.5701990958952" lon="15.872669807181671"><ele>32.0</ele><time>2026-03-22T10:17:55.999Z</time></trkpt><trkpt lat="39.57031150939755" lon="15.872622188151219"><ele>32.0</ele><time>2026-03-22T10:17:56.999Z</time></trkpt><trkpt lat="39.57042559079993" lon="15.872582002261236"><ele>30.5</ele><time>2026-03-22T10:17:57.999Z</time></trkpt><trkpt lat="39.57053789364521" lon="15.872546875812043"><ele>29.0</ele><time>2026-03-22T10:17:58.999Z</time></trkpt><trkpt lat="39.57065136490425" lon="15.872508520103107"><ele>27.5</ele><time>2026-03-22T10:17:59.999Z</time></trkpt><trkpt lat="39.57076354025094" lon="15.87246701554304"><ele>26.0</ele><time>2026-03-22T10:18:00.999Z</time></trkpt><trkpt lat="39.570875277276514" lon="15.872427419182443"><ele>26.0</ele><time>2026-03-22T10:18:01.999Z</time></trkpt><trkpt lat="39.57098833414208" lon="15.872390349694191"><ele>26.0</ele><time>2026-03-22T10:18:02.999Z</time></trkpt><trkpt lat="39.571102487187886" lon="15.872355289856426"><ele>26.0</ele><time>2026-03-22T10:18:03.999Z</time></trkpt><trkpt lat="39.57122576905649" lon="15.872316119404394"><ele>26.0</ele><time>2026-03-22T10:18:04.999Z</time></trkpt><trkpt lat="39.57136239154808" lon="15.872270616161014"><ele>27.0</ele><time>2026-03-22T10:18:05.999Z</time></trkpt><trkpt lat="39.57150802197017" lon="15.87222222631968"><ele>28.0</ele><time>2026-03-22T10:18:06.999Z</time></trkpt><trkpt lat="39.57165668674033" lon="15.872171508983389"><ele>29.0</ele><time>2026-03-22T10:18:07.999Z</time></trkpt><trkpt lat="39.57181103821396" lon="15.872119981140498"><ele>29.0</ele><time>2026-03-22T10:18:08.999Z</time></trkpt><trkpt lat="39.57196985875964" lon="15.872064311338367"><ele>29.0</ele><time>2026-03-22T10:18:09.999Z</time></trkpt><trkpt lat="39.57213055091411" lon="15.872005179853746"><ele>29.0</ele><time>2026-03-22T10:18:10.999Z</time></trkpt><trkpt lat="39.57229781818102" lon="15.87194788487374"><ele>28.333333333333332</ele><time>2026-03-22T10:18:11.999Z</time></trkpt><trkpt lat="39.57246751104432" lon="15.871892630339673"><ele>27.666666666666664</ele><time>2026-03-22T10:18:12.999Z</time></trkpt><trkpt lat="39.57263828403033" lon="15.871836462603612"><ele>27.0</ele><time>2026-03-22T10:18:13.999Z</time></trkpt><trkpt lat="39.572807732524524" lon="15.871780115724713"><ele>27.0</ele><time>2026-03-22T10:18:14.999Z</time></trkpt><trkpt lat="39.572982063115475" lon="15.871723518977982"><ele>27.0</ele><time>2026-03-22T10:18:15.999Z</time></trkpt><trkpt lat="39.57316162863664" lon="15.871663735506438"><ele>27.0</ele><time>2026-03-22T10:18:16.999Z</time></trkpt><trkpt lat="39.573346656215556" lon="15.871599984373066"><ele>27.0</ele><time>2026-03-22T10:18:17.999Z</time></trkpt><trkpt lat="39.57353652204151" lon="15.871534535786864"><ele>27.0</ele><time>2026-03-22T10:18:18.999Z</time></trkpt><trkpt lat="39.57372246036628" lon="15.871469475353203"><ele>27.0</ele><time>2026-03-22T10:18:19.999Z</time></trkpt><trkpt lat="39.57391445943673" lon="15.87140326398602"><ele>26.666666666666664</ele><time>2026-03-22T10:18:20.999Z</time></trkpt><trkpt lat="39.57410999598012" lon="15.871336580488638"><ele>26.333333333333332</ele><time>2026-03-22T10:18:21.999Z</time></trkpt><trkpt lat="39.57430689034047" lon="15.871270774764987"><ele>26.0</ele><time>2026-03-22T10:18:22.999Z</time></trkpt><trkpt lat="39.574505560224345" lon="15.871204552829738"><ele>27.0</ele><time>2026-03-22T10:18:23.999Z</time></trkpt><trkpt lat="39.57470459190272" lon="15.871138594615191"><ele>28.0</ele><time>2026-03-22T10:18:24.999Z</time></trkpt><trkpt lat="39.57490706476498" lon="15.871071468619355"><ele>29.0</ele><time>2026-03-22T10:18:25.999Z</time></trkpt><trkpt lat="39.57511461168185" lon="15.87100402083235"><ele>29.0</ele><time>2026-03-22T10:18:26.999Z</time></trkpt><trkpt lat="39.575323658452454" lon="15.87093544072334"><ele>29.0</ele><time>2026-03-22T10:18:27.999Z</time></trkpt><trkpt lat="39.575534731290865" lon="15.870861883003148"><ele>29.0</ele><time>2026-03-22T10:18:28.999Z</time></trkpt><trkpt lat="39.57574835732755" lon="15.87077977777922"><ele>29.0</ele><time>2026-03-22T10:18:29.999Z</time></trkpt><trkpt lat="39.57596485860533" lon="15.870683423496857"><ele>29.0</ele><time>2026-03-22T10:18:30.999Z</time></trkpt><trkpt lat="39.57618458396665" lon="15.870580626094599"><ele>31.5</ele><time>2026-03-22T10:18:31.999Z</time></trkpt><trkpt lat="39.57641266256909" lon="15.870469462315832"><ele>34.0</ele><time>2026-03-22T10:18:32.998Z</time></trkpt><trkpt lat="39.57664096079954" lon="15.870355814672111"><ele>34.0</ele><time>2026-03-22T10:18:33.998Z</time></trkpt><trkpt lat="39.57687233784729" lon="15.870244689094932"><ele>34.0</ele><time>2026-03-22T10:18:34.998Z</time></trkpt><trkpt lat="39.57710835735897" lon="15.870133365603714"><ele>29.5</ele><time>2026-03-22T10:18:35.998Z</time></trkpt><trkpt lat="39.57734465619446" lon="15.870018167875433"><ele>25.0</ele><time>2026-03-22T10:18:36.998Z</time></trkpt><trkpt lat="39.577568907603805" lon="15.869910534900864"><ele>25.0</ele><time>2026-03-22T10:18:37.998Z</time></trkpt><trkpt lat="39.57777697593525" lon="15.869816969890179"><ele>25.0</ele><time>2026-03-22T10:18:38.998Z</time></trkpt><trkpt lat="39.577982707785104" lon="15.86973821432134"><ele>25.0</ele><time>2026-03-22T10:18:39.998Z</time></trkpt><trkpt lat="39.57818247344091" lon="15.869675411476523"><ele>29.0</ele><time>2026-03-22T10:18:40.998Z</time></trkpt><trkpt lat="39.578376760085085" lon="15.86962276525007"><ele>33.0</ele><time>2026-03-22T10:18:41.998Z</time></trkpt><trkpt lat="39.57856095717848" lon="15.869581017116701"><ele>37.0</ele><time>2026-03-22T10:18:42.998Z</time></trkpt><trkpt lat="39.5787415868436" lon="15.869554133786725"><ele>38.66666666666667</ele><time>2026-03-22T10:18:43.998Z</time></trkpt><trkpt lat="39.57891764628391" lon="15.869542373006924"><ele>40.333333333333336</ele><time>2026-03-22T10:18:44.998Z</time></trkpt><trkpt lat="39.57908960837449" lon="15.869540474678677"><ele>42.0</ele><time>2026-03-22T10:18:45.998Z</time></trkpt><trkpt lat="39.579262422377866" lon="15.869543623061272"><ele>42.0</ele><time>2026-03-22T10:18:46.998Z</time></trkpt><trkpt lat="39.57943587323749" lon="15.86954993102964"><ele>42.0</ele><time>2026-03-22T10:18:47.998Z</time></trkpt><trkpt lat="39.57960355072285" lon="15.86956006226647"><ele>42.0</ele><time>2026-03-22T10:18:48.998Z</time></trkpt><trkpt lat="39.57976796769226" lon="15.869570978064981"><ele>41.333333333333336</ele><time>2026-03-22T10:18:49.998Z</time></trkpt><trkpt lat="39.57993131213425" lon="15.869578288758234"><ele>40.66666666666667</ele><time>2026-03-22T10:18:50.999Z</time></trkpt><trkpt lat="39.58009655182791" lon="15.86958363925348"><ele>40.0</ele><time>2026-03-22T10:18:51.999Z</time></trkpt><trkpt lat="39.58026469772796" lon="15.869590786764737"><ele>39.66666666666667</ele><time>2026-03-22T10:18:52.999Z</time></trkpt><trkpt lat="39.58043684043478" lon="15.869599164008674"><ele>39.333333333333336</ele><time>2026-03-22T10:18:53.999Z</time></trkpt><trkpt lat="39.58060895708832" lon="15.869606266681812"><ele>39.0</ele><time>2026-03-22T10:18:54.999Z</time></trkpt><trkpt lat="39.58078613054459" lon="15.869614809745494"><ele>39.0</ele><time>2026-03-22T10:18:55.999Z</time></trkpt><trkpt lat="39.58096281895092" lon="15.869624449919796"><ele>39.0</ele><time>2026-03-22T10:18:56.999Z</time></trkpt><trkpt lat="39.58114100995869" lon="15.869637308222451"><ele>39.0</ele><time>2026-03-22T10:18:57.999Z</time></trkpt><trkpt lat="39.58131927818237" lon="15.869652421531113"><ele>38.666666666666664</ele><time>2026-03-22T10:18:58.999Z</time></trkpt><trkpt lat="39.581497278620915" lon="15.86966682754958"><ele>38.33333333333333</ele><time>2026-03-22T10:18:59.999Z</time></trkpt><trkpt lat="39.581675747318364" lon="15.86968296743798"><ele>38.0</ele><time>2026-03-22T10:19:00.999Z</time></trkpt><trkpt lat="39.58185569475582" lon="15.86970000560073"><ele>38.33333333333333</ele><time>2026-03-22T10:19:01.999Z</time></trkpt><trkpt lat="39.58203672119495" lon="15.869716119408816"><ele>38.666666666666664</ele><time>2026-03-22T10:19:02.999Z</time></trkpt><trkpt lat="39.5822192017509" lon="15.869730510803507"><ele>39.0</ele><time>2026-03-22T10:19:03.999Z</time></trkpt><trkpt lat="39.582403238487316" lon="15.869743584094802"><ele>39.0</ele><time>2026-03-22T10:19:04.999Z</time></trkpt><trkpt lat="39.582590207613976" lon="15.86976103383629"><ele>39.0</ele><time>2026-03-22T10:19:05.999Z</time></trkpt><trkpt lat="39.58277870224889" lon="15.869781584573582"><ele>39.0</ele><time>2026-03-22T10:19:06.999Z</time></trkpt><trkpt lat="39.58296985067104" lon="15.869809988789902"><ele>39.666666666666664</ele><time>2026-03-22T10:19:07.999Z</time></trkpt><trkpt lat="39.58315789126003" lon="15.869852862278028"><ele>40.33333333333333</ele><time>2026-03-22T10:19:08.999Z</time></trkpt><trkpt lat="39.5833459556036" lon="15.869902359597903"><ele>41.0</ele><time>2026-03-22T10:19:09.999Z</time></trkpt><trkpt lat="39.58353170321967" lon="15.86995258998895"><ele>39.33333333333333</ele><time>2026-03-22T10:19:10.999Z</time></trkpt><trkpt lat="39.583718455150525" lon="15.870004854176774"><ele>37.666666666666664</ele><time>2026-03-22T10:19:11.999Z</time></trkpt><trkpt lat="39.58390451054498" lon="15.870058520034"><ele>36.0</ele><time>2026-03-22T10:19:12.999Z</time></trkpt><trkpt lat="39.58408959954361" lon="15.870112200187044"><ele>42.0</ele><time>2026-03-22T10:19:13.999Z</time></trkpt><trkpt lat="39.58427321519131" lon="15.870166556053391"><ele>48.0</ele><time>2026-03-22T10:19:14.999Z</time></trkpt><trkpt lat="39.58445749942805" lon="15.87022076357317"><ele>54.0</ele><time>2026-03-22T10:19:15.999Z</time></trkpt><trkpt lat="39.5846403570915" lon="15.870273907400101"><ele>54.0</ele><time>2026-03-22T10:19:16.999Z</time></trkpt><trkpt lat="39.5848243731344" lon="15.870325761908427"><ele>54.0</ele><time>2026-03-22T10:19:17.999Z</time></trkpt><trkpt lat="39.58500847415297" lon="15.870374032891851"><ele>54.0</ele><time>2026-03-22T10:19:18.999Z</time></trkpt><trkpt lat="39.5851900160692" lon="15.870438277615845"><ele>46.333333333333336</ele><time>2026-03-22T10:19:19.999Z</time></trkpt><trkpt lat="39.5853768877596" lon="15.870451201057708"><ele>38.66666666666667</ele><time>2026-03-22T10:19:20.999Z</time></trkpt><trkpt lat="39.58556220624702" lon="15.870496720730804"><ele>31.0</ele><time>2026-03-22T10:19:21.999Z</time></trkpt><trkpt lat="39.58575156487052" lon="15.870512186003257"><ele>31.0</ele><time>2026-03-22T10:19:22.999Z</time></trkpt><trkpt lat="39.58593969222199" lon="15.870518860872773"><ele>31.0</ele><time>2026-03-22T10:19:23.999Z</time></trkpt><trkpt lat="39.5861247717862" lon="15.870489516701456"><ele>31.0</ele><time>2026-03-22T10:19:24.999Z</time></trkpt><trkpt lat="39.586297571993974" lon="15.870474771490718"><ele>30.0</ele><time>2026-03-22T10:19:25.999Z</time></trkpt><trkpt lat="39.586459584698666" lon="15.870476425822124"><ele>29.0</ele><time>2026-03-22T10:19:26.999Z</time></trkpt><trkpt lat="39.58661003799265" lon="15.87045504201694"><ele>28.0</ele><time>2026-03-22T10:19:27.999Z</time></trkpt><trkpt lat="39.58674918312913" lon="15.870424309059485"><ele>28.0</ele><time>2026-03-22T10:19:28.999Z</time></trkpt><trkpt lat="39.58689034761167" lon="15.870388989884823"><ele>28.0</ele><time>2026-03-22T10:19:29.999Z</time></trkpt><trkpt lat="39.587041135779586" lon="15.870344849813332"><ele>28.0</ele><time>2026-03-22T10:19:30.999Z</time></trkpt><trkpt lat="39.5872003028543" lon="15.870265348871532"><ele>28.333333333333336</ele><time>2026-03-22T10:19:31.999Z</time></trkpt><trkpt lat="39.587374276185315" lon="15.870193624452513"><ele>28.666666666666664</ele><time>2026-03-22T10:19:32.999Z</time></trkpt><trkpt lat="39.58755291290387" lon="15.870105861390268"><ele>29.0</ele><time>2026-03-22T10:19:33.999Z</time></trkpt><trkpt lat="39.58773938511441" lon="15.870006258323452"><ele>31.666666666666664</ele><time>2026-03-22T10:19:34.999Z</time></trkpt><trkpt lat="39.5879347560206" lon="15.86989269617599"><ele>34.333333333333336</ele><time>2026-03-22T10:19:35.999Z</time></trkpt><trkpt lat="39.58813895348848" lon="15.869767692675861"><ele>37.0</ele><time>2026-03-22T10:19:36.999Z</time></trkpt><trkpt lat="39.588338761715896" lon="15.869641975826"><ele>37.0</ele><time>2026-03-22T10:19:37.999Z</time></trkpt><trkpt lat="39.5885417189647" lon="15.869513155617664"><ele>37.0</ele><time>2026-03-22T10:19:38.999Z</time></trkpt><trkpt lat="39.58875075174796" lon="15.869379437462033"><ele>38.0</ele><time>2026-03-22T10:19:39.999Z</time></trkpt><trkpt lat="39.58895849340931" lon="15.869246035993514"><ele>39.0</ele><time>2026-03-22T10:19:40.999Z</time></trkpt><trkpt lat="39.58916304689439" lon="15.869116753540165"><ele>39.0</ele><time>2026-03-22T10:19:41.999Z</time></trkpt><trkpt lat="39.5893655082074" lon="15.868987261295656"><ele>39.0</ele><time>2026-03-22T10:19:42.999Z</time></trkpt><trkpt lat="39.58956959683802" lon="15.868856879240708"><ele>43.0</ele><time>2026-03-22T10:19:43.999Z</time></trkpt><trkpt lat="39.58977536967633" lon="15.868732307283748"><ele>47.0</ele><time>2026-03-22T10:19:44.999Z</time></trkpt><trkpt lat="39.58998563996446" lon="15.868619064613636"><ele>47.0</ele><time>2026-03-22T10:19:45.999Z</time></trkpt><trkpt lat="39.59020118843853" lon="15.86851981349942"><ele>47.0</ele><time>2026-03-22T10:19:46.999Z</time></trkpt><trkpt lat="39.590423176349" lon="15.868434728260272"><ele>44.0</ele><time>2026-03-22T10:19:47.999Z</time></trkpt><trkpt lat="39.5906526718856" lon="15.868363972916294"><ele>41.0</ele><time>2026-03-22T10:19:48.999Z</time></trkpt><trkpt lat="39.5908818915036" lon="15.868295329853975"><ele>41.0</ele><time>2026-03-22T10:19:49.999Z</time></trkpt><trkpt lat="39.591112831919766" lon="15.86823208187697"><ele>41.0</ele><time>2026-03-22T10:19:50.999Z</time></trkpt><trkpt lat="39.591344444780404" lon="15.868164907647119"><ele>42.0</ele><time>2026-03-22T10:19:51.999Z</time></trkpt><trkpt lat="39.59157506920862" lon="15.868096775504418"><ele>43.0</ele><time>2026-03-22T10:19:52.999Z</time></trkpt><trkpt lat="39.591804994616254" lon="15.868026839106797"><ele>47.5</ele><time>2026-03-22T10:19:53.999Z</time></trkpt><trkpt lat="39.5920344654698" lon="15.867947924050274"><ele>52.0</ele><time>2026-03-22T10:19:54.999Z</time></trkpt><trkpt lat="39.592257402403895" lon="15.867850102249152"><ele>52.0</ele><time>2026-03-22T10:19:55.999Z</time></trkpt><trkpt lat="39.59247544608377" lon="15.867725863027424"><ele>52.0</ele><time>2026-03-22T10:19:56.999Z</time></trkpt><trkpt lat="39.59268760845562" lon="15.867580624356885"><ele>51.0</ele><time>2026-03-22T10:19:57.999Z</time></trkpt><trkpt lat="39.59289012849167" lon="15.867411244800962"><ele>50.0</ele><time>2026-03-22T10:19:58.999Z</time></trkpt><trkpt lat="39.59308064007347" lon="15.86721654571349"><ele>50.0</ele><time>2026-03-22T10:19:59.999Z</time></trkpt><trkpt lat="39.593257511721426" lon="15.867001955682445"><ele>50.0</ele><time>2026-03-22T10:20:00.999Z</time></trkpt><trkpt lat="39.59341257392022" lon="15.866779018787652"><ele>50.0</ele><time>2026-03-22T10:20:01.999Z</time></trkpt><trkpt lat="39.59355526332334" lon="15.86655466264387"><ele>50.0</ele><time>2026-03-22T10:20:02.999Z</time></trkpt><trkpt lat="39.59369136216948" lon="15.86633282847108"><ele>50.0</ele><time>2026-03-22T10:20:03.999Z</time></trkpt><trkpt lat="39.593821676432555" lon="15.866113859349328"><ele>46.66666666666667</ele><time>2026-03-22T10:20:04.999Z</time></trkpt><trkpt lat="39.593951487111305" lon="15.865897077512368"><ele>43.333333333333336</ele><time>2026-03-22T10:20:05.999Z</time></trkpt><trkpt lat="39.59408118566376" lon="15.865678621584784"><ele>40.0</ele><time>2026-03-22T10:20:06.999Z</time></trkpt><trkpt lat="39.59421161158897" lon="15.865458924716775"><ele>40.0</ele><time>2026-03-22T10:20:07.999Z</time></trkpt><trkpt lat="39.59434561418072" lon="15.865249500890325"><ele>40.0</ele><time>2026-03-22T10:20:08.999Z</time></trkpt><trkpt lat="39.59448812193765" lon="15.86504987299393"><ele>40.0</ele><time>2026-03-22T10:20:09.999Z</time></trkpt><trkpt lat="39.59463994722891" lon="15.864863637714494"><ele>42.0</ele><time>2026-03-22T10:20:10.999Z</time></trkpt><trkpt lat="39.59480368027322" lon="15.864689328273222"><ele>44.0</ele><time>2026-03-22T10:20:11.999Z</time></trkpt><trkpt lat="39.59497886620929" lon="15.864524826500498"><ele>46.0</ele><time>2026-03-22T10:20:12.999Z</time></trkpt><trkpt lat="39.595160854286476" lon="15.864371157645799"><ele>46.333333333333336</ele><time>2026-03-22T10:20:13.999Z</time></trkpt><trkpt lat="39.59534563024835" lon="15.864220083054864"><ele>46.666666666666664</ele><time>2026-03-22T10:20:14.999Z</time></trkpt><trkpt lat="39.59552955623265" lon="15.864065544984106"><ele>47.0</ele><time>2026-03-22T10:20:15.999Z</time></trkpt><trkpt lat="39.59571583278283" lon="15.863916062993571"><ele>47.0</ele><time>2026-03-22T10:20:16.999Z</time></trkpt><trkpt lat="39.59590751343029" lon="15.863778063001918"><ele>47.0</ele><time>2026-03-22T10:20:17.999Z</time></trkpt><trkpt lat="39.5961050890577" lon="15.863657853530073"><ele>47.0</ele><time>2026-03-22T10:20:18.999Z</time></trkpt><trkpt lat="39.59630918703878" lon="15.863559041743013"><ele>46.0</ele><time>2026-03-22T10:20:19.999Z</time></trkpt><trkpt lat="39.59651812210032" lon="15.863482485100272"><ele>45.0</ele><time>2026-03-22T10:20:20.999Z</time></trkpt><trkpt lat="39.59673492582981" lon="15.86345418989387"><ele>44.0</ele><time>2026-03-22T10:20:21.999Z</time></trkpt><trkpt lat="39.5969467104694" lon="15.863396796152879"><ele>38.33333333333333</ele><time>2026-03-22T10:20:22.999Z</time></trkpt><trkpt lat="39.59715587540232" lon="15.863368042810139"><ele>32.666666666666664</ele><time>2026-03-22T10:20:23.999Z</time></trkpt><trkpt lat="39.59735421113316" lon="15.863334279954174"><ele>27.0</ele><time>2026-03-22T10:20:24.999Z</time></trkpt><trkpt lat="39.59754046678512" lon="15.863298152980459"><ele>27.0</ele><time>2026-03-22T10:20:25.999Z</time></trkpt><trkpt lat="39.597716818611374" lon="15.863264532771739"><ele>27.0</ele><time>2026-03-22T10:20:26.999Z</time></trkpt><trkpt lat="39.597886258507216" lon="15.86323433987699"><ele>27.0</ele><time>2026-03-22T10:20:27.999Z</time></trkpt><trkpt lat="39.59804586327494" lon="15.863208563644925"><ele>27.666666666666664</ele><time>2026-03-22T10:20:28.999Z</time></trkpt><trkpt lat="39.59819770377254" lon="15.863183187888051"><ele>28.333333333333332</ele><time>2026-03-22T10:20:29.999Z</time></trkpt><trkpt lat="39.598348662561236" lon="15.86315588364813"><ele>29.0</ele><time>2026-03-22T10:20:30.999Z</time></trkpt><trkpt lat="39.598498007512006" lon="15.863127194624408"><ele>29.0</ele><time>2026-03-22T10:20:31.999Z</time></trkpt><trkpt lat="39.59864535935036" lon="15.863096549075737"><ele>29.0</ele><time>2026-03-22T10:20:32.999Z</time></trkpt><trkpt lat="39.598790544217394" lon="15.863066293782717"><ele>29.0</ele><time>2026-03-22T10:20:33.999Z</time></trkpt><trkpt lat="39.59892924576704" lon="15.863040094211172"><ele>29.0</ele><time>2026-03-22T10:20:34.999Z</time></trkpt><trkpt lat="39.599064076727565" lon="15.863016125462597"><ele>29.5</ele><time>2026-03-22T10:20:35.999Z</time></trkpt><trkpt lat="39.599193109489114" lon="15.862993798826945"><ele>30.0</ele><time>2026-03-22T10:20:36.998Z</time></trkpt><trkpt lat="39.59931920935486" lon="15.862968379345949"><ele>30.5</ele><time>2026-03-22T10:20:37.998Z</time></trkpt><trkpt lat="39.59944132901181" lon="15.86294326308444"><ele>31.0</ele><time>2026-03-22T10:20:38.998Z</time></trkpt><trkpt lat="39.5995623540796" lon="15.86291677749876"><ele>31.75</ele><time>2026-03-22T10:20:39.998Z</time></trkpt><trkpt lat="39.59968271378869" lon="15.86288858324323"><ele>32.5</ele><time>2026-03-22T10:20:40.998Z</time></trkpt><trkpt lat="39.59980471475282" lon="15.862862773678204"><ele>33.25</ele><time>2026-03-22T10:20:41.998Z</time></trkpt><trkpt lat="39.59992825712105" lon="15.862837930311366"><ele>34.0</ele><time>2026-03-22T10:20:42.998Z</time></trkpt><trkpt lat="39.60005553955372" lon="15.862807270023952"><ele>34.0</ele><time>2026-03-22T10:20:43.998Z</time></trkpt><trkpt lat="39.600187880917005" lon="15.86277584473156"><ele>34.0</ele><time>2026-03-22T10:20:44.998Z</time></trkpt><trkpt lat="39.600324119040685" lon="15.862741161934883"><ele>34.0</ele><time>2026-03-22T10:20:45.998Z</time></trkpt><trkpt lat="39.600468149253125" lon="15.862705493071598"><ele>34.0</ele><time>2026-03-22T10:20:46.998Z</time></trkpt><trkpt lat="39.60061630996546" lon="15.862669878421151"><ele>32.66666666666667</ele><time>2026-03-22T10:20:47.998Z</time></trkpt><trkpt lat="39.600768773141844" lon="15.862632633131872"><ele>31.333333333333336</ele><time>2026-03-22T10:20:48.998Z</time></trkpt><trkpt lat="39.60092322596014" lon="15.862596232263645"><ele>30.0</ele><time>2026-03-22T10:20:49.998Z</time></trkpt><trkpt lat="39.601080054247696" lon="15.86255803548481"><ele>33.0</ele><time>2026-03-22T10:20:50.998Z</time></trkpt><trkpt lat="39.601236320466896" lon="15.862518091947724"><ele>36.0</ele><time>2026-03-22T10:20:51.998Z</time></trkpt><trkpt lat="39.60139248481585" lon="15.862477843627646"><ele>39.0</ele><time>2026-03-22T10:20:52.998Z</time></trkpt><trkpt lat="39.60155175909131" lon="15.8624361715135"><ele>39.0</ele><time>2026-03-22T10:20:53.998Z</time></trkpt><trkpt lat="39.60171140308764" lon="15.8623957014059"><ele>39.0</ele><time>2026-03-22T10:20:54.998Z</time></trkpt><trkpt lat="39.601870437594904" lon="15.862356398640689"><ele>39.0</ele><time>2026-03-22T10:20:56Z</time></trkpt><trkpt lat="39.60203013402147" lon="15.862320546413926"><ele>41.333333333333336</ele><time>2026-03-22T10:20:57Z</time></trkpt><trkpt lat="39.60219112100536" lon="15.86228668527823"><ele>43.66666666666667</ele><time>2026-03-22T10:20:58Z</time></trkpt><trkpt lat="39.60235538306506" lon="15.862253939100933"><ele>46.0</ele><time>2026-03-22T10:20:59Z</time></trkpt><trkpt lat="39.60252182722512" lon="15.862220158235623"><ele>46.0</ele><time>2026-03-22T10:21:00Z</time></trkpt><trkpt lat="39.6026893368826" lon="15.862186710711503"><ele>46.0</ele><time>2026-03-22T10:21:01Z</time></trkpt><trkpt lat="39.60285451025907" lon="15.86215425928006"><ele>46.0</ele><time>2026-03-22T10:21:02Z</time></trkpt><trkpt lat="39.60302085153588" lon="15.862122170499612"><ele>48.333333333333336</ele><time>2026-03-22T10:21:03Z</time></trkpt><trkpt lat="39.6031873570527" lon="15.862088536472163"><ele>50.66666666666667</ele><time>2026-03-22T10:21:04Z</time></trkpt><trkpt lat="39.60335432856951" lon="15.862055465675565"><ele>53.0</ele><time>2026-03-22T10:21:05Z</time></trkpt><trkpt lat="39.603521483644485" lon="15.862021523631713"><ele>55.333333333333336</ele><time>2026-03-22T10:21:06Z</time></trkpt><trkpt lat="39.60368787081584" lon="15.861988081114037"><ele>57.66666666666667</ele><time>2026-03-22T10:21:07Z</time></trkpt><trkpt lat="39.603856093939854" lon="15.861952660875236"><ele>60.0</ele><time>2026-03-22T10:21:08Z</time></trkpt><trkpt lat="39.60402729446227" lon="15.861940757501387"><ele>60.0</ele><time>2026-03-22T10:21:09Z</time></trkpt><trkpt lat="39.60419158602979" lon="15.861887461803565"><ele>60.0</ele><time>2026-03-22T10:21:10Z</time></trkpt><trkpt lat="39.6043595280042" lon="15.861855977614898"><ele>60.0</ele><time>2026-03-22T10:21:11Z</time></trkpt><trkpt lat="39.604527812072405" lon="15.861825056248543"><ele>59.33333333333333</ele><time>2026-03-22T10:21:12Z</time></trkpt><trkpt lat="39.60469313889138" lon="15.86179193117682"><ele>58.666666666666664</ele><time>2026-03-22T10:21:13Z</time></trkpt><trkpt lat="39.604859739134554" lon="15.861757191573094"><ele>58.0</ele><time>2026-03-22T10:21:14Z</time></trkpt><trkpt lat="39.60502624654388" lon="15.861723326905992"><ele>54.0</ele><time>2026-03-22T10:21:15Z</time></trkpt><trkpt lat="39.60519018888781" lon="15.86169064914143"><ele>50.0</ele><time>2026-03-22T10:21:16Z</time></trkpt><trkpt lat="39.605346720162785" lon="15.861658864217176"><ele>46.0</ele><time>2026-03-22T10:21:17Z</time></trkpt><trkpt lat="39.60550135255724" lon="15.861630835115841"><ele>42.0</ele><time>2026-03-22T10:21:18Z</time></trkpt><trkpt lat="39.60564808251092" lon="15.861602134475838"><ele>38.0</ele><time>2026-03-22T10:21:19Z</time></trkpt><trkpt lat="39.60578972401151" lon="15.861573976722067"><ele>34.0</ele><time>2026-03-22T10:21:20Z</time></trkpt><trkpt lat="39.60593127224858" lon="15.861545795361218"><ele>30.0</ele><time>2026-03-22T10:21:21Z</time></trkpt><trkpt lat="39.606072443003384" lon="15.861517514016315"><ele>31.0</ele><time>2026-03-22T10:21:22Z</time></trkpt><trkpt lat="39.606214764941974" lon="15.861489193479223"><ele>32.0</ele><time>2026-03-22T10:21:23Z</time></trkpt><trkpt lat="39.60635675785651" lon="15.861460146378182"><ele>33.0</ele><time>2026-03-22T10:21:24Z</time></trkpt><trkpt lat="39.60649955776571" lon="15.861430571327142"><ele>34.0</ele><time>2026-03-22T10:21:25Z</time></trkpt><trkpt lat="39.606642735774834" lon="15.861400185741974"><ele>34.0</ele><time>2026-03-22T10:21:26Z</time></trkpt><trkpt lat="39.60678500364369" lon="15.861370269377108"><ele>34.0</ele><time>2026-03-22T10:21:26.999Z</time></trkpt><trkpt lat="39.60692789065074" lon="15.8613406714107"><ele>34.0</ele><time>2026-03-22T10:21:27.999Z</time></trkpt><trkpt lat="39.6070690154973" lon="15.861312263824196"><ele>34.0</ele><time>2026-03-22T10:21:28.999Z</time></trkpt><trkpt lat="39.60720998220007" lon="15.8612837482109"><ele>37.25</ele><time>2026-03-22T10:21:29.999Z</time></trkpt><trkpt lat="39.60734993704883" lon="15.861254607305451"><ele>40.5</ele><time>2026-03-22T10:21:30.999Z</time></trkpt><trkpt lat="39.60749236780092" lon="15.861245634135068"><ele>43.75</ele><time>2026-03-22T10:21:31.999Z</time></trkpt><trkpt lat="39.60763167030474" lon="15.861217136794494"><ele>47.0</ele><time>2026-03-22T10:21:32.999Z</time></trkpt><trkpt lat="39.60776777553241" lon="15.86116965094151"><ele>49.25</ele><time>2026-03-22T10:21:33.999Z</time></trkpt><trkpt lat="39.60790533385975" lon="15.86114314867265"><ele>51.5</ele><time>2026-03-22T10:21:34.999Z</time></trkpt><trkpt lat="39.608040807624185" lon="15.861117117184307"><ele>53.75</ele><time>2026-03-22T10:21:35.999Z</time></trkpt><trkpt lat="39.6081748065746" lon="15.861090430939651"><ele>56.0</ele><time>2026-03-22T10:21:36.999Z</time></trkpt><trkpt lat="39.608307814886686" lon="15.861062936536362"><ele>56.0</ele><time>2026-03-22T10:21:37.999Z</time></trkpt><trkpt lat="39.608441041409684" lon="15.861035445499615"><ele>56.0</ele><time>2026-03-22T10:21:38.999Z</time></trkpt><trkpt lat="39.60857368493468" lon="15.861008599128661"><ele>56.0</ele><time>2026-03-22T10:21:39.999Z</time></trkpt><trkpt lat="39.60870599626297" lon="15.860982110614952"><ele>56.0</ele><time>2026-03-22T10:21:40.999Z</time></trkpt><trkpt lat="39.608839016440264" lon="15.860955456190714"><ele>58.0</ele><time>2026-03-22T10:21:41.999Z</time></trkpt><trkpt lat="39.60897357483002" lon="15.86092939833962"><ele>60.0</ele><time>2026-03-22T10:21:42.999Z</time></trkpt><trkpt lat="39.60911012942841" lon="15.86090179765447"><ele>62.0</ele><time>2026-03-22T10:21:43.999Z</time></trkpt><trkpt lat="39.60924805154021" lon="15.86087294110636"><ele>64.0</ele><time>2026-03-22T10:21:44.999Z</time></trkpt><trkpt lat="39.60938993709518" lon="15.860843243332575"><ele>64.0</ele><time>2026-03-22T10:21:45.999Z</time></trkpt><trkpt lat="39.609534614566606" lon="15.860812912564336"><ele>64.0</ele><time>2026-03-22T10:21:46.999Z</time></trkpt><trkpt lat="39.60968239738446" lon="15.86078484730071"><ele>64.0</ele><time>2026-03-22T10:21:47.999Z</time></trkpt><trkpt lat="39.609834155932056" lon="15.860756292402716"><ele>64.0</ele><time>2026-03-22T10:21:48.999Z</time></trkpt><trkpt lat="39.60998722358808" lon="15.860727386716222"><ele>64.0</ele><time>2026-03-22T10:21:49.999Z</time></trkpt><trkpt lat="39.61014498829122" lon="15.860697037395115"><ele>64.0</ele><time>2026-03-22T10:21:50.999Z</time></trkpt><trkpt lat="39.610305210140844" lon="15.860665929602108"><ele>64.0</ele><time>2026-03-22T10:21:51.999Z</time></trkpt><trkpt lat="39.61046933806221" lon="15.860631985912594"><ele>62.666666666666664</ele><time>2026-03-22T10:21:52.999Z</time></trkpt><trkpt lat="39.61063591221179" lon="15.860597398569725"><ele>61.33333333333333</ele><time>2026-03-22T10:21:53.999Z</time></trkpt><trkpt lat="39.610801525928814" lon="15.86056460294687"><ele>60.0</ele><time>2026-03-22T10:21:54.999Z</time></trkpt><trkpt lat="39.61096853697566" lon="15.860533818641724"><ele>60.0</ele><time>2026-03-22T10:21:55.999Z</time></trkpt><trkpt lat="39.611135686393986" lon="15.860499919601304"><ele>60.0</ele><time>2026-03-22T10:21:56.999Z</time></trkpt><trkpt lat="39.611303922836655" lon="15.860466436295152"><ele>60.0</ele><time>2026-03-22T10:21:57.999Z</time></trkpt><trkpt lat="39.611473970398684" lon="15.860432306216245"><ele>55.0</ele><time>2026-03-22T10:21:58.999Z</time></trkpt><trkpt lat="39.611641746754664" lon="15.860397976703211"><ele>50.0</ele><time>2026-03-22T10:21:59.999Z</time></trkpt><trkpt lat="39.61181024846252" lon="15.86036416311929"><ele>45.0</ele><time>2026-03-22T10:22:00.999Z</time></trkpt><trkpt lat="39.61197956243754" lon="15.860330622582012"><ele>45.0</ele><time>2026-03-22T10:22:01.999Z</time></trkpt><trkpt lat="39.61214837470809" lon="15.860296404394171"><ele>45.0</ele><time>2026-03-22T10:22:02.999Z</time></trkpt><trkpt lat="39.612315825110656" lon="15.860263235251361"><ele>45.0</ele><time>2026-03-22T10:22:03.999Z</time></trkpt><trkpt lat="39.61248318988456" lon="15.860231103609756"><ele>45.0</ele><time>2026-03-22T10:22:04.999Z</time></trkpt><trkpt lat="39.612652528482535" lon="15.860197871355103"><ele>45.0</ele><time>2026-03-22T10:22:05.999Z</time></trkpt><trkpt lat="39.612819538108134" lon="15.860164641251854"><ele>45.0</ele><time>2026-03-22T10:22:06.999Z</time></trkpt><trkpt lat="39.612986003624854" lon="15.860129957169663"><ele>52.0</ele><time>2026-03-22T10:22:07.999Z</time></trkpt><trkpt lat="39.61315327212033" lon="15.86009629584282"><ele>59.0</ele><time>2026-03-22T10:22:08.999Z</time></trkpt><trkpt lat="39.61331987679272" lon="15.860063535549969"><ele>66.0</ele><time>2026-03-22T10:22:09.999Z</time></trkpt><trkpt lat="39.61348644466704" lon="15.860031290156114"><ele>66.0</ele><time>2026-03-22T10:22:10.999Z</time></trkpt><trkpt lat="39.61364963941631" lon="15.859997317467101"><ele>66.0</ele><time>2026-03-22T10:22:11.999Z</time></trkpt><trkpt lat="39.61380942412019" lon="15.859957702290126"><ele>66.0</ele><time>2026-03-22T10:22:12.999Z</time></trkpt><trkpt lat="39.613969936036206" lon="15.85993405023413"><ele>69.66666666666667</ele><time>2026-03-22T10:22:13.999Z</time></trkpt><trkpt lat="39.61412241496569" lon="15.859881756185262"><ele>73.33333333333334</ele><time>2026-03-22T10:22:14.999Z</time></trkpt><trkpt lat="39.614260453110994" lon="15.859800677192224"><ele>77.0</ele><time>2026-03-22T10:22:15.999Z</time></trkpt><trkpt lat="39.614414670726575" lon="15.859748853270968"><ele>79.33333333333334</ele><time>2026-03-22T10:22:16.999Z</time></trkpt><trkpt lat="39.61456136527151" lon="15.85966399323927"><ele>81.66666666666667</ele><time>2026-03-22T10:22:17.999Z</time></trkpt><trkpt lat="39.61469917436455" lon="15.859553697239356"><ele>84.0</ele><time>2026-03-22T10:22:18.999Z</time></trkpt><trkpt lat="39.61484484522475" lon="15.859457923479898"><ele>84.0</ele><time>2026-03-22T10:22:19.999Z</time></trkpt><trkpt lat="39.61499128867716" lon="15.859359015647966"><ele>84.0</ele><time>2026-03-22T10:22:20.999Z</time></trkpt><trkpt lat="39.61513999237892" lon="15.859258230680318"><ele>84.0</ele><time>2026-03-22T10:22:21.999Z</time></trkpt><trkpt lat="39.615290021647404" lon="15.859160072835921"><ele>83.0</ele><time>2026-03-22T10:22:22.999Z</time></trkpt><trkpt lat="39.615443259732196" lon="15.859058423311888"><ele>82.0</ele><time>2026-03-22T10:22:23.999Z</time></trkpt><trkpt lat="39.61559408219175" lon="15.858956234823841"><ele>81.0</ele><time>2026-03-22T10:22:24.999Z</time></trkpt><trkpt lat="39.615746384373054" lon="15.858851507401313"><ele>81.0</ele><time>2026-03-22T10:22:25.999Z</time></trkpt><trkpt lat="39.61589893623003" lon="15.858749401610263"><ele>81.0</ele><time>2026-03-22T10:22:26.999Z</time></trkpt><trkpt lat="39.61605652463462" lon="15.858666469094258"><ele>81.0</ele><time>2026-03-22T10:22:27.999Z</time></trkpt><trkpt lat="39.61619936645684" lon="15.858570982112791"><ele>82.0</ele><time>2026-03-22T10:22:28.999Z</time></trkpt><trkpt lat="39.61633598791232" lon="15.858479653227867"><ele>83.0</ele><time>2026-03-22T10:22:29.999Z</time></trkpt><trkpt lat="39.61646770868085" lon="15.85839159831284"><ele>84.0</ele><time>2026-03-22T10:22:30.999Z</time></trkpt><trkpt lat="39.61659769847174" lon="15.85830609029232"><ele>85.0</ele><time>2026-03-22T10:22:31.999Z</time></trkpt><trkpt lat="39.61672940276506" lon="15.85821843646531"><ele>82.33333333333333</ele><time>2026-03-22T10:22:32.999Z</time></trkpt><trkpt lat="39.61685632049478" lon="15.85811467660234"><ele>79.66666666666667</ele><time>2026-03-22T10:22:33.999Z</time></trkpt><trkpt lat="39.616991536709776" lon="15.858030916795764"><ele>77.0</ele><time>2026-03-22T10:22:34.999Z</time></trkpt><trkpt lat="39.61712928186197" lon="15.857949412581766"><ele>76.66666666666667</ele><time>2026-03-22T10:22:35.999Z</time></trkpt><trkpt lat="39.61727241932015" lon="15.85787259403219"><ele>76.33333333333333</ele><time>2026-03-22T10:22:36.999Z</time></trkpt><trkpt lat="39.61741960288435" lon="15.85780016863833"><ele>76.0</ele><time>2026-03-22T10:22:37.999Z</time></trkpt><trkpt lat="39.617571376543985" lon="15.85773654931464"><ele>76.0</ele><time>2026-03-22T10:22:38.999Z</time></trkpt><trkpt lat="39.61772811747218" lon="15.857680864767913"><ele>76.0</ele><time>2026-03-22T10:22:39.999Z</time></trkpt><trkpt lat="39.617889740875825" lon="15.857630698103998"><ele>76.0</ele><time>2026-03-22T10:22:40.999Z</time></trkpt><trkpt lat="39.61805490921889" lon="15.857585364360402"><ele>73.66666666666666</ele><time>2026-03-22T10:22:41.999Z</time></trkpt><trkpt lat="39.61822526469867" lon="15.857546019603394"><ele>71.33333333333333</ele><time>2026-03-22T10:22:42.999Z</time></trkpt><trkpt lat="39.61839513397148" lon="15.85752032470761"><ele>69.0</ele><time>2026-03-22T10:22:43.999Z</time></trkpt><trkpt lat="39.61856472537902" lon="15.857504627776505"><ele>67.66666666666667</ele><time>2026-03-22T10:22:44.999Z</time></trkpt><trkpt lat="39.61873592099439" lon="15.85749278378652"><ele>66.33333333333334</ele><time>2026-03-22T10:22:45.999Z</time></trkpt><trkpt lat="39.61890535849977" lon="15.857483109837727"><ele>65.0</ele><time>2026-03-22T10:22:46.999Z</time></trkpt><trkpt lat="39.61907580531585" lon="15.857476111628312"><ele>65.0</ele><time>2026-03-22T10:22:47.999Z</time></trkpt><trkpt lat="39.61924716653082" lon="15.857472335999319"><ele>65.0</ele><time>2026-03-22T10:22:48.999Z</time></trkpt><trkpt lat="39.619418954327685" lon="15.857468909734873"><ele>65.0</ele><time>2026-03-22T10:22:49.999Z</time></trkpt><trkpt lat="39.61958964741707" lon="15.85746553293655"><ele>63.333333333333336</ele><time>2026-03-22T10:22:50.999Z</time></trkpt><trkpt lat="39.619759284429044" lon="15.857462803061756"><ele>61.66666666666667</ele><time>2026-03-22T10:22:51.999Z</time></trkpt><trkpt lat="39.619930134148746" lon="15.857480495182493"><ele>60.0</ele><time>2026-03-22T10:22:52.999Z</time></trkpt><trkpt lat="39.62009965449289" lon="15.857476415415643"><ele>60.0</ele><time>2026-03-22T10:22:53.999Z</time></trkpt><trkpt lat="39.62026954384998" lon="15.857472282500979"><ele>60.0</ele><time>2026-03-22T10:22:54.999Z</time></trkpt><trkpt lat="39.62044023348195" lon="15.857468017477135"><ele>60.0</ele><time>2026-03-22T10:22:55.999Z</time></trkpt><trkpt lat="39.62060841589435" lon="15.857443168859103"><ele>57.33333333333333</ele><time>2026-03-22T10:22:56.999Z</time></trkpt><trkpt lat="39.62077400510418" lon="15.857445503628298"><ele>54.666666666666664</ele><time>2026-03-22T10:22:57.999Z</time></trkpt><trkpt lat="39.62093730638957" lon="15.85744068131565"><ele>52.0</ele><time>2026-03-22T10:22:58.999Z</time></trkpt><trkpt lat="39.62109826977641" lon="15.857432262600634"><ele>49.33333333333333</ele><time>2026-03-22T10:22:59.999Z</time></trkpt><trkpt lat="39.6212576283079" lon="15.857429562934644"><ele>46.666666666666664</ele><time>2026-03-22T10:23:00.999Z</time></trkpt><trkpt lat="39.62141783366446" lon="15.8574255581299"><ele>44.0</ele><time>2026-03-22T10:23:02Z</time></trkpt><trkpt lat="39.62158067677966" lon="15.85741805432763"><ele>44.0</ele><time>2026-03-22T10:23:03Z</time></trkpt><trkpt lat="39.62174441883462" lon="15.857434360477855"><ele>44.0</ele><time>2026-03-22T10:23:04Z</time></trkpt><trkpt lat="39.62190553209061" lon="15.857405470231212"><ele>44.0</ele><time>2026-03-22T10:23:05Z</time></trkpt><trkpt lat="39.62206441439051" lon="15.857367468403133"><ele>43.666666666666664</ele><time>2026-03-22T10:23:06Z</time></trkpt><trkpt lat="39.62222514576964" lon="15.857344261577529"><ele>43.333333333333336</ele><time>2026-03-22T10:23:07Z</time></trkpt><trkpt lat="39.622381910264444" lon="15.857288004429643"><ele>43.0</ele><time>2026-03-22T10:23:08Z</time></trkpt><trkpt lat="39.622536888470194" lon="15.85721804950038"><ele>43.0</ele><time>2026-03-22T10:23:09Z</time></trkpt><trkpt lat="39.62268813238605" lon="15.857134034565762"><ele>43.0</ele><time>2026-03-22T10:23:10Z</time></trkpt><trkpt lat="39.62282979479991" lon="15.85702563905997"><ele>43.0</ele><time>2026-03-22T10:23:11Z</time></trkpt><trkpt lat="39.62297824557348" lon="15.856933672110035"><ele>39.66666666666667</ele><time>2026-03-22T10:23:12Z</time></trkpt><trkpt lat="39.62312597807349" lon="15.85684204296386"><ele>36.333333333333336</ele><time>2026-03-22T10:23:13Z</time></trkpt><trkpt lat="39.623268064378244" lon="15.856759762996187"><ele>33.0</ele><time>2026-03-22T10:23:14Z</time></trkpt><trkpt lat="39.6234057999113" lon="15.856674676064173"><ele>32.5</ele><time>2026-03-22T10:23:15Z</time></trkpt><trkpt lat="39.62353892258763" lon="15.85658649024981"><ele>32.0</ele><time>2026-03-22T10:23:16Z</time></trkpt><trkpt lat="39.623658853158496" lon="15.856495714775425"><ele>31.5</ele><time>2026-03-22T10:23:17Z</time></trkpt><trkpt lat="39.623778609909515" lon="15.856401605416735"><ele>31.0</ele><time>2026-03-22T10:23:18Z</time></trkpt><trkpt lat="39.62389202483922" lon="15.856298879408499"><ele>30.25</ele><time>2026-03-22T10:23:19Z</time></trkpt><trkpt lat="39.62400214026897" lon="15.856189780042842"><ele>29.5</ele><time>2026-03-22T10:23:20Z</time></trkpt><trkpt lat="39.62410775664181" lon="15.85607514189065"><ele>28.75</ele><time>2026-03-22T10:23:21Z</time></trkpt><trkpt lat="39.62421405093217" lon="15.855955885664525"><ele>28.0</ele><time>2026-03-22T10:23:22Z</time></trkpt><trkpt lat="39.624319568908845" lon="15.855825568605315"><ele>28.0</ele><time>2026-03-22T10:23:23Z</time></trkpt><trkpt lat="39.624426954097586" lon="15.855691004560356"><ele>28.0</ele><time>2026-03-22T10:23:24Z</time></trkpt><trkpt lat="39.624541364897645" lon="15.855552379758459"><ele>28.0</ele><time>2026-03-22T10:23:25Z</time></trkpt><trkpt lat="39.624655063569215" lon="15.855414393228786"><ele>28.0</ele><time>2026-03-22T10:23:26Z</time></trkpt><trkpt lat="39.624772382280206" lon="15.855271157476306"><ele>28.0</ele><time>2026-03-22T10:23:27Z</time></trkpt><trkpt lat="39.62488822924857" lon="15.855126244116782"><ele>28.0</ele><time>2026-03-22T10:23:28Z</time></trkpt><trkpt lat="39.625005083983474" lon="15.854977918275223"><ele>28.666666666666668</ele><time>2026-03-22T10:23:29Z</time></trkpt><trkpt lat="39.625126109740215" lon="15.854829844798134"><ele>29.333333333333336</ele><time>2026-03-22T10:23:30Z</time></trkpt><trkpt lat="39.6252451869944" lon="15.854683550404618"><ele>30.0</ele><time>2026-03-22T10:23:31Z</time></trkpt><trkpt lat="39.62536220901276" lon="15.854528739606307"><ele>31.666666666666664</ele><time>2026-03-22T10:23:32Z</time></trkpt><trkpt lat="39.62548180364755" lon="15.85437775411582"><ele>33.33333333333333</ele><time>2026-03-22T10:23:33Z</time></trkpt><trkpt lat="39.62560359151951" lon="15.854227619135216"><ele>35.0</ele><time>2026-03-22T10:23:34Z</time></trkpt><trkpt lat="39.62572269224682" lon="15.854077207754807"><ele>38.0</ele><time>2026-03-22T10:23:35Z</time></trkpt><trkpt lat="39.62584143217747" lon="15.853926137684418"><ele>41.0</ele><time>2026-03-22T10:23:36Z</time></trkpt><trkpt lat="39.62595956480626" lon="15.853775959926422"><ele>44.0</ele><time>2026-03-22T10:23:37Z</time></trkpt><trkpt lat="39.626078363867286" lon="15.853631463174173"><ele>45.0</ele><time>2026-03-22T10:23:38Z</time></trkpt><trkpt lat="39.62619261913354" lon="15.85348586699904"><ele>46.0</ele><time>2026-03-22T10:23:39Z</time></trkpt><trkpt lat="39.626304449929314" lon="15.853347545738194"><ele>47.0</ele><time>2026-03-22T10:23:40Z</time></trkpt><trkpt lat="39.6264174580444" lon="15.853199774459958"><ele>47.0</ele><time>2026-03-22T10:23:41Z</time></trkpt><trkpt lat="39.626535711201974" lon="15.853035672087243"><ele>47.0</ele><time>2026-03-22T10:23:42Z</time></trkpt><trkpt lat="39.62669025875447" lon="15.852862947539585"><ele>47.0</ele><time>2026-03-22T10:23:43Z</time></trkpt><trkpt lat="39.626834569715164" lon="15.852681629436695"><ele>48.0</ele><time>2026-03-22T10:23:44Z</time></trkpt><trkpt lat="39.627007726115615" lon="15.852440866318418"><ele>49.0</ele><time>2026-03-22T10:23:45Z</time></trkpt><trkpt lat="39.6271797733912" lon="15.852247522408197"><ele>49.0</ele><time>2026-03-22T10:23:45.999Z</time></trkpt><trkpt lat="39.62734863125815" lon="15.85204692847628"><ele>49.0</ele><time>2026-03-22T10:23:46.999Z</time></trkpt><trkpt lat="39.62751336562063" lon="15.851835068085633"><ele>45.5</ele><time>2026-03-22T10:23:47.999Z</time></trkpt><trkpt lat="39.62766759583524" lon="15.851614633621413"><ele>42.0</ele><time>2026-03-22T10:23:48.999Z</time></trkpt><trkpt lat="39.6278095792823" lon="15.851386474404174"><ele>42.333333333333336</ele><time>2026-03-22T10:23:49.999Z</time></trkpt><trkpt lat="39.62793873885078" lon="15.85115279795266"><ele>42.66666666666667</ele><time>2026-03-22T10:23:50.999Z</time></trkpt><trkpt lat="39.62805818874859" lon="15.850916296408993"><ele>43.0</ele><time>2026-03-22T10:23:51.999Z</time></trkpt><trkpt lat="39.62816883349117" lon="15.850678518325925"><ele>43.0</ele><time>2026-03-22T10:23:52.999Z</time></trkpt><trkpt lat="39.62827279558474" lon="15.850440216567153"><ele>43.0</ele><time>2026-03-22T10:23:53.999Z</time></trkpt><trkpt lat="39.62837228141982" lon="15.850200909123021"><ele>43.0</ele><time>2026-03-22T10:23:54.999Z</time></trkpt><trkpt lat="39.62846636878319" lon="15.849969322422186"><ele>41.66666666666667</ele><time>2026-03-22T10:23:55.999Z</time></trkpt><trkpt lat="39.6285583927986" lon="15.849741249664746"><ele>40.333333333333336</ele><time>2026-03-22T10:23:56.999Z</time></trkpt><trkpt lat="39.62864606049844" lon="15.849523224096737"><ele>39.0</ele><time>2026-03-22T10:23:57.999Z</time></trkpt><trkpt lat="39.628732873612265" lon="15.84930994136264"><ele>36.666666666666664</ele><time>2026-03-22T10:23:58.999Z</time></trkpt><trkpt lat="39.62882031596182" lon="15.84909384282683"><ele>34.33333333333333</ele><time>2026-03-22T10:23:59.999Z</time></trkpt><trkpt lat="39.62890794155217" lon="15.848874858366989"><ele>32.0</ele><time>2026-03-22T10:24:00.999Z</time></trkpt><trkpt lat="39.62899364107751" lon="15.848659763085752"><ele>31.333333333333332</ele><time>2026-03-22T10:24:01.999Z</time></trkpt><trkpt lat="39.629077356435" lon="15.848446143613462"><ele>30.666666666666664</ele><time>2026-03-22T10:24:02.999Z</time></trkpt><trkpt lat="39.629162324832535" lon="15.848235679953108"><ele>30.0</ele><time>2026-03-22T10:24:03.999Z</time></trkpt><trkpt lat="39.6292471583723" lon="15.848025851342932"><ele>30.0</ele><time>2026-03-22T10:24:04.999Z</time></trkpt><trkpt lat="39.629328274965104" lon="15.847816056069032"><ele>30.0</ele><time>2026-03-22T10:24:05.999Z</time></trkpt><trkpt lat="39.62940491279885" lon="15.84761460483082"><ele>30.0</ele><time>2026-03-22T10:24:06.999Z</time></trkpt><trkpt lat="39.62947482530276" lon="15.847447215143246"><ele>27.5</ele><time>2026-03-22T10:24:07.999Z</time></trkpt><trkpt lat="39.62953944745166" lon="15.847289137520747"><ele>25.0</ele><time>2026-03-22T10:24:08.999Z</time></trkpt><trkpt lat="39.62960578848271" lon="15.847119772035397"><ele>22.5</ele><time>2026-03-22T10:24:09.999Z</time></trkpt><trkpt lat="39.62967171785901" lon="15.846955216791825"><ele>20.0</ele><time>2026-03-22T10:24:10.999Z</time></trkpt><trkpt lat="39.62973908114644" lon="15.84679211839297"><ele>19.75</ele><time>2026-03-22T10:24:11.999Z</time></trkpt><trkpt lat="39.62980762225745" lon="15.846625742592439"><ele>19.5</ele><time>2026-03-22T10:24:12.999Z</time></trkpt><trkpt lat="39.62987621981667" lon="15.84646261600681"><ele>19.25</ele><time>2026-03-22T10:24:13.999Z</time></trkpt><trkpt lat="39.629940003673035" lon="15.84630428533285"><ele>19.0</ele><time>2026-03-22T10:24:14.999Z</time></trkpt><trkpt lat="39.63000272747871" lon="15.846145773378852"><ele>19.0</ele><time>2026-03-22T10:24:15.999Z</time></trkpt><trkpt lat="39.630065529261714" lon="15.845992266282778"><ele>19.0</ele><time>2026-03-22T10:24:16.999Z</time></trkpt><trkpt lat="39.630130715546045" lon="15.845839053357066"><ele>19.0</ele><time>2026-03-22T10:24:17.999Z</time></trkpt><trkpt lat="39.6302010596165" lon="15.845687095235391"><ele>19.0</ele><time>2026-03-22T10:24:18.999Z</time></trkpt><trkpt lat="39.63028032633469" lon="15.84554000507055"><ele>18.0</ele><time>2026-03-22T10:24:19.999Z</time></trkpt><trkpt lat="39.630366161236225" lon="15.845402022358686"><ele>17.0</ele><time>2026-03-22T10:24:20.999Z</time></trkpt><trkpt lat="39.63045813399159" lon="15.845274477468475"><ele>16.0</ele><time>2026-03-22T10:24:21.999Z</time></trkpt><trkpt lat="39.63055366507441" lon="15.84515842138782"><ele>15.0</ele><time>2026-03-22T10:24:22.999Z</time></trkpt><trkpt lat="39.63064723349376" lon="15.845049944453992"><ele>14.0</ele><time>2026-03-22T10:24:23.999Z</time></trkpt><trkpt lat="39.63074268638842" lon="15.844946360031987"><ele>13.0</ele><time>2026-03-22T10:24:24.999Z</time></trkpt><trkpt lat="39.630843578263296" lon="15.844842762025612"><ele>12.0</ele><time>2026-03-22T10:24:25.999Z</time></trkpt><trkpt lat="39.630947760447704" lon="15.844745042905842"><ele>11.0</ele><time>2026-03-22T10:24:26.999Z</time></trkpt><trkpt lat="39.63105568416391" lon="15.844653577644682"><ele>10.75</ele><time>2026-03-22T10:24:27.999Z</time></trkpt><trkpt lat="39.63116682075812" lon="15.844572383145662"><ele>10.5</ele><time>2026-03-22T10:24:28.999Z</time></trkpt><trkpt lat="39.63128108898234" lon="15.844499100317144"><ele>10.25</ele><time>2026-03-22T10:24:29.999Z</time></trkpt><trkpt lat="39.631398322703866" lon="15.844431942415943"><ele>10.0</ele><time>2026-03-22T10:24:30.999Z</time></trkpt><trkpt lat="39.63151773840602" lon="15.84437377773529"><ele>10.0</ele><time>2026-03-22T10:24:31.999Z</time></trkpt><trkpt lat="39.63163808268513" lon="15.844314231637512"><ele>10.0</ele><time>2026-03-22T10:24:32.999Z</time></trkpt><trkpt lat="39.63175500625691" lon="15.844252236420916"><ele>10.0</ele><time>2026-03-22T10:24:33.999Z</time></trkpt><trkpt lat="39.631870894255364" lon="15.844193533012458"><ele>10.0</ele><time>2026-03-22T10:24:34.999Z</time></trkpt><trkpt lat="39.63198648602599" lon="15.84413926954394"><ele>9.75</ele><time>2026-03-22T10:24:35.999Z</time></trkpt><trkpt lat="39.632105847261684" lon="15.844083243236387"><ele>9.5</ele><time>2026-03-22T10:24:36.999Z</time></trkpt><trkpt lat="39.632227259461374" lon="15.844027521858944"><ele>9.25</ele><time>2026-03-22T10:24:37.999Z</time></trkpt><trkpt lat="39.632348528455644" lon="15.843975719150492"><ele>9.0</ele><time>2026-03-22T10:24:38.999Z</time></trkpt><trkpt lat="39.63247098234149" lon="15.843927188854945"><ele>9.0</ele><time>2026-03-22T10:24:39.999Z</time></trkpt><trkpt lat="39.63259520833277" lon="15.84388503005351"><ele>9.0</ele><time>2026-03-22T10:24:40.999Z</time></trkpt><trkpt lat="39.63272258515167" lon="15.84384340085136"><ele>9.0</ele><time>2026-03-22T10:24:41.999Z</time></trkpt><trkpt lat="39.63284927074512" lon="15.843805593938841"><ele>9.0</ele><time>2026-03-22T10:24:42.999Z</time></trkpt><trkpt lat="39.63297890631956" lon="15.843768795170728"><ele>9.0</ele><time>2026-03-22T10:24:43.999Z</time></trkpt><trkpt lat="39.633111347628876" lon="15.843728205082623"><ele>9.0</ele><time>2026-03-22T10:24:44.999Z</time></trkpt><trkpt lat="39.63324549745028" lon="15.843688920838556"><ele>9.0</ele><time>2026-03-22T10:24:45.999Z</time></trkpt><trkpt lat="39.63338236540563" lon="15.843652732396817"><ele>9.0</ele><time>2026-03-22T10:24:46.999Z</time></trkpt><trkpt lat="39.63352239542635" lon="15.843616383081176"><ele>10.0</ele><time>2026-03-22T10:24:47.999Z</time></trkpt><trkpt lat="39.63366303614488" lon="15.843581295745716"><ele>11.0</ele><time>2026-03-22T10:24:48.999Z</time></trkpt><trkpt lat="39.63380020912161" lon="15.843545439608365"><ele>12.0</ele><time>2026-03-22T10:24:49.999Z</time></trkpt><trkpt lat="39.63393254421061" lon="15.84350919477245"><ele>13.0</ele><time>2026-03-22T10:24:50.999Z</time></trkpt><trkpt lat="39.6340597216409" lon="15.843472101993825"><ele>12.0</ele><time>2026-03-22T10:24:51.999Z</time></trkpt><trkpt lat="39.63418772937233" lon="15.843435858189183"><ele>11.0</ele><time>2026-03-22T10:24:52.999Z</time></trkpt><trkpt lat="39.63431871394931" lon="15.843400768271078"><ele>10.0</ele><time>2026-03-22T10:24:53.999Z</time></trkpt><trkpt lat="39.63444968142773" lon="15.84336537760161"><ele>9.0</ele><time>2026-03-22T10:24:54.999Z</time></trkpt><trkpt lat="39.634577932996635" lon="15.843330865912268"><ele>9.0</ele><time>2026-03-22T10:24:55.999Z</time></trkpt><trkpt lat="39.63470518026935" lon="15.843296249722071"><ele>9.0</ele><time>2026-03-22T10:24:56.999Z</time></trkpt><trkpt lat="39.63483036381812" lon="15.843261836390134"><ele>9.0</ele><time>2026-03-22T10:24:57.999Z</time></trkpt><trkpt lat="39.63495692259728" lon="15.843228406093356"><ele>9.0</ele><time>2026-03-22T10:24:58.999Z</time></trkpt><trkpt lat="39.635085560416385" lon="15.843193939844207"><ele>9.0</ele><time>2026-03-22T10:24:59.999Z</time></trkpt><trkpt lat="39.63521845196694" lon="15.843156868911912"><ele>9.0</ele><time>2026-03-22T10:25:00.999Z</time></trkpt><trkpt lat="39.635356516694124" lon="15.843119384110823"><ele>9.0</ele><time>2026-03-22T10:25:01.999Z</time></trkpt><trkpt lat="39.635496889216604" lon="15.843080297867896"><ele>9.0</ele><time>2026-03-22T10:25:02.999Z</time></trkpt><trkpt lat="39.63563813836248" lon="15.843043111455934"><ele>9.5</ele><time>2026-03-22T10:25:03.999Z</time></trkpt><trkpt lat="39.63577945584256" lon="15.84300558740355"><ele>10.0</ele><time>2026-03-22T10:25:04.999Z</time></trkpt><trkpt lat="39.635922607321454" lon="15.84296745434457"><ele>10.5</ele><time>2026-03-22T10:25:05.999Z</time></trkpt><trkpt lat="39.63606429346502" lon="15.842927403769213"><ele>11.0</ele><time>2026-03-22T10:25:06.999Z</time></trkpt><trkpt lat="39.63620508975919" lon="15.8428855782445"><ele>11.25</ele><time>2026-03-22T10:25:08Z</time></trkpt><trkpt lat="39.636343160290124" lon="15.84284740803426"><ele>11.5</ele><time>2026-03-22T10:25:09Z</time></trkpt><trkpt lat="39.636482732581136" lon="15.842809879885413"><ele>11.75</ele><time>2026-03-22T10:25:10Z</time></trkpt><trkpt lat="39.63662148616077" lon="15.84277118250823"><ele>12.0</ele><time>2026-03-22T10:25:11Z</time></trkpt><trkpt lat="39.63675920036986" lon="15.84273453675044"><ele>12.0</ele><time>2026-03-22T10:25:12Z</time></trkpt><trkpt lat="39.636893577767296" lon="15.842699677693425"><ele>12.0</ele><time>2026-03-22T10:25:13Z</time></trkpt><trkpt lat="39.637032583192415" lon="15.842668018654631"><ele>12.0</ele><time>2026-03-22T10:25:14Z</time></trkpt><trkpt lat="39.637180144656824" lon="15.84263856587177"><ele>12.0</ele><time>2026-03-22T10:25:15Z</time></trkpt><trkpt lat="39.63734082518729" lon="15.842632209483389"><ele>12.0</ele><time>2026-03-22T10:25:16Z</time></trkpt><trkpt lat="39.63750790156243" lon="15.842610230040636"><ele>12.0</ele><time>2026-03-22T10:25:17Z</time></trkpt><trkpt lat="39.637682974766406" lon="15.842590120865372"><ele>12.0</ele><time>2026-03-22T10:25:18Z</time></trkpt><trkpt lat="39.637873144216265" lon="15.842569203302729"><ele>12.0</ele><time>2026-03-22T10:25:19Z</time></trkpt><trkpt lat="39.63807928229879" lon="15.842544915682772"><ele>12.0</ele><time>2026-03-22T10:25:20Z</time></trkpt><trkpt lat="39.638273806899015" lon="15.84251909462406"><ele>12.0</ele><time>2026-03-22T10:25:21Z</time></trkpt><trkpt lat="39.63845796386376" lon="15.842478861735499"><ele>12.0</ele><time>2026-03-22T10:25:22Z</time></trkpt><trkpt lat="39.63862574677745" lon="15.842451483242913"><ele>12.0</ele><time>2026-03-22T10:25:23Z</time></trkpt><trkpt lat="39.63877543218273" lon="15.842416517362532"><ele>12.0</ele><time>2026-03-22T10:25:24Z</time></trkpt><trkpt lat="39.6389146201441" lon="15.842378025467594"><ele>12.0</ele><time>2026-03-22T10:25:25Z</time></trkpt><trkpt lat="39.63905087930234" lon="15.842336811407984"><ele>12.0</ele><time>2026-03-22T10:25:26Z</time></trkpt><trkpt lat="39.63918453018418" lon="15.842289057187982"><ele>12.0</ele><time>2026-03-22T10:25:27Z</time></trkpt><trkpt lat="39.639317413768765" lon="15.842239183760034"><ele>12.0</ele><time>2026-03-22T10:25:28Z</time></trkpt><trkpt lat="39.639451026322845" lon="15.84218163276773"><ele>12.0</ele><time>2026-03-22T10:25:29Z</time></trkpt><trkpt lat="39.639587553582636" lon="15.842120354905854"><ele>12.0</ele><time>2026-03-22T10:25:30Z</time></trkpt><trkpt lat="39.63972010088783" lon="15.842060016589755"><ele>12.0</ele><time>2026-03-22T10:25:31Z</time></trkpt><trkpt lat="39.639848178842676" lon="15.842001737617561"><ele>12.0</ele><time>2026-03-22T10:25:32Z</time></trkpt><trkpt lat="39.639978290309664" lon="15.841941845654194"><ele>12.0</ele><time>2026-03-22T10:25:33Z</time></trkpt><trkpt lat="39.640111346637596" lon="15.84187982040633"><ele>12.0</ele><time>2026-03-22T10:25:34Z</time></trkpt><trkpt lat="39.64024519640091" lon="15.841817431792126"><ele>12.0</ele><time>2026-03-22T10:25:35Z</time></trkpt><trkpt lat="39.64038143657773" lon="15.841754772392633"><ele>12.0</ele><time>2026-03-22T10:25:36Z</time></trkpt><trkpt lat="39.64051965093193" lon="15.84168955962387"><ele>11.5</ele><time>2026-03-22T10:25:37Z</time></trkpt><trkpt lat="39.640658178940875" lon="15.841624565722764"><ele>11.0</ele><time>2026-03-22T10:25:38Z</time></trkpt><trkpt lat="39.64079662996236" lon="15.84155906662836"><ele>10.5</ele><time>2026-03-22T10:25:39Z</time></trkpt><trkpt lat="39.64093446836124" lon="15.841493851959376"><ele>10.0</ele><time>2026-03-22T10:25:40Z</time></trkpt><trkpt lat="39.6410740421813" lon="15.841427696421942"><ele>11.0</ele><time>2026-03-22T10:25:41Z</time></trkpt><trkpt lat="39.64121595190108" lon="15.841359122890706"><ele>12.0</ele><time>2026-03-22T10:25:42Z</time></trkpt><trkpt lat="39.641366095058714" lon="15.841306859136822"><ele>13.0</ele><time>2026-03-22T10:25:43Z</time></trkpt><trkpt lat="39.641515960886046" lon="15.841207830081729"><ele>13.0</ele><time>2026-03-22T10:25:44Z</time></trkpt><trkpt lat="39.641686085614715" lon="15.841120411099322"><ele>13.0</ele><time>2026-03-22T10:25:45Z</time></trkpt><trkpt lat="39.64186582728611" lon="15.84103041964969"><ele>13.0</ele><time>2026-03-22T10:25:46Z</time></trkpt><trkpt lat="39.64205030583419" lon="15.840943994935074"><ele>13.333333333333332</ele><time>2026-03-22T10:25:47Z</time></trkpt><trkpt lat="39.642235086476035" lon="15.840865066962127"><ele>13.666666666666668</ele><time>2026-03-22T10:25:48Z</time></trkpt><trkpt lat="39.64241862799503" lon="15.840811506934031"><ele>14.0</ele><time>2026-03-22T10:25:49Z</time></trkpt><trkpt lat="39.642575817479276" lon="15.840736537289235"><ele>14.0</ele><time>2026-03-22T10:25:50Z</time></trkpt><trkpt lat="39.64272384696565" lon="15.84064671310294"><ele>14.0</ele><time>2026-03-22T10:25:51Z</time></trkpt><trkpt lat="39.64287415770361" lon="15.84058407703451"><ele>14.0</ele><time>2026-03-22T10:25:51.999Z</time></trkpt><trkpt lat="39.64301786972926" lon="15.840525304580066"><ele>14.5</ele><time>2026-03-22T10:25:52.999Z</time></trkpt><trkpt lat="39.64315498927368" lon="15.840471342633979"><ele>15.0</ele><time>2026-03-22T10:25:53.999Z</time></trkpt><trkpt lat="39.64328864708928" lon="15.840421714792047"><ele>15.5</ele><time>2026-03-22T10:25:54.999Z</time></trkpt><trkpt lat="39.64342610595696" lon="15.840371375141407"><ele>16.0</ele><time>2026-03-22T10:25:55.999Z</time></trkpt><trkpt lat="39.64356664197105" lon="15.840326049447373"><ele>16.25</ele><time>2026-03-22T10:25:56.999Z</time></trkpt><trkpt lat="39.64371086251177" lon="15.84028589873687"><ele>16.5</ele><time>2026-03-22T10:25:57.999Z</time></trkpt><trkpt lat="39.64385547188739" lon="15.840271065546817"><ele>16.75</ele><time>2026-03-22T10:25:58.999Z</time></trkpt><trkpt lat="39.64400864910415" lon="15.84023879438952"><ele>17.0</ele><time>2026-03-22T10:25:59.999Z</time></trkpt><trkpt lat="39.64417644241116" lon="15.840209095791804"><ele>17.0</ele><time>2026-03-22T10:26:00.999Z</time></trkpt><trkpt lat="39.6443557390081" lon="15.840179293157046"><ele>17.0</ele><time>2026-03-22T10:26:01.999Z</time></trkpt><trkpt lat="39.64453974414668" lon="15.840156722252045"><ele>17.0</ele><time>2026-03-22T10:26:02.999Z</time></trkpt><trkpt lat="39.64472729704672" lon="15.840132267768473"><ele>15.333333333333334</ele><time>2026-03-22T10:26:03.999Z</time></trkpt><trkpt lat="39.64491618154901" lon="15.840108420744745"><ele>13.666666666666668</ele><time>2026-03-22T10:26:04.999Z</time></trkpt><trkpt lat="39.64510240770527" lon="15.840067097312069"><ele>12.0</ele><time>2026-03-22T10:26:05.999Z</time></trkpt><trkpt lat="39.645289529211304" lon="15.840046083997384"><ele>11.666666666666666</ele><time>2026-03-22T10:26:06.999Z</time></trkpt><trkpt lat="39.64547648890196" lon="15.840022982395654"><ele>11.333333333333332</ele><time>2026-03-22T10:26:07.999Z</time></trkpt><trkpt lat="39.64566483947484" lon="15.839998722179493"><ele>11.0</ele><time>2026-03-22T10:26:08.999Z</time></trkpt><trkpt lat="39.64585318803471" lon="15.83997505488195"><ele>11.0</ele><time>2026-03-22T10:26:09.999Z</time></trkpt><trkpt lat="39.64603952990403" lon="15.839951542360824"><ele>11.0</ele><time>2026-03-22T10:26:10.999Z</time></trkpt><trkpt lat="39.646228315719625" lon="15.839930108128494"><ele>11.0</ele><time>2026-03-22T10:26:11.999Z</time></trkpt><trkpt lat="39.646422257086456" lon="15.839939784136718"><ele>11.0</ele><time>2026-03-22T10:26:12.999Z</time></trkpt><trkpt lat="39.64662027255054" lon="15.839905522417585"><ele>11.0</ele><time>2026-03-22T10:26:13.999Z</time></trkpt><trkpt lat="39.646821395598394" lon="15.839905497943048"><ele>11.0</ele><time>2026-03-22T10:26:14.999Z</time></trkpt><trkpt lat="39.647024853675106" lon="15.839914093767648"><ele>11.0</ele><time>2026-03-22T10:26:15.999Z</time></trkpt><trkpt lat="39.64722912540804" lon="15.839925417183812"><ele>11.0</ele><time>2026-03-22T10:26:16.999Z</time></trkpt><trkpt lat="39.647431299582955" lon="15.839935807854287"><ele>11.0</ele><time>2026-03-22T10:26:17.999Z</time></trkpt><trkpt lat="39.64763154030118" lon="15.839942089831872"><ele>11.333333333333332</ele><time>2026-03-22T10:26:18.999Z</time></trkpt><trkpt lat="39.64782738259726" lon="15.839944629604298"><ele>11.666666666666666</ele><time>2026-03-22T10:26:19.999Z</time></trkpt><trkpt lat="39.64801919733063" lon="15.839946953536506"><ele>12.0</ele><time>2026-03-22T10:26:20.999Z</time></trkpt><trkpt lat="39.648203400171774" lon="15.839948962576782"><ele>12.0</ele><time>2026-03-22T10:26:21.999Z</time></trkpt><trkpt lat="39.6483781521099" lon="15.839949822496278"><ele>12.0</ele><time>2026-03-22T10:26:22.999Z</time></trkpt><trkpt lat="39.648540907462944" lon="15.83995478102112"><ele>12.0</ele><time>2026-03-22T10:26:23.999Z</time></trkpt><trkpt lat="39.64869872469259" lon="15.83995966197237"><ele>12.0</ele><time>2026-03-22T10:26:24.999Z</time></trkpt><trkpt lat="39.64885498078091" lon="15.839961926707094"><ele>12.0</ele><time>2026-03-22T10:26:25.999Z</time></trkpt><trkpt lat="39.6490057908924" lon="15.839961241494784"><ele>12.0</ele><time>2026-03-22T10:26:26.999Z</time></trkpt><trkpt lat="39.64915100362267" lon="15.839960055125195"><ele>12.0</ele><time>2026-03-22T10:26:27.999Z</time></trkpt><trkpt lat="39.649292782164416" lon="15.839960071772328"><ele>12.0</ele><time>2026-03-22T10:26:28.999Z</time></trkpt><trkpt lat="39.649432787794034" lon="15.839980953185405"><ele>12.0</ele><time>2026-03-22T10:26:29.999Z</time></trkpt><trkpt lat="39.64957244584672" lon="15.839959815225267"><ele>12.0</ele><time>2026-03-22T10:26:30.999Z</time></trkpt><trkpt lat="39.649717490531856" lon="15.839982489179919"><ele>12.666666666666668</ele><time>2026-03-22T10:26:31.999Z</time></trkpt><trkpt lat="39.649876306187785" lon="15.839984054436236"><ele>13.333333333333334</ele><time>2026-03-22T10:26:32.999Z</time></trkpt><trkpt lat="39.65005155852592" lon="15.83998628918398"><ele>14.0</ele><time>2026-03-22T10:26:33.999Z</time></trkpt><trkpt lat="39.65023517451332" lon="15.839988628994574"><ele>14.0</ele><time>2026-03-22T10:26:34.999Z</time></trkpt><trkpt lat="39.65042005430067" lon="15.839985334886336"><ele>14.0</ele><time>2026-03-22T10:26:35.999Z</time></trkpt><trkpt lat="39.650605445811536" lon="15.839955039863218"><ele>14.0</ele><time>2026-03-22T10:26:36.999Z</time></trkpt><trkpt lat="39.65079512972796" lon="15.839944343540333"><ele>14.0</ele><time>2026-03-22T10:26:37.999Z</time></trkpt><trkpt lat="39.65098772782775" lon="15.839920686186302"><ele>14.0</ele><time>2026-03-22T10:26:38.999Z</time></trkpt><trkpt lat="39.651180157245946" lon="15.839881579097437"><ele>14.0</ele><time>2026-03-22T10:26:39.999Z</time></trkpt><trkpt lat="39.65137288664096" lon="15.839829046248521"><ele>16.0</ele><time>2026-03-22T10:26:40.999Z</time></trkpt><trkpt lat="39.65156737263323" lon="15.839766305106032"><ele>18.0</ele><time>2026-03-22T10:26:41.999Z</time></trkpt><trkpt lat="39.651760211028986" lon="15.83969584837066"><ele>20.0</ele><time>2026-03-22T10:26:42.999Z</time></trkpt><trkpt lat="39.651949593425485" lon="15.839613485492237"><ele>20.666666666666668</ele><time>2026-03-22T10:26:43.999Z</time></trkpt><trkpt lat="39.6521401210288" lon="15.83951699100427"><ele>21.333333333333332</ele><time>2026-03-22T10:26:44.999Z</time></trkpt><trkpt lat="39.65233029888766" lon="15.839405950087196"><ele>22.0</ele><time>2026-03-22T10:26:45.999Z</time></trkpt><trkpt lat="39.65252066110753" lon="15.839276196598428"><ele>20.0</ele><time>2026-03-22T10:26:46.999Z</time></trkpt><trkpt lat="39.65270482880828" lon="15.839132201861782"><ele>18.0</ele><time>2026-03-22T10:26:47.999Z</time></trkpt><trkpt lat="39.65288467808392" lon="15.838974734395352"><ele>16.0</ele><time>2026-03-22T10:26:48.999Z</time></trkpt><trkpt lat="39.653062266165456" lon="15.838805796276615"><ele>16.0</ele><time>2026-03-22T10:26:49.999Z</time></trkpt><trkpt lat="39.65323672637458" lon="15.83862991152344"><ele>16.0</ele><time>2026-03-22T10:26:50.999Z</time></trkpt><trkpt lat="39.65341135230322" lon="15.838453913732357"><ele>16.0</ele><time>2026-03-22T10:26:51.999Z</time></trkpt><trkpt lat="39.653588362257615" lon="15.83828033014906"><ele>17.0</ele><time>2026-03-22T10:26:52.999Z</time></trkpt><trkpt lat="39.65376505312857" lon="15.838108940343771"><ele>18.0</ele><time>2026-03-22T10:26:53.999Z</time></trkpt><trkpt lat="39.6539373051495" lon="15.837940004993255"><ele>19.0</ele><time>2026-03-22T10:26:54.999Z</time></trkpt><trkpt lat="39.65410951784581" lon="15.837772124716901"><ele>21.333333333333332</ele><time>2026-03-22T10:26:55.999Z</time></trkpt><trkpt lat="39.654282050844714" lon="15.837604058859093"><ele>23.666666666666664</ele><time>2026-03-22T10:26:56.999Z</time></trkpt><trkpt lat="39.65445611346948" lon="15.837434281066187"><ele>26.0</ele><time>2026-03-22T10:26:57.999Z</time></trkpt><trkpt lat="39.65462715743139" lon="15.837261688429255"><ele>26.0</ele><time>2026-03-22T10:26:58.999Z</time></trkpt><trkpt lat="39.654798585986754" lon="15.837088045080636"><ele>26.0</ele><time>2026-03-22T10:26:59.999Z</time></trkpt><trkpt lat="39.654977068754015" lon="15.836923518726202"><ele>26.0</ele><time>2026-03-22T10:27:00.999Z</time></trkpt><trkpt lat="39.65516504265158" lon="15.836779759436073"><ele>24.333333333333332</ele><time>2026-03-22T10:27:01.999Z</time></trkpt><trkpt lat="39.65536242885929" lon="15.836662224911985"><ele>22.666666666666664</ele><time>2026-03-22T10:27:02.999Z</time></trkpt><trkpt lat="39.65556336741133" lon="15.836551318451122"><ele>21.0</ele><time>2026-03-22T10:27:03.999Z</time></trkpt><trkpt lat="39.65576965914793" lon="15.836446291143112"><ele>21.0</ele><time>2026-03-22T10:27:04.999Z</time></trkpt><trkpt lat="39.65597944523314" lon="15.83634560130658"><ele>21.0</ele><time>2026-03-22T10:27:05.999Z</time></trkpt><trkpt lat="39.65619207078256" lon="15.836251993440353"><ele>21.0</ele><time>2026-03-22T10:27:06.999Z</time></trkpt><trkpt lat="39.656406056334745" lon="15.836165698158876"><ele>23.333333333333336</ele><time>2026-03-22T10:27:07.999Z</time></trkpt><trkpt lat="39.65662361450866" lon="15.836090381016836"><ele>25.666666666666668</ele><time>2026-03-22T10:27:08.999Z</time></trkpt><trkpt lat="39.656842622595946" lon="15.836028224149118"><ele>28.0</ele><time>2026-03-22T10:27:09.999Z</time></trkpt><trkpt lat="39.65706573430695" lon="15.835985365934354"><ele>29.0</ele><time>2026-03-22T10:27:10.999Z</time></trkpt><trkpt lat="39.657289748086654" lon="15.835967235943752"><ele>30.0</ele><time>2026-03-22T10:27:11.999Z</time></trkpt><trkpt lat="39.65751402996539" lon="15.83599070875045"><ele>31.0</ele><time>2026-03-22T10:27:12.999Z</time></trkpt><trkpt lat="39.657739093196795" lon="15.835998132951273"><ele>28.333333333333336</ele><time>2026-03-22T10:27:14Z</time></trkpt><trkpt lat="39.65796397690467" lon="15.835987322728645"><ele>25.666666666666668</ele><time>2026-03-22T10:27:15Z</time></trkpt><trkpt lat="39.658187525194634" lon="15.835997260325025"><ele>23.0</ele><time>2026-03-22T10:27:16Z</time></trkpt><trkpt lat="39.65840886748945" lon="15.836005988380254"><ele>21.0</ele><time>2026-03-22T10:27:17Z</time></trkpt><trkpt lat="39.65862769524898" lon="15.836012976154182"><ele>19.0</ele><time>2026-03-22T10:27:18Z</time></trkpt><trkpt lat="39.658843820852816" lon="15.836021504936005"><ele>17.0</ele><time>2026-03-22T10:27:19Z</time></trkpt><trkpt lat="39.65905873672044" lon="15.836030862219493"><ele>17.0</ele><time>2026-03-22T10:27:20Z</time></trkpt><trkpt lat="39.65927325706161" lon="15.836037402778201"><ele>17.0</ele><time>2026-03-22T10:27:21Z</time></trkpt><trkpt lat="39.6594861463445" lon="15.836043486144309"><ele>17.0</ele><time>2026-03-22T10:27:22Z</time></trkpt><trkpt lat="39.659698855114" lon="15.836055659218305"><ele>16.333333333333336</ele><time>2026-03-22T10:27:23Z</time></trkpt><trkpt lat="39.65991188984097" lon="15.836066555234003"><ele>15.666666666666668</ele><time>2026-03-22T10:27:24Z</time></trkpt><trkpt lat="39.66012558604763" lon="15.836075889325667"><ele>15.0</ele><time>2026-03-22T10:27:25Z</time></trkpt><trkpt lat="39.66034091241302" lon="15.836084981193823"><ele>17.0</ele><time>2026-03-22T10:27:26Z</time></trkpt><trkpt lat="39.660551649924656" lon="15.836091783990646"><ele>19.0</ele><time>2026-03-22T10:27:27Z</time></trkpt><trkpt lat="39.66076401842879" lon="15.836096677709936"><ele>21.0</ele><time>2026-03-22T10:27:28Z</time></trkpt><trkpt lat="39.66097808506203" lon="15.836101411675605"><ele>23.0</ele><time>2026-03-22T10:27:29Z</time></trkpt><trkpt lat="39.661192995855" lon="15.836109583324909"><ele>25.0</ele><time>2026-03-22T10:27:30Z</time></trkpt><trkpt lat="39.66140803702637" lon="15.83612024167085"><ele>27.0</ele><time>2026-03-22T10:27:31Z</time></trkpt><trkpt lat="39.66162346979932" lon="15.836131879739428"><ele>27.0</ele><time>2026-03-22T10:27:32Z</time></trkpt><trkpt lat="39.661837906466324" lon="15.836140710927516"><ele>27.0</ele><time>2026-03-22T10:27:33Z</time></trkpt><trkpt lat="39.66205257306911" lon="15.8361461341669"><ele>27.0</ele><time>2026-03-22T10:27:34Z</time></trkpt><trkpt lat="39.6622669278956" lon="15.836144841623442"><ele>24.666666666666668</ele><time>2026-03-22T10:27:35Z</time></trkpt><trkpt lat="39.66248106142755" lon="15.836127934062024"><ele>22.333333333333336</ele><time>2026-03-22T10:27:36Z</time></trkpt><trkpt lat="39.66269158576224" lon="15.836087397781347"><ele>20.0</ele><time>2026-03-22T10:27:37Z</time></trkpt><trkpt lat="39.662898277782645" lon="15.83602594883391"><ele>19.0</ele><time>2026-03-22T10:27:38Z</time></trkpt><trkpt lat="39.66310204761173" lon="15.835943898775145"><ele>18.0</ele><time>2026-03-22T10:27:39Z</time></trkpt><trkpt lat="39.663298478988416" lon="15.835840416409328"><ele>17.0</ele><time>2026-03-22T10:27:40Z</time></trkpt><trkpt lat="39.66348850010088" lon="15.835716454411997"><ele>19.0</ele><time>2026-03-22T10:27:41Z</time></trkpt><trkpt lat="39.66367253206852" lon="15.835574060067573"><ele>21.0</ele><time>2026-03-22T10:27:42Z</time></trkpt><trkpt lat="39.66385365410053" lon="15.835421016564768"><ele>23.0</ele><time>2026-03-22T10:27:43Z</time></trkpt><trkpt lat="39.6640366636728" lon="15.83526810393663"><ele>20.666666666666668</ele><time>2026-03-22T10:27:44Z</time></trkpt><trkpt lat="39.66422360090701" lon="15.835115729769024"><ele>18.333333333333332</ele><time>2026-03-22T10:27:45Z</time></trkpt><trkpt lat="39.664410434000445" lon="15.83496566740395"><ele>16.0</ele><time>2026-03-22T10:27:46Z</time></trkpt><trkpt lat="39.66459687551219" lon="15.834815948273093"><ele>16.0</ele><time>2026-03-22T10:27:47Z</time></trkpt><trkpt lat="39.66478393065522" lon="15.834666493764045"><ele>16.0</ele><time>2026-03-22T10:27:48Z</time></trkpt><trkpt lat="39.66497017119222" lon="15.83451430912346"><ele>16.0</ele><time>2026-03-22T10:27:49Z</time></trkpt><trkpt lat="39.6651560477948" lon="15.834363141160345"><ele>20.666666666666664</ele><time>2026-03-22T10:27:50Z</time></trkpt><trkpt lat="39.665342953728526" lon="15.83421177872229"><ele>25.333333333333332</ele><time>2026-03-22T10:27:51Z</time></trkpt><trkpt lat="39.665528477230836" lon="15.834063206139165"><ele>30.0</ele><time>2026-03-22T10:27:52Z</time></trkpt><trkpt lat="39.665718317334544" lon="15.833928124543148"><ele>30.0</ele><time>2026-03-22T10:27:52.999Z</time></trkpt><trkpt lat="39.66591508712439" lon="15.833811072089336"><ele>30.0</ele><time>2026-03-22T10:27:53.999Z</time></trkpt><trkpt lat="39.66611514668241" lon="15.833709327760484"><ele>30.0</ele><time>2026-03-22T10:27:54.999Z</time></trkpt><trkpt lat="39.66631958748207" lon="15.833622052109623"><ele>28.666666666666664</ele><time>2026-03-22T10:27:55.999Z</time></trkpt><trkpt lat="39.666525971837316" lon="15.833550656438302"><ele>27.333333333333332</ele><time>2026-03-22T10:27:56.999Z</time></trkpt><trkpt lat="39.66673368390312" lon="15.833489570006993"><ele>26.0</ele><time>2026-03-22T10:27:57.999Z</time></trkpt><trkpt lat="39.6669412074084" lon="15.833431636616046"><ele>27.0</ele><time>2026-03-22T10:27:58.999Z</time></trkpt><trkpt lat="39.66714749651696" lon="15.833372261521866"><ele>28.0</ele><time>2026-03-22T10:27:59.999Z</time></trkpt><trkpt lat="39.66735166251944" lon="15.833312659449406"><ele>29.0</ele><time>2026-03-22T10:28:00.999Z</time></trkpt><trkpt lat="39.66755418394274" lon="15.833252154701933"><ele>29.0</ele><time>2026-03-22T10:28:01.999Z</time></trkpt><trkpt lat="39.66775500815708" lon="15.833191413670512"><ele>29.0</ele><time>2026-03-22T10:28:02.999Z</time></trkpt><trkpt lat="39.667953900678626" lon="15.833132221320621"><ele>29.0</ele><time>2026-03-22T10:28:03.999Z</time></trkpt><trkpt lat="39.668150815283475" lon="15.833073761516653"><ele>28.666666666666664</ele><time>2026-03-22T10:28:04.999Z</time></trkpt><trkpt lat="39.668337416393136" lon="15.833018081135044"><ele>28.333333333333336</ele><time>2026-03-22T10:28:05.999Z</time></trkpt><trkpt lat="39.66851135227504" lon="15.83296096206864"><ele>28.0</ele><time>2026-03-22T10:28:06.999Z</time></trkpt><trkpt lat="39.66867038197658" lon="15.83290069300216"><ele>27.5</ele><time>2026-03-22T10:28:07.999Z</time></trkpt><trkpt lat="39.66881140856102" lon="15.832836354319548"><ele>27.0</ele><time>2026-03-22T10:28:08.999Z</time></trkpt><trkpt lat="39.668943061134144" lon="15.832762362117823"><ele>26.5</ele><time>2026-03-22T10:28:09.999Z</time></trkpt><trkpt lat="39.66907125321636" lon="15.83267701613246"><ele>26.0</ele><time>2026-03-22T10:28:10.999Z</time></trkpt><trkpt lat="39.66919936057532" lon="15.832580513935723"><ele>26.0</ele><time>2026-03-22T10:28:11.999Z</time></trkpt><trkpt lat="39.669335515834675" lon="15.832466715553565"><ele>26.0</ele><time>2026-03-22T10:28:12.999Z</time></trkpt><trkpt lat="39.6694760750402" lon="15.832339292604827"><ele>26.0</ele><time>2026-03-22T10:28:13.999Z</time></trkpt><trkpt lat="39.66961776261618" lon="15.83220415551633"><ele>24.0</ele><time>2026-03-22T10:28:14.999Z</time></trkpt><trkpt lat="39.6697706755786" lon="15.832056412084313"><ele>22.0</ele><time>2026-03-22T10:28:15.999Z</time></trkpt><trkpt lat="39.669932271833666" lon="15.831902007352939"><ele>20.0</ele><time>2026-03-22T10:28:16.999Z</time></trkpt><trkpt lat="39.6700921263651" lon="15.831741951718936"><ele>20.0</ele><time>2026-03-22T10:28:17.999Z</time></trkpt><trkpt lat="39.67026690522461" lon="15.831601904015018"><ele>20.0</ele><time>2026-03-22T10:28:18.999Z</time></trkpt><trkpt lat="39.670436355085755" lon="15.831440318127948"><ele>20.0</ele><time>2026-03-22T10:28:19.999Z</time></trkpt><trkpt lat="39.67060910592044" lon="15.831275410435243"><ele>21.333333333333336</ele><time>2026-03-22T10:28:20.999Z</time></trkpt><trkpt lat="39.670785431174416" lon="15.831106770135674"><ele>22.666666666666668</ele><time>2026-03-22T10:28:21.999Z</time></trkpt><trkpt lat="39.67096420473543" lon="15.830936498216712"><ele>24.0</ele><time>2026-03-22T10:28:22.999Z</time></trkpt><trkpt lat="39.67113012519622" lon="15.830752969339445"><ele>29.333333333333336</ele><time>2026-03-22T10:28:23.999Z</time></trkpt><trkpt lat="39.67131129230068" lon="15.83059456823192"><ele>34.66666666666667</ele><time>2026-03-22T10:28:24.999Z</time></trkpt><trkpt lat="39.6714948415533" lon="15.830437386270376"><ele>40.0</ele><time>2026-03-22T10:28:25.999Z</time></trkpt><trkpt lat="39.6716783285017" lon="15.830286174313693"><ele>40.0</ele><time>2026-03-22T10:28:26.999Z</time></trkpt><trkpt lat="39.67186552663199" lon="15.830145016409448"><ele>40.0</ele><time>2026-03-22T10:28:27.999Z</time></trkpt><trkpt lat="39.672057433331446" lon="15.830020656024145"><ele>40.0</ele><time>2026-03-22T10:28:28.999Z</time></trkpt><trkpt lat="39.672259803751736" lon="15.829910684644908"><ele>40.0</ele><time>2026-03-22T10:28:29.999Z</time></trkpt><trkpt lat="39.67247028344806" lon="15.829811591400523"><ele>40.0</ele><time>2026-03-22T10:28:30.999Z</time></trkpt><trkpt lat="39.67268833181262" lon="15.829722918933165"><ele>38.5</ele><time>2026-03-22T10:28:31.999Z</time></trkpt><trkpt lat="39.67291007421912" lon="15.829638801855102"><ele>37.0</ele><time>2026-03-22T10:28:32.999Z</time></trkpt><trkpt lat="39.67313324500153" lon="15.829556130828731"><ele>37.0</ele><time>2026-03-22T10:28:33.999Z</time></trkpt><trkpt lat="39.67335541938577" lon="15.829469848192991"><ele>37.0</ele><time>2026-03-22T10:28:34.999Z</time></trkpt><trkpt lat="39.673572354782344" lon="15.829372719619519"><ele>35.0</ele><time>2026-03-22T10:28:35.999Z</time></trkpt><trkpt lat="39.67378584767531" lon="15.829261461797469"><ele>33.0</ele><time>2026-03-22T10:28:36.999Z</time></trkpt><trkpt lat="39.673987197547135" lon="15.829121800442946"><ele>33.0</ele><time>2026-03-22T10:28:37.999Z</time></trkpt><trkpt lat="39.67418038831574" lon="15.828956458707914"><ele>33.0</ele><time>2026-03-22T10:28:38.999Z</time></trkpt><trkpt lat="39.67436396233914" lon="15.828772647105003"><ele>33.5</ele><time>2026-03-22T10:28:39.999Z</time></trkpt><trkpt lat="39.67453757586214" lon="15.828567898780426"><ele>34.0</ele><time>2026-03-22T10:28:40.999Z</time></trkpt><trkpt lat="39.67470390792312" lon="15.828346075317151"><ele>34.0</ele><time>2026-03-22T10:28:41.999Z</time></trkpt><trkpt lat="39.67486494455752" lon="15.828114074582508"><ele>34.0</ele><time>2026-03-22T10:28:42.999Z</time></trkpt><trkpt lat="39.67502687025866" lon="15.827877235634867"><ele>34.0</ele><time>2026-03-22T10:28:43.999Z</time></trkpt><trkpt lat="39.67519254454553" lon="15.827639595364243"><ele>34.0</ele><time>2026-03-22T10:28:44.999Z</time></trkpt><trkpt lat="39.675362751304945" lon="15.827397532496596"><ele>34.0</ele><time>2026-03-22T10:28:45.999Z</time></trkpt><trkpt lat="39.67552928336668" lon="15.82716076726173"><ele>34.0</ele><time>2026-03-22T10:28:46.999Z</time></trkpt><trkpt lat="39.67569853006356" lon="15.826921763406114"><ele>28.5</ele><time>2026-03-22T10:28:47.999Z</time></trkpt><trkpt lat="39.6758593526162" lon="15.826689560996398"><ele>23.0</ele><time>2026-03-22T10:28:48.999Z</time></trkpt><trkpt lat="39.67601126256713" lon="15.826468234709791"><ele>23.333333333333336</ele><time>2026-03-22T10:28:49.999Z</time></trkpt><trkpt lat="39.67615855302778" lon="15.826254589275994"><ele>23.666666666666668</ele><time>2026-03-22T10:28:50.999Z</time></trkpt><trkpt lat="39.67630282992944" lon="15.826046018605417"><ele>24.0</ele><time>2026-03-22T10:28:51.999Z</time></trkpt><trkpt lat="39.67644032290319" lon="15.825848141618135"><ele>24.0</ele><time>2026-03-22T10:28:52.999Z</time></trkpt><trkpt lat="39.67656868833354" lon="15.825666532591885"><ele>24.0</ele><time>2026-03-22T10:28:53.999Z</time></trkpt><trkpt lat="39.676690891440025" lon="15.825493517005908"><ele>24.0</ele><time>2026-03-22T10:28:54.999Z</time></trkpt><trkpt lat="39.67681152054001" lon="15.825324095998193"><ele>24.0</ele><time>2026-03-22T10:28:55.999Z</time></trkpt><trkpt lat="39.6769220541002" lon="15.825164376462082"><ele>24.0</ele><time>2026-03-22T10:28:56.999Z</time></trkpt><trkpt lat="39.67703253897852" lon="15.825002744497825"><ele>24.0</ele><time>2026-03-22T10:28:57.999Z</time></trkpt><trkpt lat="39.677144499488385" lon="15.824840555476463"><ele>25.0</ele><time>2026-03-22T10:28:58.999Z</time></trkpt><trkpt lat="39.67725476211712" lon="15.82468235097858"><ele>26.0</ele><time>2026-03-22T10:28:59.999Z</time></trkpt><trkpt lat="39.67736564490132" lon="15.824525491110569"><ele>27.0</ele><time>2026-03-22T10:29:00.999Z</time></trkpt><trkpt lat="39.67747252442883" lon="15.824371486372726"><ele>26.666666666666664</ele><time>2026-03-22T10:29:01.999Z</time></trkpt><trkpt lat="39.67757622327063" lon="15.824220957218152"><ele>26.333333333333332</ele><time>2026-03-22T10:29:02.999Z</time></trkpt><trkpt lat="39.67767868803655" lon="15.824074133580428"><ele>26.0</ele><time>2026-03-22T10:29:03.999Z</time></trkpt><trkpt lat="39.67777979742889" lon="15.823931618969723"><ele>26.0</ele><time>2026-03-22T10:29:04.999Z</time></trkpt><trkpt lat="39.67788260004294" lon="15.823793450272529"><ele>26.0</ele><time>2026-03-22T10:29:05.999Z</time></trkpt><trkpt lat="39.67799223893711" lon="15.823659419917735"><ele>26.0</ele><time>2026-03-22T10:29:06.999Z</time></trkpt><trkpt lat="39.678102777829416" lon="15.823536530648006"><ele>26.0</ele><time>2026-03-22T10:29:07.999Z</time></trkpt><trkpt lat="39.67822203481933" lon="15.823416143617195"><ele>26.0</ele><time>2026-03-22T10:29:08.999Z</time></trkpt><trkpt lat="39.67835030914623" lon="15.823296125597615"><ele>26.0</ele><time>2026-03-22T10:29:09.999Z</time></trkpt><trkpt lat="39.6784879266674" lon="15.823173656280224"><ele>26.0</ele><time>2026-03-22T10:29:10.999Z</time></trkpt><trkpt lat="39.67862972423938" lon="15.823040662842356"><ele>25.0</ele><time>2026-03-22T10:29:11.999Z</time></trkpt><trkpt lat="39.67877611527373" lon="15.822901128272875"><ele>24.0</ele><time>2026-03-22T10:29:12.998Z</time></trkpt><trkpt lat="39.67892338348057" lon="15.82275889517717"><ele>23.0</ele><time>2026-03-22T10:29:13.998Z</time></trkpt><trkpt lat="39.67907617335626" lon="15.822609937943804"><ele>23.0</ele><time>2026-03-22T10:29:14.998Z</time></trkpt><trkpt lat="39.6792390100434" lon="15.822450805457663"><ele>23.0</ele><time>2026-03-22T10:29:15.998Z</time></trkpt><trkpt lat="39.67941241231811" lon="15.822281669675506"><ele>23.0</ele><time>2026-03-22T10:29:16.998Z</time></trkpt><trkpt lat="39.679590403940445" lon="15.822114312590644"><ele>23.0</ele><time>2026-03-22T10:29:17.998Z</time></trkpt><trkpt lat="39.679769336037296" lon="15.821954866745951"><ele>23.0</ele><time>2026-03-22T10:29:18.998Z</time></trkpt><trkpt lat="39.67994684227103" lon="15.821800693107702"><ele>23.0</ele><time>2026-03-22T10:29:20Z</time></trkpt><trkpt lat="39.68012173974451" lon="15.821649790546674"><ele>29.666666666666668</ele><time>2026-03-22T10:29:21Z</time></trkpt><trkpt lat="39.680291117845044" lon="15.821500780958168"><ele>36.333333333333336</ele><time>2026-03-22T10:29:22Z</time></trkpt><trkpt lat="39.6804602556612" lon="15.821354909847408"><ele>43.0</ele><time>2026-03-22T10:29:23Z</time></trkpt><trkpt lat="39.680633900037606" lon="15.821217244019214"><ele>43.0</ele><time>2026-03-22T10:29:24Z</time></trkpt><trkpt lat="39.6808163826365" lon="15.821089402626562"><ele>43.0</ele><time>2026-03-22T10:29:25Z</time></trkpt><trkpt lat="39.68100648256148" lon="15.820974396466784"><ele>43.0</ele><time>2026-03-22T10:29:26Z</time></trkpt><trkpt lat="39.68120431079732" lon="15.820871486098358"><ele>39.333333333333336</ele><time>2026-03-22T10:29:27Z</time></trkpt><trkpt lat="39.68140933593429" lon="15.820779784474114"><ele>35.666666666666664</ele><time>2026-03-22T10:29:28Z</time></trkpt><trkpt lat="39.68162063201801" lon="15.820700567407336"><ele>32.0</ele><time>2026-03-22T10:29:29Z</time></trkpt><trkpt lat="39.681833020878216" lon="15.820627005369492"><ele>31.0</ele><time>2026-03-22T10:29:30Z</time></trkpt><trkpt lat="39.682042229061544" lon="15.820558850360785"><ele>30.0</ele><time>2026-03-22T10:29:31Z</time></trkpt><trkpt lat="39.6822537938013" lon="15.82049074583062"><ele>29.0</ele><time>2026-03-22T10:29:32Z</time></trkpt><trkpt lat="39.682464209983344" lon="15.820422352748365"><ele>29.0</ele><time>2026-03-22T10:29:33Z</time></trkpt><trkpt lat="39.68267679839382" lon="15.820354372392037"><ele>29.0</ele><time>2026-03-22T10:29:34Z</time></trkpt><trkpt lat="39.68288899739636" lon="15.820284801245872"><ele>29.0</ele><time>2026-03-22T10:29:35Z</time></trkpt><trkpt lat="39.68310358525606" lon="15.820214918212182"><ele>26.0</ele><time>2026-03-22T10:29:36Z</time></trkpt><trkpt lat="39.68331684129661" lon="15.820146658812789"><ele>23.0</ele><time>2026-03-22T10:29:37Z</time></trkpt><trkpt lat="39.683531105218826" lon="15.82007794706612"><ele>20.0</ele><time>2026-03-22T10:29:38Z</time></trkpt><trkpt lat="39.683746080396794" lon="15.820009072484714"><ele>20.0</ele><time>2026-03-22T10:29:39Z</time></trkpt><trkpt lat="39.683962766848325" lon="15.819939911956006"><ele>20.0</ele><time>2026-03-22T10:29:40Z</time></trkpt><trkpt lat="39.68417894301959" lon="15.819872000717897"><ele>20.0</ele><time>2026-03-22T10:29:41Z</time></trkpt><trkpt lat="39.68439675320231" lon="15.81980339199423"><ele>21.0</ele><time>2026-03-22T10:29:42Z</time></trkpt><trkpt lat="39.68461408783483" lon="15.819734079939686"><ele>22.0</ele><time>2026-03-22T10:29:43Z</time></trkpt><trkpt lat="39.68483154963636" lon="15.819663380133518"><ele>23.0</ele><time>2026-03-22T10:29:44Z</time></trkpt><trkpt lat="39.68504765062388" lon="15.819592918382927"><ele>23.0</ele><time>2026-03-22T10:29:45Z</time></trkpt><trkpt lat="39.68525497523247" lon="15.81952369905886"><ele>23.0</ele><time>2026-03-22T10:29:46Z</time></trkpt><trkpt lat="39.68544331199674" lon="15.819458483297153"><ele>23.0</ele><time>2026-03-22T10:29:47Z</time></trkpt><trkpt lat="39.68562563645124" lon="15.819396344835706"><ele>24.0</ele><time>2026-03-22T10:29:48Z</time></trkpt><trkpt lat="39.685804549817" lon="15.819336432588493"><ele>25.0</ele><time>2026-03-22T10:29:49Z</time></trkpt><trkpt lat="39.685958566956764" lon="15.819283065290653"><ele>26.0</ele><time>2026-03-22T10:29:50Z</time></trkpt><trkpt lat="39.68609580109443" lon="15.819238061707498"><ele>24.5</ele><time>2026-03-22T10:29:51Z</time></trkpt><trkpt lat="39.68622436296728" lon="15.819196182255881"><ele>23.0</ele><time>2026-03-22T10:29:52Z</time></trkpt><trkpt lat="39.68635417487601" lon="15.819150374177372"><ele>21.5</ele><time>2026-03-22T10:29:53Z</time></trkpt><trkpt lat="39.68648920283088" lon="15.819102416490999"><ele>20.0</ele><time>2026-03-22T10:29:54Z</time></trkpt><trkpt lat="39.6866315579071" lon="15.819052544897994"><ele>20.0</ele><time>2026-03-22T10:29:54.999Z</time></trkpt><trkpt lat="39.68677796122805" lon="15.819000090237248"><ele>20.0</ele><time>2026-03-22T10:29:55.999Z</time></trkpt><trkpt lat="39.68692766879318" lon="15.818944844375231"><ele>20.0</ele><time>2026-03-22T10:29:56.999Z</time></trkpt><trkpt lat="39.68708135156822" lon="15.818887407243764"><ele>20.0</ele><time>2026-03-22T10:29:57.999Z</time></trkpt><trkpt lat="39.68723700733851" lon="15.818829122735382"><ele>20.0</ele><time>2026-03-22T10:29:58.999Z</time></trkpt><trkpt lat="39.68739282000735" lon="15.818769153966002"><ele>20.0</ele><time>2026-03-22T10:29:59.999Z</time></trkpt><trkpt lat="39.6875480864953" lon="15.818707634454686"><ele>20.0</ele><time>2026-03-22T10:30:00.999Z</time></trkpt><trkpt lat="39.68770460289579" lon="15.818646184740379"><ele>20.0</ele><time>2026-03-22T10:30:01.999Z</time></trkpt><trkpt lat="39.687862102000985" lon="15.818586089166645"><ele>20.0</ele><time>2026-03-22T10:30:02.999Z</time></trkpt><trkpt lat="39.68801549622033" lon="15.81852685474807"><ele>18.75</ele><time>2026-03-22T10:30:03.999Z</time></trkpt><trkpt lat="39.68815509255306" lon="15.818471675595458"><ele>17.5</ele><time>2026-03-22T10:30:04.999Z</time></trkpt><trkpt lat="39.68828080128887" lon="15.818422102502213"><ele>16.25</ele><time>2026-03-22T10:30:05.999Z</time></trkpt><trkpt lat="39.68839088287418" lon="15.818378794451082"><ele>15.0</ele><time>2026-03-22T10:30:06.999Z</time></trkpt><trkpt lat="39.68849110252845" lon="15.818341593556836"><ele>15.0</ele><time>2026-03-22T10:30:07.999Z</time></trkpt><trkpt lat="39.68858975965197" lon="15.818303489512852"><ele>15.0</ele><time>2026-03-22T10:30:08.999Z</time></trkpt><trkpt lat="39.68869724429431" lon="15.81826099510645"><ele>15.0</ele><time>2026-03-22T10:30:09.999Z</time></trkpt><trkpt lat="39.688809686263305" lon="15.818218668653238"><ele>15.0</ele><time>2026-03-22T10:30:10.999Z</time></trkpt><trkpt lat="39.68892135765537" lon="15.818174515594412"><ele>15.0</ele><time>2026-03-22T10:30:11.999Z</time></trkpt><trkpt lat="39.68903183197172" lon="15.818129851382752"><ele>15.6</ele><time>2026-03-22T10:30:12.999Z</time></trkpt><trkpt lat="39.68913814182198" lon="15.818085375589524"><ele>16.2</ele><time>2026-03-22T10:30:13.999Z</time></trkpt><trkpt lat="39.68923824980319" lon="15.818042315208015"><ele>16.8</ele><time>2026-03-22T10:30:14.999Z</time></trkpt><trkpt lat="39.68933376903347" lon="15.818003736719044"><ele>17.4</ele><time>2026-03-22T10:30:15.999Z</time></trkpt><trkpt lat="39.689423832892594" lon="15.817975770932872"><ele>18.0</ele><time>2026-03-22T10:30:16.999Z</time></trkpt><trkpt lat="39.689512447781624" lon="15.817960601279376"><ele>19.0</ele><time>2026-03-22T10:30:17.999Z</time></trkpt><trkpt lat="39.68960575384389" lon="15.817951394826185"><ele>20.0</ele><time>2026-03-22T10:30:18.999Z</time></trkpt><trkpt lat="39.689701763156016" lon="15.817920748475665"><ele>21.0</ele><time>2026-03-22T10:30:19.999Z</time></trkpt><trkpt lat="39.68980342692991" lon="15.817850057653914"><ele>22.0</ele><time>2026-03-22T10:30:20.999Z</time></trkpt><trkpt lat="39.68991787620587" lon="15.81777075796206"><ele>23.0</ele><time>2026-03-22T10:30:21.999Z</time></trkpt><trkpt lat="39.690042990680574" lon="15.817717163487853"><ele>23.0</ele><time>2026-03-22T10:30:22.999Z</time></trkpt><trkpt lat="39.69017303450295" lon="15.817672455658538"><ele>23.0</ele><time>2026-03-22T10:30:23.999Z</time></trkpt><trkpt lat="39.690293565710775" lon="15.817625447676432"><ele>23.0</ele><time>2026-03-22T10:30:24.999Z</time></trkpt><trkpt lat="39.69040364469891" lon="15.817580803882073"><ele>23.0</ele><time>2026-03-22T10:30:25.999Z</time></trkpt><trkpt lat="39.690509198881514" lon="15.817537263930308"><ele>21.25</ele><time>2026-03-22T10:30:26.999Z</time></trkpt><trkpt lat="39.69061766609245" lon="15.817491807309478"><ele>19.5</ele><time>2026-03-22T10:30:27.999Z</time></trkpt><trkpt lat="39.690724721656935" lon="15.817451318145077"><ele>17.75</ele><time>2026-03-22T10:30:28.999Z</time></trkpt><trkpt lat="39.69083353013957" lon="15.817410049476289"><ele>16.0</ele><time>2026-03-22T10:30:29.999Z</time></trkpt><trkpt lat="39.690942491537314" lon="15.817367263491132"><ele>16.0</ele><time>2026-03-22T10:30:30.999Z</time></trkpt><trkpt lat="39.69105262775329" lon="15.817322399951731"><ele>16.0</ele><time>2026-03-22T10:30:31.999Z</time></trkpt><trkpt lat="39.69116022726631" lon="15.817278164354564"><ele>16.0</ele><time>2026-03-22T10:30:32.999Z</time></trkpt><trkpt lat="39.69125326763694" lon="15.817236277480042"><ele>16.0</ele><time>2026-03-22T10:30:33.999Z</time></trkpt><trkpt lat="39.69135008623496" lon="15.817194933430391"><ele>16.0</ele><time>2026-03-22T10:30:34.999Z</time></trkpt><trkpt lat="39.69146138175568" lon="15.817154644476025"><ele>16.25</ele><time>2026-03-22T10:30:35.999Z</time></trkpt><trkpt lat="39.69158085327735" lon="15.817114259812705"><ele>16.5</ele><time>2026-03-22T10:30:36.999Z</time></trkpt><trkpt lat="39.69170401825017" lon="15.81706938897394"><ele>16.75</ele><time>2026-03-22T10:30:37.999Z</time></trkpt><trkpt lat="39.691829794051586" lon="15.817018610475277"><ele>17.0</ele><time>2026-03-22T10:30:38.999Z</time></trkpt><trkpt lat="39.69196030772876" lon="15.816965277751605"><ele>18.25</ele><time>2026-03-22T10:30:39.999Z</time></trkpt><trkpt lat="39.692093044669285" lon="15.816911090599806"><ele>19.5</ele><time>2026-03-22T10:30:40.999Z</time></trkpt><trkpt lat="39.692229836799" lon="15.816851211797015"><ele>20.75</ele><time>2026-03-22T10:30:41.999Z</time></trkpt><trkpt lat="39.69237163695965" lon="15.816786911513157"><ele>22.0</ele><time>2026-03-22T10:30:42.999Z</time></trkpt><trkpt lat="39.692519575340526" lon="15.816725710218844"><ele>20.0</ele><time>2026-03-22T10:30:43.999Z</time></trkpt><trkpt lat="39.692671768244495" lon="15.81666996844134"><ele>18.0</ele><time>2026-03-22T10:30:44.999Z</time></trkpt><trkpt lat="39.69282573051454" lon="15.81661467086574"><ele>16.0</ele><time>2026-03-22T10:30:45.999Z</time></trkpt><trkpt lat="39.69297941535301" lon="15.816556603503855"><ele>16.0</ele><time>2026-03-22T10:30:46.999Z</time></trkpt><trkpt lat="39.69313260308092" lon="15.816497342777478"><ele>16.0</ele><time>2026-03-22T10:30:47.999Z</time></trkpt><trkpt lat="39.69329106239661" lon="15.816437686190975"><ele>16.0</ele><time>2026-03-22T10:30:48.999Z</time></trkpt><trkpt lat="39.69345352180155" lon="15.816374915298107"><ele>16.0</ele><time>2026-03-22T10:30:49.999Z</time></trkpt><trkpt lat="39.69361968754144" lon="15.816312211917237"><ele>16.0</ele><time>2026-03-22T10:30:50.999Z</time></trkpt><trkpt lat="39.69378955504756" lon="15.816247733543259"><ele>16.0</ele><time>2026-03-22T10:30:51.999Z</time></trkpt><trkpt lat="39.693962401543224" lon="15.816181195349767"><ele>16.0</ele><time>2026-03-22T10:30:52.999Z</time></trkpt><trkpt lat="39.6941374619805" lon="15.816113138735819"><ele>16.0</ele><time>2026-03-22T10:30:53.999Z</time></trkpt><trkpt lat="39.6943125562369" lon="15.816044596685842"><ele>16.0</ele><time>2026-03-22T10:30:54.999Z</time></trkpt><trkpt lat="39.69448970209192" lon="15.815975578355742"><ele>16.666666666666664</ele><time>2026-03-22T10:30:55.999Z</time></trkpt><trkpt lat="39.69466715778027" lon="15.81590613532689"><ele>17.333333333333332</ele><time>2026-03-22T10:30:56.999Z</time></trkpt><trkpt lat="39.69484376205512" lon="15.815836131070007"><ele>18.0</ele><time>2026-03-22T10:30:57.999Z</time></trkpt><trkpt lat="39.69502147987806" lon="15.815766526044857"><ele>18.0</ele><time>2026-03-22T10:30:58.999Z</time></trkpt><trkpt lat="39.6951993778844" lon="15.815696919367959"><ele>18.0</ele><time>2026-03-22T10:30:59.999Z</time></trkpt><trkpt lat="39.69537669576229" lon="15.815627091503172"><ele>18.0</ele><time>2026-03-22T10:31:00.999Z</time></trkpt><trkpt lat="39.69555608861555" lon="15.815556098309893"><ele>20.333333333333336</ele><time>2026-03-22T10:31:01.999Z</time></trkpt><trkpt lat="39.69573657437417" lon="15.815485364893664"><ele>22.666666666666668</ele><time>2026-03-22T10:31:02.999Z</time></trkpt><trkpt lat="39.69591596479127" lon="15.815414292369587"><ele>25.0</ele><time>2026-03-22T10:31:03.999Z</time></trkpt><trkpt lat="39.69609608392502" lon="15.81534178847479"><ele>25.333333333333336</ele><time>2026-03-22T10:31:04.999Z</time></trkpt><trkpt lat="39.696274799520836" lon="15.815270082394601"><ele>25.666666666666664</ele><time>2026-03-22T10:31:05.999Z</time></trkpt><trkpt lat="39.69645435553973" lon="15.81519712527851"><ele>26.0</ele><time>2026-03-22T10:31:06.999Z</time></trkpt><trkpt lat="39.69663328987126" lon="15.815125056531016"><ele>22.666666666666664</ele><time>2026-03-22T10:31:07.999Z</time></trkpt><trkpt lat="39.696812520925015" lon="15.815054903117382"><ele>19.333333333333332</ele><time>2026-03-22T10:31:08.999Z</time></trkpt><trkpt lat="39.696993018151346" lon="15.81498344855557"><ele>16.0</ele><time>2026-03-22T10:31:09.999Z</time></trkpt><trkpt lat="39.697175473918485" lon="15.814913845385368"><ele>16.0</ele><time>2026-03-22T10:31:10.999Z</time></trkpt><trkpt lat="39.69735916880938" lon="15.81484429474224"><ele>16.0</ele><time>2026-03-22T10:31:11.998Z</time></trkpt><trkpt lat="39.69754186465099" lon="15.814772110226311"><ele>16.0</ele><time>2026-03-22T10:31:12.998Z</time></trkpt><trkpt lat="39.69772598158605" lon="15.814700148879012"><ele>16.333333333333332</ele><time>2026-03-22T10:31:13.998Z</time></trkpt><trkpt lat="39.6979103713685" lon="15.814629519419732"><ele>16.666666666666668</ele><time>2026-03-22T10:31:14.998Z</time></trkpt><trkpt lat="39.69809524185061" lon="15.814559005975745"><ele>17.0</ele><time>2026-03-22T10:31:15.998Z</time></trkpt><trkpt lat="39.69827888102299" lon="15.814486057785512"><ele>17.0</ele><time>2026-03-22T10:31:16.998Z</time></trkpt><trkpt lat="39.69846133767504" lon="15.814415800883129"><ele>17.0</ele><time>2026-03-22T10:31:17.998Z</time></trkpt><trkpt lat="39.69864701358027" lon="15.814345241466803"><ele>17.0</ele><time>2026-03-22T10:31:18.998Z</time></trkpt><trkpt lat="39.698833364910946" lon="15.814274992100342"><ele>15.666666666666668</ele><time>2026-03-22T10:31:19.998Z</time></trkpt><trkpt lat="39.69902063428124" lon="15.81421357861345"><ele>14.333333333333332</ele><time>2026-03-22T10:31:20.998Z</time></trkpt><trkpt lat="39.69921062874917" lon="15.814163367848055"><ele>13.0</ele><time>2026-03-22T10:31:21.998Z</time></trkpt><trkpt lat="39.69940402459899" lon="15.814122401507491"><ele>13.333333333333332</ele><time>2026-03-22T10:31:22.998Z</time></trkpt><trkpt lat="39.69959752728186" lon="15.814090904344317"><ele>13.666666666666668</ele><time>2026-03-22T10:31:23.998Z</time></trkpt><trkpt lat="39.69979174423777" lon="15.81406966638054"><ele>14.0</ele><time>2026-03-22T10:31:24.998Z</time></trkpt><trkpt lat="39.699988540816676" lon="15.814057350902925"><ele>14.0</ele><time>2026-03-22T10:31:26Z</time></trkpt><trkpt lat="39.70018576621999" lon="15.8140510772556"><ele>14.0</ele><time>2026-03-22T10:31:27Z</time></trkpt><trkpt lat="39.70037916315954" lon="15.814050345922478"><ele>14.0</ele><time>2026-03-22T10:31:28Z</time></trkpt><trkpt lat="39.700567066634086" lon="15.81405037399352"><ele>15.0</ele><time>2026-03-22T10:31:29Z</time></trkpt><trkpt lat="39.70075081220225" lon="15.814051503403462"><ele>16.0</ele><time>2026-03-22T10:31:30Z</time></trkpt><trkpt lat="39.70093488979833" lon="15.814053672879801"><ele>17.0</ele><time>2026-03-22T10:31:31Z</time></trkpt><trkpt lat="39.70111958592358" lon="15.814059935005591"><ele>18.0</ele><time>2026-03-22T10:31:32Z</time></trkpt><trkpt lat="39.70130644963139" lon="15.814064643254449"><ele>19.0</ele><time>2026-03-22T10:31:33Z</time></trkpt><trkpt lat="39.701497861571326" lon="15.814066373521147"><ele>20.0</ele><time>2026-03-22T10:31:34Z</time></trkpt><trkpt lat="39.70168988927558" lon="15.814070971890136"><ele>20.0</ele><time>2026-03-22T10:31:35Z</time></trkpt><trkpt lat="39.701882493353565" lon="15.814078523356928"><ele>20.0</ele><time>2026-03-22T10:31:36Z</time></trkpt><trkpt lat="39.70207717546881" lon="15.814086988131493"><ele>20.0</ele><time>2026-03-22T10:31:37Z</time></trkpt><trkpt lat="39.702272979855934" lon="15.814094011472942"><ele>18.666666666666668</ele><time>2026-03-22T10:31:38Z</time></trkpt><trkpt lat="39.70246820089542" lon="15.81410041931912"><ele>17.333333333333332</ele><time>2026-03-22T10:31:39Z</time></trkpt><trkpt lat="39.70266539580155" lon="15.81410714748331"><ele>16.0</ele><time>2026-03-22T10:31:40Z</time></trkpt><trkpt lat="39.70286340765341" lon="15.81411437248713"><ele>15.333333333333332</ele><time>2026-03-22T10:31:41Z</time></trkpt><trkpt lat="39.703060607740454" lon="15.814118649097445"><ele>14.666666666666668</ele><time>2026-03-22T10:31:42Z</time></trkpt><trkpt lat="39.70325901967897" lon="15.814121840578949"><ele>14.0</ele><time>2026-03-22T10:31:43Z</time></trkpt><trkpt lat="39.703459609440976" lon="15.814126545970623"><ele>14.0</ele><time>2026-03-22T10:31:44Z</time></trkpt><trkpt lat="39.703659042179524" lon="15.814131458641928"><ele>14.0</ele><time>2026-03-22T10:31:45Z</time></trkpt><trkpt lat="39.70385876506117" lon="15.814135442800866"><ele>14.0</ele><time>2026-03-22T10:31:46Z</time></trkpt><trkpt lat="39.70405827828296" lon="15.81414064947074"><ele>14.0</ele><time>2026-03-22T10:31:47Z</time></trkpt><trkpt lat="39.70425878058348" lon="15.814148006548335"><ele>14.0</ele><time>2026-03-22T10:31:48Z</time></trkpt><trkpt lat="39.70446042659456" lon="15.814154467768581"><ele>14.0</ele><time>2026-03-22T10:31:49Z</time></trkpt><trkpt lat="39.7046656942897" lon="15.814156946589002"><ele>14.0</ele><time>2026-03-22T10:31:50Z</time></trkpt><trkpt lat="39.70486849964198" lon="15.814156369867609"><ele>14.0</ele><time>2026-03-22T10:31:51Z</time></trkpt><trkpt lat="39.70507013817664" lon="15.814153476825487"><ele>14.0</ele><time>2026-03-22T10:31:52Z</time></trkpt><trkpt lat="39.70527134558459" lon="15.814147225069354"><ele>14.666666666666668</ele><time>2026-03-22T10:31:53Z</time></trkpt><trkpt lat="39.70547064287347" lon="15.81413471188968"><ele>15.333333333333332</ele><time>2026-03-22T10:31:54Z</time></trkpt><trkpt lat="39.70566787438057" lon="15.814116629835583"><ele>16.0</ele><time>2026-03-22T10:31:55Z</time></trkpt><trkpt lat="39.70586282044302" lon="15.81409692597204"><ele>16.0</ele><time>2026-03-22T10:31:55.999Z</time></trkpt><trkpt lat="39.70605524996669" lon="15.814078392661955"><ele>16.0</ele><time>2026-03-22T10:31:56.999Z</time></trkpt><trkpt lat="39.706248531960824" lon="15.81406018836414"><ele>16.0</ele><time>2026-03-22T10:31:57.999Z</time></trkpt><trkpt lat="39.70644381987627" lon="15.81403818620922"><ele>14.666666666666666</ele><time>2026-03-22T10:31:58.999Z</time></trkpt><trkpt lat="39.70664090528119" lon="15.814013895144631"><ele>13.333333333333332</ele><time>2026-03-22T10:31:59.999Z</time></trkpt><trkpt lat="39.70684050355612" lon="15.813989881842748"><ele>12.0</ele><time>2026-03-22T10:32:00.999Z</time></trkpt><trkpt lat="39.707045121805415" lon="15.813966087754746"><ele>12.0</ele><time>2026-03-22T10:32:01.999Z</time></trkpt><trkpt lat="39.70725309152439" lon="15.813940592323718"><ele>12.0</ele><time>2026-03-22T10:32:02.999Z</time></trkpt><trkpt lat="39.70746196063581" lon="15.813914721182927"><ele>12.0</ele><time>2026-03-22T10:32:03.999Z</time></trkpt><trkpt lat="39.707672890529025" lon="15.813889363071578"><ele>12.333333333333332</ele><time>2026-03-22T10:32:04.999Z</time></trkpt><trkpt lat="39.70788420239023" lon="15.813864932346483"><ele>12.666666666666666</ele><time>2026-03-22T10:32:05.999Z</time></trkpt><trkpt lat="39.70809711619297" lon="15.813841694465294"><ele>13.0</ele><time>2026-03-22T10:32:06.999Z</time></trkpt><trkpt lat="39.70831060570131" lon="15.813818621880595"><ele>13.0</ele><time>2026-03-22T10:32:07.999Z</time></trkpt><trkpt lat="39.708523917220596" lon="15.81379699491972"><ele>13.0</ele><time>2026-03-22T10:32:08.999Z</time></trkpt><trkpt lat="39.70873579576133" lon="15.813773484284825"><ele>13.0</ele><time>2026-03-22T10:32:09.999Z</time></trkpt><trkpt lat="39.70894776472729" lon="15.8137496530358"><ele>15.0</ele><time>2026-03-22T10:32:10.999Z</time></trkpt><trkpt lat="39.70915913012531" lon="15.813724753751764"><ele>17.0</ele><time>2026-03-22T10:32:11.999Z</time></trkpt><trkpt lat="39.709369379333864" lon="15.81369863521751"><ele>19.0</ele><time>2026-03-22T10:32:12.999Z</time></trkpt><trkpt lat="39.709578768031186" lon="15.813670219304644"><ele>24.333333333333332</ele><time>2026-03-22T10:32:13.999Z</time></trkpt><trkpt lat="39.709787448182865" lon="15.813639720317466"><ele>29.666666666666664</ele><time>2026-03-22T10:32:14.999Z</time></trkpt><trkpt lat="39.7099907313235" lon="15.813601877399432"><ele>35.0</ele><time>2026-03-22T10:32:15.999Z</time></trkpt><trkpt lat="39.71017496609875" lon="15.813553095333987"><ele>37.33333333333333</ele><time>2026-03-22T10:32:16.999Z</time></trkpt><trkpt lat="39.71035087159313" lon="15.81350112574127"><ele>39.666666666666664</ele><time>2026-03-22T10:32:17.999Z</time></trkpt><trkpt lat="39.71050535312648" lon="15.813440057064476"><ele>42.0</ele><time>2026-03-22T10:32:18.999Z</time></trkpt><trkpt lat="39.71064858591026" lon="15.813382148680342"><ele>40.25</ele><time>2026-03-22T10:32:19.999Z</time></trkpt><trkpt lat="39.710787348308614" lon="15.813320567271342"><ele>38.5</ele><time>2026-03-22T10:32:20.999Z</time></trkpt><trkpt lat="39.71092270429703" lon="15.813261900150987"><ele>36.75</ele><time>2026-03-22T10:32:21.999Z</time></trkpt><trkpt lat="39.71105473921268" lon="15.813204441216742"><ele>35.0</ele><time>2026-03-22T10:32:22.999Z</time></trkpt><trkpt lat="39.71118082904976" lon="15.813144529787364"><ele>35.0</ele><time>2026-03-22T10:32:23.999Z</time></trkpt><trkpt lat="39.71130213672684" lon="15.813080872775046"><ele>35.0</ele><time>2026-03-22T10:32:24.999Z</time></trkpt><trkpt lat="39.71142057528677" lon="15.813009050337232"><ele>35.0</ele><time>2026-03-22T10:32:25.999Z</time></trkpt><trkpt lat="39.711539215814824" lon="15.812924811635911"><ele>35.0</ele><time>2026-03-22T10:32:26.999Z</time></trkpt><trkpt lat="39.71165824931176" lon="15.81283418162775"><ele>35.0</ele><time>2026-03-22T10:32:27.999Z</time></trkpt><trkpt lat="39.711773374924476" lon="15.812740397119983"><ele>35.0</ele><time>2026-03-22T10:32:28.999Z</time></trkpt><trkpt lat="39.71188271331462" lon="15.812644259580438"><ele>35.0</ele><time>2026-03-22T10:32:29.999Z</time></trkpt><trkpt lat="39.71197931569932" lon="15.812549177872958"><ele>35.0</ele><time>2026-03-22T10:32:30.999Z</time></trkpt><trkpt lat="39.712057099564596" lon="15.812459468838377"><ele>34.4</ele><time>2026-03-22T10:32:31.999Z</time></trkpt><trkpt lat="39.71212967106877" lon="15.81237118477123"><ele>33.8</ele><time>2026-03-22T10:32:32.999Z</time></trkpt><trkpt lat="39.712208268688876" lon="15.812289411528285"><ele>33.2</ele><time>2026-03-22T10:32:33.999Z</time></trkpt><trkpt lat="39.71229046523698" lon="15.812216263620192"><ele>32.6</ele><time>2026-03-22T10:32:34.999Z</time></trkpt><trkpt lat="39.71237954864506" lon="15.812140432140904"><ele>32.0</ele><time>2026-03-22T10:32:35.999Z</time></trkpt><trkpt lat="39.712476049817035" lon="15.812065627278876"><ele>32.0</ele><time>2026-03-22T10:32:36.999Z</time></trkpt><trkpt lat="39.71259047658381" lon="15.81200558429739"><ele>32.0</ele><time>2026-03-22T10:32:37.999Z</time></trkpt><trkpt lat="39.71272767586112" lon="15.811989007793022"><ele>32.0</ele><time>2026-03-22T10:32:38.999Z</time></trkpt><trkpt lat="39.71287037562036" lon="15.811936569714375"><ele>32.0</ele><time>2026-03-22T10:32:39.999Z</time></trkpt><trkpt lat="39.7130247901369" lon="15.811904454011312"><ele>32.0</ele><time>2026-03-22T10:32:40.999Z</time></trkpt><trkpt lat="39.713183689179196" lon="15.811863595521231"><ele>32.0</ele><time>2026-03-22T10:32:41.999Z</time></trkpt><trkpt lat="39.71334304280255" lon="15.811825119789859"><ele>32.0</ele><time>2026-03-22T10:32:42.999Z</time></trkpt><trkpt lat="39.713511179605334" lon="15.811789390544387"><ele>33.0</ele><time>2026-03-22T10:32:43.999Z</time></trkpt><trkpt lat="39.71369270651276" lon="15.811752283155705"><ele>34.0</ele><time>2026-03-22T10:32:44.999Z</time></trkpt><trkpt lat="39.7138826445656" lon="15.811712020662856"><ele>35.0</ele><time>2026-03-22T10:32:45.999Z</time></trkpt><trkpt lat="39.714079755624134" lon="15.811669726851719"><ele>35.0</ele><time>2026-03-22T10:32:46.999Z</time></trkpt><trkpt lat="39.71428058577271" lon="15.811625971542197"><ele>35.0</ele><time>2026-03-22T10:32:47.999Z</time></trkpt><trkpt lat="39.71447889489798" lon="15.81158454811181"><ele>35.0</ele><time>2026-03-22T10:32:48.999Z</time></trkpt><trkpt lat="39.71468534609122" lon="15.81154710422391"><ele>35.0</ele><time>2026-03-22T10:32:49.999Z</time></trkpt><trkpt lat="39.71488473308522" lon="15.811516970151336"><ele>35.0</ele><time>2026-03-22T10:32:50.999Z</time></trkpt><trkpt lat="39.715086099795464" lon="15.811492754685206"><ele>35.0</ele><time>2026-03-22T10:32:51.999Z</time></trkpt><trkpt lat="39.715290677356684" lon="15.811478529642436"><ele>35.0</ele><time>2026-03-22T10:32:52.999Z</time></trkpt><trkpt lat="39.71549705796294" lon="15.811473350047475"><ele>35.0</ele><time>2026-03-22T10:32:53.999Z</time></trkpt><trkpt lat="39.715706714869064" lon="15.81147690849965"><ele>35.0</ele><time>2026-03-22T10:32:54.999Z</time></trkpt><trkpt lat="39.71591807472239" lon="15.811489395943727"><ele>33.0</ele><time>2026-03-22T10:32:55.999Z</time></trkpt><trkpt lat="39.71613009726417" lon="15.8115097357425"><ele>31.0</ele><time>2026-03-22T10:32:56.999Z</time></trkpt><trkpt lat="39.716342875351565" lon="15.81153890375947"><ele>29.0</ele><time>2026-03-22T10:32:57.999Z</time></trkpt><trkpt lat="39.71655345772885" lon="15.811597658285137"><ele>29.0</ele><time>2026-03-22T10:32:58.999Z</time></trkpt><trkpt lat="39.71676596501389" lon="15.81163323030095"><ele>29.0</ele><time>2026-03-22T10:32:59.999Z</time></trkpt><trkpt lat="39.71697509011378" lon="15.81164438223449"><ele>29.0</ele><time>2026-03-22T10:33:00.999Z</time></trkpt><trkpt lat="39.717181378328924" lon="15.811680411084607"><ele>26.333333333333332</ele><time>2026-03-22T10:33:01.999Z</time></trkpt><trkpt lat="39.71739016089829" lon="15.8117178981527"><ele>23.666666666666664</ele><time>2026-03-22T10:33:02.999Z</time></trkpt><trkpt lat="39.717601991040084" lon="15.811753502104613"><ele>21.0</ele><time>2026-03-22T10:33:03.999Z</time></trkpt><trkpt lat="39.71781747202088" lon="15.811787582867536"><ele>17.333333333333332</ele><time>2026-03-22T10:33:04.999Z</time></trkpt><trkpt lat="39.7180349386439" lon="15.811822060598917"><ele>13.666666666666668</ele><time>2026-03-22T10:33:05.999Z</time></trkpt><trkpt lat="39.71825127862879" lon="15.811853878007668"><ele>10.0</ele><time>2026-03-22T10:33:06.999Z</time></trkpt><trkpt lat="39.71846788906101" lon="15.811884978574373"><ele>7.666666666666667</ele><time>2026-03-22T10:33:07.999Z</time></trkpt><trkpt lat="39.71868652565017" lon="15.81193672844544"><ele>5.333333333333334</ele><time>2026-03-22T10:33:08.999Z</time></trkpt><trkpt lat="39.71891083354394" lon="15.811962501213177"><ele>3.0</ele><time>2026-03-22T10:33:09.998Z</time></trkpt><trkpt lat="39.71914300427465" lon="15.81195657637896"><ele>3.0</ele><time>2026-03-22T10:33:10.998Z</time></trkpt><trkpt lat="39.719371737326775" lon="15.811969831636908"><ele>3.0</ele><time>2026-03-22T10:33:11.998Z</time></trkpt><trkpt lat="39.71960509831984" lon="15.811976924374763"><ele>3.5</ele><time>2026-03-22T10:33:12.998Z</time></trkpt><trkpt lat="39.71984484044039" lon="15.811980902568788"><ele>4.0</ele><time>2026-03-22T10:33:13.998Z</time></trkpt><trkpt lat="39.72008749873788" lon="15.811978376713032"><ele>3.0</ele><time>2026-03-22T10:33:14.998Z</time></trkpt><trkpt lat="39.72033001767869" lon="15.811968685778972"><ele>2.0</ele><time>2026-03-22T10:33:15.998Z</time></trkpt><trkpt lat="39.72057371451064" lon="15.811952100850457"><ele>2.0</ele><time>2026-03-22T10:33:16.998Z</time></trkpt><trkpt lat="39.72081484821524" lon="15.811928916978305"><ele>2.0</ele><time>2026-03-22T10:33:17.998Z</time></trkpt><trkpt lat="39.721056427697874" lon="15.811898325721726"><ele>1.5</ele><time>2026-03-22T10:33:18.998Z</time></trkpt><trkpt lat="39.72129716933576" lon="15.81186391889383"><ele>1.0</ele><time>2026-03-22T10:33:19.998Z</time></trkpt><trkpt lat="39.72153873310829" lon="15.8118276131509"><ele>1.5</ele><time>2026-03-22T10:33:20.998Z</time></trkpt><trkpt lat="39.72178157518169" lon="15.811793059583163"><ele>2.0</ele><time>2026-03-22T10:33:21.998Z</time></trkpt><trkpt lat="39.72202242519158" lon="15.81175871060239"><ele>2.0</ele><time>2026-03-22T10:33:22.998Z</time></trkpt><trkpt lat="39.72226012712042" lon="15.811724582430301"><ele>2.0</ele><time>2026-03-22T10:33:23.998Z</time></trkpt><trkpt lat="39.722498122345016" lon="15.811693429153486"><ele>2.0</ele><time>2026-03-22T10:33:24.998Z</time></trkpt><trkpt lat="39.72273323727747" lon="15.811662517569106"><ele>2.0</ele><time>2026-03-22T10:33:25.998Z</time></trkpt><trkpt lat="39.722969456270185" lon="15.811630008834815"><ele>2.0</ele><time>2026-03-22T10:33:26.998Z</time></trkpt><trkpt lat="39.72320513125702" lon="15.811597645962504"><ele>2.0</ele><time>2026-03-22T10:33:27.998Z</time></trkpt><trkpt lat="39.72344036401193" lon="15.811564177787766"><ele>2.5</ele><time>2026-03-22T10:33:28.998Z</time></trkpt><trkpt lat="39.72367488998533" lon="15.811530107153168"><ele>3.0</ele><time>2026-03-22T10:33:29.998Z</time></trkpt><trkpt lat="39.72390788869982" lon="15.811495683982372"><ele>3.0</ele><time>2026-03-22T10:33:31Z</time></trkpt><trkpt lat="39.72414024669737" lon="15.811462078905771"><ele>3.0</ele><time>2026-03-22T10:33:32Z</time></trkpt><trkpt lat="39.724371501721606" lon="15.811428163399786"><ele>3.5</ele><time>2026-03-22T10:33:33Z</time></trkpt><trkpt lat="39.724599466317805" lon="15.811395344696866"><ele>4.0</ele><time>2026-03-22T10:33:34Z</time></trkpt><trkpt lat="39.72482447523807" lon="15.811362962039215"><ele>4.0</ele><time>2026-03-22T10:33:35Z</time></trkpt><trkpt lat="39.72505038879192" lon="15.81133255906945"><ele>4.0</ele><time>2026-03-22T10:33:36Z</time></trkpt><trkpt lat="39.72527824026018" lon="15.811299815705043"><ele>3.5</ele><time>2026-03-22T10:33:37Z</time></trkpt><trkpt lat="39.725507145757774" lon="15.811264762092295"><ele>3.0</ele><time>2026-03-22T10:33:38Z</time></trkpt><trkpt lat="39.72573700107421" lon="15.811229814461564"><ele>3.0</ele><time>2026-03-22T10:33:39Z</time></trkpt><trkpt lat="39.7259688753089" lon="15.81119683070468"><ele>3.0</ele><time>2026-03-22T10:33:40Z</time></trkpt><trkpt lat="39.72620304746046" lon="15.81116747818748"><ele>3.5</ele><time>2026-03-22T10:33:41Z</time></trkpt><trkpt lat="39.72643720146227" lon="15.811138769959184"><ele>4.0</ele><time>2026-03-22T10:33:42Z</time></trkpt><trkpt lat="39.726670793696805" lon="15.811108187940246"><ele>2.5</ele><time>2026-03-22T10:33:43Z</time></trkpt><trkpt lat="39.726903284007435" lon="15.811077371418614"><ele>1.0</ele><time>2026-03-22T10:33:44Z</time></trkpt><trkpt lat="39.72713576139783" lon="15.811045272973564"><ele>1.0</ele><time>2026-03-22T10:33:45Z</time></trkpt><trkpt lat="39.727367249385" lon="15.811012860114717"><ele>1.0</ele><time>2026-03-22T10:33:46Z</time></trkpt><trkpt lat="39.7275955815714" lon="15.810980817585495"><ele>2.0</ele><time>2026-03-22T10:33:47Z</time></trkpt><trkpt lat="39.72782082385408" lon="15.810948882224018"><ele>3.0</ele><time>2026-03-22T10:33:48Z</time></trkpt><trkpt lat="39.72804398726133" lon="15.81091854147378"><ele>3.0</ele><time>2026-03-22T10:33:49Z</time></trkpt><trkpt lat="39.72826306016549" lon="15.810889373490557"><ele>3.0</ele><time>2026-03-22T10:33:50Z</time></trkpt><trkpt lat="39.7284784083398" lon="15.810859990053101"><ele>3.0</ele><time>2026-03-22T10:33:51Z</time></trkpt><trkpt lat="39.72869032291676" lon="15.810830568427335"><ele>3.0</ele><time>2026-03-22T10:33:52Z</time></trkpt><trkpt lat="39.728906305574625" lon="15.810798947000313"><ele>3.0</ele><time>2026-03-22T10:33:53Z</time></trkpt><trkpt lat="39.72912833749379" lon="15.810764239184762"><ele>3.0</ele><time>2026-03-22T10:33:54Z</time></trkpt><trkpt lat="39.729345041041356" lon="15.810727670142224"><ele>2.6666666666666665</ele><time>2026-03-22T10:33:55Z</time></trkpt><trkpt lat="39.729555246864244" lon="15.810689939000111"><ele>2.333333333333333</ele><time>2026-03-22T10:33:55.999Z</time></trkpt><trkpt lat="39.72976001118789" lon="15.810649675126552"><ele>2.0</ele><time>2026-03-22T10:33:56.999Z</time></trkpt><trkpt lat="39.72995331794427" lon="15.810608262126616"><ele>2.0</ele><time>2026-03-22T10:33:57.999Z</time></trkpt><trkpt lat="39.730131245160734" lon="15.810565912044426"><ele>2.0</ele><time>2026-03-22T10:33:58.999Z</time></trkpt><trkpt lat="39.73028939816983" lon="15.810523108467493"><ele>2.0</ele><time>2026-03-22T10:33:59.999Z</time></trkpt><trkpt lat="39.73043053216899" lon="15.810478829764648"><ele>2.5</ele><time>2026-03-22T10:34:00.999Z</time></trkpt><trkpt lat="39.73056444312126" lon="15.810433862835213"><ele>3.0</ele><time>2026-03-22T10:34:01.999Z</time></trkpt><trkpt lat="39.73068306802184" lon="15.810397648231074"><ele>3.5</ele><time>2026-03-22T10:34:02.999Z</time></trkpt><trkpt lat="39.7307921110686" lon="15.810370201629421"><ele>4.0</ele><time>2026-03-22T10:34:03.999Z</time></trkpt><trkpt lat="39.73089280065565" lon="15.810356524926652"><ele>4.0</ele><time>2026-03-22T10:34:04.999Z</time></trkpt><trkpt lat="39.730993159140496" lon="15.810350849451437"><ele>4.0</ele><time>2026-03-22T10:34:05.999Z</time></trkpt><trkpt lat="39.73109111320824" lon="15.810332113809936"><ele>4.0</ele><time>2026-03-22T10:34:06.999Z</time></trkpt><trkpt lat="39.73119015768054" lon="15.810282659097048"><ele>4.0</ele><time>2026-03-22T10:34:07.999Z</time></trkpt><trkpt lat="39.731292173321314" lon="15.810220162880732"><ele>4.0</ele><time>2026-03-22T10:34:08.999Z</time></trkpt><trkpt lat="39.731377350080486" lon="15.810184697582297"><ele>4.0</ele><time>2026-03-22T10:34:09.999Z</time></trkpt><trkpt lat="39.73146317875095" lon="15.81015923724675"><ele>4.0</ele><time>2026-03-22T10:34:10.999Z</time></trkpt><trkpt lat="39.731564903616565" lon="15.81012713139979"><ele>4.0</ele><time>2026-03-22T10:34:11.999Z</time></trkpt><trkpt lat="39.73167829981011" lon="15.810089129418257"><ele>4.0</ele><time>2026-03-22T10:34:12.999Z</time></trkpt><trkpt lat="39.73180504452847" lon="15.810054320498919"><ele>4.0</ele><time>2026-03-22T10:34:13.999Z</time></trkpt><trkpt lat="39.73194329983809" lon="15.81001938190258"><ele>4.333333333333333</ele><time>2026-03-22T10:34:14.999Z</time></trkpt><trkpt lat="39.73209003395823" lon="15.809983073988107"><ele>4.666666666666667</ele><time>2026-03-22T10:34:15.999Z</time></trkpt><trkpt lat="39.73224535490432" lon="15.809942289309944"><ele>5.0</ele><time>2026-03-22T10:34:16.999Z</time></trkpt><trkpt lat="39.73240475583979" lon="15.809897719439745"><ele>5.0</ele><time>2026-03-22T10:34:17.999Z</time></trkpt><trkpt lat="39.73257128367016" lon="15.809851048188275"><ele>5.0</ele><time>2026-03-22T10:34:18.999Z</time></trkpt><trkpt lat="39.73274133477993" lon="15.809802935837595"><ele>5.0</ele><time>2026-03-22T10:34:19.999Z</time></trkpt><trkpt lat="39.7329173115641" lon="15.809754861606873"><ele>5.0</ele><time>2026-03-22T10:34:20.999Z</time></trkpt><trkpt lat="39.73309079601162" lon="15.8097078644947"><ele>5.0</ele><time>2026-03-22T10:34:21.999Z</time></trkpt><trkpt lat="39.73326814150747" lon="15.809660248413083"><ele>5.0</ele><time>2026-03-22T10:34:22.999Z</time></trkpt><trkpt lat="39.733451577882406" lon="15.809611443387821"><ele>4.666666666666667</ele><time>2026-03-22T10:34:23.999Z</time></trkpt><trkpt lat="39.733637306567715" lon="15.809561390481488"><ele>4.333333333333333</ele><time>2026-03-22T10:34:24.999Z</time></trkpt><trkpt lat="39.73382675974195" lon="15.809511761718413"><ele>4.0</ele><time>2026-03-22T10:34:25.999Z</time></trkpt><trkpt lat="39.73402098934567" lon="15.80946124498236"><ele>4.0</ele><time>2026-03-22T10:34:26.999Z</time></trkpt><trkpt lat="39.73421741439215" lon="15.809411707111703"><ele>4.0</ele><time>2026-03-22T10:34:27.999Z</time></trkpt><trkpt lat="39.73441611402931" lon="15.809362081028363"><ele>4.0</ele><time>2026-03-22T10:34:28.999Z</time></trkpt><trkpt lat="39.7346183146523" lon="15.809311376708285"><ele>4.0</ele><time>2026-03-22T10:34:29.999Z</time></trkpt><trkpt lat="39.73482241080508" lon="15.8092602714791"><ele>4.0</ele><time>2026-03-22T10:34:30.999Z</time></trkpt><trkpt lat="39.73502966622153" lon="15.809210355283943"><ele>4.0</ele><time>2026-03-22T10:34:31.999Z</time></trkpt><trkpt lat="39.73523906694876" lon="15.809163694801398"><ele>4.0</ele><time>2026-03-22T10:34:32.999Z</time></trkpt><trkpt lat="39.735447452135645" lon="15.809123376105672"><ele>4.0</ele><time>2026-03-22T10:34:33.999Z</time></trkpt><trkpt lat="39.735651969041925" lon="15.809089448130235"><ele>4.0</ele><time>2026-03-22T10:34:34.999Z</time></trkpt><trkpt lat="39.735855351230406" lon="15.809057457230544"><ele>3.6666666666666665</ele><time>2026-03-22T10:34:35.999Z</time></trkpt><trkpt lat="39.7360609553829" lon="15.809025753553865"><ele>3.333333333333333</ele><time>2026-03-22T10:34:36.999Z</time></trkpt><trkpt lat="39.73626720251413" lon="15.80899362909859"><ele>3.0</ele><time>2026-03-22T10:34:37.999Z</time></trkpt><trkpt lat="39.73647559330789" lon="15.808961974009657"><ele>3.0</ele><time>2026-03-22T10:34:38.999Z</time></trkpt><trkpt lat="39.7366826716861" lon="15.808934197552757"><ele>3.0</ele><time>2026-03-22T10:34:39.999Z</time></trkpt><trkpt lat="39.736889443825625" lon="15.808909046753945"><ele>3.0</ele><time>2026-03-22T10:34:40.999Z</time></trkpt><trkpt lat="39.737092606100674" lon="15.808883900777774"><ele>3.666666666666667</ele><time>2026-03-22T10:34:41.999Z</time></trkpt><trkpt lat="39.737291903829444" lon="15.808859812115506"><ele>4.333333333333334</ele><time>2026-03-22T10:34:42.999Z</time></trkpt><trkpt lat="39.73748934352435" lon="15.808835682224249"><ele>5.0</ele><time>2026-03-22T10:34:43.999Z</time></trkpt><trkpt lat="39.737681669810385" lon="15.808813545122563"><ele>4.333333333333334</ele><time>2026-03-22T10:34:44.999Z</time></trkpt><trkpt lat="39.73786796005809" lon="15.80879228762"><ele>3.666666666666667</ele><time>2026-03-22T10:34:45.999Z</time></trkpt><trkpt lat="39.73804857096077" lon="15.808771168192123"><ele>3.0</ele><time>2026-03-22T10:34:46.999Z</time></trkpt><trkpt lat="39.7382259233758" lon="15.808750539097561"><ele>3.0</ele><time>2026-03-22T10:34:47.999Z</time></trkpt><trkpt lat="39.738398138745744" lon="15.80873116379487"><ele>3.0</ele><time>2026-03-22T10:34:48.999Z</time></trkpt><trkpt lat="39.73856751958289" lon="15.808712541454653"><ele>3.0</ele><time>2026-03-22T10:34:49.999Z</time></trkpt><trkpt lat="39.73873487158422" lon="15.808695451042478"><ele>2.75</ele><time>2026-03-22T10:34:50.999Z</time></trkpt><trkpt lat="39.73888898325231" lon="15.808678216577764"><ele>2.5</ele><time>2026-03-22T10:34:51.999Z</time></trkpt><trkpt lat="39.739035449021436" lon="15.808661910861675"><ele>2.25</ele><time>2026-03-22T10:34:52.999Z</time></trkpt><trkpt lat="39.73917353167702" lon="15.808646279006206"><ele>2.0</ele><time>2026-03-22T10:34:53.999Z</time></trkpt><trkpt lat="39.73930750874529" lon="15.808631532116499"><ele>2.0</ele><time>2026-03-22T10:34:54.999Z</time></trkpt><trkpt lat="39.73942843821659" lon="15.808617385938494"><ele>2.0</ele><time>2026-03-22T10:34:55.999Z</time></trkpt><trkpt lat="39.739543550567134" lon="15.808603739770048"><ele>2.0</ele><time>2026-03-22T10:34:56.999Z</time></trkpt><trkpt lat="39.739653531011456" lon="15.808592347627261"><ele>2.0</ele><time>2026-03-22T10:34:57.999Z</time></trkpt><trkpt lat="39.739756983855315" lon="15.808582982569725"><ele>2.0</ele><time>2026-03-22T10:34:58.999Z</time></trkpt><trkpt lat="39.73986326771665" lon="15.808573603460793"><ele>2.0</ele><time>2026-03-22T10:34:59.999Z</time></trkpt><trkpt lat="39.739974727552806" lon="15.808568161770166"><ele>2.0</ele><time>2026-03-22T10:35:00.999Z</time></trkpt><trkpt lat="39.7400886831653" lon="15.80856417477635"><ele>2.0</ele><time>2026-03-22T10:35:01.999Z</time></trkpt><trkpt lat="39.74020110546447" lon="15.808561436164453"><ele>2.0</ele><time>2026-03-22T10:35:02.999Z</time></trkpt><trkpt lat="39.74028671453445" lon="15.808559491622384"><ele>2.2</ele><time>2026-03-22T10:35:03.999Z</time></trkpt><trkpt lat="39.740370014429516" lon="15.8085551883519"><ele>2.4000000000000004</ele><time>2026-03-22T10:35:04.999Z</time></trkpt><trkpt lat="39.74046732141826" lon="15.8085452849404"><ele>2.5999999999999996</ele><time>2026-03-22T10:35:05.999Z</time></trkpt><trkpt lat="39.74057456613558" lon="15.808532119386477"><ele>2.8</ele><time>2026-03-22T10:35:06.999Z</time></trkpt><trkpt lat="39.74069397629978" lon="15.80851655961851"><ele>3.0</ele><time>2026-03-22T10:35:07.999Z</time></trkpt><trkpt lat="39.74082508971774" lon="15.808499007679938"><ele>3.0</ele><time>2026-03-22T10:35:08.999Z</time></trkpt><trkpt lat="39.74096246330753" lon="15.808479519821667"><ele>3.0</ele><time>2026-03-22T10:35:09.998Z</time></trkpt><trkpt lat="39.741097196965484" lon="15.808460547880369"><ele>3.0</ele><time>2026-03-22T10:35:10.998Z</time></trkpt><trkpt lat="39.74123474804211" lon="15.808439072005138"><ele>3.0</ele><time>2026-03-22T10:35:11.998Z</time></trkpt><trkpt lat="39.74137444713174" lon="15.808412797787607"><ele>3.0</ele><time>2026-03-22T10:35:12.998Z</time></trkpt><trkpt lat="39.74152964520091" lon="15.808377792826576"><ele>3.0</ele><time>2026-03-22T10:35:13.998Z</time></trkpt><trkpt lat="39.74169773627989" lon="15.808340183863805"><ele>3.0</ele><time>2026-03-22T10:35:14.998Z</time></trkpt><trkpt lat="39.74186779175465" lon="15.80830739217064"><ele>3.0</ele><time>2026-03-22T10:35:15.998Z</time></trkpt><trkpt lat="39.74203614720206" lon="15.808277069614142"><ele>3.0</ele><time>2026-03-22T10:35:16.998Z</time></trkpt><trkpt lat="39.742201751972864" lon="15.808244743304929"><ele>3.0</ele><time>2026-03-22T10:35:17.998Z</time></trkpt><trkpt lat="39.74236099707788" lon="15.808208636801483"><ele>3.0</ele><time>2026-03-22T10:35:18.998Z</time></trkpt><trkpt lat="39.742506373224224" lon="15.80817374800833"><ele>3.0</ele><time>2026-03-22T10:35:19.998Z</time></trkpt><trkpt lat="39.742638598619244" lon="15.80814119626261"><ele>3.0</ele><time>2026-03-22T10:35:20.998Z</time></trkpt><trkpt lat="39.742760203402185" lon="15.808110605826252"><ele>3.0</ele><time>2026-03-22T10:35:21.998Z</time></trkpt><trkpt lat="39.7428776290071" lon="15.8080788490041"><ele>2.5</ele><time>2026-03-22T10:35:22.998Z</time></trkpt><trkpt lat="39.74300046505969" lon="15.808046595716336"><ele>2.0</ele><time>2026-03-22T10:35:23.998Z</time></trkpt><trkpt lat="39.74313076643813" lon="15.808010093747987"><ele>1.5</ele><time>2026-03-22T10:35:24.998Z</time></trkpt><trkpt lat="39.743268370748495" lon="15.807969449449496"><ele>1.0</ele><time>2026-03-22T10:35:25.998Z</time></trkpt><trkpt lat="39.74341960982075" lon="15.80791724550242"><ele>1.6666666666666665</ele><time>2026-03-22T10:35:26.998Z</time></trkpt><trkpt lat="39.7435842070449" lon="15.807861547799456"><ele>2.3333333333333335</ele><time>2026-03-22T10:35:27.998Z</time></trkpt><trkpt lat="39.74375518434378" lon="15.807807428276956"><ele>3.0</ele><time>2026-03-22T10:35:28.998Z</time></trkpt><trkpt lat="39.743929357480994" lon="15.807751125558168"><ele>3.0</ele><time>2026-03-22T10:35:29.998Z</time></trkpt><trkpt lat="39.74410581828766" lon="15.807695917218846"><ele>3.0</ele><time>2026-03-22T10:35:30.998Z</time></trkpt><trkpt lat="39.744270489813935" lon="15.807645254040988"><ele>3.0</ele><time>2026-03-22T10:35:31.998Z</time></trkpt><trkpt lat="39.74442011696052" lon="15.807599860366329"><ele>3.25</ele><time>2026-03-22T10:35:32.998Z</time></trkpt><trkpt lat="39.74455759640522" lon="15.807559313379278"><ele>3.5</ele><time>2026-03-22T10:35:33.998Z</time></trkpt><trkpt lat="39.74468957684187" lon="15.807521439484972"><ele>3.75</ele><time>2026-03-22T10:35:34.998Z</time></trkpt><trkpt lat="39.744813743611125" lon="15.80748651197094"><ele>4.0</ele><time>2026-03-22T10:35:36Z</time></trkpt><trkpt lat="39.74492875650868" lon="15.807453213231346"><ele>4.0</ele><time>2026-03-22T10:35:37Z</time></trkpt><trkpt lat="39.745038091683334" lon="15.807421908206367"><ele>4.0</ele><time>2026-03-22T10:35:38Z</time></trkpt><trkpt lat="39.74515022373322" lon="15.807391773644824"><ele>4.0</ele><time>2026-03-22T10:35:39Z</time></trkpt><trkpt lat="39.74526328731182" lon="15.807362105264902"><ele>4.0</ele><time>2026-03-22T10:35:40Z</time></trkpt><trkpt lat="39.7453772614876" lon="15.807332676466393"><ele>4.0</ele><time>2026-03-22T10:35:41Z</time></trkpt><trkpt lat="39.74549075656719" lon="15.807300676506646"><ele>4.0</ele><time>2026-03-22T10:35:42Z</time></trkpt><trkpt lat="39.74560511092778" lon="15.807265387286643"><ele>4.0</ele><time>2026-03-22T10:35:43Z</time></trkpt><trkpt lat="39.74571971629965" lon="15.807229567221079"><ele>4.0</ele><time>2026-03-22T10:35:44Z</time></trkpt><trkpt lat="39.74583554769789" lon="15.807194613183581"><ele>4.0</ele><time>2026-03-22T10:35:45Z</time></trkpt><trkpt lat="39.74595092093357" lon="15.807157973448152"><ele>4.0</ele><time>2026-03-22T10:35:46Z</time></trkpt><trkpt lat="39.746067795759636" lon="15.807123223723462"><ele>4.0</ele><time>2026-03-22T10:35:47Z</time></trkpt><trkpt lat="39.74618463265455" lon="15.807088592294624"><ele>4.0</ele><time>2026-03-22T10:35:48Z</time></trkpt><trkpt lat="39.746299326519285" lon="15.807050816403382"><ele>3.75</ele><time>2026-03-22T10:35:49Z</time></trkpt><trkpt lat="39.746414024651365" lon="15.807015808785778"><ele>3.5</ele><time>2026-03-22T10:35:50Z</time></trkpt><trkpt lat="39.74652952188957" lon="15.80698088082736"><ele>3.25</ele><time>2026-03-22T10:35:51Z</time></trkpt><trkpt lat="39.74664354894616" lon="15.806944671549235"><ele>3.0</ele><time>2026-03-22T10:35:52Z</time></trkpt><trkpt lat="39.74676083124013" lon="15.806906642352232"><ele>3.25</ele><time>2026-03-22T10:35:53Z</time></trkpt><trkpt lat="39.74687785576315" lon="15.806868711105826"><ele>3.5</ele><time>2026-03-22T10:35:54Z</time></trkpt><trkpt lat="39.74699477952782" lon="15.806831503811258"><ele>3.75</ele><time>2026-03-22T10:35:55Z</time></trkpt><trkpt lat="39.74711194895349" lon="15.806794710023546"><ele>4.0</ele><time>2026-03-22T10:35:56Z</time></trkpt><trkpt lat="39.747230014069" lon="15.806758535734858"><ele>4.0</ele><time>2026-03-22T10:35:56.999Z</time></trkpt><trkpt lat="39.74734838374052" lon="15.806722495642044"><ele>4.0</ele><time>2026-03-22T10:35:57.999Z</time></trkpt><trkpt lat="39.747466543818625" lon="15.80668619868709"><ele>4.0</ele><time>2026-03-22T10:35:58.999Z</time></trkpt><trkpt lat="39.7475844759856" lon="15.80664723969288"><ele>4.0</ele><time>2026-03-22T10:35:59.999Z</time></trkpt><trkpt lat="39.74770313034771" lon="15.80660975006508"><ele>4.25</ele><time>2026-03-22T10:36:00.999Z</time></trkpt><trkpt lat="39.747821738399395" lon="15.806573218747364"><ele>4.5</ele><time>2026-03-22T10:36:01.999Z</time></trkpt><trkpt lat="39.74794049079438" lon="15.806538514601082"><ele>4.75</ele><time>2026-03-22T10:36:02.999Z</time></trkpt><trkpt lat="39.74805868966646" lon="15.806502614262214"><ele>5.0</ele><time>2026-03-22T10:36:03.999Z</time></trkpt><trkpt lat="39.74817644018914" lon="15.806466085200649"><ele>5.0</ele><time>2026-03-22T10:36:04.999Z</time></trkpt><trkpt lat="39.748294070366136" lon="15.806427444097823"><ele>5.0</ele><time>2026-03-22T10:36:05.999Z</time></trkpt><trkpt lat="39.748411273000016" lon="15.806387914896698"><ele>5.0</ele><time>2026-03-22T10:36:06.999Z</time></trkpt><trkpt lat="39.748528527005874" lon="15.806349383388199"><ele>5.0</ele><time>2026-03-22T10:36:07.999Z</time></trkpt><trkpt lat="39.748646932971646" lon="15.806312870908844"><ele>4.75</ele><time>2026-03-22T10:36:08.999Z</time></trkpt><trkpt lat="39.74876479539588" lon="15.8062767204505"><ele>4.5</ele><time>2026-03-22T10:36:09.999Z</time></trkpt><trkpt lat="39.74888430545648" lon="15.806239412294573"><ele>4.25</ele><time>2026-03-22T10:36:10.999Z</time></trkpt><trkpt lat="39.74900213335723" lon="15.806203545056889"><ele>4.0</ele><time>2026-03-22T10:36:11.999Z</time></trkpt><trkpt lat="39.74912157472442" lon="15.806167568663984"><ele>4.0</ele><time>2026-03-22T10:36:12.999Z</time></trkpt><trkpt lat="39.749239813482404" lon="15.806129258466875"><ele>4.0</ele><time>2026-03-22T10:36:13.999Z</time></trkpt><trkpt lat="39.749358130875365" lon="15.806091874221087"><ele>4.0</ele><time>2026-03-22T10:36:14.999Z</time></trkpt><trkpt lat="39.74947585008452" lon="15.80605547088376"><ele>4.0</ele><time>2026-03-22T10:36:15.999Z</time></trkpt><trkpt lat="39.74959275175692" lon="15.806018617602817"><ele>3.75</ele><time>2026-03-22T10:36:16.999Z</time></trkpt><trkpt lat="39.74970976215289" lon="15.805981753655356"><ele>3.5</ele><time>2026-03-22T10:36:17.999Z</time></trkpt><trkpt lat="39.749827874931334" lon="15.805943532497002"><ele>3.25</ele><time>2026-03-22T10:36:18.999Z</time></trkpt><trkpt lat="39.74994499092354" lon="15.805907913745862"><ele>3.0</ele><time>2026-03-22T10:36:19.999Z</time></trkpt><trkpt lat="39.75006302565779" lon="15.805869315555022"><ele>3.0</ele><time>2026-03-22T10:36:20.999Z</time></trkpt><trkpt lat="39.75018031818077" lon="15.80582823953771"><ele>3.0</ele><time>2026-03-22T10:36:21.999Z</time></trkpt><trkpt lat="39.75029865829993" lon="15.805791108985002"><ele>3.0</ele><time>2026-03-22T10:36:22.999Z</time></trkpt><trkpt lat="39.75041772234432" lon="15.80575442921382"><ele>3.0</ele><time>2026-03-22T10:36:23.999Z</time></trkpt><trkpt lat="39.750536998861804" lon="15.805716878696327"><ele>3.0</ele><time>2026-03-22T10:36:24.999Z</time></trkpt><trkpt lat="39.75065539081041" lon="15.805677157319135"><ele>3.0</ele><time>2026-03-22T10:36:25.999Z</time></trkpt><trkpt lat="39.75077500347837" lon="15.805631707343387"><ele>3.0</ele><time>2026-03-22T10:36:26.999Z</time></trkpt><trkpt lat="39.7508927499085" lon="15.805588849024897"><ele>3.0</ele><time>2026-03-22T10:36:27.999Z</time></trkpt><trkpt lat="39.75101009299821" lon="15.805544795314187"><ele>3.25</ele><time>2026-03-22T10:36:28.999Z</time></trkpt><trkpt lat="39.75112900239624" lon="15.805504070185226"><ele>3.5</ele><time>2026-03-22T10:36:29.999Z</time></trkpt><trkpt lat="39.7512460202094" lon="15.805461402888797"><ele>3.75</ele><time>2026-03-22T10:36:30.999Z</time></trkpt><trkpt lat="39.75136429827394" lon="15.805417333910524"><ele>4.0</ele><time>2026-03-22T10:36:31.999Z</time></trkpt><trkpt lat="39.75148261541644" lon="15.805377423473852"><ele>4.0</ele><time>2026-03-22T10:36:32.999Z</time></trkpt><trkpt lat="39.751601397110434" lon="15.805333525873607"><ele>4.0</ele><time>2026-03-22T10:36:33.999Z</time></trkpt><trkpt lat="39.75172073452245" lon="15.805288967120728"><ele>4.0</ele><time>2026-03-22T10:36:34.999Z</time></trkpt><trkpt lat="39.75183944355325" lon="15.805243593753842"><ele>4.0</ele><time>2026-03-22T10:36:35.999Z</time></trkpt><trkpt lat="39.751956931002276" lon="15.80519749854165"><ele>4.0</ele><time>2026-03-22T10:36:36.999Z</time></trkpt><trkpt lat="39.752074633944126" lon="15.805152111710942"><ele>4.0</ele><time>2026-03-22T10:36:37.999Z</time></trkpt><trkpt lat="39.75219142394615" lon="15.80510879782422"><ele>4.0</ele><time>2026-03-22T10:36:38.999Z</time></trkpt><trkpt lat="39.75230817791567" lon="15.80506582982938"><ele>4.0</ele><time>2026-03-22T10:36:39.999Z</time></trkpt><trkpt lat="39.7524257819549" lon="15.80502310113508"><ele>4.0</ele><time>2026-03-22T10:36:40.999Z</time></trkpt><trkpt lat="39.752543793744216" lon="15.804978803111757"><ele>4.0</ele><time>2026-03-22T10:36:41.999Z</time></trkpt><trkpt lat="39.752659911716215" lon="15.804934481674774"><ele>4.0</ele><time>2026-03-22T10:36:42.999Z</time></trkpt><trkpt lat="39.75277496762924" lon="15.804888889498981"><ele>4.0</ele><time>2026-03-22T10:36:43.999Z</time></trkpt><trkpt lat="39.75288908607332" lon="15.804844985428204"><ele>4.0</ele><time>2026-03-22T10:36:44.999Z</time></trkpt><trkpt lat="39.75300609415999" lon="15.804801068015566"><ele>4.0</ele><time>2026-03-22T10:36:45.999Z</time></trkpt><trkpt lat="39.75312215097077" lon="15.804758843005029"><ele>4.0</ele><time>2026-03-22T10:36:46.999Z</time></trkpt><trkpt lat="39.753238528910906" lon="15.804717258250347"><ele>4.0</ele><time>2026-03-22T10:36:47.999Z</time></trkpt><trkpt lat="39.75335296904793" lon="15.804675980811819"><ele>4.0</ele><time>2026-03-22T10:36:48.999Z</time></trkpt><trkpt lat="39.75346935557902" lon="15.804633227830367"><ele>4.0</ele><time>2026-03-22T10:36:49.999Z</time></trkpt><trkpt lat="39.753584852792336" lon="15.804594120061674"><ele>4.0</ele><time>2026-03-22T10:36:50.999Z</time></trkpt><trkpt lat="39.753701524189786" lon="15.804547602153743"><ele>4.0</ele><time>2026-03-22T10:36:51.999Z</time></trkpt><trkpt lat="39.75381916090436" lon="15.804502116819881"><ele>4.0</ele><time>2026-03-22T10:36:52.999Z</time></trkpt><trkpt lat="39.753937709152254" lon="15.804455818794903"><ele>4.0</ele><time>2026-03-22T10:36:53.999Z</time></trkpt><trkpt lat="39.75405706007674" lon="15.804410456260332"><ele>4.0</ele><time>2026-03-22T10:36:54.999Z</time></trkpt><trkpt lat="39.754177515878546" lon="15.804365291228063"><ele>4.0</ele><time>2026-03-22T10:36:55.999Z</time></trkpt><trkpt lat="39.75429722141854" lon="15.804320878635698"><ele>4.0</ele><time>2026-03-22T10:36:56.999Z</time></trkpt><trkpt lat="39.754416906777855" lon="15.804276364700273"><ele>4.0</ele><time>2026-03-22T10:36:57.999Z</time></trkpt><trkpt lat="39.754531966092536" lon="15.804227800186322"><ele>4.0</ele><time>2026-03-22T10:36:58.999Z</time></trkpt><trkpt lat="39.75464840234982" lon="15.804181923335493"><ele>4.0</ele><time>2026-03-22T10:36:59.999Z</time></trkpt><trkpt lat="39.75476355811101" lon="15.804136707281028"><ele>4.0</ele><time>2026-03-22T10:37:00.999Z</time></trkpt><trkpt lat="39.75487981542326" lon="15.804091194535847"><ele>4.0</ele><time>2026-03-22T10:37:01.999Z</time></trkpt><trkpt lat="39.75499668946107" lon="15.804043376638306"><ele>4.0</ele><time>2026-03-22T10:37:02.999Z</time></trkpt><trkpt lat="39.7551139866753" lon="15.803997123788037"><ele>4.0</ele><time>2026-03-22T10:37:03.999Z</time></trkpt><trkpt lat="39.755229275163764" lon="15.80395253220362"><ele>4.0</ele><time>2026-03-22T10:37:04.999Z</time></trkpt><trkpt lat="39.755344608670434" lon="15.803908056717049"><ele>4.0</ele><time>2026-03-22T10:37:05.999Z</time></trkpt><trkpt lat="39.755461110847975" lon="15.803864529502086"><ele>4.0</ele><time>2026-03-22T10:37:06.999Z</time></trkpt><trkpt lat="39.75557743250088" lon="15.803821108079049"><ele>4.0</ele><time>2026-03-22T10:37:07.999Z</time></trkpt><trkpt lat="39.75569411768391" lon="15.803777490130166"><ele>4.0</ele><time>2026-03-22T10:37:08.999Z</time></trkpt><trkpt lat="39.75581265863666" lon="15.803735151026986"><ele>4.0</ele><time>2026-03-22T10:37:09.999Z</time></trkpt><trkpt lat="39.75592787127387" lon="15.803694845277807"><ele>4.0</ele><time>2026-03-22T10:37:10.998Z</time></trkpt><trkpt lat="39.75604683239175" lon="15.803655575419468"><ele>4.0</ele><time>2026-03-22T10:37:11.998Z</time></trkpt><trkpt lat="39.75616428796105" lon="15.803612387163337"><ele>4.25</ele><time>2026-03-22T10:37:12.998Z</time></trkpt><trkpt lat="39.756278868032226" lon="15.803567100086584"><ele>4.5</ele><time>2026-03-22T10:37:13.998Z</time></trkpt><trkpt lat="39.7563930105834" lon="15.803522270089436"><ele>4.75</ele><time>2026-03-22T10:37:14.998Z</time></trkpt><trkpt lat="39.75650933389913" lon="15.803477579354356"><ele>5.0</ele><time>2026-03-22T10:37:15.998Z</time></trkpt><trkpt lat="39.75662438192984" lon="15.80343347109479"><ele>5.0</ele><time>2026-03-22T10:37:16.998Z</time></trkpt><trkpt lat="39.75674022810835" lon="15.803390300612204"><ele>5.0</ele><time>2026-03-22T10:37:17.998Z</time></trkpt><trkpt lat="39.75685666891797" lon="15.803344505548834"><ele>5.0</ele><time>2026-03-22T10:37:18.998Z</time></trkpt><trkpt lat="39.75697331667033" lon="15.803297200383993"><ele>5.0</ele><time>2026-03-22T10:37:19.998Z</time></trkpt><trkpt lat="39.75709010235401" lon="15.803252618503745"><ele>5.0</ele><time>2026-03-22T10:37:20.998Z</time></trkpt><trkpt lat="39.75720810967584" lon="15.803208546718668"><ele>5.0</ele><time>2026-03-22T10:37:21.998Z</time></trkpt><trkpt lat="39.757326529286246" lon="15.803163449956186"><ele>5.0</ele><time>2026-03-22T10:37:22.998Z</time></trkpt><trkpt lat="39.75744538362913" lon="15.803119339260533"><ele>5.0</ele><time>2026-03-22T10:37:23.998Z</time></trkpt><trkpt lat="39.75756414118148" lon="15.803076305271517"><ele>5.0</ele><time>2026-03-22T10:37:24.998Z</time></trkpt><trkpt lat="39.75768449591867" lon="15.803032663186386"><ele>5.0</ele><time>2026-03-22T10:37:25.998Z</time></trkpt><trkpt lat="39.757803600342804" lon="15.802986548855209"><ele>5.0</ele><time>2026-03-22T10:37:26.998Z</time></trkpt><trkpt lat="39.75792210908423" lon="15.802939822863921"><ele>5.0</ele><time>2026-03-22T10:37:27.998Z</time></trkpt><trkpt lat="39.75804001132228" lon="15.802895966458603"><ele>5.0</ele><time>2026-03-22T10:37:28.998Z</time></trkpt><trkpt lat="39.75815777559204" lon="15.802852583553316"><ele>5.0</ele><time>2026-03-22T10:37:29.998Z</time></trkpt><trkpt lat="39.758276478541084" lon="15.802808045943884"><ele>5.0</ele><time>2026-03-22T10:37:30.998Z</time></trkpt><trkpt lat="39.758392872128425" lon="15.802761010889899"><ele>5.0</ele><time>2026-03-22T10:37:31.998Z</time></trkpt><trkpt lat="39.75851111184477" lon="15.802717004830429"><ele>5.0</ele><time>2026-03-22T10:37:32.998Z</time></trkpt><trkpt lat="39.75862763999867" lon="15.802670239546515"><ele>5.0</ele><time>2026-03-22T10:37:33.998Z</time></trkpt><trkpt lat="39.75874380466326" lon="15.80262545860954"><ele>5.0</ele><time>2026-03-22T10:37:34.998Z</time></trkpt><trkpt lat="39.75886144877114" lon="15.802580384924921"><ele>5.0</ele><time>2026-03-22T10:37:35.998Z</time></trkpt><trkpt lat="39.75897758646483" lon="15.802539479391033"><ele>4.75</ele><time>2026-03-22T10:37:36.998Z</time></trkpt><trkpt lat="39.759095255855925" lon="15.802495233091507"><ele>4.5</ele><time>2026-03-22T10:37:37.998Z</time></trkpt><trkpt lat="39.75921228295105" lon="15.802453504260809"><ele>4.25</ele><time>2026-03-22T10:37:38.998Z</time></trkpt><trkpt lat="39.75932970493643" lon="15.802411928843256"><ele>4.0</ele><time>2026-03-22T10:37:39.998Z</time></trkpt><trkpt lat="39.75944621600179" lon="15.802372894185272"><ele>4.0</ele><time>2026-03-22T10:37:40.998Z</time></trkpt><trkpt lat="39.759564008409455" lon="15.802333431539019"><ele>4.0</ele><time>2026-03-22T10:37:42Z</time></trkpt><trkpt lat="39.75968210075176" lon="15.802296238183345"><ele>4.0</ele><time>2026-03-22T10:37:43Z</time></trkpt><trkpt lat="39.75980001614484" lon="15.802261520741807"><ele>4.0</ele><time>2026-03-22T10:37:44Z</time></trkpt><trkpt lat="39.75991778721291" lon="15.802227168902796"><ele>4.0</ele><time>2026-03-22T10:37:45Z</time></trkpt><trkpt lat="39.76003512244112" lon="15.802195961424827"><ele>4.0</ele><time>2026-03-22T10:37:46Z</time></trkpt><trkpt lat="39.760152219620494" lon="15.802165951036429"><ele>4.0</ele><time>2026-03-22T10:37:47Z</time></trkpt><trkpt lat="39.760270322245745" lon="15.80213531787558"><ele>4.0</ele><time>2026-03-22T10:37:48Z</time></trkpt><trkpt lat="39.76038842550808" lon="15.802105289888297"><ele>4.25</ele><time>2026-03-22T10:37:49Z</time></trkpt><trkpt lat="39.76050730325936" lon="15.802077348915233"><ele>4.5</ele><time>2026-03-22T10:37:50Z</time></trkpt><trkpt lat="39.760626800650606" lon="15.802050827396618"><ele>4.75</ele><time>2026-03-22T10:37:51Z</time></trkpt><trkpt lat="39.76074791369998" lon="15.802024135705901"><ele>5.0</ele><time>2026-03-22T10:37:52Z</time></trkpt><trkpt lat="39.76086629658561" lon="15.801997847652846"><ele>5.0</ele><time>2026-03-22T10:37:53Z</time></trkpt><trkpt lat="39.760987085699895" lon="15.80197308365403"><ele>5.0</ele><time>2026-03-22T10:37:54Z</time></trkpt><trkpt lat="39.76110805091476" lon="15.80194840805058"><ele>5.0</ele><time>2026-03-22T10:37:55Z</time></trkpt><trkpt lat="39.76123009328909" lon="15.801922536286732"><ele>5.0</ele><time>2026-03-22T10:37:56Z</time></trkpt><trkpt lat="39.76135104851443" lon="15.80189622249299"><ele>5.0</ele><time>2026-03-22T10:37:57Z</time></trkpt><trkpt lat="39.76147213350021" lon="15.801869697087406"><ele>5.0</ele><time>2026-03-22T10:37:58Z</time></trkpt><trkpt lat="39.76159245760898" lon="15.801847364163436"><ele>5.0</ele><time>2026-03-22T10:37:59Z</time></trkpt><trkpt lat="39.76171318109087" lon="15.80182217074626"><ele>5.0</ele><time>2026-03-22T10:38:00Z</time></trkpt><trkpt lat="39.76183534056583" lon="15.801798920659504"><ele>4.75</ele><time>2026-03-22T10:38:00.999Z</time></trkpt><trkpt lat="39.76195602788725" lon="15.801772378768609"><ele>4.5</ele><time>2026-03-22T10:38:01.999Z</time></trkpt><trkpt lat="39.76207665380588" lon="15.801747566532361"><ele>4.25</ele><time>2026-03-22T10:38:02.999Z</time></trkpt><trkpt lat="39.76219870046857" lon="15.80172189366945"><ele>4.0</ele><time>2026-03-22T10:38:03.999Z</time></trkpt><trkpt lat="39.76231974057873" lon="15.801694758811266"><ele>4.0</ele><time>2026-03-22T10:38:04.999Z</time></trkpt><trkpt lat="39.762439554842835" lon="15.80167227075291"><ele>4.0</ele><time>2026-03-22T10:38:05.999Z</time></trkpt><trkpt lat="39.76256118558107" lon="15.801644613543253"><ele>4.0</ele><time>2026-03-22T10:38:06.999Z</time></trkpt><trkpt lat="39.76269637756371" lon="15.80161843882236"><ele>4.0</ele><time>2026-03-22T10:38:07.999Z</time></trkpt><trkpt lat="39.762843643120064" lon="15.801594070698208"><ele>3.333333333333333</ele><time>2026-03-22T10:38:08.999Z</time></trkpt><trkpt lat="39.76300749780888" lon="15.801563589806078"><ele>2.6666666666666665</ele><time>2026-03-22T10:38:09.999Z</time></trkpt><trkpt lat="39.76318867446403" lon="15.801534560126404"><ele>2.0</ele><time>2026-03-22T10:38:10.999Z</time></trkpt><trkpt lat="39.76338711301978" lon="15.801491025646191"><ele>2.0</ele><time>2026-03-22T10:38:11.999Z</time></trkpt><trkpt lat="39.76361123687989" lon="15.801444179542605"><ele>2.0</ele><time>2026-03-22T10:38:12.999Z</time></trkpt><trkpt lat="39.7638529935666" lon="15.801396741839357"><ele>2.0</ele><time>2026-03-22T10:38:13.999Z</time></trkpt><trkpt lat="39.7641081117211" lon="15.801340472015408"><ele>2.0</ele><time>2026-03-22T10:38:14.999Z</time></trkpt><trkpt lat="39.76437002526923" lon="15.801278441197894"><ele>1.5</ele><time>2026-03-22T10:38:15.999Z</time></trkpt><trkpt lat="39.76464522199514" lon="15.801216348437318"><ele>1.0</ele><time>2026-03-22T10:38:16.999Z</time></trkpt><trkpt lat="39.764917555866184" lon="15.80115326704636"><ele>1.0</ele><time>2026-03-22T10:38:17.999Z</time></trkpt><trkpt lat="39.76519330934251" lon="15.80109295315164"><ele>1.0</ele><time>2026-03-22T10:38:18.999Z</time></trkpt><trkpt lat="39.7654630887338" lon="15.801034858768814"><ele>1.5</ele><time>2026-03-22T10:38:19.999Z</time></trkpt><trkpt lat="39.76572623568051" lon="15.800982189282687"><ele>2.0</ele><time>2026-03-22T10:38:20.999Z</time></trkpt><trkpt lat="39.76597987077211" lon="15.800929235130145"><ele>2.0</ele><time>2026-03-22T10:38:21.999Z</time></trkpt><trkpt lat="39.76622684955392" lon="15.800874555887296"><ele>2.0</ele><time>2026-03-22T10:38:22.999Z</time></trkpt><trkpt lat="39.766466404012164" lon="15.800824864557187"><ele>2.0</ele><time>2026-03-22T10:38:23.999Z</time></trkpt><trkpt lat="39.76669795290886" lon="15.80077700203274"><ele>2.0</ele><time>2026-03-22T10:38:24.999Z</time></trkpt><trkpt lat="39.76692442054314" lon="15.800727963981595"><ele>1.5</ele><time>2026-03-22T10:38:25.999Z</time></trkpt><trkpt lat="39.7671448214459" lon="15.800680840844553"><ele>1.0</ele><time>2026-03-22T10:38:26.999Z</time></trkpt><trkpt lat="39.7673677239594" lon="15.800629102898453"><ele>1.0</ele><time>2026-03-22T10:38:27.999Z</time></trkpt><trkpt lat="39.76759114507964" lon="15.800577068996413"><ele>1.0</ele><time>2026-03-22T10:38:28.999Z</time></trkpt><trkpt lat="39.76780773804334" lon="15.800529325833049"><ele>1.0</ele><time>2026-03-22T10:38:29.999Z</time></trkpt><trkpt lat="39.76802185973051" lon="15.800491095040643"><ele>1.3333333333333333</ele><time>2026-03-22T10:38:30.999Z</time></trkpt><trkpt lat="39.76822251250901" lon="15.800454801820635"><ele>1.6666666666666665</ele><time>2026-03-22T10:38:31.999Z</time></trkpt><trkpt lat="39.76841308592314" lon="15.800416114007076"><ele>2.0</ele><time>2026-03-22T10:38:32.999Z</time></trkpt><trkpt lat="39.7686123663888" lon="15.800369538526903"><ele>2.0</ele><time>2026-03-22T10:38:33.999Z</time></trkpt><trkpt lat="39.768830802256964" lon="15.800316461779508"><ele>2.0</ele><time>2026-03-22T10:38:34.999Z</time></trkpt><trkpt lat="39.769062606234435" lon="15.80028680784791"><ele>2.0</ele><time>2026-03-22T10:38:35.999Z</time></trkpt><trkpt lat="39.76929206206319" lon="15.800216920363143"><ele>2.0</ele><time>2026-03-22T10:38:36.999Z</time></trkpt><trkpt lat="39.7695320243263" lon="15.800174439293041"><ele>1.0</ele><time>2026-03-22T10:38:37.999Z</time></trkpt><trkpt lat="39.76977650737195" lon="15.80012190129872"><ele>0.0</ele><time>2026-03-22T10:38:38.999Z</time></trkpt><trkpt lat="39.77002449688418" lon="15.800051655846937"><ele>0.0</ele><time>2026-03-22T10:38:39.999Z</time></trkpt><trkpt lat="39.77028246481298" lon="15.799977074218484"><ele>0.0</ele><time>2026-03-22T10:38:40.999Z</time></trkpt><trkpt lat="39.77054071780445" lon="15.799892982834388"><ele>0.0</ele><time>2026-03-22T10:38:41.999Z</time></trkpt><trkpt lat="39.770807649838495" lon="15.799802980870458"><ele>0.0</ele><time>2026-03-22T10:38:42.999Z</time></trkpt><trkpt lat="39.77107594571335" lon="15.799707070388912"><ele>0.0</ele><time>2026-03-22T10:38:43.999Z</time></trkpt><trkpt lat="39.77134493639231" lon="15.799610224798224"><ele>0.0</ele><time>2026-03-22T10:38:44.999Z</time></trkpt><trkpt lat="39.77161394404212" lon="15.799512850201038"><ele>1.0</ele><time>2026-03-22T10:38:45.999Z</time></trkpt><trkpt lat="39.77188067107197" lon="15.799414262344978"><ele>2.0</ele><time>2026-03-22T10:38:46.999Z</time></trkpt><trkpt lat="39.772145858854095" lon="15.799317382017549"><ele>2.0</ele><time>2026-03-22T10:38:47.999Z</time></trkpt><trkpt lat="39.772411862210014" lon="15.799220804882072"><ele>2.0</ele><time>2026-03-22T10:38:48.999Z</time></trkpt><trkpt lat="39.77267391146692" lon="15.79912805752555"><ele>2.0</ele><time>2026-03-22T10:38:49.999Z</time></trkpt><trkpt lat="39.772934629254124" lon="15.799033528351021"><ele>2.0</ele><time>2026-03-22T10:38:50.999Z</time></trkpt><trkpt lat="39.77319539360415" lon="15.798939768543875"><ele>2.0</ele><time>2026-03-22T10:38:51.999Z</time></trkpt><trkpt lat="39.77345568652564" lon="15.798845104822428"><ele>2.0</ele><time>2026-03-22T10:38:52.999Z</time></trkpt><trkpt lat="39.77371240899839" lon="15.798749850009013"><ele>2.0</ele><time>2026-03-22T10:38:53.999Z</time></trkpt><trkpt lat="39.77397380281636" lon="15.798655257068281"><ele>2.0</ele><time>2026-03-22T10:38:54.999Z</time></trkpt><trkpt lat="39.77423674179372" lon="15.798559049772384"><ele>2.0</ele><time>2026-03-22T10:38:55.999Z</time></trkpt><trkpt lat="39.77449945170397" lon="15.798463171440378"><ele>2.0</ele><time>2026-03-22T10:38:56.999Z</time></trkpt><trkpt lat="39.7747631510184" lon="15.798366769318887"><ele>2.0</ele><time>2026-03-22T10:38:57.999Z</time></trkpt><trkpt lat="39.77502667117878" lon="15.798268422019216"><ele>2.0</ele><time>2026-03-22T10:38:58.999Z</time></trkpt><trkpt lat="39.77529452808989" lon="15.798169951606537"><ele>2.0</ele><time>2026-03-22T10:38:59.999Z</time></trkpt><trkpt lat="39.775569688751524" lon="15.798068244093203"><ele>2.0</ele><time>2026-03-22T10:39:00.999Z</time></trkpt><trkpt lat="39.77584748874738" lon="15.797976575490559"><ele>1.5</ele><time>2026-03-22T10:39:01.999Z</time></trkpt><trkpt lat="39.77612566639916" lon="15.797882862920234"><ele>1.0</ele><time>2026-03-22T10:39:02.999Z</time></trkpt><trkpt lat="39.776403790327024" lon="15.797773769567458"><ele>1.0</ele><time>2026-03-22T10:39:03.999Z</time></trkpt><trkpt lat="39.77668051556459" lon="15.797677489074713"><ele>1.0</ele><time>2026-03-22T10:39:04.999Z</time></trkpt><trkpt lat="39.77694916028927" lon="15.797576205938418"><ele>0.5</ele><time>2026-03-22T10:39:05.999Z</time></trkpt><trkpt lat="39.77721467246232" lon="15.797476817355648"><ele>0.0</ele><time>2026-03-22T10:39:06.999Z</time></trkpt><trkpt lat="39.77747573628101" lon="15.797380710731204"><ele>0.0</ele><time>2026-03-22T10:39:07.999Z</time></trkpt><trkpt lat="39.77773934939569" lon="15.797286841047109"><ele>0.0</ele><time>2026-03-22T10:39:08.999Z</time></trkpt><trkpt lat="39.77800259741058" lon="15.797190055347974"><ele>0.0</ele><time>2026-03-22T10:39:09.999Z</time></trkpt><trkpt lat="39.77826469209301" lon="15.797097151374617"><ele>0.0</ele><time>2026-03-22T10:39:10.999Z</time></trkpt><trkpt lat="39.778524239031746" lon="15.79700422721336"><ele>0.0</ele><time>2026-03-22T10:39:11.999Z</time></trkpt><trkpt lat="39.778787889175" lon="15.796908390948413"><ele>0.0</ele><time>2026-03-22T10:39:12.999Z</time></trkpt><trkpt lat="39.77905080395914" lon="15.796811436192604"><ele>0.5</ele><time>2026-03-22T10:39:13.999Z</time></trkpt><trkpt lat="39.77931983487408" lon="15.796712803024015"><ele>1.0</ele><time>2026-03-22T10:39:14.998Z</time></trkpt><trkpt lat="39.779592774572016" lon="15.79661185252318"><ele>1.0</ele><time>2026-03-22T10:39:15.998Z</time></trkpt><trkpt lat="39.77986206261411" lon="15.796508363619758"><ele>1.0</ele><time>2026-03-22T10:39:16.998Z</time></trkpt><trkpt lat="39.78012263133812" lon="15.79641028523197"><ele>1.5</ele><time>2026-03-22T10:39:17.998Z</time></trkpt><trkpt lat="39.780378315911015" lon="15.796313959659615"><ele>2.0</ele><time>2026-03-22T10:39:18.998Z</time></trkpt><trkpt lat="39.78063201047519" lon="15.796217126743263"><ele>2.0</ele><time>2026-03-22T10:39:19.998Z</time></trkpt><trkpt lat="39.78088284168109" lon="15.796126427542584"><ele>2.0</ele><time>2026-03-22T10:39:20.998Z</time></trkpt><trkpt lat="39.78112369860354" lon="15.796039794787019"><ele>2.5</ele><time>2026-03-22T10:39:21.998Z</time></trkpt><trkpt lat="39.78135094290968" lon="15.79595705844382"><ele>3.0</ele><time>2026-03-22T10:39:22.998Z</time></trkpt><trkpt lat="39.78156285773107" lon="15.795883231389334"><ele>3.0</ele><time>2026-03-22T10:39:23.998Z</time></trkpt><trkpt lat="39.78175576370706" lon="15.795818389923701"><ele>3.0</ele><time>2026-03-22T10:39:24.998Z</time></trkpt><trkpt lat="39.781929596767036" lon="15.795764666388315"><ele>3.0</ele><time>2026-03-22T10:39:25.998Z</time></trkpt><trkpt lat="39.78208381411469" lon="15.795721947668037"><ele>2.5</ele><time>2026-03-22T10:39:26.998Z</time></trkpt><trkpt lat="39.782220616670116" lon="15.795699703304665"><ele>2.0</ele><time>2026-03-22T10:39:27.998Z</time></trkpt><trkpt lat="39.78234569855143" lon="15.795700581618748"><ele>1.5</ele><time>2026-03-22T10:39:28.998Z</time></trkpt><trkpt lat="39.782473303503416" lon="15.795728156315317"><ele>1.0</ele><time>2026-03-22T10:39:29.998Z</time></trkpt><trkpt lat="39.78261743606755" lon="15.795838128402035"><ele>0.8</ele><time>2026-03-22T10:39:30.998Z</time></trkpt><trkpt lat="39.782689041487885" lon="15.795841098914845"><ele>0.6000000000000001</ele><time>2026-03-22T10:39:31.998Z</time></trkpt><trkpt lat="39.782795601210125" lon="15.795844754197738"><ele>0.4</ele><time>2026-03-22T10:39:32.998Z</time></trkpt><trkpt lat="39.782896309405594" lon="15.795789584662844"><ele>0.2</ele><time>2026-03-22T10:39:33.998Z</time></trkpt><trkpt lat="39.78298917861034" lon="15.795678308473589"><ele>0.0</ele><time>2026-03-22T10:39:34.998Z</time></trkpt><trkpt lat="39.78307591191238" lon="15.795532045930962"><ele>0.0</ele><time>2026-03-22T10:39:35.998Z</time></trkpt><trkpt lat="39.78319476952853" lon="15.795422326259171"><ele>0.0</ele><time>2026-03-22T10:39:36.998Z</time></trkpt><trkpt lat="39.783341627754986" lon="15.79534627015846"><ele>0.0</ele><time>2026-03-22T10:39:37.998Z</time></trkpt><trkpt lat="39.78348690941556" lon="15.795279221546537"><ele>0.0</ele><time>2026-03-22T10:39:38.998Z</time></trkpt><trkpt lat="39.78363102796577" lon="15.795222825657905"><ele>0.0</ele><time>2026-03-22T10:39:39.998Z</time></trkpt><trkpt lat="39.78377893924589" lon="15.795178412375355"><ele>0.0</ele><time>2026-03-22T10:39:40.998Z</time></trkpt><trkpt lat="39.783926469673304" lon="15.795142911075787"><ele>0.0</ele><time>2026-03-22T10:39:41.998Z</time></trkpt><trkpt lat="39.78407144639803" lon="15.795116137862333"><ele>0.0</ele><time>2026-03-22T10:39:42.998Z</time></trkpt><trkpt lat="39.78421404591678" lon="15.79509035547363"><ele>0.0</ele><time>2026-03-22T10:39:43.998Z</time></trkpt><trkpt lat="39.78435720151143" lon="15.795063721233502"><ele>0.0</ele><time>2026-03-22T10:39:44.998Z</time></trkpt><trkpt lat="39.78450180015554" lon="15.79503830659048"><ele>-0.25</ele><time>2026-03-22T10:39:45.998Z</time></trkpt><trkpt lat="39.78464048234899" lon="15.795014032281212"><ele>-0.5</ele><time>2026-03-22T10:39:46.998Z</time></trkpt><trkpt lat="39.78476774440162" lon="15.794990598424855"><ele>-0.75</ele><time>2026-03-22T10:39:48Z</time></trkpt><trkpt lat="39.784899592502846" lon="15.794964808901106"><ele>-1.0</ele><time>2026-03-22T10:39:49Z</time></trkpt><trkpt lat="39.785032403243264" lon="15.794935312823526"><ele>-1.0</ele><time>2026-03-22T10:39:50Z</time></trkpt><trkpt lat="39.7851706960376" lon="15.794903873346941"><ele>-1.0</ele><time>2026-03-22T10:39:51Z</time></trkpt><trkpt lat="39.78531378098763" lon="15.794875914359688"><ele>-1.0</ele><time>2026-03-22T10:39:52Z</time></trkpt><trkpt lat="39.78546059182171" lon="15.794851411578056"><ele>-1.0</ele><time>2026-03-22T10:39:53Z</time></trkpt><trkpt lat="39.785618996500496" lon="15.79482467818086"><ele>-0.3333333333333333</ele><time>2026-03-22T10:39:54Z</time></trkpt><trkpt lat="39.785791487806925" lon="15.79478843151325"><ele>0.3333333333333333</ele><time>2026-03-22T10:39:55Z</time></trkpt><trkpt lat="39.785978364874715" lon="15.794745760534195"><ele>1.0</ele><time>2026-03-22T10:39:56Z</time></trkpt><trkpt lat="39.78617288088398" lon="15.794706628493243"><ele>1.3333333333333333</ele><time>2026-03-22T10:39:57Z</time></trkpt><trkpt lat="39.78636874490356" lon="15.794671652042078"><ele>1.6666666666666665</ele><time>2026-03-22T10:39:58Z</time></trkpt><trkpt lat="39.786566649924154" lon="15.794641345078599"><ele>2.0</ele><time>2026-03-22T10:39:59Z</time></trkpt><trkpt lat="39.786771279448466" lon="15.794611229326486"><ele>1.6666666666666665</ele><time>2026-03-22T10:40:00Z</time></trkpt><trkpt lat="39.78697842588522" lon="15.794577819619375"><ele>1.3333333333333333</ele><time>2026-03-22T10:40:01Z</time></trkpt><trkpt lat="39.78718131681993" lon="15.794543129689664"><ele>1.0</ele><time>2026-03-22T10:40:02Z</time></trkpt><trkpt lat="39.787385725456865" lon="15.794507663860525"><ele>1.0</ele><time>2026-03-22T10:40:03Z</time></trkpt><trkpt lat="39.78758974340864" lon="15.794470952692313"><ele>1.0</ele><time>2026-03-22T10:40:03.999Z</time></trkpt><trkpt lat="39.787792630297034" lon="15.794433905407166"><ele>1.0</ele><time>2026-03-22T10:40:04.999Z</time></trkpt><trkpt lat="39.78799772501023" lon="15.794396364236427"><ele>1.3333333333333333</ele><time>2026-03-22T10:40:05.999Z</time></trkpt><trkpt lat="39.78820491735332" lon="15.79435830282578"><ele>1.6666666666666665</ele><time>2026-03-22T10:40:06.999Z</time></trkpt><trkpt lat="39.7884113248901" lon="15.794320132647236"><ele>2.0</ele><time>2026-03-22T10:40:07.999Z</time></trkpt><trkpt lat="39.78861787796431" lon="15.794280752621964"><ele>2.0</ele><time>2026-03-22T10:40:08.999Z</time></trkpt><trkpt lat="39.78882637884661" lon="15.79424282104826"><ele>2.0</ele><time>2026-03-22T10:40:09.999Z</time></trkpt><trkpt lat="39.78903352762146" lon="15.794204497898424"><ele>2.0</ele><time>2026-03-22T10:40:10.999Z</time></trkpt><trkpt lat="39.78923957698652" lon="15.79416645113591"><ele>2.0</ele><time>2026-03-22T10:40:11.999Z</time></trkpt><trkpt lat="39.78944151900897" lon="15.794127659146339"><ele>2.0</ele><time>2026-03-22T10:40:12.999Z</time></trkpt><trkpt lat="39.78964297969423" lon="15.794089446211917"><ele>2.0</ele><time>2026-03-22T10:40:13.999Z</time></trkpt><trkpt lat="39.7898441962781" lon="15.79405024416937"><ele>2.0</ele><time>2026-03-22T10:40:14.999Z</time></trkpt><trkpt lat="39.790044029268905" lon="15.79401333964468"><ele>2.0</ele><time>2026-03-22T10:40:15.999Z</time></trkpt><trkpt lat="39.79024121627461" lon="15.793976425821873"><ele>2.0</ele><time>2026-03-22T10:40:16.999Z</time></trkpt><trkpt lat="39.79043692295309" lon="15.793939907316316"><ele>1.6666666666666665</ele><time>2026-03-22T10:40:17.999Z</time></trkpt><trkpt lat="39.79063144098233" lon="15.79390431680864"><ele>1.3333333333333333</ele><time>2026-03-22T10:40:18.999Z</time></trkpt><trkpt lat="39.79082384435006" lon="15.79386770521705"><ele>1.0</ele><time>2026-03-22T10:40:19.999Z</time></trkpt><trkpt lat="39.79101662270645" lon="15.793829606952391"><ele>1.0</ele><time>2026-03-22T10:40:20.999Z</time></trkpt><trkpt lat="39.79120731055851" lon="15.793792912622255"><ele>1.0</ele><time>2026-03-22T10:40:21.999Z</time></trkpt><trkpt lat="39.79139622594316" lon="15.793756115228893"><ele>1.0</ele><time>2026-03-22T10:40:22.999Z</time></trkpt><trkpt lat="39.791584154797036" lon="15.793719863749613"><ele>1.0</ele><time>2026-03-22T10:40:23.999Z</time></trkpt><trkpt lat="39.79177502371223" lon="15.79368453534391"><ele>1.0</ele><time>2026-03-22T10:40:24.999Z</time></trkpt><trkpt lat="39.791966610681165" lon="15.79365006636013"><ele>1.0</ele><time>2026-03-22T10:40:25.999Z</time></trkpt><trkpt lat="39.7921556279568" lon="15.793617792921358"><ele>1.0</ele><time>2026-03-22T10:40:26.999Z</time></trkpt><trkpt lat="39.792341156674155" lon="15.793583592729135"><ele>1.0</ele><time>2026-03-22T10:40:27.999Z</time></trkpt><trkpt lat="39.79252455332686" lon="15.79355016004217"><ele>1.0</ele><time>2026-03-22T10:40:28.999Z</time></trkpt><trkpt lat="39.79270576374601" lon="15.793514531097406"><ele>1.3333333333333333</ele><time>2026-03-22T10:40:29.999Z</time></trkpt><trkpt lat="39.79289148990762" lon="15.793473188636293"><ele>1.6666666666666665</ele><time>2026-03-22T10:40:30.999Z</time></trkpt><trkpt lat="39.79307844928787" lon="15.793435014721778"><ele>2.0</ele><time>2026-03-22T10:40:31.999Z</time></trkpt><trkpt lat="39.793261403173325" lon="15.79340624786597"><ele>2.0</ele><time>2026-03-22T10:40:32.999Z</time></trkpt><trkpt lat="39.79342901267903" lon="15.793374971949317"><ele>2.0</ele><time>2026-03-22T10:40:33.999Z</time></trkpt><trkpt lat="39.7935867650597" lon="15.793342799568082"><ele>2.0</ele><time>2026-03-22T10:40:34.999Z</time></trkpt><trkpt lat="39.79374502522902" lon="15.793312892133962"><ele>2.0</ele><time>2026-03-22T10:40:35.999Z</time></trkpt><trkpt lat="39.793896610610325" lon="15.793287592303768"><ele>2.0</ele><time>2026-03-22T10:40:36.999Z</time></trkpt><trkpt lat="39.79404538145279" lon="15.793263493686778"><ele>2.0</ele><time>2026-03-22T10:40:37.999Z</time></trkpt><trkpt lat="39.79419260078453" lon="15.793237207876631"><ele>2.0</ele><time>2026-03-22T10:40:38.999Z</time></trkpt><trkpt lat="39.79433524114482" lon="15.793211504572266"><ele>2.0</ele><time>2026-03-22T10:40:39.999Z</time></trkpt><trkpt lat="39.79446550782938" lon="15.793186995830691"><ele>2.0</ele><time>2026-03-22T10:40:40.999Z</time></trkpt><trkpt lat="39.79458279095217" lon="15.793161440304123"><ele>2.0</ele><time>2026-03-22T10:40:41.999Z</time></trkpt><trkpt lat="39.79469734559661" lon="15.793135830616242"><ele>2.0</ele><time>2026-03-22T10:40:42.999Z</time></trkpt><trkpt lat="39.79481107344627" lon="15.79311257435174"><ele>2.0</ele><time>2026-03-22T10:40:43.999Z</time></trkpt><trkpt lat="39.794921443845695" lon="15.793091081535335"><ele>2.0</ele><time>2026-03-22T10:40:44.999Z</time></trkpt><trkpt lat="39.795028053921826" lon="15.793072485838051"><ele>2.0</ele><time>2026-03-22T10:40:45.999Z</time></trkpt><trkpt lat="39.79513928468095" lon="15.793057770423607"><ele>2.0</ele><time>2026-03-22T10:40:46.999Z</time></trkpt><trkpt lat="39.79525337305592" lon="15.7930391428442"><ele>2.0</ele><time>2026-03-22T10:40:47.999Z</time></trkpt><trkpt lat="39.79536250844577" lon="15.793022709082647"><ele>2.0</ele><time>2026-03-22T10:40:48.999Z</time></trkpt><trkpt lat="39.79546895103431" lon="15.793002255734017"><ele>2.0</ele><time>2026-03-22T10:40:49.999Z</time></trkpt><trkpt lat="39.7955706367897" lon="15.792981394776548"><ele>2.0</ele><time>2026-03-22T10:40:50.999Z</time></trkpt><trkpt lat="39.795677678155414" lon="15.792959957757377"><ele>2.0</ele><time>2026-03-22T10:40:51.999Z</time></trkpt><trkpt lat="39.79579196047222" lon="15.792937380143329"><ele>2.0</ele><time>2026-03-22T10:40:52.999Z</time></trkpt><trkpt lat="39.7959107585192" lon="15.792910136938575"><ele>2.0</ele><time>2026-03-22T10:40:53.999Z</time></trkpt><trkpt lat="39.7960389888946" lon="15.792881386792537"><ele>2.0</ele><time>2026-03-22T10:40:54.999Z</time></trkpt><trkpt lat="39.796165498436544" lon="15.792850680579098"><ele>2.0</ele><time>2026-03-22T10:40:55.999Z</time></trkpt><trkpt lat="39.796304915321656" lon="15.792812964644462"><ele>2.0</ele><time>2026-03-22T10:40:56.999Z</time></trkpt><trkpt lat="39.79646710630937" lon="15.792765721075433"><ele>2.0</ele><time>2026-03-22T10:40:57.999Z</time></trkpt><trkpt lat="39.79664079592667" lon="15.79271288901561"><ele>2.0</ele><time>2026-03-22T10:40:58.999Z</time></trkpt><trkpt lat="39.79682205002841" lon="15.792664202052105"><ele>2.0</ele><time>2026-03-22T10:40:59.999Z</time></trkpt><trkpt lat="39.79700267021953" lon="15.792616878621397"><ele>2.0</ele><time>2026-03-22T10:41:00.999Z</time></trkpt><trkpt lat="39.79718497641457" lon="15.792576989078551"><ele>2.0</ele><time>2026-03-22T10:41:01.999Z</time></trkpt><trkpt lat="39.79736982166534" lon="15.792524163010643"><ele>2.0</ele><time>2026-03-22T10:41:02.999Z</time></trkpt><trkpt lat="39.79754777776555" lon="15.792466872620064"><ele>2.0</ele><time>2026-03-22T10:41:03.999Z</time></trkpt><trkpt lat="39.79772109918116" lon="15.792421724061931"><ele>2.0</ele><time>2026-03-22T10:41:04.999Z</time></trkpt><trkpt lat="39.797880174898374" lon="15.792384339313958"><ele>2.5</ele><time>2026-03-22T10:41:05.999Z</time></trkpt><trkpt lat="39.79802700170992" lon="15.792347128283836"><ele>3.0</ele><time>2026-03-22T10:41:06.999Z</time></trkpt><trkpt lat="39.79815937228558" lon="15.792310197533943"><ele>3.5</ele><time>2026-03-22T10:41:07.999Z</time></trkpt><trkpt lat="39.7982964834537" lon="15.79227075451293"><ele>4.0</ele><time>2026-03-22T10:41:08.999Z</time></trkpt><trkpt lat="39.79843982144942" lon="15.79221907093414"><ele>3.333333333333333</ele><time>2026-03-22T10:41:09.999Z</time></trkpt><trkpt lat="39.79859768161143" lon="15.79217112346399"><ele>2.6666666666666665</ele><time>2026-03-22T10:41:10.999Z</time></trkpt><trkpt lat="39.79876496560847" lon="15.792126130839442"><ele>2.0</ele><time>2026-03-22T10:41:11.999Z</time></trkpt><trkpt lat="39.79893184242051" lon="15.792088076188495"><ele>2.0</ele><time>2026-03-22T10:41:12.999Z</time></trkpt><trkpt lat="39.79908724411054" lon="15.792046311892497"><ele>2.0</ele><time>2026-03-22T10:41:13.999Z</time></trkpt><trkpt lat="39.79923112879888" lon="15.792004270545291"><ele>2.0</ele><time>2026-03-22T10:41:14.999Z</time></trkpt><trkpt lat="39.79936388107815" lon="15.791964981170782"><ele>2.0</ele><time>2026-03-22T10:41:15.999Z</time></trkpt><trkpt lat="39.79948208735335" lon="15.791926081586029"><ele>2.0</ele><time>2026-03-22T10:41:16.999Z</time></trkpt><trkpt lat="39.79959139108396" lon="15.791892375598714"><ele>2.0</ele><time>2026-03-22T10:41:17.999Z</time></trkpt><trkpt lat="39.79970417321472" lon="15.791859922685559"><ele>2.0</ele><time>2026-03-22T10:41:18.998Z</time></trkpt><trkpt lat="39.799823642138435" lon="15.791826147992849"><ele>2.0</ele><time>2026-03-22T10:41:19.998Z</time></trkpt><trkpt lat="39.79995247906406" lon="15.791792051469109"><ele>2.5</ele><time>2026-03-22T10:41:20.998Z</time></trkpt><trkpt lat="39.80008498707898" lon="15.791747999360949"><ele>3.0</ele><time>2026-03-22T10:41:21.998Z</time></trkpt><trkpt lat="39.80021722482841" lon="15.791701775387848"><ele>3.5</ele><time>2026-03-22T10:41:22.998Z</time></trkpt><trkpt lat="39.800348840547485" lon="15.791660805251215"><ele>4.0</ele><time>2026-03-22T10:41:23.998Z</time></trkpt><trkpt lat="39.800477701624835" lon="15.791618207947215"><ele>4.5</ele><time>2026-03-22T10:41:24.998Z</time></trkpt><trkpt lat="39.80060526045829" lon="15.791575157390312"><ele>5.0</ele><time>2026-03-22T10:41:25.998Z</time></trkpt><trkpt lat="39.80073735514847" lon="15.791534452601503"><ele>5.5</ele><time>2026-03-22T10:41:26.998Z</time></trkpt><trkpt lat="39.80087607890434" lon="15.791489838983985"><ele>6.0</ele><time>2026-03-22T10:41:27.998Z</time></trkpt><trkpt lat="39.80102440360626" lon="15.791435385832266"><ele>6.0</ele><time>2026-03-22T10:41:28.998Z</time></trkpt><trkpt lat="39.80117943228832" lon="15.791381487189389"><ele>6.0</ele><time>2026-03-22T10:41:29.998Z</time></trkpt><trkpt lat="39.80134095509067" lon="15.791331585441503"><ele>6.0</ele><time>2026-03-22T10:41:30.998Z</time></trkpt><trkpt lat="39.80150554368983" lon="15.791289530965203"><ele>6.0</ele><time>2026-03-22T10:41:31.998Z</time></trkpt><trkpt lat="39.801673169936116" lon="15.791247964444485"><ele>6.0</ele><time>2026-03-22T10:41:32.998Z</time></trkpt><trkpt lat="39.80184010401185" lon="15.791205815292793"><ele>6.0</ele><time>2026-03-22T10:41:33.998Z</time></trkpt><trkpt lat="39.80201280171245" lon="15.791160745717583"><ele>6.0</ele><time>2026-03-22T10:41:34.998Z</time></trkpt><trkpt lat="39.80218150417438" lon="15.791116745320696"><ele>6.0</ele><time>2026-03-22T10:41:35.998Z</time></trkpt><trkpt lat="39.80235156627036" lon="15.79107179150324"><ele>6.0</ele><time>2026-03-22T10:41:36.998Z</time></trkpt><trkpt lat="39.80251952138008" lon="15.791027139685301"><ele>6.0</ele><time>2026-03-22T10:41:37.998Z</time></trkpt><trkpt lat="39.80268929340061" lon="15.790985583334656"><ele>6.0</ele><time>2026-03-22T10:41:38.998Z</time></trkpt><trkpt lat="39.802859405408434" lon="15.790948720313644"><ele>6.0</ele><time>2026-03-22T10:41:39.998Z</time></trkpt><trkpt lat="39.80303073353335" lon="15.790908980969556"><ele>6.0</ele><time>2026-03-22T10:41:40.998Z</time></trkpt><trkpt lat="39.80320140065108" lon="15.790874130208318"><ele>6.0</ele><time>2026-03-22T10:41:41.998Z</time></trkpt><trkpt lat="39.80337072429994" lon="15.790839047804768"><ele>6.0</ele><time>2026-03-22T10:41:42.998Z</time></trkpt><trkpt lat="39.80354199847911" lon="15.790805358511278"><ele>6.0</ele><time>2026-03-22T10:41:43.998Z</time></trkpt><trkpt lat="39.803711785757216" lon="15.790773247559175"><ele>6.0</ele><time>2026-03-22T10:41:44.998Z</time></trkpt><trkpt lat="39.803885011493186" lon="15.790747470079726"><ele>6.0</ele><time>2026-03-22T10:41:45.998Z</time></trkpt><trkpt lat="39.80405746350092" lon="15.790727757691876"><ele>6.0</ele><time>2026-03-22T10:41:46.998Z</time></trkpt><trkpt lat="39.80422956218437" lon="15.790709994408305"><ele>6.0</ele><time>2026-03-22T10:41:47.998Z</time></trkpt><trkpt lat="39.804399868385026" lon="15.790687071297194"><ele>6.0</ele><time>2026-03-22T10:41:48.998Z</time></trkpt><trkpt lat="39.80457095143005" lon="15.790663788177996"><ele>5.25</ele><time>2026-03-22T10:41:49.998Z</time></trkpt><trkpt lat="39.80473425206012" lon="15.790643168944648"><ele>4.5</ele><time>2026-03-22T10:41:50.998Z</time></trkpt><trkpt lat="39.804877212243895" lon="15.790632829047482"><ele>3.75</ele><time>2026-03-22T10:41:51.998Z</time></trkpt><trkpt lat="39.80500170052107" lon="15.790623352781532"><ele>3.0</ele><time>2026-03-22T10:41:52.998Z</time></trkpt><trkpt lat="39.805121214389764" lon="15.79060890036072"><ele>3.25</ele><time>2026-03-22T10:41:54Z</time></trkpt><trkpt lat="39.80523884960803" lon="15.79059359330724"><ele>3.5</ele><time>2026-03-22T10:41:55Z</time></trkpt><trkpt lat="39.805357157001104" lon="15.790582089510298"><ele>3.75</ele><time>2026-03-22T10:41:56Z</time></trkpt><trkpt lat="39.805467413413744" lon="15.79056959850267"><ele>4.0</ele><time>2026-03-22T10:41:56.999Z</time></trkpt><trkpt lat="39.805578670006064" lon="15.790557360918655"><ele>4.0</ele><time>2026-03-22T10:41:57.999Z</time></trkpt><trkpt lat="39.80569933972468" lon="15.79054162198157"><ele>4.0</ele><time>2026-03-22T10:41:58.999Z</time></trkpt><trkpt lat="39.805829408473016" lon="15.790523062598425"><ele>4.0</ele><time>2026-03-22T10:41:59.999Z</time></trkpt><trkpt lat="39.80596830548107" lon="15.7905104496759"><ele>4.0</ele><time>2026-03-22T10:42:00.999Z</time></trkpt><trkpt lat="39.80611326741732" lon="15.790495262351149"><ele>4.0</ele><time>2026-03-22T10:42:01.999Z</time></trkpt><trkpt lat="39.806253012336676" lon="15.790478713808508"><ele>4.0</ele><time>2026-03-22T10:42:02.999Z</time></trkpt><trkpt lat="39.80638939925795" lon="15.790462565758965"><ele>4.0</ele><time>2026-03-22T10:42:03.999Z</time></trkpt><trkpt lat="39.80652592365453" lon="15.790446760986704"><ele>4.0</ele><time>2026-03-22T10:42:04.999Z</time></trkpt><trkpt lat="39.806660133957976" lon="15.790433925066042"><ele>4.0</ele><time>2026-03-22T10:42:05.999Z</time></trkpt><trkpt lat="39.806790743914405" lon="15.790418348177738"><ele>4.0</ele><time>2026-03-22T10:42:06.999Z</time></trkpt><trkpt lat="39.80692375690728" lon="15.790401570188145"><ele>4.0</ele><time>2026-03-22T10:42:07.999Z</time></trkpt><trkpt lat="39.80705427940001" lon="15.79038574034699"><ele>4.0</ele><time>2026-03-22T10:42:08.999Z</time></trkpt><trkpt lat="39.80718534799015" lon="15.790373922605848"><ele>4.0</ele><time>2026-03-22T10:42:09.999Z</time></trkpt><trkpt lat="39.80731549674396" lon="15.790358912441446"><ele>4.0</ele><time>2026-03-22T10:42:10.999Z</time></trkpt><trkpt lat="39.80744965052034" lon="15.790342712627838"><ele>4.0</ele><time>2026-03-22T10:42:11.999Z</time></trkpt><trkpt lat="39.807589760527584" lon="15.790326720966146"><ele>4.0</ele><time>2026-03-22T10:42:12.999Z</time></trkpt><trkpt lat="39.807731022783564" lon="15.790313939219141"><ele>4.5</ele><time>2026-03-22T10:42:13.999Z</time></trkpt><trkpt lat="39.807868410218404" lon="15.790299305707546"><ele>5.0</ele><time>2026-03-22T10:42:14.999Z</time></trkpt><trkpt lat="39.808007658573594" lon="15.790282089964863"><ele>5.5</ele><time>2026-03-22T10:42:15.999Z</time></trkpt><trkpt lat="39.808144336542455" lon="15.790265356294121"><ele>6.0</ele><time>2026-03-22T10:42:16.999Z</time></trkpt><trkpt lat="39.808282501998704" lon="15.790247838818784"><ele>6.0</ele><time>2026-03-22T10:42:17.999Z</time></trkpt><trkpt lat="39.808421963454826" lon="15.79023332657919"><ele>6.0</ele><time>2026-03-22T10:42:18.999Z</time></trkpt><trkpt lat="39.80855591114314" lon="15.790220656807044"><ele>6.0</ele><time>2026-03-22T10:42:19.999Z</time></trkpt><trkpt lat="39.80869374463175" lon="15.790206291161978"><ele>6.0</ele><time>2026-03-22T10:42:20.999Z</time></trkpt><trkpt lat="39.80882621701557" lon="15.790193019905086"><ele>5.75</ele><time>2026-03-22T10:42:21.999Z</time></trkpt><trkpt lat="39.80896357019808" lon="15.790176125645376"><ele>5.5</ele><time>2026-03-22T10:42:22.999Z</time></trkpt><trkpt lat="39.80910168725392" lon="15.790160460889819"><ele>5.25</ele><time>2026-03-22T10:42:23.999Z</time></trkpt><trkpt lat="39.80923694894113" lon="15.790144443138278"><ele>5.0</ele><time>2026-03-22T10:42:24.999Z</time></trkpt><trkpt lat="39.80936621062005" lon="15.790129997348409"><ele>5.75</ele><time>2026-03-22T10:42:25.999Z</time></trkpt><trkpt lat="39.80949221914449" lon="15.790113387673847"><ele>6.5</ele><time>2026-03-22T10:42:26.999Z</time></trkpt><trkpt lat="39.80960304786925" lon="15.790101531290349"><ele>7.25</ele><time>2026-03-22T10:42:27.999Z</time></trkpt><trkpt lat="39.809712014480475" lon="15.790089481186921"><ele>8.0</ele><time>2026-03-22T10:42:28.999Z</time></trkpt><trkpt lat="39.80981495450977" lon="15.790081416948702"><ele>8.0</ele><time>2026-03-22T10:42:29.999Z</time></trkpt><trkpt lat="39.8099147492958" lon="15.790070205821534"><ele>8.0</ele><time>2026-03-22T10:42:30.999Z</time></trkpt><trkpt lat="39.81001585461596" lon="15.790059039374352"><ele>8.0</ele><time>2026-03-22T10:42:31.999Z</time></trkpt><trkpt lat="39.81011448315426" lon="15.790048201661564"><ele>8.0</ele><time>2026-03-22T10:42:32.999Z</time></trkpt><trkpt lat="39.8102054170142" lon="15.790036854537691"><ele>8.0</ele><time>2026-03-22T10:42:33.999Z</time></trkpt><trkpt lat="39.810290724157426" lon="15.790028194984801"><ele>7.999999999999999</ele><time>2026-03-22T10:42:34.999Z</time></trkpt><trkpt lat="39.81036402798156" lon="15.790014692269537"><ele>8.0</ele><time>2026-03-22T10:42:35.999Z</time></trkpt><trkpt lat="39.81044355266413" lon="15.790002693683187"><ele>8.0</ele><time>2026-03-22T10:42:36.999Z</time></trkpt><trkpt lat="39.81052709668384" lon="15.78999581980504"><ele>8.0</ele><time>2026-03-22T10:42:37.999Z</time></trkpt><trkpt lat="39.810612493600544" lon="15.789987132484304"><ele>7.999999999999999</ele><time>2026-03-22T10:42:38.999Z</time></trkpt><trkpt lat="39.81069571164462" lon="15.78997881127943"><ele>8.0</ele><time>2026-03-22T10:42:39.999Z</time></trkpt><trkpt lat="39.81077798294231" lon="15.789970349908288"><ele>7.999999999999999</ele><time>2026-03-22T10:42:40.999Z</time></trkpt><trkpt lat="39.810860073779224" lon="15.789961363776818"><ele>8.0</ele><time>2026-03-22T10:42:41.999Z</time></trkpt><trkpt lat="39.810941428445325" lon="15.789951757030149"><ele>8.0</ele><time>2026-03-22T10:42:42.999Z</time></trkpt><trkpt lat="39.81101990766689" lon="15.789944299713834"><ele>8.0</ele><time>2026-03-22T10:42:43.999Z</time></trkpt><trkpt lat="39.81110125113001" lon="15.789938088001279"><ele>7.999999999999999</ele><time>2026-03-22T10:42:44.999Z</time></trkpt><trkpt lat="39.811183131282014" lon="15.789926701615848"><ele>8.0</ele><time>2026-03-22T10:42:45.999Z</time></trkpt><trkpt lat="39.8112677350352" lon="15.7899174294616"><ele>7.499999999999999</ele><time>2026-03-22T10:42:46.999Z</time></trkpt><trkpt lat="39.81134298578806" lon="15.78990761142913"><ele>7.0</ele><time>2026-03-22T10:42:47.999Z</time></trkpt><trkpt lat="39.81142343260032" lon="15.789898706572128"><ele>6.5</ele><time>2026-03-22T10:42:48.999Z</time></trkpt><trkpt lat="39.811506050161086" lon="15.789889455445591"><ele>6.0</ele><time>2026-03-22T10:42:49.999Z</time></trkpt><trkpt lat="39.81158578645742" lon="15.789881123639923"><ele>5.5</ele><time>2026-03-22T10:42:50.999Z</time></trkpt><trkpt lat="39.81166583149736" lon="15.789872388403708"><ele>5.0</ele><time>2026-03-22T10:42:51.999Z</time></trkpt><trkpt lat="39.811752342609964" lon="15.789864608195208"><ele>4.6</ele><time>2026-03-22T10:42:52.999Z</time></trkpt><trkpt lat="39.81184180806302" lon="15.789857781210374"><ele>4.2</ele><time>2026-03-22T10:42:53.999Z</time></trkpt><trkpt lat="39.81193791374292" lon="15.789848076778235"><ele>3.8</ele><time>2026-03-22T10:42:54.999Z</time></trkpt><trkpt lat="39.81203640618486" lon="15.789835984486926"><ele>3.4</ele><time>2026-03-22T10:42:55.999Z</time></trkpt><trkpt lat="39.81213532464004" lon="15.789823369226417"><ele>3.0</ele><time>2026-03-22T10:42:56.999Z</time></trkpt><trkpt lat="39.812238125755734" lon="15.789803604512565"><ele>3.0</ele><time>2026-03-22T10:42:57.999Z</time></trkpt><trkpt lat="39.81234021767198" lon="15.789782435336743"><ele>3.0</ele><time>2026-03-22T10:42:58.999Z</time></trkpt><trkpt lat="39.81243940164205" lon="15.789756624579828"><ele>3.0</ele><time>2026-03-22T10:42:59.999Z</time></trkpt><trkpt lat="39.812539677170236" lon="15.789728524896917"><ele>3.0</ele><time>2026-03-22T10:43:00.999Z</time></trkpt><trkpt lat="39.81264036007819" lon="15.789695429778192"><ele>3.0</ele><time>2026-03-22T10:43:01.999Z</time></trkpt><trkpt lat="39.81273849041856" lon="15.789661919724889"><ele>3.2</ele><time>2026-03-22T10:43:02.999Z</time></trkpt><trkpt lat="39.812837680357944" lon="15.789623486407738"><ele>3.4</ele><time>2026-03-22T10:43:03.999Z</time></trkpt><trkpt lat="39.81293754126755" lon="15.789580846105482"><ele>3.6000000000000005</ele><time>2026-03-22T10:43:04.999Z</time></trkpt><trkpt lat="39.81304007276686" lon="15.78953051799325"><ele>3.8000000000000003</ele><time>2026-03-22T10:43:06Z</time></trkpt><trkpt lat="39.81314406262596" lon="15.78948734429609"><ele>4.0</ele><time>2026-03-22T10:43:07Z</time></trkpt><trkpt lat="39.813251158873726" lon="15.789432158757577"><ele>4.0</ele><time>2026-03-22T10:43:08Z</time></trkpt><trkpt lat="39.813356260665415" lon="15.78937403387297"><ele>4.0</ele><time>2026-03-22T10:43:09Z</time></trkpt><trkpt lat="39.8134636201121" lon="15.789313403925684"><ele>4.0</ele><time>2026-03-22T10:43:10Z</time></trkpt><trkpt lat="39.813562005684" lon="15.789249134131836"><ele>4.0</ele><time>2026-03-22T10:43:11Z</time></trkpt><trkpt lat="39.81365116625064" lon="15.7891915147771"><ele>4.0</ele><time>2026-03-22T10:43:12Z</time></trkpt><trkpt lat="39.81372993248401" lon="15.789138341662532"><ele>4.166666666666666</ele><time>2026-03-22T10:43:13Z</time></trkpt><trkpt lat="39.81379904564675" lon="15.78909717955509"><ele>4.333333333333333</ele><time>2026-03-22T10:43:14Z</time></trkpt><trkpt lat="39.81385828039625" lon="15.789059555427626"><ele>4.5</ele><time>2026-03-22T10:43:15Z</time></trkpt><trkpt lat="39.81394627684788" lon="15.789002885037766"><ele>4.666666666666667</ele><time>2026-03-22T10:43:17Z</time></trkpt><trkpt lat="39.8140248146679" lon="15.788954449048386"><ele>4.833333333333334</ele><time>2026-03-22T10:43:19Z</time></trkpt><trkpt lat="39.81411632195415" lon="15.788900328513789"><ele>5.0</ele><time>2026-03-22T10:43:21Z</time></trkpt><trkpt lat="39.814177738917984" lon="15.788865674272499"><ele>5.0</ele><time>2026-03-22T10:43:22Z</time></trkpt><trkpt lat="39.814249794758474" lon="15.78882284144626"><ele>5.0</ele><time>2026-03-22T10:43:23Z</time></trkpt><trkpt lat="39.814329311052695" lon="15.788771014888207"><ele>5.0</ele><time>2026-03-22T10:43:23.999Z</time></trkpt><trkpt lat="39.81440851940004" lon="15.788713757989214"><ele>5.0</ele><time>2026-03-22T10:43:24.999Z</time></trkpt><trkpt lat="39.8144925244663" lon="15.788656509632723"><ele>5.0</ele><time>2026-03-22T10:43:25.999Z</time></trkpt><trkpt lat="39.81458381639103" lon="15.788597048393708"><ele>4.75</ele><time>2026-03-22T10:43:26.999Z</time></trkpt><trkpt lat="39.81468384390974" lon="15.788531974962776"><ele>4.5</ele><time>2026-03-22T10:43:27.999Z</time></trkpt><trkpt lat="39.81478752936201" lon="15.788468144073034"><ele>4.25</ele><time>2026-03-22T10:43:28.999Z</time></trkpt><trkpt lat="39.8148992959716" lon="15.788399691395007"><ele>4.0</ele><time>2026-03-22T10:43:29.999Z</time></trkpt><trkpt lat="39.81501637720362" lon="15.788325422454628"><ele>4.0</ele><time>2026-03-22T10:43:30.999Z</time></trkpt><trkpt lat="39.8151317508091" lon="15.788254839479398"><ele>4.0</ele><time>2026-03-22T10:43:31.999Z</time></trkpt><trkpt lat="39.81524832524823" lon="15.788181493242801"><ele>4.0</ele><time>2026-03-22T10:43:32.999Z</time></trkpt><trkpt lat="39.81536635774387" lon="15.788107565052151"><ele>4.0</ele><time>2026-03-22T10:43:33.999Z</time></trkpt><trkpt lat="39.815484679683294" lon="15.788033636398334"><ele>4.75</ele><time>2026-03-22T10:43:34.999Z</time></trkpt><trkpt lat="39.81560205317661" lon="15.787960198834122"><ele>5.5</ele><time>2026-03-22T10:43:35.999Z</time></trkpt><trkpt lat="39.81572333041672" lon="15.787880109857815"><ele>6.25</ele><time>2026-03-22T10:43:36.999Z</time></trkpt><trkpt lat="39.815841382925946" lon="15.787804824189957"><ele>7.0</ele><time>2026-03-22T10:43:37.999Z</time></trkpt><trkpt lat="39.81596083174601" lon="15.787724897769017"><ele>9.0</ele><time>2026-03-22T10:43:38.999Z</time></trkpt><trkpt lat="39.81607949023396" lon="15.787645926484648"><ele>11.0</ele><time>2026-03-22T10:43:39.999Z</time></trkpt><trkpt lat="39.81619637186346" lon="15.787572675392367"><ele>13.0</ele><time>2026-03-22T10:43:40.999Z</time></trkpt><trkpt lat="39.81631793190988" lon="15.787506887340987"><ele>15.0</ele><time>2026-03-22T10:43:41.999Z</time></trkpt><trkpt lat="39.81644585961183" lon="15.787463307612287"><ele>15.0</ele><time>2026-03-22T10:43:42.999Z</time></trkpt><trkpt lat="39.816577096421746" lon="15.787438351977974"><ele>15.0</ele><time>2026-03-22T10:43:43.999Z</time></trkpt><trkpt lat="39.81670873208909" lon="15.7874286307211"><ele>15.0</ele><time>2026-03-22T10:43:44.999Z</time></trkpt><trkpt lat="39.81683391505907" lon="15.78742472433805"><ele>15.0</ele><time>2026-03-22T10:43:45.999Z</time></trkpt><trkpt lat="39.816958995123684" lon="15.787422318987298"><ele>17.5</ele><time>2026-03-22T10:43:46.999Z</time></trkpt><trkpt lat="39.81707913251838" lon="15.787417577639161"><ele>20.0</ele><time>2026-03-22T10:43:47.999Z</time></trkpt><trkpt lat="39.81720204861669" lon="15.787406231772179"><ele>22.5</ele><time>2026-03-22T10:43:48.999Z</time></trkpt><trkpt lat="39.817319390529896" lon="15.787394707187204"><ele>25.0</ele><time>2026-03-22T10:43:49.999Z</time></trkpt><trkpt lat="39.81743597014861" lon="15.787372715584528"><ele>25.0</ele><time>2026-03-22T10:43:50.999Z</time></trkpt><trkpt lat="39.81754835564765" lon="15.787333733538997"><ele>25.0</ele><time>2026-03-22T10:43:51.999Z</time></trkpt><trkpt lat="39.8176522970448" lon="15.787290436263723"><ele>25.0</ele><time>2026-03-22T10:43:52.999Z</time></trkpt><trkpt lat="39.81775011339968" lon="15.787240402308377"><ele>25.0</ele><time>2026-03-22T10:43:53.999Z</time></trkpt><trkpt lat="39.81784130927194" lon="15.787188206366917"><ele>25.0</ele><time>2026-03-22T10:43:54.999Z</time></trkpt><trkpt lat="39.817929845534245" lon="15.787135569609951"><ele>28.2</ele><time>2026-03-22T10:43:55.999Z</time></trkpt><trkpt lat="39.81801496039136" lon="15.787079846455574"><ele>31.4</ele><time>2026-03-22T10:43:56.999Z</time></trkpt><trkpt lat="39.81808409321325" lon="15.787029963078213"><ele>34.599999999999994</ele><time>2026-03-22T10:43:57.999Z</time></trkpt><trkpt lat="39.81818602194208" lon="15.78698444851036"><ele>37.8</ele><time>2026-03-22T10:44:00Z</time></trkpt><trkpt lat="39.818246820304665" lon="15.786943296546884"><ele>41.0</ele><time>2026-03-22T10:44:02Z</time></trkpt><trkpt lat="39.818355583409726" lon="15.786848572774511"><ele>41.199999999999996</ele><time>2026-03-22T10:44:04Z</time></trkpt><trkpt lat="39.818432009241796" lon="15.786781512699793"><ele>41.4</ele><time>2026-03-22T10:44:05Z</time></trkpt><trkpt lat="39.81852090408265" lon="15.7866955861178"><ele>41.6</ele><time>2026-03-22T10:44:06Z</time></trkpt><trkpt lat="39.81861429573132" lon="15.78660658071289"><ele>41.8</ele><time>2026-03-22T10:44:07Z</time></trkpt><trkpt lat="39.81870716179569" lon="15.786514381232118"><ele>42.0</ele><time>2026-03-22T10:44:08Z</time></trkpt><trkpt lat="39.81880856081332" lon="15.786412702964464"><ele>42.0</ele><time>2026-03-22T10:44:09Z</time></trkpt><trkpt lat="39.81891671801708" lon="15.786298474201578"><ele>42.0</ele><time>2026-03-22T10:44:10Z</time></trkpt><trkpt lat="39.81903125548669" lon="15.786169020217338"><ele>42.0</ele><time>2026-03-22T10:44:11Z</time></trkpt><trkpt lat="39.81915239924793" lon="15.786018430089772"><ele>44.33333333333333</ele><time>2026-03-22T10:44:12Z</time></trkpt><trkpt lat="39.81928398644637" lon="15.785849209360116"><ele>46.666666666666664</ele><time>2026-03-22T10:44:13Z</time></trkpt><trkpt lat="39.81942342393423" lon="15.785654955628358"><ele>49.0</ele><time>2026-03-22T10:44:14Z</time></trkpt><trkpt lat="39.819581514904066" lon="15.785435861506128"><ele>49.0</ele><time>2026-03-22T10:44:15Z</time></trkpt><trkpt lat="39.81975252606447" lon="15.785192022251282"><ele>49.0</ele><time>2026-03-22T10:44:16Z</time></trkpt><trkpt lat="39.81993081466847" lon="15.784936087738927"><ele>45.5</ele><time>2026-03-22T10:44:17Z</time></trkpt><trkpt lat="39.82010504107852" lon="15.78466729581783"><ele>42.0</ele><time>2026-03-22T10:44:18Z</time></trkpt><trkpt lat="39.82026506447972" lon="15.784433570473192"><ele>47.5</ele><time>2026-03-22T10:44:19Z</time></trkpt><trkpt lat="39.82042536360444" lon="15.784126956824142"><ele>53.0</ele><time>2026-03-22T10:44:20Z</time></trkpt><trkpt lat="39.82057304820059" lon="15.78385647204148"><ele>53.0</ele><time>2026-03-22T10:44:21Z</time></trkpt><trkpt lat="39.820728106052954" lon="15.783615529320036"><ele>53.0</ele><time>2026-03-22T10:44:22Z</time></trkpt><trkpt lat="39.82087542830723" lon="15.783378698374092"><ele>56.0</ele><time>2026-03-22T10:44:23Z</time></trkpt><trkpt lat="39.821020799597314" lon="15.783161242036362"><ele>59.0</ele><time>2026-03-22T10:44:24Z</time></trkpt><trkpt lat="39.82116650927978" lon="15.782962971631681"><ele>62.0</ele><time>2026-03-22T10:44:25Z</time></trkpt><trkpt lat="39.82131673552053" lon="15.78277629233622"><ele>58.0</ele><time>2026-03-22T10:44:26Z</time></trkpt><trkpt lat="39.821474877165386" lon="15.78259418059603"><ele>54.0</ele><time>2026-03-22T10:44:27Z</time></trkpt><trkpt lat="39.82164099538681" lon="15.782411507490224"><ele>50.0</ele><time>2026-03-22T10:44:28Z</time></trkpt><trkpt lat="39.82181493584902" lon="15.782228995334057"><ele>53.5</ele><time>2026-03-22T10:44:29Z</time></trkpt><trkpt lat="39.82200100983699" lon="15.782034963737928"><ele>57.0</ele><time>2026-03-22T10:44:30Z</time></trkpt><trkpt lat="39.822201559994866" lon="15.781823256088742"><ele>57.0</ele><time>2026-03-22T10:44:31Z</time></trkpt><trkpt lat="39.82240218179815" lon="15.781607683011316"><ele>57.0</ele><time>2026-03-22T10:44:32Z</time></trkpt><trkpt lat="39.82259805089014" lon="15.78139733349092"><ele>61.0</ele><time>2026-03-22T10:44:33Z</time></trkpt><trkpt lat="39.822786626518045" lon="15.781194537611356"><ele>65.0</ele><time>2026-03-22T10:44:34Z</time></trkpt><trkpt lat="39.822961440407475" lon="15.781008931911416"><ele>65.0</ele><time>2026-03-22T10:44:35Z</time></trkpt><trkpt lat="39.82312647286284" lon="15.780831217667878"><ele>65.0</ele><time>2026-03-22T10:44:36Z</time></trkpt><trkpt lat="39.82328709827838" lon="15.78065912064708"><ele>65.0</ele><time>2026-03-22T10:44:37Z</time></trkpt><trkpt lat="39.823447933592" lon="15.780488900596787"><ele>67.33333333333334</ele><time>2026-03-22T10:44:38Z</time></trkpt><trkpt lat="39.82361048978065" lon="15.780316156194328"><ele>69.66666666666667</ele><time>2026-03-22T10:44:39Z</time></trkpt><trkpt lat="39.82376927471757" lon="15.780144844214675"><ele>72.0</ele><time>2026-03-22T10:44:40Z</time></trkpt><trkpt lat="39.82392650519827" lon="15.779976002047853"><ele>72.0</ele><time>2026-03-22T10:44:41Z</time></trkpt><trkpt lat="39.824084068626114" lon="15.779807494753802"><ele>72.0</ele><time>2026-03-22T10:44:42Z</time></trkpt><trkpt lat="39.8242419944097" lon="15.779638209204494"><ele>72.0</ele><time>2026-03-22T10:44:43Z</time></trkpt><trkpt lat="39.8243992509264" lon="15.779468675264585"><ele>72.66666666666667</ele><time>2026-03-22T10:44:44Z</time></trkpt><trkpt lat="39.82455601804891" lon="15.779301276194046"><ele>73.33333333333334</ele><time>2026-03-22T10:44:45Z</time></trkpt><trkpt lat="39.824709776257365" lon="15.779136778575236"><ele>74.0</ele><time>2026-03-22T10:44:46Z</time></trkpt><trkpt lat="39.82486271127164" lon="15.778974766281195"><ele>74.0</ele><time>2026-03-22T10:44:47Z</time></trkpt><trkpt lat="39.82501654855976" lon="15.77881471071231"><ele>74.0</ele><time>2026-03-22T10:44:48Z</time></trkpt><trkpt lat="39.82517165964978" lon="15.778653469479924"><ele>74.0</ele><time>2026-03-22T10:44:49Z</time></trkpt><trkpt lat="39.82532778209306" lon="15.77849972678732"><ele>75.0</ele><time>2026-03-22T10:44:50Z</time></trkpt><trkpt lat="39.82549250720196" lon="15.77835993516518"><ele>76.0</ele><time>2026-03-22T10:44:51Z</time></trkpt><trkpt lat="39.825664563866205" lon="15.778238649537553"><ele>77.0</ele><time>2026-03-22T10:44:52Z</time></trkpt><trkpt lat="39.82584537609892" lon="15.77813038588308"><ele>80.33333333333334</ele><time>2026-03-22T10:44:53Z</time></trkpt><trkpt lat="39.826017468117236" lon="15.778013799456675"><ele>83.66666666666667</ele><time>2026-03-22T10:44:54Z</time></trkpt><trkpt lat="39.8262179088526" lon="15.77797152462871"><ele>87.0</ele><time>2026-03-22T10:44:55Z</time></trkpt><trkpt lat="39.82640764240362" lon="15.777917835903292"><ele>87.0</ele><time>2026-03-22T10:44:56Z</time></trkpt><trkpt lat="39.826598448816966" lon="15.777885359260903"><ele>87.0</ele><time>2026-03-22T10:44:57Z</time></trkpt><trkpt lat="39.8267900649042" lon="15.77786932852216"><ele>87.0</ele><time>2026-03-22T10:44:58Z</time></trkpt><trkpt lat="39.82698062176865" lon="15.777870061643165"><ele>88.0</ele><time>2026-03-22T10:44:59Z</time></trkpt><trkpt lat="39.82716982400762" lon="15.777891078957568"><ele>89.0</ele><time>2026-03-22T10:45:00Z</time></trkpt><trkpt lat="39.82735889878844" lon="15.777930225982383"><ele>90.0</ele><time>2026-03-22T10:45:01Z</time></trkpt><trkpt lat="39.82754414995224" lon="15.777984129088352"><ele>89.66666666666667</ele><time>2026-03-22T10:45:02Z</time></trkpt><trkpt lat="39.82772778651098" lon="15.77805331672988"><ele>89.33333333333334</ele><time>2026-03-22T10:45:03Z</time></trkpt><trkpt lat="39.82790887616188" lon="15.778142217034011"><ele>89.0</ele><time>2026-03-22T10:45:04Z</time></trkpt><trkpt lat="39.82808472026387" lon="15.778250086753658"><ele>89.0</ele><time>2026-03-22T10:45:05Z</time></trkpt><trkpt lat="39.8282532412795" lon="15.778374806838528"><ele>89.0</ele><time>2026-03-22T10:45:06Z</time></trkpt><trkpt lat="39.82841203378015" lon="15.778512168686355"><ele>89.0</ele><time>2026-03-22T10:45:07Z</time></trkpt><trkpt lat="39.828564393196125" lon="15.778663516916934"><ele>89.66666666666667</ele><time>2026-03-22T10:45:08Z</time></trkpt><trkpt lat="39.82870946326413" lon="15.778828839758157"><ele>90.33333333333333</ele><time>2026-03-22T10:45:09Z</time></trkpt><trkpt lat="39.828849087577886" lon="15.779009571211688"><ele>91.0</ele><time>2026-03-22T10:45:10Z</time></trkpt><trkpt lat="39.82897992676656" lon="15.779203480954168"><ele>92.66666666666666</ele><time>2026-03-22T10:45:11Z</time></trkpt><trkpt lat="39.82910054723172" lon="15.779411055310712"><ele>94.33333333333333</ele><time>2026-03-22T10:45:12Z</time></trkpt><trkpt lat="39.82920983298572" lon="15.779631594956438"><ele>96.0</ele><time>2026-03-22T10:45:13Z</time></trkpt><trkpt lat="39.82930350856288" lon="15.779860755224087"><ele>91.66666666666667</ele><time>2026-03-22T10:45:14Z</time></trkpt><trkpt lat="39.82938353420089" lon="15.7801041982606"><ele>87.33333333333334</ele><time>2026-03-22T10:45:15Z</time></trkpt><trkpt lat="39.8294597303835" lon="15.780365780898688"><ele>83.0</ele><time>2026-03-22T10:45:16Z</time></trkpt><trkpt lat="39.829539792292884" lon="15.780638949442398"><ele>83.0</ele><time>2026-03-22T10:45:17Z</time></trkpt><trkpt lat="39.82962845171419" lon="15.78092237047602"><ele>83.0</ele><time>2026-03-22T10:45:18Z</time></trkpt><trkpt lat="39.829716578418314" lon="15.781214268705869"><ele>84.5</ele><time>2026-03-22T10:45:19Z</time></trkpt><trkpt lat="39.8297998130038" lon="15.781509762922433"><ele>86.0</ele><time>2026-03-22T10:45:20Z</time></trkpt><trkpt lat="39.82987585916637" lon="15.78179518789752"><ele>87.66666666666667</ele><time>2026-03-22T10:45:21Z</time></trkpt><trkpt lat="39.82994854200781" lon="15.782071472490934"><ele>89.33333333333333</ele><time>2026-03-22T10:45:22Z</time></trkpt><trkpt lat="39.830018580493686" lon="15.782331613959204"><ele>91.0</ele><time>2026-03-22T10:45:23Z</time></trkpt><trkpt lat="39.83008588080063" lon="15.782578576488895"><ele>91.66666666666666</ele><time>2026-03-22T10:45:24Z</time></trkpt><trkpt lat="39.83015135371448" lon="15.782816209000664"><ele>92.33333333333333</ele><time>2026-03-22T10:45:25Z</time></trkpt><trkpt lat="39.830216929975464" lon="15.783050597159688"><ele>93.0</ele><time>2026-03-22T10:45:26Z</time></trkpt><trkpt lat="39.83028245460948" lon="15.783284460845815"><ele>95.33333333333334</ele><time>2026-03-22T10:45:27Z</time></trkpt><trkpt lat="39.83034877617997" lon="15.783517681163616"><ele>97.66666666666667</ele><time>2026-03-22T10:45:27.999Z</time></trkpt><trkpt lat="39.83041504408057" lon="15.783752213890784"><ele>100.0</ele><time>2026-03-22T10:45:28.999Z</time></trkpt><trkpt lat="39.83048204188626" lon="15.783989011649581"><ele>100.0</ele><time>2026-03-22T10:45:29.999Z</time></trkpt><trkpt lat="39.83054802588016" lon="15.784230663425841"><ele>100.0</ele><time>2026-03-22T10:45:30.999Z</time></trkpt><trkpt lat="39.830615959468986" lon="15.784476157819151"><ele>100.0</ele><time>2026-03-22T10:45:31.999Z</time></trkpt><trkpt lat="39.83069176201769" lon="15.784727055911263"><ele>103.5</ele><time>2026-03-22T10:45:32.999Z</time></trkpt><trkpt lat="39.83077857343654" lon="15.78499101801255"><ele>107.0</ele><time>2026-03-22T10:45:33.999Z</time></trkpt><trkpt lat="39.83086934414525" lon="15.785278420777969"><ele>104.0</ele><time>2026-03-22T10:45:34.999Z</time></trkpt><trkpt lat="39.83095658845492" lon="15.785587787052838"><ele>101.0</ele><time>2026-03-22T10:45:35.999Z</time></trkpt><trkpt lat="39.831041231296226" lon="15.785902685998822"><ele>102.5</ele><time>2026-03-22T10:45:36.999Z</time></trkpt><trkpt lat="39.831123880143736" lon="15.786219697112648"><ele>104.0</ele><time>2026-03-22T10:45:37.999Z</time></trkpt><trkpt lat="39.83120688027572" lon="15.786542524681638"><ele>104.0</ele><time>2026-03-22T10:45:38.999Z</time></trkpt><trkpt lat="39.83129231524892" lon="15.786866191596452"><ele>104.0</ele><time>2026-03-22T10:45:39.999Z</time></trkpt><trkpt lat="39.83138004055754" lon="15.787185360987882"><ele>104.0</ele><time>2026-03-22T10:45:40.999Z</time></trkpt><trkpt lat="39.83146948080178" lon="15.78750255948351"><ele>104.0</ele><time>2026-03-22T10:45:41.999Z</time></trkpt><trkpt lat="39.831559129151636" lon="15.787816644198378"><ele>105.0</ele><time>2026-03-22T10:45:42.999Z</time></trkpt><trkpt lat="39.83164721095312" lon="15.788128892677753"><ele>106.0</ele><time>2026-03-22T10:45:43.999Z</time></trkpt><trkpt lat="39.83173392572838" lon="15.788439703256763"><ele>102.0</ele><time>2026-03-22T10:45:44.999Z</time></trkpt><trkpt lat="39.83182338976871" lon="15.78875008280438"><ele>98.0</ele><time>2026-03-22T10:45:45.999Z</time></trkpt><trkpt lat="39.83191985996843" lon="15.78905807787153"><ele>101.0</ele><time>2026-03-22T10:45:46.999Z</time></trkpt><trkpt lat="39.83202782121547" lon="15.78935728852542"><ele>104.0</ele><time>2026-03-22T10:45:47.999Z</time></trkpt><trkpt lat="39.83214712393928" lon="15.78964661015615"><ele>104.0</ele><time>2026-03-22T10:45:48.999Z</time></trkpt><trkpt lat="39.8322791434321" lon="15.78992956525729"><ele>104.0</ele><time>2026-03-22T10:45:49.999Z</time></trkpt><trkpt lat="39.83242313915203" lon="15.790200319230609"><ele>103.5</ele><time>2026-03-22T10:45:50.999Z</time></trkpt><trkpt lat="39.83258019306263" lon="15.790459378179976"><ele>103.0</ele><time>2026-03-22T10:45:51.999Z</time></trkpt><trkpt lat="39.83274808484277" lon="15.790704055843156"><ele>109.0</ele><time>2026-03-22T10:45:52.999Z</time></trkpt><trkpt lat="39.83292310701709" lon="15.790934770213688"><ele>115.0</ele><time>2026-03-22T10:45:53.999Z</time></trkpt><trkpt lat="39.83310563751502" lon="15.79115305578732"><ele>117.0</ele><time>2026-03-22T10:45:54.999Z</time></trkpt><trkpt lat="39.833297304423795" lon="15.791360975238298"><ele>119.0</ele><time>2026-03-22T10:45:55.999Z</time></trkpt><trkpt lat="39.83349984915129" lon="15.791555764340021"><ele>121.0</ele><time>2026-03-22T10:45:56.999Z</time></trkpt><trkpt lat="39.83371458904568" lon="15.791736206068625"><ele>123.0</ele><time>2026-03-22T10:45:57.999Z</time></trkpt><trkpt lat="39.83393713292296" lon="15.791899469501056"><ele>126.0</ele><time>2026-03-22T10:45:58.999Z</time></trkpt><trkpt lat="39.83416382976847" lon="15.792044983289081"><ele>129.0</ele><time>2026-03-22T10:45:59.999Z</time></trkpt><trkpt lat="39.83439836832859" lon="15.792178402237756"><ele>129.5</ele><time>2026-03-22T10:46:00.999Z</time></trkpt><trkpt lat="39.83463484652491" lon="15.792302016318558"><ele>130.0</ele><time>2026-03-22T10:46:01.999Z</time></trkpt><trkpt lat="39.83487305501642" lon="15.792423326943752"><ele>130.0</ele><time>2026-03-22T10:46:02.999Z</time></trkpt><trkpt lat="39.835110350766406" lon="15.79254728013411"><ele>130.0</ele><time>2026-03-22T10:46:03.999Z</time></trkpt><trkpt lat="39.83534970288844" lon="15.792672088577975"><ele>132.5</ele><time>2026-03-22T10:46:04.999Z</time></trkpt><trkpt lat="39.83558960195703" lon="15.792797706707388"><ele>135.0</ele><time>2026-03-22T10:46:06Z</time></trkpt><trkpt lat="39.83583035902095" lon="15.792922651052052"><ele>136.0</ele><time>2026-03-22T10:46:07Z</time></trkpt><trkpt lat="39.83606747242322" lon="15.793043550617092"><ele>137.0</ele><time>2026-03-22T10:46:08Z</time></trkpt><trkpt lat="39.83630177661519" lon="15.793163371368582"><ele>137.0</ele><time>2026-03-22T10:46:09Z</time></trkpt><trkpt lat="39.83652849692534" lon="15.793279522562473"><ele>137.0</ele><time>2026-03-22T10:46:10Z</time></trkpt><trkpt lat="39.83674651385619" lon="15.793393408482832"><ele>137.0</ele><time>2026-03-22T10:46:11Z</time></trkpt><trkpt lat="39.83695344235268" lon="15.793501913628914"><ele>137.0</ele><time>2026-03-22T10:46:12Z</time></trkpt><trkpt lat="39.837146891837875" lon="15.793604442518287"><ele>137.0</ele><time>2026-03-22T10:46:13Z</time></trkpt><trkpt lat="39.83732637481941" lon="15.793698595473165"><ele>138.0</ele><time>2026-03-22T10:46:14Z</time></trkpt><trkpt lat="39.83749605600188" lon="15.79378944917561"><ele>139.0</ele><time>2026-03-22T10:46:15Z</time></trkpt><trkpt lat="39.83766776759895" lon="15.793880620098548"><ele>140.0</ele><time>2026-03-22T10:46:16Z</time></trkpt><trkpt lat="39.83783887908966" lon="15.793970119604802"><ele>140.0</ele><time>2026-03-22T10:46:17Z</time></trkpt><trkpt lat="39.838007432303876" lon="15.794056975367656"><ele>140.0</ele><time>2026-03-22T10:46:18Z</time></trkpt><trkpt lat="39.83817285570379" lon="15.79414196524449"><ele>140.0</ele><time>2026-03-22T10:46:19Z</time></trkpt><trkpt lat="39.838333005818754" lon="15.794223269857314"><ele>140.33333333333331</ele><time>2026-03-22T10:46:20Z</time></trkpt><trkpt lat="39.83849528663815" lon="15.79430537056737"><ele>140.66666666666666</ele><time>2026-03-22T10:46:21Z</time></trkpt><trkpt lat="39.838656699966286" lon="15.79438721103401"><ele>141.0</ele><time>2026-03-22T10:46:22Z</time></trkpt><trkpt lat="39.83882556903156" lon="15.794470517823312"><ele>142.33333333333334</ele><time>2026-03-22T10:46:23Z</time></trkpt><trkpt lat="39.83900239068323" lon="15.794585974582388"><ele>143.66666666666669</ele><time>2026-03-22T10:46:24Z</time></trkpt><trkpt lat="39.83919993142378" lon="15.794689659933011"><ele>145.0</ele><time>2026-03-22T10:46:25Z</time></trkpt><trkpt lat="39.83940918143753" lon="15.794799165229735"><ele>145.5</ele><time>2026-03-22T10:46:26Z</time></trkpt><trkpt lat="39.83962430627043" lon="15.794912024998037"><ele>146.0</ele><time>2026-03-22T10:46:27Z</time></trkpt><trkpt lat="39.83983757046605" lon="15.79502299815761"><ele>146.0</ele><time>2026-03-22T10:46:28Z</time></trkpt><trkpt lat="39.84005128146637" lon="15.795134742057941"><ele>146.0</ele><time>2026-03-22T10:46:29Z</time></trkpt><trkpt lat="39.84026893478337" lon="15.795248689083696"><ele>150.0</ele><time>2026-03-22T10:46:30Z</time></trkpt><trkpt lat="39.84049085583706" lon="15.79536431214766"><ele>154.0</ele><time>2026-03-22T10:46:31Z</time></trkpt><trkpt lat="39.84071895275147" lon="15.795460208406109"><ele>154.0</ele><time>2026-03-22T10:46:32Z</time></trkpt><trkpt lat="39.84094423724659" lon="15.795586226337916"><ele>154.0</ele><time>2026-03-22T10:46:33Z</time></trkpt><trkpt lat="39.84117330562463" lon="15.795711425003573"><ele>154.0</ele><time>2026-03-22T10:46:34Z</time></trkpt><trkpt lat="39.84140528977114" lon="15.795834237386433"><ele>154.0</ele><time>2026-03-22T10:46:35Z</time></trkpt><trkpt lat="39.8416404970955" lon="15.795955145558391"><ele>155.5</ele><time>2026-03-22T10:46:36Z</time></trkpt><trkpt lat="39.84187972755745" lon="15.796073811397555"><ele>157.0</ele><time>2026-03-22T10:46:37Z</time></trkpt><trkpt lat="39.842120273313974" lon="15.796186538058464"><ele>157.0</ele><time>2026-03-22T10:46:38Z</time></trkpt><trkpt lat="39.84236163908952" lon="15.796292277568623"><ele>157.0</ele><time>2026-03-22T10:46:39Z</time></trkpt><trkpt lat="39.842606786714526" lon="15.796389779615696"><ele>157.5</ele><time>2026-03-22T10:46:40Z</time></trkpt><trkpt lat="39.842854652943245" lon="15.796474967293975"><ele>158.0</ele><time>2026-03-22T10:46:41Z</time></trkpt><trkpt lat="39.84310315097946" lon="15.796549193671156"><ele>158.0</ele><time>2026-03-22T10:46:42Z</time></trkpt><trkpt lat="39.84335517776233" lon="15.79661609369146"><ele>158.0</ele><time>2026-03-22T10:46:43Z</time></trkpt><trkpt lat="39.84361105904896" lon="15.796678973627827"><ele>157.0</ele><time>2026-03-22T10:46:44Z</time></trkpt><trkpt lat="39.84386854265252" lon="15.796740193317861"><ele>156.0</ele><time>2026-03-22T10:46:45Z</time></trkpt><trkpt lat="39.844128645142625" lon="15.796803143050429"><ele>150.0</ele><time>2026-03-22T10:46:46Z</time></trkpt><trkpt lat="39.84438879927757" lon="15.796866942688489"><ele>144.0</ele><time>2026-03-22T10:46:47Z</time></trkpt><trkpt lat="39.84465046328946" lon="15.796929451399059"><ele>144.0</ele><time>2026-03-22T10:46:48Z</time></trkpt><trkpt lat="39.84491241786901" lon="15.796992724189463"><ele>144.0</ele><time>2026-03-22T10:46:49Z</time></trkpt><trkpt lat="39.845177308429065" lon="15.797057097370288"><ele>136.0</ele><time>2026-03-22T10:46:50Z</time></trkpt><trkpt lat="39.8454385854994" lon="15.797122421756143"><ele>128.0</ele><time>2026-03-22T10:46:51Z</time></trkpt><trkpt lat="39.845704808455025" lon="15.797186682027064"><ele>122.5</ele><time>2026-03-22T10:46:52Z</time></trkpt><trkpt lat="39.84597227750732" lon="15.797251318455052"><ele>117.0</ele><time>2026-03-22T10:46:53Z</time></trkpt><trkpt lat="39.84624186232277" lon="15.797315731061966"><ele>117.0</ele><time>2026-03-22T10:46:54Z</time></trkpt><trkpt lat="39.84651153266761" lon="15.79737933498299"><ele>117.0</ele><time>2026-03-22T10:46:55Z</time></trkpt><trkpt lat="39.84678439869376" lon="15.797446503843226"><ele>116.5</ele><time>2026-03-22T10:46:56Z</time></trkpt><trkpt lat="39.84706185100998" lon="15.797513701865766"><ele>116.0</ele><time>2026-03-22T10:46:57Z</time></trkpt><trkpt lat="39.847345666006554" lon="15.797582987320586"><ele>109.0</ele><time>2026-03-22T10:46:58Z</time></trkpt><trkpt lat="39.84763420668884" lon="15.79765273974539"><ele>102.0</ele><time>2026-03-22T10:46:59Z</time></trkpt><trkpt lat="39.84792763461509" lon="15.797724081166482"><ele>93.5</ele><time>2026-03-22T10:47:00Z</time></trkpt><trkpt lat="39.84822324118756" lon="15.797798078164888"><ele>85.0</ele><time>2026-03-22T10:47:01Z</time></trkpt><trkpt lat="39.84851947425101" lon="15.797871667123145"><ele>67.5</ele><time>2026-03-22T10:47:02Z</time></trkpt><trkpt lat="39.84881110487422" lon="15.797947642070875"><ele>50.0</ele><time>2026-03-22T10:47:03Z</time></trkpt><trkpt lat="39.84909979083652" lon="15.798019702097394"><ele>62.0</ele><time>2026-03-22T10:47:04Z</time></trkpt><trkpt lat="39.84938461660689" lon="15.79808529606449"><ele>74.0</ele><time>2026-03-22T10:47:05Z</time></trkpt><trkpt lat="39.84966922695145" lon="15.798154128986276"><ele>74.0</ele><time>2026-03-22T10:47:06Z</time></trkpt><trkpt lat="39.8499489247472" lon="15.798219060740108"><ele>74.0</ele><time>2026-03-22T10:47:07Z</time></trkpt><trkpt lat="39.850219026284776" lon="15.798284116330269"><ele>90.5</ele><time>2026-03-22T10:47:08Z</time></trkpt><trkpt lat="39.85048552791139" lon="15.798338980013767"><ele>107.0</ele><time>2026-03-22T10:47:09Z</time></trkpt><trkpt lat="39.85074570503803" lon="15.798365053072038"><ele>118.5</ele><time>2026-03-22T10:47:10Z</time></trkpt><trkpt lat="39.85100615008187" lon="15.798355552338691"><ele>130.0</ele><time>2026-03-22T10:47:11Z</time></trkpt><trkpt lat="39.85127513004652" lon="15.79830468830321"><ele>130.0</ele><time>2026-03-22T10:47:12Z</time></trkpt><trkpt lat="39.851543425445854" lon="15.798211214462748"><ele>130.0</ele><time>2026-03-22T10:47:13Z</time></trkpt><trkpt lat="39.851803404567896" lon="15.79807401935764"><ele>134.0</ele><time>2026-03-22T10:47:14Z</time></trkpt><trkpt lat="39.8520503000108" lon="15.797889386091107"><ele>138.0</ele><time>2026-03-22T10:47:15Z</time></trkpt><trkpt lat="39.852284626470556" lon="15.797664083481166"><ele>138.0</ele><time>2026-03-22T10:47:16Z</time></trkpt><trkpt lat="39.85250825181445" lon="15.797417637493176"><ele>138.0</ele><time>2026-03-22T10:47:17Z</time></trkpt><trkpt lat="39.85272830982909" lon="15.797177856074352"><ele>138.5</ele><time>2026-03-22T10:47:18Z</time></trkpt><trkpt lat="39.85294304694145" lon="15.796949082973894"><ele>139.0</ele><time>2026-03-22T10:47:19Z</time></trkpt><trkpt lat="39.8531524927274" lon="15.796723850989752"><ele>137.5</ele><time>2026-03-22T10:47:20Z</time></trkpt><trkpt lat="39.853360585074384" lon="15.796498139903196"><ele>136.0</ele><time>2026-03-22T10:47:21Z</time></trkpt><trkpt lat="39.85356785755935" lon="15.796274730011778"><ele>136.0</ele><time>2026-03-22T10:47:22Z</time></trkpt><trkpt lat="39.853780444180636" lon="15.796065357843935"><ele>136.0</ele><time>2026-03-22T10:47:23Z</time></trkpt><trkpt lat="39.8540076060981" lon="15.795889480682385"><ele>134.0</ele><time>2026-03-22T10:47:24Z</time></trkpt><trkpt lat="39.85424883505626" lon="15.795756824596081"><ele>132.0</ele><time>2026-03-22T10:47:25Z</time></trkpt><trkpt lat="39.854501344481676" lon="15.795660638721301"><ele>132.0</ele><time>2026-03-22T10:47:26Z</time></trkpt><trkpt lat="39.85476128444017" lon="15.79559862060776"><ele>132.0</ele><time>2026-03-22T10:47:27Z</time></trkpt><trkpt lat="39.85502416449068" lon="15.795572786122056"><ele>129.5</ele><time>2026-03-22T10:47:28Z</time></trkpt><trkpt lat="39.85528626160371" lon="15.795593775492543"><ele>127.0</ele><time>2026-03-22T10:47:29Z</time></trkpt><trkpt lat="39.85554887753054" lon="15.79565474156848"><ele>127.0</ele><time>2026-03-22T10:47:30Z</time></trkpt><trkpt lat="39.855806058466" lon="15.795757602001679"><ele>127.0</ele><time>2026-03-22T10:47:31Z</time></trkpt><trkpt lat="39.85605282323249" lon="15.795896519779019"><ele>111.0</ele><time>2026-03-22T10:47:32Z</time></trkpt><trkpt lat="39.856288539686474" lon="15.796055209741118"><ele>95.0</ele><time>2026-03-22T10:47:33Z</time></trkpt><trkpt lat="39.856511350536685" lon="15.796212878553304"><ele>95.0</ele><time>2026-03-22T10:47:33.999Z</time></trkpt><trkpt lat="39.85672572897497" lon="15.796362259579842"><ele>95.0</ele><time>2026-03-22T10:47:34.999Z</time></trkpt><trkpt lat="39.85693091680845" lon="15.796499728187484"><ele>81.0</ele><time>2026-03-22T10:47:35.999Z</time></trkpt><trkpt lat="39.85713525565276" lon="15.796636292884378"><ele>67.0</ele><time>2026-03-22T10:47:36.999Z</time></trkpt><trkpt lat="39.85734183642227" lon="15.796775248370583"><ele>68.0</ele><time>2026-03-22T10:47:37.999Z</time></trkpt><trkpt lat="39.85755210220508" lon="15.796916847161976"><ele>69.0</ele><time>2026-03-22T10:47:38.999Z</time></trkpt><trkpt lat="39.85776335715045" lon="15.797062408172982"><ele>85.5</ele><time>2026-03-22T10:47:39.999Z</time></trkpt><trkpt lat="39.857975601839925" lon="15.79721007751032"><ele>102.0</ele><time>2026-03-22T10:47:40.999Z</time></trkpt><trkpt lat="39.85818611439787" lon="15.79735369301571"><ele>102.0</ele><time>2026-03-22T10:47:41.999Z</time></trkpt><trkpt lat="39.858396037148175" lon="15.797496765377005"><ele>102.0</ele><time>2026-03-22T10:47:42.999Z</time></trkpt><trkpt lat="39.858602379342" lon="15.797635760061887"><ele>111.0</ele><time>2026-03-22T10:47:43.999Z</time></trkpt><trkpt lat="39.858809150721505" lon="15.797769404979002"><ele>120.0</ele><time>2026-03-22T10:47:44.999Z</time></trkpt><trkpt lat="39.8590171626622" lon="15.797890141541215"><ele>120.0</ele><time>2026-03-22T10:47:45.999Z</time></trkpt><trkpt lat="39.859229626555" lon="15.797984536511525"><ele>120.0</ele><time>2026-03-22T10:47:46.999Z</time></trkpt><trkpt lat="39.85944902495074" lon="15.798059892918427"><ele>113.0</ele><time>2026-03-22T10:47:47.999Z</time></trkpt><trkpt lat="39.85967282468068" lon="15.798111343824935"><ele>106.0</ele><time>2026-03-22T10:47:48.999Z</time></trkpt><trkpt lat="39.85989700894275" lon="15.798136745018995"><ele>111.0</ele><time>2026-03-22T10:47:49.999Z</time></trkpt><trkpt lat="39.86012596943404" lon="15.798136574304733"><ele>116.0</ele><time>2026-03-22T10:47:50.999Z</time></trkpt><trkpt lat="39.860356731313544" lon="15.798107034033082"><ele>116.0</ele><time>2026-03-22T10:47:51.999Z</time></trkpt><trkpt lat="39.86058247048412" lon="15.798051065178122"><ele>116.0</ele><time>2026-03-22T10:47:52.999Z</time></trkpt><trkpt lat="39.860797842569724" lon="15.797976463254818"><ele>118.0</ele><time>2026-03-22T10:47:53.999Z</time></trkpt><trkpt lat="39.86101085455955" lon="15.797882390861252"><ele>120.0</ele><time>2026-03-22T10:47:54.999Z</time></trkpt><trkpt lat="39.86121717066076" lon="15.797770455468575"><ele>122.0</ele><time>2026-03-22T10:47:55.999Z</time></trkpt><trkpt lat="39.861419280515015" lon="15.797653396027425"><ele>122.0</ele><time>2026-03-22T10:47:56.999Z</time></trkpt><trkpt lat="39.86161874420455" lon="15.797539379789253"><ele>122.0</ele><time>2026-03-22T10:47:57.999Z</time></trkpt><trkpt lat="39.86181683083908" lon="15.797427615878627"><ele>122.0</ele><time>2026-03-22T10:47:58.999Z</time></trkpt><trkpt lat="39.86201324219716" lon="15.797319323196714"><ele>123.66666666666666</ele><time>2026-03-22T10:47:59.999Z</time></trkpt><trkpt lat="39.862209326911795" lon="15.79721227737848"><ele>125.33333333333334</ele><time>2026-03-22T10:48:00.999Z</time></trkpt><trkpt lat="39.86240238248839" lon="15.797105912056194"><ele>127.0</ele><time>2026-03-22T10:48:01.999Z</time></trkpt><trkpt lat="39.86259624729317" lon="15.797000750792304"><ele>125.33333333333334</ele><time>2026-03-22T10:48:02.999Z</time></trkpt><trkpt lat="39.86279083397184" lon="15.79690918049769"><ele>123.66666666666666</ele><time>2026-03-22T10:48:03.999Z</time></trkpt><trkpt lat="39.86299024749965" lon="15.796834567407634"><ele>122.0</ele><time>2026-03-22T10:48:04.999Z</time></trkpt><trkpt lat="39.863195251390906" lon="15.796781621829757"><ele>122.0</ele><time>2026-03-22T10:48:05.999Z</time></trkpt><trkpt lat="39.863407360743885" lon="15.796748515380026"><ele>122.0</ele><time>2026-03-22T10:48:06.999Z</time></trkpt><trkpt lat="39.8636260094106" lon="15.796729079169557"><ele>122.0</ele><time>2026-03-22T10:48:07.999Z</time></trkpt><trkpt lat="39.86384607068817" lon="15.796711006520894"><ele>121.66666666666666</ele><time>2026-03-22T10:48:08.999Z</time></trkpt><trkpt lat="39.8640689353472" lon="15.796693648307333"><ele>121.33333333333334</ele><time>2026-03-22T10:48:09.999Z</time></trkpt><trkpt lat="39.86429295619849" lon="15.796677308487306"><ele>121.0</ele><time>2026-03-22T10:48:10.999Z</time></trkpt><trkpt lat="39.864517917971384" lon="15.796660295420086"><ele>120.0</ele><time>2026-03-22T10:48:12Z</time></trkpt><trkpt lat="39.86474094442696" lon="15.796643888630088"><ele>119.0</ele><time>2026-03-22T10:48:13Z</time></trkpt><trkpt lat="39.86496389257863" lon="15.796630036802457"><ele>118.0</ele><time>2026-03-22T10:48:14Z</time></trkpt><trkpt lat="39.86518659305515" lon="15.79661773101182"><ele>116.33333333333334</ele><time>2026-03-22T10:48:15Z</time></trkpt><trkpt lat="39.86540947745564" lon="15.796603324849908"><ele>114.66666666666666</ele><time>2026-03-22T10:48:16Z</time></trkpt><trkpt lat="39.86563389355729" lon="15.796585171316101"><ele>113.0</ele><time>2026-03-22T10:48:17Z</time></trkpt><trkpt lat="39.86585887624799" lon="15.79656633226096"><ele>111.0</ele><time>2026-03-22T10:48:18Z</time></trkpt><trkpt lat="39.86608326238056" lon="15.796550056318148"><ele>109.0</ele><time>2026-03-22T10:48:19Z</time></trkpt><trkpt lat="39.86630847598812" lon="15.796535217461509"><ele>109.0</ele><time>2026-03-22T10:48:20Z</time></trkpt><trkpt lat="39.86654054257421" lon="15.79651911274987"><ele>109.0</ele><time>2026-03-22T10:48:21Z</time></trkpt><trkpt lat="39.866774188210655" lon="15.796502254652117"><ele>105.5</ele><time>2026-03-22T10:48:22Z</time></trkpt><trkpt lat="39.867010342016506" lon="15.796486142524977"><ele>102.0</ele><time>2026-03-22T10:48:23Z</time></trkpt><trkpt lat="39.8672448573306" lon="15.79647153447912"><ele>102.0</ele><time>2026-03-22T10:48:24Z</time></trkpt><trkpt lat="39.8674772125728" lon="15.796454692522685"><ele>102.0</ele><time>2026-03-22T10:48:25Z</time></trkpt><trkpt lat="39.86770960367025" lon="15.796435700870914"><ele>105.0</ele><time>2026-03-22T10:48:26Z</time></trkpt><trkpt lat="39.86793448433611" lon="15.796408413817534"><ele>108.0</ele><time>2026-03-22T10:48:27Z</time></trkpt><trkpt lat="39.868157074771545" lon="15.796368035122534"><ele>108.0</ele><time>2026-03-22T10:48:28Z</time></trkpt><trkpt lat="39.868375116405645" lon="15.796306598557308"><ele>108.0</ele><time>2026-03-22T10:48:29Z</time></trkpt><trkpt lat="39.86858707129974" lon="15.796232041097563"><ele>108.0</ele><time>2026-03-22T10:48:30Z</time></trkpt><trkpt lat="39.868793764506556" lon="15.796152074513715"><ele>103.0</ele><time>2026-03-22T10:48:31Z</time></trkpt><trkpt lat="39.86899474199737" lon="15.796071970135307"><ele>98.0</ele><time>2026-03-22T10:48:32Z</time></trkpt><trkpt lat="39.86919293143253" lon="15.795997439303628"><ele>93.0</ele><time>2026-03-22T10:48:33Z</time></trkpt><trkpt lat="39.869385274449776" lon="15.795925037584427"><ele>88.0</ele><time>2026-03-22T10:48:34Z</time></trkpt><trkpt lat="39.86957463780346" lon="15.795854268287547"><ele>83.0</ele><time>2026-03-22T10:48:35Z</time></trkpt><trkpt lat="39.869764487876544" lon="15.795783683463396"><ele>78.0</ele><time>2026-03-22T10:48:36Z</time></trkpt><trkpt lat="39.86995681411294" lon="15.795713652909143"><ele>85.33333333333334</ele><time>2026-03-22T10:48:37Z</time></trkpt><trkpt lat="39.87014766660663" lon="15.7956431912775"><ele>92.66666666666667</ele><time>2026-03-22T10:48:38Z</time></trkpt><trkpt lat="39.87033570481982" lon="15.795575634937858"><ele>100.0</ele><time>2026-03-22T10:48:39Z</time></trkpt><trkpt lat="39.870522508300766" lon="15.795508421045065"><ele>100.0</ele><time>2026-03-22T10:48:40Z</time></trkpt><trkpt lat="39.870707805544306" lon="15.795438048042183"><ele>100.0</ele><time>2026-03-22T10:48:41Z</time></trkpt><trkpt lat="39.87089604362638" lon="15.795375793766494"><ele>100.0</ele><time>2026-03-22T10:48:42Z</time></trkpt><trkpt lat="39.87107665398421" lon="15.795310217093714"><ele>103.66666666666667</ele><time>2026-03-22T10:48:43Z</time></trkpt><trkpt lat="39.871256790590046" lon="15.795254121371118"><ele>107.33333333333334</ele><time>2026-03-22T10:48:44Z</time></trkpt><trkpt lat="39.87144514683465" lon="15.795207984642586"><ele>111.0</ele><time>2026-03-22T10:48:45Z</time></trkpt><trkpt lat="39.87163392302949" lon="15.795171628968335"><ele>110.0</ele><time>2026-03-22T10:48:46Z</time></trkpt><trkpt lat="39.87181592247104" lon="15.795149399099863"><ele>109.0</ele><time>2026-03-22T10:48:47Z</time></trkpt><trkpt lat="39.872002654765" lon="15.795136868893529"><ele>108.0</ele><time>2026-03-22T10:48:48Z</time></trkpt><trkpt lat="39.87219056523242" lon="15.795129774740223"><ele>108.0</ele><time>2026-03-22T10:48:49Z</time></trkpt><trkpt lat="39.87237913186859" lon="15.795131000198728"><ele>108.0</ele><time>2026-03-22T10:48:50Z</time></trkpt><trkpt lat="39.872569126140476" lon="15.795135629629169"><ele>108.0</ele><time>2026-03-22T10:48:51Z</time></trkpt><trkpt lat="39.87275722904269" lon="15.79514000815382"><ele>109.33333333333334</ele><time>2026-03-22T10:48:52Z</time></trkpt><trkpt lat="39.87294429356152" lon="15.795144949184644"><ele>110.66666666666667</ele><time>2026-03-22T10:48:53Z</time></trkpt><trkpt lat="39.87312841527056" lon="15.795150592118915"><ele>112.0</ele><time>2026-03-22T10:48:54Z</time></trkpt><trkpt lat="39.873313022929445" lon="15.795157944345256"><ele>113.0</ele><time>2026-03-22T10:48:55Z</time></trkpt><trkpt lat="39.873497046649405" lon="15.795163254477165"><ele>114.0</ele><time>2026-03-22T10:48:56Z</time></trkpt><trkpt lat="39.87367798089848" lon="15.795166797422631"><ele>115.0</ele><time>2026-03-22T10:48:57Z</time></trkpt><trkpt lat="39.87386292980789" lon="15.795170123922942"><ele>115.0</ele><time>2026-03-22T10:48:58Z</time></trkpt><trkpt lat="39.87405370687107" lon="15.795170928190561"><ele>115.0</ele><time>2026-03-22T10:48:59Z</time></trkpt><trkpt lat="39.874250642038724" lon="15.795169928590328"><ele>115.0</ele><time>2026-03-22T10:49:00Z</time></trkpt><trkpt lat="39.874451902682225" lon="15.795166371427616"><ele>116.0</ele><time>2026-03-22T10:49:01Z</time></trkpt><trkpt lat="39.87465994016741" lon="15.795166303887711"><ele>117.0</ele><time>2026-03-22T10:49:02Z</time></trkpt><trkpt lat="39.874875222842476" lon="15.795172871473627"><ele>118.0</ele><time>2026-03-22T10:49:03Z</time></trkpt><trkpt lat="39.875097718721605" lon="15.795180517506308"><ele>120.66666666666667</ele><time>2026-03-22T10:49:04Z</time></trkpt><trkpt lat="39.87531641204561" lon="15.795191071671232"><ele>123.33333333333334</ele><time>2026-03-22T10:49:05Z</time></trkpt><trkpt lat="39.8755384247057" lon="15.79520157726552"><ele>126.0</ele><time>2026-03-22T10:49:06Z</time></trkpt><trkpt lat="39.875759095912905" lon="15.795210899659809"><ele>126.33333333333334</ele><time>2026-03-22T10:49:07Z</time></trkpt><trkpt lat="39.87597804532869" lon="15.795221053973107"><ele>126.66666666666667</ele><time>2026-03-22T10:49:08Z</time></trkpt><trkpt lat="39.876196033717314" lon="15.795227429175487"><ele>127.0</ele><time>2026-03-22T10:49:09Z</time></trkpt><trkpt lat="39.87641273699275" lon="15.795231210707945"><ele>127.0</ele><time>2026-03-22T10:49:10Z</time></trkpt><trkpt lat="39.87662389030441" lon="15.795236837724833"><ele>127.0</ele><time>2026-03-22T10:49:11Z</time></trkpt><trkpt lat="39.87683285995827" lon="15.79524335398712"><ele>127.0</ele><time>2026-03-22T10:49:12Z</time></trkpt><trkpt lat="39.87703963447021" lon="15.795248508494621"><ele>127.0</ele><time>2026-03-22T10:49:13Z</time></trkpt><trkpt lat="39.87724240718662" lon="15.795250879853278"><ele>127.0</ele><time>2026-03-22T10:49:14Z</time></trkpt><trkpt lat="39.87744236721173" lon="15.795250522316659"><ele>127.0</ele><time>2026-03-22T10:49:15Z</time></trkpt><trkpt lat="39.87763899718113" lon="15.79524527041015"><ele>127.66666666666667</ele><time>2026-03-22T10:49:16Z</time></trkpt><trkpt lat="39.877830190744625" lon="15.795233639424822"><ele>128.33333333333334</ele><time>2026-03-22T10:49:17Z</time></trkpt><trkpt lat="39.878020927519536" lon="15.795211189690983"><ele>129.0</ele><time>2026-03-22T10:49:18Z</time></trkpt><trkpt lat="39.87820984365383" lon="15.795181753411711"><ele>128.33333333333334</ele><time>2026-03-22T10:49:19Z</time></trkpt><trkpt lat="39.87839992486369" lon="15.795144547788386"><ele>127.66666666666667</ele><time>2026-03-22T10:49:20Z</time></trkpt><trkpt lat="39.87858668533357" lon="15.795101761861737"><ele>127.0</ele><time>2026-03-22T10:49:21Z</time></trkpt><trkpt lat="39.87877134349835" lon="15.795059036562291"><ele>127.0</ele><time>2026-03-22T10:49:22Z</time></trkpt><trkpt lat="39.87895272247134" lon="15.795016376404451"><ele>127.0</ele><time>2026-03-22T10:49:23Z</time></trkpt><trkpt lat="39.8791357643787" lon="15.794973540439903"><ele>127.0</ele><time>2026-03-22T10:49:24Z</time></trkpt><trkpt lat="39.8793251974298" lon="15.794924086090086"><ele>128.33333333333334</ele><time>2026-03-22T10:49:25Z</time></trkpt><trkpt lat="39.87952942204442" lon="15.79486444827272"><ele>129.66666666666666</ele><time>2026-03-22T10:49:26Z</time></trkpt><trkpt lat="39.87974172734044" lon="15.794800913018676"><ele>131.0</ele><time>2026-03-22T10:49:27Z</time></trkpt><trkpt lat="39.879973649153044" lon="15.794764950356443"><ele>134.0</ele><time>2026-03-22T10:49:28Z</time></trkpt><trkpt lat="39.88020994704093" lon="15.794707566415045"><ele>137.0</ele><time>2026-03-22T10:49:29Z</time></trkpt><trkpt lat="39.880457190079525" lon="15.794647524456945"><ele>137.0</ele><time>2026-03-22T10:49:30Z</time></trkpt><trkpt lat="39.880706265610044" lon="15.794587037591036"><ele>137.0</ele><time>2026-03-22T10:49:31Z</time></trkpt><trkpt lat="39.88095317251889" lon="15.794510361978025"><ele>140.0</ele><time>2026-03-22T10:49:32Z</time></trkpt><trkpt lat="39.88121083029324" lon="15.794444830692663"><ele>143.0</ele><time>2026-03-22T10:49:33Z</time></trkpt><trkpt lat="39.88146653488176" lon="15.794382912134003"><ele>140.0</ele><time>2026-03-22T10:49:34Z</time></trkpt><trkpt lat="39.8817184046467" lon="15.79432604294843"><ele>137.0</ele><time>2026-03-22T10:49:35Z</time></trkpt><trkpt lat="39.88196448630912" lon="15.79427243058918"><ele>137.0</ele><time>2026-03-22T10:49:36Z</time></trkpt><trkpt lat="39.88220625797926" lon="15.794220114064364"><ele>137.0</ele><time>2026-03-22T10:49:36.999Z</time></trkpt><trkpt lat="39.882446265796204" lon="15.794169450502464"><ele>139.0</ele><time>2026-03-22T10:49:37.999Z</time></trkpt><trkpt lat="39.88268541839563" lon="15.794122036315626"><ele>141.0</ele><time>2026-03-22T10:49:38.999Z</time></trkpt><trkpt lat="39.8829243772784" lon="15.794079048684923"><ele>141.0</ele><time>2026-03-22T10:49:39.999Z</time></trkpt><trkpt lat="39.88316660144423" lon="15.794040821650816"><ele>141.0</ele><time>2026-03-22T10:49:40.999Z</time></trkpt><trkpt lat="39.883415611694296" lon="15.794006034300661"><ele>134.0</ele><time>2026-03-22T10:49:41.999Z</time></trkpt><trkpt lat="39.88366699341207" lon="15.793975285321816"><ele>127.0</ele><time>2026-03-22T10:49:42.999Z</time></trkpt><trkpt lat="39.88391544576198" lon="15.793945336691717"><ele>127.0</ele><time>2026-03-22T10:49:43.999Z</time></trkpt><trkpt lat="39.8841670385493" lon="15.793915092916384"><ele>127.0</ele><time>2026-03-22T10:49:44.999Z</time></trkpt><trkpt lat="39.88441774924871" lon="15.793885144320292"><ele>127.0</ele><time>2026-03-22T10:49:45.999Z</time></trkpt><trkpt lat="39.884671850016176" lon="15.793856120208021"><ele>127.0</ele><time>2026-03-22T10:49:46.999Z</time></trkpt><trkpt lat="39.88492911377397" lon="15.793829559137453"><ele>139.0</ele><time>2026-03-22T10:49:47.999Z</time></trkpt><trkpt lat="39.885187579766324" lon="15.793801604989532"><ele>151.0</ele><time>2026-03-22T10:49:48.999Z</time></trkpt><trkpt lat="39.88544689162789" lon="15.793772994742195"><ele>151.0</ele><time>2026-03-22T10:49:49.999Z</time></trkpt><trkpt lat="39.88570792938171" lon="15.793745131167515"><ele>151.0</ele><time>2026-03-22T10:49:50.999Z</time></trkpt><trkpt lat="39.88597151562583" lon="15.793717534929165"><ele>157.0</ele><time>2026-03-22T10:49:51.999Z</time></trkpt><trkpt lat="39.88623154865116" lon="15.793690106103728"><ele>163.0</ele><time>2026-03-22T10:49:52.999Z</time></trkpt><trkpt lat="39.88649012173597" lon="15.793658142695547"><ele>163.0</ele><time>2026-03-22T10:49:53.999Z</time></trkpt><trkpt lat="39.88675100779318" lon="15.79361710971914"><ele>163.0</ele><time>2026-03-22T10:49:54.999Z</time></trkpt><trkpt lat="39.88701213523174" lon="15.793562706725574"><ele>156.0</ele><time>2026-03-22T10:49:55.999Z</time></trkpt><trkpt lat="39.88727201304333" lon="15.793486307084196"><ele>149.0</ele><time>2026-03-22T10:49:56.999Z</time></trkpt><trkpt lat="39.88753062286934" lon="15.793387292017247"><ele>152.5</ele><time>2026-03-22T10:49:57.999Z</time></trkpt><trkpt lat="39.8877878732037" lon="15.7932741405239"><ele>156.0</ele><time>2026-03-22T10:49:58.999Z</time></trkpt><trkpt lat="39.888036617089" lon="15.793158896199957"><ele>156.0</ele><time>2026-03-22T10:49:59.999Z</time></trkpt><trkpt lat="39.888267866589764" lon="15.793051061247649"><ele>156.0</ele><time>2026-03-22T10:50:00.999Z</time></trkpt><trkpt lat="39.88848220726287" lon="15.792950888463285"><ele>162.0</ele><time>2026-03-22T10:50:01.999Z</time></trkpt><trkpt lat="39.888695451532705" lon="15.792850876473507"><ele>168.0</ele><time>2026-03-22T10:50:02.999Z</time></trkpt><trkpt lat="39.88891402440937" lon="15.792751965221358"><ele>161.0</ele><time>2026-03-22T10:50:03.999Z</time></trkpt><trkpt lat="39.8891374024426" lon="15.79264688657192"><ele>154.0</ele><time>2026-03-22T10:50:04.999Z</time></trkpt><trkpt lat="39.889362562519636" lon="15.792539870245529"><ele>154.0</ele><time>2026-03-22T10:50:05.999Z</time></trkpt><trkpt lat="39.8895910534707" lon="15.792433675267409"><ele>154.0</ele><time>2026-03-22T10:50:06.999Z</time></trkpt><trkpt lat="39.889822286932215" lon="15.792327020534364"><ele>154.0</ele><time>2026-03-22T10:50:07.999Z</time></trkpt><trkpt lat="39.89005085586304" lon="15.792205118215643"><ele>154.0</ele><time>2026-03-22T10:50:08.999Z</time></trkpt><trkpt lat="39.89026924936724" lon="15.792054885875967"><ele>151.0</ele><time>2026-03-22T10:50:09.999Z</time></trkpt><trkpt lat="39.890477239913125" lon="15.791886920511176"><ele>148.0</ele><time>2026-03-22T10:50:10.999Z</time></trkpt><trkpt lat="39.89067677962651" lon="15.791701350765319"><ele>148.0</ele><time>2026-03-22T10:50:11.999Z</time></trkpt><trkpt lat="39.89086996706573" lon="15.791502250615821"><ele>148.0</ele><time>2026-03-22T10:50:12.999Z</time></trkpt><trkpt lat="39.89105688840956" lon="15.7912927043131"><ele>148.5</ele><time>2026-03-22T10:50:13.999Z</time></trkpt><trkpt lat="39.891241815327476" lon="15.791077596191004"><ele>149.0</ele><time>2026-03-22T10:50:14.999Z</time></trkpt><trkpt lat="39.89142460051562" lon="15.790860189431017"><ele>147.0</ele><time>2026-03-22T10:50:15.999Z</time></trkpt><trkpt lat="39.8916104772594" lon="15.790641309388441"><ele>145.0</ele><time>2026-03-22T10:50:16.999Z</time></trkpt><trkpt lat="39.89179758492918" lon="15.790425700956494"><ele>149.5</ele><time>2026-03-22T10:50:18Z</time></trkpt><trkpt lat="39.89198486022183" lon="15.790210422538976"><ele>154.0</ele><time>2026-03-22T10:50:19Z</time></trkpt><trkpt lat="39.892171177959206" lon="15.789994643266827"><ele>154.0</ele><time>2026-03-22T10:50:20Z</time></trkpt><trkpt lat="39.89235903212213" lon="15.789779187214192"><ele>154.0</ele><time>2026-03-22T10:50:21Z</time></trkpt><trkpt lat="39.89254451583627" lon="15.789562604189527"><ele>158.0</ele><time>2026-03-22T10:50:22Z</time></trkpt><trkpt lat="39.89272999078343" lon="15.789345580946165"><ele>162.0</ele><time>2026-03-22T10:50:23Z</time></trkpt><trkpt lat="39.89291722202179" lon="15.789127725433755"><ele>162.0</ele><time>2026-03-22T10:50:24Z</time></trkpt><trkpt lat="39.893105434362255" lon="15.78891330659596"><ele>162.0</ele><time>2026-03-22T10:50:25Z</time></trkpt><trkpt lat="39.89329265437643" lon="15.788698518707294"><ele>165.0</ele><time>2026-03-22T10:50:26Z</time></trkpt><trkpt lat="39.893480483913024" lon="15.788484370284086"><ele>168.0</ele><time>2026-03-22T10:50:27Z</time></trkpt><trkpt lat="39.8936690596493" lon="15.788270491823363"><ele>168.0</ele><time>2026-03-22T10:50:28Z</time></trkpt><trkpt lat="39.89386296443675" lon="15.788064888165234"><ele>168.0</ele><time>2026-03-22T10:50:29Z</time></trkpt><trkpt lat="39.89406651691157" lon="15.78787967289935"><ele>162.0</ele><time>2026-03-22T10:50:30Z</time></trkpt><trkpt lat="39.894280093147565" lon="15.787723501895229"><ele>156.0</ele><time>2026-03-22T10:50:31Z</time></trkpt><trkpt lat="39.89450440061722" lon="15.787599333838326"><ele>156.0</ele><time>2026-03-22T10:50:32Z</time></trkpt><trkpt lat="39.89473969959142" lon="15.787510101010207"><ele>156.0</ele><time>2026-03-22T10:50:33Z</time></trkpt><trkpt lat="39.89498007766029" lon="15.787442290015008"><ele>159.5</ele><time>2026-03-22T10:50:34Z</time></trkpt><trkpt lat="39.89522539081794" lon="15.787399422034628"><ele>163.0</ele><time>2026-03-22T10:50:35Z</time></trkpt><trkpt lat="39.89547324522032" lon="15.787382734543845"><ele>163.0</ele><time>2026-03-22T10:50:36Z</time></trkpt><trkpt lat="39.8957217657012" lon="15.787400391455842"><ele>163.0</ele><time>2026-03-22T10:50:37Z</time></trkpt><trkpt lat="39.89596718705978" lon="15.787449483289125"><ele>161.0</ele><time>2026-03-22T10:50:38Z</time></trkpt><trkpt lat="39.89620716506732" lon="15.787527695422565"><ele>159.0</ele><time>2026-03-22T10:50:39Z</time></trkpt><trkpt lat="39.896440326663324" lon="15.787632970629236"><ele>177.0</ele><time>2026-03-22T10:50:40Z</time></trkpt><trkpt lat="39.89666428799375" lon="15.78776137207492"><ele>195.0</ele><time>2026-03-22T10:50:41Z</time></trkpt><trkpt lat="39.89688884718988" lon="15.787894150988043"><ele>195.0</ele><time>2026-03-22T10:50:42Z</time></trkpt><trkpt lat="39.89711715880412" lon="15.788026169776947"><ele>195.0</ele><time>2026-03-22T10:50:43Z</time></trkpt><trkpt lat="39.89734640412591" lon="15.788156758034797"><ele>184.0</ele><time>2026-03-22T10:50:44Z</time></trkpt><trkpt lat="39.89759038466872" lon="15.788293534787313"><ele>173.0</ele><time>2026-03-22T10:50:45.065Z</time></trkpt><trkpt lat="39.89782081827656" lon="15.788421563517302"><ele>196.5</ele><time>2026-03-22T10:50:46.068Z</time></trkpt><trkpt lat="39.898048693588024" lon="15.788550014497437"><ele>220.0</ele><time>2026-03-22T10:50:47.063Z</time></trkpt><trkpt lat="39.89827656172574" lon="15.788675902719225"><ele>202.0</ele><time>2026-03-22T10:50:48.061Z</time></trkpt><trkpt lat="39.8985047954831" lon="15.78879854960816"><ele>184.0</ele><time>2026-03-22T10:50:49.062Z</time></trkpt><trkpt lat="39.902408298549204" lon="15.791036418277349"><ele>162.5</ele><time>2026-03-22T10:51:06Z</time></trkpt><trkpt lat="39.902611101146064" lon="15.791140462328913"><ele>141.0</ele><time>2026-03-22T10:51:07Z</time></trkpt><trkpt lat="39.902870852739404" lon="15.79117170760437"><ele>141.0</ele><time>2026-03-22T10:51:08Z</time></trkpt><trkpt lat="39.903109411657425" lon="15.791167780463102"><ele>141.0</ele><time>2026-03-22T10:51:09Z</time></trkpt><trkpt lat="39.90335872937858" lon="15.791116948393057"><ele>138.0</ele><time>2026-03-22T10:51:10Z</time></trkpt><trkpt lat="39.903606660938095" lon="15.791056078019459"><ele>135.0</ele><time>2026-03-22T10:51:11Z</time></trkpt><trkpt lat="39.903847771092344" lon="15.79095835345164"><ele>136.0</ele><time>2026-03-22T10:51:12Z</time></trkpt><trkpt lat="39.9040827273419" lon="15.79085074657335"><ele>137.0</ele><time>2026-03-22T10:51:13Z</time></trkpt><trkpt lat="39.904317258789945" lon="15.790735094765772"><ele>137.0</ele><time>2026-03-22T10:51:14Z</time></trkpt><trkpt lat="39.90455529732777" lon="15.79062626272231"><ele>137.0</ele><time>2026-03-22T10:51:15Z</time></trkpt><trkpt lat="39.90479783148805" lon="15.790519150619888"><ele>137.0</ele><time>2026-03-22T10:51:16Z</time></trkpt><trkpt lat="39.905039783161214" lon="15.790411767442887"><ele>137.0</ele><time>2026-03-22T10:51:17Z</time></trkpt><trkpt lat="39.905278110118665" lon="15.790302449955773"><ele>140.5</ele><time>2026-03-22T10:51:18Z</time></trkpt><trkpt lat="39.90551816600543" lon="15.790192602101119"><ele>144.0</ele><time>2026-03-22T10:51:19Z</time></trkpt><trkpt lat="39.9057573698903" lon="15.790086094104726"><ele>137.5</ele><time>2026-03-22T10:51:20Z</time></trkpt><trkpt lat="39.90599387507816" lon="15.789976670718856"><ele>131.0</ele><time>2026-03-22T10:51:21Z</time></trkpt><trkpt lat="39.90623248331551" lon="15.789865652974617"><ele>131.0</ele><time>2026-03-22T10:51:22Z</time></trkpt><trkpt lat="39.90647119906901" lon="15.789754387351506"><ele>131.0</ele><time>2026-03-22T10:51:23Z</time></trkpt><trkpt lat="39.906708700454516" lon="15.789644143929868"><ele>128.5</ele><time>2026-03-22T10:51:24Z</time></trkpt><trkpt lat="39.90694761399586" lon="15.789536322081755"><ele>126.0</ele><time>2026-03-22T10:51:25Z</time></trkpt><trkpt lat="39.90718449051499" lon="15.789430276734162"><ele>118.5</ele><time>2026-03-22T10:51:26Z</time></trkpt><trkpt lat="39.907421341549956" lon="15.789322598943478"><ele>111.0</ele><time>2026-03-22T10:51:27Z</time></trkpt><trkpt lat="39.907658390777705" lon="15.789213536322247"><ele>107.0</ele><time>2026-03-22T10:51:28Z</time></trkpt><trkpt lat="39.907896046905144" lon="15.789105389984973"><ele>103.0</ele><time>2026-03-22T10:51:29Z</time></trkpt><trkpt lat="39.908132746234514" lon="15.788996891500483"><ele>103.0</ele><time>2026-03-22T10:51:30Z</time></trkpt><trkpt lat="39.908369708783134" lon="15.78888997560529"><ele>103.0</ele><time>2026-03-22T10:51:31Z</time></trkpt><trkpt lat="39.9086084445247" lon="15.788783146836312"><ele>106.0</ele><time>2026-03-22T10:51:32Z</time></trkpt><trkpt lat="39.90884477526126" lon="15.788676742844792"><ele>109.0</ele><time>2026-03-22T10:51:33Z</time></trkpt><trkpt lat="39.90907988845251" lon="15.788569232647669"><ele>113.0</ele><time>2026-03-22T10:51:34Z</time></trkpt><trkpt lat="39.90931371348086" lon="15.788459596534812"><ele>117.0</ele><time>2026-03-22T10:51:35Z</time></trkpt><trkpt lat="39.90954475913897" lon="15.788338187026707"><ele>117.0</ele><time>2026-03-22T10:51:36Z</time></trkpt><trkpt lat="39.90976536050686" lon="15.788190750102343"><ele>117.0</ele><time>2026-03-22T10:51:37Z</time></trkpt><trkpt lat="39.909972031954524" lon="15.788013822636268"><ele>115.5</ele><time>2026-03-22T10:51:38Z</time></trkpt><trkpt lat="39.910165054173476" lon="15.787814081397919"><ele>114.0</ele><time>2026-03-22T10:51:39Z</time></trkpt><trkpt lat="39.910346986334254" lon="15.787600924281058"><ele>108.5</ele><time>2026-03-22T10:51:39.999Z</time></trkpt><trkpt lat="39.91052809163048" lon="15.787381870969627"><ele>103.0</ele><time>2026-03-22T10:51:40.999Z</time></trkpt><trkpt lat="39.91071390088535" lon="15.787165658537637"><ele>103.0</ele><time>2026-03-22T10:51:41.999Z</time></trkpt><trkpt lat="39.91090107438474" lon="15.786951987148278"><ele>103.0</ele><time>2026-03-22T10:51:42.999Z</time></trkpt><trkpt lat="39.91108953035418" lon="15.786737205151393"><ele>106.5</ele><time>2026-03-22T10:51:43.999Z</time></trkpt><trkpt lat="39.91127966321453" lon="15.786521382253776"><ele>110.0</ele><time>2026-03-22T10:51:44.999Z</time></trkpt><trkpt lat="39.91147073527628" lon="15.78630581912734"><ele>110.0</ele><time>2026-03-22T10:51:45.999Z</time></trkpt><trkpt lat="39.91166156495811" lon="15.786089043984903"><ele>110.0</ele><time>2026-03-22T10:51:46.999Z</time></trkpt><trkpt lat="39.91185324385399" lon="15.785873568612498"><ele>108.5</ele><time>2026-03-22T10:51:47.999Z</time></trkpt><trkpt lat="39.912045180256506" lon="15.785658405851366"><ele>107.0</ele><time>2026-03-22T10:51:48.999Z</time></trkpt><trkpt lat="39.91223493141828" lon="15.785443252613724"><ele>107.0</ele><time>2026-03-22T10:51:49.999Z</time></trkpt><trkpt lat="39.912419087480075" lon="15.785219679527357"><ele>107.0</ele><time>2026-03-22T10:51:50.999Z</time></trkpt><trkpt lat="39.91259700112166" lon="15.784988439233786"><ele>103.5</ele><time>2026-03-22T10:51:51.999Z</time></trkpt><trkpt lat="39.912765747638005" lon="15.784747449713851"><ele>100.0</ele><time>2026-03-22T10:51:52.999Z</time></trkpt><trkpt lat="39.91292458157328" lon="15.784497095508979"><ele>94.0</ele><time>2026-03-22T10:51:53.999Z</time></trkpt><trkpt lat="39.91306895252752" lon="15.78423544729985"><ele>88.0</ele><time>2026-03-22T10:51:54.999Z</time></trkpt><trkpt lat="39.913203223381394" lon="15.78396650226877"><ele>88.0</ele><time>2026-03-22T10:51:55.999Z</time></trkpt><trkpt lat="39.91332625445691" lon="15.78369183073785"><ele>88.0</ele><time>2026-03-22T10:51:56.999Z</time></trkpt><trkpt lat="39.91343463574007" lon="15.783431918450168"><ele>84.66666666666666</ele><time>2026-03-22T10:51:57.999Z</time></trkpt><trkpt lat="39.91354073735361" lon="15.783179026707026"><ele>81.33333333333333</ele><time>2026-03-22T10:51:58.999Z</time></trkpt><trkpt lat="39.91364618777541" lon="15.782933784591219"><ele>78.0</ele><time>2026-03-22T10:51:59.999Z</time></trkpt><trkpt lat="39.91374833034332" lon="15.782696089532372"><ele>79.0</ele><time>2026-03-22T10:52:00.999Z</time></trkpt><trkpt lat="39.91384662306975" lon="15.782463062488807"><ele>80.0</ele><time>2026-03-22T10:52:01.999Z</time></trkpt><trkpt lat="39.91394245441868" lon="15.782237655507684"><ele>81.0</ele><time>2026-03-22T10:52:02.999Z</time></trkpt><trkpt lat="39.91403571119179" lon="15.782018003686922"><ele>80.66666666666667</ele><time>2026-03-22T10:52:03.999Z</time></trkpt><trkpt lat="39.91412636569082" lon="15.781800085509968"><ele>80.33333333333334</ele><time>2026-03-22T10:52:04.999Z</time></trkpt><trkpt lat="39.91421616860136" lon="15.781587959807847"><ele>80.0</ele><time>2026-03-22T10:52:05.999Z</time></trkpt><trkpt lat="39.9143070659652" lon="15.781382819088787"><ele>82.0</ele><time>2026-03-22T10:52:06.999Z</time></trkpt><trkpt lat="39.91440316323758" lon="15.781172478478819"><ele>84.0</ele><time>2026-03-22T10:52:07.999Z</time></trkpt><trkpt lat="39.914503646108884" lon="15.780963263606232"><ele>86.0</ele><time>2026-03-22T10:52:08.999Z</time></trkpt><trkpt lat="39.91461164922997" lon="15.78075792650139"><ele>86.0</ele><time>2026-03-22T10:52:09.999Z</time></trkpt><trkpt lat="39.91472668592293" lon="15.780559102809516"><ele>86.0</ele><time>2026-03-22T10:52:10.999Z</time></trkpt><trkpt lat="39.91484833637835" lon="15.780364796217743"><ele>86.0</ele><time>2026-03-22T10:52:11.999Z</time></trkpt><trkpt lat="39.914975657817635" lon="15.780172807662344"><ele>86.66666666666667</ele><time>2026-03-22T10:52:12.999Z</time></trkpt><trkpt lat="39.91511275975391" lon="15.779967352429132"><ele>87.33333333333333</ele><time>2026-03-22T10:52:13.999Z</time></trkpt><trkpt lat="39.91526354256228" lon="15.779740136513682"><ele>88.0</ele><time>2026-03-22T10:52:14.999Z</time></trkpt><trkpt lat="39.91542077403365" lon="15.779500424929449"><ele>83.0</ele><time>2026-03-22T10:52:15.999Z</time></trkpt><trkpt lat="39.91558363057016" lon="15.779256079809253"><ele>78.0</ele><time>2026-03-22T10:52:16.999Z</time></trkpt><trkpt lat="39.915745852486126" lon="15.779011654552008"><ele>89.5</ele><time>2026-03-22T10:52:17.999Z</time></trkpt><trkpt lat="39.9159083874051" lon="15.778765398162976"><ele>101.0</ele><time>2026-03-22T10:52:18.999Z</time></trkpt><trkpt lat="39.91607115916681" lon="15.778520398049121"><ele>97.5</ele><time>2026-03-22T10:52:19.999Z</time></trkpt><trkpt lat="39.91623213076596" lon="15.778277639778667"><ele>94.0</ele><time>2026-03-22T10:52:20.999Z</time></trkpt><trkpt lat="39.916391476716335" lon="15.778036330447732"><ele>94.0</ele><time>2026-03-22T10:52:21.999Z</time></trkpt><trkpt lat="39.916548940007075" lon="15.777796959773285"><ele>94.0</ele><time>2026-03-22T10:52:22.999Z</time></trkpt><trkpt lat="39.91670543738498" lon="15.777560426580552"><ele>85.5</ele><time>2026-03-22T10:52:24Z</time></trkpt><trkpt lat="39.916861719952756" lon="15.777326355522924"><ele>77.0</ele><time>2026-03-22T10:52:25Z</time></trkpt><trkpt lat="39.91701898370372" lon="15.777091917278334"><ele>77.0</ele><time>2026-03-22T10:52:26Z</time></trkpt><trkpt lat="39.91717837749966" lon="15.776855522131932"><ele>77.0</ele><time>2026-03-22T10:52:27Z</time></trkpt><trkpt lat="39.91733740637705" lon="15.776618600994883"><ele>71.0</ele><time>2026-03-22T10:52:28Z</time></trkpt><trkpt lat="39.917493913075276" lon="15.776385034421295"><ele>65.0</ele><time>2026-03-22T10:52:29Z</time></trkpt><trkpt lat="39.917677382471815" lon="15.776106043226319"><ele>60.5</ele><time>2026-03-22T10:52:30Z</time></trkpt><trkpt lat="39.917844381771715" lon="15.775874338799508"><ele>56.0</ele><time>2026-03-22T10:52:31Z</time></trkpt><trkpt lat="39.918022266934294" lon="15.775648043479801"><ele>56.0</ele><time>2026-03-22T10:52:32Z</time></trkpt><trkpt lat="39.91821042119798" lon="15.775427403223514"><ele>56.0</ele><time>2026-03-22T10:52:33Z</time></trkpt><trkpt lat="39.918396798395264" lon="15.775212060882067"><ele>54.5</ele><time>2026-03-22T10:52:34Z</time></trkpt><trkpt lat="39.91859262300024" lon="15.77500232033434"><ele>53.0</ele><time>2026-03-22T10:52:35Z</time></trkpt><trkpt lat="39.91878388027317" lon="15.774808097007684"><ele>53.0</ele><time>2026-03-22T10:52:36Z</time></trkpt><trkpt lat="39.91896752657101" lon="15.774615213072654"><ele>53.0</ele><time>2026-03-22T10:52:37Z</time></trkpt><trkpt lat="39.91915156654188" lon="15.774424050593085"><ele>62.5</ele><time>2026-03-22T10:52:38Z</time></trkpt><trkpt lat="39.91933786497282" lon="15.77423479395842"><ele>72.0</ele><time>2026-03-22T10:52:39Z</time></trkpt><trkpt lat="39.9195216431929" lon="15.774047811031272"><ele>72.0</ele><time>2026-03-22T10:52:40Z</time></trkpt><trkpt lat="39.91969707884164" lon="15.773853798319596"><ele>72.0</ele><time>2026-03-22T10:52:41Z</time></trkpt><trkpt lat="39.91987263324132" lon="15.773663870414167"><ele>70.0</ele><time>2026-03-22T10:52:42Z</time></trkpt><trkpt lat="39.92004653992757" lon="15.773474954073285"><ele>68.0</ele><time>2026-03-22T10:52:43Z</time></trkpt><trkpt lat="39.92022205420166" lon="15.773285500042922"><ele>64.0</ele><time>2026-03-22T10:52:44Z</time></trkpt><trkpt lat="39.92039728374222" lon="15.773096779879879"><ele>60.0</ele><time>2026-03-22T10:52:45Z</time></trkpt><trkpt lat="39.92057983042351" lon="15.772901632003839"><ele>60.0</ele><time>2026-03-22T10:52:46Z</time></trkpt><trkpt lat="39.92075853016997" lon="15.772711011595819"><ele>60.0</ele><time>2026-03-22T10:52:47Z</time></trkpt><trkpt lat="39.92093662175552" lon="15.772520450703585"><ele>45.0</ele><time>2026-03-22T10:52:48Z</time></trkpt><trkpt lat="39.921083095449184" lon="15.772465586305724"><ele>30.0</ele><time>2026-03-22T10:52:50Z</time></trkpt><trkpt lat="39.92122305738611" lon="15.772079123979593"><ele>30.0</ele><time>2026-03-22T10:52:51Z</time></trkpt><trkpt lat="39.92130844246031" lon="15.772156054327166"><ele>30.0</ele><time>2026-03-22T10:52:52Z</time></trkpt><trkpt lat="39.92146262698632" lon="15.772020227122303"><ele>30.0</ele><time>2026-03-22T10:52:53Z</time></trkpt><trkpt lat="39.92161788365907" lon="15.77186036813812"><ele>26.666666666666668</ele><time>2026-03-22T10:52:54Z</time></trkpt><trkpt lat="39.921781453877315" lon="15.771689505507853"><ele>23.333333333333336</ele><time>2026-03-22T10:52:55Z</time></trkpt><trkpt lat="39.92195472508483" lon="15.771508323556423"><ele>20.0</ele><time>2026-03-22T10:52:56Z</time></trkpt><trkpt lat="39.922137471760124" lon="15.77132188839212"><ele>20.0</ele><time>2026-03-22T10:52:57Z</time></trkpt><trkpt lat="39.92232614783597" lon="15.771130471414438"><ele>20.0</ele><time>2026-03-22T10:52:58Z</time></trkpt><trkpt lat="39.922514331300775" lon="15.770934519203765"><ele>19.0</ele><time>2026-03-22T10:52:59Z</time></trkpt><trkpt lat="39.92270335441457" lon="15.770734812301841"><ele>18.0</ele><time>2026-03-22T10:53:00Z</time></trkpt><trkpt lat="39.92289155802603" lon="15.770534592331602"><ele>18.0</ele><time>2026-03-22T10:53:01Z</time></trkpt><trkpt lat="39.92308105666015" lon="15.770338435050505"><ele>18.0</ele><time>2026-03-22T10:53:02Z</time></trkpt><trkpt lat="39.92327008583378" lon="15.770143734138522"><ele>18.0</ele><time>2026-03-22T10:53:03Z</time></trkpt><trkpt lat="39.923459676870166" lon="15.769947222986296"><ele>18.0</ele><time>2026-03-22T10:53:04Z</time></trkpt><trkpt lat="39.92364741918883" lon="15.769752305467664"><ele>18.0</ele><time>2026-03-22T10:53:05Z</time></trkpt><trkpt lat="39.92383654433137" lon="15.769556720833558"><ele>18.0</ele><time>2026-03-22T10:53:06Z</time></trkpt><trkpt lat="39.92402859037471" lon="15.769363618188828"><ele>17.0</ele><time>2026-03-22T10:53:07Z</time></trkpt><trkpt lat="39.924218666081615" lon="15.769187252194797"><ele>16.0</ele><time>2026-03-22T10:53:08Z</time></trkpt><trkpt lat="39.92443749773611" lon="15.769010376994212"><ele>16.0</ele><time>2026-03-22T10:53:09Z</time></trkpt><trkpt lat="39.92465093234358" lon="15.7688626698745"><ele>16.0</ele><time>2026-03-22T10:53:10Z</time></trkpt><trkpt lat="39.92486705275888" lon="15.768734369504415"><ele>16.0</ele><time>2026-03-22T10:53:11Z</time></trkpt><trkpt lat="39.9250873651915" lon="15.768617974574076"><ele>16.0</ele><time>2026-03-22T10:53:12Z</time></trkpt><trkpt lat="39.925317528423996" lon="15.768513179796887"><ele>16.0</ele><time>2026-03-22T10:53:13Z</time></trkpt><trkpt lat="39.925553139027684" lon="15.768423790924674"><ele>16.0</ele><time>2026-03-22T10:53:14Z</time></trkpt><trkpt lat="39.925794879483206" lon="15.768350705923547"><ele>16.0</ele><time>2026-03-22T10:53:15Z</time></trkpt><trkpt lat="39.926042016132854" lon="15.768295650763752"><ele>16.0</ele><time>2026-03-22T10:53:16Z</time></trkpt><trkpt lat="39.92629228974108" lon="15.76825809318619"><ele>16.0</ele><time>2026-03-22T10:53:17Z</time></trkpt><trkpt lat="39.926547949935255" lon="15.768239612180151"><ele>16.0</ele><time>2026-03-22T10:53:18Z</time></trkpt><trkpt lat="39.92680700540368" lon="15.768240023459382"><ele>15.0</ele><time>2026-03-22T10:53:19Z</time></trkpt><trkpt lat="39.92706834863934" lon="15.768254530094627"><ele>14.0</ele><time>2026-03-22T10:53:20Z</time></trkpt><trkpt lat="39.92732309955902" lon="15.76827648598665"><ele>14.0</ele><time>2026-03-22T10:53:21Z</time></trkpt><trkpt lat="39.92757327932407" lon="15.768296845069257"><ele>14.0</ele><time>2026-03-22T10:53:22Z</time></trkpt><trkpt lat="39.92781913761246" lon="15.768320752553496"><ele>14.0</ele><time>2026-03-22T10:53:23Z</time></trkpt><trkpt lat="39.92806250847876" lon="15.7683465820936"><ele>14.0</ele><time>2026-03-22T10:53:24Z</time></trkpt><trkpt lat="39.92830808320013" lon="15.768368981297753"><ele>13.5</ele><time>2026-03-22T10:53:25Z</time></trkpt><trkpt lat="39.92855754820803" lon="15.768387398042927"><ele>13.0</ele><time>2026-03-22T10:53:26Z</time></trkpt><trkpt lat="39.928808787803916" lon="15.768409107072905"><ele>13.0</ele><time>2026-03-22T10:53:27Z</time></trkpt><trkpt lat="39.929060201883495" lon="15.768434027723119"><ele>13.0</ele><time>2026-03-22T10:53:28Z</time></trkpt><trkpt lat="39.929317014512634" lon="15.768459190083817"><ele>14.0</ele><time>2026-03-22T10:53:29Z</time></trkpt><trkpt lat="39.92957936827631" lon="15.768482738035756"><ele>15.0</ele><time>2026-03-22T10:53:30Z</time></trkpt><trkpt lat="39.929844245979815" lon="15.768505909970381"><ele>18.0</ele><time>2026-03-22T10:53:31Z</time></trkpt><trkpt lat="39.930103548133296" lon="15.768528570426609"><ele>21.0</ele><time>2026-03-22T10:53:32Z</time></trkpt><trkpt lat="39.93035736467506" lon="15.768555864468281"><ele>21.0</ele><time>2026-03-22T10:53:33Z</time></trkpt><trkpt lat="39.93060734413477" lon="15.768592937880515"><ele>21.0</ele><time>2026-03-22T10:53:34Z</time></trkpt><trkpt lat="39.930854305259196" lon="15.768641215886074"><ele>19.0</ele><time>2026-03-22T10:53:35Z</time></trkpt><trkpt lat="39.93109243126409" lon="15.768695879574775"><ele>17.0</ele><time>2026-03-22T10:53:36Z</time></trkpt><trkpt lat="39.93132238463586" lon="15.76875401410588"><ele>17.0</ele><time>2026-03-22T10:53:37Z</time></trkpt><trkpt lat="39.93154744244651" lon="15.768810644912321"><ele>17.0</ele><time>2026-03-22T10:53:38Z</time></trkpt><trkpt lat="39.93177148519572" lon="15.768868849678473"><ele>16.0</ele><time>2026-03-22T10:53:39Z</time></trkpt><trkpt lat="39.9319963393394" lon="15.768925509329126"><ele>15.0</ele><time>2026-03-22T10:53:40Z</time></trkpt><trkpt lat="39.93222695255914" lon="15.768984576265694"><ele>15.0</ele><time>2026-03-22T10:53:41Z</time></trkpt><trkpt lat="39.932460507060775" lon="15.769046316712634"><ele>15.0</ele><time>2026-03-22T10:53:42Z</time></trkpt><trkpt lat="39.93269761131236" lon="15.769110161745996"><ele>15.5</ele><time>2026-03-22T10:53:43Z</time></trkpt><trkpt lat="39.932937275977906" lon="15.769174931616792"><ele>16.0</ele><time>2026-03-22T10:53:44Z</time></trkpt><trkpt lat="39.933175449486264" lon="15.769238164266667"><ele>16.5</ele><time>2026-03-22T10:53:45Z</time></trkpt><trkpt lat="39.933414393857014" lon="15.769303910264355"><ele>17.0</ele><time>2026-03-22T10:53:46Z</time></trkpt><trkpt lat="39.93365515820468" lon="15.769371012970026"><ele>18.5</ele><time>2026-03-22T10:53:47Z</time></trkpt><trkpt lat="39.93389788680598" lon="15.76943919274907"><ele>20.0</ele><time>2026-03-22T10:53:48Z</time></trkpt><trkpt lat="39.934138087265694" lon="15.769504401972194"><ele>20.0</ele><time>2026-03-22T10:53:48.999Z</time></trkpt><trkpt lat="39.93437076296188" lon="15.769564493067724"><ele>20.0</ele><time>2026-03-22T10:53:49.999Z</time></trkpt><trkpt lat="39.934606050428286" lon="15.76961364580831"><ele>20.0</ele><time>2026-03-22T10:53:50.999Z</time></trkpt><trkpt lat="39.93484568969367" lon="15.769640240629489"><ele>20.0</ele><time>2026-03-22T10:53:51.999Z</time></trkpt><trkpt lat="39.935084745926304" lon="15.769638560991151"><ele>19.0</ele><time>2026-03-22T10:53:52.999Z</time></trkpt><trkpt lat="39.93532663870937" lon="15.769604823343354"><ele>18.0</ele><time>2026-03-22T10:53:53.999Z</time></trkpt><trkpt lat="39.93556408048259" lon="15.76953109832003"><ele>18.0</ele><time>2026-03-22T10:53:54.999Z</time></trkpt><trkpt lat="39.93579051219475" lon="15.769418330436226"><ele>18.0</ele><time>2026-03-22T10:53:55.999Z</time></trkpt><trkpt lat="39.936004992416926" lon="15.769274961547518"><ele>18.0</ele><time>2026-03-22T10:53:56.999Z</time></trkpt><trkpt lat="39.93621073218914" lon="15.769103391999813"><ele>18.0</ele><time>2026-03-22T10:53:57.999Z</time></trkpt><trkpt lat="39.93640461249033" lon="15.768909670039523"><ele>18.0</ele><time>2026-03-22T10:53:58.999Z</time></trkpt><trkpt lat="39.9365858480929" lon="15.768695908370931"><ele>18.0</ele><time>2026-03-22T10:53:59.999Z</time></trkpt><trkpt lat="39.93676521368042" lon="15.76847963266034"><ele>18.0</ele><time>2026-03-22T10:54:00.999Z</time></trkpt><trkpt lat="39.93695234332052" lon="15.76827083514714"><ele>18.0</ele><time>2026-03-22T10:54:01.999Z</time></trkpt><trkpt lat="39.93714284014117" lon="15.768065489041144"><ele>18.0</ele><time>2026-03-22T10:54:02.999Z</time></trkpt><trkpt lat="39.937332970414175" lon="15.767855766931167"><ele>18.0</ele><time>2026-03-22T10:54:03.999Z</time></trkpt><trkpt lat="39.937519340289285" lon="15.767648936108506"><ele>19.5</ele><time>2026-03-22T10:54:04.999Z</time></trkpt><trkpt lat="39.93770372135085" lon="15.767444187722482"><ele>21.0</ele><time>2026-03-22T10:54:05.999Z</time></trkpt><trkpt lat="39.937886702472596" lon="15.76724019203426"><ele>21.0</ele><time>2026-03-22T10:54:06.999Z</time></trkpt><trkpt lat="39.93806711052256" lon="15.767038297853102"><ele>21.0</ele><time>2026-03-22T10:54:07.999Z</time></trkpt><trkpt lat="39.938240446351834" lon="15.766843453196737"><ele>22.666666666666664</ele><time>2026-03-22T10:54:08.999Z</time></trkpt><trkpt lat="39.93840657062267" lon="15.766657047519296"><ele>24.333333333333332</ele><time>2026-03-22T10:54:09.999Z</time></trkpt><trkpt lat="39.93856324405195" lon="15.766496649624491"><ele>26.0</ele><time>2026-03-22T10:54:10.999Z</time></trkpt><trkpt lat="39.93870206172316" lon="15.766393664182926"><ele>25.999999999999996</ele><time>2026-03-22T10:54:11.999Z</time></trkpt><trkpt lat="39.93880405826331" lon="15.766351366656561"><ele>26.0</ele><time>2026-03-22T10:54:12.999Z</time></trkpt><trkpt lat="39.938879154475124" lon="15.76634542815839"><ele>26.0</ele><time>2026-03-22T10:54:13.999Z</time></trkpt><trkpt lat="39.93895705405517" lon="15.766359046919934"><ele>26.0</ele><time>2026-03-22T10:54:14.999Z</time></trkpt><trkpt lat="39.9390356695496" lon="15.766365632623263"><ele>25.999999999999996</ele><time>2026-03-22T10:54:15.999Z</time></trkpt><trkpt lat="39.93911324792355" lon="15.766358285840262"><ele>26.0</ele><time>2026-03-22T10:54:16.999Z</time></trkpt><trkpt lat="39.939187344037805" lon="15.76633971592025"><ele>27.666666666666664</ele><time>2026-03-22T10:54:17.999Z</time></trkpt><trkpt lat="39.93926160610921" lon="15.766329263850814"><ele>29.333333333333332</ele><time>2026-03-22T10:54:18.999Z</time></trkpt><trkpt lat="39.9393486705481" lon="15.766335916961657"><ele>31.0</ele><time>2026-03-22T10:54:19.999Z</time></trkpt><trkpt lat="39.93943886899862" lon="15.766379683420844"><ele>32.666666666666664</ele><time>2026-03-22T10:54:20.999Z</time></trkpt><trkpt lat="39.93952795723491" lon="15.766418744427996"><ele>34.333333333333336</ele><time>2026-03-22T10:54:21.999Z</time></trkpt><trkpt lat="39.93959594685656" lon="15.766447504879798"><ele>36.0</ele><time>2026-03-22T10:54:22.999Z</time></trkpt><trkpt lat="39.93957431460349" lon="15.76665554742344"><ele>36.0</ele><time>2026-03-22T10:54:23.999Z</time></trkpt><trkpt lat="39.93953952240639" lon="15.766759081738918"><ele>36.0</ele><time>2026-03-22T10:54:24.999Z</time></trkpt><trkpt lat="39.939469833875705" lon="15.766840303375536"><ele>36.0</ele><time>2026-03-22T10:54:25.999Z</time></trkpt><trkpt lat="39.93937048164659" lon="15.766877049250768"><ele>36.0</ele><time>2026-03-22T10:54:26.999Z</time></trkpt><trkpt lat="39.939248474717616" lon="15.766862778106734"><ele>36.0</ele><time>2026-03-22T10:54:27.999Z</time></trkpt><trkpt lat="39.939107254721776" lon="15.766817314393204"><ele>32.666666666666664</ele><time>2026-03-22T10:54:29Z</time></trkpt><trkpt lat="39.93895433251221" lon="15.766765918636889"><ele>29.333333333333332</ele><time>2026-03-22T10:54:30Z</time></trkpt><trkpt lat="39.938795394908276" lon="15.766717819156556"><ele>26.0</ele><time>2026-03-22T10:54:31Z</time></trkpt><trkpt lat="39.93861232898194" lon="15.766651703806064"><ele>26.0</ele><time>2026-03-22T10:54:32Z</time></trkpt><trkpt lat="39.93841917961199" lon="15.76656992395607"><ele>26.0</ele><time>2026-03-22T10:54:33Z</time></trkpt><trkpt lat="39.9382246233726" lon="15.766482097191046"><ele>26.0</ele><time>2026-03-22T10:54:34Z</time></trkpt><trkpt lat="39.93802154791528" lon="15.766389877824837"><ele>25.333333333333332</ele><time>2026-03-22T10:54:35Z</time></trkpt><trkpt lat="39.93782478236809" lon="15.766297553701664"><ele>24.666666666666664</ele><time>2026-03-22T10:54:36Z</time></trkpt><trkpt lat="39.937645500368134" lon="15.766220746215485"><ele>24.0</ele><time>2026-03-22T10:54:37Z</time></trkpt><trkpt lat="39.93747787074297" lon="15.766150123162719"><ele>23.333333333333332</ele><time>2026-03-22T10:54:38Z</time></trkpt><trkpt lat="39.93732466742362" lon="15.766081702851503"><ele>22.666666666666664</ele><time>2026-03-22T10:54:39Z</time></trkpt><trkpt lat="39.93718475705238" lon="15.766012275389157"><ele>22.0</ele><time>2026-03-22T10:54:40Z</time></trkpt><trkpt lat="39.937051546272826" lon="15.765941383243854"><ele>23.75</ele><time>2026-03-22T10:54:41Z</time></trkpt><trkpt lat="39.936936723486966" lon="15.765879239609951"><ele>25.5</ele><time>2026-03-22T10:54:42Z</time></trkpt><trkpt lat="39.936840024895375" lon="15.765867716649536"><ele>27.25</ele><time>2026-03-22T10:54:43Z</time></trkpt><trkpt lat="39.93674441237371" lon="15.765861278797326"><ele>29.0</ele><time>2026-03-22T10:54:44Z</time></trkpt><trkpt lat="39.93665057197131" lon="15.765677689920564"><ele>29.0</ele><time>2026-03-22T10:54:45Z</time></trkpt><trkpt lat="39.93654785635716" lon="15.765586637266216"><ele>29.0</ele><time>2026-03-22T10:54:46Z</time></trkpt><trkpt lat="39.936450210357386" lon="15.765498424167674"><ele>29.0</ele><time>2026-03-22T10:54:47Z</time></trkpt><trkpt lat="39.93633148616603" lon="15.765477861945149"><ele>29.0</ele><time>2026-03-22T10:54:48Z</time></trkpt><trkpt lat="39.93625178238657" lon="15.765393967140012"><ele>29.0</ele><time>2026-03-22T10:54:49Z</time></trkpt><trkpt lat="39.93628272676438" lon="15.765206189841603"><ele>29.0</ele><time>2026-03-22T10:54:50Z</time></trkpt><trkpt lat="39.936283519288494" lon="15.765076964360162"><ele>29.0</ele><time>2026-03-22T10:54:51Z</time></trkpt><trkpt lat="39.93631603007452" lon="15.76493099194667"><ele>29.0</ele><time>2026-03-22T10:54:52Z</time></trkpt><trkpt lat="39.936354156019824" lon="15.764772815465749"><ele>29.25</ele><time>2026-03-22T10:54:53Z</time></trkpt><trkpt lat="39.936390580984785" lon="15.764605093062466"><ele>29.5</ele><time>2026-03-22T10:54:54Z</time></trkpt><trkpt lat="39.93643178851338" lon="15.764443698267602"><ele>29.75</ele><time>2026-03-22T10:54:55Z</time></trkpt><trkpt lat="39.93649436095568" lon="15.764296858593616"><ele>30.0</ele><time>2026-03-22T10:54:56Z</time></trkpt><trkpt lat="39.93657341636159" lon="15.764159306173744"><ele>30.0</ele><time>2026-03-22T10:54:57Z</time></trkpt><trkpt lat="39.93665210960672" lon="15.764026529864125"><ele>30.0</ele><time>2026-03-22T10:54:58Z</time></trkpt><trkpt lat="39.93673344032422" lon="15.76389019448853"><ele>30.0</ele><time>2026-03-22T10:54:59Z</time></trkpt><trkpt lat="39.93681860060502" lon="15.763761129491447"><ele>30.0</ele><time>2026-03-22T10:55:00Z</time></trkpt><trkpt lat="39.936917116273634" lon="15.763658778366455"><ele>30.5</ele><time>2026-03-22T10:55:01Z</time></trkpt><trkpt lat="39.93702865721136" lon="15.763578675085895"><ele>31.0</ele><time>2026-03-22T10:55:02Z</time></trkpt><trkpt lat="39.93715352313758" lon="15.763515406856863"><ele>31.5</ele><time>2026-03-22T10:55:03Z</time></trkpt><trkpt lat="39.937282172997534" lon="15.763464966751112"><ele>32.0</ele><time>2026-03-22T10:55:04Z</time></trkpt><trkpt lat="39.9374011212623" lon="15.763418718159178"><ele>32.0</ele><time>2026-03-22T10:55:05Z</time></trkpt><trkpt lat="39.93750580673047" lon="15.763378640076692"><ele>32.0</ele><time>2026-03-22T10:55:06Z</time></trkpt><trkpt lat="39.93759894657353" lon="15.763346944407386"><ele>32.0</ele><time>2026-03-22T10:55:07Z</time></trkpt><trkpt lat="39.93768065704189" lon="15.763322009103351"><ele>32.0</ele><time>2026-03-22T10:55:08Z</time></trkpt><trkpt lat="39.93776342734111" lon="15.763306018759174"><ele>32.0</ele><time>2026-03-22T10:55:09Z</time></trkpt><trkpt lat="39.93784555730768" lon="15.76330166284726"><ele>33.5</ele><time>2026-03-22T10:55:10Z</time></trkpt><trkpt lat="39.93794458061493" lon="15.763317814798068"><ele>35.0</ele><time>2026-03-22T10:55:11Z</time></trkpt><trkpt lat="39.93804834943364" lon="15.763379604120898"><ele>36.5</ele><time>2026-03-22T10:55:12Z</time></trkpt><trkpt lat="39.93816651151124" lon="15.763416260677019"><ele>38.0</ele><time>2026-03-22T10:55:13Z</time></trkpt><trkpt lat="39.9382821111051" lon="15.763469064594892"><ele>39.5</ele><time>2026-03-22T10:55:14Z</time></trkpt><trkpt lat="39.938401205658465" lon="15.76348423056651"><ele>41.0</ele><time>2026-03-22T10:55:15Z</time></trkpt><trkpt lat="39.93850528426173" lon="15.7634319778241"><ele>42.5</ele><time>2026-03-22T10:55:16Z</time></trkpt><trkpt lat="39.93859418712876" lon="15.7633202694677"><ele>44.0</ele><time>2026-03-22T10:55:17Z</time></trkpt><trkpt lat="39.93866154262305" lon="15.763172277953826"><ele>44.0</ele><time>2026-03-22T10:55:18Z</time></trkpt><trkpt lat="39.938739416060486" lon="15.763027078268552"><ele>44.0</ele><time>2026-03-22T10:55:19Z</time></trkpt><trkpt lat="39.9388193929204" lon="15.762872059680753"><ele>44.0</ele><time>2026-03-22T10:55:20Z</time></trkpt><trkpt lat="39.93889301085086" lon="15.762713617754418"><ele>44.0</ele><time>2026-03-22T10:55:21Z</time></trkpt><trkpt lat="39.93896272705811" lon="15.762550652038447"><ele>43.75</ele><time>2026-03-22T10:55:22Z</time></trkpt><trkpt lat="39.93902834673156" lon="15.76238699379182"><ele>43.5</ele><time>2026-03-22T10:55:23Z</time></trkpt><trkpt lat="39.939083438124825" lon="15.762223033862593"><ele>43.25</ele><time>2026-03-22T10:55:24Z</time></trkpt><trkpt lat="39.93912046414355" lon="15.762047111305211"><ele>43.0</ele><time>2026-03-22T10:55:25Z</time></trkpt><trkpt lat="39.93913474329885" lon="15.761859277190757"><ele>43.0</ele><time>2026-03-22T10:55:26Z</time></trkpt><trkpt lat="39.939139669067046" lon="15.76168224133448"><ele>43.0</ele><time>2026-03-22T10:55:27Z</time></trkpt><trkpt lat="39.9391423861428" lon="15.761522341659859"><ele>43.0</ele><time>2026-03-22T10:55:28Z</time></trkpt><trkpt lat="39.93914571433037" lon="15.76139381105715"><ele>43.0</ele><time>2026-03-22T10:55:29Z</time></trkpt><trkpt lat="39.93915133158896" lon="15.76130679594074"><ele>43.0</ele><time>2026-03-22T10:55:30Z</time></trkpt><trkpt lat="39.939157257837195" lon="15.761223123049323"><ele>43.0</ele><time>2026-03-22T10:55:33Z</time></trkpt><trkpt lat="39.93916944349717" lon="15.761125307677654"><ele>43.0</ele><time>2026-03-22T10:55:38Z</time></trkpt><trkpt lat="39.939175525885986" lon="15.761021779299552"><ele>43.0</ele><time>2026-03-22T10:55:39Z</time></trkpt><trkpt lat="39.93915677780786" lon="15.760891283279491"><ele>43.0</ele><time>2026-03-22T10:55:40Z</time></trkpt><trkpt lat="39.939123712537835" lon="15.760743000361563"><ele>43.0</ele><time>2026-03-22T10:55:41Z</time></trkpt><trkpt lat="39.93909053570094" lon="15.760593388375378"><ele>44.333333333333336</ele><time>2026-03-22T10:55:42Z</time></trkpt><trkpt lat="39.9390535254626" lon="15.760416343250242"><ele>45.666666666666664</ele><time>2026-03-22T10:55:43Z</time></trkpt><trkpt lat="39.93901387783568" lon="15.760226564185732"><ele>47.0</ele><time>2026-03-22T10:55:44Z</time></trkpt><trkpt lat="39.9389727737181" lon="15.760026070402905"><ele>50.0</ele><time>2026-03-22T10:55:45Z</time></trkpt><trkpt lat="39.9389327854846" lon="15.75982700756797"><ele>53.0</ele><time>2026-03-22T10:55:46Z</time></trkpt><trkpt lat="39.93889317745941" lon="15.759610144118293"><ele>56.0</ele><time>2026-03-22T10:55:47Z</time></trkpt><trkpt lat="39.93886838424843" lon="15.75938020177616"><ele>57.333333333333336</ele><time>2026-03-22T10:55:48Z</time></trkpt><trkpt lat="39.938860585968335" lon="15.759141568207783"><ele>58.66666666666667</ele><time>2026-03-22T10:55:49Z</time></trkpt><trkpt lat="39.938852884209865" lon="15.758902583240642"><ele>60.0</ele><time>2026-03-22T10:55:50Z</time></trkpt><trkpt lat="39.93883677346731" lon="15.758673469935797"><ele>62.0</ele><time>2026-03-22T10:55:51Z</time></trkpt><trkpt lat="39.93881431791284" lon="15.7584557574259"><ele>64.0</ele><time>2026-03-22T10:55:52Z</time></trkpt><trkpt lat="39.93878785197815" lon="15.758245975892496"><ele>66.0</ele><time>2026-03-22T10:55:52.999Z</time></trkpt><trkpt lat="39.93877583971483" lon="15.75803627376731"><ele>66.0</ele><time>2026-03-22T10:55:53.999Z</time></trkpt><trkpt lat="39.93879207504863" lon="15.757823953045953"><ele>66.0</ele><time>2026-03-22T10:55:54.999Z</time></trkpt><trkpt lat="39.93881247427778" lon="15.757616062389083"><ele>66.0</ele><time>2026-03-22T10:55:55.999Z</time></trkpt><trkpt lat="39.93883309935297" lon="15.757410274647464"><ele>66.66666666666667</ele><time>2026-03-22T10:55:56.999Z</time></trkpt><trkpt lat="39.93885439702129" lon="15.757204721284031"><ele>67.33333333333334</ele><time>2026-03-22T10:55:57.999Z</time></trkpt><trkpt lat="39.938875568610165" lon="15.757008665708645"><ele>68.0</ele><time>2026-03-22T10:55:58.999Z</time></trkpt><trkpt lat="39.938897734718914" lon="15.75682383323754"><ele>69.25</ele><time>2026-03-22T10:55:59.999Z</time></trkpt><trkpt lat="39.93891935411799" lon="15.756661925095482"><ele>70.5</ele><time>2026-03-22T10:56:00.999Z</time></trkpt><trkpt lat="39.938928132519905" lon="15.756518263665114"><ele>71.75</ele><time>2026-03-22T10:56:01.999Z</time></trkpt><trkpt lat="39.93890242293787" lon="15.756386355664372"><ele>73.0</ele><time>2026-03-22T10:56:02.999Z</time></trkpt><trkpt lat="39.938827479219356" lon="15.756266342643299"><ele>73.0</ele><time>2026-03-22T10:56:03.999Z</time></trkpt><trkpt lat="39.938733925277994" lon="15.756152061594568"><ele>73.0</ele><time>2026-03-22T10:56:04.999Z</time></trkpt><trkpt lat="39.93860746156273" lon="15.756090215979615"><ele>73.0</ele><time>2026-03-22T10:56:05.999Z</time></trkpt><trkpt lat="39.93848912010741" lon="15.756024775998206"><ele>73.0</ele><time>2026-03-22T10:56:06.999Z</time></trkpt><trkpt lat="39.93839966751033" lon="15.75588405723647"><ele>70.33333333333333</ele><time>2026-03-22T10:56:07.999Z</time></trkpt><trkpt lat="39.9383158423485" lon="15.755721569894186"><ele>67.66666666666667</ele><time>2026-03-22T10:56:08.999Z</time></trkpt><trkpt lat="39.93822406997267" lon="15.755554823526882"><ele>65.0</ele><time>2026-03-22T10:56:09.999Z</time></trkpt><trkpt lat="39.938126921988086" lon="15.755401493704872"><ele>65.0</ele><time>2026-03-22T10:56:10.999Z</time></trkpt><trkpt lat="39.93801758980618" lon="15.75524178370993"><ele>65.0</ele><time>2026-03-22T10:56:11.999Z</time></trkpt><trkpt lat="39.937897711310825" lon="15.755088614717916"><ele>65.0</ele><time>2026-03-22T10:56:12.999Z</time></trkpt><trkpt lat="39.93776749365582" lon="15.754957985124602"><ele>64.33333333333334</ele><time>2026-03-22T10:56:13.999Z</time></trkpt><trkpt lat="39.937633143824584" lon="15.754851370800571"><ele>63.66666666666667</ele><time>2026-03-22T10:56:14.999Z</time></trkpt><trkpt lat="39.93749098365544" lon="15.754770652425483"><ele>63.0</ele><time>2026-03-22T10:56:15.999Z</time></trkpt><trkpt lat="39.93734588326224" lon="15.754708581271156"><ele>63.0</ele><time>2026-03-22T10:56:16.999Z</time></trkpt><trkpt lat="39.93720485377562" lon="15.75464603321095"><ele>63.0</ele><time>2026-03-22T10:56:17.999Z</time></trkpt><trkpt lat="39.93707671812592" lon="15.75455904186835"><ele>63.0</ele><time>2026-03-22T10:56:18.999Z</time></trkpt><trkpt lat="39.93696223084778" lon="15.754454047923968"><ele>63.0</ele><time>2026-03-22T10:56:19.999Z</time></trkpt><trkpt lat="39.93685389955139" lon="15.754355859092646"><ele>60.0</ele><time>2026-03-22T10:56:20.999Z</time></trkpt><trkpt lat="39.936759689820114" lon="15.754256133954748"><ele>57.0</ele><time>2026-03-22T10:56:21.999Z</time></trkpt><trkpt lat="39.9366884172472" lon="15.754144415605232"><ele>54.0</ele><time>2026-03-22T10:56:22.999Z</time></trkpt><trkpt lat="39.93664906512264" lon="15.754013563947233"><ele>51.0</ele><time>2026-03-22T10:56:23.999Z</time></trkpt><trkpt lat="39.936639774706165" lon="15.75386471260743"><ele>51.0</ele><time>2026-03-22T10:56:24.999Z</time></trkpt><trkpt lat="39.93665175195937" lon="15.753698539281666"><ele>51.0</ele><time>2026-03-22T10:56:25.999Z</time></trkpt><trkpt lat="39.93665894275825" lon="15.753524788229319"><ele>51.0</ele><time>2026-03-22T10:56:26.999Z</time></trkpt><trkpt lat="39.936673785676724" lon="15.753342086774659"><ele>51.0</ele><time>2026-03-22T10:56:27.999Z</time></trkpt><trkpt lat="39.93669077752122" lon="15.753158027182499"><ele>57.0</ele><time>2026-03-22T10:56:28.999Z</time></trkpt><trkpt lat="39.936695633515036" lon="15.752982662702703"><ele>63.0</ele><time>2026-03-22T10:56:29.999Z</time></trkpt><trkpt lat="39.93667113695929" lon="15.752819471752145"><ele>69.0</ele><time>2026-03-22T10:56:30.999Z</time></trkpt><trkpt lat="39.93660897116865" lon="15.752669361502287"><ele>75.0</ele><time>2026-03-22T10:56:31.999Z</time></trkpt><trkpt lat="39.93652778710598" lon="15.752536321658445"><ele>78.5</ele><time>2026-03-22T10:56:32.999Z</time></trkpt><trkpt lat="39.93644989864478" lon="15.752413946140614"><ele>82.0</ele><time>2026-03-22T10:56:33.999Z</time></trkpt><trkpt lat="39.93638300375135" lon="15.752316056674836"><ele>85.5</ele><time>2026-03-22T10:56:35Z</time></trkpt><trkpt lat="39.936319081889025" lon="15.752240688476945"><ele>89.0</ele><time>2026-03-22T10:56:36Z</time></trkpt><trkpt lat="39.93625785703664" lon="15.752185416312917"><ele>92.5</ele><time>2026-03-22T10:56:37Z</time></trkpt><trkpt lat="39.93620349817354" lon="15.752143432747816"><ele>96.0</ele><time>2026-03-22T10:56:38Z</time></trkpt><trkpt lat="39.936112850176706" lon="15.752046551103168"><ele>96.0</ele><time>2026-03-22T10:56:40Z</time></trkpt><trkpt lat="39.93601915425419" lon="15.751972945899963"><ele>96.0</ele><time>2026-03-22T10:56:42Z</time></trkpt><trkpt lat="39.93592876794517" lon="15.751923443093068"><ele>96.0</ele><time>2026-03-22T10:56:44Z</time></trkpt><trkpt lat="39.935875413395266" lon="15.751872253211332"><ele>96.0</ele><time>2026-03-22T10:56:46Z</time></trkpt><trkpt lat="39.93578951848689" lon="15.751772705274702"><ele>96.0</ele><time>2026-03-22T10:56:50Z</time></trkpt><trkpt lat="39.93573227811976" lon="15.751689545192862"><ele>92.6</ele><time>2026-03-22T10:56:51Z</time></trkpt><trkpt lat="39.935666690661485" lon="15.75157748818011"><ele>89.19999999999999</ele><time>2026-03-22T10:56:52Z</time></trkpt><trkpt lat="39.935600508452616" lon="15.75146260601296"><ele>85.80000000000001</ele><time>2026-03-22T10:56:53Z</time></trkpt><trkpt lat="39.93554629351412" lon="15.751343046671426"><ele>82.4</ele><time>2026-03-22T10:56:54Z</time></trkpt><trkpt lat="39.93550969455108" lon="15.751210818252341"><ele>79.0</ele><time>2026-03-22T10:56:55Z</time></trkpt><trkpt lat="39.93548958197896" lon="15.751069061027051"><ele>84.80000000000001</ele><time>2026-03-22T10:56:56Z</time></trkpt><trkpt lat="39.935472857165" lon="15.75092716363122"><ele>90.60000000000001</ele><time>2026-03-22T10:56:57Z</time></trkpt><trkpt lat="39.93544835520424" lon="15.750796708734935"><ele>96.4</ele><time>2026-03-22T10:56:58Z</time></trkpt><trkpt lat="39.93540983029708" lon="15.750677927333934"><ele>102.2</ele><time>2026-03-22T10:56:59Z</time></trkpt><trkpt lat="39.93535334020767" lon="15.75057309031376"><ele>108.0</ele><time>2026-03-22T10:57:00Z</time></trkpt><trkpt lat="39.93528749475411" lon="15.750480111203961"><ele>108.0</ele><time>2026-03-22T10:57:01Z</time></trkpt><trkpt lat="39.935221108981544" lon="15.75039187807789"><ele>108.00000000000001</ele><time>2026-03-22T10:57:02Z</time></trkpt><trkpt lat="39.93516723213749" lon="15.750299536891541"><ele>108.00000000000001</ele><time>2026-03-22T10:57:03Z</time></trkpt><trkpt lat="39.93514025778037" lon="15.750192572417102"><ele>108.0</ele><time>2026-03-22T10:57:04Z</time></trkpt><trkpt lat="39.935150783272576" lon="15.75007847771253"><ele>108.0</ele><time>2026-03-22T10:57:05Z</time></trkpt><trkpt lat="39.935197562092945" lon="15.74996712176197"><ele>112.0</ele><time>2026-03-22T10:57:06Z</time></trkpt><trkpt lat="39.93525760728073" lon="15.749859120268342"><ele>116.00000000000001</ele><time>2026-03-22T10:57:07Z</time></trkpt><trkpt lat="39.93530906610033" lon="15.749744837500398"><ele>120.00000000000001</ele><time>2026-03-22T10:57:08Z</time></trkpt><trkpt lat="39.93535786038758" lon="15.74962782736661"><ele>124.0</ele><time>2026-03-22T10:57:09Z</time></trkpt><trkpt lat="39.93538816286044" lon="15.749504917452247"><ele>128.0</ele><time>2026-03-22T10:57:10Z</time></trkpt><trkpt lat="39.935395965450354" lon="15.749375089458933"><ele>128.6</ele><time>2026-03-22T10:57:11Z</time></trkpt><trkpt lat="39.93537637755147" lon="15.749244667198667"><ele>129.20000000000002</ele><time>2026-03-22T10:57:12Z</time></trkpt><trkpt lat="39.935342326477794" lon="15.74912600449148"><ele>129.8</ele><time>2026-03-22T10:57:13Z</time></trkpt><trkpt lat="39.935311469487964" lon="15.749012415214297"><ele>130.4</ele><time>2026-03-22T10:57:14Z</time></trkpt><trkpt lat="39.93529815261697" lon="15.748894039432788"><ele>131.0</ele><time>2026-03-22T10:57:15Z</time></trkpt><trkpt lat="39.93531154806457" lon="15.748767196832478"><ele>131.0</ele><time>2026-03-22T10:57:16Z</time></trkpt><trkpt lat="39.93534631692241" lon="15.748646854424944"><ele>131.0</ele><time>2026-03-22T10:57:17Z</time></trkpt><trkpt lat="39.93539374460015" lon="15.748523520865735"><ele>131.0</ele><time>2026-03-22T10:57:18Z</time></trkpt><trkpt lat="39.9354366202097" lon="15.74838881721297"><ele>131.0</ele><time>2026-03-22T10:57:19Z</time></trkpt><trkpt lat="39.93545988450583" lon="15.748245882038937"><ele>131.0</ele><time>2026-03-22T10:57:20Z</time></trkpt><trkpt lat="39.93545923486279" lon="15.748096511815838"><ele>128.0</ele><time>2026-03-22T10:57:21Z</time></trkpt><trkpt lat="39.93545131418776" lon="15.747948318726731"><ele>125.0</ele><time>2026-03-22T10:57:22Z</time></trkpt><trkpt lat="39.93544173692914" lon="15.74780531088106"><ele>122.0</ele><time>2026-03-22T10:57:23Z</time></trkpt><trkpt lat="39.93542054638504" lon="15.747673617161958"><ele>119.0</ele><time>2026-03-22T10:57:24Z</time></trkpt><trkpt lat="39.93540214796916" lon="15.747556608592003"><ele>116.0</ele><time>2026-03-22T10:57:25Z</time></trkpt><trkpt lat="39.9354133432271" lon="15.74745031219972"><ele>111.0</ele><time>2026-03-22T10:57:26Z</time></trkpt><trkpt lat="39.935456759638356" lon="15.747357934345784"><ele>106.0</ele><time>2026-03-22T10:57:27Z</time></trkpt><trkpt lat="39.93553139031063" lon="15.74728378861932"><ele>101.0</ele><time>2026-03-22T10:57:28Z</time></trkpt><trkpt lat="39.935622176251556" lon="15.747219795699694"><ele>96.0</ele><time>2026-03-22T10:57:29Z</time></trkpt><trkpt lat="39.93572561616886" lon="15.747167482067182"><ele>91.0</ele><time>2026-03-22T10:57:30Z</time></trkpt><trkpt lat="39.935834495712015" lon="15.747115382703479"><ele>93.0</ele><time>2026-03-22T10:57:31Z</time></trkpt><trkpt lat="39.93594729966222" lon="15.747070373127823"><ele>95.0</ele><time>2026-03-22T10:57:32Z</time></trkpt><trkpt lat="39.93607013782414" lon="15.74704621317859"><ele>97.0</ele><time>2026-03-22T10:57:33Z</time></trkpt><trkpt lat="39.936199338945606" lon="15.747049900553606"><ele>99.0</ele><time>2026-03-22T10:57:34Z</time></trkpt><trkpt lat="39.9363331114615" lon="15.747075471485266"><ele>99.0</ele><time>2026-03-22T10:57:35Z</time></trkpt><trkpt lat="39.93646335486693" lon="15.747107630070584"><ele>99.0</ele><time>2026-03-22T10:57:36Z</time></trkpt><trkpt lat="39.936599397503386" lon="15.747132055863934"><ele>99.0</ele><time>2026-03-22T10:57:37Z</time></trkpt><trkpt lat="39.93673448206142" lon="15.7471604272116"><ele>99.0</ele><time>2026-03-22T10:57:38Z</time></trkpt><trkpt lat="39.9368737898948" lon="15.74718704464279"><ele>99.0</ele><time>2026-03-22T10:57:39Z</time></trkpt><trkpt lat="39.93701482438712" lon="15.74721872341086"><ele>99.0</ele><time>2026-03-22T10:57:40Z</time></trkpt><trkpt lat="39.93715420690424" lon="15.747243158841803"><ele>99.0</ele><time>2026-03-22T10:57:41Z</time></trkpt><trkpt lat="39.937293338237644" lon="15.747253226914138"><ele>99.0</ele><time>2026-03-22T10:57:42Z</time></trkpt><trkpt lat="39.93743526899638" lon="15.747246304756606"><ele>101.5</ele><time>2026-03-22T10:57:43Z</time></trkpt><trkpt lat="39.937579055732485" lon="15.747224203451076"><ele>104.0</ele><time>2026-03-22T10:57:44Z</time></trkpt><trkpt lat="39.937722119372204" lon="15.747185379542605"><ele>106.5</ele><time>2026-03-22T10:57:45Z</time></trkpt><trkpt lat="39.93786075373085" lon="15.747116550701818"><ele>109.0</ele><time>2026-03-22T10:57:46Z</time></trkpt><trkpt lat="39.937988257832316" lon="15.747006524750718"><ele>103.0</ele><time>2026-03-22T10:57:47Z</time></trkpt><trkpt lat="39.93810166171959" lon="15.74686248846275"><ele>97.0</ele><time>2026-03-22T10:57:48Z</time></trkpt><trkpt lat="39.938212225302934" lon="15.74670553187233"><ele>91.0</ele><time>2026-03-22T10:57:49Z</time></trkpt><trkpt lat="39.938332120541986" lon="15.74654845454586"><ele>96.66666666666666</ele><time>2026-03-22T10:57:50Z</time></trkpt><trkpt lat="39.938454967133644" lon="15.746392891620824"><ele>102.33333333333333</ele><time>2026-03-22T10:57:51Z</time></trkpt><trkpt lat="39.93857482400868" lon="15.746241046850816"><ele>108.0</ele><time>2026-03-22T10:57:52Z</time></trkpt><trkpt lat="39.938692693435655" lon="15.746092559228526"><ele>103.0</ele><time>2026-03-22T10:57:53Z</time></trkpt><trkpt lat="39.938812369183154" lon="15.745943292637023"><ele>98.0</ele><time>2026-03-22T10:57:54Z</time></trkpt><trkpt lat="39.93893100946881" lon="15.745789275651168"><ele>93.0</ele><time>2026-03-22T10:57:55Z</time></trkpt><trkpt lat="39.93905100952622" lon="15.745633473603965"><ele>93.0</ele><time>2026-03-22T10:57:56Z</time></trkpt><trkpt lat="39.93917281784579" lon="15.745478006642822"><ele>93.0</ele><time>2026-03-22T10:57:57Z</time></trkpt><trkpt lat="39.93929661461042" lon="15.745319143139877"><ele>93.0</ele><time>2026-03-22T10:57:57.999Z</time></trkpt><trkpt lat="39.939418812928736" lon="15.745159397183416"><ele>95.66666666666666</ele><time>2026-03-22T10:57:58.999Z</time></trkpt><trkpt lat="39.9395381814289" lon="15.744998831708449"><ele>98.33333333333333</ele><time>2026-03-22T10:57:59.999Z</time></trkpt><trkpt lat="39.93964894313322" lon="15.744835563896299"><ele>101.0</ele><time>2026-03-22T10:58:00.999Z</time></trkpt><trkpt lat="39.939749774336086" lon="15.744665133418387"><ele>101.0</ele><time>2026-03-22T10:58:01.999Z</time></trkpt><trkpt lat="39.93983862052665" lon="15.744482009345784"><ele>101.0</ele><time>2026-03-22T10:58:02.999Z</time></trkpt><trkpt lat="39.939911426057705" lon="15.744294393326555"><ele>101.0</ele><time>2026-03-22T10:58:03.999Z</time></trkpt><trkpt lat="39.939971335349675" lon="15.744112206019791"><ele>100.75</ele><time>2026-03-22T10:58:04.999Z</time></trkpt><trkpt lat="39.94001361883158" lon="15.743941873400003"><ele>100.5</ele><time>2026-03-22T10:58:05.999Z</time></trkpt><trkpt lat="39.94003540539039" lon="15.743777094225061"><ele>100.25</ele><time>2026-03-22T10:58:06.999Z</time></trkpt><trkpt lat="39.940046953305995" lon="15.743616726847891"><ele>100.0</ele><time>2026-03-22T10:58:07.999Z</time></trkpt><trkpt lat="39.94008256520629" lon="15.743460015532033"><ele>100.0</ele><time>2026-03-22T10:58:08.999Z</time></trkpt><trkpt lat="39.94016237336345" lon="15.743316878381602"><ele>100.0</ele><time>2026-03-22T10:58:09.999Z</time></trkpt><trkpt lat="39.94028369294292" lon="15.74320072958679"><ele>100.0</ele><time>2026-03-22T10:58:10.999Z</time></trkpt><trkpt lat="39.94042887378132" lon="15.743118385387916"><ele>100.0</ele><time>2026-03-22T10:58:11.999Z</time></trkpt><trkpt lat="39.94058375528609" lon="15.74304214201969"><ele>100.0</ele><time>2026-03-22T10:58:12.999Z</time></trkpt><trkpt lat="39.94073069352771" lon="15.742944598606762"><ele>100.0</ele><time>2026-03-22T10:58:13.999Z</time></trkpt><trkpt lat="39.94087441172756" lon="15.742835568484578"><ele>100.0</ele><time>2026-03-22T10:58:14.999Z</time></trkpt><trkpt lat="39.94101785574604" lon="15.742719974501437"><ele>100.33333333333334</ele><time>2026-03-22T10:58:15.999Z</time></trkpt><trkpt lat="39.9411622021282" lon="15.742601766837181"><ele>100.66666666666666</ele><time>2026-03-22T10:58:16.999Z</time></trkpt><trkpt lat="39.94131112456939" lon="15.742486688044194"><ele>101.0</ele><time>2026-03-22T10:58:17.999Z</time></trkpt><trkpt lat="39.941462121102745" lon="15.742370862424503"><ele>101.0</ele><time>2026-03-22T10:58:18.999Z</time></trkpt><trkpt lat="39.94161359588599" lon="15.742251638258477"><ele>101.0</ele><time>2026-03-22T10:58:19.999Z</time></trkpt><trkpt lat="39.94176400194696" lon="15.74212784536982"><ele>101.0</ele><time>2026-03-22T10:58:20.999Z</time></trkpt><trkpt lat="39.94191152733011" lon="15.742009214206174"><ele>100.33333333333333</ele><time>2026-03-22T10:58:21.999Z</time></trkpt><trkpt lat="39.94205784629144" lon="15.741887618522066"><ele>99.66666666666666</ele><time>2026-03-22T10:58:22.999Z</time></trkpt><trkpt lat="39.94220357538383" lon="15.74176375533106"><ele>99.0</ele><time>2026-03-22T10:58:23.999Z</time></trkpt><trkpt lat="39.94234948473716" lon="15.741637273118116"><ele>99.0</ele><time>2026-03-22T10:58:24.999Z</time></trkpt><trkpt lat="39.94249347100199" lon="15.741509475713245"><ele>99.0</ele><time>2026-03-22T10:58:25.999Z</time></trkpt><trkpt lat="39.942636240839796" lon="15.74137658556615"><ele>99.0</ele><time>2026-03-22T10:58:26.999Z</time></trkpt><trkpt lat="39.94277699402321" lon="15.74123866062989"><ele>100.33333333333334</ele><time>2026-03-22T10:58:27.999Z</time></trkpt><trkpt lat="39.94291642024009" lon="15.741105028075525"><ele>101.66666666666667</ele><time>2026-03-22T10:58:28.999Z</time></trkpt><trkpt lat="39.94305652135829" lon="15.74097766656655"><ele>103.0</ele><time>2026-03-22T10:58:29.999Z</time></trkpt><trkpt lat="39.943195241155145" lon="15.740858747267849"><ele>103.0</ele><time>2026-03-22T10:58:30.999Z</time></trkpt><trkpt lat="39.94332880805141" lon="15.740734359888101"><ele>103.0</ele><time>2026-03-22T10:58:31.999Z</time></trkpt><trkpt lat="39.94344991519337" lon="15.7405935207881"><ele>103.0</ele><time>2026-03-22T10:58:32.999Z</time></trkpt><trkpt lat="39.94355422942963" lon="15.7404436540632"><ele>101.75</ele><time>2026-03-22T10:58:33.999Z</time></trkpt><trkpt lat="39.9436445812069" lon="15.740295536171086"><ele>100.5</ele><time>2026-03-22T10:58:34.999Z</time></trkpt><trkpt lat="39.943728378993356" lon="15.740160592437608"><ele>99.25</ele><time>2026-03-22T10:58:35.999Z</time></trkpt><trkpt lat="39.94381317757297" lon="15.74003709648015"><ele>98.0</ele><time>2026-03-22T10:58:36.999Z</time></trkpt><trkpt lat="39.94390498118661" lon="15.739934182779427"><ele>98.0</ele><time>2026-03-22T10:58:37.999Z</time></trkpt><trkpt lat="39.94402156882333" lon="15.739869307256157"><ele>98.0</ele><time>2026-03-22T10:58:38.999Z</time></trkpt><trkpt lat="39.94415593973495" lon="15.739897883748414"><ele>98.0</ele><time>2026-03-22T10:58:39.999Z</time></trkpt><trkpt lat="39.94430004325704" lon="15.739942319498027"><ele>98.0</ele><time>2026-03-22T10:58:41Z</time></trkpt><trkpt lat="39.944445208058546" lon="15.740021162912512"><ele>92.33333333333333</ele><time>2026-03-22T10:58:42Z</time></trkpt><trkpt lat="39.944595837324975" lon="15.740087346723767"><ele>86.66666666666666</ele><time>2026-03-22T10:58:43Z</time></trkpt><trkpt lat="39.94474689480071" lon="15.740156885093414"><ele>81.0</ele><time>2026-03-22T10:58:44Z</time></trkpt><trkpt lat="39.94490025559984" lon="15.74022614410385"><ele>99.0</ele><time>2026-03-22T10:58:45Z</time></trkpt><trkpt lat="39.945053935623285" lon="15.740294819668216"><ele>117.0</ele><time>2026-03-22T10:58:46Z</time></trkpt><trkpt lat="39.94520875587171" lon="15.740354987374074"><ele>135.0</ele><time>2026-03-22T10:58:47Z</time></trkpt><trkpt lat="39.9453675596844" lon="15.740397131556655"><ele>135.0</ele><time>2026-03-22T10:58:48Z</time></trkpt><trkpt lat="39.94553025435306" lon="15.740414829930497"><ele>135.0</ele><time>2026-03-22T10:58:49Z</time></trkpt><trkpt lat="39.94569619110663" lon="15.740403370079452"><ele>135.0</ele><time>2026-03-22T10:58:50Z</time></trkpt><trkpt lat="39.94586143702533" lon="15.740380438177208"><ele>137.66666666666666</ele><time>2026-03-22T10:58:51Z</time></trkpt><trkpt lat="39.94602815025605" lon="15.740354302487745"><ele>140.33333333333331</ele><time>2026-03-22T10:58:52Z</time></trkpt><trkpt lat="39.946195739815444" lon="15.740319908186937"><ele>143.0</ele><time>2026-03-22T10:58:53Z</time></trkpt><trkpt lat="39.94636110184705" lon="15.740277390274677"><ele>143.0</ele><time>2026-03-22T10:58:54Z</time></trkpt><trkpt lat="39.94652471364386" lon="15.740229047085993"><ele>143.0</ele><time>2026-03-22T10:58:55Z</time></trkpt><trkpt lat="39.94670299679378" lon="15.740169020211"><ele>143.0</ele><time>2026-03-22T10:58:56Z</time></trkpt><trkpt lat="39.94688363156972" lon="15.74010548472912"><ele>134.66666666666666</ele><time>2026-03-22T10:58:57Z</time></trkpt><trkpt lat="39.94706134140779" lon="15.740035979244224"><ele>126.33333333333334</ele><time>2026-03-22T10:58:58Z</time></trkpt><trkpt lat="39.947236450357735" lon="15.739960810505707"><ele>118.0</ele><time>2026-03-22T10:58:59Z</time></trkpt><trkpt lat="39.94741184285651" lon="15.739882743925556"><ele>123.66666666666667</ele><time>2026-03-22T10:59:00Z</time></trkpt><trkpt lat="39.9475851241808" lon="15.739816139123691"><ele>129.33333333333334</ele><time>2026-03-22T10:59:01Z</time></trkpt><trkpt lat="39.94775683746842" lon="15.739766483570065"><ele>135.0</ele><time>2026-03-22T10:59:02Z</time></trkpt><trkpt lat="39.9479279356904" lon="15.73971647852616"><ele>135.0</ele><time>2026-03-22T10:59:03Z</time></trkpt><trkpt lat="39.94809158253106" lon="15.739642392379578"><ele>135.0</ele><time>2026-03-22T10:59:04Z</time></trkpt><trkpt lat="39.948247517956645" lon="15.739538561553404"><ele>135.0</ele><time>2026-03-22T10:59:05Z</time></trkpt><trkpt lat="39.948399484462065" lon="15.7394224880215"><ele>134.33333333333334</ele><time>2026-03-22T10:59:06Z</time></trkpt><trkpt lat="39.948557403800734" lon="15.739314150337458"><ele>133.66666666666669</ele><time>2026-03-22T10:59:07Z</time></trkpt><trkpt lat="39.94872147709764" lon="15.739222771980543"><ele>133.0</ele><time>2026-03-22T10:59:08Z</time></trkpt><trkpt lat="39.94888360626034" lon="15.739142422984052"><ele>133.0</ele><time>2026-03-22T10:59:09Z</time></trkpt><trkpt lat="39.94903804041468" lon="15.739054424955041"><ele>133.0</ele><time>2026-03-22T10:59:10Z</time></trkpt><trkpt lat="39.9491805668819" lon="15.738941501725913"><ele>133.0</ele><time>2026-03-22T10:59:11Z</time></trkpt><trkpt lat="39.949308370669925" lon="15.738795599507679"><ele>131.33333333333334</ele><time>2026-03-22T10:59:12Z</time></trkpt><trkpt lat="39.94942322299313" lon="15.73863405998884"><ele>129.66666666666666</ele><time>2026-03-22T10:59:13Z</time></trkpt><trkpt lat="39.949531325982214" lon="15.738470965476212"><ele>128.0</ele><time>2026-03-22T10:59:14Z</time></trkpt><trkpt lat="39.94963574355163" lon="15.738311163242823"><ele>128.0</ele><time>2026-03-22T10:59:15Z</time></trkpt><trkpt lat="39.94973784794118" lon="15.738174468686871"><ele>128.0</ele><time>2026-03-22T10:59:16Z</time></trkpt><trkpt lat="39.94984967004042" lon="15.738066352400477"><ele>128.0</ele><time>2026-03-22T10:59:17Z</time></trkpt><trkpt lat="39.949979307156255" lon="15.738003291165988"><ele>128.0</ele><time>2026-03-22T10:59:18Z</time></trkpt><trkpt lat="39.950115804888874" lon="15.737985111087909"><ele>121.66666666666666</ele><time>2026-03-22T10:59:19Z</time></trkpt><trkpt lat="39.950253121995274" lon="15.738016481689716"><ele>115.33333333333334</ele><time>2026-03-22T10:59:20Z</time></trkpt><trkpt lat="39.950361242568256" lon="15.738153280113261"><ele>109.0</ele><time>2026-03-22T10:59:21Z</time></trkpt><trkpt lat="39.95048926939262" lon="15.738285002586704"><ele>109.0</ele><time>2026-03-22T10:59:22Z</time></trkpt><trkpt lat="39.95063670506231" lon="15.738400527649581"><ele>109.0</ele><time>2026-03-22T10:59:23Z</time></trkpt><trkpt lat="39.95077964009909" lon="15.738540917777998"><ele>109.0</ele><time>2026-03-22T10:59:24Z</time></trkpt><trkpt lat="39.95094205246253" lon="15.73865842094561"><ele>111.0</ele><time>2026-03-22T10:59:25Z</time></trkpt><trkpt lat="39.9511159105571" lon="15.738753089212876"><ele>113.0</ele><time>2026-03-22T10:59:26Z</time></trkpt><trkpt lat="39.95128191165345" lon="15.738862597769751"><ele>115.0</ele><time>2026-03-22T10:59:27Z</time></trkpt><trkpt lat="39.95145227060704" lon="15.738958193896645"><ele>115.0</ele><time>2026-03-22T10:59:28Z</time></trkpt><trkpt lat="39.95162060113034" lon="15.739034912970439"><ele>115.0</ele><time>2026-03-22T10:59:29Z</time></trkpt><trkpt lat="39.95178300411053" lon="15.739092699087733"><ele>115.0</ele><time>2026-03-22T10:59:30Z</time></trkpt><trkpt lat="39.951947719675935" lon="15.73913371047966"><ele>111.66666666666667</ele><time>2026-03-22T10:59:31Z</time></trkpt><trkpt lat="39.952113171151844" lon="15.739147433080756"><ele>108.33333333333334</ele><time>2026-03-22T10:59:32Z</time></trkpt><trkpt lat="39.95227212058638" lon="15.739139998071607"><ele>105.0</ele><time>2026-03-22T10:59:33Z</time></trkpt><trkpt lat="39.952431873407434" lon="15.739113831398079"><ele>102.0</ele><time>2026-03-22T10:59:34Z</time></trkpt><trkpt lat="39.952587932919194" lon="15.739098758921806"><ele>99.0</ele><time>2026-03-22T10:59:35Z</time></trkpt><trkpt lat="39.95274420990664" lon="15.739119443025562"><ele>96.0</ele><time>2026-03-22T10:59:36Z</time></trkpt><trkpt lat="39.95290399262651" lon="15.739157898001636"><ele>96.0</ele><time>2026-03-22T10:59:37Z</time></trkpt><trkpt lat="39.953070481451014" lon="15.739197767507774"><ele>96.0</ele><time>2026-03-22T10:59:38Z</time></trkpt><trkpt lat="39.953245647078234" lon="15.739236660095056"><ele>96.0</ele><time>2026-03-22T10:59:39Z</time></trkpt><trkpt lat="39.953426585611936" lon="15.739270754779314"><ele>94.0</ele><time>2026-03-22T10:59:40Z</time></trkpt><trkpt lat="39.95360759821288" lon="15.739306257825477"><ele>92.0</ele><time>2026-03-22T10:59:41Z</time></trkpt><trkpt lat="39.953788367160705" lon="15.739344758168068"><ele>90.0</ele><time>2026-03-22T10:59:42Z</time></trkpt><trkpt lat="39.95395788625104" lon="15.739379245509886"><ele>95.33333333333334</ele><time>2026-03-22T10:59:43Z</time></trkpt><trkpt lat="39.95412566653994" lon="15.739408297041534"><ele>100.66666666666667</ele><time>2026-03-22T10:59:44Z</time></trkpt><trkpt lat="39.95429393768964" lon="15.739420106843665"><ele>106.0</ele><time>2026-03-22T10:59:45Z</time></trkpt><trkpt lat="39.95446770892995" lon="15.739413158246276"><ele>106.0</ele><time>2026-03-22T10:59:46Z</time></trkpt><trkpt lat="39.95464691958135" lon="15.73940042365732"><ele>106.0</ele><time>2026-03-22T10:59:47Z</time></trkpt><trkpt lat="39.95482997836157" lon="15.739389549079124"><ele>106.0</ele><time>2026-03-22T10:59:48Z</time></trkpt><trkpt lat="39.95501079480127" lon="15.73937926634464"><ele>98.0</ele><time>2026-03-22T10:59:49Z</time></trkpt><trkpt lat="39.95518726628155" lon="15.739351029138854"><ele>90.0</ele><time>2026-03-22T10:59:50Z</time></trkpt><trkpt lat="39.95536226792518" lon="15.73928380351795"><ele>82.0</ele><time>2026-03-22T10:59:51Z</time></trkpt><trkpt lat="39.955536961216545" lon="15.739200183339651"><ele>82.0</ele><time>2026-03-22T10:59:52Z</time></trkpt><trkpt lat="39.95571452541013" lon="15.73912081648485"><ele>82.0</ele><time>2026-03-22T10:59:53Z</time></trkpt><trkpt lat="39.95589296262438" lon="15.739047377396156"><ele>82.0</ele><time>2026-03-22T10:59:54Z</time></trkpt><trkpt lat="39.95606846756256" lon="15.738979319795938"><ele>81.66666666666666</ele><time>2026-03-22T10:59:55Z</time></trkpt><trkpt lat="39.956242303595396" lon="15.738922931583433"><ele>81.33333333333333</ele><time>2026-03-22T10:59:56Z</time></trkpt><trkpt lat="39.95641492951536" lon="15.738880944022842"><ele>81.0</ele><time>2026-03-22T10:59:57Z</time></trkpt><trkpt lat="39.95659172529754" lon="15.738850240175974"><ele>81.0</ele><time>2026-03-22T10:59:58Z</time></trkpt><trkpt lat="39.95676921248863" lon="15.738827210014481"><ele>81.0</ele><time>2026-03-22T10:59:59Z</time></trkpt><trkpt lat="39.95694731620367" lon="15.738805516236038"><ele>81.0</ele><time>2026-03-22T11:00:00Z</time></trkpt><trkpt lat="39.95711983891429" lon="15.73879781855788"><ele>81.0</ele><time>2026-03-22T11:00:01Z</time></trkpt><trkpt lat="39.957296202543056" lon="15.738805235548536"><ele>81.0</ele><time>2026-03-22T11:00:02Z</time></trkpt><trkpt lat="39.957472107488385" lon="15.738828086356312"><ele>81.0</ele><time>2026-03-22T11:00:03Z</time></trkpt><trkpt lat="39.95764517454367" lon="15.738853818103223"><ele>81.66666666666667</ele><time>2026-03-22T11:00:04Z</time></trkpt><trkpt lat="39.95780951449447" lon="15.738867026215825"><ele>82.33333333333334</ele><time>2026-03-22T11:00:04.999Z</time></trkpt><trkpt lat="39.957963398140144" lon="15.738850743952193"><ele>83.0</ele><time>2026-03-22T11:00:05.999Z</time></trkpt><trkpt lat="39.958116172326584" lon="15.738801794583843"><ele>83.0</ele><time>2026-03-22T11:00:06.999Z</time></trkpt><trkpt lat="39.95826413379087" lon="15.73873011880153"><ele>83.0</ele><time>2026-03-22T11:00:07.999Z</time></trkpt><trkpt lat="39.95841099154771" lon="15.738646715376198"><ele>83.0</ele><time>2026-03-22T11:00:08.999Z</time></trkpt><trkpt lat="39.95855835028905" lon="15.738562411795197"><ele>81.0</ele><time>2026-03-22T11:00:09.999Z</time></trkpt><trkpt lat="39.958691595970755" lon="15.738488672513206"><ele>79.0</ele><time>2026-03-22T11:00:10.999Z</time></trkpt><trkpt lat="39.95880779296624" lon="15.738423431299301"><ele>77.0</ele><time>2026-03-22T11:00:11.999Z</time></trkpt><trkpt lat="39.95892443305069" lon="15.738361454408086"><ele>75.0</ele><time>2026-03-22T11:00:12.999Z</time></trkpt><trkpt lat="39.959053836059866" lon="15.73830985965611"><ele>75.0</ele><time>2026-03-22T11:00:13.999Z</time></trkpt><trkpt lat="39.95919539442549" lon="15.738295704299887"><ele>75.0</ele><time>2026-03-22T11:00:14.999Z</time></trkpt><trkpt lat="39.959343537985006" lon="15.738319390278793"><ele>75.0</ele><time>2026-03-22T11:00:15.999Z</time></trkpt><trkpt lat="39.959490376357756" lon="15.738364321022752"><ele>75.0</ele><time>2026-03-22T11:00:16.999Z</time></trkpt><trkpt lat="39.95963285092352" lon="15.738410893774043"><ele>76.5</ele><time>2026-03-22T11:00:17.999Z</time></trkpt><trkpt lat="39.959773114810204" lon="15.738437887251479"><ele>78.0</ele><time>2026-03-22T11:00:18.999Z</time></trkpt><trkpt lat="39.959909136497174" lon="15.738423682571899"><ele>79.5</ele><time>2026-03-22T11:00:19.999Z</time></trkpt><trkpt lat="39.96003947574661" lon="15.738353710724283"><ele>81.0</ele><time>2026-03-22T11:00:20.999Z</time></trkpt><trkpt lat="39.9601664227904" lon="15.738247984129115"><ele>84.0</ele><time>2026-03-22T11:00:21.999Z</time></trkpt><trkpt lat="39.96029541897866" lon="15.738137566277103"><ele>87.0</ele><time>2026-03-22T11:00:22.999Z</time></trkpt><trkpt lat="39.9604340752981" lon="15.73802930109349"><ele>90.0</ele><time>2026-03-22T11:00:23.999Z</time></trkpt><trkpt lat="39.960578577589814" lon="15.737926321036408"><ele>90.0</ele><time>2026-03-22T11:00:24.999Z</time></trkpt><trkpt lat="39.9607218140066" lon="15.737825916570618"><ele>90.0</ele><time>2026-03-22T11:00:25.999Z</time></trkpt><trkpt lat="39.96086399441994" lon="15.737730153835413"><ele>90.0</ele><time>2026-03-22T11:00:26.999Z</time></trkpt><trkpt lat="39.96100592124219" lon="15.737640455783495"><ele>89.0</ele><time>2026-03-22T11:00:27.999Z</time></trkpt><trkpt lat="39.96115271893323" lon="15.737572077243462"><ele>88.0</ele><time>2026-03-22T11:00:28.999Z</time></trkpt><trkpt lat="39.961304204881095" lon="15.737525696401113"><ele>87.0</ele><time>2026-03-22T11:00:29.999Z</time></trkpt><trkpt lat="39.96145404002458" lon="15.737480134429987"><ele>87.0</ele><time>2026-03-22T11:00:30.999Z</time></trkpt><trkpt lat="39.96159520653645" lon="15.737404566972346"><ele>87.0</ele><time>2026-03-22T11:00:31.999Z</time></trkpt><trkpt lat="39.961725842154486" lon="15.737298169770288"><ele>87.0</ele><time>2026-03-22T11:00:32.999Z</time></trkpt><trkpt lat="39.961851621083376" lon="15.737168523215646"><ele>87.0</ele><time>2026-03-22T11:00:33.999Z</time></trkpt><trkpt lat="39.961980509639695" lon="15.737030051360565"><ele>87.0</ele><time>2026-03-22T11:00:34.999Z</time></trkpt><trkpt lat="39.96210818758" lon="15.736892413381451"><ele>87.0</ele><time>2026-03-22T11:00:35.999Z</time></trkpt><trkpt lat="39.96223596050184" lon="15.73675685915367"><ele>87.0</ele><time>2026-03-22T11:00:36.999Z</time></trkpt><trkpt lat="39.96236077061291" lon="15.736624555118121"><ele>87.0</ele><time>2026-03-22T11:00:37.999Z</time></trkpt><trkpt lat="39.962482156766306" lon="15.736494800096715"><ele>87.0</ele><time>2026-03-22T11:00:38.999Z</time></trkpt><trkpt lat="39.962605879704434" lon="15.736379198306228"><ele>90.0</ele><time>2026-03-22T11:00:39.999Z</time></trkpt><trkpt lat="39.96274278221397" lon="15.736296314289804"><ele>93.0</ele><time>2026-03-22T11:00:40.999Z</time></trkpt><trkpt lat="39.962892273240016" lon="15.736267438891739"><ele>96.0</ele><time>2026-03-22T11:00:41.999Z</time></trkpt><trkpt lat="39.96304511983018" lon="15.736268320136654"><ele>96.0</ele><time>2026-03-22T11:00:42.999Z</time></trkpt><trkpt lat="39.963201276254644" lon="15.736286868241525"><ele>96.0</ele><time>2026-03-22T11:00:43.999Z</time></trkpt><trkpt lat="39.96335639789383" lon="15.736319000576914"><ele>96.0</ele><time>2026-03-22T11:00:44.999Z</time></trkpt><trkpt lat="39.963514679497436" lon="15.73635717965927"><ele>97.66666666666666</ele><time>2026-03-22T11:00:45.999Z</time></trkpt><trkpt lat="39.963675621221036" lon="15.73637713076705"><ele>99.33333333333333</ele><time>2026-03-22T11:00:47Z</time></trkpt><trkpt lat="39.96383611694845" lon="15.73636824907899"><ele>101.0</ele><time>2026-03-22T11:00:48Z</time></trkpt><trkpt lat="39.96400135710648" lon="15.736337212140299"><ele>101.0</ele><time>2026-03-22T11:00:49Z</time></trkpt><trkpt lat="39.964162459506404" lon="15.736298952392803"><ele>101.0</ele><time>2026-03-22T11:00:50Z</time></trkpt><trkpt lat="39.9643219794034" lon="15.73625826931746"><ele>101.0</ele><time>2026-03-22T11:00:51Z</time></trkpt><trkpt lat="39.96448139022083" lon="15.736208338562244"><ele>104.66666666666666</ele><time>2026-03-22T11:00:52Z</time></trkpt><trkpt lat="39.96463543042715" lon="15.73613949389099"><ele>108.33333333333334</ele><time>2026-03-22T11:00:53Z</time></trkpt><trkpt lat="39.96478129708224" lon="15.736046432947544"><ele>112.0</ele><time>2026-03-22T11:00:54Z</time></trkpt><trkpt lat="39.964920225216574" lon="15.735930978553691"><ele>109.33333333333334</ele><time>2026-03-22T11:00:55Z</time></trkpt><trkpt lat="39.96505725883657" lon="15.735807604948159"><ele>106.66666666666666</ele><time>2026-03-22T11:00:56Z</time></trkpt><trkpt lat="39.96519989173789" lon="15.735680488100373"><ele>104.0</ele><time>2026-03-22T11:00:57Z</time></trkpt><trkpt lat="39.9653441674425" lon="15.735554685707234"><ele>104.0</ele><time>2026-03-22T11:00:58Z</time></trkpt><trkpt lat="39.965494526632654" lon="15.73541937063243"><ele>104.0</ele><time>2026-03-22T11:00:59Z</time></trkpt><trkpt lat="39.965640846556056" lon="15.735272413190838"><ele>104.0</ele><time>2026-03-22T11:01:00Z</time></trkpt><trkpt lat="39.96577983570089" lon="15.7351145189735"><ele>103.33333333333333</ele><time>2026-03-22T11:01:01Z</time></trkpt><trkpt lat="39.965920048420216" lon="15.734956028041404"><ele>102.66666666666666</ele><time>2026-03-22T11:01:02Z</time></trkpt><trkpt lat="39.966069474035564" lon="15.73481703265852"><ele>102.0</ele><time>2026-03-22T11:01:03Z</time></trkpt><trkpt lat="39.9661875565064" lon="15.734730648839601"><ele>102.0</ele><time>2026-03-22T11:01:04Z</time></trkpt><trkpt lat="39.966276532358926" lon="15.734669517191328"><ele>102.0</ele><time>2026-03-22T11:01:05Z</time></trkpt><trkpt lat="39.96636523837014" lon="15.734601915025177"><ele>102.0</ele><time>2026-03-22T11:01:06Z</time></trkpt><trkpt lat="39.96644573313172" lon="15.734530348024549"><ele>102.0</ele><time>2026-03-22T11:01:07Z</time></trkpt><trkpt lat="39.96652218011251" lon="15.734435152062622"><ele>102.0</ele><time>2026-03-22T11:01:08Z</time></trkpt><trkpt lat="39.966592177567875" lon="15.734314667588901"><ele>103.5</ele><time>2026-03-22T11:01:09Z</time></trkpt><trkpt lat="39.96666657198544" lon="15.734181355957121"><ele>105.0</ele><time>2026-03-22T11:01:10Z</time></trkpt><trkpt lat="39.966762309699334" lon="15.734056116798612"><ele>106.5</ele><time>2026-03-22T11:01:11Z</time></trkpt><trkpt lat="39.96687547842768" lon="15.7339360283329"><ele>108.0</ele><time>2026-03-22T11:01:12Z</time></trkpt><trkpt lat="39.966986880321166" lon="15.733813753866325"><ele>108.0</ele><time>2026-03-22T11:01:13Z</time></trkpt><trkpt lat="39.967097175173066" lon="15.733679833123139"><ele>108.0</ele><time>2026-03-22T11:01:14Z</time></trkpt><trkpt lat="39.96720951935358" lon="15.733531884102767"><ele>108.0</ele><time>2026-03-22T11:01:15Z</time></trkpt><trkpt lat="39.96732136774849" lon="15.73337173798297"><ele>110.66666666666666</ele><time>2026-03-22T11:01:16Z</time></trkpt><trkpt lat="39.96743116278446" lon="15.733199600824502"><ele>113.33333333333333</ele><time>2026-03-22T11:01:17Z</time></trkpt><trkpt lat="39.96753810935151" lon="15.733015861858796"><ele>116.0</ele><time>2026-03-22T11:01:18Z</time></trkpt><trkpt lat="39.967640908813124" lon="15.732832013541298"><ele>109.66666666666666</ele><time>2026-03-22T11:01:19Z</time></trkpt><trkpt lat="39.967744667230846" lon="15.73264890314172"><ele>103.33333333333334</ele><time>2026-03-22T11:01:20Z</time></trkpt><trkpt lat="39.96784827141372" lon="15.73246619952679"><ele>97.0</ele><time>2026-03-22T11:01:21Z</time></trkpt><trkpt lat="39.967959673912084" lon="15.732285223372159"><ele>97.0</ele><time>2026-03-22T11:01:22Z</time></trkpt><trkpt lat="39.968071622915055" lon="15.7320984656916"><ele>97.0</ele><time>2026-03-22T11:01:23Z</time></trkpt><trkpt lat="39.968180575666885" lon="15.731905758127327"><ele>97.0</ele><time>2026-03-22T11:01:24Z</time></trkpt><trkpt lat="39.96829106777503" lon="15.731712350697583"><ele>99.0</ele><time>2026-03-22T11:01:25Z</time></trkpt><trkpt lat="39.96840053146454" lon="15.731521434098987"><ele>101.0</ele><time>2026-03-22T11:01:26Z</time></trkpt><trkpt lat="39.9685012399431" lon="15.731340802376597"><ele>103.0</ele><time>2026-03-22T11:01:27Z</time></trkpt><trkpt lat="39.96859968166054" lon="15.731162993576781"><ele>96.66666666666667</ele><time>2026-03-22T11:01:28Z</time></trkpt><trkpt lat="39.96869421118917" lon="15.730987353606478"><ele>90.33333333333334</ele><time>2026-03-22T11:01:29Z</time></trkpt><trkpt lat="39.96877287785424" lon="15.730813466086957"><ele>84.0</ele><time>2026-03-22T11:01:30Z</time></trkpt><trkpt lat="39.96884197962015" lon="15.730646506720007"><ele>84.0</ele><time>2026-03-22T11:01:31Z</time></trkpt><trkpt lat="39.96891874457447" lon="15.73050151580616"><ele>84.0</ele><time>2026-03-22T11:01:32Z</time></trkpt><trkpt lat="39.968991696980574" lon="15.730356805789066"><ele>84.0</ele><time>2026-03-22T11:01:33Z</time></trkpt><trkpt lat="39.969037914579516" lon="15.730190392666541"><ele>84.0</ele><time>2026-03-22T11:01:34Z</time></trkpt><trkpt lat="39.969050414639455" lon="15.730008819691198"><ele>86.25</ele><time>2026-03-22T11:01:35Z</time></trkpt><trkpt lat="39.96905165435387" lon="15.729832554079312"><ele>88.5</ele><time>2026-03-22T11:01:36Z</time></trkpt><trkpt lat="39.96907875215988" lon="15.7296624944139"><ele>90.75</ele><time>2026-03-22T11:01:37Z</time></trkpt><trkpt lat="39.96914366984362" lon="15.729511325795123"><ele>93.0</ele><time>2026-03-22T11:01:38Z</time></trkpt><trkpt lat="39.969244206619116" lon="15.729400404452432"><ele>90.75</ele><time>2026-03-22T11:01:39Z</time></trkpt><trkpt lat="39.969371457390885" lon="15.729318781907473"><ele>88.5</ele><time>2026-03-22T11:01:40Z</time></trkpt><trkpt lat="39.96949957918928" lon="15.72922619675091"><ele>86.25</ele><time>2026-03-22T11:01:41Z</time></trkpt><trkpt lat="39.969625783151976" lon="15.729125925992586"><ele>84.0</ele><time>2026-03-22T11:01:42Z</time></trkpt><trkpt lat="39.96975152637408" lon="15.729023416664612"><ele>84.0</ele><time>2026-03-22T11:01:43Z</time></trkpt><trkpt lat="39.96987488401287" lon="15.72891134073335"><ele>84.0</ele><time>2026-03-22T11:01:44Z</time></trkpt><trkpt lat="39.96998561858067" lon="15.728774619716933"><ele>84.0</ele><time>2026-03-22T11:01:45Z</time></trkpt><trkpt lat="39.97007900981243" lon="15.728613765496556"><ele>87.33333333333333</ele><time>2026-03-22T11:01:46Z</time></trkpt><trkpt lat="39.970170754122776" lon="15.728445525783261"><ele>90.66666666666666</ele><time>2026-03-22T11:01:47Z</time></trkpt><trkpt lat="39.97026619856209" lon="15.728278199356199"><ele>94.0</ele><time>2026-03-22T11:01:48Z</time></trkpt><trkpt lat="39.97036233253336" lon="15.728116114761761"><ele>94.0</ele><time>2026-03-22T11:01:49Z</time></trkpt><trkpt lat="39.97045952846204" lon="15.727953960974022"><ele>94.0</ele><time>2026-03-22T11:01:50Z</time></trkpt><trkpt lat="39.97055229501881" lon="15.727795415502293"><ele>94.0</ele><time>2026-03-22T11:01:51Z</time></trkpt><trkpt lat="39.97063984002023" lon="15.727641724722366"><ele>90.25</ele><time>2026-03-22T11:01:52Z</time></trkpt><trkpt lat="39.970720921380746" lon="15.727490040725998"><ele>86.5</ele><time>2026-03-22T11:01:53Z</time></trkpt><trkpt lat="39.97077335115059" lon="15.72731909995947"><ele>82.75</ele><time>2026-03-22T11:01:54Z</time></trkpt><trkpt lat="39.97079231335951" lon="15.727130926298697"><ele>79.0</ele><time>2026-03-22T11:01:55Z</time></trkpt><trkpt lat="39.97080636364686" lon="15.726945491779519"><ele>77.75</ele><time>2026-03-22T11:01:56Z</time></trkpt><trkpt lat="39.97083184287296" lon="15.72677639398557"><ele>76.5</ele><time>2026-03-22T11:01:57Z</time></trkpt><trkpt lat="39.97087785619417" lon="15.72660615635367"><ele>75.25</ele><time>2026-03-22T11:01:58Z</time></trkpt><trkpt lat="39.97094766652969" lon="15.72643555274026"><ele>74.0</ele><time>2026-03-22T11:01:59Z</time></trkpt><trkpt lat="39.97103360237454" lon="15.726260854448705"><ele>76.33333333333334</ele><time>2026-03-22T11:02:00Z</time></trkpt><trkpt lat="39.97111865740291" lon="15.726081984199165"><ele>78.66666666666667</ele><time>2026-03-22T11:02:01Z</time></trkpt><trkpt lat="39.97120232811801" lon="15.725899278804382"><ele>81.0</ele><time>2026-03-22T11:02:02Z</time></trkpt><trkpt lat="39.97128110134457" lon="15.725718349866106"><ele>81.0</ele><time>2026-03-22T11:02:03Z</time></trkpt><trkpt lat="39.971355997583345" lon="15.725546515355775"><ele>81.0</ele><time>2026-03-22T11:02:04Z</time></trkpt><trkpt lat="39.971438549845324" lon="15.725393051922545"><ele>81.0</ele><time>2026-03-22T11:02:05Z</time></trkpt><trkpt lat="39.97154261207326" lon="15.725254781766674"><ele>81.0</ele><time>2026-03-22T11:02:06Z</time></trkpt><trkpt lat="39.971669281855796" lon="15.725139070679578"><ele>78.33333333333333</ele><time>2026-03-22T11:02:07Z</time></trkpt><trkpt lat="39.97180297384542" lon="15.725032941037501"><ele>75.66666666666666</ele><time>2026-03-22T11:02:08Z</time></trkpt><trkpt lat="39.97193202564343" lon="15.7249263944833"><ele>73.0</ele><time>2026-03-22T11:02:09Z</time></trkpt><trkpt lat="39.97205894568637" lon="15.72482532672295"><ele>73.0</ele><time>2026-03-22T11:02:09.999Z</time></trkpt><trkpt lat="39.972189973915356" lon="15.724750532007697"><ele>73.0</ele><time>2026-03-22T11:02:10.999Z</time></trkpt><trkpt lat="39.97232372378641" lon="15.724728349446739"><ele>73.0</ele><time>2026-03-22T11:02:11.999Z</time></trkpt><trkpt lat="39.97245640212676" lon="15.724754360919789"><ele>73.0</ele><time>2026-03-22T11:02:12.999Z</time></trkpt><trkpt lat="39.97256772248889" lon="15.724837120972126"><ele>75.0</ele><time>2026-03-22T11:02:13.999Z</time></trkpt><trkpt lat="39.972676307903924" lon="15.72487075381498"><ele>77.0</ele><time>2026-03-22T11:02:14.999Z</time></trkpt><trkpt lat="39.97277671349739" lon="15.724867591576208"><ele>79.0</ele><time>2026-03-22T11:02:15.999Z</time></trkpt><trkpt lat="39.97286130233353" lon="15.724827184500251"><ele>81.0</ele><time>2026-03-22T11:02:16.999Z</time></trkpt><trkpt lat="39.97295519984037" lon="15.724778356682657"><ele>83.0</ele><time>2026-03-22T11:02:17.999Z</time></trkpt><trkpt lat="39.97305695167264" lon="15.72473090575846"><ele>83.0</ele><time>2026-03-22T11:02:18.999Z</time></trkpt><trkpt lat="39.97316006055515" lon="15.724663327035817"><ele>83.0</ele><time>2026-03-22T11:02:19.999Z</time></trkpt><trkpt lat="39.973236358104835" lon="15.724543887578541"><ele>83.0</ele><time>2026-03-22T11:02:20.999Z</time></trkpt><trkpt lat="39.973272388124926" lon="15.724385124718298"><ele>83.0</ele><time>2026-03-22T11:02:21.999Z</time></trkpt><trkpt lat="39.97329242676477" lon="15.724223056295648"><ele>80.5</ele><time>2026-03-22T11:02:22.999Z</time></trkpt><trkpt lat="39.97334178088751" lon="15.724079930605468"><ele>78.0</ele><time>2026-03-22T11:02:23.999Z</time></trkpt><trkpt lat="39.97343293437522" lon="15.723956974380517"><ele>75.5</ele><time>2026-03-22T11:02:24.999Z</time></trkpt><trkpt lat="39.97354923532998" lon="15.723847708752198"><ele>73.0</ele><time>2026-03-22T11:02:25.999Z</time></trkpt><trkpt lat="39.97366652151856" lon="15.723739752664368"><ele>73.25</ele><time>2026-03-22T11:02:26.999Z</time></trkpt><trkpt lat="39.97377668955017" lon="15.723633594274995"><ele>73.5</ele><time>2026-03-22T11:02:27.999Z</time></trkpt><trkpt lat="39.973893418832844" lon="15.723528823521962"><ele>73.75</ele><time>2026-03-22T11:02:28.999Z</time></trkpt><trkpt lat="39.97402687843525" lon="15.723448844774481"><ele>74.0</ele><time>2026-03-22T11:02:29.999Z</time></trkpt><trkpt lat="39.97417419301688" lon="15.723400327125159"><ele>80.33333333333334</ele><time>2026-03-22T11:02:30.999Z</time></trkpt><trkpt lat="39.9743222901737" lon="15.723355866213064"><ele>86.66666666666667</ele><time>2026-03-22T11:02:31.999Z</time></trkpt><trkpt lat="39.974466122989256" lon="15.723303066219934"><ele>93.0</ele><time>2026-03-22T11:02:32.999Z</time></trkpt><trkpt lat="39.97460980040126" lon="15.723247747773797"><ele>93.0</ele><time>2026-03-22T11:02:33.999Z</time></trkpt><trkpt lat="39.974758058327005" lon="15.723222036757871"><ele>93.0</ele><time>2026-03-22T11:02:34.999Z</time></trkpt><trkpt lat="39.97490869980706" lon="15.723229475571255"><ele>93.0</ele><time>2026-03-22T11:02:35.999Z</time></trkpt><trkpt lat="39.97506208445738" lon="15.723217336779555"><ele>99.0</ele><time>2026-03-22T11:02:36.999Z</time></trkpt><trkpt lat="39.97521635405899" lon="15.72318212034605"><ele>105.0</ele><time>2026-03-22T11:02:37.999Z</time></trkpt><trkpt lat="39.975369699628985" lon="15.723145803269118"><ele>111.0</ele><time>2026-03-22T11:02:38.999Z</time></trkpt><trkpt lat="39.97552406646511" lon="15.72311046586257"><ele>111.0</ele><time>2026-03-22T11:02:39.999Z</time></trkpt><trkpt lat="39.97567797533541" lon="15.72305815715421"><ele>111.0</ele><time>2026-03-22T11:02:40.999Z</time></trkpt><trkpt lat="39.97583161542829" lon="15.722982998838063"><ele>111.0</ele><time>2026-03-22T11:02:41.999Z</time></trkpt><trkpt lat="39.97598535378068" lon="15.722894431936746"><ele>106.66666666666666</ele><time>2026-03-22T11:02:42.999Z</time></trkpt><trkpt lat="39.97614187720638" lon="15.722805435194266"><ele>102.33333333333333</ele><time>2026-03-22T11:02:43.999Z</time></trkpt><trkpt lat="39.97630249125348" lon="15.722720575289427"><ele>98.0</ele><time>2026-03-22T11:02:44.999Z</time></trkpt><trkpt lat="39.97646191425371" lon="15.722629378552845"><ele>98.0</ele><time>2026-03-22T11:02:45.999Z</time></trkpt><trkpt lat="39.97661991469799" lon="15.72253604130719"><ele>98.0</ele><time>2026-03-22T11:02:46.999Z</time></trkpt><trkpt lat="39.97677771950462" lon="15.722446918789647"><ele>98.0</ele><time>2026-03-22T11:02:47.999Z</time></trkpt><trkpt lat="39.9769375682692" lon="15.722362657220385"><ele>105.33333333333333</ele><time>2026-03-22T11:02:48.999Z</time></trkpt><trkpt lat="39.97709983531526" lon="15.722289332902603"><ele>112.66666666666666</ele><time>2026-03-22T11:02:49.999Z</time></trkpt><trkpt lat="39.97725900622125" lon="15.722232809481183"><ele>120.0</ele><time>2026-03-22T11:02:50.999Z</time></trkpt><trkpt lat="39.977409673306234" lon="15.722175666522118"><ele>120.33333333333334</ele><time>2026-03-22T11:02:51.999Z</time></trkpt><trkpt lat="39.977555131249645" lon="15.722072600125653"><ele>120.66666666666667</ele><time>2026-03-22T11:02:53Z</time></trkpt><trkpt lat="39.9776965841232" lon="15.721942236520224"><ele>121.0</ele><time>2026-03-22T11:02:54Z</time></trkpt><trkpt lat="39.97784147004569" lon="15.721816200823337"><ele>121.0</ele><time>2026-03-22T11:02:55Z</time></trkpt><trkpt lat="39.97799036403605" lon="15.721692109184415"><ele>121.0</ele><time>2026-03-22T11:02:56Z</time></trkpt><trkpt lat="39.9781401718652" lon="15.721569057829555"><ele>121.0</ele><time>2026-03-22T11:02:57Z</time></trkpt><trkpt lat="39.978290316092185" lon="15.721443551340087"><ele>123.66666666666667</ele><time>2026-03-22T11:02:58Z</time></trkpt><trkpt lat="39.97844321844266" lon="15.721312595482345"><ele>126.33333333333334</ele><time>2026-03-22T11:02:59Z</time></trkpt><trkpt lat="39.97859509241381" lon="15.721179254333823"><ele>129.0</ele><time>2026-03-22T11:03:00Z</time></trkpt><trkpt lat="39.97873994535877" lon="15.721050593019735"><ele>129.0</ele><time>2026-03-22T11:03:01Z</time></trkpt><trkpt lat="39.97888197009874" lon="15.720917301527262"><ele>129.0</ele><time>2026-03-22T11:03:02Z</time></trkpt><trkpt lat="39.97900925724606" lon="15.720766336482892"><ele>129.0</ele><time>2026-03-22T11:03:03Z</time></trkpt><trkpt lat="39.97911818649382" lon="15.720596345689723"><ele>135.66666666666666</ele><time>2026-03-22T11:03:04Z</time></trkpt><trkpt lat="39.979224074321756" lon="15.720423563090106"><ele>142.33333333333331</ele><time>2026-03-22T11:03:05Z</time></trkpt><trkpt lat="39.97932591441619" lon="15.720242585286899"><ele>149.0</ele><time>2026-03-22T11:03:06Z</time></trkpt><trkpt lat="39.97941673174142" lon="15.72005225801484"><ele>149.0</ele><time>2026-03-22T11:03:07Z</time></trkpt><trkpt lat="39.979492936259255" lon="15.71986169845092"><ele>149.0</ele><time>2026-03-22T11:03:08Z</time></trkpt><trkpt lat="39.97956073162526" lon="15.719671750414133"><ele>149.0</ele><time>2026-03-22T11:03:09Z</time></trkpt><trkpt lat="39.97963665590431" lon="15.719487997405482"><ele>147.66666666666666</ele><time>2026-03-22T11:03:10Z</time></trkpt><trkpt lat="39.97974481141794" lon="15.719321376342519"><ele>146.33333333333334</ele><time>2026-03-22T11:03:11Z</time></trkpt><trkpt lat="39.97988973918894" lon="15.719191350705952"><ele>145.0</ele><time>2026-03-22T11:03:12Z</time></trkpt><trkpt lat="39.980055488919916" lon="15.719109581351784"><ele>145.0</ele><time>2026-03-22T11:03:13Z</time></trkpt><trkpt lat="39.98021757048095" lon="15.719015211285358"><ele>145.0</ele><time>2026-03-22T11:03:14Z</time></trkpt><trkpt lat="39.980391580289734" lon="15.718924973766745"><ele>145.0</ele><time>2026-03-22T11:03:15Z</time></trkpt><trkpt lat="39.98053882667463" lon="15.718787468982958"><ele>145.0</ele><time>2026-03-22T11:03:16Z</time></trkpt><trkpt lat="39.98067945970093" lon="15.718629451407434"><ele>145.0</ele><time>2026-03-22T11:03:17Z</time></trkpt><trkpt lat="39.980821710547865" lon="15.718465200388012"><ele>145.0</ele><time>2026-03-22T11:03:18Z</time></trkpt><trkpt lat="39.98095161166609" lon="15.718286342011115"><ele>146.66666666666669</ele><time>2026-03-22T11:03:19Z</time></trkpt><trkpt lat="39.9810698375363" lon="15.718086857255571"><ele>148.33333333333334</ele><time>2026-03-22T11:03:20Z</time></trkpt><trkpt lat="39.98119781265101" lon="15.717893144285767"><ele>150.0</ele><time>2026-03-22T11:03:21Z</time></trkpt><trkpt lat="39.981327934358944" lon="15.717695236718761"><ele>142.33333333333334</ele><time>2026-03-22T11:03:22Z</time></trkpt><trkpt lat="39.98144824019789" lon="15.717490978550083"><ele>134.66666666666669</ele><time>2026-03-22T11:03:23Z</time></trkpt><trkpt lat="39.98155684590803" lon="15.717279366220803"><ele>127.0</ele><time>2026-03-22T11:03:24Z</time></trkpt><trkpt lat="39.98165826105096" lon="15.717069903158166"><ele>129.0</ele><time>2026-03-22T11:03:25Z</time></trkpt><trkpt lat="39.98175642494754" lon="15.716871792037976"><ele>131.0</ele><time>2026-03-22T11:03:26Z</time></trkpt><trkpt lat="39.98187105377932" lon="15.716705710182726"><ele>133.0</ele><time>2026-03-22T11:03:27Z</time></trkpt><trkpt lat="39.9820052804164" lon="15.7165680978614"><ele>133.0</ele><time>2026-03-22T11:03:28Z</time></trkpt><trkpt lat="39.982130784489144" lon="15.716463263351153"><ele>133.0</ele><time>2026-03-22T11:03:29Z</time></trkpt><trkpt lat="39.98225468274904" lon="15.716367370950163"><ele>133.0</ele><time>2026-03-22T11:03:30Z</time></trkpt><trkpt lat="39.982372666489674" lon="15.716277129489834"><ele>133.0</ele><time>2026-03-22T11:03:31Z</time></trkpt><trkpt lat="39.98250237411434" lon="15.716192158592982"><ele>134.0</ele><time>2026-03-22T11:03:32Z</time></trkpt><trkpt lat="39.982633529709794" lon="15.716105957212614"><ele>135.0</ele><time>2026-03-22T11:03:33Z</time></trkpt><trkpt lat="39.98276386237986" lon="15.716013606442106"><ele>136.0</ele><time>2026-03-22T11:03:34Z</time></trkpt><trkpt lat="39.98289422561534" lon="15.715910271245207"><ele>137.0</ele><time>2026-03-22T11:03:35Z</time></trkpt><trkpt lat="39.98300140380507" lon="15.71576342343432"><ele>137.0</ele><time>2026-03-22T11:03:36Z</time></trkpt><trkpt lat="39.98309363683042" lon="15.715592316543365"><ele>137.0</ele><time>2026-03-22T11:03:37Z</time></trkpt><trkpt lat="39.983172652048225" lon="15.715406787509565"><ele>137.0</ele><time>2026-03-22T11:03:38Z</time></trkpt><trkpt lat="39.98326114250483" lon="15.715235946678046"><ele>141.66666666666666</ele><time>2026-03-22T11:03:39Z</time></trkpt><trkpt lat="39.983378032179175" lon="15.715101211951996"><ele>146.33333333333334</ele><time>2026-03-22T11:03:40Z</time></trkpt><trkpt lat="39.9835151897295" lon="15.714977737514923"><ele>151.0</ele><time>2026-03-22T11:03:41Z</time></trkpt><trkpt lat="39.98364581906237" lon="15.714839025145094"><ele>151.0</ele><time>2026-03-22T11:03:42Z</time></trkpt><trkpt lat="39.983762570477715" lon="15.71467851969438"><ele>151.0</ele><time>2026-03-22T11:03:43Z</time></trkpt><trkpt lat="39.98386433952288" lon="15.714518355960106"><ele>151.0</ele><time>2026-03-22T11:03:44Z</time></trkpt><trkpt lat="39.983982848891245" lon="15.71438694258911"><ele>151.33333333333334</ele><time>2026-03-22T11:03:45Z</time></trkpt><trkpt lat="39.984125637332866" lon="15.714274862375714"><ele>151.66666666666666</ele><time>2026-03-22T11:03:46Z</time></trkpt><trkpt lat="39.98427491583856" lon="15.71415606469742"><ele>152.0</ele><time>2026-03-22T11:03:47Z</time></trkpt><trkpt lat="39.984410026459585" lon="15.714011258746021"><ele>152.0</ele><time>2026-03-22T11:03:48Z</time></trkpt><trkpt lat="39.98454197812455" lon="15.713853265598738"><ele>152.0</ele><time>2026-03-22T11:03:49Z</time></trkpt><trkpt lat="39.98467778104215" lon="15.713694082285626"><ele>152.0</ele><time>2026-03-22T11:03:50Z</time></trkpt><trkpt lat="39.98482155770423" lon="15.713544056183533"><ele>147.33333333333331</ele><time>2026-03-22T11:03:51Z</time></trkpt><trkpt lat="39.984977411594514" lon="15.713402828974562"><ele>142.66666666666666</ele><time>2026-03-22T11:03:52Z</time></trkpt><trkpt lat="39.985139962909656" lon="15.713277512880381"><ele>138.0</ele><time>2026-03-22T11:03:53Z</time></trkpt><trkpt lat="39.98530680351136" lon="15.713174647498908"><ele>138.0</ele><time>2026-03-22T11:03:54Z</time></trkpt><trkpt lat="39.985462102726764" lon="15.713087008509776"><ele>138.0</ele><time>2026-03-22T11:03:55Z</time></trkpt><trkpt lat="39.98560284501181" lon="15.713001727768962"><ele>138.0</ele><time>2026-03-22T11:03:56Z</time></trkpt><trkpt lat="39.98573289643255" lon="15.712917483710152"><ele>138.25</ele><time>2026-03-22T11:03:57Z</time></trkpt><trkpt lat="39.98586838338385" lon="15.712863333572374"><ele>138.5</ele><time>2026-03-22T11:03:58Z</time></trkpt><trkpt lat="39.98600863282598" lon="15.712887478981012"><ele>138.75</ele><time>2026-03-22T11:03:59Z</time></trkpt><trkpt lat="39.98613988913174" lon="15.712944529575337"><ele>139.0</ele><time>2026-03-22T11:04:00Z</time></trkpt><trkpt lat="39.986288425252916" lon="15.7130010215152"><ele>139.0</ele><time>2026-03-22T11:04:01Z</time></trkpt><trkpt lat="39.986446458330725" lon="15.71303938607029"><ele>139.0</ele><time>2026-03-22T11:04:02Z</time></trkpt><trkpt lat="39.986612594897764" lon="15.713061093665205"><ele>139.0</ele><time>2026-03-22T11:04:03Z</time></trkpt><trkpt lat="39.98677999255455" lon="15.713066151755642"><ele>140.33333333333334</ele><time>2026-03-22T11:04:04Z</time></trkpt><trkpt lat="39.98694539951627" lon="15.713080796076323"><ele>141.66666666666666</ele><time>2026-03-22T11:04:05Z</time></trkpt><trkpt lat="39.98710897910251" lon="15.713086572853385"><ele>143.0</ele><time>2026-03-22T11:04:06Z</time></trkpt><trkpt lat="39.98727465224728" lon="15.713173355344924"><ele>143.0</ele><time>2026-03-22T11:04:07Z</time></trkpt><trkpt lat="39.98743104481744" lon="15.713004251375311"><ele>143.0</ele><time>2026-03-22T11:04:08Z</time></trkpt><trkpt lat="39.98758259812895" lon="15.712916105039392"><ele>143.0</ele><time>2026-03-22T11:04:09Z</time></trkpt><trkpt lat="39.98772474045092" lon="15.712840938382646"><ele>144.66666666666666</ele><time>2026-03-22T11:04:10Z</time></trkpt><trkpt lat="39.98787668818859" lon="15.712815233065454"><ele>146.33333333333334</ele><time>2026-03-22T11:04:11Z</time></trkpt><trkpt lat="39.988028360187606" lon="15.712898523554172"><ele>148.0</ele><time>2026-03-22T11:04:12Z</time></trkpt><trkpt lat="39.98819532294179" lon="15.712956666258277"><ele>151.0</ele><time>2026-03-22T11:04:13Z</time></trkpt><trkpt lat="39.98835738348047" lon="15.713000479415472"><ele>154.0</ele><time>2026-03-22T11:04:14Z</time></trkpt><trkpt lat="39.98850790360111" lon="15.713050635545244"><ele>157.0</ele><time>2026-03-22T11:04:14.999Z</time></trkpt><trkpt lat="39.988650463141674" lon="15.713080247333048"><ele>157.0</ele><time>2026-03-22T11:04:15.999Z</time></trkpt><trkpt lat="39.98880770167349" lon="15.713061017159674"><ele>157.0</ele><time>2026-03-22T11:04:16.999Z</time></trkpt><trkpt lat="39.98897404018227" lon="15.712994235807495"><ele>157.0</ele><time>2026-03-22T11:04:17.999Z</time></trkpt><trkpt lat="39.9891417865341" lon="15.71291048756469"><ele>163.33333333333334</ele><time>2026-03-22T11:04:18.999Z</time></trkpt><trkpt lat="39.98931435248477" lon="15.712830876934591"><ele>169.66666666666666</ele><time>2026-03-22T11:04:19.999Z</time></trkpt><trkpt lat="39.98949008392668" lon="15.71275483621024"><ele>176.0</ele><time>2026-03-22T11:04:20.999Z</time></trkpt><trkpt lat="39.98966333945789" lon="15.712673604296139"><ele>170.0</ele><time>2026-03-22T11:04:21.999Z</time></trkpt><trkpt lat="39.98983476712963" lon="15.71259653027958"><ele>164.0</ele><time>2026-03-22T11:04:22.999Z</time></trkpt><trkpt lat="39.99000809930542" lon="15.712537968190553"><ele>158.0</ele><time>2026-03-22T11:04:23.999Z</time></trkpt><trkpt lat="39.99018650122536" lon="15.712508364759278"><ele>158.0</ele><time>2026-03-22T11:04:24.999Z</time></trkpt><trkpt lat="39.99036746286544" lon="15.712459218266067"><ele>158.0</ele><time>2026-03-22T11:04:25.999Z</time></trkpt><trkpt lat="39.990533847057144" lon="15.71237315792006"><ele>158.0</ele><time>2026-03-22T11:04:26.999Z</time></trkpt><trkpt lat="39.990693572946846" lon="15.712275473500513"><ele>158.33333333333331</ele><time>2026-03-22T11:04:27.999Z</time></trkpt><trkpt lat="39.99084547948558" lon="15.71217955183226"><ele>158.66666666666666</ele><time>2026-03-22T11:04:28.999Z</time></trkpt><trkpt lat="39.99099206901076" lon="15.712094324318569"><ele>159.0</ele><time>2026-03-22T11:04:29.999Z</time></trkpt><trkpt lat="39.9911244820926" lon="15.71202251836199"><ele>159.0</ele><time>2026-03-22T11:04:30.999Z</time></trkpt><trkpt lat="39.991240357745816" lon="15.71195523302672"><ele>159.0</ele><time>2026-03-22T11:04:31.999Z</time></trkpt><trkpt lat="39.99134527379132" lon="15.711905867225557"><ele>159.0</ele><time>2026-03-22T11:04:32.999Z</time></trkpt><trkpt lat="39.99145877821253" lon="15.711910359468705"><ele>159.0</ele><time>2026-03-22T11:04:33.999Z</time></trkpt><trkpt lat="39.99158429427939" lon="15.71198221124223"><ele>149.66666666666666</ele><time>2026-03-22T11:04:34.999Z</time></trkpt><trkpt lat="39.99171402275678" lon="15.712051254029815"><ele>140.33333333333331</ele><time>2026-03-22T11:04:35.999Z</time></trkpt><trkpt lat="39.99183766098022" lon="15.712160383845221"><ele>131.0</ele><time>2026-03-22T11:04:36.999Z</time></trkpt><trkpt lat="39.991964034950946" lon="15.712301395195952"><ele>131.0</ele><time>2026-03-22T11:04:37.999Z</time></trkpt><trkpt lat="39.992075816243386" lon="15.712474582180446"><ele>131.0</ele><time>2026-03-22T11:04:38.999Z</time></trkpt><trkpt lat="39.99218832068075" lon="15.712662064517499"><ele>131.0</ele><time>2026-03-22T11:04:39.999Z</time></trkpt><trkpt lat="39.99230154505862" lon="15.712852394191401"><ele>132.33333333333331</ele><time>2026-03-22T11:04:40.999Z</time></trkpt><trkpt lat="39.9924138834428" lon="15.713032964571896"><ele>133.66666666666666</ele><time>2026-03-22T11:04:41.999Z</time></trkpt><trkpt lat="39.992526807780294" lon="15.713211851365969"><ele>135.0</ele><time>2026-03-22T11:04:42.999Z</time></trkpt><trkpt lat="39.99264548104354" lon="15.713383959105535"><ele>135.0</ele><time>2026-03-22T11:04:43.999Z</time></trkpt><trkpt lat="39.99276907550949" lon="15.713539522900017"><ele>135.0</ele><time>2026-03-22T11:04:44.999Z</time></trkpt><trkpt lat="39.99287759950878" lon="15.713695931696382"><ele>135.0</ele><time>2026-03-22T11:04:45.999Z</time></trkpt><trkpt lat="39.99297243044354" lon="15.713871278648597"><ele>141.66666666666666</ele><time>2026-03-22T11:04:46.999Z</time></trkpt><trkpt lat="39.99306907851228" lon="15.714046877689094"><ele>148.33333333333331</ele><time>2026-03-22T11:04:47.999Z</time></trkpt><trkpt lat="39.99317105455714" lon="15.714212038742495"><ele>155.0</ele><time>2026-03-22T11:04:48.999Z</time></trkpt><trkpt lat="39.9932762789667" lon="15.714363020199407"><ele>157.25</ele><time>2026-03-22T11:04:49.999Z</time></trkpt><trkpt lat="39.99337965578538" lon="15.714500839999046"><ele>159.5</ele><time>2026-03-22T11:04:50.999Z</time></trkpt><trkpt lat="39.993457212866375" lon="15.714640307188818"><ele>161.75</ele><time>2026-03-22T11:04:51.999Z</time></trkpt><trkpt lat="39.993507991765824" lon="15.714774780163175"><ele>164.0</ele><time>2026-03-22T11:04:52.999Z</time></trkpt><trkpt lat="39.99355737944445" lon="15.714894778470056"><ele>163.99999999999997</ele><time>2026-03-22T11:04:53.999Z</time></trkpt><trkpt lat="39.993625684414646" lon="15.714978740270986"><ele>164.0</ele><time>2026-03-22T11:04:54.999Z</time></trkpt><trkpt lat="39.99369148243553" lon="15.715028170578693"><ele>164.0</ele><time>2026-03-22T11:04:55.999Z</time></trkpt><trkpt lat="39.993765490092905" lon="15.715046353413042"><ele>164.0</ele><time>2026-03-22T11:04:56.999Z</time></trkpt><trkpt lat="39.99383133880746" lon="15.715067771675646"><ele>164.0</ele><time>2026-03-22T11:04:57.999Z</time></trkpt><trkpt lat="39.99389031510106" lon="15.715098583111205"><ele>163.99999999999997</ele><time>2026-03-22T11:04:59Z</time></trkpt><trkpt lat="39.993942298935984" lon="15.715156772647832"><ele>164.0</ele><time>2026-03-22T11:05:00Z</time></trkpt><trkpt lat="39.993930993804625" lon="15.715248930029862"><ele>164.2</ele><time>2026-03-22T11:05:01Z</time></trkpt><trkpt lat="39.993933570694956" lon="15.71536295707036"><ele>164.39999999999998</ele><time>2026-03-22T11:05:02Z</time></trkpt><trkpt lat="39.99392411520196" lon="15.715497785228878"><ele>164.6</ele><time>2026-03-22T11:05:03Z</time></trkpt><trkpt lat="39.99391894801731" lon="15.715652188849589"><ele>164.8</ele><time>2026-03-22T11:05:04Z</time></trkpt><trkpt lat="39.993926783058676" lon="15.715815898805026"><ele>165.0</ele><time>2026-03-22T11:05:05Z</time></trkpt><trkpt lat="39.99398231172725" lon="15.715967067006002"><ele>166.75</ele><time>2026-03-22T11:05:06Z</time></trkpt><trkpt lat="39.99403337341082" lon="15.716108951650803"><ele>168.5</ele><time>2026-03-22T11:05:07Z</time></trkpt><trkpt lat="39.9941023056664" lon="15.716240820090981"><ele>170.25</ele><time>2026-03-22T11:05:08Z</time></trkpt><trkpt lat="39.994169011712714" lon="15.71635534947281"><ele>172.0</ele><time>2026-03-22T11:05:09Z</time></trkpt><trkpt lat="39.99424370868054" lon="15.716465131102428"><ele>172.0</ele><time>2026-03-22T11:05:10Z</time></trkpt><trkpt lat="39.99434425891296" lon="15.716554100177143"><ele>172.0</ele><time>2026-03-22T11:05:11Z</time></trkpt><trkpt lat="39.99447374206249" lon="15.716608000503944"><ele>172.0</ele><time>2026-03-22T11:05:12Z</time></trkpt><trkpt lat="39.99461779064497" lon="15.71664247343426"><ele>172.0</ele><time>2026-03-22T11:05:13Z</time></trkpt><trkpt lat="39.99476143165794" lon="15.716674049222435"><ele>172.0</ele><time>2026-03-22T11:05:14Z</time></trkpt><trkpt lat="39.994907485792716" lon="15.716706785332246"><ele>172.0</ele><time>2026-03-22T11:05:15Z</time></trkpt><trkpt lat="39.99505710804777" lon="15.716744405443535"><ele>172.0</ele><time>2026-03-22T11:05:16Z</time></trkpt><trkpt lat="39.99520491461773" lon="15.716789794911813"><ele>173.25</ele><time>2026-03-22T11:05:17Z</time></trkpt><trkpt lat="39.99534309380858" lon="15.716833124799086"><ele>174.5</ele><time>2026-03-22T11:05:18Z</time></trkpt><trkpt lat="39.99547411820563" lon="15.716869356828838"><ele>175.75</ele><time>2026-03-22T11:05:19Z</time></trkpt><trkpt lat="39.995602022204906" lon="15.716905010348514"><ele>177.0</ele><time>2026-03-22T11:05:20Z</time></trkpt><trkpt lat="39.99573040004866" lon="15.716923757843617"><ele>178.25</ele><time>2026-03-22T11:05:21Z</time></trkpt><trkpt lat="39.99585470875315" lon="15.71688956011155"><ele>179.5</ele><time>2026-03-22T11:05:22Z</time></trkpt><trkpt lat="39.9959687100158" lon="15.716810727162446"><ele>180.75</ele><time>2026-03-22T11:05:23Z</time></trkpt><trkpt lat="39.99605677819463" lon="15.716712468372757"><ele>182.0</ele><time>2026-03-22T11:05:24Z</time></trkpt><trkpt lat="39.99612187775825" lon="15.716624222686255"><ele>182.0</ele><time>2026-03-22T11:05:25Z</time></trkpt><trkpt lat="39.99618844047725" lon="15.716578459418265"><ele>182.0</ele><time>2026-03-22T11:05:26Z</time></trkpt><trkpt lat="39.996264865931735" lon="15.716579801612621"><ele>182.0</ele><time>2026-03-22T11:05:27Z</time></trkpt><trkpt lat="39.996346237603284" lon="15.716611797876583"><ele>182.0</ele><time>2026-03-22T11:05:28Z</time></trkpt><trkpt lat="39.996435798455764" lon="15.716646474636923"><ele>182.0</ele><time>2026-03-22T11:05:29Z</time></trkpt><trkpt lat="39.99652897123975" lon="15.716660286913074"><ele>182.0</ele><time>2026-03-22T11:05:30Z</time></trkpt><trkpt lat="39.99662298124597" lon="15.716652723672718"><ele>183.6</ele><time>2026-03-22T11:05:31Z</time></trkpt><trkpt lat="39.996716955230745" lon="15.716624822021165"><ele>185.2</ele><time>2026-03-22T11:05:32Z</time></trkpt><trkpt lat="39.996814622979876" lon="15.716586391724867"><ele>186.8</ele><time>2026-03-22T11:05:33Z</time></trkpt><trkpt lat="39.99691764589001" lon="15.71655885373757"><ele>188.4</ele><time>2026-03-22T11:05:34Z</time></trkpt><trkpt lat="39.99702206154921" lon="15.716562691289843"><ele>190.0</ele><time>2026-03-22T11:05:35Z</time></trkpt><trkpt lat="39.997126443156034" lon="15.716575436714596"><ele>190.0</ele><time>2026-03-22T11:05:36Z</time></trkpt><trkpt lat="39.99722931901075" lon="15.716580923479041"><ele>190.0</ele><time>2026-03-22T11:05:37Z</time></trkpt><trkpt lat="39.99732776384026" lon="15.71657169803794"><ele>190.0</ele><time>2026-03-22T11:05:38Z</time></trkpt><trkpt lat="39.99742421836878" lon="15.716560253738104"><ele>190.0</ele><time>2026-03-22T11:05:39Z</time></trkpt><trkpt lat="39.99751739643119" lon="15.716537110881653"><ele>190.0</ele><time>2026-03-22T11:05:40Z</time></trkpt><trkpt lat="39.99761016358543" lon="15.716514194170735"><ele>190.4</ele><time>2026-03-22T11:05:41Z</time></trkpt><trkpt lat="39.99770606563946" lon="15.716499654452653"><ele>190.8</ele><time>2026-03-22T11:05:42Z</time></trkpt><trkpt lat="39.99780501677194" lon="15.716498084325309"><ele>191.2</ele><time>2026-03-22T11:05:43Z</time></trkpt><trkpt lat="39.997909456686564" lon="15.716508773159864"><ele>191.6</ele><time>2026-03-22T11:05:44Z</time></trkpt><trkpt lat="39.99801290915065" lon="15.716528295792877"><ele>192.0</ele><time>2026-03-22T11:05:45Z</time></trkpt><trkpt lat="39.99811780304541" lon="15.716551914571472"><ele>192.0</ele><time>2026-03-22T11:05:46Z</time></trkpt><trkpt lat="39.99822040401443" lon="15.71657343964923"><ele>192.0</ele><time>2026-03-22T11:05:47Z</time></trkpt><trkpt lat="39.998315525848504" lon="15.716582950081905"><ele>192.0</ele><time>2026-03-22T11:05:48Z</time></trkpt><trkpt lat="39.998408782292216" lon="15.716589367620886"><ele>192.0</ele><time>2026-03-22T11:05:49Z</time></trkpt><trkpt lat="39.99850018272829" lon="15.71658120781797"><ele>192.0</ele><time>2026-03-22T11:05:50Z</time></trkpt><trkpt lat="39.99858660712996" lon="15.716550625511958"><ele>192.5</ele><time>2026-03-22T11:05:51Z</time></trkpt><trkpt lat="39.99866995519686" lon="15.716518848129137"><ele>193.0</ele><time>2026-03-22T11:05:52Z</time></trkpt><trkpt lat="39.99875032402212" lon="15.716495593250688"><ele>193.5</ele><time>2026-03-22T11:05:53Z</time></trkpt><trkpt lat="39.99882331524842" lon="15.716489587987855"><ele>194.0</ele><time>2026-03-22T11:05:54Z</time></trkpt><trkpt lat="39.99892637456938" lon="15.71652971999961"><ele>194.5</ele><time>2026-03-22T11:05:56Z</time></trkpt><trkpt lat="39.998999077425424" lon="15.716585131804381"><ele>195.0</ele><time>2026-03-22T11:05:58Z</time></trkpt><trkpt lat="39.99910502459151" lon="15.716698320452565"><ele>194.8</ele><time>2026-03-22T11:06:00Z</time></trkpt><trkpt lat="39.999174410383915" lon="15.71677518446489"><ele>194.6</ele><time>2026-03-22T11:06:01Z</time></trkpt><trkpt lat="39.99924391024204" lon="15.716856970302656"><ele>194.39999999999998</ele><time>2026-03-22T11:06:02Z</time></trkpt><trkpt lat="39.99931820999568" lon="15.716943547599348"><ele>194.2</ele><time>2026-03-22T11:06:03Z</time></trkpt><trkpt lat="39.99940003333575" lon="15.717026426559727"><ele>194.0</ele><time>2026-03-22T11:06:04Z</time></trkpt><trkpt lat="39.99948932358954" lon="15.71710746224659"><ele>195.6</ele><time>2026-03-22T11:06:05Z</time></trkpt><trkpt lat="39.999585466172526" lon="15.717175427909316"><ele>197.2</ele><time>2026-03-22T11:06:06Z</time></trkpt><trkpt lat="39.99968623420872" lon="15.717224871196857"><ele>198.79999999999998</ele><time>2026-03-22T11:06:07Z</time></trkpt><trkpt lat="39.9997797683802" lon="15.717285500284081"><ele>200.39999999999998</ele><time>2026-03-22T11:06:08Z</time></trkpt><trkpt lat="39.999863517831656" lon="15.717333393828842"><ele>202.0</ele><time>2026-03-22T11:06:09Z</time></trkpt><trkpt lat="39.99993817867251" lon="15.717369163494634"><ele>201.99999999999997</ele><time>2026-03-22T11:06:10Z</time></trkpt><trkpt lat="39.999983228861026" lon="15.717443126176528"><ele>202.0</ele><time>2026-03-22T11:06:11Z</time></trkpt><trkpt lat="39.99999817141759" lon="15.717579806514028"><ele>202.0</ele><time>2026-03-22T11:06:13Z</time></trkpt><trkpt lat="39.9999498023581" lon="15.717641808840373"><ele>202.0</ele><time>2026-03-22T11:06:15Z</time></trkpt><trkpt lat="39.999867888825236" lon="15.717688663343921"><ele>201.99999999999997</ele><time>2026-03-22T11:06:17Z</time></trkpt><trkpt lat="39.999798751919755" lon="15.717654326473244"><ele>202.0</ele><time>2026-03-22T11:06:18Z</time></trkpt><trkpt lat="39.99972760313756" lon="15.717625781730383"><ele>201.99999999999997</ele><time>2026-03-22T11:06:19Z</time></trkpt><trkpt lat="39.999649426370894" lon="15.717601441484641"><ele>202.0</ele><time>2026-03-22T11:06:20Z</time></trkpt><trkpt lat="39.9995674765388" lon="15.71757352891609"><ele>202.0</ele><time>2026-03-22T11:06:21Z</time></trkpt><trkpt lat="39.999490795743355" lon="15.717551573045226"><ele>202.0</ele><time>2026-03-22T11:06:22Z</time></trkpt><trkpt lat="39.999407392574966" lon="15.717531560888455"><ele>201.99999999999997</ele><time>2026-03-22T11:06:22.999Z</time></trkpt><trkpt lat="39.99931917114742" lon="15.717523532241202"><ele>202.0</ele><time>2026-03-22T11:06:23.999Z</time></trkpt><trkpt lat="39.99923177578243" lon="15.717533828565347"><ele>202.8</ele><time>2026-03-22T11:06:24.999Z</time></trkpt><trkpt lat="39.99914197296155" lon="15.717527304230835"><ele>203.6</ele><time>2026-03-22T11:06:25.999Z</time></trkpt><trkpt lat="39.999054968276056" lon="15.717553439721378"><ele>204.4</ele><time>2026-03-22T11:06:26.999Z</time></trkpt><trkpt lat="39.998970433129166" lon="15.717594319740066"><ele>205.20000000000002</ele><time>2026-03-22T11:06:27.999Z</time></trkpt><trkpt lat="39.998888869696685" lon="15.717654527397501"><ele>206.0</ele><time>2026-03-22T11:06:28.999Z</time></trkpt><trkpt lat="39.99881380621923" lon="15.717719988797596"><ele>207.50000000000003</ele><time>2026-03-22T11:06:29.999Z</time></trkpt><trkpt lat="39.99874823224138" lon="15.717799348029006"><ele>209.0</ele><time>2026-03-22T11:06:30.999Z</time></trkpt><trkpt lat="39.99868587576924" lon="15.717884818897323"><ele>210.5</ele><time>2026-03-22T11:06:31.999Z</time></trkpt><trkpt lat="39.99863308145545" lon="15.71797808952548"><ele>212.0</ele><time>2026-03-22T11:06:32.999Z</time></trkpt><trkpt lat="39.998592243794675" lon="15.718073276861379"><ele>213.50000000000003</ele><time>2026-03-22T11:06:33.999Z</time></trkpt><trkpt lat="39.99856384978053" lon="15.718161315511603"><ele>215.0</ele><time>2026-03-22T11:06:34.999Z</time></trkpt><trkpt lat="39.99854266618243" lon="15.718242688193655"><ele>215.0</ele><time>2026-03-22T11:06:35.999Z</time></trkpt><trkpt lat="39.99851540224443" lon="15.718375983960701"><ele>215.0</ele><time>2026-03-22T11:06:37.999Z</time></trkpt><trkpt lat="39.99877318041067" lon="15.71842886727742"><ele>215.0</ele><time>2026-03-22T11:06:40.999Z</time></trkpt><trkpt lat="39.998852684880575" lon="15.71839533047676"><ele>215.00000000000003</ele><time>2026-03-22T11:06:41.999Z</time></trkpt><trkpt lat="39.99894144459231" lon="15.718410576946054"><ele>215.0</ele><time>2026-03-22T11:06:42.999Z</time></trkpt><trkpt lat="39.999020070692495" lon="15.718465912330222"><ele>215.0</ele><time>2026-03-22T11:06:43.999Z</time></trkpt><trkpt lat="39.99906419187414" lon="15.718555352816209"><ele>215.0</ele><time>2026-03-22T11:06:44.999Z</time></trkpt><trkpt lat="39.99911711927156" lon="15.718629043725826"><ele>215.00000000000003</ele><time>2026-03-22T11:06:45.999Z</time></trkpt><trkpt lat="39.99917691314121" lon="15.718712294836765"><ele>215.0</ele><time>2026-03-22T11:06:46.999Z</time></trkpt><trkpt lat="39.9992445891048" lon="15.71880652007373"><ele>216.4</ele><time>2026-03-22T11:06:47.999Z</time></trkpt><trkpt lat="39.9993125089257" lon="15.71890535580801"><ele>217.8</ele><time>2026-03-22T11:06:48.999Z</time></trkpt><trkpt lat="39.99938346663385" lon="15.719008738808187"><ele>219.2</ele><time>2026-03-22T11:06:49.999Z</time></trkpt><trkpt lat="39.99946627085305" lon="15.71911305077049"><ele>220.6</ele><time>2026-03-22T11:06:50.999Z</time></trkpt><trkpt lat="39.99956280560082" lon="15.719189936542968"><ele>222.0</ele><time>2026-03-22T11:06:51.999Z</time></trkpt><trkpt lat="39.999654657862145" lon="15.719273359698573"><ele>222.0</ele><time>2026-03-22T11:06:52.999Z</time></trkpt><trkpt lat="39.999755927127744" lon="15.719341102064554"><ele>222.0</ele><time>2026-03-22T11:06:53.999Z</time></trkpt><trkpt lat="39.99985819502769" lon="15.71939416340978"><ele>222.0</ele><time>2026-03-22T11:06:54.999Z</time></trkpt><trkpt lat="39.99996120949357" lon="15.719443067963104"><ele>222.0</ele><time>2026-03-22T11:06:55.999Z</time></trkpt><trkpt lat="40.000049983868415" lon="15.719524058355937"><ele>222.0</ele><time>2026-03-22T11:06:56.999Z</time></trkpt><trkpt lat="40.00013468499301" lon="15.719610098944399"><ele>223.8</ele><time>2026-03-22T11:06:57.999Z</time></trkpt><trkpt lat="40.00020291060174" lon="15.719714246918006"><ele>225.6</ele><time>2026-03-22T11:06:58.999Z</time></trkpt><trkpt lat="40.000249953191236" lon="15.71982482807223"><ele>227.40000000000003</ele><time>2026-03-22T11:06:59.999Z</time></trkpt><trkpt lat="40.00027834402839" lon="15.71993930333541"><ele>229.20000000000002</ele><time>2026-03-22T11:07:00.999Z</time></trkpt><trkpt lat="40.00029595508475" lon="15.720065211239206"><ele>231.0</ele><time>2026-03-22T11:07:01.999Z</time></trkpt><trkpt lat="40.00030856298413" lon="15.720200845822484"><ele>232.25</ele><time>2026-03-22T11:07:02.999Z</time></trkpt><trkpt lat="40.000321045410146" lon="15.720346385590624"><ele>233.5</ele><time>2026-03-22T11:07:03.999Z</time></trkpt><trkpt lat="40.000333595498354" lon="15.720492714259644"><ele>234.75</ele><time>2026-03-22T11:07:05Z</time></trkpt><trkpt lat="40.000349258096044" lon="15.720642730497504"><ele>236.0</ele><time>2026-03-22T11:07:06Z</time></trkpt><trkpt lat="40.000365649114" lon="15.720792053659173"><ele>236.0</ele><time>2026-03-22T11:07:07Z</time></trkpt><trkpt lat="40.0003794259398" lon="15.720940737420872"><ele>236.00000000000003</ele><time>2026-03-22T11:07:08Z</time></trkpt><trkpt lat="40.00039201518491" lon="15.721080837604507"><ele>236.00000000000003</ele><time>2026-03-22T11:07:09Z</time></trkpt><trkpt lat="40.000404157442745" lon="15.721204315399644"><ele>236.0</ele><time>2026-03-22T11:07:10Z</time></trkpt><trkpt lat="40.00041378701702" lon="15.721297904441933"><ele>236.0</ele><time>2026-03-22T11:07:11Z</time></trkpt><trkpt lat="40.00042219605763" lon="15.721429197877017"><ele>237.4</ele><time>2026-03-22T11:07:13Z</time></trkpt><trkpt lat="40.00042602237677" lon="15.721516163096018"><ele>238.8</ele><time>2026-03-22T11:07:17Z</time></trkpt><trkpt lat="40.000619871739715" lon="15.721529213187445"><ele>240.20000000000002</ele><time>2026-03-22T11:07:19Z</time></trkpt><trkpt lat="40.00069842804853" lon="15.721507500769862"><ele>241.60000000000002</ele><time>2026-03-22T11:07:20Z</time></trkpt><trkpt lat="40.00078722294467" lon="15.721509308204773"><ele>243.0</ele><time>2026-03-22T11:07:21Z</time></trkpt><trkpt lat="40.0008838151891" lon="15.721508606597657"><ele>243.60000000000002</ele><time>2026-03-22T11:07:22Z</time></trkpt><trkpt lat="40.000988160230705" lon="15.721505118951672"><ele>244.20000000000002</ele><time>2026-03-22T11:07:23Z</time></trkpt><trkpt lat="40.00110078558617" lon="15.721503751143448"><ele>244.8</ele><time>2026-03-22T11:07:24Z</time></trkpt><trkpt lat="40.00121203324185" lon="15.721501983182419"><ele>245.4</ele><time>2026-03-22T11:07:25Z</time></trkpt><trkpt lat="40.00131666805415" lon="15.72149886751181"><ele>246.0</ele><time>2026-03-22T11:07:26Z</time></trkpt><trkpt lat="40.001423315393325" lon="15.721495896596403"><ele>246.0</ele><time>2026-03-22T11:07:27Z</time></trkpt><trkpt lat="40.00152886423799" lon="15.721495565307258"><ele>246.00000000000003</ele><time>2026-03-22T11:07:28Z</time></trkpt><trkpt lat="40.00163808271839" lon="15.721498551620055"><ele>246.00000000000003</ele><time>2026-03-22T11:07:29Z</time></trkpt><trkpt lat="40.00174639053772" lon="15.721504617662703"><ele>246.0</ele><time>2026-03-22T11:07:30Z</time></trkpt><trkpt lat="40.00185390496996" lon="15.721508532786146"><ele>246.0</ele><time>2026-03-22T11:07:31Z</time></trkpt><trkpt lat="40.00195839207412" lon="15.721512871328315"><ele>244.60000000000002</ele><time>2026-03-22T11:07:32Z</time></trkpt><trkpt lat="40.00206436275006" lon="15.721519432731572"><ele>243.20000000000002</ele><time>2026-03-22T11:07:33Z</time></trkpt><trkpt lat="40.00215472465983" lon="15.721533051637465"><ele>241.79999999999998</ele><time>2026-03-22T11:07:34Z</time></trkpt><trkpt lat="40.00223801597609" lon="15.721555020289241"><ele>240.39999999999998</ele><time>2026-03-22T11:07:35Z</time></trkpt><trkpt lat="40.00232165270923" lon="15.721586158931968"><ele>239.0</ele><time>2026-03-22T11:07:36Z</time></trkpt><trkpt lat="40.00239168783723" lon="15.721650384062249"><ele>239.0</ele><time>2026-03-22T11:07:37Z</time></trkpt><trkpt lat="40.00247058685956" lon="15.721718763218012"><ele>238.99999999999997</ele><time>2026-03-22T11:07:38Z</time></trkpt><trkpt lat="40.00256261181106" lon="15.721776648331122"><ele>238.99999999999997</ele><time>2026-03-22T11:07:39Z</time></trkpt><trkpt lat="40.00263425848377" lon="15.721874828223191"><ele>239.0</ele><time>2026-03-22T11:07:40Z</time></trkpt><trkpt lat="40.00271457065227" lon="15.72195906189293"><ele>239.0</ele><time>2026-03-22T11:07:41Z</time></trkpt><trkpt lat="40.00279244757296" lon="15.722041634377375"><ele>241.79999999999998</ele><time>2026-03-22T11:07:42Z</time></trkpt><trkpt lat="40.002867293355976" lon="15.72212099295708"><ele>244.59999999999997</ele><time>2026-03-22T11:07:43Z</time></trkpt><trkpt lat="40.00293961712946" lon="15.722194157767536"><ele>247.4</ele><time>2026-03-22T11:07:44Z</time></trkpt><trkpt lat="40.003009666168" lon="15.722262036436376"><ele>250.2</ele><time>2026-03-22T11:07:45Z</time></trkpt><trkpt lat="40.003095685837586" lon="15.722296757348643"><ele>253.0</ele><time>2026-03-22T11:07:46Z</time></trkpt><trkpt lat="40.0031887102119" lon="15.722307360214105"><ele>253.0</ele><time>2026-03-22T11:07:47Z</time></trkpt><trkpt lat="40.003286709212645" lon="15.722274490498698"><ele>253.0</ele><time>2026-03-22T11:07:48Z</time></trkpt><trkpt lat="40.00338469448688" lon="15.722222493117963"><ele>253.0</ele><time>2026-03-22T11:07:49Z</time></trkpt><trkpt lat="40.00348147450324" lon="15.722193571130438"><ele>253.0</ele><time>2026-03-22T11:07:50Z</time></trkpt><trkpt lat="40.00357977712898" lon="15.72220544652714"><ele>253.0</ele><time>2026-03-22T11:07:51Z</time></trkpt><trkpt lat="40.00367183477024" lon="15.722230582576907"><ele>253.60000000000002</ele><time>2026-03-22T11:07:52Z</time></trkpt><trkpt lat="40.003762520571605" lon="15.722232929344905"><ele>254.20000000000002</ele><time>2026-03-22T11:07:53Z</time></trkpt><trkpt lat="40.003851124548085" lon="15.722191423652406"><ele>254.8</ele><time>2026-03-22T11:07:54Z</time></trkpt><trkpt lat="40.00393244154251" lon="15.72211340649627"><ele>255.4</ele><time>2026-03-22T11:07:55Z</time></trkpt><trkpt lat="40.00400021028193" lon="15.721997321286054"><ele>256.0</ele><time>2026-03-22T11:07:56Z</time></trkpt><trkpt lat="40.00406218149007" lon="15.721866531205825"><ele>253.5</ele><time>2026-03-22T11:07:57Z</time></trkpt><trkpt lat="40.00413499795125" lon="15.721739850457539"><ele>251.0</ele><time>2026-03-22T11:07:58Z</time></trkpt><trkpt lat="40.004220166969475" lon="15.721630987601804"><ele>248.5</ele><time>2026-03-22T11:07:59Z</time></trkpt><trkpt lat="40.00431147779596" lon="15.721530997048175"><ele>246.0</ele><time>2026-03-22T11:08:00Z</time></trkpt><trkpt lat="40.00439555901852" lon="15.721437549787701"><ele>246.0</ele><time>2026-03-22T11:08:01Z</time></trkpt><trkpt lat="40.00447581774441" lon="15.721362193568655"><ele>246.00000000000003</ele><time>2026-03-22T11:08:02Z</time></trkpt><trkpt lat="40.00456994437995" lon="15.721311081848713"><ele>246.00000000000003</ele><time>2026-03-22T11:08:03Z</time></trkpt><trkpt lat="40.004657372561134" lon="15.721274403088552"><ele>246.0</ele><time>2026-03-22T11:08:04Z</time></trkpt><trkpt lat="40.0047503294145" lon="15.721236738774191"><ele>246.0</ele><time>2026-03-22T11:08:05Z</time></trkpt><trkpt lat="40.00483414467209" lon="15.72117579501519"><ele>246.0</ele><time>2026-03-22T11:08:06Z</time></trkpt><trkpt lat="40.004913861495" lon="15.72109413182698"><ele>246.0</ele><time>2026-03-22T11:08:07Z</time></trkpt><trkpt lat="40.004979167697236" lon="15.721020370081206"><ele>246.0</ele><time>2026-03-22T11:08:08Z</time></trkpt><trkpt lat="40.005028853081875" lon="15.720958261657438"><ele>246.0</ele><time>2026-03-22T11:08:09Z</time></trkpt><trkpt lat="40.005072823177585" lon="15.720895559901873"><ele>246.0</ele><time>2026-03-22T11:08:10Z</time></trkpt><trkpt lat="40.00516471051127" lon="15.720810835412017"><ele>246.0</ele><time>2026-03-22T11:08:12Z</time></trkpt><trkpt lat="40.00522956916027" lon="15.72079536826103"><ele>246.16666666666666</ele><time>2026-03-22T11:08:13Z</time></trkpt><trkpt lat="40.00531267098666" lon="15.720787093801539"><ele>246.33333333333331</ele><time>2026-03-22T11:08:14Z</time></trkpt><trkpt lat="40.00540674940757" lon="15.720787677613018"><ele>246.5</ele><time>2026-03-22T11:08:15Z</time></trkpt><trkpt lat="40.00549684989468" lon="15.720800053137467"><ele>246.66666666666666</ele><time>2026-03-22T11:08:16Z</time></trkpt><trkpt lat="40.005576395928514" lon="15.720822238516215"><ele>246.83333333333331</ele><time>2026-03-22T11:08:17Z</time></trkpt><trkpt lat="40.00565452731758" lon="15.720853020316572"><ele>247.0</ele><time>2026-03-22T11:08:18Z</time></trkpt><trkpt lat="40.0057328056446" lon="15.720899504840903"><ele>247.0</ele><time>2026-03-22T11:08:19Z</time></trkpt><trkpt lat="40.00581319819601" lon="15.720958139840896"><ele>247.0</ele><time>2026-03-22T11:08:20Z</time></trkpt><trkpt lat="40.00589619808691" lon="15.721009087044472"><ele>247.0</ele><time>2026-03-22T11:08:21Z</time></trkpt><trkpt lat="40.00598688508898" lon="15.721035928716788"><ele>247.0</ele><time>2026-03-22T11:08:22Z</time></trkpt><trkpt lat="40.006077100346175" lon="15.721043228763588"><ele>247.0</ele><time>2026-03-22T11:08:23Z</time></trkpt><trkpt lat="40.00616325618672" lon="15.721055364178378"><ele>249.66666666666666</ele><time>2026-03-22T11:08:24Z</time></trkpt><trkpt lat="40.00624687148293" lon="15.721077477824798"><ele>252.33333333333331</ele><time>2026-03-22T11:08:25Z</time></trkpt><trkpt lat="40.00633267631812" lon="15.721107818429305"><ele>255.0</ele><time>2026-03-22T11:08:26Z</time></trkpt><trkpt lat="40.00641653690097" lon="15.72113749041063"><ele>257.6666666666667</ele><time>2026-03-22T11:08:27Z</time></trkpt><trkpt lat="40.006471915935236" lon="15.72119999489887"><ele>260.33333333333337</ele><time>2026-03-22T11:08:28Z</time></trkpt><trkpt lat="40.00658062904392" lon="15.721213143129043"><ele>263.0</ele><time>2026-03-22T11:08:29Z</time></trkpt><trkpt lat="40.00665312877986" lon="15.721258343835848"><ele>264.1428571428571</ele><time>2026-03-22T11:08:30Z</time></trkpt><trkpt lat="40.0067223538269" lon="15.72129920695038"><ele>265.2857142857143</ele><time>2026-03-22T11:08:31Z</time></trkpt><trkpt lat="40.006783042101176" lon="15.721351424976493"><ele>266.42857142857144</ele><time>2026-03-22T11:08:31.999Z</time></trkpt><trkpt lat="40.00684091003448" lon="15.721409001182261"><ele>267.57142857142856</ele><time>2026-03-22T11:08:32.999Z</time></trkpt><trkpt lat="40.0068999150049" lon="15.721466825392351"><ele>268.7142857142857</ele><time>2026-03-22T11:08:33.999Z</time></trkpt><trkpt lat="40.0069613464645" lon="15.721524660259467"><ele>269.85714285714283</ele><time>2026-03-22T11:08:34.999Z</time></trkpt><trkpt lat="40.00702264484942" lon="15.721582410087532"><ele>271.0</ele><time>2026-03-22T11:08:35.999Z</time></trkpt><trkpt lat="40.00708748219921" lon="15.721634062724453"><ele>271.0</ele><time>2026-03-22T11:08:36.999Z</time></trkpt><trkpt lat="40.00715622368169" lon="15.721682507399997"><ele>271.0</ele><time>2026-03-22T11:08:37.999Z</time></trkpt><trkpt lat="40.007226088185305" lon="15.721729585231333"><ele>271.0</ele><time>2026-03-22T11:08:38.999Z</time></trkpt><trkpt lat="40.00730288482285" lon="15.72176799746556"><ele>271.0</ele><time>2026-03-22T11:08:39.999Z</time></trkpt><trkpt lat="40.00738334220292" lon="15.721797241040608"><ele>271.0</ele><time>2026-03-22T11:08:40.999Z</time></trkpt><trkpt lat="40.0074652859394" lon="15.721821265828309"><ele>271.0</ele><time>2026-03-22T11:08:41.999Z</time></trkpt><trkpt lat="40.00754939192005" lon="15.721847721179167"><ele>272.75</ele><time>2026-03-22T11:08:42.999Z</time></trkpt><trkpt lat="40.007646485636435" lon="15.721880532623087"><ele>274.5</ele><time>2026-03-22T11:08:43.999Z</time></trkpt><trkpt lat="40.00776006503849" lon="15.721922957270037"><ele>276.25</ele><time>2026-03-22T11:08:44.999Z</time></trkpt><trkpt lat="40.007878614964" lon="15.721961330199127"><ele>278.0</ele><time>2026-03-22T11:08:45.999Z</time></trkpt><trkpt lat="40.00800491482532" lon="15.721984212281383"><ele>278.0</ele><time>2026-03-22T11:08:46.999Z</time></trkpt><trkpt lat="40.00813850947226" lon="15.721981399749486"><ele>278.0</ele><time>2026-03-22T11:08:47.999Z</time></trkpt><trkpt lat="40.00827994775477" lon="15.721980117562817"><ele>278.0</ele><time>2026-03-22T11:08:48.999Z</time></trkpt><trkpt lat="40.008429202061876" lon="15.72201063457102"><ele>278.0</ele><time>2026-03-22T11:08:49.999Z</time></trkpt><trkpt lat="40.00857271159299" lon="15.722071200474888"><ele>277.5</ele><time>2026-03-22T11:08:50.999Z</time></trkpt><trkpt lat="40.008714737465354" lon="15.72214124690813"><ele>277.0</ele><time>2026-03-22T11:08:51.999Z</time></trkpt><trkpt lat="40.00883531066916" lon="15.722199065114213"><ele>276.5</ele><time>2026-03-22T11:08:52.999Z</time></trkpt><trkpt lat="40.00894116724502" lon="15.722243841488446"><ele>276.0</ele><time>2026-03-22T11:08:53.999Z</time></trkpt><trkpt lat="40.009033391511004" lon="15.722245862345915"><ele>276.0</ele><time>2026-03-22T11:08:54.999Z</time></trkpt><trkpt lat="40.009131402995116" lon="15.722205424447697"><ele>276.0</ele><time>2026-03-22T11:08:55.999Z</time></trkpt><trkpt lat="40.00921993923834" lon="15.722122985726697"><ele>276.0</ele><time>2026-03-22T11:08:56.999Z</time></trkpt><trkpt lat="40.00930176812529" lon="15.722050371089049"><ele>276.0</ele><time>2026-03-22T11:08:57.999Z</time></trkpt><trkpt lat="40.00939793608884" lon="15.722025102550816"><ele>276.0</ele><time>2026-03-22T11:08:58.999Z</time></trkpt><trkpt lat="40.00950780518279" lon="15.722006588691352"><ele>275.0</ele><time>2026-03-22T11:08:59.999Z</time></trkpt><trkpt lat="40.00963841209387" lon="15.721984202156877"><ele>274.0</ele><time>2026-03-22T11:09:00.999Z</time></trkpt><trkpt lat="40.00976214980409" lon="15.721960956848783"><ele>273.0</ele><time>2026-03-22T11:09:01.999Z</time></trkpt><trkpt lat="40.00987107385167" lon="15.721929982132833"><ele>272.0</ele><time>2026-03-22T11:09:02.999Z</time></trkpt><trkpt lat="40.00996472031557" lon="15.721871030697612"><ele>274.0</ele><time>2026-03-22T11:09:03.999Z</time></trkpt><trkpt lat="40.01004083974764" lon="15.721774643397431"><ele>276.0</ele><time>2026-03-22T11:09:04.999Z</time></trkpt><trkpt lat="40.01010308973764" lon="15.721647573437512"><ele>278.0</ele><time>2026-03-22T11:09:05.999Z</time></trkpt><trkpt lat="40.01014594203486" lon="15.72150250430695"><ele>280.0</ele><time>2026-03-22T11:09:06.999Z</time></trkpt><trkpt lat="40.01017818964095" lon="15.721354345365373"><ele>280.0</ele><time>2026-03-22T11:09:07.999Z</time></trkpt><trkpt lat="40.01021985301701" lon="15.721203424630023"><ele>280.0</ele><time>2026-03-22T11:09:08.999Z</time></trkpt><trkpt lat="40.01026788919314" lon="15.721045316016172"><ele>280.0</ele><time>2026-03-22T11:09:09.999Z</time></trkpt><trkpt lat="40.01031388296193" lon="15.72088782507016"><ele>280.0</ele><time>2026-03-22T11:09:11Z</time></trkpt><trkpt lat="40.0103536649599" lon="15.720728044474573"><ele>280.0</ele><time>2026-03-22T11:09:12Z</time></trkpt><trkpt lat="40.01038177807551" lon="15.720571281949367"><ele>280.0</ele><time>2026-03-22T11:09:13Z</time></trkpt><trkpt lat="40.01039525110331" lon="15.720418681517579"><ele>280.0</ele><time>2026-03-22T11:09:14Z</time></trkpt><trkpt lat="40.010394422007394" lon="15.720275049384213"><ele>280.0</ele><time>2026-03-22T11:09:15Z</time></trkpt><trkpt lat="40.010372954435155" lon="15.720130151986266"><ele>280.5</ele><time>2026-03-22T11:09:16Z</time></trkpt><trkpt lat="40.01032864438047" lon="15.719987334382596"><ele>281.0</ele><time>2026-03-22T11:09:17Z</time></trkpt><trkpt lat="40.010264494977385" lon="15.719843631355051"><ele>281.5</ele><time>2026-03-22T11:09:18Z</time></trkpt><trkpt lat="40.0101865512805" lon="15.719702748388336"><ele>282.0</ele><time>2026-03-22T11:09:19Z</time></trkpt><trkpt lat="40.01010367989827" lon="15.719565127647932"><ele>282.0</ele><time>2026-03-22T11:09:20Z</time></trkpt><trkpt lat="40.01002459690433" lon="15.719427319389094"><ele>282.0</ele><time>2026-03-22T11:09:21Z</time></trkpt><trkpt lat="40.00995047069433" lon="15.719282685228036"><ele>282.0</ele><time>2026-03-22T11:09:22Z</time></trkpt><trkpt lat="40.009894846420806" lon="15.719144058566684"><ele>282.0</ele><time>2026-03-22T11:09:23Z</time></trkpt><trkpt lat="40.009863148941974" lon="15.71899896907284"><ele>279.25</ele><time>2026-03-22T11:09:24Z</time></trkpt><trkpt lat="40.0098534659553" lon="15.718850964156893"><ele>276.5</ele><time>2026-03-22T11:09:25Z</time></trkpt><trkpt lat="40.00986313201343" lon="15.718694405350709"><ele>273.75</ele><time>2026-03-22T11:09:26Z</time></trkpt><trkpt lat="40.00989360108333" lon="15.718536685862631"><ele>271.0</ele><time>2026-03-22T11:09:27Z</time></trkpt><trkpt lat="40.009946528030206" lon="15.7184003912876"><ele>274.2</ele><time>2026-03-22T11:09:28Z</time></trkpt><trkpt lat="40.01001823878" lon="15.718309595548684"><ele>277.40000000000003</ele><time>2026-03-22T11:09:29Z</time></trkpt><trkpt lat="40.01010292026133" lon="15.718262004711171"><ele>280.6</ele><time>2026-03-22T11:09:30Z</time></trkpt><trkpt lat="40.01020277920032" lon="15.718242454070559"><ele>283.8</ele><time>2026-03-22T11:09:31Z</time></trkpt><trkpt lat="40.01031024463572" lon="15.71824331306405"><ele>287.0</ele><time>2026-03-22T11:09:32Z</time></trkpt><trkpt lat="40.01042765771313" lon="15.718268948530069"><ele>287.0</ele><time>2026-03-22T11:09:33Z</time></trkpt><trkpt lat="40.01054238633733" lon="15.718318466670326"><ele>287.0</ele><time>2026-03-22T11:09:34Z</time></trkpt><trkpt lat="40.01062099091813" lon="15.718438568354438"><ele>287.0</ele><time>2026-03-22T11:09:35Z</time></trkpt><trkpt lat="40.010650817628175" lon="15.718562216445765"><ele>287.0</ele><time>2026-03-22T11:09:36Z</time></trkpt><trkpt lat="40.010685122755326" lon="15.718696211003474"><ele>287.0</ele><time>2026-03-22T11:09:37Z</time></trkpt><trkpt lat="40.010719438993846" lon="15.718866784067723"><ele>286.5</ele><time>2026-03-22T11:09:38Z</time></trkpt><trkpt lat="40.01074862959005" lon="15.719036876737668"><ele>286.0</ele><time>2026-03-22T11:09:39Z</time></trkpt><trkpt lat="40.010776064721746" lon="15.71920619053393"><ele>285.5</ele><time>2026-03-22T11:09:40Z</time></trkpt><trkpt lat="40.010800465682095" lon="15.719371130934668"><ele>285.0</ele><time>2026-03-22T11:09:41Z</time></trkpt><trkpt lat="40.010829417360135" lon="15.719548091488086"><ele>287.75</ele><time>2026-03-22T11:09:42Z</time></trkpt><trkpt lat="40.01086346353786" lon="15.719727323756432"><ele>290.5</ele><time>2026-03-22T11:09:43Z</time></trkpt><trkpt lat="40.01091156607138" lon="15.719908241092893"><ele>293.25</ele><time>2026-03-22T11:09:44Z</time></trkpt><trkpt lat="40.01096330308361" lon="15.720093636783876"><ele>296.0</ele><time>2026-03-22T11:09:45Z</time></trkpt><trkpt lat="40.01101710502737" lon="15.720279711960996"><ele>296.0</ele><time>2026-03-22T11:09:46Z</time></trkpt><trkpt lat="40.01107104523671" lon="15.72047271117895"><ele>296.0</ele><time>2026-03-22T11:09:47Z</time></trkpt><trkpt lat="40.01112371822208" lon="15.720661176140819"><ele>296.0</ele><time>2026-03-22T11:09:48Z</time></trkpt><trkpt lat="40.01118001515527" lon="15.720849098750268"><ele>296.0</ele><time>2026-03-22T11:09:49Z</time></trkpt><trkpt lat="40.0112392587247" lon="15.721035227297536"><ele>296.0</ele><time>2026-03-22T11:09:50Z</time></trkpt><trkpt lat="40.011321548852116" lon="15.72122620678604"><ele>296.0</ele><time>2026-03-22T11:09:51Z</time></trkpt><trkpt lat="40.011407962978396" lon="15.721410653933594"><ele>295.33333333333337</ele><time>2026-03-22T11:09:52Z</time></trkpt><trkpt lat="40.011498714200094" lon="15.721591285602148"><ele>294.6666666666667</ele><time>2026-03-22T11:09:53Z</time></trkpt><trkpt lat="40.01158390689503" lon="15.721758888925109"><ele>294.0</ele><time>2026-03-22T11:09:54Z</time></trkpt><trkpt lat="40.011660093808445" lon="15.721910831950598"><ele>297.25</ele><time>2026-03-22T11:09:55Z</time></trkpt><trkpt lat="40.01173306992339" lon="15.722056479590954"><ele>300.5</ele><time>2026-03-22T11:09:56Z</time></trkpt><trkpt lat="40.01180231438119" lon="15.722196964154454"><ele>303.75</ele><time>2026-03-22T11:09:57Z</time></trkpt><trkpt lat="40.011870263924735" lon="15.722334772197897"><ele>307.0</ele><time>2026-03-22T11:09:58Z</time></trkpt><trkpt lat="40.01194050690564" lon="15.722477275519708"><ele>307.0</ele><time>2026-03-22T11:09:59Z</time></trkpt><trkpt lat="40.012014742893705" lon="15.722616555669081"><ele>307.0</ele><time>2026-03-22T11:10:00Z</time></trkpt><trkpt lat="40.01208435505561" lon="15.72275351932241"><ele>307.0</ele><time>2026-03-22T11:10:01Z</time></trkpt><trkpt lat="40.01214357644656" lon="15.722885962219356"><ele>307.0</ele><time>2026-03-22T11:10:02Z</time></trkpt><trkpt lat="40.01218621039268" lon="15.723015213975616"><ele>306.8</ele><time>2026-03-22T11:10:03Z</time></trkpt><trkpt lat="40.012194417425526" lon="15.72313734648933"><ele>306.6</ele><time>2026-03-22T11:10:04Z</time></trkpt><trkpt lat="40.01217691829092" lon="15.72324995916647"><ele>306.40000000000003</ele><time>2026-03-22T11:10:05Z</time></trkpt><trkpt lat="40.01214245869682" lon="15.723371026762797"><ele>306.2</ele><time>2026-03-22T11:10:06Z</time></trkpt><trkpt lat="40.012085981386576" lon="15.72350361109177"><ele>306.0</ele><time>2026-03-22T11:10:07Z</time></trkpt><trkpt lat="40.01202170652937" lon="15.7236481590079"><ele>307.75</ele><time>2026-03-22T11:10:08Z</time></trkpt><trkpt lat="40.01195736183238" lon="15.723795709908549"><ele>309.5</ele><time>2026-03-22T11:10:09Z</time></trkpt><trkpt lat="40.011895627395255" lon="15.723942417307226"><ele>311.25</ele><time>2026-03-22T11:10:10Z</time></trkpt><trkpt lat="40.01183301888253" lon="15.724092528753838"><ele>313.0</ele><time>2026-03-22T11:10:11Z</time></trkpt><trkpt lat="40.011775143497516" lon="15.724243226919612"><ele>313.0</ele><time>2026-03-22T11:10:12Z</time></trkpt><trkpt lat="40.01172955874659" lon="15.724364669362123"><ele>313.0</ele><time>2026-03-22T11:10:13Z</time></trkpt><trkpt lat="40.01167988311169" lon="15.724464887966374"><ele>313.0</ele><time>2026-03-22T11:10:14Z</time></trkpt><trkpt lat="40.01162356786224" lon="15.724563721145412"><ele>313.0</ele><time>2026-03-22T11:10:15Z</time></trkpt><trkpt lat="40.01154155277555" lon="15.724607038131557"><ele>313.0</ele><time>2026-03-22T11:10:16Z</time></trkpt><trkpt lat="40.01144284642266" lon="15.72464529691494"><ele>316.5</ele><time>2026-03-22T11:10:17Z</time></trkpt><trkpt lat="40.01132204927102" lon="15.724680936397707"><ele>320.0</ele><time>2026-03-22T11:10:18Z</time></trkpt><trkpt lat="40.01119251524723" lon="15.724719342458517"><ele>323.5</ele><time>2026-03-22T11:10:19Z</time></trkpt><trkpt lat="40.01106061367307" lon="15.724751184864427"><ele>327.0</ele><time>2026-03-22T11:10:20Z</time></trkpt><trkpt lat="40.010923562517" lon="15.72478677669076"><ele>326.5</ele><time>2026-03-22T11:10:21Z</time></trkpt><trkpt lat="40.01078336591009" lon="15.724825281377429"><ele>326.0</ele><time>2026-03-22T11:10:22Z</time></trkpt><trkpt lat="40.01064181513591" lon="15.724867926904802"><ele>325.5</ele><time>2026-03-22T11:10:23Z</time></trkpt><trkpt lat="40.01050191819994" lon="15.724909863595746"><ele>325.0</ele><time>2026-03-22T11:10:24Z</time></trkpt><trkpt lat="40.01038568680372" lon="15.724943544294854"><ele>325.0</ele><time>2026-03-22T11:10:25Z</time></trkpt><trkpt lat="40.01029674118406" lon="15.724969318287673"><ele>325.0</ele><time>2026-03-22T11:10:26Z</time></trkpt><trkpt lat="40.01020436663302" lon="15.724990695713567"><ele>325.0</ele><time>2026-03-22T11:10:28Z</time></trkpt><trkpt lat="40.01012622598937" lon="15.72498646965937"><ele>325.0</ele><time>2026-03-22T11:13:46Z</time></trkpt><trkpt lat="40.01005520379412" lon="15.725019140647577"><ele>325.0</ele><time>2026-03-22T11:13:48Z</time></trkpt><trkpt lat="40.00999535097496" lon="15.725048160913273"><ele>325.0</ele><time>2026-03-22T11:13:49Z</time></trkpt><trkpt lat="40.009921185844455" lon="15.725075497703386"><ele>327.0</ele><time>2026-03-22T11:13:50Z</time></trkpt><trkpt lat="40.009828703414" lon="15.725108255197325"><ele>329.0</ele><time>2026-03-22T11:13:51Z</time></trkpt><trkpt lat="40.00973490716187" lon="15.725137151753124"><ele>331.0</ele><time>2026-03-22T11:13:52Z</time></trkpt><trkpt lat="40.00963258047249" lon="15.725172083402335"><ele>333.0</ele><time>2026-03-22T11:13:53Z</time></trkpt><trkpt lat="40.009520203564314" lon="15.72521219595329"><ele>335.0</ele><time>2026-03-22T11:13:54Z</time></trkpt><trkpt lat="40.00940444672424" lon="15.725256146112605"><ele>335.25</ele><time>2026-03-22T11:13:55Z</time></trkpt><trkpt lat="40.009290904188546" lon="15.725306245639574"><ele>335.5</ele><time>2026-03-22T11:13:56Z</time></trkpt><trkpt lat="40.00918123177188" lon="15.72536132723301"><ele>335.75</ele><time>2026-03-22T11:13:57Z</time></trkpt><trkpt lat="40.00907185646255" lon="15.72541777732472"><ele>336.0</ele><time>2026-03-22T11:13:58Z</time></trkpt><trkpt lat="40.00896309308543" lon="15.725477493226064"><ele>336.0</ele><time>2026-03-22T11:13:59Z</time></trkpt><trkpt lat="40.0088596671677" lon="15.725541083586956"><ele>336.0</ele><time>2026-03-22T11:14:00Z</time></trkpt><trkpt lat="40.00876078639682" lon="15.725613545876026"><ele>336.0</ele><time>2026-03-22T11:14:01Z</time></trkpt><trkpt lat="40.008671022564585" lon="15.725681499826662"><ele>336.0</ele><time>2026-03-22T11:14:02Z</time></trkpt><trkpt lat="40.008587131367946" lon="15.725748225458744"><ele>336.0</ele><time>2026-03-22T11:14:03Z</time></trkpt><trkpt lat="40.00850047488274" lon="15.725815564871567"><ele>336.0</ele><time>2026-03-22T11:14:04Z</time></trkpt><trkpt lat="40.008408101438974" lon="15.7258894261744"><ele>336.0</ele><time>2026-03-22T11:14:05Z</time></trkpt><trkpt lat="40.008315575025925" lon="15.725966311687923"><ele>336.0</ele><time>2026-03-22T11:14:06Z</time></trkpt><trkpt lat="40.00822324481262" lon="15.726045130322808"><ele>336.0</ele><time>2026-03-22T11:14:07Z</time></trkpt><trkpt lat="40.008138697017394" lon="15.72613202043708"><ele>336.0</ele><time>2026-03-22T11:14:08Z</time></trkpt><trkpt lat="40.008063927682116" lon="15.726218181891268"><ele>336.8</ele><time>2026-03-22T11:14:09Z</time></trkpt><trkpt lat="40.008005830263045" lon="15.726298296293512"><ele>337.6</ele><time>2026-03-22T11:14:10Z</time></trkpt><trkpt lat="40.00796522396563" lon="15.726366956115033"><ele>338.4</ele><time>2026-03-22T11:14:11Z</time></trkpt><trkpt lat="40.00792777755526" lon="15.726482333316294"><ele>339.2</ele><time>2026-03-22T11:14:13Z</time></trkpt><trkpt lat="40.00802180240143" lon="15.72658477809991"><ele>340.0</ele><time>2026-03-22T11:14:24Z</time></trkpt><trkpt lat="40.00813274263481" lon="15.72654884298737"><ele>340.0</ele><time>2026-03-22T11:14:26Z</time></trkpt><trkpt lat="40.00822090727959" lon="15.726529181158217"><ele>340.0</ele><time>2026-03-22T11:14:27Z</time></trkpt><trkpt lat="40.00832761936227" lon="15.726512587862148"><ele>340.0</ele><time>2026-03-22T11:14:28Z</time></trkpt><trkpt lat="40.0084295945988" lon="15.726514300486242"><ele>340.0</ele><time>2026-03-22T11:14:29Z</time></trkpt><trkpt lat="40.00852646291617" lon="15.726526108721746"><ele>340.0</ele><time>2026-03-22T11:14:30Z</time></trkpt><trkpt lat="40.008656399602366" lon="15.726505511370728"><ele>343.0</ele><time>2026-03-22T11:14:30.999Z</time></trkpt><trkpt lat="40.00876964374295" lon="15.726460809579137"><ele>346.0</ele><time>2026-03-22T11:14:31.999Z</time></trkpt><trkpt lat="40.0088782581377" lon="15.726369638685098"><ele>349.0</ele><time>2026-03-22T11:14:32.999Z</time></trkpt><trkpt lat="40.008990614103105" lon="15.726276401490884"><ele>352.0</ele><time>2026-03-22T11:14:33.999Z</time></trkpt><trkpt lat="40.00909468440854" lon="15.726180232259273"><ele>354.25</ele><time>2026-03-22T11:14:34.999Z</time></trkpt><trkpt lat="40.00920996143271" lon="15.726112918694684"><ele>356.5</ele><time>2026-03-22T11:14:35.999Z</time></trkpt><trkpt lat="40.009341145555766" lon="15.726045802810729"><ele>358.75</ele><time>2026-03-22T11:14:36.999Z</time></trkpt><trkpt lat="40.00948025215511" lon="15.725993208033135"><ele>361.0</ele><time>2026-03-22T11:14:37.999Z</time></trkpt><trkpt lat="40.00961249988344" lon="15.725923366546882"><ele>359.0</ele><time>2026-03-22T11:14:38.999Z</time></trkpt><trkpt lat="40.00974064282493" lon="15.725836826588704"><ele>357.0</ele><time>2026-03-22T11:14:39.999Z</time></trkpt><trkpt lat="40.009875175031404" lon="15.72575607954615"><ele>355.0</ele><time>2026-03-22T11:14:40.999Z</time></trkpt><trkpt lat="40.00998884489302" lon="15.725646133448526"><ele>353.0</ele><time>2026-03-22T11:14:41.999Z</time></trkpt><trkpt lat="40.010107431227816" lon="15.725576924269998"><ele>353.0</ele><time>2026-03-22T11:14:42.999Z</time></trkpt><trkpt lat="40.01021707601428" lon="15.725523437858124"><ele>353.0</ele><time>2026-03-22T11:14:43.999Z</time></trkpt><trkpt lat="40.01033324747652" lon="15.725524912339242"><ele>353.0</ele><time>2026-03-22T11:14:44.999Z</time></trkpt><trkpt lat="40.01045227731836" lon="15.72550578727204"><ele>353.0</ele><time>2026-03-22T11:14:45.999Z</time></trkpt><trkpt lat="40.01056968472139" lon="15.72551704009659"><ele>353.0</ele><time>2026-03-22T11:14:46.999Z</time></trkpt><trkpt lat="40.01068725708898" lon="15.725526775483864"><ele>353.0</ele><time>2026-03-22T11:14:47.999Z</time></trkpt><trkpt lat="40.01080366319966" lon="15.725529654669092"><ele>353.0</ele><time>2026-03-22T11:14:48.999Z</time></trkpt><trkpt lat="40.010920462330766" lon="15.725550603398537"><ele>353.0</ele><time>2026-03-22T11:14:49.999Z</time></trkpt><trkpt lat="40.01103818610193" lon="15.725541412518591"><ele>353.59999999999997</ele><time>2026-03-22T11:14:50.999Z</time></trkpt><trkpt lat="40.01115152288369" lon="15.72553028089667"><ele>354.2</ele><time>2026-03-22T11:14:51.999Z</time></trkpt><trkpt lat="40.01126001372156" lon="15.725521953607938"><ele>354.8</ele><time>2026-03-22T11:14:52.999Z</time></trkpt><trkpt lat="40.01136103406543" lon="15.72558077716934"><ele>355.4</ele><time>2026-03-22T11:14:53.999Z</time></trkpt><trkpt lat="40.011437048428036" lon="15.72568559238851"><ele>356.0</ele><time>2026-03-22T11:14:54.999Z</time></trkpt><trkpt lat="40.01148205302156" lon="15.725815571213447"><ele>356.0</ele><time>2026-03-22T11:14:55.999Z</time></trkpt><trkpt lat="40.01148879815002" lon="15.725954452594875"><ele>356.0</ele><time>2026-03-22T11:14:56.999Z</time></trkpt><trkpt lat="40.01148452763002" lon="15.726075346067166"><ele>356.0</ele><time>2026-03-22T11:14:57.999Z</time></trkpt><trkpt lat="40.01145921733828" lon="15.726197942051801"><ele>356.0</ele><time>2026-03-22T11:14:58.999Z</time></trkpt><trkpt lat="40.01142514151505" lon="15.726342031834047"><ele>356.0</ele><time>2026-03-22T11:14:59.999Z</time></trkpt><trkpt lat="40.01139544822792" lon="15.726511359966372"><ele>357.6666666666667</ele><time>2026-03-22T11:15:00.999Z</time></trkpt><trkpt lat="40.01136779338444" lon="15.72669835174759"><ele>359.3333333333333</ele><time>2026-03-22T11:15:01.999Z</time></trkpt><trkpt lat="40.01133789199331" lon="15.726896026968905"><ele>361.0</ele><time>2026-03-22T11:15:02.999Z</time></trkpt><trkpt lat="40.01130722807883" lon="15.727099591461219"><ele>361.3333333333333</ele><time>2026-03-22T11:15:03.999Z</time></trkpt><trkpt lat="40.01127691736787" lon="15.727309359548675"><ele>361.6666666666667</ele><time>2026-03-22T11:15:04.999Z</time></trkpt><trkpt lat="40.01124787286013" lon="15.727514409933795"><ele>362.0</ele><time>2026-03-22T11:15:05.999Z</time></trkpt><trkpt lat="40.011219742109255" lon="15.727713028078892"><ele>364.75</ele><time>2026-03-22T11:15:06.999Z</time></trkpt><trkpt lat="40.01118974878568" lon="15.72790383587703"><ele>367.5</ele><time>2026-03-22T11:15:07.999Z</time></trkpt><trkpt lat="40.0111588462626" lon="15.728079828113895"><ele>370.25</ele><time>2026-03-22T11:15:08.999Z</time></trkpt><trkpt lat="40.01112329451936" lon="15.728263570853514"><ele>373.0</ele><time>2026-03-22T11:15:09.999Z</time></trkpt><trkpt lat="40.01107522881306" lon="15.72842676934591"><ele>373.0</ele><time>2026-03-22T11:15:10.999Z</time></trkpt><trkpt lat="40.01100780122188" lon="15.728550039662565"><ele>373.0</ele><time>2026-03-22T11:15:11.999Z</time></trkpt><trkpt lat="40.01091688053533" lon="15.728636977891103"><ele>373.0</ele><time>2026-03-22T11:15:12.999Z</time></trkpt><trkpt lat="40.01080236523202" lon="15.728690271717861"><ele>373.0</ele><time>2026-03-22T11:15:13.999Z</time></trkpt><trkpt lat="40.01067726264374" lon="15.728713691536257"><ele>376.0</ele><time>2026-03-22T11:15:14.999Z</time></trkpt><trkpt lat="40.01055477836577" lon="15.728704655102606"><ele>379.0</ele><time>2026-03-22T11:15:15.999Z</time></trkpt><trkpt lat="40.010446843438906" lon="15.728653225935691"><ele>382.0</ele><time>2026-03-22T11:15:16.999Z</time></trkpt><trkpt lat="40.01035199494662" lon="15.728556142233437"><ele>385.0</ele><time>2026-03-22T11:15:17.999Z</time></trkpt><trkpt lat="40.01026694125129" lon="15.728407209403754"><ele>385.0</ele><time>2026-03-22T11:15:18.999Z</time></trkpt><trkpt lat="40.01018566361302" lon="15.728230929398206"><ele>385.0</ele><time>2026-03-22T11:15:19.999Z</time></trkpt><trkpt lat="40.01009217048048" lon="15.728048709053855"><ele>385.0</ele><time>2026-03-22T11:15:20.999Z</time></trkpt><trkpt lat="40.009991830238725" lon="15.72785987767822"><ele>384.33333333333337</ele><time>2026-03-22T11:15:21.999Z</time></trkpt><trkpt lat="40.00988581825589" lon="15.727670504986666"><ele>383.6666666666667</ele><time>2026-03-22T11:15:22.999Z</time></trkpt><trkpt lat="40.009767656553585" lon="15.727493406089529"><ele>383.0</ele><time>2026-03-22T11:15:23.999Z</time></trkpt><trkpt lat="40.00963947264731" lon="15.727332653618245"><ele>383.0</ele><time>2026-03-22T11:15:24.999Z</time></trkpt><trkpt lat="40.009518163416715" lon="15.727188528134516"><ele>383.0</ele><time>2026-03-22T11:15:25.999Z</time></trkpt><trkpt lat="40.009410854040034" lon="15.727068947966325"><ele>383.0</ele><time>2026-03-22T11:15:26.999Z</time></trkpt><trkpt lat="40.00931624622831" lon="15.726987351062151"><ele>383.0</ele><time>2026-03-22T11:15:28Z</time></trkpt><trkpt lat="40.00921745856429" lon="15.726958344978405"><ele>381.25</ele><time>2026-03-22T11:15:29Z</time></trkpt><trkpt lat="40.00910355133994" lon="15.726975794951672"><ele>379.5</ele><time>2026-03-22T11:15:30Z</time></trkpt><trkpt lat="40.00899182932604" lon="15.727023489207191"><ele>377.75</ele><time>2026-03-22T11:15:31Z</time></trkpt><trkpt lat="40.008890018528234" lon="15.727094487320116"><ele>376.0</ele><time>2026-03-22T11:15:32Z</time></trkpt><trkpt lat="40.00879722765961" lon="15.727181812247894"><ele>376.0</ele><time>2026-03-22T11:15:33Z</time></trkpt><trkpt lat="40.00870997936346" lon="15.727299005005085"><ele>376.0</ele><time>2026-03-22T11:15:34Z</time></trkpt><trkpt lat="40.00862450657867" lon="15.727441847698746"><ele>376.0</ele><time>2026-03-22T11:15:35Z</time></trkpt><trkpt lat="40.00852535770495" lon="15.727595738232505"><ele>376.0</ele><time>2026-03-22T11:15:36Z</time></trkpt><trkpt lat="40.00840612984089" lon="15.72773137800293"><ele>382.3333333333333</ele><time>2026-03-22T11:15:37Z</time></trkpt><trkpt lat="40.00827752037743" lon="15.727838881075838"><ele>388.66666666666663</ele><time>2026-03-22T11:15:38Z</time></trkpt><trkpt lat="40.00812749442028" lon="15.727920227421258"><ele>395.0</ele><time>2026-03-22T11:15:39Z</time></trkpt><trkpt lat="40.00796821350212" lon="15.727984059313293"><ele>395.0</ele><time>2026-03-22T11:15:40Z</time></trkpt><trkpt lat="40.00780473931303" lon="15.72804963122049"><ele>395.0</ele><time>2026-03-22T11:15:41Z</time></trkpt><trkpt lat="40.0076406061288" lon="15.728120888087245"><ele>395.0</ele><time>2026-03-22T11:15:42Z</time></trkpt><trkpt lat="40.0074781177666" lon="15.728185733533651"><ele>397.0</ele><time>2026-03-22T11:15:43Z</time></trkpt><trkpt lat="40.00732568743558" lon="15.728249495118403"><ele>399.0</ele><time>2026-03-22T11:15:44Z</time></trkpt><trkpt lat="40.00718936133922" lon="15.728309280873198"><ele>401.0</ele><time>2026-03-22T11:15:45Z</time></trkpt><trkpt lat="40.007075922182025" lon="15.72836432815326"><ele>403.0</ele><time>2026-03-22T11:15:46Z</time></trkpt><trkpt lat="40.0069968361695" lon="15.728433759326153"><ele>403.0</ele><time>2026-03-22T11:15:47Z</time></trkpt><trkpt lat="40.00695330063588" lon="15.728538896464062"><ele>403.0</ele><time>2026-03-22T11:15:48Z</time></trkpt><trkpt lat="40.00695422389517" lon="15.7286634356357"><ele>403.0</ele><time>2026-03-22T11:15:49Z</time></trkpt><trkpt lat="40.006994682129026" lon="15.72880142442738"><ele>403.0</ele><time>2026-03-22T11:15:50Z</time></trkpt><trkpt lat="40.007068686946745" lon="15.728945318555304"><ele>403.0</ele><time>2026-03-22T11:15:51Z</time></trkpt><trkpt lat="40.007148092349425" lon="15.729110217670234"><ele>406.0</ele><time>2026-03-22T11:15:52Z</time></trkpt><trkpt lat="40.00721293659723" lon="15.7292677739941"><ele>409.0</ele><time>2026-03-22T11:15:53Z</time></trkpt><trkpt lat="40.0072659049297" lon="15.729397174994805"><ele>412.0</ele><time>2026-03-22T11:15:54Z</time></trkpt><trkpt lat="40.00730819784034" lon="15.729508221164586"><ele>415.0</ele><time>2026-03-22T11:15:55Z</time></trkpt><trkpt lat="40.00735311927871" lon="15.729647536351708"><ele>416.2</ele><time>2026-03-22T11:15:57Z</time></trkpt><trkpt lat="40.007408031339416" lon="15.729746747536671"><ele>417.4</ele><time>2026-03-22T11:15:59Z</time></trkpt><trkpt lat="40.00750544314444" lon="15.729783456701535"><ele>418.6</ele><time>2026-03-22T11:17:44Z</time></trkpt><trkpt lat="40.007572764666456" lon="15.729822158214063"><ele>419.8</ele><time>2026-03-22T11:17:45Z</time></trkpt><trkpt lat="40.00764802784607" lon="15.729906502343553"><ele>421.0</ele><time>2026-03-22T11:17:46Z</time></trkpt><trkpt lat="40.007741857269004" lon="15.72995707093905"><ele>421.0</ele><time>2026-03-22T11:17:47Z</time></trkpt><trkpt lat="40.007843715182744" lon="15.729995056246636"><ele>421.0</ele><time>2026-03-22T11:17:48Z</time></trkpt><trkpt lat="40.0079526378068" lon="15.730016565117388"><ele>421.0</ele><time>2026-03-22T11:17:49Z</time></trkpt><trkpt lat="40.00806351642147" lon="15.730031139176708"><ele>421.0</ele><time>2026-03-22T11:17:50Z</time></trkpt><trkpt lat="40.00818075784153" lon="15.730043398994495"><ele>421.0</ele><time>2026-03-22T11:17:51Z</time></trkpt><trkpt lat="40.0083131350118" lon="15.730055443780985"><ele>420.0</ele><time>2026-03-22T11:17:52Z</time></trkpt><trkpt lat="40.008463616250495" lon="15.730065502817972"><ele>419.0</ele><time>2026-03-22T11:17:53Z</time></trkpt><trkpt lat="40.00862893178373" lon="15.7300582579601"><ele>418.0</ele><time>2026-03-22T11:17:54Z</time></trkpt><trkpt lat="40.008793942188284" lon="15.730040214425367"><ele>418.0</ele><time>2026-03-22T11:17:55Z</time></trkpt><trkpt lat="40.00896684736774" lon="15.730020525692728"><ele>418.0</ele><time>2026-03-22T11:17:56Z</time></trkpt><trkpt lat="40.00914164380016" lon="15.73000038720847"><ele>418.0</ele><time>2026-03-22T11:17:57Z</time></trkpt><trkpt lat="40.0093178243602" lon="15.72997836648164"><ele>418.0</ele><time>2026-03-22T11:17:58Z</time></trkpt><trkpt lat="40.009486586933306" lon="15.729950700614571"><ele>418.0</ele><time>2026-03-22T11:17:59Z</time></trkpt><trkpt lat="40.00964963910546" lon="15.729912302567856"><ele>418.0</ele><time>2026-03-22T11:18:00Z</time></trkpt><trkpt lat="40.00980841360578" lon="15.729870844348472"><ele>418.0</ele><time>2026-03-22T11:18:01Z</time></trkpt><trkpt lat="40.009966082674325" lon="15.729828341247007"><ele>418.0</ele><time>2026-03-22T11:18:02Z</time></trkpt><trkpt lat="40.010116719305806" lon="15.729786375202709"><ele>418.0</ele><time>2026-03-22T11:18:03Z</time></trkpt><trkpt lat="40.010264931469464" lon="15.729744422061426"><ele>421.0</ele><time>2026-03-22T11:18:04Z</time></trkpt><trkpt lat="40.01041142862129" lon="15.729702954371257"><ele>424.0</ele><time>2026-03-22T11:18:05Z</time></trkpt><trkpt lat="40.01056107276091" lon="15.729665967871863"><ele>427.0</ele><time>2026-03-22T11:18:06Z</time></trkpt><trkpt lat="40.01070736107069" lon="15.729644185205796"><ele>430.0</ele><time>2026-03-22T11:18:07Z</time></trkpt><trkpt lat="40.010850945214976" lon="15.729638965394559"><ele>434.75</ele><time>2026-03-22T11:18:08Z</time></trkpt><trkpt lat="40.01098807700834" lon="15.7296298977944"><ele>439.5</ele><time>2026-03-22T11:18:09Z</time></trkpt><trkpt lat="40.01112485501298" lon="15.729573606690572"><ele>444.25</ele><time>2026-03-22T11:18:10Z</time></trkpt><trkpt lat="40.011264951102056" lon="15.729472002936916"><ele>449.0</ele><time>2026-03-22T11:18:11Z</time></trkpt><trkpt lat="40.01140656376656" lon="15.729368783697183"><ele>440.66666666666663</ele><time>2026-03-22T11:18:12Z</time></trkpt><trkpt lat="40.011543787306685" lon="15.72926795870436"><ele>432.33333333333337</ele><time>2026-03-22T11:18:13Z</time></trkpt><trkpt lat="40.0116748526811" lon="15.729172019623086"><ele>424.0</ele><time>2026-03-22T11:18:14Z</time></trkpt><trkpt lat="40.01181137927298" lon="15.72909860824037"><ele>424.0</ele><time>2026-03-22T11:18:15Z</time></trkpt><trkpt lat="40.011944075925825" lon="15.729041885785593"><ele>424.0</ele><time>2026-03-22T11:18:16Z</time></trkpt><trkpt lat="40.01207472589121" lon="15.729008653328615"><ele>424.0</ele><time>2026-03-22T11:18:17Z</time></trkpt><trkpt lat="40.012212331903" lon="15.72903316325832"><ele>424.0</ele><time>2026-03-22T11:18:18Z</time></trkpt><trkpt lat="40.0123686643658" lon="15.729071193590235"><ele>430.0</ele><time>2026-03-22T11:18:19Z</time></trkpt><trkpt lat="40.01252471262333" lon="15.729109153341454"><ele>436.0</ele><time>2026-03-22T11:18:20Z</time></trkpt><trkpt lat="40.01267519343862" lon="15.729145936224116"><ele>442.0</ele><time>2026-03-22T11:18:21Z</time></trkpt><trkpt lat="40.01282191861761" lon="15.729181846669414"><ele>442.0</ele><time>2026-03-22T11:18:22Z</time></trkpt><trkpt lat="40.0129739913748" lon="15.72921078786436"><ele>442.0</ele><time>2026-03-22T11:18:23Z</time></trkpt><trkpt lat="40.01314233804684" lon="15.729191977995077"><ele>442.0</ele><time>2026-03-22T11:18:24Z</time></trkpt><trkpt lat="40.013297719346134" lon="15.729131556448937"><ele>442.33333333333337</ele><time>2026-03-22T11:18:25Z</time></trkpt><trkpt lat="40.01344769210751" lon="15.729051736408113"><ele>442.66666666666663</ele><time>2026-03-22T11:18:26Z</time></trkpt><trkpt lat="40.01358883250688" lon="15.728949463216388"><ele>443.0</ele><time>2026-03-22T11:18:27Z</time></trkpt><trkpt lat="40.01371852317193" lon="15.728806888709887"><ele>443.0</ele><time>2026-03-22T11:18:28Z</time></trkpt><trkpt lat="40.01382901364955" lon="15.72865090774307"><ele>443.0</ele><time>2026-03-22T11:18:29Z</time></trkpt><trkpt lat="40.01393748775854" lon="15.728495847721254"><ele>443.0</ele><time>2026-03-22T11:18:30Z</time></trkpt><trkpt lat="40.014055289905386" lon="15.728330210996162"><ele>442.3333333333333</ele><time>2026-03-22T11:18:31Z</time></trkpt><trkpt lat="40.01418279707599" lon="15.728150928530741"><ele>441.66666666666663</ele><time>2026-03-22T11:18:32Z</time></trkpt><trkpt lat="40.01431223667252" lon="15.72796892868509"><ele>441.0</ele><time>2026-03-22T11:18:33Z</time></trkpt><trkpt lat="40.01443749128427" lon="15.727792813350922"><ele>437.66666666666663</ele><time>2026-03-22T11:18:34Z</time></trkpt><trkpt lat="40.014557180337775" lon="15.727624346001488"><ele>434.3333333333333</ele><time>2026-03-22T11:18:35Z</time></trkpt><trkpt lat="40.0146759889394" lon="15.727456866123157"><ele>431.0</ele><time>2026-03-22T11:18:36Z</time></trkpt><trkpt lat="40.01479423906135" lon="15.727289619214176"><ele>431.0</ele><time>2026-03-22T11:18:37Z</time></trkpt><trkpt lat="40.01489471990657" lon="15.727112295018806"><ele>431.0</ele><time>2026-03-22T11:18:38Z</time></trkpt><trkpt lat="40.01501433560076" lon="15.72697100812501"><ele>431.0</ele><time>2026-03-22T11:18:39Z</time></trkpt><trkpt lat="40.01510974150452" lon="15.726828637022004"><ele>434.0</ele><time>2026-03-22T11:18:40Z</time></trkpt><trkpt lat="40.015173570894035" lon="15.72665934363516"><ele>437.0</ele><time>2026-03-22T11:18:41Z</time></trkpt><trkpt lat="40.0152245025674" lon="15.726475879722168"><ele>440.0</ele><time>2026-03-22T11:18:42Z</time></trkpt><trkpt lat="40.01525517869469" lon="15.726281853156012"><ele>443.0</ele><time>2026-03-22T11:18:43Z</time></trkpt><trkpt lat="40.015279374049875" lon="15.726094753148882"><ele>440.0</ele><time>2026-03-22T11:18:44Z</time></trkpt><trkpt lat="40.01534071659455" lon="15.725950230485187"><ele>437.0</ele><time>2026-03-22T11:18:45Z</time></trkpt><trkpt lat="40.01541295371452" lon="15.725833231757266"><ele>434.0</ele><time>2026-03-22T11:18:46Z</time></trkpt><trkpt lat="40.01549655254255" lon="15.72574687555918"><ele>431.0</ele><time>2026-03-22T11:18:47Z</time></trkpt><trkpt lat="40.01559612240186" lon="15.725705154401531"><ele>431.0</ele><time>2026-03-22T11:18:48Z</time></trkpt><trkpt lat="40.01570369305417" lon="15.725706152350721"><ele>431.0</ele><time>2026-03-22T11:18:49Z</time></trkpt><trkpt lat="40.01581801618219" lon="15.725739767313474"><ele>431.0</ele><time>2026-03-22T11:18:50Z</time></trkpt><trkpt lat="40.01593897483993" lon="15.72580642953892"><ele>431.0</ele><time>2026-03-22T11:18:50.999Z</time></trkpt><trkpt lat="40.01606729413133" lon="15.725890706432656"><ele>436.3333333333333</ele><time>2026-03-22T11:18:51.999Z</time></trkpt><trkpt lat="40.016175867828025" lon="15.726040254642482"><ele>441.66666666666663</ele><time>2026-03-22T11:18:52.999Z</time></trkpt><trkpt lat="40.0162872167144" lon="15.726221814899079"><ele>447.0</ele><time>2026-03-22T11:18:53.999Z</time></trkpt><trkpt lat="40.016406239722635" lon="15.726395587420791"><ele>451.25</ele><time>2026-03-22T11:18:54.999Z</time></trkpt><trkpt lat="40.01652749211324" lon="15.726540402616042"><ele>455.5</ele><time>2026-03-22T11:18:55.999Z</time></trkpt><trkpt lat="40.01662226225417" lon="15.726674360769225"><ele>459.75</ele><time>2026-03-22T11:18:56.999Z</time></trkpt><trkpt lat="40.01667306918458" lon="15.726818368587214"><ele>464.0</ele><time>2026-03-22T11:18:57.999Z</time></trkpt><trkpt lat="40.01669073176525" lon="15.726986744358735"><ele>466.0</ele><time>2026-03-22T11:18:58.999Z</time></trkpt><trkpt lat="40.01671429733267" lon="15.727171631329206"><ele>468.0</ele><time>2026-03-22T11:18:59.999Z</time></trkpt><trkpt lat="40.01677617461044" lon="15.727353530983534"><ele>470.0</ele><time>2026-03-22T11:19:00.999Z</time></trkpt><trkpt lat="40.01685326105411" lon="15.72752000379855"><ele>472.0</ele><time>2026-03-22T11:19:01.999Z</time></trkpt><trkpt lat="40.01691179409037" lon="15.727680679092085"><ele>472.20000000000005</ele><time>2026-03-22T11:19:02.999Z</time></trkpt><trkpt lat="40.01692351418089" lon="15.727820930827765"><ele>472.40000000000003</ele><time>2026-03-22T11:19:03.999Z</time></trkpt><trkpt lat="40.01689242496017" lon="15.727938913069606"><ele>472.59999999999997</ele><time>2026-03-22T11:19:04.999Z</time></trkpt><trkpt lat="40.01682614512885" lon="15.72803426902836"><ele>472.79999999999995</ele><time>2026-03-22T11:19:05.999Z</time></trkpt><trkpt lat="40.016715865741666" lon="15.728119589857268"><ele>473.0</ele><time>2026-03-22T11:19:06.999Z</time></trkpt><trkpt lat="40.016589006514984" lon="15.728205119593131"><ele>471.0</ele><time>2026-03-22T11:19:07.999Z</time></trkpt><trkpt lat="40.0164572526828" lon="15.72830926135241"><ele>469.0</ele><time>2026-03-22T11:19:08.999Z</time></trkpt><trkpt lat="40.01632389195996" lon="15.728415392686445"><ele>467.0</ele><time>2026-03-22T11:19:09.999Z</time></trkpt><trkpt lat="40.01618647422773" lon="15.728530922218642"><ele>467.3333333333333</ele><time>2026-03-22T11:19:10.999Z</time></trkpt><trkpt lat="40.016039038294636" lon="15.728646804075737"><ele>467.66666666666663</ele><time>2026-03-22T11:19:11.999Z</time></trkpt><trkpt lat="40.01589510751722" lon="15.728765454860154"><ele>468.0</ele><time>2026-03-22T11:19:12.999Z</time></trkpt><trkpt lat="40.01576869537177" lon="15.728865198738951"><ele>468.0</ele><time>2026-03-22T11:19:13.999Z</time></trkpt><trkpt lat="40.015654476338185" lon="15.728952848266152"><ele>467.99999999999994</ele><time>2026-03-22T11:19:14.999Z</time></trkpt><trkpt lat="40.01556158613245" lon="15.729037863966568"><ele>467.99999999999994</ele><time>2026-03-22T11:19:15.999Z</time></trkpt><trkpt lat="40.01549987478874" lon="15.729127505660225"><ele>468.0</ele><time>2026-03-22T11:19:16.999Z</time></trkpt><trkpt lat="40.01547512403378" lon="15.729247686252833"><ele>468.0</ele><time>2026-03-22T11:19:17.999Z</time></trkpt><trkpt lat="40.01549341711443" lon="15.729368619054142"><ele>469.2</ele><time>2026-03-22T11:19:18.999Z</time></trkpt><trkpt lat="40.01554962599939" lon="15.729470480267244"><ele>470.4</ele><time>2026-03-22T11:19:19.999Z</time></trkpt><trkpt lat="40.01564205684954" lon="15.729527996399748"><ele>471.59999999999997</ele><time>2026-03-22T11:19:20.999Z</time></trkpt><trkpt lat="40.01574137969396" lon="15.72952852295588"><ele>472.79999999999995</ele><time>2026-03-22T11:19:21.999Z</time></trkpt><trkpt lat="40.01583779171005" lon="15.729470487674062"><ele>474.0</ele><time>2026-03-22T11:19:22.999Z</time></trkpt><trkpt lat="40.01593692118966" lon="15.729369376666767"><ele>474.0</ele><time>2026-03-22T11:19:23.999Z</time></trkpt><trkpt lat="40.016050200201434" lon="15.729256848475254"><ele>474.0</ele><time>2026-03-22T11:19:24.999Z</time></trkpt><trkpt lat="40.01618016653491" lon="15.729132379124161"><ele>474.0</ele><time>2026-03-22T11:19:25.999Z</time></trkpt><trkpt lat="40.016295073567946" lon="15.729022379292893"><ele>474.0</ele><time>2026-03-22T11:19:26.999Z</time></trkpt><trkpt lat="40.01639762193504" lon="15.728934654971864"><ele>474.0</ele><time>2026-03-22T11:19:27.999Z</time></trkpt><trkpt lat="40.016496773053824" lon="15.728885764970487"><ele>474.0</ele><time>2026-03-22T11:19:28.999Z</time></trkpt><trkpt lat="40.016593526987585" lon="15.728889216930556"><ele>474.0</ele><time>2026-03-22T11:19:29.999Z</time></trkpt><trkpt lat="40.016695162096525" lon="15.728938494357482"><ele>474.0</ele><time>2026-03-22T11:19:30.999Z</time></trkpt><trkpt lat="40.016808324450764" lon="15.729026128715052"><ele>474.0</ele><time>2026-03-22T11:19:31.999Z</time></trkpt><trkpt lat="40.01693705226776" lon="15.72911896587067"><ele>476.75</ele><time>2026-03-22T11:19:32.999Z</time></trkpt><trkpt lat="40.01707505723485" lon="15.729197844415008"><ele>479.5</ele><time>2026-03-22T11:19:33.999Z</time></trkpt><trkpt lat="40.01721589688102" lon="15.729237163994119"><ele>482.25</ele><time>2026-03-22T11:19:34.999Z</time></trkpt><trkpt lat="40.017367039724924" lon="15.729225883115339"><ele>485.0</ele><time>2026-03-22T11:19:35.999Z</time></trkpt><trkpt lat="40.017515894055094" lon="15.729168890204816"><ele>487.0</ele><time>2026-03-22T11:19:36.999Z</time></trkpt><trkpt lat="40.01765064779375" lon="15.729066320000022"><ele>489.0</ele><time>2026-03-22T11:19:37.999Z</time></trkpt><trkpt lat="40.01777934382872" lon="15.728919651286217"><ele>491.0</ele><time>2026-03-22T11:19:39Z</time></trkpt><trkpt lat="40.017911480545266" lon="15.72872888749465"><ele>485.0</ele><time>2026-03-22T11:19:40Z</time></trkpt><trkpt lat="40.01804573506161" lon="15.72850104034717"><ele>479.0</ele><time>2026-03-22T11:19:41Z</time></trkpt><trkpt lat="40.01818191080759" lon="15.728266239707139"><ele>473.0</ele><time>2026-03-22T11:19:42Z</time></trkpt><trkpt lat="40.018311522852564" lon="15.728066415370668"><ele>476.0</ele><time>2026-03-22T11:19:43Z</time></trkpt><trkpt lat="40.01845487010439" lon="15.727890659092115"><ele>479.0</ele><time>2026-03-22T11:19:44Z</time></trkpt><trkpt lat="40.018611420236425" lon="15.727724993234547"><ele>482.0</ele><time>2026-03-22T11:19:45Z</time></trkpt><trkpt lat="40.0187691874782" lon="15.727561094945264"><ele>482.0</ele><time>2026-03-22T11:19:46Z</time></trkpt><trkpt lat="40.0189228389736" lon="15.727391293713168"><ele>482.0</ele><time>2026-03-22T11:19:47Z</time></trkpt><trkpt lat="40.01907393687194" lon="15.727217897964453"><ele>482.0</ele><time>2026-03-22T11:19:48Z</time></trkpt><trkpt lat="40.01921978526387" lon="15.72703148579016"><ele>483.3333333333333</ele><time>2026-03-22T11:19:49Z</time></trkpt><trkpt lat="40.019358578717906" lon="15.726834657429588"><ele>484.66666666666663</ele><time>2026-03-22T11:19:50Z</time></trkpt><trkpt lat="40.019485071572454" lon="15.726648742133607"><ele>486.0</ele><time>2026-03-22T11:19:51Z</time></trkpt><trkpt lat="40.01959907445341" lon="15.726482686752549"><ele>486.0</ele><time>2026-03-22T11:19:52Z</time></trkpt><trkpt lat="40.01970133981922" lon="15.726339073218531"><ele>486.0</ele><time>2026-03-22T11:19:53Z</time></trkpt><trkpt lat="40.019785867512354" lon="15.726220250516024"><ele>486.0</ele><time>2026-03-22T11:19:54Z</time></trkpt><trkpt lat="40.01986524787769" lon="15.726126492522681"><ele>486.0</ele><time>2026-03-22T11:19:55Z</time></trkpt><trkpt lat="40.01996218637549" lon="15.726064388298887"><ele>486.25</ele><time>2026-03-22T11:19:56Z</time></trkpt><trkpt lat="40.0200793537794" lon="15.726050205594708"><ele>486.5</ele><time>2026-03-22T11:19:57Z</time></trkpt><trkpt lat="40.02019686796136" lon="15.726084820420395"><ele>486.75</ele><time>2026-03-22T11:19:58Z</time></trkpt><trkpt lat="40.020290377226075" lon="15.726194311451374"><ele>487.0</ele><time>2026-03-22T11:19:59Z</time></trkpt><trkpt lat="40.02037291320679" lon="15.726320064331242"><ele>491.25</ele><time>2026-03-22T11:20:00Z</time></trkpt><trkpt lat="40.02040436742001" lon="15.726484151535091"><ele>495.5</ele><time>2026-03-22T11:20:01Z</time></trkpt><trkpt lat="40.02043288458005" lon="15.7266805083364"><ele>499.75</ele><time>2026-03-22T11:20:02Z</time></trkpt><trkpt lat="40.0204714260665" lon="15.726887242942183"><ele>504.0</ele><time>2026-03-22T11:20:03Z</time></trkpt><trkpt lat="40.020494736494065" lon="15.727109452183655"><ele>506.33333333333337</ele><time>2026-03-22T11:20:04Z</time></trkpt><trkpt lat="40.02052411767569" lon="15.727324792517516"><ele>508.6666666666667</ele><time>2026-03-22T11:20:05Z</time></trkpt><trkpt lat="40.020555322320256" lon="15.727522315063927"><ele>511.0</ele><time>2026-03-22T11:20:06Z</time></trkpt><trkpt lat="40.02058610333751" lon="15.727690961156487"><ele>513.25</ele><time>2026-03-22T11:20:07Z</time></trkpt><trkpt lat="40.020644174418884" lon="15.727849077754044"><ele>515.5</ele><time>2026-03-22T11:20:08Z</time></trkpt><trkpt lat="40.020739768012135" lon="15.72798385750034"><ele>517.75</ele><time>2026-03-22T11:20:09Z</time></trkpt><trkpt lat="40.020848351947635" lon="15.728094830200828"><ele>520.0</ele><time>2026-03-22T11:20:10Z</time></trkpt><trkpt lat="40.0209262650906" lon="15.728196887328341"><ele>520.0</ele><time>2026-03-22T11:20:11Z</time></trkpt><trkpt lat="40.02093373067255" lon="15.72831744125637"><ele>520.0</ele><time>2026-03-22T11:20:12Z</time></trkpt><trkpt lat="40.02091903752681" lon="15.72841842520906"><ele>520.0</ele><time>2026-03-22T11:20:13Z</time></trkpt><trkpt lat="40.020845621915036" lon="15.728490204972081"><ele>520.0</ele><time>2026-03-22T11:20:14Z</time></trkpt><trkpt lat="40.02074729442182" lon="15.728513491794192"><ele>520.0</ele><time>2026-03-22T11:20:15Z</time></trkpt><trkpt lat="40.02063930629369" lon="15.7284593873897"><ele>521.3333333333334</ele><time>2026-03-22T11:20:16Z</time></trkpt><trkpt lat="40.02050589542303" lon="15.728390876962802"><ele>522.6666666666666</ele><time>2026-03-22T11:20:17Z</time></trkpt><trkpt lat="40.0203412422068" lon="15.728324697595816"><ele>524.0</ele><time>2026-03-22T11:20:18Z</time></trkpt><trkpt lat="40.020180304697746" lon="15.728240439676206"><ele>524.0</ele><time>2026-03-22T11:20:19Z</time></trkpt><trkpt lat="40.020020293394424" lon="15.728163050728936"><ele>524.0</ele><time>2026-03-22T11:20:20Z</time></trkpt><trkpt lat="40.01987663438153" lon="15.728083884202954"><ele>524.0</ele><time>2026-03-22T11:20:21Z</time></trkpt><trkpt lat="40.01975128945188" lon="15.728019854885412"><ele>523.25</ele><time>2026-03-22T11:20:22Z</time></trkpt><trkpt lat="40.01963025031537" lon="15.727986090533582"><ele>522.5</ele><time>2026-03-22T11:20:23Z</time></trkpt><trkpt lat="40.01950177894628" lon="15.727990125336241"><ele>521.75</ele><time>2026-03-22T11:20:24Z</time></trkpt><trkpt lat="40.01935565176752" lon="15.728049372127767"><ele>521.0</ele><time>2026-03-22T11:20:25Z</time></trkpt><trkpt lat="40.01921791946816" lon="15.72812374118533"><ele>515.25</ele><time>2026-03-22T11:20:26Z</time></trkpt><trkpt lat="40.01910065279933" lon="15.7282042672486"><ele>509.5</ele><time>2026-03-22T11:20:27Z</time></trkpt><trkpt lat="40.019008926777964" lon="15.72830121461934"><ele>503.75</ele><time>2026-03-22T11:20:28Z</time></trkpt><trkpt lat="40.01893396111729" lon="15.72841969277011"><ele>498.0</ele><time>2026-03-22T11:20:29Z</time></trkpt><trkpt lat="40.018865784265316" lon="15.728521663281679"><ele>501.0</ele><time>2026-03-22T11:20:30Z</time></trkpt><trkpt lat="40.018811709800794" lon="15.728591025198574"><ele>504.0</ele><time>2026-03-22T11:20:31Z</time></trkpt><trkpt lat="40.01874740499985" lon="15.728641135522057"><ele>507.0</ele><time>2026-03-22T11:20:33Z</time></trkpt><trkpt lat="40.01869567054362" lon="15.728709627459144"><ele>510.0</ele><time>2026-03-22T11:22:10Z</time></trkpt><trkpt lat="40.018657074005944" lon="15.728778807702682"><ele>513.0</ele><time>2026-03-22T11:22:11Z</time></trkpt><trkpt lat="40.01861134814343" lon="15.728859085422418"><ele>516.0</ele><time>2026-03-22T11:22:12Z</time></trkpt><trkpt lat="40.01856540653171" lon="15.728961896451521"><ele>516.0</ele><time>2026-03-22T11:22:13Z</time></trkpt><trkpt lat="40.018490510278745" lon="15.729088950321264"><ele>516.0</ele><time>2026-03-22T11:22:14Z</time></trkpt><trkpt lat="40.01840315233196" lon="15.729209057417949"><ele>516.0</ele><time>2026-03-22T11:22:15Z</time></trkpt><trkpt lat="40.018304717416335" lon="15.729319313655466"><ele>516.0</ele><time>2026-03-22T11:22:16Z</time></trkpt><trkpt lat="40.01820730991108" lon="15.729413118021322"><ele>516.0</ele><time>2026-03-22T11:22:17Z</time></trkpt><trkpt lat="40.018118868725445" lon="15.729499574375252"><ele>516.0</ele><time>2026-03-22T11:22:18Z</time></trkpt><trkpt lat="40.01803965179163" lon="15.729590586508579"><ele>516.0</ele><time>2026-03-22T11:22:19Z</time></trkpt><trkpt lat="40.01796725642242" lon="15.729704550583795"><ele>516.0</ele><time>2026-03-22T11:22:20Z</time></trkpt><trkpt lat="40.0178992736924" lon="15.729829369976697"><ele>516.0</ele><time>2026-03-22T11:22:21Z</time></trkpt><trkpt lat="40.017830126513346" lon="15.729974608984557"><ele>516.0</ele><time>2026-03-22T11:22:22Z</time></trkpt><trkpt lat="40.01775757963994" lon="15.73012864977904"><ele>516.0</ele><time>2026-03-22T11:22:23Z</time></trkpt><trkpt lat="40.01769039607054" lon="15.730275210028204"><ele>516.0</ele><time>2026-03-22T11:22:24Z</time></trkpt><trkpt lat="40.01763761159754" lon="15.730402253629281"><ele>516.0</ele><time>2026-03-22T11:22:25Z</time></trkpt><trkpt lat="40.01760616224958" lon="15.730527772221198"><ele>518.4</ele><time>2026-03-22T11:22:26Z</time></trkpt><trkpt lat="40.01761326971507" lon="15.730650920360802"><ele>520.8</ele><time>2026-03-22T11:22:27Z</time></trkpt><trkpt lat="40.017657907552795" lon="15.7307530452294"><ele>523.1999999999999</ele><time>2026-03-22T11:22:28Z</time></trkpt><trkpt lat="40.017713974526934" lon="15.730821050845915"><ele>525.6</ele><time>2026-03-22T11:22:29Z</time></trkpt><trkpt lat="40.01779556401721" lon="15.730881789165851"><ele>528.0</ele><time>2026-03-22T11:22:30Z</time></trkpt><trkpt lat="40.017896387803596" lon="15.730939120643747"><ele>528.0</ele><time>2026-03-22T11:22:31Z</time></trkpt><trkpt lat="40.01801649017264" lon="15.730989271190625"><ele>528.0</ele><time>2026-03-22T11:22:32Z</time></trkpt><trkpt lat="40.01816102793072" lon="15.731038577094143"><ele>528.0</ele><time>2026-03-22T11:22:33Z</time></trkpt><trkpt lat="40.01832894684691" lon="15.731086637816441"><ele>528.0</ele><time>2026-03-22T11:22:34Z</time></trkpt><trkpt lat="40.01855325340402" lon="15.731153071234202"><ele>537.5</ele><time>2026-03-22T11:22:35Z</time></trkpt><trkpt lat="40.018828374019826" lon="15.731233307161494"><ele>547.0</ele><time>2026-03-22T11:22:36Z</time></trkpt><trkpt lat="40.01912278300305" lon="15.731313468124167"><ele>546.0</ele><time>2026-03-22T11:22:37Z</time></trkpt><trkpt lat="40.01936723538856" lon="15.73137560439787"><ele>545.0</ele><time>2026-03-22T11:22:38Z</time></trkpt><trkpt lat="40.019566940592895" lon="15.73142211410857"><ele>545.0</ele><time>2026-03-22T11:22:38.999Z</time></trkpt><trkpt lat="40.01971764051724" lon="15.731448729543636"><ele>545.0</ele><time>2026-03-22T11:22:39.999Z</time></trkpt><trkpt lat="40.01985409462493" lon="15.731451427965688"><ele>545.0</ele><time>2026-03-22T11:22:40.999Z</time></trkpt><trkpt lat="40.019991143476155" lon="15.73141193198108"><ele>545.0</ele><time>2026-03-22T11:22:41.999Z</time></trkpt><trkpt lat="40.02014174240711" lon="15.731372270041957"><ele>547.0</ele><time>2026-03-22T11:22:42.999Z</time></trkpt><trkpt lat="40.02029430022193" lon="15.731345021407208"><ele>549.0</ele><time>2026-03-22T11:22:43.999Z</time></trkpt><trkpt lat="40.020447418034635" lon="15.731319476395143"><ele>551.0</ele><time>2026-03-22T11:22:44.999Z</time></trkpt><trkpt lat="40.020596307306825" lon="15.73129488321674"><ele>551.0</ele><time>2026-03-22T11:22:45.999Z</time></trkpt><trkpt lat="40.020737743304" lon="15.731264872352611"><ele>551.0</ele><time>2026-03-22T11:22:46.999Z</time></trkpt><trkpt lat="40.02087299313409" lon="15.731235833884467"><ele>551.0</ele><time>2026-03-22T11:22:47.999Z</time></trkpt><trkpt lat="40.0210028858397" lon="15.731209676600391"><ele>551.0</ele><time>2026-03-22T11:22:48.999Z</time></trkpt><trkpt lat="40.021123398162146" lon="15.731178162285321"><ele>550.2</ele><time>2026-03-22T11:22:49.999Z</time></trkpt><trkpt lat="40.021230812583106" lon="15.731131442613615"><ele>549.4000000000001</ele><time>2026-03-22T11:22:50.999Z</time></trkpt><trkpt lat="40.021329311044084" lon="15.731067251181472"><ele>548.6</ele><time>2026-03-22T11:22:51.999Z</time></trkpt><trkpt lat="40.02141188188201" lon="15.73098522828101"><ele>547.8000000000001</ele><time>2026-03-22T11:22:52.999Z</time></trkpt><trkpt lat="40.02147244042731" lon="15.730887280301973"><ele>547.0</ele><time>2026-03-22T11:22:53.999Z</time></trkpt><trkpt lat="40.02151519865404" lon="15.730781829254806"><ele>547.0</ele><time>2026-03-22T11:22:54.999Z</time></trkpt><trkpt lat="40.02154403751231" lon="15.730669554745809"><ele>547.0</ele><time>2026-03-22T11:22:55.999Z</time></trkpt><trkpt lat="40.021560791875785" lon="15.730553781571682"><ele>547.0</ele><time>2026-03-22T11:22:56.999Z</time></trkpt><trkpt lat="40.02156496674549" lon="15.73043675378654"><ele>547.0</ele><time>2026-03-22T11:22:57.999Z</time></trkpt><trkpt lat="40.02155852056333" lon="15.730314031675668"><ele>547.0</ele><time>2026-03-22T11:22:58.999Z</time></trkpt><trkpt lat="40.02154118869841" lon="15.730169186320902"><ele>546.0</ele><time>2026-03-22T11:22:59.999Z</time></trkpt><trkpt lat="40.0215231367588" lon="15.730004959340482"><ele>545.0</ele><time>2026-03-22T11:23:00.999Z</time></trkpt><trkpt lat="40.021523455828714" lon="15.729851734601064"><ele>544.0</ele><time>2026-03-22T11:23:01.999Z</time></trkpt><trkpt lat="40.021546597922786" lon="15.729728298052914"><ele>543.0</ele><time>2026-03-22T11:23:02.999Z</time></trkpt><trkpt lat="40.02160866195522" lon="15.729638234240353"><ele>542.0</ele><time>2026-03-22T11:23:03.999Z</time></trkpt><trkpt lat="40.02170141608486" lon="15.729577687356219"><ele>546.5</ele><time>2026-03-22T11:23:04.999Z</time></trkpt><trkpt lat="40.02180294212356" lon="15.729546645890926"><ele>551.0</ele><time>2026-03-22T11:23:05.999Z</time></trkpt><trkpt lat="40.02192003353861" lon="15.72956683153627"><ele>555.5</ele><time>2026-03-22T11:23:06.999Z</time></trkpt><trkpt lat="40.02204432979791" lon="15.729621019687437"><ele>560.0</ele><time>2026-03-22T11:23:07.999Z</time></trkpt><trkpt lat="40.0221688321902" lon="15.729662188057494"><ele>560.0</ele><time>2026-03-22T11:23:08.999Z</time></trkpt><trkpt lat="40.022300949034744" lon="15.729687483080097"><ele>560.0</ele><time>2026-03-22T11:23:09.999Z</time></trkpt><trkpt lat="40.02243594965007" lon="15.72971813452155"><ele>560.0</ele><time>2026-03-22T11:23:10.999Z</time></trkpt><trkpt lat="40.02257402726098" lon="15.729764370680229"><ele>560.0</ele><time>2026-03-22T11:23:11.999Z</time></trkpt><trkpt lat="40.02271301062827" lon="15.729811316100472"><ele>562.6666666666666</ele><time>2026-03-22T11:23:12.999Z</time></trkpt><trkpt lat="40.02286382961406" lon="15.72986363652854"><ele>565.3333333333334</ele><time>2026-03-22T11:23:13.999Z</time></trkpt><trkpt lat="40.02301899665855" lon="15.72992233169253"><ele>568.0</ele><time>2026-03-22T11:23:14.999Z</time></trkpt><trkpt lat="40.023172305773265" lon="15.72999627468696"><ele>568.0</ele><time>2026-03-22T11:23:15.999Z</time></trkpt><trkpt lat="40.02329851333515" lon="15.73012436090241"><ele>568.0</ele><time>2026-03-22T11:23:16.999Z</time></trkpt><trkpt lat="40.023426006041454" lon="15.730242175969675"><ele>568.0</ele><time>2026-03-22T11:23:17.999Z</time></trkpt><trkpt lat="40.0235547948675" lon="15.730347465541092"><ele>570.3333333333334</ele><time>2026-03-22T11:23:18.999Z</time></trkpt><trkpt lat="40.02367598048017" lon="15.73046786907704"><ele>572.6666666666666</ele><time>2026-03-22T11:23:19.999Z</time></trkpt><trkpt lat="40.02379958922357" lon="15.73058597999377"><ele>575.0</ele><time>2026-03-22T11:23:20.999Z</time></trkpt><trkpt lat="40.02392429576722" lon="15.730702339296522"><ele>575.0</ele><time>2026-03-22T11:23:21.999Z</time></trkpt><trkpt lat="40.024050203376824" lon="15.730816197761627"><ele>575.0</ele><time>2026-03-22T11:23:22.999Z</time></trkpt><trkpt lat="40.02417591315174" lon="15.73092032201502"><ele>575.0</ele><time>2026-03-22T11:23:23.999Z</time></trkpt><trkpt lat="40.02430927367682" lon="15.731013648276779"><ele>576.3333333333333</ele><time>2026-03-22T11:23:24.999Z</time></trkpt><trkpt lat="40.02444105445628" lon="15.731111371297246"><ele>577.6666666666666</ele><time>2026-03-22T11:23:25.999Z</time></trkpt><trkpt lat="40.024574859902664" lon="15.731209902245068"><ele>579.0</ele><time>2026-03-22T11:23:26.999Z</time></trkpt><trkpt lat="40.02471137802631" lon="15.731310673994841"><ele>579.0</ele><time>2026-03-22T11:23:27.999Z</time></trkpt><trkpt lat="40.024840210912636" lon="15.731405955065933"><ele>579.0</ele><time>2026-03-22T11:23:28.999Z</time></trkpt><trkpt lat="40.02496094013148" lon="15.731489026594382"><ele>579.0</ele><time>2026-03-22T11:23:29.999Z</time></trkpt><trkpt lat="40.025088713868094" lon="15.73153158392372"><ele>579.0</ele><time>2026-03-22T11:23:30.999Z</time></trkpt><trkpt lat="40.0252202294938" lon="15.73151442080756"><ele>580.75</ele><time>2026-03-22T11:23:31.999Z</time></trkpt><trkpt lat="40.02534885676703" lon="15.73143596331315"><ele>582.5</ele><time>2026-03-22T11:23:32.999Z</time></trkpt><trkpt lat="40.025473399886785" lon="15.731348264064353"><ele>584.25</ele><time>2026-03-22T11:23:33.999Z</time></trkpt><trkpt lat="40.02560237607094" lon="15.731263106120837"><ele>586.0</ele><time>2026-03-22T11:23:34.999Z</time></trkpt><trkpt lat="40.02573455568896" lon="15.731188369474829"><ele>585.5</ele><time>2026-03-22T11:23:35.999Z</time></trkpt><trkpt lat="40.025872888040226" lon="15.731133118702775"><ele>585.0</ele><time>2026-03-22T11:23:36.999Z</time></trkpt><trkpt lat="40.026016245106895" lon="15.731088092772792"><ele>584.5</ele><time>2026-03-22T11:23:37.999Z</time></trkpt><trkpt lat="40.02616101256355" lon="15.731048381765964"><ele>584.0</ele><time>2026-03-22T11:23:38.999Z</time></trkpt><trkpt lat="40.02630200220837" lon="15.731010968646025"><ele>584.0</ele><time>2026-03-22T11:23:39.999Z</time></trkpt><trkpt lat="40.02644024895593" lon="15.730971267618257"><ele>584.0</ele><time>2026-03-22T11:23:40.999Z</time></trkpt><trkpt lat="40.026573873929294" lon="15.730939671186386"><ele>584.0</ele><time>2026-03-22T11:23:41.999Z</time></trkpt><trkpt lat="40.02670469947157" lon="15.730933498536668"><ele>584.0</ele><time>2026-03-22T11:23:42.999Z</time></trkpt><trkpt lat="40.02683046707582" lon="15.73097310252026"><ele>587.5</ele><time>2026-03-22T11:23:43.999Z</time></trkpt><trkpt lat="40.02694402030239" lon="15.731050529982792"><ele>591.0</ele><time>2026-03-22T11:23:44.999Z</time></trkpt><trkpt lat="40.02704676968677" lon="15.731169940226735"><ele>594.5</ele><time>2026-03-22T11:23:45.999Z</time></trkpt><trkpt lat="40.027139057126305" lon="15.731291308960097"><ele>598.0</ele><time>2026-03-22T11:23:46.999Z</time></trkpt><trkpt lat="40.02721693067595" lon="15.731426972400103"><ele>601.25</ele><time>2026-03-22T11:23:47.999Z</time></trkpt><trkpt lat="40.02726583919262" lon="15.731585841343952"><ele>604.5</ele><time>2026-03-22T11:23:48.999Z</time></trkpt><trkpt lat="40.027323075640645" lon="15.731752872638975"><ele>607.75</ele><time>2026-03-22T11:23:50Z</time></trkpt><trkpt lat="40.027310916613075" lon="15.731949640974909"><ele>611.0</ele><time>2026-03-22T11:23:51Z</time></trkpt><trkpt lat="40.02731473132239" lon="15.7321507542501"><ele>612.0</ele><time>2026-03-22T11:23:52Z</time></trkpt><trkpt lat="40.02734349523312" lon="15.732353782285363"><ele>613.0</ele><time>2026-03-22T11:23:53Z</time></trkpt><trkpt lat="40.02739639803612" lon="15.732555452985961"><ele>614.0</ele><time>2026-03-22T11:23:54Z</time></trkpt><trkpt lat="40.0274981779998" lon="15.732736095309095"><ele>611.0</ele><time>2026-03-22T11:23:55Z</time></trkpt><trkpt lat="40.02763259513521" lon="15.732890586330418"><ele>608.0</ele><time>2026-03-22T11:23:56Z</time></trkpt><trkpt lat="40.027776286468026" lon="15.733038336670962"><ele>605.0</ele><time>2026-03-22T11:23:57Z</time></trkpt><trkpt lat="40.027920612312016" lon="15.733190329402387"><ele>605.0</ele><time>2026-03-22T11:23:58Z</time></trkpt><trkpt lat="40.02806197662973" lon="15.733343883856266"><ele>605.0</ele><time>2026-03-22T11:23:59Z</time></trkpt><trkpt lat="40.02818990703006" lon="15.733492942035452"><ele>605.0</ele><time>2026-03-22T11:24:00Z</time></trkpt><trkpt lat="40.028308523497806" lon="15.733631024781989"><ele>602.25</ele><time>2026-03-22T11:24:01Z</time></trkpt><trkpt lat="40.0284175096147" lon="15.733765913307904"><ele>599.5</ele><time>2026-03-22T11:24:02Z</time></trkpt><trkpt lat="40.028490664746116" lon="15.733919748729866"><ele>596.75</ele><time>2026-03-22T11:24:03Z</time></trkpt><trkpt lat="40.028505595343596" lon="15.734084155984169"><ele>594.0</ele><time>2026-03-22T11:24:04Z</time></trkpt><trkpt lat="40.02847642467172" lon="15.734238009084804"><ele>593.25</ele><time>2026-03-22T11:24:05Z</time></trkpt><trkpt lat="40.02845065963488" lon="15.734411687920318"><ele>592.5</ele><time>2026-03-22T11:24:06Z</time></trkpt><trkpt lat="40.028439825542065" lon="15.734602211986086"><ele>591.75</ele><time>2026-03-22T11:24:07Z</time></trkpt><trkpt lat="40.02839931488727" lon="15.734790189483249"><ele>591.0</ele><time>2026-03-22T11:24:08Z</time></trkpt><trkpt lat="40.02837700230221" lon="15.734981938286513"><ele>591.0</ele><time>2026-03-22T11:24:09Z</time></trkpt><trkpt lat="40.02835675771415" lon="15.735183632702668"><ele>591.0</ele><time>2026-03-22T11:24:10Z</time></trkpt><trkpt lat="40.02833677711326" lon="15.73538862278721"><ele>591.0</ele><time>2026-03-22T11:24:11Z</time></trkpt><trkpt lat="40.028308059856435" lon="15.735595711487353"><ele>595.3333333333334</ele><time>2026-03-22T11:24:12Z</time></trkpt><trkpt lat="40.02827553370947" lon="15.735808109652535"><ele>599.6666666666667</ele><time>2026-03-22T11:24:13Z</time></trkpt><trkpt lat="40.02824274354405" lon="15.7360204471117"><ele>604.0</ele><time>2026-03-22T11:24:14Z</time></trkpt><trkpt lat="40.028211620131444" lon="15.736231229544703"><ele>604.0</ele><time>2026-03-22T11:24:15Z</time></trkpt><trkpt lat="40.028187059568005" lon="15.736442908825959"><ele>604.0</ele><time>2026-03-22T11:24:16Z</time></trkpt><trkpt lat="40.02816835335412" lon="15.7366483226444"><ele>604.0</ele><time>2026-03-22T11:24:17Z</time></trkpt><trkpt lat="40.028181534857815" lon="15.736838828277271"><ele>604.0</ele><time>2026-03-22T11:24:18Z</time></trkpt><trkpt lat="40.02819199949708" lon="15.737010513989999"><ele>604.0</ele><time>2026-03-22T11:24:19Z</time></trkpt><trkpt lat="40.02821658604115" lon="15.737158078840045"><ele>604.0</ele><time>2026-03-22T11:24:20Z</time></trkpt><trkpt lat="40.02822924843945" lon="15.73731446123115"><ele>604.0</ele><time>2026-03-22T11:24:21Z</time></trkpt><trkpt lat="40.0282494190827" lon="15.737470713740676"><ele>604.0</ele><time>2026-03-22T11:24:22Z</time></trkpt><trkpt lat="40.028267736787015" lon="15.737633683490586"><ele>604.0</ele><time>2026-03-22T11:24:23Z</time></trkpt><trkpt lat="40.028229072528305" lon="15.73778648229771"><ele>604.0</ele><time>2026-03-22T11:24:24Z</time></trkpt><trkpt lat="40.028181160360504" lon="15.737918370831785"><ele>604.0</ele><time>2026-03-22T11:24:25Z</time></trkpt><trkpt lat="40.02812239320605" lon="15.738039817935999"><ele>602.5</ele><time>2026-03-22T11:24:26Z</time></trkpt><trkpt lat="40.0280625331518" lon="15.738166574442035"><ele>601.0</ele><time>2026-03-22T11:24:27Z</time></trkpt><trkpt lat="40.02800080817184" lon="15.738296837055486"><ele>599.5</ele><time>2026-03-22T11:24:28Z</time></trkpt><trkpt lat="40.02793578421011" lon="15.73843390499912"><ele>598.0</ele><time>2026-03-22T11:24:29Z</time></trkpt><trkpt lat="40.02786442583188" lon="15.73858432564737"><ele>596.0</ele><time>2026-03-22T11:24:30Z</time></trkpt><trkpt lat="40.02778542545278" lon="15.738750855324358"><ele>594.0</ele><time>2026-03-22T11:24:31Z</time></trkpt><trkpt lat="40.0277075057894" lon="15.738916644121534"><ele>592.0</ele><time>2026-03-22T11:24:32Z</time></trkpt><trkpt lat="40.02763203183938" lon="15.73907822008414"><ele>590.0</ele><time>2026-03-22T11:24:33Z</time></trkpt><trkpt lat="40.02755534977348" lon="15.739244987393242"><ele>590.0</ele><time>2026-03-22T11:24:34Z</time></trkpt><trkpt lat="40.02749602308671" lon="15.739423909223035"><ele>590.0</ele><time>2026-03-22T11:24:35Z</time></trkpt><trkpt lat="40.02746838603995" lon="15.739608820791405"><ele>590.0</ele><time>2026-03-22T11:24:36Z</time></trkpt><trkpt lat="40.0275014855161" lon="15.739782463794311"><ele>590.0</ele><time>2026-03-22T11:24:37Z</time></trkpt><trkpt lat="40.02754446943819" lon="15.739942339928175"><ele>590.0</ele><time>2026-03-22T11:24:38Z</time></trkpt><trkpt lat="40.027577883680856" lon="15.74011779357326"><ele>590.0</ele><time>2026-03-22T11:24:39Z</time></trkpt><trkpt lat="40.02762271806995" lon="15.740299417745872"><ele>590.0</ele><time>2026-03-22T11:24:40Z</time></trkpt><trkpt lat="40.02768556307594" lon="15.740477115004008"><ele>590.0</ele><time>2026-03-22T11:24:41Z</time></trkpt><trkpt lat="40.027728943908066" lon="15.740663768980562"><ele>590.6666666666666</ele><time>2026-03-22T11:24:42Z</time></trkpt><trkpt lat="40.02774527297745" lon="15.740858424417356"><ele>591.3333333333334</ele><time>2026-03-22T11:24:43Z</time></trkpt><trkpt lat="40.027754379646005" lon="15.741060263281685"><ele>592.0</ele><time>2026-03-22T11:24:44Z</time></trkpt><trkpt lat="40.027751469637735" lon="15.741273421289241"><ele>592.0</ele><time>2026-03-22T11:24:45Z</time></trkpt><trkpt lat="40.02775286605853" lon="15.741489450411311"><ele>592.0</ele><time>2026-03-22T11:24:46Z</time></trkpt><trkpt lat="40.02779065333504" lon="15.741698055201116"><ele>592.0</ele><time>2026-03-22T11:24:47Z</time></trkpt><trkpt lat="40.02783753017067" lon="15.741895006257144"><ele>590.75</ele><time>2026-03-22T11:24:48Z</time></trkpt><trkpt lat="40.02790914754422" lon="15.742063638383168"><ele>589.5</ele><time>2026-03-22T11:24:49Z</time></trkpt><trkpt lat="40.02796816602817" lon="15.74221938879918"><ele>588.25</ele><time>2026-03-22T11:24:49.999Z</time></trkpt><trkpt lat="40.02795018436052" lon="15.742383159171634"><ele>587.0</ele><time>2026-03-22T11:24:50.999Z</time></trkpt><trkpt lat="40.027906555800215" lon="15.742522323829593"><ele>587.0</ele><time>2026-03-22T11:24:51.999Z</time></trkpt><trkpt lat="40.02781257396665" lon="15.742645631006495"><ele>587.0</ele><time>2026-03-22T11:24:52.999Z</time></trkpt><trkpt lat="40.02773090885076" lon="15.74280233530141"><ele>587.0</ele><time>2026-03-22T11:24:53.999Z</time></trkpt><trkpt lat="40.02767993418995" lon="15.742984559528242"><ele>587.0</ele><time>2026-03-22T11:24:54.999Z</time></trkpt><trkpt lat="40.027620990124014" lon="15.74317088627298"><ele>586.3333333333333</ele><time>2026-03-22T11:24:55.999Z</time></trkpt><trkpt lat="40.02761441195268" lon="15.74337076474803"><ele>585.6666666666666</ele><time>2026-03-22T11:24:56.999Z</time></trkpt><trkpt lat="40.02761875410132" lon="15.743570002983157"><ele>585.0</ele><time>2026-03-22T11:24:57.999Z</time></trkpt><trkpt lat="40.027656176758796" lon="15.74376937568208"><ele>585.0</ele><time>2026-03-22T11:24:58.999Z</time></trkpt><trkpt lat="40.02773076394188" lon="15.743962139816336"><ele>585.0</ele><time>2026-03-22T11:24:59.999Z</time></trkpt><trkpt lat="40.027826222074395" lon="15.744134774775421"><ele>585.0</ele><time>2026-03-22T11:25:00.999Z</time></trkpt><trkpt lat="40.02794036563054" lon="15.74428207906477"><ele>586.75</ele><time>2026-03-22T11:25:01.999Z</time></trkpt><trkpt lat="40.02805392296408" lon="15.744407144266372"><ele>588.5</ele><time>2026-03-22T11:25:02.999Z</time></trkpt><trkpt lat="40.02815512867683" lon="15.74453240809462"><ele>590.25</ele><time>2026-03-22T11:25:03.999Z</time></trkpt><trkpt lat="40.02823475917204" lon="15.744688583705178"><ele>592.0</ele><time>2026-03-22T11:25:04.999Z</time></trkpt><trkpt lat="40.028282864884794" lon="15.744869029268992"><ele>592.0</ele><time>2026-03-22T11:25:05.999Z</time></trkpt><trkpt lat="40.02828837424806" lon="15.745060644826648"><ele>592.0</ele><time>2026-03-22T11:25:06.999Z</time></trkpt><trkpt lat="40.0282557963872" lon="15.745260982117498"><ele>592.0</ele><time>2026-03-22T11:25:07.999Z</time></trkpt><trkpt lat="40.028193838386265" lon="15.745467779770449"><ele>591.0</ele><time>2026-03-22T11:25:08.999Z</time></trkpt><trkpt lat="40.02814562132554" lon="15.745682533716371"><ele>590.0</ele><time>2026-03-22T11:25:09.999Z</time></trkpt><trkpt lat="40.02809973682367" lon="15.745905358303279"><ele>589.0</ele><time>2026-03-22T11:25:10.999Z</time></trkpt><trkpt lat="40.02806788258629" lon="15.74612614244521"><ele>589.0</ele><time>2026-03-22T11:25:11.999Z</time></trkpt><trkpt lat="40.02805744457858" lon="15.746354007561038"><ele>589.0</ele><time>2026-03-22T11:25:12.999Z</time></trkpt><trkpt lat="40.028071412871874" lon="15.746584571865323"><ele>589.0</ele><time>2026-03-22T11:25:13.999Z</time></trkpt><trkpt lat="40.028093123321625" lon="15.746804735037347"><ele>585.75</ele><time>2026-03-22T11:25:14.999Z</time></trkpt><trkpt lat="40.02811068418057" lon="15.747011713089751"><ele>582.5</ele><time>2026-03-22T11:25:15.999Z</time></trkpt><trkpt lat="40.02811569295553" lon="15.747199785043726"><ele>579.25</ele><time>2026-03-22T11:25:16.999Z</time></trkpt><trkpt lat="40.02809939865781" lon="15.747377255392808"><ele>576.0</ele><time>2026-03-22T11:25:17.999Z</time></trkpt><trkpt lat="40.02805228210707" lon="15.747535952326748"><ele>576.0</ele><time>2026-03-22T11:25:18.999Z</time></trkpt><trkpt lat="40.02793913308227" lon="15.747628079950127"><ele>576.0</ele><time>2026-03-22T11:25:19.999Z</time></trkpt><trkpt lat="40.02781996676028" lon="15.747752730897771"><ele>576.0</ele><time>2026-03-22T11:25:20.999Z</time></trkpt><trkpt lat="40.0276983916164" lon="15.74789376141678"><ele>576.0</ele><time>2026-03-22T11:25:21.999Z</time></trkpt><trkpt lat="40.02762280278215" lon="15.748095864855417"><ele>572.6666666666666</ele><time>2026-03-22T11:25:22.999Z</time></trkpt><trkpt lat="40.02753556255814" lon="15.748327484912775"><ele>569.3333333333333</ele><time>2026-03-22T11:25:23.999Z</time></trkpt><trkpt lat="40.027457925097536" lon="15.748578316767956"><ele>566.0</ele><time>2026-03-22T11:25:24.999Z</time></trkpt><trkpt lat="40.0273825393191" lon="15.748821315816484"><ele>567.3333333333333</ele><time>2026-03-22T11:25:25.999Z</time></trkpt><trkpt lat="40.02730701498297" lon="15.749063788794434"><ele>568.6666666666666</ele><time>2026-03-22T11:25:26.999Z</time></trkpt><trkpt lat="40.027232347776085" lon="15.749303509829081"><ele>570.0</ele><time>2026-03-22T11:25:27.999Z</time></trkpt><trkpt lat="40.02716122436084" lon="15.74952695668938"><ele>570.0</ele><time>2026-03-22T11:25:28.999Z</time></trkpt><trkpt lat="40.02707472978041" lon="15.749725677357159"><ele>570.0</ele><time>2026-03-22T11:25:29.999Z</time></trkpt><trkpt lat="40.02697657545439" lon="15.749909037283647"><ele>570.0</ele><time>2026-03-22T11:25:30.999Z</time></trkpt><trkpt lat="40.02686024296088" lon="15.75008282796784"><ele>573.0</ele><time>2026-03-22T11:25:31.999Z</time></trkpt><trkpt lat="40.02673502659203" lon="15.750262249522171"><ele>576.0</ele><time>2026-03-22T11:25:32.999Z</time></trkpt><trkpt lat="40.026606875914155" lon="15.750444671310108"><ele>579.0</ele><time>2026-03-22T11:25:33.999Z</time></trkpt><trkpt lat="40.02647721523466" lon="15.75062831974033"><ele>579.0</ele><time>2026-03-22T11:25:34.999Z</time></trkpt><trkpt lat="40.02634658889902" lon="15.750814234546569"><ele>579.0</ele><time>2026-03-22T11:25:35.999Z</time></trkpt><trkpt lat="40.02621977237691" lon="15.751004679816926"><ele>579.0</ele><time>2026-03-22T11:25:36.999Z</time></trkpt><trkpt lat="40.026100964659236" lon="15.751204634926085"><ele>574.6666666666666</ele><time>2026-03-22T11:25:37.999Z</time></trkpt><trkpt lat="40.02600172353591" lon="15.751427138122686"><ele>570.3333333333333</ele><time>2026-03-22T11:25:38.999Z</time></trkpt><trkpt lat="40.02592722881867" lon="15.751680694682927"><ele>566.0</ele><time>2026-03-22T11:25:39.999Z</time></trkpt><trkpt lat="40.025867076174215" lon="15.751951648684807"><ele>567.0</ele><time>2026-03-22T11:25:40.999Z</time></trkpt><trkpt lat="40.02582219767266" lon="15.752234232041273"><ele>568.0</ele><time>2026-03-22T11:25:41.999Z</time></trkpt><trkpt lat="40.02577563087401" lon="15.75251697270483"><ele>569.0</ele><time>2026-03-22T11:25:42.999Z</time></trkpt><trkpt lat="40.02572578690437" lon="15.752804537576466"><ele>569.0</ele><time>2026-03-22T11:25:43.999Z</time></trkpt><trkpt lat="40.0256772419999" lon="15.753091659057246"><ele>569.0</ele><time>2026-03-22T11:25:44.999Z</time></trkpt><trkpt lat="40.02563278991489" lon="15.753371039936658"><ele>569.0</ele><time>2026-03-22T11:25:45.999Z</time></trkpt><trkpt lat="40.0255919924231" lon="15.753627396057386"><ele>567.3333333333333</ele><time>2026-03-22T11:25:46.999Z</time></trkpt><trkpt lat="40.025552040144674" lon="15.753871159153329"><ele>565.6666666666666</ele><time>2026-03-22T11:25:47.999Z</time></trkpt><trkpt lat="40.02551443495637" lon="15.754100601765204"><ele>564.0</ele><time>2026-03-22T11:25:48.999Z</time></trkpt><trkpt lat="40.02547870822081" lon="15.754318583364281"><ele>563.0</ele><time>2026-03-22T11:25:49.999Z</time></trkpt><trkpt lat="40.025444890926224" lon="15.754525932079146"><ele>562.0</ele><time>2026-03-22T11:25:50.999Z</time></trkpt><trkpt lat="40.025412797016074" lon="15.754723225025774"><ele>561.0</ele><time>2026-03-22T11:25:51.999Z</time></trkpt><trkpt lat="40.02538285692151" lon="15.754907277642134"><ele>561.0</ele><time>2026-03-22T11:25:52.999Z</time></trkpt><trkpt lat="40.025353866375845" lon="15.755085493009801"><ele>561.0</ele><time>2026-03-22T11:25:53.999Z</time></trkpt><trkpt lat="40.025324865003896" lon="15.755263775046503"><ele>561.0</ele><time>2026-03-22T11:25:54.999Z</time></trkpt><trkpt lat="40.025296769606605" lon="15.755436487666893"><ele>561.0</ele><time>2026-03-22T11:25:56Z</time></trkpt><trkpt lat="40.0252692222676" lon="15.755605831164084"><ele>560.0</ele><time>2026-03-22T11:25:57Z</time></trkpt><trkpt lat="40.025241070064745" lon="15.755774788911596"><ele>559.0</ele><time>2026-03-22T11:25:58Z</time></trkpt><trkpt lat="40.02522220480887" lon="15.755944647282249"><ele>558.0</ele><time>2026-03-22T11:25:59Z</time></trkpt><trkpt lat="40.02515046247433" lon="15.756084474117177"><ele>557.0</ele><time>2026-03-22T11:26:00Z</time></trkpt><trkpt lat="40.025080605092874" lon="15.756213440584743"><ele>557.5</ele><time>2026-03-22T11:26:01Z</time></trkpt><trkpt lat="40.02500620346108" lon="15.756348122870666"><ele>558.0</ele><time>2026-03-22T11:26:02Z</time></trkpt><trkpt lat="40.02493229605359" lon="15.756492117426893"><ele>558.5</ele><time>2026-03-22T11:26:03Z</time></trkpt><trkpt lat="40.02486483918303" lon="15.756667591365154"><ele>559.0</ele><time>2026-03-22T11:26:04Z</time></trkpt><trkpt lat="40.02482064563893" lon="15.75688215913182"><ele>559.0</ele><time>2026-03-22T11:26:05Z</time></trkpt><trkpt lat="40.02481627722088" lon="15.75711196051317"><ele>559.0</ele><time>2026-03-22T11:26:06Z</time></trkpt><trkpt lat="40.02483079474023" lon="15.757341246862648"><ele>559.0</ele><time>2026-03-22T11:26:07Z</time></trkpt><trkpt lat="40.02484739765983" lon="15.757567452364436"><ele>557.0</ele><time>2026-03-22T11:26:08Z</time></trkpt><trkpt lat="40.02486422845211" lon="15.75779676227564"><ele>555.0</ele><time>2026-03-22T11:26:09Z</time></trkpt><trkpt lat="40.0249017581141" lon="15.758017386952709"><ele>553.0</ele><time>2026-03-22T11:26:10Z</time></trkpt><trkpt lat="40.02491798712815" lon="15.758230731255427"><ele>553.0</ele><time>2026-03-22T11:26:11Z</time></trkpt><trkpt lat="40.02493071574875" lon="15.758423995246742"><ele>553.0</ele><time>2026-03-22T11:26:12Z</time></trkpt><trkpt lat="40.024928204599064" lon="15.758594333823414"><ele>553.0</ele><time>2026-03-22T11:26:13Z</time></trkpt><trkpt lat="40.0248648142986" lon="15.758741526117939"><ele>553.0</ele><time>2026-03-22T11:26:14Z</time></trkpt><trkpt lat="40.024802657617315" lon="15.758889031377217"><ele>550.0</ele><time>2026-03-22T11:26:15Z</time></trkpt><trkpt lat="40.024714582216674" lon="15.759001312854256"><ele>547.0</ele><time>2026-03-22T11:26:16Z</time></trkpt><trkpt lat="40.02460344477316" lon="15.759082424009808"><ele>544.0</ele><time>2026-03-22T11:26:17Z</time></trkpt><trkpt lat="40.024475608595765" lon="15.759112344396687"><ele>541.0</ele><time>2026-03-22T11:26:18Z</time></trkpt><trkpt lat="40.02433218572964" lon="15.759132251012383"><ele>541.0</ele><time>2026-03-22T11:26:19Z</time></trkpt><trkpt lat="40.02420349698738" lon="15.759166532361105"><ele>541.0</ele><time>2026-03-22T11:26:20Z</time></trkpt><trkpt lat="40.024087584557705" lon="15.759286143957354"><ele>541.0</ele><time>2026-03-22T11:26:21Z</time></trkpt><trkpt lat="40.024022910188414" lon="15.759460047089503"><ele>541.0</ele><time>2026-03-22T11:26:22Z</time></trkpt><trkpt lat="40.02396353785387" lon="15.759653453777178"><ele>548.6666666666667</ele><time>2026-03-22T11:26:23Z</time></trkpt><trkpt lat="40.02394477423071" lon="15.759879623392578"><ele>556.3333333333334</ele><time>2026-03-22T11:26:24Z</time></trkpt><trkpt lat="40.02392742687648" lon="15.760107963590196"><ele>564.0</ele><time>2026-03-22T11:26:25Z</time></trkpt><trkpt lat="40.02390655405729" lon="15.760347847737686"><ele>564.0</ele><time>2026-03-22T11:26:26Z</time></trkpt><trkpt lat="40.023887922773795" lon="15.760584523242642"><ele>564.0</ele><time>2026-03-22T11:26:27Z</time></trkpt><trkpt lat="40.023868608412585" lon="15.760829875974482"><ele>564.0</ele><time>2026-03-22T11:26:28Z</time></trkpt><trkpt lat="40.023848978694886" lon="15.761079234713176"><ele>560.0</ele><time>2026-03-22T11:26:29Z</time></trkpt><trkpt lat="40.02382891653338" lon="15.761334086856019"><ele>556.0</ele><time>2026-03-22T11:26:30Z</time></trkpt><trkpt lat="40.023807720606406" lon="15.761589234339128"><ele>552.0</ele><time>2026-03-22T11:26:31Z</time></trkpt><trkpt lat="40.02379024947713" lon="15.761850016752435"><ele>549.0</ele><time>2026-03-22T11:26:32Z</time></trkpt><trkpt lat="40.02379572535627" lon="15.762112045170598"><ele>546.0</ele><time>2026-03-22T11:26:33Z</time></trkpt><trkpt lat="40.02381979438586" lon="15.76236689384813"><ele>543.0</ele><time>2026-03-22T11:26:34Z</time></trkpt><trkpt lat="40.02384769309756" lon="15.762611763651895"><ele>541.3333333333334</ele><time>2026-03-22T11:26:35Z</time></trkpt><trkpt lat="40.0238707291323" lon="15.762853387425887"><ele>539.6666666666667</ele><time>2026-03-22T11:26:36Z</time></trkpt><trkpt lat="40.02387496844975" lon="15.763086973517273"><ele>538.0</ele><time>2026-03-22T11:26:37Z</time></trkpt><trkpt lat="40.023861649407266" lon="15.763315176673187"><ele>536.6666666666667</ele><time>2026-03-22T11:26:38Z</time></trkpt><trkpt lat="40.02382476949632" lon="15.763542708200902"><ele>535.3333333333334</ele><time>2026-03-22T11:26:39Z</time></trkpt><trkpt lat="40.02377534314102" lon="15.763775758059593"><ele>534.0</ele><time>2026-03-22T11:26:40Z</time></trkpt><trkpt lat="40.02372512099805" lon="15.764002013830467"><ele>534.0</ele><time>2026-03-22T11:26:41Z</time></trkpt><trkpt lat="40.023676248044445" lon="15.764221738242622"><ele>534.0</ele><time>2026-03-22T11:26:42Z</time></trkpt><trkpt lat="40.02362653180915" lon="15.764446573503987"><ele>534.0</ele><time>2026-03-22T11:26:43Z</time></trkpt><trkpt lat="40.02358214971966" lon="15.764672862270201"><ele>533.0</ele><time>2026-03-22T11:26:44Z</time></trkpt><trkpt lat="40.02354879470738" lon="15.764893165806079"><ele>532.0</ele><time>2026-03-22T11:26:45Z</time></trkpt><trkpt lat="40.023534299305034" lon="15.765103786171077"><ele>531.0</ele><time>2026-03-22T11:26:46Z</time></trkpt><trkpt lat="40.02353682010366" lon="15.76530573574879"><ele>530.3333333333334</ele><time>2026-03-22T11:26:47Z</time></trkpt><trkpt lat="40.023564722972836" lon="15.765510517817633"><ele>529.6666666666667</ele><time>2026-03-22T11:26:48Z</time></trkpt><trkpt lat="40.02359782587861" lon="15.765714894433916"><ele>529.0</ele><time>2026-03-22T11:26:49Z</time></trkpt><trkpt lat="40.02366164041468" lon="15.76591191840823"><ele>538.6666666666667</ele><time>2026-03-22T11:26:50Z</time></trkpt><trkpt lat="40.02376038874946" lon="15.76609656565969"><ele>548.3333333333334</ele><time>2026-03-22T11:26:51Z</time></trkpt><trkpt lat="40.023879534874354" lon="15.766267980133728"><ele>558.0</ele><time>2026-03-22T11:26:52Z</time></trkpt><trkpt lat="40.02400696889885" lon="15.766408337119179"><ele>558.0</ele><time>2026-03-22T11:26:53Z</time></trkpt><trkpt lat="40.02411325453516" lon="15.766564186437993"><ele>558.0</ele><time>2026-03-22T11:26:54Z</time></trkpt><trkpt lat="40.024152828326606" lon="15.76676539356125"><ele>558.0</ele><time>2026-03-22T11:26:55Z</time></trkpt><trkpt lat="40.02418258624739" lon="15.766970837961598"><ele>550.6666666666666</ele><time>2026-03-22T11:26:56Z</time></trkpt><trkpt lat="40.02423231174674" lon="15.767174932976644"><ele>543.3333333333333</ele><time>2026-03-22T11:26:57Z</time></trkpt><trkpt lat="40.02430929260288" lon="15.767358736612278"><ele>536.0</ele><time>2026-03-22T11:26:58Z</time></trkpt><trkpt lat="40.0244181382057" lon="15.767497731715181"><ele>536.0</ele><time>2026-03-22T11:26:59Z</time></trkpt><trkpt lat="40.024529397954986" lon="15.767614278958224"><ele>536.0</ele><time>2026-03-22T11:27:00Z</time></trkpt><trkpt lat="40.024620291787336" lon="15.76776575272889"><ele>536.0</ele><time>2026-03-22T11:27:01Z</time></trkpt><trkpt lat="40.02468170119293" lon="15.767957024579422"><ele>536.0</ele><time>2026-03-22T11:27:02Z</time></trkpt><trkpt lat="40.02474061941308" lon="15.768158341077237"><ele>541.3333333333333</ele><time>2026-03-22T11:27:03Z</time></trkpt><trkpt lat="40.024789781471505" lon="15.768363861325506"><ele>546.6666666666666</ele><time>2026-03-22T11:27:04Z</time></trkpt><trkpt lat="40.024812191684234" lon="15.76857488987222"><ele>552.0</ele><time>2026-03-22T11:27:05Z</time></trkpt><trkpt lat="40.024841702235015" lon="15.76878579470057"><ele>552.0</ele><time>2026-03-22T11:27:06Z</time></trkpt><trkpt lat="40.02486609682" lon="15.769004706412305"><ele>552.0</ele><time>2026-03-22T11:27:07Z</time></trkpt><trkpt lat="40.02484574897295" lon="15.76922783358507"><ele>552.0</ele><time>2026-03-22T11:27:08Z</time></trkpt><trkpt lat="40.02482315267191" lon="15.769461021918653"><ele>550.3333333333334</ele><time>2026-03-22T11:27:09Z</time></trkpt><trkpt lat="40.02479390485462" lon="15.769697584305971"><ele>548.6666666666667</ele><time>2026-03-22T11:27:09.999Z</time></trkpt><trkpt lat="40.02476002008306" lon="15.769935150636508"><ele>547.0</ele><time>2026-03-22T11:27:10.999Z</time></trkpt><trkpt lat="40.02472574943732" lon="15.770174639306695"><ele>544.6666666666667</ele><time>2026-03-22T11:27:11.999Z</time></trkpt><trkpt lat="40.02469122523404" lon="15.7704178616752"><ele>542.3333333333334</ele><time>2026-03-22T11:27:12.999Z</time></trkpt><trkpt lat="40.02465695794336" lon="15.770659923354259"><ele>540.0</ele><time>2026-03-22T11:27:13.999Z</time></trkpt><trkpt lat="40.02462494186471" lon="15.770889712483324"><ele>535.0</ele><time>2026-03-22T11:27:14.999Z</time></trkpt><trkpt lat="40.02459538477209" lon="15.771102555183703"><ele>530.0</ele><time>2026-03-22T11:27:15.999Z</time></trkpt><trkpt lat="40.02456698345083" lon="15.771307075031935"><ele>525.0</ele><time>2026-03-22T11:27:16.999Z</time></trkpt><trkpt lat="40.024537178771936" lon="15.771513962975071"><ele>525.0</ele><time>2026-03-22T11:27:17.999Z</time></trkpt><trkpt lat="40.02448590970022" lon="15.771710547422822"><ele>525.0</ele><time>2026-03-22T11:27:18.999Z</time></trkpt><trkpt lat="40.024393321069844" lon="15.771876109119813"><ele>525.0</ele><time>2026-03-22T11:27:19.999Z</time></trkpt><trkpt lat="40.024293740676086" lon="15.77203309833099"><ele>521.6666666666666</ele><time>2026-03-22T11:27:20.999Z</time></trkpt><trkpt lat="40.02420249659052" lon="15.772182143114541"><ele>518.3333333333333</ele><time>2026-03-22T11:27:21.999Z</time></trkpt><trkpt lat="40.02413309896744" lon="15.772357923745457"><ele>515.0</ele><time>2026-03-22T11:27:22.999Z</time></trkpt><trkpt lat="40.024100536912826" lon="15.772555218881227"><ele>515.5</ele><time>2026-03-22T11:27:23.999Z</time></trkpt><trkpt lat="40.0241253859673" lon="15.772751146041788"><ele>516.0</ele><time>2026-03-22T11:27:24.999Z</time></trkpt><trkpt lat="40.024162916934515" lon="15.772928320151614"><ele>516.5</ele><time>2026-03-22T11:27:25.999Z</time></trkpt><trkpt lat="40.02422263416382" lon="15.77309192582163"><ele>517.0</ele><time>2026-03-22T11:27:26.999Z</time></trkpt><trkpt lat="40.02428804710317" lon="15.773251318054253"><ele>517.0</ele><time>2026-03-22T11:27:27.999Z</time></trkpt><trkpt lat="40.02435434643482" lon="15.773408730118517"><ele>517.0</ele><time>2026-03-22T11:27:28.999Z</time></trkpt><trkpt lat="40.02442348873208" lon="15.773563905367256"><ele>517.0</ele><time>2026-03-22T11:27:29.999Z</time></trkpt><trkpt lat="40.024487017838595" lon="15.773717593454112"><ele>517.0</ele><time>2026-03-22T11:27:30.999Z</time></trkpt><trkpt lat="40.024547320928" lon="15.773866101623359"><ele>516.75</ele><time>2026-03-22T11:27:31.999Z</time></trkpt><trkpt lat="40.02460607643885" lon="15.774005176335901"><ele>516.5</ele><time>2026-03-22T11:27:32.999Z</time></trkpt><trkpt lat="40.024658941785816" lon="15.77413416162943"><ele>516.25</ele><time>2026-03-22T11:27:33.999Z</time></trkpt><trkpt lat="40.024712101342985" lon="15.774259228787331"><ele>516.0</ele><time>2026-03-22T11:27:34.999Z</time></trkpt><trkpt lat="40.024764200435335" lon="15.774384918545877"><ele>516.0</ele><time>2026-03-22T11:27:35.999Z</time></trkpt><trkpt lat="40.02481564778238" lon="15.774510631018662"><ele>516.0</ele><time>2026-03-22T11:27:36.999Z</time></trkpt><trkpt lat="40.02486657235463" lon="15.774633410535564"><ele>516.0</ele><time>2026-03-22T11:27:37.999Z</time></trkpt><trkpt lat="40.02492006227135" lon="15.774757167457837"><ele>516.0</ele><time>2026-03-22T11:27:38.999Z</time></trkpt><trkpt lat="40.02497867033657" lon="15.774883358479807"><ele>516.0</ele><time>2026-03-22T11:27:39.999Z</time></trkpt><trkpt lat="40.025030360940576" lon="15.775014094160204"><ele>514.0</ele><time>2026-03-22T11:27:40.999Z</time></trkpt><trkpt lat="40.025085810235495" lon="15.775143734879578"><ele>512.0</ele><time>2026-03-22T11:27:41.999Z</time></trkpt><trkpt lat="40.02513993247456" lon="15.775269119947637"><ele>510.0</ele><time>2026-03-22T11:27:42.999Z</time></trkpt><trkpt lat="40.02519136787371" lon="15.775384348663373"><ele>508.0</ele><time>2026-03-22T11:27:43.999Z</time></trkpt><trkpt lat="40.02524055984722" lon="15.77549046414306"><ele>506.0</ele><time>2026-03-22T11:27:44.999Z</time></trkpt><trkpt lat="40.02528479274444" lon="15.775591823891729"><ele>506.0</ele><time>2026-03-22T11:27:45.999Z</time></trkpt><trkpt lat="40.02532109260061" lon="15.775682259294586"><ele>506.0</ele><time>2026-03-22T11:27:46.999Z</time></trkpt><trkpt lat="40.02535207207548" lon="15.775760577462243"><ele>506.0</ele><time>2026-03-22T11:27:47.999Z</time></trkpt><trkpt lat="40.02540542740586" lon="15.775886362299847"><ele>506.0</ele><time>2026-03-22T11:27:49.999Z</time></trkpt><trkpt lat="40.02546116814246" lon="15.776013073193328"><ele>506.0</ele><time>2026-03-22T11:27:51.999Z</time></trkpt><trkpt lat="40.02553204533045" lon="15.776162004702883"><ele>506.0</ele><time>2026-03-22T11:27:53.999Z</time></trkpt><trkpt lat="40.02557209472385" lon="15.776259623880364"><ele>506.0</ele><time>2026-03-22T11:27:54.999Z</time></trkpt><trkpt lat="40.025617859168115" lon="15.776371236950165"><ele>506.0</ele><time>2026-03-22T11:27:55.999Z</time></trkpt><trkpt lat="40.025669555907164" lon="15.776492255676239"><ele>506.0</ele><time>2026-03-22T11:27:56.999Z</time></trkpt><trkpt lat="40.02572282370861" lon="15.776614021972785"><ele>506.0</ele><time>2026-03-22T11:27:57.999Z</time></trkpt><trkpt lat="40.025776496853425" lon="15.776739839127861"><ele>505.25</ele><time>2026-03-22T11:27:58.999Z</time></trkpt><trkpt lat="40.02581545930305" lon="15.776878750287121"><ele>504.5</ele><time>2026-03-22T11:27:59.999Z</time></trkpt><trkpt lat="40.02586760277891" lon="15.777008018516451"><ele>503.75</ele><time>2026-03-22T11:28:00.999Z</time></trkpt><trkpt lat="40.02593593332675" lon="15.777133724703608"><ele>503.0</ele><time>2026-03-22T11:28:02Z</time></trkpt><trkpt lat="40.0259902412419" lon="15.777268152788128"><ele>503.0</ele><time>2026-03-22T11:28:03Z</time></trkpt><trkpt lat="40.026037909516525" lon="15.777395893023344"><ele>502.99999999999994</ele><time>2026-03-22T11:28:04Z</time></trkpt><trkpt lat="40.02608697696074" lon="15.777519920849556"><ele>502.99999999999994</ele><time>2026-03-22T11:28:05Z</time></trkpt><trkpt lat="40.02613304354178" lon="15.777628699805836"><ele>503.0</ele><time>2026-03-22T11:28:06Z</time></trkpt><trkpt lat="40.026169340478184" lon="15.77770734516747"><ele>503.0</ele><time>2026-03-22T11:28:07Z</time></trkpt><trkpt lat="40.02620026550415" lon="15.777794645428239"><ele>503.0</ele><time>2026-03-22T11:28:09Z</time></trkpt><trkpt lat="40.02628239574745" lon="15.777870041155651"><ele>502.99999999999994</ele><time>2026-03-22T11:28:11Z</time></trkpt><trkpt lat="40.026335524825704" lon="15.777944014101426"><ele>502.99999999999994</ele><time>2026-03-22T11:28:12Z</time></trkpt><trkpt lat="40.02641494891146" lon="15.778014949033967"><ele>503.0</ele><time>2026-03-22T11:28:13Z</time></trkpt><trkpt lat="40.02651609170361" lon="15.77807392620158"><ele>503.0</ele><time>2026-03-22T11:28:14Z</time></trkpt><trkpt lat="40.026623172084555" lon="15.778125397702691"><ele>502.0</ele><time>2026-03-22T11:28:15Z</time></trkpt><trkpt lat="40.026733752394996" lon="15.778167083780042"><ele>501.0</ele><time>2026-03-22T11:28:16Z</time></trkpt><trkpt lat="40.02684621215947" lon="15.778200962939076"><ele>500.0</ele><time>2026-03-22T11:28:17Z</time></trkpt><trkpt lat="40.02695958365121" lon="15.778232269838089"><ele>499.0</ele><time>2026-03-22T11:28:18Z</time></trkpt><trkpt lat="40.02707324855545" lon="15.778278173396302"><ele>499.0</ele><time>2026-03-22T11:28:19Z</time></trkpt><trkpt lat="40.02719219396917" lon="15.778328636868649"><ele>499.0</ele><time>2026-03-22T11:28:20Z</time></trkpt><trkpt lat="40.02731107058312" lon="15.778372497672288"><ele>499.0</ele><time>2026-03-22T11:28:21Z</time></trkpt><trkpt lat="40.02741592722214" lon="15.778406675257266"><ele>499.0</ele><time>2026-03-22T11:28:22Z</time></trkpt><trkpt lat="40.02751516029665" lon="15.778429715474832"><ele>497.79999999999995</ele><time>2026-03-22T11:28:23Z</time></trkpt><trkpt lat="40.02760901370867" lon="15.778436061080527"><ele>496.59999999999997</ele><time>2026-03-22T11:28:24Z</time></trkpt><trkpt lat="40.02770689203629" lon="15.77840983736181"><ele>495.4</ele><time>2026-03-22T11:28:25Z</time></trkpt><trkpt lat="40.02780736575314" lon="15.778353631978066"><ele>494.2</ele><time>2026-03-22T11:28:26Z</time></trkpt><trkpt lat="40.02790105228885" lon="15.77825972205018"><ele>493.0</ele><time>2026-03-22T11:28:27Z</time></trkpt><trkpt lat="40.027977641425935" lon="15.778146828067566"><ele>493.0</ele><time>2026-03-22T11:28:28Z</time></trkpt><trkpt lat="40.02804187706412" lon="15.778022226938312"><ele>493.0</ele><time>2026-03-22T11:28:29Z</time></trkpt><trkpt lat="40.02808861250487" lon="15.77788137284067"><ele>493.0</ele><time>2026-03-22T11:28:30Z</time></trkpt><trkpt lat="40.028123906386824" lon="15.777729171208218"><ele>493.0</ele><time>2026-03-22T11:28:31Z</time></trkpt><trkpt lat="40.02815883332791" lon="15.777573233830223"><ele>494.0</ele><time>2026-03-22T11:28:32Z</time></trkpt><trkpt lat="40.02819419050356" lon="15.77741701329533"><ele>495.0</ele><time>2026-03-22T11:28:33Z</time></trkpt><trkpt lat="40.028223865240264" lon="15.777258949372989"><ele>496.0</ele><time>2026-03-22T11:28:34Z</time></trkpt><trkpt lat="40.02824902612756" lon="15.777109312844674"><ele>497.0</ele><time>2026-03-22T11:28:35Z</time></trkpt><trkpt lat="40.028273691824594" lon="15.776972235954894"><ele>497.6</ele><time>2026-03-22T11:28:36Z</time></trkpt><trkpt lat="40.028300322236454" lon="15.776843718716085"><ele>498.20000000000005</ele><time>2026-03-22T11:28:37Z</time></trkpt><trkpt lat="40.02833702974491" lon="15.776730999217872"><ele>498.8</ele><time>2026-03-22T11:28:38Z</time></trkpt><trkpt lat="40.02839907207219" lon="15.776646507719777"><ele>499.4</ele><time>2026-03-22T11:28:39Z</time></trkpt><trkpt lat="40.028482981805794" lon="15.7766106542246"><ele>500.0</ele><time>2026-03-22T11:28:40Z</time></trkpt><trkpt lat="40.02856477467274" lon="15.776631156858148"><ele>498.49999999999994</ele><time>2026-03-22T11:28:41Z</time></trkpt><trkpt lat="40.028631827444634" lon="15.776677405400253"><ele>497.0</ele><time>2026-03-22T11:28:42Z</time></trkpt><trkpt lat="40.02868236639974" lon="15.77674677103293"><ele>495.5</ele><time>2026-03-22T11:28:43Z</time></trkpt><trkpt lat="40.02870566559677" lon="15.776841625869693"><ele>494.0</ele><time>2026-03-22T11:28:44Z</time></trkpt><trkpt lat="40.028684221902566" lon="15.776943869511902"><ele>492.49999999999994</ele><time>2026-03-22T11:28:45Z</time></trkpt><trkpt lat="40.02866770520479" lon="15.777049166786133"><ele>491.0</ele><time>2026-03-22T11:28:46Z</time></trkpt><trkpt lat="40.028650259292384" lon="15.777166470054192"><ele>490.0</ele><time>2026-03-22T11:28:47Z</time></trkpt><trkpt lat="40.028654480426496" lon="15.777293928958919"><ele>489.0</ele><time>2026-03-22T11:28:48Z</time></trkpt><trkpt lat="40.0286961271911" lon="15.777410776129127"><ele>488.0</ele><time>2026-03-22T11:28:49Z</time></trkpt><trkpt lat="40.028742222064764" lon="15.777523627014544"><ele>487.0</ele><time>2026-03-22T11:28:50Z</time></trkpt><trkpt lat="40.02880345906852" lon="15.777621474608225"><ele>486.0</ele><time>2026-03-22T11:28:51Z</time></trkpt><trkpt lat="40.02886705277664" lon="15.777725228218364"><ele>484.8</ele><time>2026-03-22T11:28:52Z</time></trkpt><trkpt lat="40.02892036499477" lon="15.777833062968515"><ele>483.6</ele><time>2026-03-22T11:28:53Z</time></trkpt><trkpt lat="40.02896152037298" lon="15.777945649007213"><ele>482.4</ele><time>2026-03-22T11:28:54Z</time></trkpt><trkpt lat="40.028956930960405" lon="15.778071381553687"><ele>481.2</ele><time>2026-03-22T11:28:55Z</time></trkpt><trkpt lat="40.02892393732094" lon="15.77818873026756"><ele>480.0</ele><time>2026-03-22T11:28:56Z</time></trkpt><trkpt lat="40.028900570908036" lon="15.778323576463237"><ele>480.0</ele><time>2026-03-22T11:28:57Z</time></trkpt><trkpt lat="40.02888011243935" lon="15.77846231242805"><ele>480.0</ele><time>2026-03-22T11:28:58Z</time></trkpt><trkpt lat="40.028871574625136" lon="15.778604598615651"><ele>480.0</ele><time>2026-03-22T11:28:59Z</time></trkpt><trkpt lat="40.0288740911903" lon="15.778752629107515"><ele>480.0</ele><time>2026-03-22T11:29:00Z</time></trkpt><trkpt lat="40.02889143553457" lon="15.778905234327953"><ele>480.0</ele><time>2026-03-22T11:29:01Z</time></trkpt><trkpt lat="40.0289293591442" lon="15.779058231119079"><ele>480.0</ele><time>2026-03-22T11:29:02Z</time></trkpt><trkpt lat="40.02898064014126" lon="15.779206084989916"><ele>480.0</ele><time>2026-03-22T11:29:03Z</time></trkpt><trkpt lat="40.02905337134746" lon="15.779348602273876"><ele>480.0</ele><time>2026-03-22T11:29:04Z</time></trkpt><trkpt lat="40.029134952956596" lon="15.779481319995694"><ele>480.0</ele><time>2026-03-22T11:29:05Z</time></trkpt><trkpt lat="40.02922038075071" lon="15.779611016355075"><ele>478.0</ele><time>2026-03-22T11:29:06Z</time></trkpt><trkpt lat="40.02932130193321" lon="15.779724089780734"><ele>476.0</ele><time>2026-03-22T11:29:07Z</time></trkpt><trkpt lat="40.02938577984666" lon="15.779872467795432"><ele>474.0</ele><time>2026-03-22T11:29:08Z</time></trkpt><trkpt lat="40.02942040580129" lon="15.780024554966571"><ele>472.0</ele><time>2026-03-22T11:29:09Z</time></trkpt><trkpt lat="40.02943250542547" lon="15.780185747434079"><ele>472.0</ele><time>2026-03-22T11:29:10Z</time></trkpt><trkpt lat="40.02945524119377" lon="15.780339070685535"><ele>472.00000000000006</ele><time>2026-03-22T11:29:11Z</time></trkpt><trkpt lat="40.02951516920487" lon="15.78045339333441"><ele>472.00000000000006</ele><time>2026-03-22T11:29:12Z</time></trkpt><trkpt lat="40.029591528257015" lon="15.780550774542967"><ele>472.0</ele><time>2026-03-22T11:29:13Z</time></trkpt><trkpt lat="40.02969529558558" lon="15.780614873061674"><ele>472.0</ele><time>2026-03-22T11:29:14Z</time></trkpt><trkpt lat="40.02980671511639" lon="15.780643746161768"><ele>472.0</ele><time>2026-03-22T11:29:15Z</time></trkpt><trkpt lat="40.029904284279716" lon="15.78069905744646"><ele>472.00000000000006</ele><time>2026-03-22T11:29:16Z</time></trkpt><trkpt lat="40.02997187531715" lon="15.780790844327035"><ele>472.00000000000006</ele><time>2026-03-22T11:29:17Z</time></trkpt><trkpt lat="40.02998382418329" lon="15.780906436482484"><ele>472.0</ele><time>2026-03-22T11:29:18Z</time></trkpt><trkpt lat="40.02999067187302" lon="15.781013370383816"><ele>472.0</ele><time>2026-03-22T11:29:18.999Z</time></trkpt><trkpt lat="40.029937099561515" lon="15.781109008099854"><ele>471.25</ele><time>2026-03-22T11:29:19.999Z</time></trkpt><trkpt lat="40.029838952682184" lon="15.781142981037092"><ele>470.5</ele><time>2026-03-22T11:29:20.999Z</time></trkpt><trkpt lat="40.02972427324393" lon="15.781165603342078"><ele>469.75</ele><time>2026-03-22T11:29:21.999Z</time></trkpt><trkpt lat="40.02961220625904" lon="15.78122187834138"><ele>469.0</ele><time>2026-03-22T11:29:22.999Z</time></trkpt><trkpt lat="40.02951249516168" lon="15.781310158841297"><ele>469.0</ele><time>2026-03-22T11:29:23.999Z</time></trkpt><trkpt lat="40.02944531509195" lon="15.781460194030071"><ele>469.0</ele><time>2026-03-22T11:29:24.999Z</time></trkpt><trkpt lat="40.02937775451164" lon="15.781605561930558"><ele>469.0</ele><time>2026-03-22T11:29:25.999Z</time></trkpt><trkpt lat="40.02934978923341" lon="15.78177772976986"><ele>469.0</ele><time>2026-03-22T11:29:26.999Z</time></trkpt><trkpt lat="40.02932995336147" lon="15.78194700952657"><ele>468.25</ele><time>2026-03-22T11:29:27.999Z</time></trkpt><trkpt lat="40.029317006245826" lon="15.782120464751893"><ele>467.5</ele><time>2026-03-22T11:29:28.999Z</time></trkpt><trkpt lat="40.02932508808769" lon="15.782302166957392"><ele>466.75</ele><time>2026-03-22T11:29:29.999Z</time></trkpt><trkpt lat="40.029302356779766" lon="15.782488548738579"><ele>466.0</ele><time>2026-03-22T11:29:30.999Z</time></trkpt><trkpt lat="40.02929601594211" lon="15.782676344483383"><ele>464.75</ele><time>2026-03-22T11:29:31.999Z</time></trkpt><trkpt lat="40.02928500703628" lon="15.782858581822397"><ele>463.5</ele><time>2026-03-22T11:29:32.999Z</time></trkpt><trkpt lat="40.029267143437785" lon="15.7830478979236"><ele>462.25</ele><time>2026-03-22T11:29:33.999Z</time></trkpt><trkpt lat="40.02923780273407" lon="15.783224865708078"><ele>461.0</ele><time>2026-03-22T11:29:34.999Z</time></trkpt><trkpt lat="40.02920731327141" lon="15.783390186291312"><ele>460.0</ele><time>2026-03-22T11:29:35.999Z</time></trkpt><trkpt lat="40.02917793476295" lon="15.783549478835711"><ele>459.0</ele><time>2026-03-22T11:29:36.999Z</time></trkpt><trkpt lat="40.029178311788534" lon="15.78370373116185"><ele>458.0</ele><time>2026-03-22T11:29:37.999Z</time></trkpt><trkpt lat="40.029189352722" lon="15.783865464652756"><ele>457.0</ele><time>2026-03-22T11:29:38.999Z</time></trkpt><trkpt lat="40.029240247567294" lon="15.784022476944834"><ele>457.0</ele><time>2026-03-22T11:29:39.999Z</time></trkpt><trkpt lat="40.029309010477526" lon="15.784162673795871"><ele>457.0</ele><time>2026-03-22T11:29:40.999Z</time></trkpt><trkpt lat="40.02937403564158" lon="15.784295841344655"><ele>457.0</ele><time>2026-03-22T11:29:41.999Z</time></trkpt><trkpt lat="40.02938481940208" lon="15.784440948413527"><ele>457.0</ele><time>2026-03-22T11:29:42.999Z</time></trkpt><trkpt lat="40.029366436923304" lon="15.784575085723338"><ele>454.8</ele><time>2026-03-22T11:29:43.999Z</time></trkpt><trkpt lat="40.02931021491255" lon="15.784704532142035"><ele>452.6</ele><time>2026-03-22T11:29:44.999Z</time></trkpt><trkpt lat="40.0292676508835" lon="15.784846881768946"><ele>450.40000000000003</ele><time>2026-03-22T11:29:45.999Z</time></trkpt><trkpt lat="40.029236274269415" lon="15.78497458837795"><ele>448.20000000000005</ele><time>2026-03-22T11:29:46.999Z</time></trkpt><trkpt lat="40.02924534797885" lon="15.785108765390563"><ele>446.0</ele><time>2026-03-22T11:29:47.999Z</time></trkpt><trkpt lat="40.029299280299796" lon="15.785231388458419"><ele>441.25</ele><time>2026-03-22T11:29:48.999Z</time></trkpt><trkpt lat="40.02938451225295" lon="15.785333930771882"><ele>436.5</ele><time>2026-03-22T11:29:49.999Z</time></trkpt><trkpt lat="40.02949367941745" lon="15.785393829930449"><ele>431.75</ele><time>2026-03-22T11:29:50.999Z</time></trkpt><trkpt lat="40.02961018531864" lon="15.785423149988125"><ele>427.0</ele><time>2026-03-22T11:29:51.999Z</time></trkpt><trkpt lat="40.02972329937464" lon="15.785437093973618"><ele>427.0</ele><time>2026-03-22T11:29:52.999Z</time></trkpt><trkpt lat="40.02983553259603" lon="15.785481621668"><ele>427.0</ele><time>2026-03-22T11:29:53.999Z</time></trkpt><trkpt lat="40.02994528035807" lon="15.785566747358711"><ele>427.0</ele><time>2026-03-22T11:29:54.999Z</time></trkpt><trkpt lat="40.03004442741908" lon="15.785684287079832"><ele>427.0</ele><time>2026-03-22T11:29:55.999Z</time></trkpt><trkpt lat="40.030104161435645" lon="15.785839256640399"><ele>428.0</ele><time>2026-03-22T11:29:56.999Z</time></trkpt><trkpt lat="40.03019132514752" lon="15.785993471304254"><ele>429.0</ele><time>2026-03-22T11:29:57.999Z</time></trkpt><trkpt lat="40.03024390755517" lon="15.786163014391816"><ele>430.0</ele><time>2026-03-22T11:29:58.999Z</time></trkpt><trkpt lat="40.03029931192583" lon="15.786338816317906"><ele>431.0</ele><time>2026-03-22T11:29:59.999Z</time></trkpt><trkpt lat="40.03035939316318" lon="15.786505301938956"><ele>431.0</ele><time>2026-03-22T11:30:00.999Z</time></trkpt><trkpt lat="40.03042342006856" lon="15.786682283766373"><ele>431.0</ele><time>2026-03-22T11:30:01.999Z</time></trkpt><trkpt lat="40.030521708242446" lon="15.786834522459671"><ele>431.0</ele><time>2026-03-22T11:30:02.999Z</time></trkpt><trkpt lat="40.0306125287163" lon="15.786971089620426"><ele>431.0</ele><time>2026-03-22T11:30:03.999Z</time></trkpt><trkpt lat="40.030697850182065" lon="15.787099023541412"><ele>431.75</ele><time>2026-03-22T11:30:04.999Z</time></trkpt><trkpt lat="40.03077835890211" lon="15.787222844673819"><ele>432.5</ele><time>2026-03-22T11:30:05.999Z</time></trkpt><trkpt lat="40.0308540234563" lon="15.787335924353428"><ele>433.25</ele><time>2026-03-22T11:30:06.999Z</time></trkpt><trkpt lat="40.0309406465898" lon="15.787429003737651"><ele>434.0</ele><time>2026-03-22T11:30:08Z</time></trkpt><trkpt lat="40.03101669395105" lon="15.787523002177764"><ele>434.0</ele><time>2026-03-22T11:30:09Z</time></trkpt><trkpt lat="40.03110147571733" lon="15.78758943138026"><ele>434.0</ele><time>2026-03-22T11:30:10Z</time></trkpt><trkpt lat="40.03119598655514" lon="15.787630491145878"><ele>434.0</ele><time>2026-03-22T11:30:11Z</time></trkpt><trkpt lat="40.03129264946083" lon="15.787613040396835"><ele>434.0</ele><time>2026-03-22T11:30:12Z</time></trkpt><trkpt lat="40.03137501776361" lon="15.78756073992123"><ele>434.0</ele><time>2026-03-22T11:30:13Z</time></trkpt><trkpt lat="40.031439502274274" lon="15.787478647553526"><ele>433.99999999999994</ele><time>2026-03-22T11:30:14Z</time></trkpt><trkpt lat="40.03148523411481" lon="15.787392796541631"><ele>434.0</ele><time>2026-03-22T11:30:15Z</time></trkpt><trkpt lat="40.031524583406934" lon="15.787296290004583"><ele>434.0</ele><time>2026-03-22T11:30:16Z</time></trkpt><trkpt lat="40.03155944347073" lon="15.787196891092924"><ele>434.0</ele><time>2026-03-22T11:30:17Z</time></trkpt><trkpt lat="40.031594840426855" lon="15.787094170914754"><ele>433.99999999999994</ele><time>2026-03-22T11:30:18Z</time></trkpt><trkpt lat="40.03162774940763" lon="15.786987808036844"><ele>434.0</ele><time>2026-03-22T11:30:19Z</time></trkpt><trkpt lat="40.03166378476156" lon="15.786885577659424"><ele>434.66666666666663</ele><time>2026-03-22T11:30:20Z</time></trkpt><trkpt lat="40.03170021880505" lon="15.786783103543813"><ele>435.3333333333333</ele><time>2026-03-22T11:30:21Z</time></trkpt><trkpt lat="40.03173387725246" lon="15.786678868143909"><ele>436.0</ele><time>2026-03-22T11:30:22Z</time></trkpt><trkpt lat="40.03176614388887" lon="15.786572477149138"><ele>436.66666666666663</ele><time>2026-03-22T11:30:23Z</time></trkpt><trkpt lat="40.03178891319946" lon="15.786460805165907"><ele>437.3333333333333</ele><time>2026-03-22T11:30:24Z</time></trkpt><trkpt lat="40.03180562925669" lon="15.786345389822621"><ele>438.0</ele><time>2026-03-22T11:30:25Z</time></trkpt><trkpt lat="40.031817535896494" lon="15.786227972422514"><ele>438.0</ele><time>2026-03-22T11:30:26Z</time></trkpt><trkpt lat="40.0318281563577" lon="15.786110313374657"><ele>437.99999999999994</ele><time>2026-03-22T11:30:27Z</time></trkpt><trkpt lat="40.03183526231955" lon="15.785990406219724"><ele>437.99999999999994</ele><time>2026-03-22T11:30:28Z</time></trkpt><trkpt lat="40.03184086778411" lon="15.785867586587674"><ele>438.0</ele><time>2026-03-22T11:30:29Z</time></trkpt><trkpt lat="40.03185218155704" lon="15.785740818116025"><ele>438.0</ele><time>2026-03-22T11:30:30Z</time></trkpt><trkpt lat="40.03186169723428" lon="15.785616046045982"><ele>439.5</ele><time>2026-03-22T11:30:31Z</time></trkpt><trkpt lat="40.031872790827" lon="15.785500785112239"><ele>441.0</ele><time>2026-03-22T11:30:32Z</time></trkpt><trkpt lat="40.03188750236481" lon="15.785393665904406"><ele>442.5</ele><time>2026-03-22T11:30:33Z</time></trkpt><trkpt lat="40.03191200500848" lon="15.785290472126075"><ele>444.0</ele><time>2026-03-22T11:30:34Z</time></trkpt><trkpt lat="40.03193933326009" lon="15.785188061399168"><ele>445.5</ele><time>2026-03-22T11:30:35Z</time></trkpt><trkpt lat="40.03197155460743" lon="15.785087029212562"><ele>447.0</ele><time>2026-03-22T11:30:36Z</time></trkpt><trkpt lat="40.03200894483424" lon="15.784987750746337"><ele>447.3333333333333</ele><time>2026-03-22T11:30:37Z</time></trkpt><trkpt lat="40.03205137934227" lon="15.784893037678236"><ele>447.66666666666663</ele><time>2026-03-22T11:30:38Z</time></trkpt><trkpt lat="40.03209589863777" lon="15.78480010056119"><ele>448.0</ele><time>2026-03-22T11:30:39Z</time></trkpt><trkpt lat="40.03213797120334" lon="15.784703959718495"><ele>448.3333333333333</ele><time>2026-03-22T11:30:40Z</time></trkpt><trkpt lat="40.03218107673981" lon="15.784603526690237"><ele>448.66666666666663</ele><time>2026-03-22T11:30:41Z</time></trkpt><trkpt lat="40.03222592707334" lon="15.78450243745128"><ele>449.0</ele><time>2026-03-22T11:30:42Z</time></trkpt><trkpt lat="40.0322702611545" lon="15.784397292573423"><ele>448.75</ele><time>2026-03-22T11:30:43Z</time></trkpt><trkpt lat="40.032317588672704" lon="15.784268645162154"><ele>448.5</ele><time>2026-03-22T11:30:44Z</time></trkpt><trkpt lat="40.03237681945907" lon="15.784114274966196"><ele>448.25</ele><time>2026-03-22T11:30:45Z</time></trkpt><trkpt lat="40.03244120554188" lon="15.783961156053754"><ele>448.0</ele><time>2026-03-22T11:30:46Z</time></trkpt><trkpt lat="40.032519485560385" lon="15.783818218806323"><ele>446.25</ele><time>2026-03-22T11:30:47Z</time></trkpt><trkpt lat="40.03263284953344" lon="15.783697334540511"><ele>444.5</ele><time>2026-03-22T11:30:48Z</time></trkpt><trkpt lat="40.03275255003957" lon="15.783590011928313"><ele>442.75</ele><time>2026-03-22T11:30:49Z</time></trkpt><trkpt lat="40.032859902684656" lon="15.783485853136098"><ele>441.0</ele><time>2026-03-22T11:30:50Z</time></trkpt><trkpt lat="40.03295555256671" lon="15.783378624906867"><ele>441.0</ele><time>2026-03-22T11:30:51Z</time></trkpt><trkpt lat="40.03304136068303" lon="15.783272721954022"><ele>441.0</ele><time>2026-03-22T11:30:52Z</time></trkpt><trkpt lat="40.033120689839336" lon="15.783167306279607"><ele>441.0</ele><time>2026-03-22T11:30:53Z</time></trkpt><trkpt lat="40.03320187784717" lon="15.78305381304951"><ele>441.0</ele><time>2026-03-22T11:30:54Z</time></trkpt><trkpt lat="40.033287503256396" lon="15.782930679825217"><ele>433.33333333333337</ele><time>2026-03-22T11:30:55Z</time></trkpt><trkpt lat="40.033384161160356" lon="15.782795079260438"><ele>425.6666666666667</ele><time>2026-03-22T11:30:56Z</time></trkpt><trkpt lat="40.033488193438515" lon="15.782646358107575"><ele>418.0</ele><time>2026-03-22T11:30:57Z</time></trkpt><trkpt lat="40.03360225014302" lon="15.782481265839643"><ele>418.0</ele><time>2026-03-22T11:30:58Z</time></trkpt><trkpt lat="40.03371450811201" lon="15.782317129191227"><ele>418.0</ele><time>2026-03-22T11:30:59Z</time></trkpt><trkpt lat="40.03382097361537" lon="15.782162477748965"><ele>418.0</ele><time>2026-03-22T11:31:00Z</time></trkpt><trkpt lat="40.03392726373745" lon="15.782020627389787"><ele>418.0</ele><time>2026-03-22T11:31:01Z</time></trkpt><trkpt lat="40.034035644182744" lon="15.781886894883314"><ele>418.0</ele><time>2026-03-22T11:31:02Z</time></trkpt><trkpt lat="40.03414282649175" lon="15.78176256487025"><ele>418.0</ele><time>2026-03-22T11:31:03Z</time></trkpt><trkpt lat="40.03424765747131" lon="15.781652979739263"><ele>418.0</ele><time>2026-03-22T11:31:04Z</time></trkpt><trkpt lat="40.03434805371488" lon="15.781554726157049"><ele>415.4</ele><time>2026-03-22T11:31:05Z</time></trkpt><trkpt lat="40.03443987997823" lon="15.781464558025203"><ele>412.79999999999995</ele><time>2026-03-22T11:31:06Z</time></trkpt><trkpt lat="40.03452338278608" lon="15.78139682929708"><ele>410.2</ele><time>2026-03-22T11:31:07Z</time></trkpt><trkpt lat="40.03461176727556" lon="15.781376416728026"><ele>407.6</ele><time>2026-03-22T11:31:08Z</time></trkpt><trkpt lat="40.03469237332006" lon="15.7814065606543"><ele>405.0</ele><time>2026-03-22T11:31:09Z</time></trkpt><trkpt lat="40.034752071991704" lon="15.781485022094678"><ele>405.0</ele><time>2026-03-22T11:31:10Z</time></trkpt><trkpt lat="40.03478713953255" lon="15.781586777824762"><ele>405.0</ele><time>2026-03-22T11:31:11Z</time></trkpt><trkpt lat="40.034782234404815" lon="15.781703237141587"><ele>405.0</ele><time>2026-03-22T11:31:12Z</time></trkpt><trkpt lat="40.03471856094686" lon="15.781789606286425"><ele>405.0</ele><time>2026-03-22T11:31:13Z</time></trkpt><trkpt lat="40.034647390689585" lon="15.781878484512474"><ele>405.0</ele><time>2026-03-22T11:31:14Z</time></trkpt><trkpt lat="40.03455775517493" lon="15.78197521520772"><ele>403.25</ele><time>2026-03-22T11:31:15Z</time></trkpt><trkpt lat="40.03445489880021" lon="15.782079775507443"><ele>401.5</ele><time>2026-03-22T11:31:16Z</time></trkpt><trkpt lat="40.03434573221115" lon="15.782190750344746"><ele>399.75</ele><time>2026-03-22T11:31:17Z</time></trkpt><trkpt lat="40.03423449281748" lon="15.782312720637597"><ele>398.0</ele><time>2026-03-22T11:31:18Z</time></trkpt><trkpt lat="40.03412752155605" lon="15.782439934382184"><ele>401.75</ele><time>2026-03-22T11:31:19Z</time></trkpt><trkpt lat="40.034029038457405" lon="15.782563363531677"><ele>405.5</ele><time>2026-03-22T11:31:20Z</time></trkpt><trkpt lat="40.03393668766978" lon="15.782687145949838"><ele>409.25</ele><time>2026-03-22T11:31:21Z</time></trkpt><trkpt lat="40.0338537999583" lon="15.782830890707658"><ele>413.0</ele><time>2026-03-22T11:31:22Z</time></trkpt><trkpt lat="40.033787447439536" lon="15.782997570975084"><ele>413.0</ele><time>2026-03-22T11:31:23Z</time></trkpt><trkpt lat="40.033750574304364" lon="15.783193331912628"><ele>413.0</ele><time>2026-03-22T11:31:24Z</time></trkpt><trkpt lat="40.03373992883354" lon="15.783397588631631"><ele>413.0</ele><time>2026-03-22T11:31:25Z</time></trkpt><trkpt lat="40.033745917651665" lon="15.783603555991853"><ele>409.3333333333333</ele><time>2026-03-22T11:31:26Z</time></trkpt><trkpt lat="40.03376417667456" lon="15.783810243933647"><ele>405.66666666666663</ele><time>2026-03-22T11:31:26.999Z</time></trkpt><trkpt lat="40.03380685463884" lon="15.784010804189478"><ele>402.0</ele><time>2026-03-22T11:31:27.999Z</time></trkpt><trkpt lat="40.03381233110324" lon="15.784216692964307"><ele>399.75</ele><time>2026-03-22T11:31:28.999Z</time></trkpt><trkpt lat="40.03380875038843" lon="15.784405427646277"><ele>397.5</ele><time>2026-03-22T11:31:29.999Z</time></trkpt><trkpt lat="40.03379390127348" lon="15.78457582616658"><ele>395.25</ele><time>2026-03-22T11:31:30.999Z</time></trkpt><trkpt lat="40.03372609224606" lon="15.784705624506117"><ele>393.0</ele><time>2026-03-22T11:31:31.999Z</time></trkpt><trkpt lat="40.033663825247196" lon="15.784816040039624"><ele>393.0</ele><time>2026-03-22T11:31:32.999Z</time></trkpt><trkpt lat="40.03357597280409" lon="15.784918467164356"><ele>393.0</ele><time>2026-03-22T11:31:33.999Z</time></trkpt><trkpt lat="40.03348168040442" lon="15.784998092631092"><ele>393.0</ele><time>2026-03-22T11:31:34.999Z</time></trkpt><trkpt lat="40.03338878338895" lon="15.785084758528109"><ele>393.0</ele><time>2026-03-22T11:31:35.999Z</time></trkpt><trkpt lat="40.0333277087516" lon="15.7852193405673"><ele>393.0</ele><time>2026-03-22T11:31:36.999Z</time></trkpt><trkpt lat="40.033305936606034" lon="15.785376584012022"><ele>393.0</ele><time>2026-03-22T11:31:37.999Z</time></trkpt><trkpt lat="40.03336908768161" lon="15.78554193485304"><ele>393.0</ele><time>2026-03-22T11:31:38.999Z</time></trkpt><trkpt lat="40.03343017726266" lon="15.785707866233421"><ele>393.0</ele><time>2026-03-22T11:31:39.999Z</time></trkpt><trkpt lat="40.03348243093206" lon="15.785900492496495"><ele>392.66666666666663</ele><time>2026-03-22T11:31:40.999Z</time></trkpt><trkpt lat="40.033534769488035" lon="15.786095742878624"><ele>392.3333333333333</ele><time>2026-03-22T11:31:41.999Z</time></trkpt><trkpt lat="40.033584293509925" lon="15.786285876025666"><ele>392.0</ele><time>2026-03-22T11:31:42.999Z</time></trkpt><trkpt lat="40.033620026831635" lon="15.786465272489595"><ele>392.0</ele><time>2026-03-22T11:31:43.999Z</time></trkpt><trkpt lat="40.03363341448703" lon="15.786637877128006"><ele>392.0</ele><time>2026-03-22T11:31:44.999Z</time></trkpt><trkpt lat="40.033620124227845" lon="15.786810330228008"><ele>392.0</ele><time>2026-03-22T11:31:45.999Z</time></trkpt><trkpt lat="40.03359340086853" lon="15.786992998083429"><ele>392.0</ele><time>2026-03-22T11:31:46.999Z</time></trkpt><trkpt lat="40.0335622041983" lon="15.78717031406981"><ele>390.5</ele><time>2026-03-22T11:31:47.999Z</time></trkpt><trkpt lat="40.03353247522659" lon="15.787341657721234"><ele>389.0</ele><time>2026-03-22T11:31:48.999Z</time></trkpt><trkpt lat="40.03349805001159" lon="15.787496841660813"><ele>387.5</ele><time>2026-03-22T11:31:49.999Z</time></trkpt><trkpt lat="40.03344192181628" lon="15.787638976228418"><ele>386.0</ele><time>2026-03-22T11:31:50.999Z</time></trkpt><trkpt lat="40.0333725097657" lon="15.787776895324333"><ele>390.0</ele><time>2026-03-22T11:31:51.999Z</time></trkpt><trkpt lat="40.03330143194217" lon="15.7879154106361"><ele>394.0</ele><time>2026-03-22T11:31:52.999Z</time></trkpt><trkpt lat="40.03323255626096" lon="15.788059689179862"><ele>398.0</ele><time>2026-03-22T11:31:53.999Z</time></trkpt><trkpt lat="40.03317074079828" lon="15.788205926963732"><ele>402.0</ele><time>2026-03-22T11:31:54.999Z</time></trkpt><trkpt lat="40.033166385457115" lon="15.788385619128105"><ele>398.75</ele><time>2026-03-22T11:31:55.999Z</time></trkpt><trkpt lat="40.033130914304046" lon="15.78853652476335"><ele>395.5</ele><time>2026-03-22T11:31:56.999Z</time></trkpt><trkpt lat="40.03310597604318" lon="15.788691413877848"><ele>392.25</ele><time>2026-03-22T11:31:57.999Z</time></trkpt><trkpt lat="40.03307666334272" lon="15.788848526628312"><ele>389.0</ele><time>2026-03-22T11:31:58.999Z</time></trkpt><trkpt lat="40.03298990733835" lon="15.78897228693759"><ele>389.0</ele><time>2026-03-22T11:31:59.999Z</time></trkpt><trkpt lat="40.03291311019199" lon="15.789075136521413"><ele>389.0</ele><time>2026-03-22T11:32:00.999Z</time></trkpt><trkpt lat="40.03282725848778" lon="15.789166162149453"><ele>389.0</ele><time>2026-03-22T11:32:01.999Z</time></trkpt><trkpt lat="40.032722005723414" lon="15.78923962405524"><ele>389.0</ele><time>2026-03-22T11:32:02.999Z</time></trkpt><trkpt lat="40.03261877926116" lon="15.789324326890098"><ele>385.25</ele><time>2026-03-22T11:32:03.999Z</time></trkpt><trkpt lat="40.0325365564754" lon="15.789444605931067"><ele>381.5</ele><time>2026-03-22T11:32:04.999Z</time></trkpt><trkpt lat="40.03249503089887" lon="15.789615164247794"><ele>377.75</ele><time>2026-03-22T11:32:05.999Z</time></trkpt><trkpt lat="40.03247872235972" lon="15.789795080620673"><ele>374.0</ele><time>2026-03-22T11:32:06.999Z</time></trkpt><trkpt lat="40.032477666749884" lon="15.78998228942762"><ele>375.75</ele><time>2026-03-22T11:32:07.999Z</time></trkpt><trkpt lat="40.03245367898411" lon="15.790140310840814"><ele>377.5</ele><time>2026-03-22T11:32:08.999Z</time></trkpt><trkpt lat="40.032398573739776" lon="15.790264394821419"><ele>379.25</ele><time>2026-03-22T11:32:09.999Z</time></trkpt><trkpt lat="40.03230779523199" lon="15.790368603259703"><ele>381.0</ele><time>2026-03-22T11:32:10.999Z</time></trkpt><trkpt lat="40.032196288016046" lon="15.79048365158861"><ele>381.0</ele><time>2026-03-22T11:32:11.999Z</time></trkpt><trkpt lat="40.03207750820409" lon="15.790603537155013"><ele>381.0</ele><time>2026-03-22T11:32:12.999Z</time></trkpt><trkpt lat="40.03195528711754" lon="15.790731212583468"><ele>381.0</ele><time>2026-03-22T11:32:14Z</time></trkpt><trkpt lat="40.03183783955049" lon="15.790878001857504"><ele>382.33333333333337</ele><time>2026-03-22T11:32:15Z</time></trkpt><trkpt lat="40.031737304527006" lon="15.791045596943453"><ele>383.6666666666667</ele><time>2026-03-22T11:32:16Z</time></trkpt><trkpt lat="40.03165679063493" lon="15.79123494101817"><ele>385.0</ele><time>2026-03-22T11:32:17Z</time></trkpt><trkpt lat="40.031594535609266" lon="15.79143313489993"><ele>385.0</ele><time>2026-03-22T11:32:18Z</time></trkpt><trkpt lat="40.031560243273965" lon="15.791641757334203"><ele>385.0</ele><time>2026-03-22T11:32:19Z</time></trkpt><trkpt lat="40.03154047692478" lon="15.791846107160335"><ele>385.0</ele><time>2026-03-22T11:32:20Z</time></trkpt><trkpt lat="40.031526327303446" lon="15.792043621325899"><ele>383.5</ele><time>2026-03-22T11:32:21Z</time></trkpt><trkpt lat="40.03151447286835" lon="15.792224119430555"><ele>382.0</ele><time>2026-03-22T11:32:22Z</time></trkpt><trkpt lat="40.03150358242227" lon="15.792389939754129"><ele>380.5</ele><time>2026-03-22T11:32:23Z</time></trkpt><trkpt lat="40.03149358325843" lon="15.792542189164838"><ele>379.0</ele><time>2026-03-22T11:32:24Z</time></trkpt><trkpt lat="40.0314832554903" lon="15.792685602836023"><ele>377.2</ele><time>2026-03-22T11:32:25Z</time></trkpt><trkpt lat="40.03147244731739" lon="15.792820002116102"><ele>375.4</ele><time>2026-03-22T11:32:26Z</time></trkpt><trkpt lat="40.03146135900992" lon="15.79295151696053"><ele>373.6</ele><time>2026-03-22T11:32:27Z</time></trkpt><trkpt lat="40.03144811007574" lon="15.793079896812547"><ele>371.8</ele><time>2026-03-22T11:32:28Z</time></trkpt><trkpt lat="40.03143908237925" lon="15.793205491941812"><ele>370.0</ele><time>2026-03-22T11:32:29Z</time></trkpt><trkpt lat="40.03143243782765" lon="15.793329444224424"><ele>370.0</ele><time>2026-03-22T11:32:30Z</time></trkpt><trkpt lat="40.031430433249625" lon="15.793460432934873"><ele>370.0</ele><time>2026-03-22T11:32:31Z</time></trkpt><trkpt lat="40.031439769951355" lon="15.793586452579417"><ele>370.0</ele><time>2026-03-22T11:32:32Z</time></trkpt><trkpt lat="40.03143628259612" lon="15.793731198462506"><ele>370.0</ele><time>2026-03-22T11:32:33Z</time></trkpt><trkpt lat="40.03147795742142" lon="15.793850292929907"><ele>370.0</ele><time>2026-03-22T11:32:34Z</time></trkpt><trkpt lat="40.031513144889" lon="15.793949340824708"><ele>367.75</ele><time>2026-03-22T11:32:35Z</time></trkpt><trkpt lat="40.031740154939946" lon="15.793897830819462"><ele>365.5</ele><time>2026-03-22T11:32:36Z</time></trkpt><trkpt lat="40.03184201923243" lon="15.793874781011082"><ele>363.25</ele><time>2026-03-22T11:32:37Z</time></trkpt><trkpt lat="40.03193389009861" lon="15.793808808151088"><ele>361.0</ele><time>2026-03-22T11:32:38Z</time></trkpt><trkpt lat="40.03200247147314" lon="15.793705411433775"><ele>361.0</ele><time>2026-03-22T11:32:39Z</time></trkpt><trkpt lat="40.032056719784485" lon="15.793582847818602"><ele>361.0</ele><time>2026-03-22T11:32:40Z</time></trkpt><trkpt lat="40.032113085760024" lon="15.793451733539712"><ele>361.0</ele><time>2026-03-22T11:32:41Z</time></trkpt><trkpt lat="40.03217664360073" lon="15.793316181495156"><ele>361.0</ele><time>2026-03-22T11:32:42Z</time></trkpt><trkpt lat="40.032244474641054" lon="15.793176243811212"><ele>360.25</ele><time>2026-03-22T11:32:43Z</time></trkpt><trkpt lat="40.03231150464923" lon="15.793030752358165"><ele>359.5</ele><time>2026-03-22T11:32:44Z</time></trkpt><trkpt lat="40.03238209162592" lon="15.792879715137314"><ele>358.75</ele><time>2026-03-22T11:32:45Z</time></trkpt><trkpt lat="40.03245386115193" lon="15.792728426125848"><ele>358.0</ele><time>2026-03-22T11:32:46Z</time></trkpt><trkpt lat="40.03252994648529" lon="15.792579836644313"><ele>358.0</ele><time>2026-03-22T11:32:47Z</time></trkpt><trkpt lat="40.03261641733442" lon="15.792439882258934"><ele>358.0</ele><time>2026-03-22T11:32:48Z</time></trkpt><trkpt lat="40.03270584239542" lon="15.792305851252634"><ele>358.0</ele><time>2026-03-22T11:32:49Z</time></trkpt><trkpt lat="40.03279791961416" lon="15.792176788318882"><ele>358.0</ele><time>2026-03-22T11:32:50Z</time></trkpt><trkpt lat="40.032892676268325" lon="15.79204701674535"><ele>358.0</ele><time>2026-03-22T11:32:51Z</time></trkpt><trkpt lat="40.03298621135705" lon="15.791914542047172"><ele>358.0</ele><time>2026-03-22T11:32:52Z</time></trkpt><trkpt lat="40.03306847553837" lon="15.791779075895594"><ele>358.0</ele><time>2026-03-22T11:32:53Z</time></trkpt><trkpt lat="40.03314191450941" lon="15.79163548452458"><ele>358.0</ele><time>2026-03-22T11:32:54Z</time></trkpt><trkpt lat="40.03320167230588" lon="15.791482787168505"><ele>358.25</ele><time>2026-03-22T11:32:55Z</time></trkpt><trkpt lat="40.0332574338507" lon="15.791328532817834"><ele>358.5</ele><time>2026-03-22T11:32:56Z</time></trkpt><trkpt lat="40.03333787408136" lon="15.79119628252457"><ele>358.75</ele><time>2026-03-22T11:32:57Z</time></trkpt><trkpt lat="40.033445207068766" lon="15.791098969238458"><ele>359.0</ele><time>2026-03-22T11:32:58Z</time></trkpt><trkpt lat="40.03356760820581" lon="15.79103859834487"><ele>356.5</ele><time>2026-03-22T11:32:59Z</time></trkpt><trkpt lat="40.033684626686025" lon="15.791016891506096"><ele>354.0</ele><time>2026-03-22T11:33:00Z</time></trkpt><trkpt lat="40.033800428051514" lon="15.791044145597619"><ele>351.5</ele><time>2026-03-22T11:33:01Z</time></trkpt><trkpt lat="40.033909429815935" lon="15.791117270165856"><ele>349.0</ele><time>2026-03-22T11:33:02Z</time></trkpt><trkpt lat="40.03400115159892" lon="15.79123703070311"><ele>349.0</ele><time>2026-03-22T11:33:03Z</time></trkpt><trkpt lat="40.03408903640469" lon="15.791367080376371"><ele>349.0</ele><time>2026-03-22T11:33:04Z</time></trkpt><trkpt lat="40.034197996419515" lon="15.791460393195758"><ele>349.0</ele><time>2026-03-22T11:33:05Z</time></trkpt><trkpt lat="40.034324682989876" lon="15.79149991707072"><ele>349.0</ele><time>2026-03-22T11:33:06Z</time></trkpt><trkpt lat="40.034444056576326" lon="15.791488171128895"><ele>347.25</ele><time>2026-03-22T11:33:07Z</time></trkpt><trkpt lat="40.034547742994434" lon="15.791436475096683"><ele>345.5</ele><time>2026-03-22T11:33:08Z</time></trkpt><trkpt lat="40.0346319509763" lon="15.791337236414561"><ele>343.75</ele><time>2026-03-22T11:33:09Z</time></trkpt><trkpt lat="40.034695758980575" lon="15.791190621938581"><ele>342.0</ele><time>2026-03-22T11:33:10Z</time></trkpt><trkpt lat="40.03474319952755" lon="15.791014531107123"><ele>344.25</ele><time>2026-03-22T11:33:11Z</time></trkpt><trkpt lat="40.034780745381234" lon="15.790833937751886"><ele>346.5</ele><time>2026-03-22T11:33:12Z</time></trkpt><trkpt lat="40.034816434211066" lon="15.790656422152674"><ele>348.75</ele><time>2026-03-22T11:33:13Z</time></trkpt><trkpt lat="40.03487121447724" lon="15.790494407705742"><ele>351.0</ele><time>2026-03-22T11:33:14Z</time></trkpt><trkpt lat="40.03495345600346" lon="15.790366872482805"><ele>348.5</ele><time>2026-03-22T11:33:15Z</time></trkpt><trkpt lat="40.03505947466854" lon="15.790270734303128"><ele>346.0</ele><time>2026-03-22T11:33:16Z</time></trkpt><trkpt lat="40.03518460198413" lon="15.790202780020175"><ele>343.5</ele><time>2026-03-22T11:33:17Z</time></trkpt><trkpt lat="40.03532554482011" lon="15.790173461320355"><ele>341.0</ele><time>2026-03-22T11:33:18Z</time></trkpt><trkpt lat="40.03546795885352" lon="15.790168671650118"><ele>340.25</ele><time>2026-03-22T11:33:19Z</time></trkpt><trkpt lat="40.035612649854976" lon="15.79017635213716"><ele>339.5</ele><time>2026-03-22T11:33:20Z</time></trkpt><trkpt lat="40.035754859450684" lon="15.790178317297604"><ele>338.75</ele><time>2026-03-22T11:33:21Z</time></trkpt><trkpt lat="40.03589108027391" lon="15.7901855491315"><ele>338.0</ele><time>2026-03-22T11:33:22Z</time></trkpt><trkpt lat="40.036024924609784" lon="15.790226096208865"><ele>335.75</ele><time>2026-03-22T11:33:23Z</time></trkpt><trkpt lat="40.036146953799374" lon="15.790314052103753"><ele>333.5</ele><time>2026-03-22T11:33:24Z</time></trkpt><trkpt lat="40.036237202361654" lon="15.790454683247045"><ele>331.25</ele><time>2026-03-22T11:33:25Z</time></trkpt><trkpt lat="40.03634097447968" lon="15.790583458822379"><ele>329.0</ele><time>2026-03-22T11:33:26Z</time></trkpt><trkpt lat="40.03643503342972" lon="15.790720737047119"><ele>329.0</ele><time>2026-03-22T11:33:27Z</time></trkpt><trkpt lat="40.03654866065572" lon="15.79083573604545"><ele>329.0</ele><time>2026-03-22T11:33:28Z</time></trkpt><trkpt lat="40.03668162373101" lon="15.79092604221506"><ele>329.0</ele><time>2026-03-22T11:33:29Z</time></trkpt><trkpt lat="40.0368156582883" lon="15.791010662451015"><ele>329.0</ele><time>2026-03-22T11:33:30Z</time></trkpt><trkpt lat="40.03694488689593" lon="15.791090386006136"><ele>329.25</ele><time>2026-03-22T11:33:30.999Z</time></trkpt><trkpt lat="40.037067847695404" lon="15.791133591119184"><ele>329.5</ele><time>2026-03-22T11:33:31.999Z</time></trkpt><trkpt lat="40.03718749261859" lon="15.791111257814554"><ele>329.75</ele><time>2026-03-22T11:33:32.999Z</time></trkpt><trkpt lat="40.037297405412794" lon="15.791033517237732"><ele>330.0</ele><time>2026-03-22T11:33:33.999Z</time></trkpt><trkpt lat="40.037377480299675" lon="15.790905720916545"><ele>330.0</ele><time>2026-03-22T11:33:34.999Z</time></trkpt><trkpt lat="40.03741377642136" lon="15.79074461788778"><ele>330.0</ele><time>2026-03-22T11:33:35.999Z</time></trkpt><trkpt lat="40.03740851069185" lon="15.790574415910847"><ele>330.0</ele><time>2026-03-22T11:33:36.999Z</time></trkpt><trkpt lat="40.037367089926484" lon="15.79039370183823"><ele>330.0</ele><time>2026-03-22T11:33:37.999Z</time></trkpt><trkpt lat="40.0373302035027" lon="15.790195940487985"><ele>331.3333333333333</ele><time>2026-03-22T11:33:38.999Z</time></trkpt><trkpt lat="40.03728793114097" lon="15.789993801288844"><ele>332.66666666666663</ele><time>2026-03-22T11:33:39.999Z</time></trkpt><trkpt lat="40.03723949105968" lon="15.78980195743741"><ele>334.0</ele><time>2026-03-22T11:33:40.999Z</time></trkpt><trkpt lat="40.03719975570978" lon="15.789631890593412"><ele>334.0</ele><time>2026-03-22T11:33:41.999Z</time></trkpt><trkpt lat="40.037200896895776" lon="15.789483457085685"><ele>334.0</ele><time>2026-03-22T11:33:42.999Z</time></trkpt><trkpt lat="40.03725286327016" lon="15.789358599499334"><ele>334.0</ele><time>2026-03-22T11:33:43.999Z</time></trkpt><trkpt lat="40.0373455553722" lon="15.789268490079204"><ele>334.0</ele><time>2026-03-22T11:33:44.999Z</time></trkpt><trkpt lat="40.03746169087274" lon="15.789207493791057"><ele>328.5</ele><time>2026-03-22T11:33:45.999Z</time></trkpt><trkpt lat="40.03757659004184" lon="15.789122835921052"><ele>323.0</ele><time>2026-03-22T11:33:46.999Z</time></trkpt><trkpt lat="40.03768472570665" lon="15.789013190230014"><ele>317.5</ele><time>2026-03-22T11:33:47.999Z</time></trkpt><trkpt lat="40.0377819180291" lon="15.788877355156572"><ele>312.0</ele><time>2026-03-22T11:33:48.999Z</time></trkpt><trkpt lat="40.037857329942106" lon="15.788722198707003"><ele>312.0</ele><time>2026-03-22T11:33:49.999Z</time></trkpt><trkpt lat="40.037917926795004" lon="15.788565779552242"><ele>312.0</ele><time>2026-03-22T11:33:50.999Z</time></trkpt><trkpt lat="40.037973767121926" lon="15.78841497803354"><ele>312.0</ele><time>2026-03-22T11:33:51.999Z</time></trkpt><trkpt lat="40.0380085007718" lon="15.788258869431232"><ele>312.0</ele><time>2026-03-22T11:33:52.999Z</time></trkpt><trkpt lat="40.03802105260405" lon="15.78810264922556"><ele>312.8</ele><time>2026-03-22T11:33:53.999Z</time></trkpt><trkpt lat="40.03802394156316" lon="15.787953917445089"><ele>313.6</ele><time>2026-03-22T11:33:54.999Z</time></trkpt><trkpt lat="40.03803002713393" lon="15.787816320049831"><ele>314.40000000000003</ele><time>2026-03-22T11:33:55.999Z</time></trkpt><trkpt lat="40.03805469894072" lon="15.787704589868275"><ele>315.2</ele><time>2026-03-22T11:33:56.999Z</time></trkpt><trkpt lat="40.03810966098729" lon="15.787623286093266"><ele>316.0</ele><time>2026-03-22T11:33:57.999Z</time></trkpt><trkpt lat="40.03819331759622" lon="15.787571971669415"><ele>316.40000000000003</ele><time>2026-03-22T11:33:58.999Z</time></trkpt><trkpt lat="40.03828858728747" lon="15.787529793104827"><ele>316.8</ele><time>2026-03-22T11:33:59.999Z</time></trkpt><trkpt lat="40.03839061479172" lon="15.787481060552512"><ele>317.20000000000005</ele><time>2026-03-22T11:34:00.999Z</time></trkpt><trkpt lat="40.03849416902836" lon="15.787429277846709"><ele>317.6</ele><time>2026-03-22T11:34:01.999Z</time></trkpt><trkpt lat="40.03860096733022" lon="15.787371264288849"><ele>318.0</ele><time>2026-03-22T11:34:02.999Z</time></trkpt><trkpt lat="40.0387107898141" lon="15.787316000920272"><ele>315.0</ele><time>2026-03-22T11:34:03.999Z</time></trkpt><trkpt lat="40.03882237503133" lon="15.787257743142629"><ele>312.0</ele><time>2026-03-22T11:34:04.999Z</time></trkpt><trkpt lat="40.038932321358445" lon="15.78719646538964"><ele>309.0</ele><time>2026-03-22T11:34:05.999Z</time></trkpt><trkpt lat="40.03904031798043" lon="15.787134609971154"><ele>306.0</ele><time>2026-03-22T11:34:06.999Z</time></trkpt><trkpt lat="40.039148405149696" lon="15.787070602013989"><ele>305.0</ele><time>2026-03-22T11:34:07.999Z</time></trkpt><trkpt lat="40.03925272369718" lon="15.787010751885308"><ele>304.0</ele><time>2026-03-22T11:34:08.999Z</time></trkpt><trkpt lat="40.03935151947526" lon="15.786966056331512"><ele>303.0</ele><time>2026-03-22T11:34:09.999Z</time></trkpt><trkpt lat="40.039439320091105" lon="15.786961038186927"><ele>302.0</ele><time>2026-03-22T11:34:10.999Z</time></trkpt><trkpt lat="40.03950986894981" lon="15.78702173895627"><ele>301.0</ele><time>2026-03-22T11:34:11.999Z</time></trkpt><trkpt lat="40.039548320517596" lon="15.787136391171877"><ele>301.0</ele><time>2026-03-22T11:34:12.999Z</time></trkpt><trkpt lat="40.03951010759615" lon="15.787275014174117"><ele>301.0</ele><time>2026-03-22T11:34:13.999Z</time></trkpt><trkpt lat="40.03945522580297" lon="15.787416711939002"><ele>301.0</ele><time>2026-03-22T11:34:14.999Z</time></trkpt><trkpt lat="40.03940617688321" lon="15.787578493605473"><ele>301.0</ele><time>2026-03-22T11:34:15.999Z</time></trkpt><trkpt lat="40.03935250843252" lon="15.787752428812338"><ele>298.0</ele><time>2026-03-22T11:34:16.999Z</time></trkpt><trkpt lat="40.03929748117171" lon="15.787928679723532"><ele>295.0</ele><time>2026-03-22T11:34:17.999Z</time></trkpt><trkpt lat="40.039238355648166" lon="15.788114419610274"><ele>292.0</ele><time>2026-03-22T11:34:18.999Z</time></trkpt><trkpt lat="40.03917998043731" lon="15.788297801793941"><ele>294.5</ele><time>2026-03-22T11:34:20Z</time></trkpt><trkpt lat="40.039123381494036" lon="15.788465352156118"><ele>297.0</ele><time>2026-03-22T11:34:21Z</time></trkpt><trkpt lat="40.03912397267869" lon="15.788645160075673"><ele>299.5</ele><time>2026-03-22T11:34:22Z</time></trkpt><trkpt lat="40.039104926352394" lon="15.788779910319084"><ele>302.0</ele><time>2026-03-22T11:34:23Z</time></trkpt><trkpt lat="40.03910031948432" lon="15.78890157504832"><ele>302.0</ele><time>2026-03-22T11:34:24Z</time></trkpt><trkpt lat="40.03912315017646" lon="15.789022947665858"><ele>302.0</ele><time>2026-03-22T11:34:25Z</time></trkpt><trkpt lat="40.03916669568733" lon="15.789137459575214"><ele>302.0</ele><time>2026-03-22T11:34:26Z</time></trkpt><trkpt lat="40.03923101698972" lon="15.789226247164192"><ele>302.0</ele><time>2026-03-22T11:34:27Z</time></trkpt><trkpt lat="40.0393098929532" lon="15.789248690295663"><ele>302.0</ele><time>2026-03-22T11:34:28Z</time></trkpt><trkpt lat="40.039407951254375" lon="15.789244826624632"><ele>299.0</ele><time>2026-03-22T11:34:30Z</time></trkpt><trkpt lat="40.039483771449554" lon="15.789230928226335"><ele>296.0</ele><time>2026-03-22T11:35:14Z</time></trkpt><trkpt lat="40.03958003422845" lon="15.789230104339929"><ele>293.0</ele><time>2026-03-22T11:35:16Z</time></trkpt><trkpt lat="40.03962394364117" lon="15.78912215527235"><ele>290.0</ele><time>2026-03-22T11:35:17Z</time></trkpt><trkpt lat="40.03967627145414" lon="15.78900269301227"><ele>287.0</ele><time>2026-03-22T11:35:18Z</time></trkpt><trkpt lat="40.039737154473855" lon="15.788876710379343"><ele>287.0</ele><time>2026-03-22T11:35:19Z</time></trkpt><trkpt lat="40.03980826395656" lon="15.788750429490358"><ele>287.0</ele><time>2026-03-22T11:35:20Z</time></trkpt><trkpt lat="40.039896271788145" lon="15.788615936331954"><ele>287.0</ele><time>2026-03-22T11:35:21Z</time></trkpt><trkpt lat="40.04000118120376" lon="15.788468709028322"><ele>287.0</ele><time>2026-03-22T11:35:22Z</time></trkpt><trkpt lat="40.04012711055682" lon="15.788313292270542"><ele>286.0</ele><time>2026-03-22T11:35:23Z</time></trkpt><trkpt lat="40.040274867238516" lon="15.788152155682795"><ele>285.0</ele><time>2026-03-22T11:35:24Z</time></trkpt><trkpt lat="40.04044066881037" lon="15.787992632663265"><ele>284.0</ele><time>2026-03-22T11:35:25Z</time></trkpt><trkpt lat="40.04060724721323" lon="15.787845649959012"><ele>284.0</ele><time>2026-03-22T11:35:26Z</time></trkpt><trkpt lat="40.040773265926816" lon="15.787700359551819"><ele>284.0</ele><time>2026-03-22T11:35:27Z</time></trkpt><trkpt lat="40.04094465610507" lon="15.787547761938926"><ele>284.0</ele><time>2026-03-22T11:35:28Z</time></trkpt><trkpt lat="40.041112872578786" lon="15.787386715081853"><ele>286.6666666666667</ele><time>2026-03-22T11:35:29Z</time></trkpt><trkpt lat="40.04127714318721" lon="15.787206081872887"><ele>289.3333333333333</ele><time>2026-03-22T11:35:30Z</time></trkpt><trkpt lat="40.0414325993048" lon="15.78701159908215"><ele>292.0</ele><time>2026-03-22T11:35:31Z</time></trkpt><trkpt lat="40.041577605634544" lon="15.786802870450396"><ele>292.0</ele><time>2026-03-22T11:35:32Z</time></trkpt><trkpt lat="40.04171318741187" lon="15.786581566937599"><ele>292.0</ele><time>2026-03-22T11:35:33Z</time></trkpt><trkpt lat="40.04183592152856" lon="15.786347708193167"><ele>292.0</ele><time>2026-03-22T11:35:34Z</time></trkpt><trkpt lat="40.041938289011995" lon="15.78609690986738"><ele>294.0</ele><time>2026-03-22T11:35:35Z</time></trkpt><trkpt lat="40.04203075690693" lon="15.785839738455653"><ele>296.0</ele><time>2026-03-22T11:35:35.999Z</time></trkpt><trkpt lat="40.04212324400151" lon="15.785579226938436"><ele>298.0</ele><time>2026-03-22T11:35:36.999Z</time></trkpt><trkpt lat="40.04222316150075" lon="15.785320977631118"><ele>299.3333333333333</ele><time>2026-03-22T11:35:37.999Z</time></trkpt><trkpt lat="40.04233333657666" lon="15.785072785705134"><ele>300.6666666666667</ele><time>2026-03-22T11:35:38.999Z</time></trkpt><trkpt lat="40.042453072049405" lon="15.784832321075434"><ele>302.0</ele><time>2026-03-22T11:35:39.999Z</time></trkpt><trkpt lat="40.04258016040624" lon="15.784599316028112"><ele>302.33333333333337</ele><time>2026-03-22T11:35:40.999Z</time></trkpt><trkpt lat="40.04272112994835" lon="15.784379691543899"><ele>302.6666666666667</ele><time>2026-03-22T11:35:41.999Z</time></trkpt><trkpt lat="40.04287431957018" lon="15.784178482598673"><ele>303.0</ele><time>2026-03-22T11:35:42.999Z</time></trkpt><trkpt lat="40.043042886839324" lon="15.783998003185944"><ele>303.0</ele><time>2026-03-22T11:35:43.999Z</time></trkpt><trkpt lat="40.04322053068844" lon="15.783839422698433"><ele>303.0</ele><time>2026-03-22T11:35:44.999Z</time></trkpt><trkpt lat="40.04340700584363" lon="15.783697636888771"><ele>303.0</ele><time>2026-03-22T11:35:45.999Z</time></trkpt><trkpt lat="40.04359950754872" lon="15.783567179432833"><ele>304.0</ele><time>2026-03-22T11:35:46.999Z</time></trkpt><trkpt lat="40.04379379907593" lon="15.783444642881983"><ele>305.0</ele><time>2026-03-22T11:35:47.999Z</time></trkpt><trkpt lat="40.043990830420405" lon="15.783320726954278"><ele>306.0</ele><time>2026-03-22T11:35:48.999Z</time></trkpt><trkpt lat="40.04418292877364" lon="15.783186034518131"><ele>302.0</ele><time>2026-03-22T11:35:49.999Z</time></trkpt><trkpt lat="40.04436939963605" lon="15.783038875757768"><ele>298.0</ele><time>2026-03-22T11:35:50.999Z</time></trkpt><trkpt lat="40.0445517942808" lon="15.782881687801959"><ele>294.0</ele><time>2026-03-22T11:35:51.999Z</time></trkpt><trkpt lat="40.04473107298364" lon="15.782716524210537"><ele>294.6666666666667</ele><time>2026-03-22T11:35:52.999Z</time></trkpt><trkpt lat="40.04490228957002" lon="15.782535486852584"><ele>295.33333333333337</ele><time>2026-03-22T11:35:53.999Z</time></trkpt><trkpt lat="40.0450643717331" lon="15.782341889754685"><ele>296.0</ele><time>2026-03-22T11:35:54.999Z</time></trkpt><trkpt lat="40.04522184030558" lon="15.782141280732766"><ele>296.0</ele><time>2026-03-22T11:35:55.999Z</time></trkpt><trkpt lat="40.04537403025022" lon="15.781933301310605"><ele>296.0</ele><time>2026-03-22T11:35:56.999Z</time></trkpt><trkpt lat="40.045520355095434" lon="15.781719182598266"><ele>296.0</ele><time>2026-03-22T11:35:57.999Z</time></trkpt><trkpt lat="40.045661472999846" lon="15.78149898791768"><ele>294.33333333333337</ele><time>2026-03-22T11:35:58.999Z</time></trkpt><trkpt lat="40.045800606312476" lon="15.781274886722075"><ele>292.6666666666667</ele><time>2026-03-22T11:35:59.999Z</time></trkpt><trkpt lat="40.04593950992253" lon="15.781051566781354"><ele>291.0</ele><time>2026-03-22T11:36:00.999Z</time></trkpt><trkpt lat="40.046078488084135" lon="15.780827370380441"><ele>291.0</ele><time>2026-03-22T11:36:01.999Z</time></trkpt><trkpt lat="40.046217000368955" lon="15.780603182443082"><ele>291.0</ele><time>2026-03-22T11:36:02.999Z</time></trkpt><trkpt lat="40.04635602122555" lon="15.780376950809517"><ele>291.0</ele><time>2026-03-22T11:36:03.999Z</time></trkpt><trkpt lat="40.04649475679854" lon="15.780151168023412"><ele>284.0</ele><time>2026-03-22T11:36:04.999Z</time></trkpt><trkpt lat="40.04662886655421" lon="15.77992879844359"><ele>277.0</ele><time>2026-03-22T11:36:05.999Z</time></trkpt><trkpt lat="40.046769152888544" lon="15.779704947921047"><ele>270.0</ele><time>2026-03-22T11:36:06.999Z</time></trkpt><trkpt lat="40.046905899364575" lon="15.77948520302342"><ele>269.0</ele><time>2026-03-22T11:36:07.999Z</time></trkpt><trkpt lat="40.04704407075415" lon="15.77926455330389"><ele>268.0</ele><time>2026-03-22T11:36:08.999Z</time></trkpt><trkpt lat="40.0471819000023" lon="15.77904414168379"><ele>267.0</ele><time>2026-03-22T11:36:09.999Z</time></trkpt><trkpt lat="40.047318905033286" lon="15.778824409170563"><ele>267.0</ele><time>2026-03-22T11:36:10.999Z</time></trkpt><trkpt lat="40.047455589916865" lon="15.778606670190126"><ele>267.0</ele><time>2026-03-22T11:36:11.999Z</time></trkpt><trkpt lat="40.047591213467676" lon="15.77838829752064"><ele>267.0</ele><time>2026-03-22T11:36:12.999Z</time></trkpt><trkpt lat="40.04772516066669" lon="15.778172749304542"><ele>263.6666666666667</ele><time>2026-03-22T11:36:13.999Z</time></trkpt><trkpt lat="40.04785993318473" lon="15.777955043440862"><ele>260.33333333333337</ele><time>2026-03-22T11:36:14.999Z</time></trkpt><trkpt lat="40.04799287991381" lon="15.777739460146913"><ele>257.0</ele><time>2026-03-22T11:36:15.999Z</time></trkpt><trkpt lat="40.04812617249623" lon="15.77752245912271"><ele>255.0</ele><time>2026-03-22T11:36:16.999Z</time></trkpt><trkpt lat="40.04826098049156" lon="15.777306438491085"><ele>253.0</ele><time>2026-03-22T11:36:17.999Z</time></trkpt><trkpt lat="40.04839408529816" lon="15.77709127052314"><ele>251.0</ele><time>2026-03-22T11:36:18.999Z</time></trkpt><trkpt lat="40.04852802404859" lon="15.776873770816021"><ele>253.0</ele><time>2026-03-22T11:36:19.999Z</time></trkpt><trkpt lat="40.04866301053448" lon="15.77665748001467"><ele>255.0</ele><time>2026-03-22T11:36:20.999Z</time></trkpt><trkpt lat="40.04880254932834" lon="15.776446670816743"><ele>257.0</ele><time>2026-03-22T11:36:21.999Z</time></trkpt><trkpt lat="40.04895116435564" lon="15.776246255355707"><ele>257.0</ele><time>2026-03-22T11:36:22.999Z</time></trkpt><trkpt lat="40.04910878549153" lon="15.776059345149497"><ele>257.0</ele><time>2026-03-22T11:36:23.999Z</time></trkpt><trkpt lat="40.04927306548254" lon="15.775882503236454"><ele>257.0</ele><time>2026-03-22T11:36:24.999Z</time></trkpt><trkpt lat="40.0494437903556" lon="15.77571275603381"><ele>264.6666666666667</ele><time>2026-03-22T11:36:26Z</time></trkpt><trkpt lat="40.04961778659463" lon="15.775549357063916"><ele>272.3333333333333</ele><time>2026-03-22T11:36:27Z</time></trkpt><trkpt lat="40.049794764758474" lon="15.775392084650603"><ele>280.0</ele><time>2026-03-22T11:36:28Z</time></trkpt><trkpt lat="40.049974364201695" lon="15.775241905743274"><ele>283.66666666666663</ele><time>2026-03-22T11:36:29Z</time></trkpt><trkpt lat="40.05015658996124" lon="15.775095976946922"><ele>287.3333333333333</ele><time>2026-03-22T11:36:30Z</time></trkpt><trkpt lat="40.050337634149415" lon="15.774945129656063"><ele>291.0</ele><time>2026-03-22T11:36:31Z</time></trkpt><trkpt lat="40.05051633229515" lon="15.774783601635733"><ele>291.0</ele><time>2026-03-22T11:36:32Z</time></trkpt><trkpt lat="40.050684584609385" lon="15.774613975937353"><ele>291.0</ele><time>2026-03-22T11:36:33Z</time></trkpt><trkpt lat="40.050846994857906" lon="15.774432415931134"><ele>291.0</ele><time>2026-03-22T11:36:34Z</time></trkpt><trkpt lat="40.05100401121829" lon="15.774241279399735"><ele>293.6666666666667</ele><time>2026-03-22T11:36:35Z</time></trkpt><trkpt lat="40.05115702048458" lon="15.774038858889268"><ele>296.33333333333337</ele><time>2026-03-22T11:36:36Z</time></trkpt><trkpt lat="40.05130973712214" lon="15.773836384225284"><ele>299.0</ele><time>2026-03-22T11:36:37Z</time></trkpt><trkpt lat="40.051460320543534" lon="15.773631149557069"><ele>301.33333333333337</ele><time>2026-03-22T11:36:38Z</time></trkpt><trkpt lat="40.05161310342598" lon="15.773427371919224"><ele>303.6666666666667</ele><time>2026-03-22T11:36:39Z</time></trkpt><trkpt lat="40.05177207576797" lon="15.773231455443847"><ele>306.0</ele><time>2026-03-22T11:36:40Z</time></trkpt><trkpt lat="40.05193478094752" lon="15.773041578116956"><ele>306.0</ele><time>2026-03-22T11:36:41Z</time></trkpt><trkpt lat="40.05210288805682" lon="15.772862853884446"><ele>306.0</ele><time>2026-03-22T11:36:42Z</time></trkpt><trkpt lat="40.05227811722114" lon="15.772692804435124"><ele>306.0</ele><time>2026-03-22T11:36:43Z</time></trkpt><trkpt lat="40.05245809658532" lon="15.772534145406798"><ele>308.0</ele><time>2026-03-22T11:36:44Z</time></trkpt><trkpt lat="40.052643896337536" lon="15.772389333564046"><ele>310.0</ele><time>2026-03-22T11:36:45Z</time></trkpt><trkpt lat="40.05283597107645" lon="15.772257343471763"><ele>312.0</ele><time>2026-03-22T11:36:46Z</time></trkpt><trkpt lat="40.053033225581174" lon="15.772137609216475"><ele>312.0</ele><time>2026-03-22T11:36:47Z</time></trkpt><trkpt lat="40.05323444684218" lon="15.772030872971145"><ele>312.0</ele><time>2026-03-22T11:36:48Z</time></trkpt><trkpt lat="40.0534405955861" lon="15.771940695805961"><ele>312.0</ele><time>2026-03-22T11:36:49Z</time></trkpt><trkpt lat="40.053649297737195" lon="15.771858707851068"><ele>312.6666666666667</ele><time>2026-03-22T11:36:50Z</time></trkpt><trkpt lat="40.05386110032018" lon="15.771785675979277"><ele>313.33333333333337</ele><time>2026-03-22T11:36:51Z</time></trkpt><trkpt lat="40.054074814568075" lon="15.771722333471612"><ele>314.0</ele><time>2026-03-22T11:36:52Z</time></trkpt><trkpt lat="40.054287829927155" lon="15.771661331796153"><ele>314.0</ele><time>2026-03-22T11:36:53Z</time></trkpt><trkpt lat="40.05450131624771" lon="15.771603701578334"><ele>314.0</ele><time>2026-03-22T11:36:54Z</time></trkpt><trkpt lat="40.05471632589757" lon="15.771547138508815"><ele>314.0</ele><time>2026-03-22T11:36:55Z</time></trkpt><trkpt lat="40.054933920115815" lon="15.7714903967593"><ele>315.33333333333337</ele><time>2026-03-22T11:36:56Z</time></trkpt><trkpt lat="40.055149696813835" lon="15.771434971496841"><ele>316.6666666666667</ele><time>2026-03-22T11:36:57Z</time></trkpt><trkpt lat="40.05536549064434" lon="15.771381026393694"><ele>318.0</ele><time>2026-03-22T11:36:58Z</time></trkpt><trkpt lat="40.05558102538423" lon="15.771331153251886"><ele>315.6666666666667</ele><time>2026-03-22T11:36:59Z</time></trkpt><trkpt lat="40.05579704290981" lon="15.771276791689521"><ele>313.33333333333337</ele><time>2026-03-22T11:37:00Z</time></trkpt><trkpt lat="40.05601088159259" lon="15.77121798156392"><ele>311.0</ele><time>2026-03-22T11:37:01Z</time></trkpt><trkpt lat="40.05622345599086" lon="15.771151535317026"><ele>311.0</ele><time>2026-03-22T11:37:02Z</time></trkpt><trkpt lat="40.05643324513988" lon="15.771070267202145"><ele>311.0</ele><time>2026-03-22T11:37:03Z</time></trkpt><trkpt lat="40.05663021005647" lon="15.770950011014278"><ele>311.0</ele><time>2026-03-22T11:37:04Z</time></trkpt><trkpt lat="40.056811013084975" lon="15.770797944167184"><ele>317.33333333333337</ele><time>2026-03-22T11:37:05Z</time></trkpt><trkpt lat="40.05697863009384" lon="15.770622023646581"><ele>323.6666666666667</ele><time>2026-03-22T11:37:06Z</time></trkpt><trkpt lat="40.057129174656055" lon="15.770422300635927"><ele>330.0</ele><time>2026-03-22T11:37:07Z</time></trkpt><trkpt lat="40.05725595737716" lon="15.770198158781431"><ele>329.6666666666667</ele><time>2026-03-22T11:37:08Z</time></trkpt><trkpt lat="40.05736457245347" lon="15.769957525381315"><ele>329.33333333333337</ele><time>2026-03-22T11:37:09Z</time></trkpt><trkpt lat="40.057453823767275" lon="15.769698852268666"><ele>329.0</ele><time>2026-03-22T11:37:10Z</time></trkpt><trkpt lat="40.05753067683635" lon="15.769438223935444"><ele>333.6666666666667</ele><time>2026-03-22T11:37:11Z</time></trkpt><trkpt lat="40.05762029594211" lon="15.769183395768072"><ele>338.3333333333333</ele><time>2026-03-22T11:37:12Z</time></trkpt><trkpt lat="40.057733587116765" lon="15.768945603612478"><ele>343.0</ele><time>2026-03-22T11:37:13Z</time></trkpt><trkpt lat="40.05786157055763" lon="15.768724432275341"><ele>340.0</ele><time>2026-03-22T11:37:14Z</time></trkpt><trkpt lat="40.05800579957153" lon="15.768514006552062"><ele>337.0</ele><time>2026-03-22T11:37:15Z</time></trkpt><trkpt lat="40.058164048851935" lon="15.768323448916881"><ele>334.0</ele><time>2026-03-22T11:37:16Z</time></trkpt><trkpt lat="40.05833679787236" lon="15.768158147658745"><ele>334.0</ele><time>2026-03-22T11:37:17Z</time></trkpt><trkpt lat="40.05851938260894" lon="15.76801494553737"><ele>334.0</ele><time>2026-03-22T11:37:18Z</time></trkpt><trkpt lat="40.058711082465884" lon="15.767887876787375"><ele>334.0</ele><time>2026-03-22T11:37:19Z</time></trkpt><trkpt lat="40.0589096981037" lon="15.767792075786005"><ele>332.3333333333333</ele><time>2026-03-22T11:37:20Z</time></trkpt><trkpt lat="40.05912280175742" lon="15.76771853531633"><ele>330.6666666666667</ele><time>2026-03-22T11:37:21Z</time></trkpt><trkpt lat="40.059336109965656" lon="15.767654623691007"><ele>329.0</ele><time>2026-03-22T11:37:22Z</time></trkpt><trkpt lat="40.05954334481271" lon="15.767580369763413"><ele>333.0</ele><time>2026-03-22T11:37:23Z</time></trkpt><trkpt lat="40.05973570904257" lon="15.767483128999435"><ele>337.0</ele><time>2026-03-22T11:37:24Z</time></trkpt><trkpt lat="40.059920976367344" lon="15.767362677285018"><ele>341.0</ele><time>2026-03-22T11:37:25Z</time></trkpt><trkpt lat="40.06009486391165" lon="15.767217986609031"><ele>341.0</ele><time>2026-03-22T11:37:26Z</time></trkpt><trkpt lat="40.06025313597272" lon="15.767050247603015"><ele>341.0</ele><time>2026-03-22T11:37:27Z</time></trkpt><trkpt lat="40.060399745964006" lon="15.766871821744223"><ele>341.0</ele><time>2026-03-22T11:37:28Z</time></trkpt><trkpt lat="40.06053450871853" lon="15.766682444052162"><ele>345.6666666666667</ele><time>2026-03-22T11:37:29Z</time></trkpt><trkpt lat="40.060659658929374" lon="15.766484526978083"><ele>350.3333333333333</ele><time>2026-03-22T11:37:30Z</time></trkpt><trkpt lat="40.06078017349232" lon="15.766282410969067"><ele>355.0</ele><time>2026-03-22T11:37:31Z</time></trkpt><trkpt lat="40.060894998207466" lon="15.766082201310553"><ele>359.0</ele><time>2026-03-22T11:37:32Z</time></trkpt><trkpt lat="40.06099874613292" lon="15.765877253522335"><ele>363.0</ele><time>2026-03-22T11:37:33Z</time></trkpt><trkpt lat="40.06108914521166" lon="15.76566911019055"><ele>367.0</ele><time>2026-03-22T11:37:34Z</time></trkpt><trkpt lat="40.061157228778036" lon="15.765459056379317"><ele>367.0</ele><time>2026-03-22T11:37:35Z</time></trkpt><trkpt lat="40.06122188729151" lon="15.765224941403991"><ele>367.0</ele><time>2026-03-22T11:37:36Z</time></trkpt><trkpt lat="40.06129188722069" lon="15.76499249617853"><ele>367.0</ele><time>2026-03-22T11:37:36.999Z</time></trkpt><trkpt lat="40.06134143106575" lon="15.76475855230588"><ele>369.0</ele><time>2026-03-22T11:37:37.999Z</time></trkpt><trkpt lat="40.06139678770716" lon="15.764522953282675"><ele>371.0</ele><time>2026-03-22T11:37:38.999Z</time></trkpt><trkpt lat="40.06146680941242" lon="15.764294930750216"><ele>373.0</ele><time>2026-03-22T11:37:39.999Z</time></trkpt><trkpt lat="40.061550081269715" lon="15.764079395602893"><ele>370.3333333333333</ele><time>2026-03-22T11:37:40.999Z</time></trkpt><trkpt lat="40.061650066785575" lon="15.763876370181059"><ele>367.6666666666667</ele><time>2026-03-22T11:37:41.999Z</time></trkpt><trkpt lat="40.06176013775087" lon="15.763681399885524"><ele>365.0</ele><time>2026-03-22T11:37:42.999Z</time></trkpt><trkpt lat="40.06187481382945" lon="15.763490238526927"><ele>370.33333333333337</ele><time>2026-03-22T11:37:43.999Z</time></trkpt><trkpt lat="40.06198771829947" lon="15.763294195901377"><ele>375.6666666666667</ele><time>2026-03-22T11:37:45Z</time></trkpt><trkpt lat="40.062087921278014" lon="15.763084455058538"><ele>381.0</ele><time>2026-03-22T11:37:45.999Z</time></trkpt><trkpt lat="40.06217533115059" lon="15.762864199808881"><ele>387.33333333333337</ele><time>2026-03-22T11:37:46.999Z</time></trkpt><trkpt lat="40.062252017916606" lon="15.762638219364009"><ele>393.6666666666667</ele><time>2026-03-22T11:37:48Z</time></trkpt><trkpt lat="40.062313946872706" lon="15.762406360643874"><ele>400.0</ele><time>2026-03-22T11:37:48.999Z</time></trkpt><trkpt lat="40.06236564846512" lon="15.762169992365825"><ele>400.0</ele><time>2026-03-22T11:37:49.999Z</time></trkpt><trkpt lat="40.062397741828505" lon="15.761927770163583"><ele>400.0</ele><time>2026-03-22T11:37:50.999Z</time></trkpt><trkpt lat="40.06241237447628" lon="15.761683060464879"><ele>400.0</ele><time>2026-03-22T11:37:51.999Z</time></trkpt><trkpt lat="40.062407163196625" lon="15.76143689119084"><ele>403.33333333333337</ele><time>2026-03-22T11:37:52.999Z</time></trkpt><trkpt lat="40.06239717759269" lon="15.761190344074098"><ele>406.66666666666663</ele><time>2026-03-22T11:37:53.999Z</time></trkpt><trkpt lat="40.06237589555472" lon="15.7609443042039"><ele>410.0</ele><time>2026-03-22T11:37:54.999Z</time></trkpt><trkpt lat="40.062351390284746" lon="15.760699528722446"><ele>414.66666666666663</ele><time>2026-03-22T11:37:55.999Z</time></trkpt><trkpt lat="40.06232830101321" lon="15.760455097711622"><ele>419.33333333333337</ele><time>2026-03-22T11:37:56.999Z</time></trkpt><trkpt lat="40.0623208901856" lon="15.760211664047402"><ele>424.0</ele><time>2026-03-22T11:37:57.999Z</time></trkpt><trkpt lat="40.062330715531886" lon="15.759966021089092"><ele>428.0</ele><time>2026-03-22T11:37:58.999Z</time></trkpt><trkpt lat="40.06237549634575" lon="15.759728717132079"><ele>432.0</ele><time>2026-03-22T11:37:59.999Z</time></trkpt><trkpt lat="40.06244458869903" lon="15.759500872676622"><ele>436.0</ele><time>2026-03-22T11:38:00.999Z</time></trkpt><trkpt lat="40.06253753548254" lon="15.7592890933904"><ele>425.33333333333337</ele><time>2026-03-22T11:38:01.999Z</time></trkpt><trkpt lat="40.062649714399285" lon="15.75909043239347"><ele>414.66666666666663</ele><time>2026-03-22T11:38:02.999Z</time></trkpt><trkpt lat="40.06278574965437" lon="15.758910738636217"><ele>404.0</ele><time>2026-03-22T11:38:03.999Z</time></trkpt><trkpt lat="40.0629388475291" lon="15.758755262163005"><ele>404.0</ele><time>2026-03-22T11:38:04.999Z</time></trkpt><trkpt lat="40.06310078629557" lon="15.758606582775041"><ele>404.0</ele><time>2026-03-22T11:38:05.999Z</time></trkpt><trkpt lat="40.063259947900676" lon="15.758451651937621"><ele>404.0</ele><time>2026-03-22T11:38:06.999Z</time></trkpt><trkpt lat="40.06341652198301" lon="15.758290710391798"><ele>403.66666666666663</ele><time>2026-03-22T11:38:07.999Z</time></trkpt><trkpt lat="40.06357497464979" lon="15.758132067566612"><ele>403.33333333333337</ele><time>2026-03-22T11:38:08.999Z</time></trkpt><trkpt lat="40.06372733389937" lon="15.757963284049978"><ele>403.0</ele><time>2026-03-22T11:38:09.999Z</time></trkpt><trkpt lat="40.06387253025746" lon="15.757785176200732"><ele>402.6666666666667</ele><time>2026-03-22T11:38:10.999Z</time></trkpt><trkpt lat="40.06401305175336" lon="15.757601413226622"><ele>402.33333333333337</ele><time>2026-03-22T11:38:11.999Z</time></trkpt><trkpt lat="40.064148252162134" lon="15.75741467031868"><ele>402.0</ele><time>2026-03-22T11:38:12.999Z</time></trkpt><trkpt lat="40.064285806607415" lon="15.757228780545226"><ele>402.0</ele><time>2026-03-22T11:38:13.999Z</time></trkpt><trkpt lat="40.064429171468724" lon="15.75704895861961"><ele>402.0</ele><time>2026-03-22T11:38:14.999Z</time></trkpt><trkpt lat="40.06457578072911" lon="15.756878095994457"><ele>402.0</ele><time>2026-03-22T11:38:15.999Z</time></trkpt><trkpt lat="40.06472520820551" lon="15.756713881830361"><ele>404.0</ele><time>2026-03-22T11:38:16.999Z</time></trkpt><trkpt lat="40.064872677437926" lon="15.75655095699309"><ele>406.0</ele><time>2026-03-22T11:38:17.999Z</time></trkpt><trkpt lat="40.065015059331785" lon="15.756381470806874"><ele>408.0</ele><time>2026-03-22T11:38:18.999Z</time></trkpt><trkpt lat="40.0651484287771" lon="15.756199179000347"><ele>415.33333333333337</ele><time>2026-03-22T11:38:19.999Z</time></trkpt><trkpt lat="40.06527094434227" lon="15.756004464900565"><ele>422.6666666666667</ele><time>2026-03-22T11:38:20.999Z</time></trkpt><trkpt lat="40.065380217569356" lon="15.755798751963525"><ele>430.0</ele><time>2026-03-22T11:38:21.999Z</time></trkpt><trkpt lat="40.06547855903383" lon="15.755582189033671"><ele>430.0</ele><time>2026-03-22T11:38:22.999Z</time></trkpt><trkpt lat="40.06556227110802" lon="15.755353166836764"><ele>430.0</ele><time>2026-03-22T11:38:23.999Z</time></trkpt><trkpt lat="40.065634440996625" lon="15.755115608903262"><ele>430.0</ele><time>2026-03-22T11:38:24.999Z</time></trkpt><trkpt lat="40.065705419468834" lon="15.754876942341177"><ele>432.33333333333337</ele><time>2026-03-22T11:38:25.999Z</time></trkpt><trkpt lat="40.065775059386375" lon="15.754639556022271"><ele>434.66666666666663</ele><time>2026-03-22T11:38:26.999Z</time></trkpt><trkpt lat="40.06584719228604" lon="15.754405067483493"><ele>437.0</ele><time>2026-03-22T11:38:27.999Z</time></trkpt><trkpt lat="40.06592562912947" lon="15.754175431450227"><ele>437.0</ele><time>2026-03-22T11:38:28.999Z</time></trkpt><trkpt lat="40.066010087064925" lon="15.753949840680614"><ele>437.0</ele><time>2026-03-22T11:38:29.999Z</time></trkpt><trkpt lat="40.06610962425068" lon="15.753735482482398"><ele>437.0</ele><time>2026-03-22T11:38:30.999Z</time></trkpt><trkpt lat="40.06622524867831" lon="15.753532579385025"><ele>430.3333333333333</ele><time>2026-03-22T11:38:32Z</time></trkpt><trkpt lat="40.06635189317795" lon="15.753338624861987"><ele>423.66666666666663</ele><time>2026-03-22T11:38:33Z</time></trkpt><trkpt lat="40.06648623681135" lon="15.753151859634576"><ele>417.0</ele><time>2026-03-22T11:38:34Z</time></trkpt><trkpt lat="40.06662514697935" lon="15.75297127125643"><ele>417.0</ele><time>2026-03-22T11:38:35Z</time></trkpt><trkpt lat="40.066766871443185" lon="15.752796794666825"><ele>417.0</ele><time>2026-03-22T11:38:36Z</time></trkpt><trkpt lat="40.06690586613075" lon="15.75262628260774"><ele>417.0</ele><time>2026-03-22T11:38:37Z</time></trkpt><trkpt lat="40.06704664053871" lon="15.75246256881382"><ele>418.66666666666663</ele><time>2026-03-22T11:38:38Z</time></trkpt><trkpt lat="40.06719822211759" lon="15.752330570896037"><ele>420.3333333333333</ele><time>2026-03-22T11:38:39Z</time></trkpt><trkpt lat="40.0673604167166" lon="15.752252478378011"><ele>422.0</ele><time>2026-03-22T11:38:40Z</time></trkpt><trkpt lat="40.0675303045422" lon="15.75221527558087"><ele>422.0</ele><time>2026-03-22T11:38:41Z</time></trkpt><trkpt lat="40.067698417397786" lon="15.752199385000237"><ele>422.0</ele><time>2026-03-22T11:38:42Z</time></trkpt><trkpt lat="40.06787540991442" lon="15.75218841558879"><ele>422.0</ele><time>2026-03-22T11:38:43Z</time></trkpt><trkpt lat="40.068046723247654" lon="15.752166966699805"><ele>422.0</ele><time>2026-03-22T11:38:44Z</time></trkpt><trkpt lat="40.0682214092435" lon="15.752145511761736"><ele>422.0</ele><time>2026-03-22T11:38:45Z</time></trkpt><trkpt lat="40.06839989993694" lon="15.752128540420658"><ele>422.0</ele><time>2026-03-22T11:38:46Z</time></trkpt><trkpt lat="40.06857977143661" lon="15.752109831813115"><ele>422.3333333333333</ele><time>2026-03-22T11:38:47Z</time></trkpt><trkpt lat="40.06876109567655" lon="15.752093370747335"><ele>422.66666666666663</ele><time>2026-03-22T11:38:48Z</time></trkpt><trkpt lat="40.068944752023086" lon="15.752075490200626"><ele>423.0</ele><time>2026-03-22T11:38:49Z</time></trkpt><trkpt lat="40.06913301563011" lon="15.752060198006907"><ele>423.0</ele><time>2026-03-22T11:38:50Z</time></trkpt><trkpt lat="40.06932511043466" lon="15.752046374690366"><ele>423.0</ele><time>2026-03-22T11:38:51Z</time></trkpt><trkpt lat="40.069520357929655" lon="15.752033888811347"><ele>423.0</ele><time>2026-03-22T11:38:52Z</time></trkpt><trkpt lat="40.069715410161336" lon="15.752025780768038"><ele>423.0</ele><time>2026-03-22T11:38:53Z</time></trkpt><trkpt lat="40.069909190504596" lon="15.752014269376382"><ele>423.0</ele><time>2026-03-22T11:38:54Z</time></trkpt><trkpt lat="40.07010316414146" lon="15.75200421077315"><ele>423.0</ele><time>2026-03-22T11:38:55Z</time></trkpt><trkpt lat="40.07029493580179" lon="15.751996867430707"><ele>421.33333333333337</ele><time>2026-03-22T11:38:56Z</time></trkpt><trkpt lat="40.0704845616434" lon="15.751986723566706"><ele>419.6666666666667</ele><time>2026-03-22T11:38:57Z</time></trkpt><trkpt lat="40.07067070456907" lon="15.751971672935483"><ele>418.0</ele><time>2026-03-22T11:38:58Z</time></trkpt><trkpt lat="40.070852590783296" lon="15.75194814902932"><ele>421.6666666666667</ele><time>2026-03-22T11:38:59Z</time></trkpt><trkpt lat="40.07102653434859" lon="15.751912075839861"><ele>425.33333333333337</ele><time>2026-03-22T11:39:00Z</time></trkpt><trkpt lat="40.07119162813666" lon="15.751852502426642"><ele>429.0</ele><time>2026-03-22T11:39:01Z</time></trkpt><trkpt lat="40.07135029463341" lon="15.7517774558598"><ele>433.33333333333337</ele><time>2026-03-22T11:39:02Z</time></trkpt><trkpt lat="40.071503807390094" lon="15.751689930459834"><ele>437.6666666666667</ele><time>2026-03-22T11:39:03Z</time></trkpt><trkpt lat="40.0716505226486" lon="15.751588002250713"><ele>442.0</ele><time>2026-03-22T11:39:04Z</time></trkpt><trkpt lat="40.07179451985545" lon="15.751473205249358"><ele>442.0</ele><time>2026-03-22T11:39:05Z</time></trkpt><trkpt lat="40.07193835627114" lon="15.75135043047878"><ele>442.0</ele><time>2026-03-22T11:39:06Z</time></trkpt><trkpt lat="40.07208556830358" lon="15.75122187611603"><ele>442.0</ele><time>2026-03-22T11:39:07Z</time></trkpt><trkpt lat="40.07223700318133" lon="15.751088884259643"><ele>446.6666666666667</ele><time>2026-03-22T11:39:08Z</time></trkpt><trkpt lat="40.07239400374383" lon="15.750952411442267"><ele>451.33333333333337</ele><time>2026-03-22T11:39:09Z</time></trkpt><trkpt lat="40.072554297488125" lon="15.750809964655465"><ele>456.0</ele><time>2026-03-22T11:39:10Z</time></trkpt><trkpt lat="40.07271694073144" lon="15.75066680025547"><ele>456.0</ele><time>2026-03-22T11:39:11Z</time></trkpt><trkpt lat="40.07287880307529" lon="15.750525554501353"><ele>456.0</ele><time>2026-03-22T11:39:12Z</time></trkpt><trkpt lat="40.07304097809553" lon="15.750383330373833"><ele>456.0</ele><time>2026-03-22T11:39:13Z</time></trkpt><trkpt lat="40.07320183528977" lon="15.750243508576629"><ele>456.66666666666663</ele><time>2026-03-22T11:39:14Z</time></trkpt><trkpt lat="40.0733621262396" lon="15.750102914274736"><ele>457.3333333333333</ele><time>2026-03-22T11:39:14.999Z</time></trkpt><trkpt lat="40.07352269487039" lon="15.74996045195822"><ele>458.0</ele><time>2026-03-22T11:39:15.999Z</time></trkpt><trkpt lat="40.073674991437585" lon="15.749816951719385"><ele>458.0</ele><time>2026-03-22T11:39:16.999Z</time></trkpt><trkpt lat="40.073824793710294" lon="15.749663627747635"><ele>458.0</ele><time>2026-03-22T11:39:17.999Z</time></trkpt><trkpt lat="40.073963138295284" lon="15.749500801554658"><ele>458.0</ele><time>2026-03-22T11:39:18.999Z</time></trkpt><trkpt lat="40.074084594027845" lon="15.749321221925982"><ele>461.3333333333333</ele><time>2026-03-22T11:39:19.999Z</time></trkpt><trkpt lat="40.0741940216187" lon="15.749126236406715"><ele>464.66666666666663</ele><time>2026-03-22T11:39:20.999Z</time></trkpt><trkpt lat="40.074299648947054" lon="15.748928349056516"><ele>468.0</ele><time>2026-03-22T11:39:21.999Z</time></trkpt><trkpt lat="40.07440885906619" lon="15.748731942170496"><ele>472.33333333333337</ele><time>2026-03-22T11:39:22.999Z</time></trkpt><trkpt lat="40.074530972330976" lon="15.748542877641233"><ele>476.6666666666667</ele><time>2026-03-22T11:39:23.999Z</time></trkpt><trkpt lat="40.07466104099074" lon="15.74836244584118"><ele>481.0</ele><time>2026-03-22T11:39:24.999Z</time></trkpt><trkpt lat="40.074800365707496" lon="15.74819508541283"><ele>481.6666666666667</ele><time>2026-03-22T11:39:25.999Z</time></trkpt><trkpt lat="40.07495723083924" lon="15.748031935208719"><ele>482.33333333333337</ele><time>2026-03-22T11:39:26.999Z</time></trkpt><trkpt lat="40.075116315147504" lon="15.747870956419703"><ele>483.0</ele><time>2026-03-22T11:39:27.999Z</time></trkpt><trkpt lat="40.07527851456079" lon="15.747706933477822"><ele>483.0</ele><time>2026-03-22T11:39:28.999Z</time></trkpt><trkpt lat="40.07544355915221" lon="15.747540624563893"><ele>483.0</ele><time>2026-03-22T11:39:29.999Z</time></trkpt><trkpt lat="40.07561390094904" lon="15.747369212384399"><ele>483.0</ele><time>2026-03-22T11:39:30.999Z</time></trkpt><trkpt lat="40.07578207444765" lon="15.74719869921495"><ele>481.66666666666663</ele><time>2026-03-22T11:39:31.999Z</time></trkpt><trkpt lat="40.07595211766559" lon="15.74702594896662"><ele>480.3333333333333</ele><time>2026-03-22T11:39:32.999Z</time></trkpt><trkpt lat="40.07612352498829" lon="15.746852358374586"><ele>479.0</ele><time>2026-03-22T11:39:33.999Z</time></trkpt><trkpt lat="40.07629508650112" lon="15.746677574936749"><ele>481.66666666666663</ele><time>2026-03-22T11:39:34.999Z</time></trkpt><trkpt lat="40.07646897705514" lon="15.746504602968862"><ele>484.33333333333337</ele><time>2026-03-22T11:39:35.999Z</time></trkpt><trkpt lat="40.07664148646204" lon="15.746330060915337"><ele>487.0</ele><time>2026-03-22T11:39:36.999Z</time></trkpt><trkpt lat="40.076814702903086" lon="15.746155105981158"><ele>489.6666666666667</ele><time>2026-03-22T11:39:37.999Z</time></trkpt><trkpt lat="40.076988339073694" lon="15.745979975488506"><ele>492.33333333333337</ele><time>2026-03-22T11:39:38.999Z</time></trkpt><trkpt lat="40.077161440266096" lon="15.745804023232708"><ele>495.0</ele><time>2026-03-22T11:39:39.999Z</time></trkpt><trkpt lat="40.07733098164009" lon="15.745623354224755"><ele>494.0</ele><time>2026-03-22T11:39:40.999Z</time></trkpt><trkpt lat="40.077491446569866" lon="15.74543147570022"><ele>493.0</ele><time>2026-03-22T11:39:41.999Z</time></trkpt><trkpt lat="40.077643447726416" lon="15.74522864375943"><ele>492.0</ele><time>2026-03-22T11:39:42.999Z</time></trkpt><trkpt lat="40.07778632635609" lon="15.74501674887825"><ele>492.0</ele><time>2026-03-22T11:39:43.999Z</time></trkpt><trkpt lat="40.077923056666066" lon="15.744799064864694"><ele>492.0</ele><time>2026-03-22T11:39:44.999Z</time></trkpt><trkpt lat="40.07805738178465" lon="15.74457864829651"><ele>492.0</ele><time>2026-03-22T11:39:45.999Z</time></trkpt><trkpt lat="40.078192637285426" lon="15.74435658225304"><ele>491.66666666666663</ele><time>2026-03-22T11:39:46.999Z</time></trkpt><trkpt lat="40.07832820615492" lon="15.744135929717263"><ele>491.3333333333333</ele><time>2026-03-22T11:39:47.999Z</time></trkpt><trkpt lat="40.07846205046313" lon="15.743911891493788"><ele>491.0</ele><time>2026-03-22T11:39:48.999Z</time></trkpt><trkpt lat="40.07859519584876" lon="15.743686967457633"><ele>497.0</ele><time>2026-03-22T11:39:49.999Z</time></trkpt><trkpt lat="40.078728257670086" lon="15.743467018797457"><ele>503.0</ele><time>2026-03-22T11:39:50.999Z</time></trkpt><trkpt lat="40.078861245966" lon="15.743245029125648"><ele>509.0</ele><time>2026-03-22T11:39:51.999Z</time></trkpt><trkpt lat="40.07899972760655" lon="15.74302653327215"><ele>510.3333333333333</ele><time>2026-03-22T11:39:52.999Z</time></trkpt><trkpt lat="40.079139298538344" lon="15.74281663153547"><ele>511.66666666666663</ele><time>2026-03-22T11:39:53.999Z</time></trkpt><trkpt lat="40.07929565702596" lon="15.742628886211536"><ele>513.0</ele><time>2026-03-22T11:39:54.999Z</time></trkpt><trkpt lat="40.07946666549766" lon="15.742461509417426"><ele>513.0</ele><time>2026-03-22T11:39:55.999Z</time></trkpt><trkpt lat="40.079644251156154" lon="15.742307271623202"><ele>513.0</ele><time>2026-03-22T11:39:56.999Z</time></trkpt><trkpt lat="40.07982272544668" lon="15.74215574884823"><ele>513.0</ele><time>2026-03-22T11:39:57.999Z</time></trkpt><trkpt lat="40.080000932176695" lon="15.741995936403105"><ele>513.6666666666666</ele><time>2026-03-22T11:39:58.999Z</time></trkpt><trkpt lat="40.08016686430312" lon="15.74181367161029"><ele>514.3333333333333</ele><time>2026-03-22T11:39:59.999Z</time></trkpt><trkpt lat="40.080305672559135" lon="15.741602594257005"><ele>515.0</ele><time>2026-03-22T11:40:00.999Z</time></trkpt><trkpt lat="40.08042237533243" lon="15.741373624953939"><ele>515.0</ele><time>2026-03-22T11:40:01.999Z</time></trkpt><trkpt lat="40.08053646775256" lon="15.741139707091602"><ele>515.0</ele><time>2026-03-22T11:40:02.999Z</time></trkpt><trkpt lat="40.080652022909696" lon="15.740908297603992"><ele>515.0</ele><time>2026-03-22T11:40:03.999Z</time></trkpt><trkpt lat="40.08077017728552" lon="15.740684983076372"><ele>515.3333333333333</ele><time>2026-03-22T11:40:04.999Z</time></trkpt><trkpt lat="40.0808920051981" lon="15.740470752574922"><ele>515.6666666666666</ele><time>2026-03-22T11:40:05.999Z</time></trkpt><trkpt lat="40.08101677137443" lon="15.740264549359505"><ele>516.0</ele><time>2026-03-22T11:40:06.999Z</time></trkpt><trkpt lat="40.08115041019525" lon="15.740071960096474"><ele>516.0</ele><time>2026-03-22T11:40:07.999Z</time></trkpt><trkpt lat="40.081295171979626" lon="15.739900198205584"><ele>516.0</ele><time>2026-03-22T11:40:08.999Z</time></trkpt><trkpt lat="40.08145484620335" lon="15.73974707777664"><ele>516.0</ele><time>2026-03-22T11:40:09.999Z</time></trkpt><trkpt lat="40.08162424669888" lon="15.73961101712118"><ele>516.3333333333334</ele><time>2026-03-22T11:40:10.999Z</time></trkpt><trkpt lat="40.081798873898954" lon="15.739492692729213"><ele>516.6666666666667</ele><time>2026-03-22T11:40:11.999Z</time></trkpt><trkpt lat="40.08197471005534" lon="15.739389082446703"><ele>517.0</ele><time>2026-03-22T11:40:12.999Z</time></trkpt><trkpt lat="40.08215799941582" lon="15.73930193808162"><ele>519.6666666666667</ele><time>2026-03-22T11:40:13.999Z</time></trkpt><trkpt lat="40.08234379162686" lon="15.739228946170323"><ele>522.3333333333334</ele><time>2026-03-22T11:40:14.999Z</time></trkpt><trkpt lat="40.08253416455305" lon="15.739167716356615"><ele>525.0</ele><time>2026-03-22T11:40:15.999Z</time></trkpt><trkpt lat="40.08272475790419" lon="15.73911404547774"><ele>526.0</ele><time>2026-03-22T11:40:16.999Z</time></trkpt><trkpt lat="40.08291384244013" lon="15.739062288885043"><ele>527.0</ele><time>2026-03-22T11:40:17.999Z</time></trkpt><trkpt lat="40.083099090937516" lon="15.73900973919785"><ele>528.0</ele><time>2026-03-22T11:40:18.999Z</time></trkpt><trkpt lat="40.08328076330643" lon="15.738956579436248"><ele>532.3333333333334</ele><time>2026-03-22T11:40:19.999Z</time></trkpt><trkpt lat="40.08345675895516" lon="15.738904405077482"><ele>536.6666666666667</ele><time>2026-03-22T11:40:20.999Z</time></trkpt><trkpt lat="40.08362145068469" lon="15.738855912180325"><ele>541.0</ele><time>2026-03-22T11:40:21.999Z</time></trkpt><trkpt lat="40.083769516512305" lon="15.738813758293231"><ele>541.0</ele><time>2026-03-22T11:40:22.999Z</time></trkpt><trkpt lat="40.08390672291059" lon="15.738778112095476"><ele>541.0</ele><time>2026-03-22T11:40:23.999Z</time></trkpt><trkpt lat="40.0840454183237" lon="15.73874225122671"><ele>541.0</ele><time>2026-03-22T11:40:24.999Z</time></trkpt><trkpt lat="40.08418302301372" lon="15.738708418627533"><ele>541.0</ele><time>2026-03-22T11:40:25.999Z</time></trkpt><trkpt lat="40.084324530743885" lon="15.738680799228609"><ele>541.5</ele><time>2026-03-22T11:40:26.999Z</time></trkpt><trkpt lat="40.084476794518615" lon="15.738652102183151"><ele>542.0</ele><time>2026-03-22T11:40:27.999Z</time></trkpt><trkpt lat="40.08463058027155" lon="15.738593373878631"><ele>542.5</ele><time>2026-03-22T11:40:28.999Z</time></trkpt><trkpt lat="40.084755308786036" lon="15.738548226695151"><ele>543.0</ele><time>2026-03-22T11:40:29.999Z</time></trkpt><trkpt lat="40.08490069797778" lon="15.738507310781005"><ele>541.75</ele><time>2026-03-22T11:40:30.999Z</time></trkpt><trkpt lat="40.085041699915536" lon="15.738467015588864"><ele>540.5</ele><time>2026-03-22T11:40:31.999Z</time></trkpt><trkpt lat="40.08518429460351" lon="15.738416926710578"><ele>539.25</ele><time>2026-03-22T11:40:32.999Z</time></trkpt><trkpt lat="40.08532476372249" lon="15.73835423868408"><ele>538.0</ele><time>2026-03-22T11:40:33.999Z</time></trkpt><trkpt lat="40.085462667345034" lon="15.738282488365986"><ele>538.0</ele><time>2026-03-22T11:40:34.999Z</time></trkpt><trkpt lat="40.085600860119094" lon="15.738199264289788"><ele>538.0</ele><time>2026-03-22T11:40:35.999Z</time></trkpt><trkpt lat="40.08573996878365" lon="15.73810315241764"><ele>538.0</ele><time>2026-03-22T11:40:37Z</time></trkpt><trkpt lat="40.085880046036685" lon="15.73799256719628"><ele>537.0</ele><time>2026-03-22T11:40:38Z</time></trkpt><trkpt lat="40.08601972811467" lon="15.737866154455824"><ele>536.0</ele><time>2026-03-22T11:40:39Z</time></trkpt><trkpt lat="40.08616119298744" lon="15.737733353783598"><ele>535.0</ele><time>2026-03-22T11:40:40Z</time></trkpt><trkpt lat="40.08630204631141" lon="15.737588844857326"><ele>538.6666666666667</ele><time>2026-03-22T11:40:41Z</time></trkpt><trkpt lat="40.08644324355289" lon="15.737427901199942"><ele>542.3333333333334</ele><time>2026-03-22T11:40:42Z</time></trkpt><trkpt lat="40.086580026540766" lon="15.7372502712591"><ele>546.0</ele><time>2026-03-22T11:40:43Z</time></trkpt><trkpt lat="40.08671068921208" lon="15.737057061327498"><ele>550.3333333333334</ele><time>2026-03-22T11:40:44Z</time></trkpt><trkpt lat="40.08683256422474" lon="15.736854319246042"><ele>554.6666666666667</ele><time>2026-03-22T11:40:45Z</time></trkpt><trkpt lat="40.086939607859705" lon="15.736647689059172"><ele>559.0</ele><time>2026-03-22T11:40:46Z</time></trkpt><trkpt lat="40.0870398438605" lon="15.736436391401027"><ele>559.0</ele><time>2026-03-22T11:40:47Z</time></trkpt><trkpt lat="40.0871263443625" lon="15.73622590899013"><ele>559.0</ele><time>2026-03-22T11:40:48Z</time></trkpt><trkpt lat="40.08720366273986" lon="15.73601548496984"><ele>559.0</ele><time>2026-03-22T11:40:49Z</time></trkpt><trkpt lat="40.08727320446649" lon="15.735807545551685"><ele>563.6666666666667</ele><time>2026-03-22T11:40:50Z</time></trkpt><trkpt lat="40.087337769932226" lon="15.735599414333953"><ele>568.3333333333334</ele><time>2026-03-22T11:40:51Z</time></trkpt><trkpt lat="40.08739663154673" lon="15.735389149928498"><ele>573.0</ele><time>2026-03-22T11:40:52Z</time></trkpt><trkpt lat="40.08744994567622" lon="15.735177471200847"><ele>573.0</ele><time>2026-03-22T11:40:53Z</time></trkpt><trkpt lat="40.087502496411254" lon="15.734965785000716"><ele>573.0</ele><time>2026-03-22T11:40:54Z</time></trkpt><trkpt lat="40.08755164383551" lon="15.734747305579605"><ele>573.0</ele><time>2026-03-22T11:40:55Z</time></trkpt><trkpt lat="40.08760923833478" lon="15.734526856977375"><ele>572.5</ele><time>2026-03-22T11:40:56Z</time></trkpt><trkpt lat="40.08764860743544" lon="15.734364843148468"><ele>572.0</ele><time>2026-03-22T11:40:57Z</time></trkpt><trkpt lat="40.087687280742635" lon="15.734166115849149"><ele>571.5</ele><time>2026-03-22T11:40:58Z</time></trkpt><trkpt lat="40.08773368491584" lon="15.73396928917925"><ele>571.0</ele><time>2026-03-22T11:40:59Z</time></trkpt><trkpt lat="40.087782724105395" lon="15.733781209359238"><ele>571.0</ele><time>2026-03-22T11:41:00Z</time></trkpt><trkpt lat="40.08784179394198" lon="15.733592808278912"><ele>571.0</ele><time>2026-03-22T11:41:01Z</time></trkpt><trkpt lat="40.08790076977031" lon="15.733407934213522"><ele>571.0</ele><time>2026-03-22T11:41:02Z</time></trkpt><trkpt lat="40.087967023701275" lon="15.733230304925092"><ele>572.25</ele><time>2026-03-22T11:41:03Z</time></trkpt><trkpt lat="40.08803910290061" lon="15.733060097244488"><ele>573.5</ele><time>2026-03-22T11:41:04Z</time></trkpt><trkpt lat="40.088119397058094" lon="15.732895866608684"><ele>574.75</ele><time>2026-03-22T11:41:05Z</time></trkpt><trkpt lat="40.08820124467319" lon="15.732735940704568"><ele>576.0</ele><time>2026-03-22T11:41:06Z</time></trkpt><trkpt lat="40.0882853946548" lon="15.7325784553157"><ele>573.5</ele><time>2026-03-22T11:41:07Z</time></trkpt><trkpt lat="40.08836986017109" lon="15.732421433877015"><ele>571.0</ele><time>2026-03-22T11:41:08Z</time></trkpt><trkpt lat="40.088453472322186" lon="15.732264879607762"><ele>568.5</ele><time>2026-03-22T11:41:09Z</time></trkpt><trkpt lat="40.08853904041474" lon="15.732108464320358"><ele>566.0</ele><time>2026-03-22T11:41:10Z</time></trkpt><trkpt lat="40.08862695770525" lon="15.731952754897533"><ele>569.6666666666666</ele><time>2026-03-22T11:41:11Z</time></trkpt><trkpt lat="40.088720966125784" lon="15.73180160176815"><ele>573.3333333333334</ele><time>2026-03-22T11:41:12Z</time></trkpt><trkpt lat="40.08882225773713" lon="15.731653973681837"><ele>577.0</ele><time>2026-03-22T11:41:13Z</time></trkpt><trkpt lat="40.08893320693485" lon="15.73151123584103"><ele>577.0</ele><time>2026-03-22T11:41:14Z</time></trkpt><trkpt lat="40.08905294420224" lon="15.731376779842394"><ele>577.0</ele><time>2026-03-22T11:41:15Z</time></trkpt><trkpt lat="40.0891857280099" lon="15.731257196519266"><ele>577.0</ele><time>2026-03-22T11:41:16Z</time></trkpt><trkpt lat="40.08933080386193" lon="15.731158640035385"><ele>577.0</ele><time>2026-03-22T11:41:17Z</time></trkpt><trkpt lat="40.0894890807625" lon="15.731091729867694"><ele>577.0</ele><time>2026-03-22T11:41:18Z</time></trkpt><trkpt lat="40.089654233958754" lon="15.731050896731912"><ele>577.0</ele><time>2026-03-22T11:41:19Z</time></trkpt><trkpt lat="40.08983046521176" lon="15.731066034402204"><ele>575.0</ele><time>2026-03-22T11:41:20Z</time></trkpt><trkpt lat="40.09000310204968" lon="15.731115757644906"><ele>573.0</ele><time>2026-03-22T11:41:21Z</time></trkpt><trkpt lat="40.09017045358393" lon="15.731196288831413"><ele>571.0</ele><time>2026-03-22T11:41:22Z</time></trkpt><trkpt lat="40.09033086613342" lon="15.731300971845764"><ele>571.0</ele><time>2026-03-22T11:41:23Z</time></trkpt><trkpt lat="40.09048149687093" lon="15.731421621620752"><ele>571.0</ele><time>2026-03-22T11:41:24Z</time></trkpt><trkpt lat="40.09062946621317" lon="15.731550370208272"><ele>571.0</ele><time>2026-03-22T11:41:25Z</time></trkpt><trkpt lat="40.09077952701161" lon="15.731672484018704"><ele>577.0</ele><time>2026-03-22T11:41:26Z</time></trkpt><trkpt lat="40.090936334929545" lon="15.731773421103584"><ele>583.0</ele><time>2026-03-22T11:41:27Z</time></trkpt><trkpt lat="40.09110514840598" lon="15.731844895097861"><ele>589.0</ele><time>2026-03-22T11:41:28Z</time></trkpt><trkpt lat="40.09128130848565" lon="15.73188772961346"><ele>590.0</ele><time>2026-03-22T11:41:28.999Z</time></trkpt><trkpt lat="40.09146037207595" lon="15.731911059960343"><ele>591.0</ele><time>2026-03-22T11:41:29.999Z</time></trkpt><trkpt lat="40.091642574730685" lon="15.731914778486319"><ele>592.0</ele><time>2026-03-22T11:41:30.999Z</time></trkpt><trkpt lat="40.091828711599796" lon="15.731916532016859"><ele>592.0</ele><time>2026-03-22T11:41:31.999Z</time></trkpt><trkpt lat="40.09201821669021" lon="15.731929199349793"><ele>592.0</ele><time>2026-03-22T11:41:32.999Z</time></trkpt><trkpt lat="40.09221033934801" lon="15.731960336439123"><ele>592.0</ele><time>2026-03-22T11:41:33.999Z</time></trkpt><trkpt lat="40.092404311760596" lon="15.732021111327091"><ele>596.6666666666667</ele><time>2026-03-22T11:41:34.999Z</time></trkpt><trkpt lat="40.09259008891459" lon="15.732120005961349"><ele>601.3333333333334</ele><time>2026-03-22T11:41:35.999Z</time></trkpt><trkpt lat="40.09276309452086" lon="15.73225355598366"><ele>606.0</ele><time>2026-03-22T11:41:36.999Z</time></trkpt><trkpt lat="40.09292057032745" lon="15.732426526010983"><ele>606.0</ele><time>2026-03-22T11:41:37.999Z</time></trkpt><trkpt lat="40.09305949591602" lon="15.73263266113804"><ele>606.0</ele><time>2026-03-22T11:41:38.999Z</time></trkpt><trkpt lat="40.09315422118009" lon="15.732884123651887"><ele>606.0</ele><time>2026-03-22T11:41:39.999Z</time></trkpt><trkpt lat="40.09323762490348" lon="15.733144207411693"><ele>606.0</ele><time>2026-03-22T11:41:40.999Z</time></trkpt><trkpt lat="40.09331578855328" lon="15.733412018624726"><ele>606.0</ele><time>2026-03-22T11:41:41.999Z</time></trkpt><trkpt lat="40.093390858861554" lon="15.733669231151488"><ele>606.0</ele><time>2026-03-22T11:41:42.999Z</time></trkpt><trkpt lat="40.09346309490771" lon="15.733916732677415"><ele>606.0</ele><time>2026-03-22T11:41:43.999Z</time></trkpt><trkpt lat="40.093533613862704" lon="15.734158350966876"><ele>606.0</ele><time>2026-03-22T11:41:44.999Z</time></trkpt><trkpt lat="40.09360175803661" lon="15.734391832560764"><ele>606.0</ele><time>2026-03-22T11:41:45.999Z</time></trkpt><trkpt lat="40.09366872884481" lon="15.734621293876883"><ele>604.6666666666666</ele><time>2026-03-22T11:41:46.999Z</time></trkpt><trkpt lat="40.09373424934544" lon="15.73484740595549"><ele>603.3333333333333</ele><time>2026-03-22T11:41:47.999Z</time></trkpt><trkpt lat="40.0937992169177" lon="15.73507273835404"><ele>602.0</ele><time>2026-03-22T11:41:48.999Z</time></trkpt><trkpt lat="40.09386550521454" lon="15.735301558439154"><ele>599.0</ele><time>2026-03-22T11:41:49.999Z</time></trkpt><trkpt lat="40.09393172326671" lon="15.735528431424676"><ele>596.0</ele><time>2026-03-22T11:41:50.999Z</time></trkpt><trkpt lat="40.093996279048945" lon="15.735749609222912"><ele>593.0</ele><time>2026-03-22T11:41:51.999Z</time></trkpt><trkpt lat="40.094058683622585" lon="15.735965210528315"><ele>593.0</ele><time>2026-03-22T11:41:52.999Z</time></trkpt><trkpt lat="40.09412033340912" lon="15.736178452074222"><ele>593.0</ele><time>2026-03-22T11:41:53.999Z</time></trkpt><trkpt lat="40.09418183417422" lon="15.736389642011472"><ele>593.0</ele><time>2026-03-22T11:41:54.999Z</time></trkpt><trkpt lat="40.09424328326919" lon="15.736599476399723"><ele>593.0</ele><time>2026-03-22T11:41:55.999Z</time></trkpt><trkpt lat="40.09430591234902" lon="15.736813332534812"><ele>593.0</ele><time>2026-03-22T11:41:56.999Z</time></trkpt><trkpt lat="40.09436941658033" lon="15.737030176998935"><ele>593.0</ele><time>2026-03-22T11:41:57.999Z</time></trkpt><trkpt lat="40.09443351994441" lon="15.737251045501512"><ele>590.0</ele><time>2026-03-22T11:41:58.999Z</time></trkpt><trkpt lat="40.094498575608405" lon="15.737476677259378"><ele>587.0</ele><time>2026-03-22T11:41:59.999Z</time></trkpt><trkpt lat="40.09456425747251" lon="15.737704675076897"><ele>584.0</ele><time>2026-03-22T11:42:00.999Z</time></trkpt><trkpt lat="40.09463016298366" lon="15.737933449228624"><ele>583.6666666666666</ele><time>2026-03-22T11:42:01.999Z</time></trkpt><trkpt lat="40.09469618918506" lon="15.738162525066556"><ele>583.3333333333334</ele><time>2026-03-22T11:42:02.999Z</time></trkpt><trkpt lat="40.09476351161008" lon="15.73839562346387"><ele>583.0</ele><time>2026-03-22T11:42:03.999Z</time></trkpt><trkpt lat="40.094829223135314" lon="15.738623144253316"><ele>581.6666666666667</ele><time>2026-03-22T11:42:04.999Z</time></trkpt><trkpt lat="40.094893459143016" lon="15.738844413916231"><ele>580.3333333333334</ele><time>2026-03-22T11:42:05.999Z</time></trkpt><trkpt lat="40.09496204676635" lon="15.739065361406782"><ele>579.0</ele><time>2026-03-22T11:42:06.999Z</time></trkpt><trkpt lat="40.0950366273631" lon="15.739276625264754"><ele>588.0</ele><time>2026-03-22T11:42:07.999Z</time></trkpt><trkpt lat="40.0951240446089" lon="15.73947593833266"><ele>597.0</ele><time>2026-03-22T11:42:08.999Z</time></trkpt><trkpt lat="40.09523760416802" lon="15.739645651182764"><ele>606.0</ele><time>2026-03-22T11:42:09.999Z</time></trkpt><trkpt lat="40.09534645286232" lon="15.739812508305949"><ele>606.0</ele><time>2026-03-22T11:42:10.999Z</time></trkpt><trkpt lat="40.09546680618692" lon="15.739963632440137"><ele>606.0</ele><time>2026-03-22T11:42:11.999Z</time></trkpt><trkpt lat="40.09559821379823" lon="15.740093768156125"><ele>606.0</ele><time>2026-03-22T11:42:12.999Z</time></trkpt><trkpt lat="40.09573734691005" lon="15.740202685244263"><ele>605.3333333333334</ele><time>2026-03-22T11:42:13.999Z</time></trkpt><trkpt lat="40.095884970109246" lon="15.74029092069547"><ele>604.6666666666667</ele><time>2026-03-22T11:42:14.999Z</time></trkpt><trkpt lat="40.09603494103023" lon="15.740366095601185"><ele>604.0</ele><time>2026-03-22T11:42:15.999Z</time></trkpt><trkpt lat="40.09619490545183" lon="15.740419735417262"><ele>604.0</ele><time>2026-03-22T11:42:16.999Z</time></trkpt><trkpt lat="40.09636209637818" lon="15.740449355293713"><ele>604.0</ele><time>2026-03-22T11:42:17.999Z</time></trkpt><trkpt lat="40.096530636056386" lon="15.740460405240697"><ele>604.0</ele><time>2026-03-22T11:42:18.999Z</time></trkpt><trkpt lat="40.09670225633609" lon="15.740444255635591"><ele>601.0</ele><time>2026-03-22T11:42:19.999Z</time></trkpt><trkpt lat="40.09687179262545" lon="15.740401116018612"><ele>598.0</ele><time>2026-03-22T11:42:20.999Z</time></trkpt><trkpt lat="40.09703640973302" lon="15.740327498335525"><ele>595.0</ele><time>2026-03-22T11:42:21.999Z</time></trkpt><trkpt lat="40.097194059753306" lon="15.740231569806861"><ele>596.6666666666667</ele><time>2026-03-22T11:42:22.999Z</time></trkpt><trkpt lat="40.097350323241834" lon="15.74012665103662"><ele>598.3333333333334</ele><time>2026-03-22T11:42:23.999Z</time></trkpt><trkpt lat="40.09751015016069" lon="15.740030747701338"><ele>600.0</ele><time>2026-03-22T11:42:24.999Z</time></trkpt><trkpt lat="40.09767761343961" lon="15.739957689596539"><ele>600.0</ele><time>2026-03-22T11:42:25.999Z</time></trkpt><trkpt lat="40.09784918331883" lon="15.739913822681268"><ele>600.0</ele><time>2026-03-22T11:42:26.999Z</time></trkpt><trkpt lat="40.098024653325844" lon="15.739887142130776"><ele>600.0</ele><time>2026-03-22T11:42:27.999Z</time></trkpt><trkpt lat="40.09820335411089" lon="15.739866083211966"><ele>599.0</ele><time>2026-03-22T11:42:28.999Z</time></trkpt><trkpt lat="40.0983820630089" lon="15.73984350616421"><ele>598.0</ele><time>2026-03-22T11:42:29.999Z</time></trkpt><trkpt lat="40.098559131122585" lon="15.739823262289992"><ele>597.0</ele><time>2026-03-22T11:42:30.999Z</time></trkpt><trkpt lat="40.09873628900542" lon="15.739821572345264"><ele>597.0</ele><time>2026-03-22T11:42:31.999Z</time></trkpt><trkpt lat="40.09891136093501" lon="15.7398515296146"><ele>597.0</ele><time>2026-03-22T11:42:32.999Z</time></trkpt><trkpt lat="40.09908396887274" lon="15.739917984893081"><ele>597.0</ele><time>2026-03-22T11:42:33.999Z</time></trkpt><trkpt lat="40.099252745480044" lon="15.740007402234836"><ele>598.6666666666666</ele><time>2026-03-22T11:42:34.999Z</time></trkpt><trkpt lat="40.09941885477861" lon="15.74011577445382"><ele>600.3333333333333</ele><time>2026-03-22T11:42:35.999Z</time></trkpt><trkpt lat="40.09958249868691" lon="15.740237965849202"><ele>602.0</ele><time>2026-03-22T11:42:36.999Z</time></trkpt><trkpt lat="40.09973794905037" lon="15.740378208401378"><ele>600.0</ele><time>2026-03-22T11:42:37.999Z</time></trkpt><trkpt lat="40.099881380994304" lon="15.740537481808017"><ele>598.0</ele><time>2026-03-22T11:42:38.999Z</time></trkpt><trkpt lat="40.099990377485476" lon="15.740740157784522"><ele>596.0</ele><time>2026-03-22T11:42:39.999Z</time></trkpt><trkpt lat="40.1000853863958" lon="15.740945498765186"><ele>594.25</ele><time>2026-03-22T11:42:40.999Z</time></trkpt><trkpt lat="40.100188386357786" lon="15.74109685778957"><ele>592.5</ele><time>2026-03-22T11:42:42Z</time></trkpt><trkpt lat="40.10024634573257" lon="15.741240530535192"><ele>590.75</ele><time>2026-03-22T11:42:43Z</time></trkpt><trkpt lat="40.10030296328419" lon="15.741378112429558"><ele>589.0</ele><time>2026-03-22T11:42:44Z</time></trkpt><trkpt lat="40.100365285186946" lon="15.741520708558298"><ele>589.0</ele><time>2026-03-22T11:42:45Z</time></trkpt><trkpt lat="40.10043542235348" lon="15.74167514288997"><ele>589.0</ele><time>2026-03-22T11:42:46Z</time></trkpt><trkpt lat="40.1004908711371" lon="15.74184941478554"><ele>589.0</ele><time>2026-03-22T11:42:47Z</time></trkpt><trkpt lat="40.10057333685328" lon="15.742007697951959"><ele>589.0</ele><time>2026-03-22T11:42:48Z</time></trkpt><trkpt lat="40.10066316623846" lon="15.742171560644259"><ele>590.6666666666667</ele><time>2026-03-22T11:42:49Z</time></trkpt><trkpt lat="40.100758916129806" lon="15.742343250384684"><ele>592.3333333333334</ele><time>2026-03-22T11:42:50Z</time></trkpt><trkpt lat="40.100861222193444" lon="15.742524611165338"><ele>594.0</ele><time>2026-03-22T11:42:51Z</time></trkpt><trkpt lat="40.100975311848565" lon="15.74271538581896"><ele>594.0</ele><time>2026-03-22T11:42:52Z</time></trkpt><trkpt lat="40.1011136264004" lon="15.742886050829764"><ele>594.0</ele><time>2026-03-22T11:42:53Z</time></trkpt><trkpt lat="40.101250581150296" lon="15.743058921438347"><ele>594.0</ele><time>2026-03-22T11:42:54Z</time></trkpt><trkpt lat="40.1014022593276" lon="15.743223193186322"><ele>594.0</ele><time>2026-03-22T11:42:55Z</time></trkpt><trkpt lat="40.10157187142143" lon="15.743372568649102"><ele>594.0</ele><time>2026-03-22T11:42:56Z</time></trkpt><trkpt lat="40.101752709802554" lon="15.743505837282527"><ele>594.0</ele><time>2026-03-22T11:42:57Z</time></trkpt><trkpt lat="40.10193378945286" lon="15.743609592984665"><ele>595.3333333333334</ele><time>2026-03-22T11:42:58Z</time></trkpt><trkpt lat="40.102106149547254" lon="15.743689157908769"><ele>596.6666666666667</ele><time>2026-03-22T11:42:59Z</time></trkpt><trkpt lat="40.10226982721921" lon="15.743751253611242"><ele>598.0</ele><time>2026-03-22T11:43:00Z</time></trkpt><trkpt lat="40.102418117868105" lon="15.743805565137826"><ele>598.1999999999999</ele><time>2026-03-22T11:43:01Z</time></trkpt><trkpt lat="40.1025398671154" lon="15.743848265432186"><ele>598.4</ele><time>2026-03-22T11:43:02Z</time></trkpt><trkpt lat="40.10263964817733" lon="15.743885512283578"><ele>598.5999999999999</ele><time>2026-03-22T11:43:03Z</time></trkpt><trkpt lat="40.102723308680325" lon="15.743918117728139"><ele>598.8</ele><time>2026-03-22T11:43:04Z</time></trkpt><trkpt lat="40.102791046412754" lon="15.743938219811277"><ele>599.0</ele><time>2026-03-22T11:43:05Z</time></trkpt><trkpt lat="40.102894181229196" lon="15.743894876442875"><ele>599.0</ele><time>2026-03-22T11:43:07Z</time></trkpt><trkpt lat="40.10289097526222" lon="15.743725481702185"><ele>599.0</ele><time>2026-03-22T11:43:09Z</time></trkpt><trkpt lat="40.10293972161535" lon="15.74361381318002"><ele>599.0</ele><time>2026-03-22T11:43:11Z</time></trkpt><trkpt lat="40.103111067238636" lon="15.743664367215612"><ele>599.0</ele><time>2026-03-22T11:43:15Z</time></trkpt><trkpt lat="40.10317695412873" lon="15.743696075210465"><ele>599.0</ele><time>2026-03-22T11:44:50Z</time></trkpt><trkpt lat="40.103235501988884" lon="15.74373397797928"><ele>599.0</ele><time>2026-03-22T11:47:27Z</time></trkpt><trkpt lat="40.10326011110603" lon="15.743840746941709"><ele>599.0</ele><time>2026-03-22T11:47:29Z</time></trkpt><trkpt lat="40.103238961644685" lon="15.743936022738737"><ele>599.0</ele><time>2026-03-22T11:47:30Z</time></trkpt><trkpt lat="40.10322612839646" lon="15.744021512721693"><ele>599.0</ele><time>2026-03-22T11:47:31Z</time></trkpt><trkpt lat="40.103289388622194" lon="15.744101946560281"><ele>599.0</ele><time>2026-03-22T11:47:39Z</time></trkpt><trkpt lat="40.10332731228675" lon="15.744207864607004"><ele>599.75</ele><time>2026-03-22T11:47:40Z</time></trkpt><trkpt lat="40.10345493626132" lon="15.744242725049432"><ele>600.5</ele><time>2026-03-22T11:47:41Z</time></trkpt><trkpt lat="40.103576319976696" lon="15.74428327186398"><ele>601.25</ele><time>2026-03-22T11:47:42Z</time></trkpt><trkpt lat="40.10369235301483" lon="15.744335461231328"><ele>602.0</ele><time>2026-03-22T11:47:43Z</time></trkpt><trkpt lat="40.10381554583465" lon="15.744397749515063"><ele>602.0</ele><time>2026-03-22T11:47:44Z</time></trkpt><trkpt lat="40.10394824318158" lon="15.744460599630937"><ele>602.0</ele><time>2026-03-22T11:47:45Z</time></trkpt><trkpt lat="40.10408554708546" lon="15.74452920727619"><ele>602.0</ele><time>2026-03-22T11:47:46Z</time></trkpt><trkpt lat="40.104238634366205" lon="15.744609320602345"><ele>602.0</ele><time>2026-03-22T11:47:47Z</time></trkpt><trkpt lat="40.10440151923883" lon="15.744697102363466"><ele>602.0</ele><time>2026-03-22T11:47:48Z</time></trkpt><trkpt lat="40.10456561782779" lon="15.744789075207917"><ele>602.0</ele><time>2026-03-22T11:47:49Z</time></trkpt><trkpt lat="40.10473456971702" lon="15.744886657345262"><ele>602.0</ele><time>2026-03-22T11:47:50Z</time></trkpt><trkpt lat="40.10489543501787" lon="15.744993658151882"><ele>602.0</ele><time>2026-03-22T11:47:51Z</time></trkpt><trkpt lat="40.105053846138205" lon="15.745106183751254"><ele>602.0</ele><time>2026-03-22T11:47:52Z</time></trkpt><trkpt lat="40.10520933303927" lon="15.745206563689754"><ele>603.6666666666666</ele><time>2026-03-22T11:47:53Z</time></trkpt><trkpt lat="40.105371481542" lon="15.745296032942685"><ele>605.3333333333334</ele><time>2026-03-22T11:47:54Z</time></trkpt><trkpt lat="40.105535093227594" lon="15.745367291998091"><ele>607.0</ele><time>2026-03-22T11:47:55Z</time></trkpt><trkpt lat="40.10570209587803" lon="15.745420672371413"><ele>604.6666666666667</ele><time>2026-03-22T11:47:56Z</time></trkpt><trkpt lat="40.105878747339304" lon="15.74545871511403"><ele>602.3333333333334</ele><time>2026-03-22T11:47:57Z</time></trkpt><trkpt lat="40.10605538231086" lon="15.745484919499292"><ele>600.0</ele><time>2026-03-22T11:47:58Z</time></trkpt><trkpt lat="40.106238879605726" lon="15.745496799610695"><ele>600.0</ele><time>2026-03-22T11:47:59Z</time></trkpt><trkpt lat="40.10642884968103" lon="15.745484187237272"><ele>600.0</ele><time>2026-03-22T11:48:00Z</time></trkpt><trkpt lat="40.10663533182623" lon="15.745463828483837"><ele>600.0</ele><time>2026-03-22T11:48:01Z</time></trkpt><trkpt lat="40.106857279992994" lon="15.745454513787394"><ele>600.3333333333334</ele><time>2026-03-22T11:48:02Z</time></trkpt><trkpt lat="40.10708354561735" lon="15.745475972006455"><ele>600.6666666666667</ele><time>2026-03-22T11:48:02.999Z</time></trkpt><trkpt lat="40.107298165253006" lon="15.745548907448176"><ele>601.0</ele><time>2026-03-22T11:48:03.999Z</time></trkpt><trkpt lat="40.1075161350511" lon="15.745646756391652"><ele>605.0</ele><time>2026-03-22T11:48:04.999Z</time></trkpt><trkpt lat="40.10771133013365" lon="15.74577005105209"><ele>609.0</ele><time>2026-03-22T11:48:05.999Z</time></trkpt><trkpt lat="40.10792834215323" lon="15.745867204502945"><ele>613.0</ele><time>2026-03-22T11:48:06.999Z</time></trkpt><trkpt lat="40.10811984062302" lon="15.74602463478211"><ele>611.0</ele><time>2026-03-22T11:48:07.999Z</time></trkpt><trkpt lat="40.1083087028096" lon="15.746196502783448"><ele>609.0</ele><time>2026-03-22T11:48:08.999Z</time></trkpt><trkpt lat="40.10849651336051" lon="15.746374759276673"><ele>609.0</ele><time>2026-03-22T11:48:09.999Z</time></trkpt><trkpt lat="40.108688807856346" lon="15.746550862979682"><ele>609.0</ele><time>2026-03-22T11:48:10.999Z</time></trkpt><trkpt lat="40.10880959962736" lon="15.746819369372023"><ele>607.5</ele><time>2026-03-22T11:48:11.999Z</time></trkpt><trkpt lat="40.108963438663324" lon="15.747036691271214"><ele>606.0</ele><time>2026-03-22T11:48:12.999Z</time></trkpt><trkpt lat="40.109114645329555" lon="15.747264554596404"><ele>605.0</ele><time>2026-03-22T11:48:13.999Z</time></trkpt><trkpt lat="40.10926133802167" lon="15.74749552354376"><ele>604.0</ele><time>2026-03-22T11:48:14.999Z</time></trkpt><trkpt lat="40.10941006777634" lon="15.747730971541536"><ele>604.0</ele><time>2026-03-22T11:48:15.999Z</time></trkpt><trkpt lat="40.10955650938726" lon="15.747954817051559"><ele>604.0</ele><time>2026-03-22T11:48:16.999Z</time></trkpt><trkpt lat="40.10971240935936" lon="15.748178941934368"><ele>604.0</ele><time>2026-03-22T11:48:17.999Z</time></trkpt><trkpt lat="40.10987490002697" lon="15.748386673162564"><ele>604.0</ele><time>2026-03-22T11:48:18.999Z</time></trkpt><trkpt lat="40.11004282594513" lon="15.748589346012057"><ele>597.5</ele><time>2026-03-22T11:48:19.999Z</time></trkpt><trkpt lat="40.11021189776201" lon="15.748785734883342"><ele>591.0</ele><time>2026-03-22T11:48:20.999Z</time></trkpt><trkpt lat="40.11038558299232" lon="15.748987241951166"><ele>591.0</ele><time>2026-03-22T11:48:21.999Z</time></trkpt><trkpt lat="40.11055958681163" lon="15.749190568267755"><ele>591.0</ele><time>2026-03-22T11:48:22.999Z</time></trkpt><trkpt lat="40.11073224449831" lon="15.749392965922588"><ele>593.0</ele><time>2026-03-22T11:48:23.999Z</time></trkpt><trkpt lat="40.110905355233015" lon="15.749595894517311"><ele>595.0</ele><time>2026-03-22T11:48:24.999Z</time></trkpt><trkpt lat="40.11108250515426" lon="15.749803558091507"><ele>595.0</ele><time>2026-03-22T11:48:25.999Z</time></trkpt><trkpt lat="40.111254337904676" lon="15.750001340827229"><ele>595.0</ele><time>2026-03-22T11:48:26.999Z</time></trkpt><trkpt lat="40.111428729008495" lon="15.750196673124051"><ele>596.0</ele><time>2026-03-22T11:48:27.999Z</time></trkpt><trkpt lat="40.11162432409004" lon="15.750380171175623"><ele>597.0</ele><time>2026-03-22T11:48:28.999Z</time></trkpt><trkpt lat="40.1118091817089" lon="15.750572697321866"><ele>597.0</ele><time>2026-03-22T11:48:29.999Z</time></trkpt><trkpt lat="40.112004241350675" lon="15.750741178831948"><ele>597.0</ele><time>2026-03-22T11:48:30.999Z</time></trkpt><trkpt lat="40.11220276589635" lon="15.750879531242498"><ele>602.5</ele><time>2026-03-22T11:48:31.999Z</time></trkpt><trkpt lat="40.11241259985372" lon="15.751010445513218"><ele>608.0</ele><time>2026-03-22T11:48:32.999Z</time></trkpt><trkpt lat="40.112627189828494" lon="15.751128067514383"><ele>597.0</ele><time>2026-03-22T11:48:33.999Z</time></trkpt><trkpt lat="40.112852748700995" lon="15.751244920975356"><ele>586.0</ele><time>2026-03-22T11:48:34.999Z</time></trkpt><trkpt lat="40.1130667316049" lon="15.75138326620815"><ele>590.0</ele><time>2026-03-22T11:48:35.999Z</time></trkpt><trkpt lat="40.11328243220106" lon="15.751514648191707"><ele>594.0</ele><time>2026-03-22T11:48:36.999Z</time></trkpt><trkpt lat="40.11350232047739" lon="15.75163521805734"><ele>594.0</ele><time>2026-03-22T11:48:37.999Z</time></trkpt><trkpt lat="40.11372401442901" lon="15.751740939848066"><ele>594.0</ele><time>2026-03-22T11:48:38.999Z</time></trkpt><trkpt lat="40.11395026810621" lon="15.751818620427354"><ele>602.5</ele><time>2026-03-22T11:48:39.999Z</time></trkpt><trkpt lat="40.11418028677977" lon="15.751856277654836"><ele>611.0</ele><time>2026-03-22T11:48:40.999Z</time></trkpt><trkpt lat="40.114408352137914" lon="15.75186258795603"><ele>611.0</ele><time>2026-03-22T11:48:41.999Z</time></trkpt><trkpt lat="40.11463035028594" lon="15.75181700942043"><ele>611.0</ele><time>2026-03-22T11:48:42.999Z</time></trkpt><trkpt lat="40.11484455662731" lon="15.751734364711107"><ele>611.0</ele><time>2026-03-22T11:48:43.999Z</time></trkpt><trkpt lat="40.11504645455532" lon="15.75162016042649"><ele>607.3333333333333</ele><time>2026-03-22T11:48:44.999Z</time></trkpt><trkpt lat="40.11524553129926" lon="15.751485412543836"><ele>603.6666666666666</ele><time>2026-03-22T11:48:45.999Z</time></trkpt><trkpt lat="40.115444519826916" lon="15.751357944674334"><ele>600.0</ele><time>2026-03-22T11:48:46.999Z</time></trkpt><trkpt lat="40.1156440550588" lon="15.751223518200865"><ele>603.6666666666666</ele><time>2026-03-22T11:48:47.999Z</time></trkpt><trkpt lat="40.11584758761294" lon="15.751096546185655"><ele>607.3333333333333</ele><time>2026-03-22T11:48:48.999Z</time></trkpt><trkpt lat="40.11604415946063" lon="15.750986604350304"><ele>611.0</ele><time>2026-03-22T11:48:49.999Z</time></trkpt><trkpt lat="40.11624840560943" lon="15.750887682638574"><ele>611.0</ele><time>2026-03-22T11:48:50.999Z</time></trkpt><trkpt lat="40.116465275559676" lon="15.750817044893255"><ele>611.0</ele><time>2026-03-22T11:48:51.999Z</time></trkpt><trkpt lat="40.11669264078365" lon="15.75077017947691"><ele>612.5</ele><time>2026-03-22T11:48:52.999Z</time></trkpt><trkpt lat="40.116930060075234" lon="15.750755601062842"><ele>614.0</ele><time>2026-03-22T11:48:53.999Z</time></trkpt><trkpt lat="40.11717858226504" lon="15.750771456527882"><ele>614.5</ele><time>2026-03-22T11:48:54.999Z</time></trkpt><trkpt lat="40.11743654624185" lon="15.750824337447487"><ele>615.0</ele><time>2026-03-22T11:48:55.999Z</time></trkpt><trkpt lat="40.117689996533755" lon="15.750907499539682"><ele>615.0</ele><time>2026-03-22T11:48:56.999Z</time></trkpt><trkpt lat="40.117936540847275" lon="15.751024800845537"><ele>615.0</ele><time>2026-03-22T11:48:57.999Z</time></trkpt><trkpt lat="40.11817905291725" lon="15.75115037381428"><ele>612.0</ele><time>2026-03-22T11:48:58.999Z</time></trkpt><trkpt lat="40.11841815292388" lon="15.751249585956117"><ele>609.0</ele><time>2026-03-22T11:49:00Z</time></trkpt><trkpt lat="40.11865881375399" lon="15.751312670435178"><ele>609.0</ele><time>2026-03-22T11:49:01Z</time></trkpt><trkpt lat="40.118904528720016" lon="15.751333240635104"><ele>609.0</ele><time>2026-03-22T11:49:02Z</time></trkpt><trkpt lat="40.11915462352204" lon="15.751328736189938"><ele>613.5</ele><time>2026-03-22T11:49:03Z</time></trkpt><trkpt lat="40.1194056549172" lon="15.751292923118491"><ele>618.0</ele><time>2026-03-22T11:49:04Z</time></trkpt><trkpt lat="40.11965800137635" lon="15.751220428369345"><ele>618.0</ele><time>2026-03-22T11:49:05Z</time></trkpt><trkpt lat="40.11989980635761" lon="15.7511196229431"><ele>618.0</ele><time>2026-03-22T11:49:06Z</time></trkpt><trkpt lat="40.12013498462581" lon="15.751009703352196"><ele>629.0</ele><time>2026-03-22T11:49:07Z</time></trkpt><trkpt lat="40.1203618142874" lon="15.750911293721979"><ele>640.0</ele><time>2026-03-22T11:49:08Z</time></trkpt><trkpt lat="40.12057866057112" lon="15.750823211716831"><ele>636.0</ele><time>2026-03-22T11:49:09Z</time></trkpt><trkpt lat="40.12078510151022" lon="15.75073545027393"><ele>632.0</ele><time>2026-03-22T11:49:10Z</time></trkpt><trkpt lat="40.120981345808076" lon="15.750634617768583"><ele>628.0</ele><time>2026-03-22T11:49:11Z</time></trkpt><trkpt lat="40.12116583796907" lon="15.750520350941658"><ele>628.0</ele><time>2026-03-22T11:49:12Z</time></trkpt><trkpt lat="40.121342058328125" lon="15.75039523377317"><ele>628.0</ele><time>2026-03-22T11:49:13Z</time></trkpt><trkpt lat="40.12149999988292" lon="15.750253190583205"><ele>628.0</ele><time>2026-03-22T11:49:14Z</time></trkpt><trkpt lat="40.12165359090402" lon="15.750091007756543"><ele>634.6666666666667</ele><time>2026-03-22T11:49:15Z</time></trkpt><trkpt lat="40.12178948204101" lon="15.74991105988753"><ele>641.3333333333334</ele><time>2026-03-22T11:49:16Z</time></trkpt><trkpt lat="40.12191400271775" lon="15.749715390978595"><ele>648.0</ele><time>2026-03-22T11:49:17Z</time></trkpt><trkpt lat="40.12202924521454" lon="15.749507436707177"><ele>656.6666666666666</ele><time>2026-03-22T11:49:18Z</time></trkpt><trkpt lat="40.12213815068979" lon="15.749292299980826"><ele>665.3333333333333</ele><time>2026-03-22T11:49:19Z</time></trkpt><trkpt lat="40.12223529966168" lon="15.749078057996256"><ele>674.0</ele><time>2026-03-22T11:49:20Z</time></trkpt><trkpt lat="40.12234157516577" lon="15.748870685016106"><ele>670.6666666666666</ele><time>2026-03-22T11:49:21Z</time></trkpt><trkpt lat="40.12245660556314" lon="15.748667264786988"><ele>667.3333333333334</ele><time>2026-03-22T11:49:22Z</time></trkpt><trkpt lat="40.12258513565274" lon="15.748476578544716"><ele>664.0</ele><time>2026-03-22T11:49:23Z</time></trkpt><trkpt lat="40.122728031617676" lon="15.748300665367486"><ele>664.0</ele><time>2026-03-22T11:49:24Z</time></trkpt><trkpt lat="40.122884096433765" lon="15.74814049110297"><ele>664.0</ele><time>2026-03-22T11:49:25Z</time></trkpt><trkpt lat="40.123052868368156" lon="15.74800197195475"><ele>664.0</ele><time>2026-03-22T11:49:26Z</time></trkpt><trkpt lat="40.12322296926918" lon="15.747874998186196"><ele>661.3333333333334</ele><time>2026-03-22T11:49:27Z</time></trkpt><trkpt lat="40.123398237125926" lon="15.747767860528452"><ele>658.6666666666666</ele><time>2026-03-22T11:49:28Z</time></trkpt><trkpt lat="40.12356277941374" lon="15.747655310399828"><ele>656.0</ele><time>2026-03-22T11:49:29Z</time></trkpt><trkpt lat="40.123719322331674" lon="15.747526493060834"><ele>656.0</ele><time>2026-03-22T11:49:30Z</time></trkpt><trkpt lat="40.123860173099075" lon="15.747365732062578"><ele>656.0</ele><time>2026-03-22T11:49:31Z</time></trkpt><trkpt lat="40.12399200440024" lon="15.74718515049821"><ele>656.0</ele><time>2026-03-22T11:49:32Z</time></trkpt><trkpt lat="40.12411159507435" lon="15.746989222702998"><ele>650.3333333333333</ele><time>2026-03-22T11:49:33Z</time></trkpt><trkpt lat="40.1242348163832" lon="15.746798800402948"><ele>644.6666666666666</ele><time>2026-03-22T11:49:34Z</time></trkpt><trkpt lat="40.124373228119474" lon="15.746627468426972"><ele>639.0</ele><time>2026-03-22T11:49:35Z</time></trkpt><trkpt lat="40.12451753171945" lon="15.746474126363259"><ele>639.0</ele><time>2026-03-22T11:49:36Z</time></trkpt><trkpt lat="40.12466698606602" lon="15.74633539101443"><ele>639.0</ele><time>2026-03-22T11:49:37Z</time></trkpt><trkpt lat="40.12482526529288" lon="15.746213095320226"><ele>639.0</ele><time>2026-03-22T11:49:38Z</time></trkpt><trkpt lat="40.12498195130165" lon="15.74610276369979"><ele>639.6666666666666</ele><time>2026-03-22T11:49:39Z</time></trkpt><trkpt lat="40.12513435341069" lon="15.745998564358432"><ele>640.3333333333333</ele><time>2026-03-22T11:49:40Z</time></trkpt><trkpt lat="40.12527837466464" lon="15.745883034532799"><ele>641.0</ele><time>2026-03-22T11:49:41Z</time></trkpt><trkpt lat="40.12541008701879" lon="15.7457355390632"><ele>641.0</ele><time>2026-03-22T11:49:42Z</time></trkpt><trkpt lat="40.12552590337744" lon="15.745557713516972"><ele>641.0</ele><time>2026-03-22T11:49:43Z</time></trkpt><trkpt lat="40.12562797150543" lon="15.745365147062014"><ele>641.0</ele><time>2026-03-22T11:49:44Z</time></trkpt><trkpt lat="40.12571547624923" lon="15.745160557561556"><ele>637.0</ele><time>2026-03-22T11:49:45Z</time></trkpt><trkpt lat="40.1257963510328" lon="15.744961254684153"><ele>633.0</ele><time>2026-03-22T11:49:46Z</time></trkpt><trkpt lat="40.125873996938296" lon="15.74476944878977"><ele>629.0</ele><time>2026-03-22T11:49:47Z</time></trkpt><trkpt lat="40.12594787650783" lon="15.744580845022748"><ele>629.0</ele><time>2026-03-22T11:49:48Z</time></trkpt><trkpt lat="40.12602113997448" lon="15.744388970496104"><ele>629.0</ele><time>2026-03-22T11:49:49Z</time></trkpt><trkpt lat="40.12609509365056" lon="15.74420095152681"><ele>629.0</ele><time>2026-03-22T11:49:50Z</time></trkpt><trkpt lat="40.12618064477579" lon="15.744018546287524"><ele>640.6666666666666</ele><time>2026-03-22T11:49:51Z</time></trkpt><trkpt lat="40.12627488481557" lon="15.743844185220256"><ele>652.3333333333334</ele><time>2026-03-22T11:49:52Z</time></trkpt><trkpt lat="40.12638472122981" lon="15.743675841196202"><ele>664.0</ele><time>2026-03-22T11:49:53Z</time></trkpt><trkpt lat="40.12650606958473" lon="15.743517997116136"><ele>653.3333333333334</ele><time>2026-03-22T11:49:54Z</time></trkpt><trkpt lat="40.126641513158276" lon="15.743366144144051"><ele>642.6666666666666</ele><time>2026-03-22T11:49:55Z</time></trkpt><trkpt lat="40.12678644029753" lon="15.743225864775084"><ele>632.0</ele><time>2026-03-22T11:49:56Z</time></trkpt><trkpt lat="40.12694331658068" lon="15.743102814963324"><ele>632.0</ele><time>2026-03-22T11:49:57Z</time></trkpt><trkpt lat="40.12711059832044" lon="15.742991326485885"><ele>632.0</ele><time>2026-03-22T11:49:58Z</time></trkpt><trkpt lat="40.12728405228493" lon="15.742902132467593"><ele>632.0</ele><time>2026-03-22T11:49:59Z</time></trkpt><trkpt lat="40.12746125591515" lon="15.742825417667925"><ele>638.3333333333333</ele><time>2026-03-22T11:50:00Z</time></trkpt><trkpt lat="40.127640022768155" lon="15.74275134162541"><ele>644.6666666666666</ele><time>2026-03-22T11:50:01Z</time></trkpt><trkpt lat="40.12781026664853" lon="15.742664820059579"><ele>651.0</ele><time>2026-03-22T11:50:02Z</time></trkpt><trkpt lat="40.12797047499922" lon="15.742552837951505"><ele>651.0</ele><time>2026-03-22T11:50:02.999Z</time></trkpt><trkpt lat="40.128117108302405" lon="15.742414859843354"><ele>651.0</ele><time>2026-03-22T11:50:03.999Z</time></trkpt><trkpt lat="40.1282527227629" lon="15.742261794641792"><ele>651.0</ele><time>2026-03-22T11:50:04.999Z</time></trkpt><trkpt lat="40.12838559692722" lon="15.74209298488329"><ele>651.6666666666666</ele><time>2026-03-22T11:50:05.999Z</time></trkpt><trkpt lat="40.128507025235145" lon="15.741910337968077"><ele>652.3333333333333</ele><time>2026-03-22T11:50:06.999Z</time></trkpt><trkpt lat="40.12861637577596" lon="15.741711557542475"><ele>653.0</ele><time>2026-03-22T11:50:07.999Z</time></trkpt><trkpt lat="40.128725125381365" lon="15.741513926564428"><ele>653.0</ele><time>2026-03-22T11:50:08.999Z</time></trkpt><trkpt lat="40.12883736282839" lon="15.741320957542355"><ele>653.0</ele><time>2026-03-22T11:50:09.999Z</time></trkpt><trkpt lat="40.12896412455277" lon="15.74114664484222"><ele>653.0</ele><time>2026-03-22T11:50:10.999Z</time></trkpt><trkpt lat="40.12910449384937" lon="15.740991940017901"><ele>646.0</ele><time>2026-03-22T11:50:11.999Z</time></trkpt><trkpt lat="40.129255898732545" lon="15.74086075198868"><ele>639.0</ele><time>2026-03-22T11:50:12.999Z</time></trkpt><trkpt lat="40.129414154792684" lon="15.7407522152685"><ele>632.0</ele><time>2026-03-22T11:50:13.999Z</time></trkpt><trkpt lat="40.12958392401082" lon="15.740661138272227"><ele>632.0</ele><time>2026-03-22T11:50:14.999Z</time></trkpt><trkpt lat="40.129753603366716" lon="15.740576262566899"><ele>632.0</ele><time>2026-03-22T11:50:15.999Z</time></trkpt><trkpt lat="40.1299211403547" lon="15.740485646210372"><ele>632.0</ele><time>2026-03-22T11:50:16.999Z</time></trkpt><trkpt lat="40.13008293590784" lon="15.740388794366261"><ele>635.0</ele><time>2026-03-22T11:50:17.999Z</time></trkpt><trkpt lat="40.13024081287743" lon="15.740280320268035"><ele>638.0</ele><time>2026-03-22T11:50:18.999Z</time></trkpt><trkpt lat="40.13039062710675" lon="15.740152994271606"><ele>641.0</ele><time>2026-03-22T11:50:19.999Z</time></trkpt><trkpt lat="40.13053384983338" lon="15.74000746964978"><ele>641.0</ele><time>2026-03-22T11:50:20.999Z</time></trkpt><trkpt lat="40.13065829268609" lon="15.739828844598991"><ele>641.0</ele><time>2026-03-22T11:50:21.999Z</time></trkpt><trkpt lat="40.13077419352727" lon="15.739633842414765"><ele>641.0</ele><time>2026-03-22T11:50:22.999Z</time></trkpt><trkpt lat="40.13087986245741" lon="15.739424269045646"><ele>637.6666666666666</ele><time>2026-03-22T11:50:23.999Z</time></trkpt><trkpt lat="40.13098996208233" lon="15.739216211557828"><ele>634.3333333333334</ele><time>2026-03-22T11:50:24.999Z</time></trkpt><trkpt lat="40.13110385477251" lon="15.739013038863506"><ele>631.0</ele><time>2026-03-22T11:50:25.999Z</time></trkpt><trkpt lat="40.13121886841472" lon="15.738814445625104"><ele>631.0</ele><time>2026-03-22T11:50:26.999Z</time></trkpt><trkpt lat="40.13133608771033" lon="15.738624442262427"><ele>631.0</ele><time>2026-03-22T11:50:27.999Z</time></trkpt><trkpt lat="40.13146244172843" lon="15.73843985283248"><ele>631.0</ele><time>2026-03-22T11:50:28.999Z</time></trkpt><trkpt lat="40.13159633964876" lon="15.738272479995143"><ele>621.6666666666667</ele><time>2026-03-22T11:50:29.999Z</time></trkpt><trkpt lat="40.13173603227968" lon="15.738120320599046"><ele>612.3333333333334</ele><time>2026-03-22T11:50:30.999Z</time></trkpt><trkpt lat="40.131881157293655" lon="15.73798741018387"><ele>603.0</ele><time>2026-03-22T11:50:31.999Z</time></trkpt><trkpt lat="40.13202809570297" lon="15.737865306386576"><ele>603.0</ele><time>2026-03-22T11:50:32.999Z</time></trkpt><trkpt lat="40.13218179088334" lon="15.737758413238296"><ele>603.0</ele><time>2026-03-22T11:50:33.999Z</time></trkpt><trkpt lat="40.1323435026766" lon="15.737662298947317"><ele>603.0</ele><time>2026-03-22T11:50:34.999Z</time></trkpt><trkpt lat="40.13250826729298" lon="15.737580571394236"><ele>599.3333333333334</ele><time>2026-03-22T11:50:35.999Z</time></trkpt><trkpt lat="40.13267916137465" lon="15.73751522621009"><ele>595.6666666666667</ele><time>2026-03-22T11:50:36.999Z</time></trkpt><trkpt lat="40.132852778848516" lon="15.737464259733308"><ele>592.0</ele><time>2026-03-22T11:50:37.999Z</time></trkpt><trkpt lat="40.133033025374175" lon="15.737431308738461"><ele>592.0</ele><time>2026-03-22T11:50:38.999Z</time></trkpt><trkpt lat="40.133206871676094" lon="15.737413156252284"><ele>592.0</ele><time>2026-03-22T11:50:39.999Z</time></trkpt><trkpt lat="40.1333833939154" lon="15.737406427193465"><ele>592.0</ele><time>2026-03-22T11:50:40.999Z</time></trkpt><trkpt lat="40.133555781000375" lon="15.737406530175106"><ele>601.0</ele><time>2026-03-22T11:50:41.999Z</time></trkpt><trkpt lat="40.13372794639323" lon="15.73740749950231"><ele>610.0</ele><time>2026-03-22T11:50:42.999Z</time></trkpt><trkpt lat="40.13390226953313" lon="15.737409071178877"><ele>619.0</ele><time>2026-03-22T11:50:43.999Z</time></trkpt><trkpt lat="40.13408004989238" lon="15.73741034997897"><ele>619.3333333333334</ele><time>2026-03-22T11:50:44.999Z</time></trkpt><trkpt lat="40.134259101870214" lon="15.737405268095703"><ele>619.6666666666666</ele><time>2026-03-22T11:50:45.999Z</time></trkpt><trkpt lat="40.134443947890425" lon="15.73738724365034"><ele>620.0</ele><time>2026-03-22T11:50:46.999Z</time></trkpt><trkpt lat="40.13462944377918" lon="15.737355415189322"><ele>620.0</ele><time>2026-03-22T11:50:47.999Z</time></trkpt><trkpt lat="40.134814718808634" lon="15.737302660395544"><ele>620.0</ele><time>2026-03-22T11:50:48.999Z</time></trkpt><trkpt lat="40.134997951521285" lon="15.737231674318318"><ele>620.0</ele><time>2026-03-22T11:50:49.999Z</time></trkpt><trkpt lat="40.135175189438755" lon="15.737146610767176"><ele>618.3333333333333</ele><time>2026-03-22T11:50:50.999Z</time></trkpt><trkpt lat="40.13535117262451" lon="15.737050400400136"><ele>616.6666666666666</ele><time>2026-03-22T11:50:51.999Z</time></trkpt><trkpt lat="40.135521625535496" lon="15.736942429355706"><ele>615.0</ele><time>2026-03-22T11:50:52.999Z</time></trkpt><trkpt lat="40.13569015970191" lon="15.73683540440216"><ele>619.0</ele><time>2026-03-22T11:50:53.999Z</time></trkpt><trkpt lat="40.135857734448614" lon="15.736734685648623"><ele>623.0</ele><time>2026-03-22T11:50:54.999Z</time></trkpt><trkpt lat="40.13603072750449" lon="15.736648074944707"><ele>627.0</ele><time>2026-03-22T11:50:55.999Z</time></trkpt><trkpt lat="40.13620674348314" lon="15.736584372615987"><ele>627.0</ele><time>2026-03-22T11:50:56.999Z</time></trkpt><trkpt lat="40.13638341914054" lon="15.736543930170352"><ele>627.0</ele><time>2026-03-22T11:50:57.999Z</time></trkpt><trkpt lat="40.13655819156331" lon="15.736520347098738"><ele>627.0</ele><time>2026-03-22T11:50:58.999Z</time></trkpt><trkpt lat="40.136734979678664" lon="15.736501343639551"><ele>624.0</ele><time>2026-03-22T11:50:59.999Z</time></trkpt><trkpt lat="40.13691289829023" lon="15.736482930610329"><ele>621.0</ele><time>2026-03-22T11:51:00.999Z</time></trkpt><trkpt lat="40.13707406309044" lon="15.73645595801076"><ele>618.0</ele><time>2026-03-22T11:51:01.999Z</time></trkpt><trkpt lat="40.137225578354354" lon="15.736419704328203"><ele>618.0</ele><time>2026-03-22T11:51:02.999Z</time></trkpt><trkpt lat="40.137367385419616" lon="15.736380174906916"><ele>618.0</ele><time>2026-03-22T11:51:03.999Z</time></trkpt><trkpt lat="40.13750186568084" lon="15.73633322758858"><ele>618.0</ele><time>2026-03-22T11:51:04.999Z</time></trkpt><trkpt lat="40.1376289390295" lon="15.736275584405748"><ele>618.0</ele><time>2026-03-22T11:51:06Z</time></trkpt><trkpt lat="40.137750228224775" lon="15.736214109450643"><ele>615.25</ele><time>2026-03-22T11:51:07Z</time></trkpt><trkpt lat="40.13786880780779" lon="15.73616300293037"><ele>612.5</ele><time>2026-03-22T11:51:08Z</time></trkpt><trkpt lat="40.137982767948984" lon="15.736118376038597"><ele>609.75</ele><time>2026-03-22T11:51:09Z</time></trkpt><trkpt lat="40.13809416848199" lon="15.736082520800258"><ele>607.0</ele><time>2026-03-22T11:51:10Z</time></trkpt><trkpt lat="40.13820553957888" lon="15.736051716038611"><ele>609.75</ele><time>2026-03-22T11:51:11Z</time></trkpt><trkpt lat="40.13832092399101" lon="15.736023009484338"><ele>612.5</ele><time>2026-03-22T11:51:12Z</time></trkpt><trkpt lat="40.13843848772579" lon="15.735992826887662"><ele>615.25</ele><time>2026-03-22T11:51:13Z</time></trkpt><trkpt lat="40.138558045146816" lon="15.735960252277867"><ele>618.0</ele><time>2026-03-22T11:51:14Z</time></trkpt><trkpt lat="40.138682094741796" lon="15.7359291091925"><ele>618.0</ele><time>2026-03-22T11:51:15Z</time></trkpt><trkpt lat="40.138813026642175" lon="15.735894706130996"><ele>618.0</ele><time>2026-03-22T11:51:16Z</time></trkpt><trkpt lat="40.13895072302834" lon="15.735857993833735"><ele>618.0</ele><time>2026-03-22T11:51:17Z</time></trkpt><trkpt lat="40.13909240676289" lon="15.735820756442164"><ele>618.0</ele><time>2026-03-22T11:51:18Z</time></trkpt><trkpt lat="40.13923418662537" lon="15.73578301598158"><ele>609.75</ele><time>2026-03-22T11:51:19Z</time></trkpt><trkpt lat="40.13937399581772" lon="15.735744839974778"><ele>601.5</ele><time>2026-03-22T11:51:20Z</time></trkpt><trkpt lat="40.1395104392003" lon="15.735707750040442"><ele>593.25</ele><time>2026-03-22T11:51:21Z</time></trkpt><trkpt lat="40.13965207020902" lon="15.735670013716708"><ele>585.0</ele><time>2026-03-22T11:51:22Z</time></trkpt><trkpt lat="40.13979954521963" lon="15.735630231245633"><ele>587.0</ele><time>2026-03-22T11:51:23Z</time></trkpt><trkpt lat="40.13994879611645" lon="15.73559086637458"><ele>589.0</ele><time>2026-03-22T11:51:24Z</time></trkpt><trkpt lat="40.1401021170399" lon="15.73554797446414"><ele>591.0</ele><time>2026-03-22T11:51:25Z</time></trkpt><trkpt lat="40.1402532293688" lon="15.735502401334324"><ele>591.0</ele><time>2026-03-22T11:51:26Z</time></trkpt><trkpt lat="40.14039988339064" lon="15.735454032764235"><ele>591.0</ele><time>2026-03-22T11:51:27Z</time></trkpt><trkpt lat="40.140546221020365" lon="15.73540650952662"><ele>591.0</ele><time>2026-03-22T11:51:28Z</time></trkpt><trkpt lat="40.14069018513425" lon="15.735358951365876"><ele>590.25</ele><time>2026-03-22T11:51:29Z</time></trkpt><trkpt lat="40.14083261763606" lon="15.735315442647451"><ele>589.5</ele><time>2026-03-22T11:51:30Z</time></trkpt><trkpt lat="40.140973786397836" lon="15.735272871636957"><ele>588.75</ele><time>2026-03-22T11:51:31Z</time></trkpt><trkpt lat="40.141114775144665" lon="15.735230751624023"><ele>588.0</ele><time>2026-03-22T11:51:32Z</time></trkpt><trkpt lat="40.14125142442641" lon="15.735185915093997"><ele>590.75</ele><time>2026-03-22T11:51:33Z</time></trkpt><trkpt lat="40.141390027118824" lon="15.735140492412052"><ele>593.5</ele><time>2026-03-22T11:51:34Z</time></trkpt><trkpt lat="40.14153261759193" lon="15.735091134930908"><ele>596.25</ele><time>2026-03-22T11:51:35Z</time></trkpt><trkpt lat="40.14167955049067" lon="15.735043409212935"><ele>599.0</ele><time>2026-03-22T11:51:36Z</time></trkpt><trkpt lat="40.141830583389215" lon="15.734995485199399"><ele>600.0</ele><time>2026-03-22T11:51:37Z</time></trkpt><trkpt lat="40.14198202116361" lon="15.734947321999726"><ele>601.0</ele><time>2026-03-22T11:51:38Z</time></trkpt><trkpt lat="40.142131917247276" lon="15.734901870395566"><ele>602.0</ele><time>2026-03-22T11:51:39Z</time></trkpt><trkpt lat="40.142281006918765" lon="15.734859076491885"><ele>603.3333333333333</ele><time>2026-03-22T11:51:40Z</time></trkpt><trkpt lat="40.14242851105916" lon="15.734819551215706"><ele>604.6666666666666</ele><time>2026-03-22T11:51:41Z</time></trkpt><trkpt lat="40.14257895113417" lon="15.73478855538986"><ele>606.0</ele><time>2026-03-22T11:51:42Z</time></trkpt><trkpt lat="40.14272789063667" lon="15.734769483632213"><ele>606.0</ele><time>2026-03-22T11:51:43Z</time></trkpt><trkpt lat="40.1428790228569" lon="15.734765444333759"><ele>606.0</ele><time>2026-03-22T11:51:44Z</time></trkpt><trkpt lat="40.14302981102315" lon="15.734775756890317"><ele>606.0</ele><time>2026-03-22T11:51:45Z</time></trkpt><trkpt lat="40.143177596431784" lon="15.734798564368713"><ele>608.0</ele><time>2026-03-22T11:51:46Z</time></trkpt><trkpt lat="40.143322225764415" lon="15.734828688796894"><ele>610.0</ele><time>2026-03-22T11:51:47Z</time></trkpt><trkpt lat="40.143463500721154" lon="15.734868409912249"><ele>612.0</ele><time>2026-03-22T11:51:48Z</time></trkpt><trkpt lat="40.14360255059729" lon="15.734916048742098"><ele>614.0</ele><time>2026-03-22T11:51:49Z</time></trkpt><trkpt lat="40.14373869537055" lon="15.734973347997682"><ele>614.0</ele><time>2026-03-22T11:51:50Z</time></trkpt><trkpt lat="40.143872810683064" lon="15.735039861494785"><ele>614.0</ele><time>2026-03-22T11:51:51Z</time></trkpt><trkpt lat="40.14401645926388" lon="15.735121638605884"><ele>614.0</ele><time>2026-03-22T11:51:52Z</time></trkpt><trkpt lat="40.14418457452442" lon="15.735226725686282"><ele>615.0</ele><time>2026-03-22T11:51:53Z</time></trkpt><trkpt lat="40.14434978509834" lon="15.735375088361693"><ele>616.0</ele><time>2026-03-22T11:51:54Z</time></trkpt><trkpt lat="40.14453844285761" lon="15.735556185254929"><ele>617.0</ele><time>2026-03-22T11:51:55Z</time></trkpt><trkpt lat="40.14474153815018" lon="15.735761852722781"><ele>617.5</ele><time>2026-03-22T11:51:56Z</time></trkpt><trkpt lat="40.14496796400085" lon="15.735991808561527"><ele>618.0</ele><time>2026-03-22T11:51:57Z</time></trkpt><trkpt lat="40.1452025825197" lon="15.73620992097886"><ele>618.0</ele><time>2026-03-22T11:51:58Z</time></trkpt><trkpt lat="40.14541984359485" lon="15.736444868175035"><ele>618.0</ele><time>2026-03-22T11:51:59Z</time></trkpt><trkpt lat="40.14563571013907" lon="15.736667138188924"><ele>611.5</ele><time>2026-03-22T11:52:00Z</time></trkpt><trkpt lat="40.145860071820884" lon="15.736877945104794"><ele>605.0</ele><time>2026-03-22T11:52:01Z</time></trkpt><trkpt lat="40.146099612762505" lon="15.737076388905171"><ele>605.0</ele><time>2026-03-22T11:52:02Z</time></trkpt><trkpt lat="40.1463608675553" lon="15.737266652041162"><ele>605.0</ele><time>2026-03-22T11:52:02.999Z</time></trkpt><trkpt lat="40.14663930306108" lon="15.737456890725605"><ele>604.0</ele><time>2026-03-22T11:52:03.999Z</time></trkpt><trkpt lat="40.146925834843344" lon="15.737647308626949"><ele>603.0</ele><time>2026-03-22T11:52:04.999Z</time></trkpt><trkpt lat="40.14722090074362" lon="15.737836043062945"><ele>605.5</ele><time>2026-03-22T11:52:05.999Z</time></trkpt><trkpt lat="40.14751842643228" lon="15.738025856111554"><ele>608.0</ele><time>2026-03-22T11:52:06.999Z</time></trkpt><trkpt lat="40.14780850290314" lon="15.738215855454866"><ele>608.0</ele><time>2026-03-22T11:52:07.999Z</time></trkpt><trkpt lat="40.148090625078986" lon="15.738399747917095"><ele>608.0</ele><time>2026-03-22T11:52:08.999Z</time></trkpt><trkpt lat="40.14836507193267" lon="15.738579224159176"><ele>617.5</ele><time>2026-03-22T11:52:09.999Z</time></trkpt><trkpt lat="40.14862841862537" lon="15.738752036755923"><ele>627.0</ele><time>2026-03-22T11:52:10.999Z</time></trkpt><trkpt lat="40.148880085232804" lon="15.738919468454755"><ele>632.5</ele><time>2026-03-22T11:52:11.999Z</time></trkpt><trkpt lat="40.149115304253705" lon="15.739078627326085"><ele>638.0</ele><time>2026-03-22T11:52:12.999Z</time></trkpt><trkpt lat="40.14934273734821" lon="15.73922846555621"><ele>638.0</ele><time>2026-03-22T11:52:13.999Z</time></trkpt><trkpt lat="40.149571236647226" lon="15.739367360100834"><ele>638.0</ele><time>2026-03-22T11:52:14.999Z</time></trkpt><trkpt lat="40.149806097562546" lon="15.739482321919334"><ele>649.5</ele><time>2026-03-22T11:52:15.999Z</time></trkpt><trkpt lat="40.15004789647541" lon="15.739572396902474"><ele>661.0</ele><time>2026-03-22T11:52:16.999Z</time></trkpt><trkpt lat="40.15027990312221" lon="15.73970210958871"><ele>661.0</ele><time>2026-03-22T11:52:17.999Z</time></trkpt><trkpt lat="40.150543002805314" lon="15.739709911164985"><ele>661.0</ele><time>2026-03-22T11:52:18.999Z</time></trkpt><trkpt lat="40.15078763462017" lon="15.739766861182883"><ele>666.0</ele><time>2026-03-22T11:52:19.999Z</time></trkpt><trkpt lat="40.15103478922414" lon="15.739816395777218"><ele>671.0</ele><time>2026-03-22T11:52:20.999Z</time></trkpt><trkpt lat="40.15128168060214" lon="15.739848633905082"><ele>671.0</ele><time>2026-03-22T11:52:21.999Z</time></trkpt><trkpt lat="40.151530854666184" lon="15.739850561342962"><ele>671.0</ele><time>2026-03-22T11:52:22.999Z</time></trkpt><trkpt lat="40.15178213993306" lon="15.739817016882961"><ele>677.0</ele><time>2026-03-22T11:52:23.999Z</time></trkpt><trkpt lat="40.152030212077506" lon="15.739749176206558"><ele>683.0</ele><time>2026-03-22T11:52:24.999Z</time></trkpt><trkpt lat="40.15227197373819" lon="15.739662977409418"><ele>688.5</ele><time>2026-03-22T11:52:25.999Z</time></trkpt><trkpt lat="40.152518345480416" lon="15.739585963295303"><ele>694.0</ele><time>2026-03-22T11:52:26.999Z</time></trkpt><trkpt lat="40.15276915522022" lon="15.739537472321901"><ele>694.0</ele><time>2026-03-22T11:52:27.999Z</time></trkpt><trkpt lat="40.15302597173974" lon="15.739524079331016"><ele>694.0</ele><time>2026-03-22T11:52:28.999Z</time></trkpt><trkpt lat="40.15328448457663" lon="15.739554099344838"><ele>699.0</ele><time>2026-03-22T11:52:29.999Z</time></trkpt><trkpt lat="40.15354186437824" lon="15.739633114656543"><ele>704.0</ele><time>2026-03-22T11:52:30.999Z</time></trkpt><trkpt lat="40.15379055478304" lon="15.739743986407092"><ele>704.0</ele><time>2026-03-22T11:52:31.999Z</time></trkpt><trkpt lat="40.154016181264275" lon="15.739882671994192"><ele>704.0</ele><time>2026-03-22T11:52:32.999Z</time></trkpt><trkpt lat="40.154230430220366" lon="15.7400606144905"><ele>706.5</ele><time>2026-03-22T11:52:33.999Z</time></trkpt><trkpt lat="40.15443551056806" lon="15.740267033546115"><ele>709.0</ele><time>2026-03-22T11:52:34.999Z</time></trkpt><trkpt lat="40.15462834432131" lon="15.740460701986029"><ele>709.0</ele><time>2026-03-22T11:52:35.999Z</time></trkpt><trkpt lat="40.15480980996641" lon="15.740633249917034"><ele>709.0</ele><time>2026-03-22T11:52:36.999Z</time></trkpt><trkpt lat="40.15498164952972" lon="15.740794969392487"><ele>709.0</ele><time>2026-03-22T11:52:37.999Z</time></trkpt><trkpt lat="40.15513758465511" lon="15.740952562179597"><ele>709.6666666666667</ele><time>2026-03-22T11:52:38.999Z</time></trkpt><trkpt lat="40.15526372298707" lon="15.741113422626936"><ele>710.3333333333334</ele><time>2026-03-22T11:52:39.999Z</time></trkpt><trkpt lat="40.155359796357686" lon="15.741293754890137"><ele>711.0</ele><time>2026-03-22T11:52:40.999Z</time></trkpt><trkpt lat="40.15542716765077" lon="15.741483960017854"><ele>711.0</ele><time>2026-03-22T11:52:41.999Z</time></trkpt><trkpt lat="40.15546768693729" lon="15.741684078160098"><ele>711.0</ele><time>2026-03-22T11:52:42.999Z</time></trkpt><trkpt lat="40.155475378344626" lon="15.74188614469173"><ele>711.0</ele><time>2026-03-22T11:52:43.999Z</time></trkpt><trkpt lat="40.155453702141116" lon="15.742084618229361"><ele>713.6666666666666</ele><time>2026-03-22T11:52:44.999Z</time></trkpt><trkpt lat="40.1554121252255" lon="15.742277685037898"><ele>716.3333333333333</ele><time>2026-03-22T11:52:45.999Z</time></trkpt><trkpt lat="40.1553504565323" lon="15.74246688435918"><ele>719.0</ele><time>2026-03-22T11:52:46.999Z</time></trkpt><trkpt lat="40.15527640337537" lon="15.742655900916477"><ele>720.6666666666666</ele><time>2026-03-22T11:52:47.999Z</time></trkpt><trkpt lat="40.15519407768184" lon="15.742840962948431"><ele>722.3333333333334</ele><time>2026-03-22T11:52:48.999Z</time></trkpt><trkpt lat="40.155107920971425" lon="15.743036196181052"><ele>724.0</ele><time>2026-03-22T11:52:49.999Z</time></trkpt><trkpt lat="40.15501921675137" lon="15.74325073124177"><ele>724.0</ele><time>2026-03-22T11:52:50.999Z</time></trkpt><trkpt lat="40.154924441611364" lon="15.743482487206132"><ele>724.0</ele><time>2026-03-22T11:52:51.999Z</time></trkpt><trkpt lat="40.154823117968746" lon="15.743725978624974"><ele>724.0</ele><time>2026-03-22T11:52:52.999Z</time></trkpt><trkpt lat="40.154715742564285" lon="15.743982919430557"><ele>726.0</ele><time>2026-03-22T11:52:53.999Z</time></trkpt><trkpt lat="40.154600914324895" lon="15.744255112603076"><ele>728.0</ele><time>2026-03-22T11:52:54.999Z</time></trkpt><trkpt lat="40.15447989085761" lon="15.744542754308124"><ele>731.0</ele><time>2026-03-22T11:52:55.999Z</time></trkpt><trkpt lat="40.15435484550484" lon="15.744845360014212"><ele>734.0</ele><time>2026-03-22T11:52:56.999Z</time></trkpt><trkpt lat="40.15422813939069" lon="15.745155535276108"><ele>734.0</ele><time>2026-03-22T11:52:57.999Z</time></trkpt><trkpt lat="40.15410334340154" lon="15.745460777368049"><ele>734.0</ele><time>2026-03-22T11:52:58.999Z</time></trkpt><trkpt lat="40.15397474984413" lon="15.745767735812766"><ele>739.5</ele><time>2026-03-22T11:52:59.999Z</time></trkpt><trkpt lat="40.153844020718765" lon="15.746078382960835"><ele>745.0</ele><time>2026-03-22T11:53:00.999Z</time></trkpt><trkpt lat="40.1537214835726" lon="15.746367803765796"><ele>745.0</ele><time>2026-03-22T11:53:01.999Z</time></trkpt><trkpt lat="40.15360331679702" lon="15.746633060154645"><ele>745.0</ele><time>2026-03-22T11:53:02.999Z</time></trkpt><trkpt lat="40.15347908148186" lon="15.746881820560139"><ele>748.3333333333334</ele><time>2026-03-22T11:53:03.999Z</time></trkpt><trkpt lat="40.15335340685071" lon="15.747107104414901"><ele>751.6666666666666</ele><time>2026-03-22T11:53:04.999Z</time></trkpt><trkpt lat="40.15325242928097" lon="15.747285881719808"><ele>755.0</ele><time>2026-03-22T11:53:05.999Z</time></trkpt><trkpt lat="40.15316676010324" lon="15.747419305797504"><ele>755.0</ele><time>2026-03-22T11:53:06.999Z</time></trkpt><trkpt lat="40.153073675435955" lon="15.74752051125749"><ele>755.0</ele><time>2026-03-22T11:53:07.999Z</time></trkpt><trkpt lat="40.15295570627163" lon="15.747591799803969"><ele>755.0</ele><time>2026-03-22T11:53:08.999Z</time></trkpt><trkpt lat="40.15281556734138" lon="15.747620110795621"><ele>755.0</ele><time>2026-03-22T11:53:09.999Z</time></trkpt><trkpt lat="40.152668802052155" lon="15.747614287979719"><ele>755.0</ele><time>2026-03-22T11:53:10.999Z</time></trkpt><trkpt lat="40.15252280406395" lon="15.747561871786825"><ele>755.0</ele><time>2026-03-22T11:53:12Z</time></trkpt><trkpt lat="40.15238637827738" lon="15.747481209736701"><ele>755.0</ele><time>2026-03-22T11:53:13Z</time></trkpt><trkpt lat="40.15225064073824" lon="15.747407546707867"><ele>755.0</ele><time>2026-03-22T11:53:14Z</time></trkpt><trkpt lat="40.15210905337363" lon="15.747390362788126"><ele>755.5</ele><time>2026-03-22T11:53:15Z</time></trkpt><trkpt lat="40.15196853219761" lon="15.747440456228068"><ele>756.0</ele><time>2026-03-22T11:53:16Z</time></trkpt><trkpt lat="40.15184364386107" lon="15.747539583882766"><ele>756.5</ele><time>2026-03-22T11:53:17Z</time></trkpt><trkpt lat="40.15175129988886" lon="15.747687760501938"><ele>757.0</ele><time>2026-03-22T11:53:18Z</time></trkpt><trkpt lat="40.1516756838157" lon="15.747863552396977"><ele>758.3333333333334</ele><time>2026-03-22T11:53:19Z</time></trkpt><trkpt lat="40.15160078847403" lon="15.74805521474292"><ele>759.6666666666666</ele><time>2026-03-22T11:53:20Z</time></trkpt><trkpt lat="40.15151392372077" lon="15.748255048086042"><ele>761.0</ele><time>2026-03-22T11:53:21Z</time></trkpt><trkpt lat="40.15141645854715" lon="15.748461427047243"><ele>764.6666666666666</ele><time>2026-03-22T11:53:22Z</time></trkpt><trkpt lat="40.15131339342309" lon="15.748673031919564"><ele>768.3333333333333</ele><time>2026-03-22T11:53:23Z</time></trkpt><trkpt lat="40.15121102696233" lon="15.748886487090662"><ele>772.0</ele><time>2026-03-22T11:53:24Z</time></trkpt><trkpt lat="40.15110782295762" lon="15.749104130000637"><ele>772.0</ele><time>2026-03-22T11:53:25Z</time></trkpt><trkpt lat="40.15100173565483" lon="15.749319756566075"><ele>772.0</ele><time>2026-03-22T11:53:26Z</time></trkpt><trkpt lat="40.15088685377131" lon="15.749529273978908"><ele>772.0</ele><time>2026-03-22T11:53:27Z</time></trkpt><trkpt lat="40.15075509779404" lon="15.749724779117644"><ele>775.3333333333333</ele><time>2026-03-22T11:53:28Z</time></trkpt><trkpt lat="40.150578998942386" lon="15.74984512885063"><ele>778.6666666666667</ele><time>2026-03-22T11:53:29Z</time></trkpt><trkpt lat="40.150419614061995" lon="15.7500033772393"><ele>782.0</ele><time>2026-03-22T11:53:30Z</time></trkpt><trkpt lat="40.150236203461546" lon="15.750149277260192"><ele>784.5</ele><time>2026-03-22T11:53:31Z</time></trkpt><trkpt lat="40.150054308026434" lon="15.750326475867494"><ele>787.0</ele><time>2026-03-22T11:53:32Z</time></trkpt><trkpt lat="40.14983775788013" lon="15.750452546682896"><ele>787.0</ele><time>2026-03-22T11:53:33Z</time></trkpt><trkpt lat="40.14960716027135" lon="15.750585726379926"><ele>787.0</ele><time>2026-03-22T11:53:34Z</time></trkpt><trkpt lat="40.14936541652803" lon="15.750734489309762"><ele>787.0</ele><time>2026-03-22T11:53:35Z</time></trkpt><trkpt lat="40.14911082695459" lon="15.750901023061871"><ele>787.0</ele><time>2026-03-22T11:53:36Z</time></trkpt><trkpt lat="40.148843189249675" lon="15.751084361534685"><ele>790.0</ele><time>2026-03-22T11:53:37Z</time></trkpt><trkpt lat="40.14856885325637" lon="15.751270774286372"><ele>793.0</ele><time>2026-03-22T11:53:38Z</time></trkpt><trkpt lat="40.148284634831725" lon="15.751469410706694"><ele>798.0</ele><time>2026-03-22T11:53:39Z</time></trkpt><trkpt lat="40.14799605767917" lon="15.7516757907041"><ele>803.0</ele><time>2026-03-22T11:53:40Z</time></trkpt><trkpt lat="40.14770138468867" lon="15.751886574560007"><ele>805.5</ele><time>2026-03-22T11:53:41Z</time></trkpt><trkpt lat="40.14740131130094" lon="15.7521023034339"><ele>808.0</ele><time>2026-03-22T11:53:42Z</time></trkpt><trkpt lat="40.147098797304125" lon="15.752316786484041"><ele>818.5</ele><time>2026-03-22T11:53:43Z</time></trkpt><trkpt lat="40.14680067885065" lon="15.752530396094265"><ele>829.0</ele><time>2026-03-22T11:53:44Z</time></trkpt><trkpt lat="40.146503869018595" lon="15.752746611219274"><ele>850.5</ele><time>2026-03-22T11:53:45Z</time></trkpt><trkpt lat="40.14620797082917" lon="15.752964300024843"><ele>872.0</ele><time>2026-03-22T11:53:46Z</time></trkpt><trkpt lat="40.14591098606615" lon="15.753182476598486"><ele>873.5</ele><time>2026-03-22T11:53:47Z</time></trkpt><trkpt lat="40.14559272917672" lon="15.753416823068255"><ele>875.0</ele><time>2026-03-22T11:53:48.068Z</time></trkpt><trkpt lat="40.14529480087454" lon="15.75363649281867"><ele>876.0</ele><time>2026-03-22T11:53:49.065Z</time></trkpt><trkpt lat="40.14499387906023" lon="15.753857286978064"><ele>877.0</ele><time>2026-03-22T11:53:50.067Z</time></trkpt><trkpt lat="40.144693964954115" lon="15.75407642836591"><ele>865.5</ele><time>2026-03-22T11:53:51.063Z</time></trkpt><trkpt lat="40.14439196529454" lon="15.7542960153061"><ele>854.0</ele><time>2026-03-22T11:53:52.064Z</time></trkpt><trkpt lat="40.14409204714934" lon="15.754517354301564"><ele>844.0</ele><time>2026-03-22T11:53:53.06Z</time></trkpt><trkpt lat="40.1437992871793" lon="15.75473503295508"><ele>834.0</ele><time>2026-03-22T11:53:54.035Z</time></trkpt><trkpt lat="40.14209047577644" lon="15.755836905172668"><ele>823.0</ele><time>2026-03-22T11:53:58.262Z</time></trkpt><trkpt lat="40.14169606083466" lon="15.756119735231673"><ele>815.0</ele><time>2026-03-22T11:53:59.262Z</time></trkpt><trkpt lat="40.14130174981969" lon="15.756403324301273"><ele>815.0</ele><time>2026-03-22T11:54:00.262Z</time></trkpt><trkpt lat="40.140907526539536" lon="15.756686723821216"><ele>802.0</ele><time>2026-03-22T11:54:01.262Z</time></trkpt><trkpt lat="40.14051267941089" lon="15.756969004341135"><ele>802.0</ele><time>2026-03-22T11:54:02.262Z</time></trkpt><trkpt lat="40.140117729532214" lon="15.757250653318623"><ele>792.0</ele><time>2026-03-22T11:54:03.262Z</time></trkpt><trkpt lat="40.13916690391131" lon="15.757856739460706"><ele>789.0</ele><time>2026-03-22T11:54:09Z</time></trkpt><trkpt lat="40.1388673163041" lon="15.75806641109136"><ele>786.0</ele><time>2026-03-22T11:54:09.999Z</time></trkpt><trkpt lat="40.138668869349026" lon="15.758289335030282"><ele>786.0</ele><time>2026-03-22T11:54:10.999Z</time></trkpt><trkpt lat="40.138379525221374" lon="15.758501917534838"><ele>786.0</ele><time>2026-03-22T11:54:11.999Z</time></trkpt><trkpt lat="40.138082589364075" lon="15.758708620171912"><ele>786.0</ele><time>2026-03-22T11:54:12.999Z</time></trkpt><trkpt lat="40.1377916554479" lon="15.758917487276449"><ele>786.0</ele><time>2026-03-22T11:54:13.999Z</time></trkpt><trkpt lat="40.13754221499864" lon="15.759112326044002"><ele>784.5</ele><time>2026-03-22T11:54:14.999Z</time></trkpt><trkpt lat="40.13724206068512" lon="15.759307320704597"><ele>783.0</ele><time>2026-03-22T11:54:15.999Z</time></trkpt><trkpt lat="40.13693672297909" lon="15.759495811731039"><ele>787.0</ele><time>2026-03-22T11:54:16.999Z</time></trkpt><trkpt lat="40.136629261057976" lon="15.759674779469128"><ele>791.0</ele><time>2026-03-22T11:54:17.999Z</time></trkpt><trkpt lat="40.13631940922073" lon="15.759837851149413"><ele>791.0</ele><time>2026-03-22T11:54:18.999Z</time></trkpt><trkpt lat="40.13600617656493" lon="15.759995489969691"><ele>791.0</ele><time>2026-03-22T11:54:19.999Z</time></trkpt><trkpt lat="40.13568816297512" lon="15.760146266220408"><ele>792.5</ele><time>2026-03-22T11:54:20.999Z</time></trkpt><trkpt lat="40.13536897481654" lon="15.760292187413526"><ele>794.0</ele><time>2026-03-22T11:54:21.999Z</time></trkpt><trkpt lat="40.13504884543658" lon="15.760437773748123"><ele>793.0</ele><time>2026-03-22T11:54:22.999Z</time></trkpt><trkpt lat="40.13473136292949" lon="15.76058799013194"><ele>792.0</ele><time>2026-03-22T11:54:23.999Z</time></trkpt><trkpt lat="40.13441272803593" lon="15.760736400274807"><ele>792.0</ele><time>2026-03-22T11:54:24.999Z</time></trkpt><trkpt lat="40.13409603479845" lon="15.760885822500413"><ele>792.0</ele><time>2026-03-22T11:54:25.999Z</time></trkpt><trkpt lat="40.133777971475325" lon="15.761035764025657"><ele>791.0</ele><time>2026-03-22T11:54:26.999Z</time></trkpt><trkpt lat="40.13345751686853" lon="15.761179965819608"><ele>790.0</ele><time>2026-03-22T11:54:27.999Z</time></trkpt><trkpt lat="40.13313922994078" lon="15.76133390504704"><ele>787.5</ele><time>2026-03-22T11:54:28.999Z</time></trkpt><trkpt lat="40.13282113238925" lon="15.761483054666112"><ele>785.0</ele><time>2026-03-22T11:54:29.999Z</time></trkpt><trkpt lat="40.13251125401735" lon="15.76165205895881"><ele>782.0</ele><time>2026-03-22T11:54:30.999Z</time></trkpt><trkpt lat="40.13221044708186" lon="15.761848195830797"><ele>779.0</ele><time>2026-03-22T11:54:31.999Z</time></trkpt><trkpt lat="40.13192574111976" lon="15.762076496079219"><ele>779.0</ele><time>2026-03-22T11:54:32.999Z</time></trkpt><trkpt lat="40.131660983433" lon="15.762336206886223"><ele>779.0</ele><time>2026-03-22T11:54:33.999Z</time></trkpt><trkpt lat="40.13141757267388" lon="15.762629644307127"><ele>773.5</ele><time>2026-03-22T11:54:34.999Z</time></trkpt><trkpt lat="40.13119957660493" lon="15.762952792227884"><ele>768.0</ele><time>2026-03-22T11:54:35.999Z</time></trkpt><trkpt lat="40.131005740783344" lon="15.763299897829306"><ele>770.5</ele><time>2026-03-22T11:54:36.999Z</time></trkpt><trkpt lat="40.130835298927444" lon="15.763667948916401"><ele>773.0</ele><time>2026-03-22T11:54:37.999Z</time></trkpt><trkpt lat="40.13069061805452" lon="15.764053773148612"><ele>767.0</ele><time>2026-03-22T11:54:38.999Z</time></trkpt><trkpt lat="40.13056760533597" lon="15.764453040279665"><ele>761.0</ele><time>2026-03-22T11:54:39.999Z</time></trkpt><trkpt lat="40.13046663152754" lon="15.764862308088825"><ele>767.5</ele><time>2026-03-22T11:54:40.999Z</time></trkpt><trkpt lat="40.13037896687726" lon="15.765280946358578"><ele>774.0</ele><time>2026-03-22T11:54:41.999Z</time></trkpt><trkpt lat="40.13029139576119" lon="15.765704511643762"><ele>780.5</ele><time>2026-03-22T11:54:42.999Z</time></trkpt><trkpt lat="40.130197984695954" lon="15.766130556241341"><ele>787.0</ele><time>2026-03-22T11:54:43.999Z</time></trkpt><trkpt lat="40.13010273961413" lon="15.766556872728446"><ele>790.0</ele><time>2026-03-22T11:54:44.999Z</time></trkpt><trkpt lat="40.13000913269865" lon="15.766985353303623"><ele>793.0</ele><time>2026-03-22T11:54:45.999Z</time></trkpt><trkpt lat="40.1299161360113" lon="15.767415851529469"><ele>785.0</ele><time>2026-03-22T11:54:46.999Z</time></trkpt><trkpt lat="40.12982411670488" lon="15.767845122493004"><ele>777.0</ele><time>2026-03-22T11:54:47.999Z</time></trkpt><trkpt lat="40.129734495949585" lon="15.768273423562949"><ele>783.0</ele><time>2026-03-22T11:54:48.999Z</time></trkpt><trkpt lat="40.129644188018986" lon="15.768700733269327"><ele>789.0</ele><time>2026-03-22T11:54:49.999Z</time></trkpt><trkpt lat="40.129553108241375" lon="15.76912836600861"><ele>796.5</ele><time>2026-03-22T11:54:50.999Z</time></trkpt><trkpt lat="40.12946279583278" lon="15.769556274396095"><ele>804.0</ele><time>2026-03-22T11:54:51.999Z</time></trkpt><trkpt lat="40.129377773002865" lon="15.76998506937602"><ele>808.0</ele><time>2026-03-22T11:54:52.999Z</time></trkpt><trkpt lat="40.12929829624248" lon="15.770415585255453"><ele>812.0</ele><time>2026-03-22T11:54:53.999Z</time></trkpt><trkpt lat="40.12922390845207" lon="15.770848667948457"><ele>814.5</ele><time>2026-03-22T11:54:54.999Z</time></trkpt><trkpt lat="40.12915158176835" lon="15.771282418777963"><ele>817.0</ele><time>2026-03-22T11:54:55.999Z</time></trkpt><trkpt lat="40.12907862421415" lon="15.7717166480606"><ele>810.0</ele><time>2026-03-22T11:54:56.999Z</time></trkpt><trkpt lat="40.12900222884542" lon="15.772149781118365"><ele>803.0</ele><time>2026-03-22T11:54:57.999Z</time></trkpt><trkpt lat="40.128915560408664" lon="15.772580156812761"><ele>797.0</ele><time>2026-03-22T11:54:58.999Z</time></trkpt><trkpt lat="40.12880497552918" lon="15.77300171913807"><ele>791.0</ele><time>2026-03-22T11:54:59.999Z</time></trkpt><trkpt lat="40.12866145144462" lon="15.773400980116959"><ele>794.5</ele><time>2026-03-22T11:55:00.999Z</time></trkpt><trkpt lat="40.128487418024115" lon="15.773777268231516"><ele>798.0</ele><time>2026-03-22T11:55:01.999Z</time></trkpt><trkpt lat="40.128290651008044" lon="15.774135042909297"><ele>783.0</ele><time>2026-03-22T11:55:02.999Z</time></trkpt><trkpt lat="40.12807800955813" lon="15.77447794911698"><ele>768.0</ele><time>2026-03-22T11:55:03.999Z</time></trkpt><trkpt lat="40.12785618191635" lon="15.774816481521643"><ele>768.0</ele><time>2026-03-22T11:55:04.999Z</time></trkpt><trkpt lat="40.12763652118668" lon="15.775162517833538"><ele>768.0</ele><time>2026-03-22T11:55:05.999Z</time></trkpt><trkpt lat="40.127416435977516" lon="15.775512102509634"><ele>784.5</ele><time>2026-03-22T11:55:06.999Z</time></trkpt><trkpt lat="40.12719572716316" lon="15.77586102978694"><ele>801.0</ele><time>2026-03-22T11:55:07.999Z</time></trkpt><trkpt lat="40.12697494419904" lon="15.77620786030643"><ele>808.5</ele><time>2026-03-22T11:55:08.999Z</time></trkpt><trkpt lat="40.126754874446256" lon="15.776554565021966"><ele>816.0</ele><time>2026-03-22T11:55:09.999Z</time></trkpt><trkpt lat="40.12653604900126" lon="15.776901312253646"><ele>816.0</ele><time>2026-03-22T11:55:10.999Z</time></trkpt><trkpt lat="40.12631716311222" lon="15.777246982152747"><ele>816.0</ele><time>2026-03-22T11:55:11.999Z</time></trkpt><trkpt lat="40.12609873611041" lon="15.777592957080504"><ele>813.0</ele><time>2026-03-22T11:55:12.999Z</time></trkpt><trkpt lat="40.12588065231281" lon="15.777939502696041"><ele>810.0</ele><time>2026-03-22T11:55:13.999Z</time></trkpt><trkpt lat="40.125662499695906" lon="15.778284880959301"><ele>794.0</ele><time>2026-03-22T11:55:14.999Z</time></trkpt><trkpt lat="40.12544587343529" lon="15.778623742139597"><ele>778.0</ele><time>2026-03-22T11:55:15.999Z</time></trkpt><trkpt lat="40.12522169664652" lon="15.778966527006292"><ele>778.0</ele><time>2026-03-22T11:55:16.999Z</time></trkpt><trkpt lat="40.124999217104616" lon="15.779325228093372"><ele>778.0</ele><time>2026-03-22T11:55:18Z</time></trkpt><trkpt lat="40.12477982325266" lon="15.779667274618287"><ele>774.0</ele><time>2026-03-22T11:55:19Z</time></trkpt><trkpt lat="40.12456000926487" lon="15.780008842492974"><ele>770.0</ele><time>2026-03-22T11:55:20Z</time></trkpt><trkpt lat="40.12434030909675" lon="15.780350758411688"><ele>778.5</ele><time>2026-03-22T11:55:21Z</time></trkpt><trkpt lat="40.12412078613339" lon="15.780695457046075"><ele>787.0</ele><time>2026-03-22T11:55:22Z</time></trkpt><trkpt lat="40.1239018690505" lon="15.781035970353665"><ele>790.0</ele><time>2026-03-22T11:55:23Z</time></trkpt><trkpt lat="40.12368049151" lon="15.781371711343713"><ele>793.0</ele><time>2026-03-22T11:55:24Z</time></trkpt><trkpt lat="40.12345557049167" lon="15.781699478697275"><ele>797.0</ele><time>2026-03-22T11:55:25Z</time></trkpt><trkpt lat="40.123224964414675" lon="15.782017526615704"><ele>801.0</ele><time>2026-03-22T11:55:26Z</time></trkpt><trkpt lat="40.12298571608644" lon="15.782318883716155"><ele>801.0</ele><time>2026-03-22T11:55:27Z</time></trkpt><trkpt lat="40.12273521268716" lon="15.782605890862145"><ele>801.0</ele><time>2026-03-22T11:55:28Z</time></trkpt><trkpt lat="40.12247383546861" lon="15.782871965099085"><ele>800.5</ele><time>2026-03-22T11:55:29Z</time></trkpt><trkpt lat="40.12220126848733" lon="15.78311624356702"><ele>800.0</ele><time>2026-03-22T11:55:30Z</time></trkpt><trkpt lat="40.12192471374015" lon="15.783336551532788"><ele>806.0</ele><time>2026-03-22T11:55:31Z</time></trkpt><trkpt lat="40.121650220199975" lon="15.78352986761099"><ele>812.0</ele><time>2026-03-22T11:55:32Z</time></trkpt><trkpt lat="40.12137487280177" lon="15.783705721561411"><ele>812.0</ele><time>2026-03-22T11:55:33Z</time></trkpt><trkpt lat="40.121090929410194" lon="15.783860951586288"><ele>812.0</ele><time>2026-03-22T11:55:34Z</time></trkpt><trkpt lat="40.120798123674426" lon="15.783990767687534"><ele>812.0</ele><time>2026-03-22T11:55:35Z</time></trkpt><trkpt lat="40.12049259211846" lon="15.784098860200945"><ele>812.0</ele><time>2026-03-22T11:55:36Z</time></trkpt><trkpt lat="40.120178083086095" lon="15.784185450742415"><ele>812.0</ele><time>2026-03-22T11:55:37Z</time></trkpt><trkpt lat="40.11985884877871" lon="15.784259045820436"><ele>812.0</ele><time>2026-03-22T11:55:38Z</time></trkpt><trkpt lat="40.11953349665895" lon="15.784326254368723"><ele>820.5</ele><time>2026-03-22T11:55:39Z</time></trkpt><trkpt lat="40.11920405030827" lon="15.784385280584146"><ele>829.0</ele><time>2026-03-22T11:55:40Z</time></trkpt><trkpt lat="40.11887366012769" lon="15.784437658894102"><ele>829.0</ele><time>2026-03-22T11:55:41Z</time></trkpt><trkpt lat="40.11854220870769" lon="15.784489753390346"><ele>829.0</ele><time>2026-03-22T11:55:42Z</time></trkpt><trkpt lat="40.11820799378703" lon="15.784545040642223"><ele>827.0</ele><time>2026-03-22T11:55:43Z</time></trkpt><trkpt lat="40.1178642820823" lon="15.784603949664513"><ele>825.0</ele><time>2026-03-22T11:55:44Z</time></trkpt><trkpt lat="40.11751757837809" lon="15.784669929824547"><ele>828.5</ele><time>2026-03-22T11:55:45Z</time></trkpt><trkpt lat="40.11716966159641" lon="15.784744946086944"><ele>832.0</ele><time>2026-03-22T11:55:46Z</time></trkpt><trkpt lat="40.116820661841665" lon="15.78483285360956"><ele>831.0</ele><time>2026-03-22T11:55:47Z</time></trkpt><trkpt lat="40.116471466118725" lon="15.784933239279964"><ele>830.0</ele><time>2026-03-22T11:55:48Z</time></trkpt><trkpt lat="40.11612380983074" lon="15.785050612369893"><ele>829.5</ele><time>2026-03-22T11:55:49Z</time></trkpt><trkpt lat="40.11578106980526" lon="15.785190704528253"><ele>829.0</ele><time>2026-03-22T11:55:50Z</time></trkpt><trkpt lat="40.11544371138219" lon="15.785355700543045"><ele>829.0</ele><time>2026-03-22T11:55:51Z</time></trkpt><trkpt lat="40.115113062761694" lon="15.785542888560125"><ele>829.0</ele><time>2026-03-22T11:55:52Z</time></trkpt><trkpt lat="40.11479119285126" lon="15.78574978341851"><ele>830.0</ele><time>2026-03-22T11:55:53Z</time></trkpt><trkpt lat="40.114476605329436" lon="15.785981125750713"><ele>831.0</ele><time>2026-03-22T11:55:54Z</time></trkpt><trkpt lat="40.114170716812446" lon="15.786234301063388"><ele>838.5</ele><time>2026-03-22T11:55:55Z</time></trkpt><trkpt lat="40.113875147590505" lon="15.786505507871984"><ele>846.0</ele><time>2026-03-22T11:55:56Z</time></trkpt><trkpt lat="40.11358744582836" lon="15.786793962162333"><ele>850.5</ele><time>2026-03-22T11:55:57Z</time></trkpt><trkpt lat="40.11330840514767" lon="15.787101562286983"><ele>855.0</ele><time>2026-03-22T11:55:58Z</time></trkpt><trkpt lat="40.11304218932092" lon="15.787424161951861"><ele>863.5</ele><time>2026-03-22T11:55:59Z</time></trkpt><trkpt lat="40.11278986604184" lon="15.787762067118184"><ele>872.0</ele><time>2026-03-22T11:56:00Z</time></trkpt><trkpt lat="40.11255144177175" lon="15.788115282994525"><ele>864.5</ele><time>2026-03-22T11:56:01Z</time></trkpt><trkpt lat="40.11232330389053" lon="15.788479747917323"><ele>857.0</ele><time>2026-03-22T11:56:02Z</time></trkpt><trkpt lat="40.11210284103746" lon="15.788853125531297"><ele>857.0</ele><time>2026-03-22T11:56:03Z</time></trkpt><trkpt lat="40.11186855592988" lon="15.78925783760591"><ele>857.0</ele><time>2026-03-22T11:56:04.071Z</time></trkpt><trkpt lat="40.11165086360438" lon="15.789634772767641"><ele>854.5</ele><time>2026-03-22T11:56:05.068Z</time></trkpt><trkpt lat="40.1114326092913" lon="15.790011061455997"><ele>852.0</ele><time>2026-03-22T11:56:06.065Z</time></trkpt><trkpt lat="40.110079338895964" lon="15.79174485320535"><ele>852.5</ele><time>2026-03-22T11:56:10.999Z</time></trkpt><trkpt lat="40.1098332529894" lon="15.792100202108458"><ele>853.0</ele><time>2026-03-22T11:56:11.999Z</time></trkpt><trkpt lat="40.10965531923444" lon="15.792514699655777"><ele>857.0</ele><time>2026-03-22T11:56:12.999Z</time></trkpt><trkpt lat="40.10939922053498" lon="15.792864193905633"><ele>861.0</ele><time>2026-03-22T11:56:13.999Z</time></trkpt><trkpt lat="40.10912321297564" lon="15.793161574592904"><ele>859.5</ele><time>2026-03-22T11:56:14.999Z</time></trkpt><trkpt lat="40.10882093173622" lon="15.7934257607916"><ele>858.0</ele><time>2026-03-22T11:56:15.999Z</time></trkpt><trkpt lat="40.10855661196954" lon="15.793657086713731"><ele>855.0</ele><time>2026-03-22T11:56:16.999Z</time></trkpt><trkpt lat="40.10823917200251" lon="15.793883308517138"><ele>852.0</ele><time>2026-03-22T11:56:17.999Z</time></trkpt><trkpt lat="40.10791433166085" lon="15.794089362649153"><ele>852.0</ele><time>2026-03-22T11:56:18.999Z</time></trkpt><trkpt lat="40.107582725957194" lon="15.794280523851334"><ele>852.0</ele><time>2026-03-22T11:56:19.999Z</time></trkpt><trkpt lat="40.10724685213017" lon="15.794461516615153"><ele>860.5</ele><time>2026-03-22T11:56:20.999Z</time></trkpt><trkpt lat="40.10691002587343" lon="15.794633796865899"><ele>869.0</ele><time>2026-03-22T11:56:21.999Z</time></trkpt><trkpt lat="40.10657327517773" lon="15.794802083264415"><ele>870.0</ele><time>2026-03-22T11:56:22.999Z</time></trkpt><trkpt lat="40.10623297275351" lon="15.794973404901844"><ele>871.0</ele><time>2026-03-22T11:56:23.999Z</time></trkpt><trkpt lat="40.10589387806036" lon="15.795150627143968"><ele>873.0</ele><time>2026-03-22T11:56:24.999Z</time></trkpt><trkpt lat="40.10555677492802" lon="15.795333680733231"><ele>875.0</ele><time>2026-03-22T11:56:25.999Z</time></trkpt><trkpt lat="40.10522288756614" lon="15.795527740692137"><ele>873.5</ele><time>2026-03-22T11:56:26.999Z</time></trkpt><trkpt lat="40.10489578017037" lon="15.795736398187568"><ele>872.0</ele><time>2026-03-22T11:56:27.999Z</time></trkpt><trkpt lat="40.10457702377299" lon="15.795961419534443"><ele>873.5</ele><time>2026-03-22T11:56:28.999Z</time></trkpt><trkpt lat="40.10426465430829" lon="15.796199613299192"><ele>875.0</ele><time>2026-03-22T11:56:29.999Z</time></trkpt><trkpt lat="40.103961886667506" lon="15.796454785844707"><ele>875.0</ele><time>2026-03-22T11:56:30.999Z</time></trkpt><trkpt lat="40.10366951533443" lon="15.796724986365922"><ele>875.0</ele><time>2026-03-22T11:56:31.999Z</time></trkpt><trkpt lat="40.10338337511148" lon="15.79700727564168"><ele>877.0</ele><time>2026-03-22T11:56:32.999Z</time></trkpt><trkpt lat="40.10310454645308" lon="15.797304674939253"><ele>879.0</ele><time>2026-03-22T11:56:33.999Z</time></trkpt><trkpt lat="40.102835892535346" lon="15.797617756064785"><ele>885.5</ele><time>2026-03-22T11:56:34.999Z</time></trkpt><trkpt lat="40.10257738433752" lon="15.797943076287877"><ele>892.0</ele><time>2026-03-22T11:56:35.999Z</time></trkpt><trkpt lat="40.10232938556001" lon="15.798282566475443"><ele>897.5</ele><time>2026-03-22T11:56:36.999Z</time></trkpt><trkpt lat="40.102092999993054" lon="15.798637240010045"><ele>903.0</ele><time>2026-03-22T11:56:37.999Z</time></trkpt><trkpt lat="40.10186843479319" lon="15.799001680395621"><ele>903.5</ele><time>2026-03-22T11:56:38.999Z</time></trkpt><trkpt lat="40.10165218490509" lon="15.7993775544191"><ele>904.0</ele><time>2026-03-22T11:56:39.999Z</time></trkpt><trkpt lat="40.10144603244734" lon="15.79976216846861"><ele>900.5</ele><time>2026-03-22T11:56:40.999Z</time></trkpt><trkpt lat="40.10125173585067" lon="15.800159083319828"><ele>897.0</ele><time>2026-03-22T11:56:41.999Z</time></trkpt><trkpt lat="40.10106501155681" lon="15.800564248694654"><ele>896.0</ele><time>2026-03-22T11:56:42.999Z</time></trkpt><trkpt lat="40.10088666654723" lon="15.800976199785799"><ele>895.0</ele><time>2026-03-22T11:56:43.999Z</time></trkpt><trkpt lat="40.1007103493644" lon="15.801392982783355"><ele>889.5</ele><time>2026-03-22T11:56:44.999Z</time></trkpt><trkpt lat="40.10053277567555" lon="15.80181047301728"><ele>884.0</ele><time>2026-03-22T11:56:45.999Z</time></trkpt><trkpt lat="40.10035415117485" lon="15.802230342229365"><ele>884.0</ele><time>2026-03-22T11:56:46.999Z</time></trkpt><trkpt lat="40.10017598611921" lon="15.802649320017343"><ele>884.0</ele><time>2026-03-22T11:56:47.999Z</time></trkpt><trkpt lat="40.099998922631066" lon="15.803067283213798"><ele>886.5</ele><time>2026-03-22T11:56:48.999Z</time></trkpt><trkpt lat="40.09982253494747" lon="15.803487132004117"><ele>889.0</ele><time>2026-03-22T11:56:49.999Z</time></trkpt><trkpt lat="40.09964827983578" lon="15.803909574634298"><ele>918.5</ele><time>2026-03-22T11:56:50.999Z</time></trkpt><trkpt lat="40.099474704208276" lon="15.804333770163051"><ele>948.0</ele><time>2026-03-22T11:56:51.999Z</time></trkpt><trkpt lat="40.09930053593406" lon="15.804759115978024"><ele>958.0</ele><time>2026-03-22T11:56:52.999Z</time></trkpt><trkpt lat="40.09912601447371" lon="15.805184041136288"><ele>968.0</ele><time>2026-03-22T11:56:53.999Z</time></trkpt><trkpt lat="40.09895083318966" lon="15.805610615317244"><ele>947.5</ele><time>2026-03-22T11:56:54.999Z</time></trkpt><trkpt lat="40.09876388848089" lon="15.806066296533224"><ele>927.0</ele><time>2026-03-22T11:56:56.064Z</time></trkpt><trkpt lat="40.09858886847646" lon="15.8064940355869"><ele>854.0</ele><time>2026-03-22T11:56:57.063Z</time></trkpt><trkpt lat="40.0973825" lon="15.8091371"><ele>864.0</ele><time>2026-03-22T11:57:01.259Z</time></trkpt><trkpt lat="40.09708869119982" lon="15.809853444731955"><ele>868.0</ele><time>2026-03-22T11:57:04.999Z</time></trkpt><trkpt lat="40.0969446711711" lon="15.810296829252572"><ele>872.0</ele><time>2026-03-22T11:57:05.999Z</time></trkpt><trkpt lat="40.09672610704513" lon="15.810726515845134"><ele>871.0</ele><time>2026-03-22T11:57:06.999Z</time></trkpt><trkpt lat="40.096529566696205" lon="15.81115825189125"><ele>870.0</ele><time>2026-03-22T11:57:07.999Z</time></trkpt><trkpt lat="40.09636947242814" lon="15.81158434677277"><ele>869.5</ele><time>2026-03-22T11:57:08.999Z</time></trkpt><trkpt lat="40.096195857381645" lon="15.812013277694199"><ele>869.0</ele><time>2026-03-22T11:57:09.999Z</time></trkpt><trkpt lat="40.096023616852484" lon="15.812433720197797"><ele>868.0</ele><time>2026-03-22T11:57:10.999Z</time></trkpt><trkpt lat="40.09584566947831" lon="15.812851548383247"><ele>867.0</ele><time>2026-03-22T11:57:11.999Z</time></trkpt><trkpt lat="40.09566823856694" lon="15.813269348762635"><ele>870.0</ele><time>2026-03-22T11:57:12.999Z</time></trkpt><trkpt lat="40.095493983823495" lon="15.813687649646708"><ele>873.0</ele><time>2026-03-22T11:57:13.999Z</time></trkpt><trkpt lat="40.09531588896433" lon="15.814105934752837"><ele>873.5</ele><time>2026-03-22T11:57:14.999Z</time></trkpt><trkpt lat="40.0951361919573" lon="15.814521132725986"><ele>874.0</ele><time>2026-03-22T11:57:15.999Z</time></trkpt><trkpt lat="40.094964035584724" lon="15.814940117787199"><ele>864.5</ele><time>2026-03-22T11:57:16.999Z</time></trkpt><trkpt lat="40.094803355817675" lon="15.815362264611833"><ele>855.0</ele><time>2026-03-22T11:57:17.999Z</time></trkpt><trkpt lat="40.09465570181045" lon="15.815791886498278"><ele>854.5</ele><time>2026-03-22T11:57:18.999Z</time></trkpt><trkpt lat="40.09452076242736" lon="15.816229544860564"><ele>854.0</ele><time>2026-03-22T11:57:19.999Z</time></trkpt><trkpt lat="40.09439390132544" lon="15.816669061936674"><ele>858.5</ele><time>2026-03-22T11:57:20.999Z</time></trkpt><trkpt lat="40.094265282314396" lon="15.817113100735893"><ele>863.0</ele><time>2026-03-22T11:57:21.999Z</time></trkpt><trkpt lat="40.094135759756504" lon="15.817555138285487"><ele>857.0</ele><time>2026-03-22T11:57:22.999Z</time></trkpt><trkpt lat="40.09400372134415" lon="15.81799956568544"><ele>851.0</ele><time>2026-03-22T11:57:24Z</time></trkpt><trkpt lat="40.093872887743686" lon="15.818437704056747"><ele>855.5</ele><time>2026-03-22T11:57:25Z</time></trkpt><trkpt lat="40.09373886358647" lon="15.818874701925276"><ele>860.0</ele><time>2026-03-22T11:57:26Z</time></trkpt><trkpt lat="40.09360430607849" lon="15.819312597746562"><ele>862.5</ele><time>2026-03-22T11:57:27Z</time></trkpt><trkpt lat="40.09347071078706" lon="15.819752111582476"><ele>865.0</ele><time>2026-03-22T11:57:28Z</time></trkpt><trkpt lat="40.0933407936414" lon="15.820189609080588"><ele>864.0</ele><time>2026-03-22T11:57:29Z</time></trkpt><trkpt lat="40.093215208265576" lon="15.820629154940676"><ele>863.0</ele><time>2026-03-22T11:57:30Z</time></trkpt><trkpt lat="40.09309612744818" lon="15.821069161995549"><ele>863.0</ele><time>2026-03-22T11:57:31Z</time></trkpt><trkpt lat="40.09298987289627" lon="15.821513696484466"><ele>863.0</ele><time>2026-03-22T11:57:32Z</time></trkpt><trkpt lat="40.09290173099317" lon="15.82196442888607"><ele>873.5</ele><time>2026-03-22T11:57:33Z</time></trkpt><trkpt lat="40.09284127482054" lon="15.822420635300942"><ele>884.0</ele><time>2026-03-22T11:57:34Z</time></trkpt><trkpt lat="40.09281310938182" lon="15.822880667896408"><ele>883.0</ele><time>2026-03-22T11:57:35Z</time></trkpt><trkpt lat="40.09281777254327" lon="15.823343237886405"><ele>882.0</ele><time>2026-03-22T11:57:36Z</time></trkpt><trkpt lat="40.09285259044617" lon="15.82380098590998"><ele>882.0</ele><time>2026-03-22T11:57:37Z</time></trkpt><trkpt lat="40.092916789050605" lon="15.824250248578965"><ele>882.0</ele><time>2026-03-22T11:57:38Z</time></trkpt><trkpt lat="40.093008682092616" lon="15.824684990543444"><ele>880.0</ele><time>2026-03-22T11:57:39Z</time></trkpt><trkpt lat="40.093103564799634" lon="15.825126515781422"><ele>878.0</ele><time>2026-03-22T11:57:40Z</time></trkpt><trkpt lat="40.09321209459768" lon="15.825572005010876"><ele>883.5</ele><time>2026-03-22T11:57:41Z</time></trkpt><trkpt lat="40.09332729528636" lon="15.826017337345487"><ele>889.0</ele><time>2026-03-22T11:57:42Z</time></trkpt><trkpt lat="40.093439955960356" lon="15.82647122350586"><ele>888.0</ele><time>2026-03-22T11:57:43Z</time></trkpt><trkpt lat="40.09354939749281" lon="15.826926384318483"><ele>887.0</ele><time>2026-03-22T11:57:44Z</time></trkpt><trkpt lat="40.09364921102125" lon="15.82738578277147"><ele>886.5</ele><time>2026-03-22T11:57:45Z</time></trkpt><trkpt lat="40.09372999841583" lon="15.827847461696875"><ele>886.0</ele><time>2026-03-22T11:57:46Z</time></trkpt><trkpt lat="40.09378682685045" lon="15.828312636562893"><ele>885.0</ele><time>2026-03-22T11:57:47Z</time></trkpt><trkpt lat="40.09381852844222" lon="15.828778259859048"><ele>884.0</ele><time>2026-03-22T11:57:48Z</time></trkpt><trkpt lat="40.0938196064436" lon="15.829243205251402"><ele>887.0</ele><time>2026-03-22T11:57:49Z</time></trkpt><trkpt lat="40.09380223315608" lon="15.829708618064991"><ele>890.0</ele><time>2026-03-22T11:57:50Z</time></trkpt><trkpt lat="40.093759927091796" lon="15.830171622599854"><ele>894.0</ele><time>2026-03-22T11:57:51Z</time></trkpt><trkpt lat="40.093697950383884" lon="15.83063033185668"><ele>898.0</ele><time>2026-03-22T11:57:52Z</time></trkpt><trkpt lat="40.0936106117074" lon="15.831086546146754"><ele>903.5</ele><time>2026-03-22T11:57:53Z</time></trkpt><trkpt lat="40.09350183585326" lon="15.831532429783504"><ele>909.0</ele><time>2026-03-22T11:57:54Z</time></trkpt><trkpt lat="40.09336926421335" lon="15.831967237390977"><ele>911.5</ele><time>2026-03-22T11:57:55Z</time></trkpt><trkpt lat="40.09321186711223" lon="15.832382069338966"><ele>914.0</ele><time>2026-03-22T11:57:56Z</time></trkpt><trkpt lat="40.0930316941115" lon="15.83278156575794"><ele>915.0</ele><time>2026-03-22T11:57:57Z</time></trkpt><trkpt lat="40.09283107236808" lon="15.83316601966533"><ele>916.0</ele><time>2026-03-22T11:57:58Z</time></trkpt><trkpt lat="40.09261069781284" lon="15.833534091876247"><ele>912.0</ele><time>2026-03-22T11:57:59Z</time></trkpt><trkpt lat="40.09237435951534" lon="15.833887097504697"><ele>908.0</ele><time>2026-03-22T11:58:00Z</time></trkpt><trkpt lat="40.0921264717495" lon="15.834227513622334"><ele>908.5</ele><time>2026-03-22T11:58:01Z</time></trkpt><trkpt lat="40.091873325408976" lon="15.834565092838599"><ele>909.0</ele><time>2026-03-22T11:58:02Z</time></trkpt><trkpt lat="40.09161731650756" lon="15.834902248950748"><ele>908.0</ele><time>2026-03-22T11:58:03Z</time></trkpt><trkpt lat="40.09136237601822" lon="15.83524085928312"><ele>907.0</ele><time>2026-03-22T11:58:04Z</time></trkpt><trkpt lat="40.09110879307782" lon="15.835582879241361"><ele>907.0</ele><time>2026-03-22T11:58:05Z</time></trkpt><trkpt lat="40.0908570264582" lon="15.835925523678984"><ele>907.0</ele><time>2026-03-22T11:58:06Z</time></trkpt><trkpt lat="40.090603003980945" lon="15.836268959439003"><ele>910.5</ele><time>2026-03-22T11:58:07Z</time></trkpt><trkpt lat="40.090349141637496" lon="15.836610854045698"><ele>914.0</ele><time>2026-03-22T11:58:08Z</time></trkpt><trkpt lat="40.09009559361168" lon="15.836952584228444"><ele>922.0</ele><time>2026-03-22T11:58:09Z</time></trkpt><trkpt lat="40.08984720064798" lon="15.83729668964586"><ele>930.0</ele><time>2026-03-22T11:58:10Z</time></trkpt><trkpt lat="40.08959928836393" lon="15.837644112878767"><ele>936.5</ele><time>2026-03-22T11:58:11Z</time></trkpt><trkpt lat="40.089357430496555" lon="15.837998761945494"><ele>943.0</ele><time>2026-03-22T11:58:12Z</time></trkpt><trkpt lat="40.08912668568999" lon="15.838355885505061"><ele>946.5</ele><time>2026-03-22T11:58:13Z</time></trkpt><trkpt lat="40.08890470354277" lon="15.838716855842435"><ele>950.0</ele><time>2026-03-22T11:58:13.999Z</time></trkpt><trkpt lat="40.0886904982652" lon="15.839086554504844"><ele>950.5</ele><time>2026-03-22T11:58:14.999Z</time></trkpt><trkpt lat="40.0884612338296" lon="15.839444908034995"><ele>951.0</ele><time>2026-03-22T11:58:15.999Z</time></trkpt><trkpt lat="40.08827205110945" lon="15.839840687506417"><ele>951.5</ele><time>2026-03-22T11:58:16.999Z</time></trkpt><trkpt lat="40.088069327054754" lon="15.840224154585608"><ele>952.0</ele><time>2026-03-22T11:58:17.999Z</time></trkpt><trkpt lat="40.087865794164784" lon="15.840616336237732"><ele>955.0</ele><time>2026-03-22T11:58:18.999Z</time></trkpt><trkpt lat="40.08766926263184" lon="15.84104411192615"><ele>958.0</ele><time>2026-03-22T11:58:19.999Z</time></trkpt><trkpt lat="40.08749209465644" lon="15.841467342307675"><ele>950.0</ele><time>2026-03-22T11:58:20.999Z</time></trkpt><trkpt lat="40.087313169698874" lon="15.841883407359473"><ele>942.0</ele><time>2026-03-22T11:58:21.999Z</time></trkpt><trkpt lat="40.08713668065321" lon="15.842299546282076"><ele>946.0</ele><time>2026-03-22T11:58:22.999Z</time></trkpt><trkpt lat="40.08696211485408" lon="15.842718582370072"><ele>950.0</ele><time>2026-03-22T11:58:23.999Z</time></trkpt><trkpt lat="40.08678781203964" lon="15.843141630363121"><ele>952.0</ele><time>2026-03-22T11:58:24.999Z</time></trkpt><trkpt lat="40.08661408507505" lon="15.84356487353877"><ele>954.0</ele><time>2026-03-22T11:58:25.999Z</time></trkpt><trkpt lat="40.08644008092935" lon="15.843988598439072"><ele>952.5</ele><time>2026-03-22T11:58:26.999Z</time></trkpt><trkpt lat="40.08626516006479" lon="15.844412677047172"><ele>951.0</ele><time>2026-03-22T11:58:27.999Z</time></trkpt><trkpt lat="40.08609002691102" lon="15.844835822865356"><ele>949.0</ele><time>2026-03-22T11:58:28.999Z</time></trkpt><trkpt lat="40.08591472725617" lon="15.845262074856048"><ele>947.0</ele><time>2026-03-22T11:58:29.999Z</time></trkpt><trkpt lat="40.08574127398453" lon="15.845686806277898"><ele>937.0</ele><time>2026-03-22T11:58:30.999Z</time></trkpt><trkpt lat="40.08556778633808" lon="15.84611144151909"><ele>927.0</ele><time>2026-03-22T11:58:31.999Z</time></trkpt><trkpt lat="40.08539360194284" lon="15.846536326133913"><ele>930.5</ele><time>2026-03-22T11:58:32.999Z</time></trkpt><trkpt lat="40.08522251186148" lon="15.846958919459915"><ele>934.0</ele><time>2026-03-22T11:58:33.999Z</time></trkpt><trkpt lat="40.08505216869206" lon="15.84738183355392"><ele>932.5</ele><time>2026-03-22T11:58:34.999Z</time></trkpt><trkpt lat="40.08488252210097" lon="15.847802760371295"><ele>931.0</ele><time>2026-03-22T11:58:35.999Z</time></trkpt><trkpt lat="40.08471298734322" lon="15.84822449223824"><ele>934.0</ele><time>2026-03-22T11:58:36.999Z</time></trkpt><trkpt lat="40.08454057545764" lon="15.84864657776151"><ele>937.0</ele><time>2026-03-22T11:58:37.999Z</time></trkpt><trkpt lat="40.08436486448927" lon="15.84906627989321"><ele>936.5</ele><time>2026-03-22T11:58:38.999Z</time></trkpt><trkpt lat="40.08418635435217" lon="15.849485912187516"><ele>936.0</ele><time>2026-03-22T11:58:39.999Z</time></trkpt><trkpt lat="40.08400453082138" lon="15.84990125197579"><ele>937.5</ele><time>2026-03-22T11:58:40.999Z</time></trkpt><trkpt lat="40.08381853657333" lon="15.85030749377923"><ele>939.0</ele><time>2026-03-22T11:58:41.999Z</time></trkpt><trkpt lat="40.08362243341" lon="15.85070666491527"><ele>936.5</ele><time>2026-03-22T11:58:42.999Z</time></trkpt><trkpt lat="40.08340518614157" lon="15.851085874523246"><ele>934.0</ele><time>2026-03-22T11:58:43.999Z</time></trkpt><trkpt lat="40.083188338625824" lon="15.851460683976626"><ele>923.0</ele><time>2026-03-22T11:58:44.999Z</time></trkpt><trkpt lat="40.082962543817146" lon="15.85182416398083"><ele>912.0</ele><time>2026-03-22T11:58:45.999Z</time></trkpt><trkpt lat="40.08273176645361" lon="15.852188124569953"><ele>912.0</ele><time>2026-03-22T11:58:46.999Z</time></trkpt><trkpt lat="40.082501791344185" lon="15.85255271910698"><ele>912.0</ele><time>2026-03-22T11:58:47.999Z</time></trkpt><trkpt lat="40.08227948091408" lon="15.852928409904264"><ele>911.0</ele><time>2026-03-22T11:58:48.999Z</time></trkpt><trkpt lat="40.08203964594" lon="15.853285986572434"><ele>910.0</ele><time>2026-03-22T11:58:49.999Z</time></trkpt><trkpt lat="40.08179013395095" lon="15.853631188991361"><ele>900.5</ele><time>2026-03-22T11:58:50.999Z</time></trkpt><trkpt lat="40.08153107355711" lon="15.853958482113836"><ele>891.0</ele><time>2026-03-22T11:58:51.999Z</time></trkpt><trkpt lat="40.08125781398211" lon="15.854267509989842"><ele>890.5</ele><time>2026-03-22T11:58:52.999Z</time></trkpt><trkpt lat="40.08096865393654" lon="15.854551254139315"><ele>890.0</ele><time>2026-03-22T11:58:53.999Z</time></trkpt><trkpt lat="40.08066709461185" lon="15.854806715062125"><ele>890.0</ele><time>2026-03-22T11:58:54.999Z</time></trkpt><trkpt lat="40.08035552764438" lon="15.855036050307932"><ele>890.0</ele><time>2026-03-22T11:58:55.999Z</time></trkpt><trkpt lat="40.08003348420715" lon="15.85523995344341"><ele>895.5</ele><time>2026-03-22T11:58:56.999Z</time></trkpt><trkpt lat="40.07970240466241" lon="15.855419020164465"><ele>901.0</ele><time>2026-03-22T11:58:57.999Z</time></trkpt><trkpt lat="40.07936467116414" lon="15.855577084092795"><ele>900.5</ele><time>2026-03-22T11:58:58.999Z</time></trkpt><trkpt lat="40.07902046872392" lon="15.85572703048922"><ele>900.0</ele><time>2026-03-22T11:58:59.999Z</time></trkpt><trkpt lat="40.07867478818341" lon="15.855872166643028"><ele>900.5</ele><time>2026-03-22T11:59:00.999Z</time></trkpt><trkpt lat="40.078328319110234" lon="15.856023118800179"><ele>901.0</ele><time>2026-03-22T11:59:01.999Z</time></trkpt><trkpt lat="40.07798146533991" lon="15.856180680954264"><ele>901.0</ele><time>2026-03-22T11:59:02.999Z</time></trkpt><trkpt lat="40.07763818948908" lon="15.85635191060583"><ele>901.0</ele><time>2026-03-22T11:59:03.999Z</time></trkpt><trkpt lat="40.077305063284676" lon="15.856545762845903"><ele>897.5</ele><time>2026-03-22T11:59:04.999Z</time></trkpt><trkpt lat="40.076983895694866" lon="15.856765558459436"><ele>894.0</ele><time>2026-03-22T11:59:05.999Z</time></trkpt><trkpt lat="40.07667735366922" lon="15.857011875408466"><ele>889.5</ele><time>2026-03-22T11:59:06.999Z</time></trkpt><trkpt lat="40.076385705299536" lon="15.85728550946587"><ele>885.0</ele><time>2026-03-22T11:59:07.999Z</time></trkpt><trkpt lat="40.07610684757331" lon="15.857582346504747"><ele>882.5</ele><time>2026-03-22T11:59:08.999Z</time></trkpt><trkpt lat="40.07584512428796" lon="15.857902435934571"><ele>880.0</ele><time>2026-03-22T11:59:09.999Z</time></trkpt><trkpt lat="40.0756004761431" lon="15.858247899299691"><ele>868.5</ele><time>2026-03-22T11:59:10.999Z</time></trkpt><trkpt lat="40.07537224417975" lon="15.858610183120398"><ele>857.0</ele><time>2026-03-22T11:59:11.999Z</time></trkpt><trkpt lat="40.07516174460409" lon="15.858991501055174"><ele>851.0</ele><time>2026-03-22T11:59:12.999Z</time></trkpt><trkpt lat="40.07496634703251" lon="15.859387745437111"><ele>845.0</ele><time>2026-03-22T11:59:13.999Z</time></trkpt><trkpt lat="40.074776092671605" lon="15.85979076934688"><ele>846.0</ele><time>2026-03-22T11:59:14.999Z</time></trkpt><trkpt lat="40.07458716731844" lon="15.860198421963322"><ele>847.0</ele><time>2026-03-22T11:59:15.999Z</time></trkpt><trkpt lat="40.07439961166322" lon="15.860607905758634"><ele>848.0</ele><time>2026-03-22T11:59:16.999Z</time></trkpt><trkpt lat="40.07420983118261" lon="15.861015662039005"><ele>849.0</ele><time>2026-03-22T11:59:17.999Z</time></trkpt><trkpt lat="40.074020253096506" lon="15.861422616106601"><ele>853.0</ele><time>2026-03-22T11:59:18.999Z</time></trkpt><trkpt lat="40.073832372437224" lon="15.861829704896165"><ele>857.0</ele><time>2026-03-22T11:59:19.999Z</time></trkpt><trkpt lat="40.07364340451109" lon="15.862235839301675"><ele>859.0</ele><time>2026-03-22T11:59:20.999Z</time></trkpt><trkpt lat="40.073455605774505" lon="15.862641157529204"><ele>861.0</ele><time>2026-03-22T11:59:21.999Z</time></trkpt><trkpt lat="40.07326800685976" lon="15.863045640720802"><ele>856.5</ele><time>2026-03-22T11:59:22.999Z</time></trkpt><trkpt lat="40.07308210729482" lon="15.86345017663954"><ele>852.0</ele><time>2026-03-22T11:59:23.999Z</time></trkpt><trkpt lat="40.07289704183629" lon="15.863854875264352"><ele>852.0</ele><time>2026-03-22T11:59:24.999Z</time></trkpt><trkpt lat="40.072710605658294" lon="15.864257498912023"><ele>852.0</ele><time>2026-03-22T11:59:25.999Z</time></trkpt><trkpt lat="40.07252320847807" lon="15.86466363178355"><ele>854.0</ele><time>2026-03-22T11:59:26.999Z</time></trkpt><trkpt lat="40.072331641729605" lon="15.865064517580455"><ele>856.0</ele><time>2026-03-22T11:59:27.999Z</time></trkpt><trkpt lat="40.07213405596707" lon="15.865456571035422"><ele>859.5</ele><time>2026-03-22T11:59:28.999Z</time></trkpt><trkpt lat="40.071924598036226" lon="15.865839628788097"><ele>863.0</ele><time>2026-03-22T11:59:30Z</time></trkpt><trkpt lat="40.07170179685718" lon="15.866210810892142"><ele>864.5</ele><time>2026-03-22T11:59:31Z</time></trkpt><trkpt lat="40.07146830056447" lon="15.866568327232116"><ele>866.0</ele><time>2026-03-22T11:59:32Z</time></trkpt><trkpt lat="40.07122294225674" lon="15.86691112880086"><ele>866.0</ele><time>2026-03-22T11:59:33Z</time></trkpt><trkpt lat="40.07096455433091" lon="15.867237642656024"><ele>866.0</ele><time>2026-03-22T11:59:34Z</time></trkpt><trkpt lat="40.07069105997976" lon="15.867543820456188"><ele>867.5</ele><time>2026-03-22T11:59:35Z</time></trkpt><trkpt lat="40.07040387459914" lon="15.867830552723996"><ele>869.0</ele><time>2026-03-22T11:59:36Z</time></trkpt><trkpt lat="40.07010386825933" lon="15.868096230761804"><ele>870.5</ele><time>2026-03-22T11:59:37Z</time></trkpt><trkpt lat="40.06979211161077" lon="15.868342538671925"><ele>872.0</ele><time>2026-03-22T11:59:38Z</time></trkpt><trkpt lat="40.06946899151991" lon="15.86856693613999"><ele>877.5</ele><time>2026-03-22T11:59:39Z</time></trkpt><trkpt lat="40.069137159420684" lon="15.868769446158028"><ele>883.0</ele><time>2026-03-22T11:59:40Z</time></trkpt><trkpt lat="40.068797579696636" lon="15.868945605942246"><ele>883.0</ele><time>2026-03-22T11:59:41Z</time></trkpt><trkpt lat="40.06845154362513" lon="15.869094832146743"><ele>883.0</ele><time>2026-03-22T11:59:42Z</time></trkpt><trkpt lat="40.068100360992545" lon="15.869216787788988"><ele>886.0</ele><time>2026-03-22T11:59:43Z</time></trkpt><trkpt lat="40.06774578050605" lon="15.869311635352798"><ele>889.0</ele><time>2026-03-22T11:59:44Z</time></trkpt><trkpt lat="40.067389135022" lon="15.869380875743515"><ele>892.5</ele><time>2026-03-22T11:59:45Z</time></trkpt><trkpt lat="40.067031200297805" lon="15.86942391697101"><ele>896.0</ele><time>2026-03-22T11:59:46Z</time></trkpt><trkpt lat="40.06667355211725" lon="15.869458134722123"><ele>908.0</ele><time>2026-03-22T11:59:47Z</time></trkpt><trkpt lat="40.066307625680416" lon="15.869476414793906"><ele>920.0</ele><time>2026-03-22T11:59:48Z</time></trkpt><trkpt lat="40.06600521498948" lon="15.869434988947898"><ele>947.5</ele><time>2026-03-22T11:59:49Z</time></trkpt><trkpt lat="40.0657069546613" lon="15.869382347959693"><ele>975.0</ele><time>2026-03-22T11:59:50Z</time></trkpt><trkpt lat="40.06540044442764" lon="15.869317544556903"><ele>718.0</ele><time>2026-03-22T11:59:51.045Z</time></trkpt><trkpt lat="40.037113648889765" lon="15.872982600176464"><ele>718.0</ele><time>2026-03-22T12:01:11.999Z</time></trkpt><trkpt lat="40.03683384627751" lon="15.873150405154028"><ele>718.0</ele><time>2026-03-22T12:01:12.999Z</time></trkpt><trkpt lat="40.0364973486037" lon="15.873319138618832"><ele>720.5</ele><time>2026-03-22T12:01:13.999Z</time></trkpt><trkpt lat="40.03615497096616" lon="15.873482248726251"><ele>723.0</ele><time>2026-03-22T12:01:14.999Z</time></trkpt><trkpt lat="40.03581566946989" lon="15.87364483703286"><ele>729.5</ele><time>2026-03-22T12:01:15.999Z</time></trkpt><trkpt lat="40.03547340979627" lon="15.87379745689679"><ele>736.0</ele><time>2026-03-22T12:01:16.999Z</time></trkpt><trkpt lat="40.03512786441938" lon="15.873933867199225"><ele>745.5</ele><time>2026-03-22T12:01:17.999Z</time></trkpt><trkpt lat="40.03477971022928" lon="15.874057178709663"><ele>755.0</ele><time>2026-03-22T12:01:18.999Z</time></trkpt><trkpt lat="40.03443125080872" lon="15.87416239139514"><ele>761.0</ele><time>2026-03-22T12:01:19.999Z</time></trkpt><trkpt lat="40.03407733997726" lon="15.874254938004668"><ele>767.0</ele><time>2026-03-22T12:01:20.999Z</time></trkpt><trkpt lat="40.03372219558745" lon="15.874327514760212"><ele>780.5</ele><time>2026-03-22T12:01:21.999Z</time></trkpt><trkpt lat="40.03336799297012" lon="15.874385907967369"><ele>794.0</ele><time>2026-03-22T12:01:22.999Z</time></trkpt><trkpt lat="40.03301070978827" lon="15.874424789540273"><ele>795.0</ele><time>2026-03-22T12:01:23.999Z</time></trkpt><trkpt lat="40.03264942155196" lon="15.874456608011872"><ele>796.0</ele><time>2026-03-22T12:01:24.999Z</time></trkpt><trkpt lat="40.03228442754009" lon="15.87448750608211"><ele>790.0</ele><time>2026-03-22T12:01:25.999Z</time></trkpt><trkpt lat="40.0319256160148" lon="15.874505486656904"><ele>784.0</ele><time>2026-03-22T12:01:26.999Z</time></trkpt><trkpt lat="40.031563931868384" lon="15.874533065748773"><ele>778.5</ele><time>2026-03-22T12:01:27.999Z</time></trkpt><trkpt lat="40.031202674134875" lon="15.874578319123254"><ele>773.0</ele><time>2026-03-22T12:01:28.999Z</time></trkpt><trkpt lat="40.03084227639062" lon="15.874643723114747"><ele>777.0</ele><time>2026-03-22T12:01:29.999Z</time></trkpt><trkpt lat="40.030487089068025" lon="15.874730747404174"><ele>781.0</ele><time>2026-03-22T12:01:30.999Z</time></trkpt><trkpt lat="40.030130320429706" lon="15.87483951698481"><ele>775.0</ele><time>2026-03-22T12:01:31.999Z</time></trkpt><trkpt lat="40.02977373111204" lon="15.874966719696108"><ele>769.0</ele><time>2026-03-22T12:01:32.999Z</time></trkpt><trkpt lat="40.02941610558732" lon="15.875104333320838"><ele>763.0</ele><time>2026-03-22T12:01:33.999Z</time></trkpt><trkpt lat="40.029057633930385" lon="15.875242428709177"><ele>757.0</ele><time>2026-03-22T12:01:34.999Z</time></trkpt><trkpt lat="40.02869849579048" lon="15.875377665840212"><ele>757.0</ele><time>2026-03-22T12:01:36Z</time></trkpt><trkpt lat="40.02841300914777" lon="15.875551153348935"><ele>757.0</ele><time>2026-03-22T12:01:37Z</time></trkpt><trkpt lat="40.028071917963395" lon="15.875774138466749"><ele>757.0</ele><time>2026-03-22T12:01:38Z</time></trkpt><trkpt lat="40.027769464699546" lon="15.876025413721807"><ele>757.0</ele><time>2026-03-22T12:01:39Z</time></trkpt><trkpt lat="40.02744510658481" lon="15.876242993646088"><ele>750.0</ele><time>2026-03-22T12:01:40Z</time></trkpt><trkpt lat="40.027106472475175" lon="15.876455042663615"><ele>743.0</ele><time>2026-03-22T12:01:41Z</time></trkpt><trkpt lat="40.02677396874307" lon="15.876664906030994"><ele>742.5</ele><time>2026-03-22T12:01:42Z</time></trkpt><trkpt lat="40.02644166248948" lon="15.876866645194713"><ele>742.0</ele><time>2026-03-22T12:01:43Z</time></trkpt><trkpt lat="40.02611108506388" lon="15.877068443959711"><ele>739.5</ele><time>2026-03-22T12:01:44Z</time></trkpt><trkpt lat="40.025780653544516" lon="15.87726952392245"><ele>737.0</ele><time>2026-03-22T12:01:45Z</time></trkpt><trkpt lat="40.02545091851574" lon="15.877472460335666"><ele>740.5</ele><time>2026-03-22T12:01:46Z</time></trkpt><trkpt lat="40.0251222934462" lon="15.877674645536668"><ele>744.0</ele><time>2026-03-22T12:01:47Z</time></trkpt><trkpt lat="40.02479347147972" lon="15.877878143506132"><ele>747.0</ele><time>2026-03-22T12:01:48Z</time></trkpt><trkpt lat="40.024464224911576" lon="15.878079906762983"><ele>750.0</ele><time>2026-03-22T12:01:49Z</time></trkpt><trkpt lat="40.02413303126081" lon="15.87828118461357"><ele>758.5</ele><time>2026-03-22T12:01:50Z</time></trkpt><trkpt lat="40.02380125254132" lon="15.87847967083616"><ele>767.0</ele><time>2026-03-22T12:01:51Z</time></trkpt><trkpt lat="40.02346786596632" lon="15.878679017832653"><ele>770.5</ele><time>2026-03-22T12:01:52Z</time></trkpt><trkpt lat="40.02312359157408" lon="15.878881561383523"><ele>774.0</ele><time>2026-03-22T12:01:53Z</time></trkpt><trkpt lat="40.022777479521025" lon="15.879090148900604"><ele>763.0</ele><time>2026-03-22T12:01:54Z</time></trkpt><trkpt lat="40.02242958311878" lon="15.87930576623821"><ele>752.0</ele><time>2026-03-22T12:01:55Z</time></trkpt><trkpt lat="40.02208193170456" lon="15.879520517991219"><ele>752.0</ele><time>2026-03-22T12:01:56Z</time></trkpt><trkpt lat="40.02177397119666" lon="15.87979324782996"><ele>752.0</ele><time>2026-03-22T12:01:57Z</time></trkpt><trkpt lat="40.02150140465357" lon="15.88009903401485"><ele>745.5</ele><time>2026-03-22T12:01:58Z</time></trkpt><trkpt lat="40.02123087573357" lon="15.880446874547003"><ele>739.0</ele><time>2026-03-22T12:01:59Z</time></trkpt><trkpt lat="40.02110592584824" lon="15.880782530735535"><ele>741.0</ele><time>2026-03-22T12:02:00Z</time></trkpt><trkpt lat="40.02088966761168" lon="15.881143738813059"><ele>743.0</ele><time>2026-03-22T12:02:01Z</time></trkpt><trkpt lat="40.020686673323546" lon="15.881525237231745"><ele>738.0</ele><time>2026-03-22T12:02:02Z</time></trkpt><trkpt lat="40.020498822822645" lon="15.881933996321235"><ele>733.0</ele><time>2026-03-22T12:02:03Z</time></trkpt><trkpt lat="40.020321451103946" lon="15.88235213508972"><ele>734.0</ele><time>2026-03-22T12:02:04Z</time></trkpt><trkpt lat="40.020149875610294" lon="15.882774939979969"><ele>735.0</ele><time>2026-03-22T12:02:05Z</time></trkpt><trkpt lat="40.01998732928044" lon="15.883197154427707"><ele>733.5</ele><time>2026-03-22T12:02:06Z</time></trkpt><trkpt lat="40.01981647244552" lon="15.883619759645393"><ele>732.0</ele><time>2026-03-22T12:02:07Z</time></trkpt><trkpt lat="40.01964545699965" lon="15.884042846850983"><ele>733.0</ele><time>2026-03-22T12:02:08Z</time></trkpt><trkpt lat="40.019471439168704" lon="15.88446294858811"><ele>734.0</ele><time>2026-03-22T12:02:09Z</time></trkpt><trkpt lat="40.01929605010049" lon="15.884883669708131"><ele>731.0</ele><time>2026-03-22T12:02:10Z</time></trkpt><trkpt lat="40.01912009490785" lon="15.885306663781968"><ele>728.0</ele><time>2026-03-22T12:02:11Z</time></trkpt><trkpt lat="40.01894510745785" lon="15.885731318690937"><ele>727.0</ele><time>2026-03-22T12:02:12Z</time></trkpt><trkpt lat="40.018769410057274" lon="15.886156297794054"><ele>726.0</ele><time>2026-03-22T12:02:13Z</time></trkpt><trkpt lat="40.01859375623879" lon="15.886576795019474"><ele>726.0</ele><time>2026-03-22T12:02:14Z</time></trkpt><trkpt lat="40.018422285985636" lon="15.88699900142891"><ele>726.0</ele><time>2026-03-22T12:02:15Z</time></trkpt><trkpt lat="40.0182532613798" lon="15.887423996762841"><ele>726.0</ele><time>2026-03-22T12:02:16Z</time></trkpt><trkpt lat="40.018090491596205" lon="15.887850814445924"><ele>726.0</ele><time>2026-03-22T12:02:17Z</time></trkpt><trkpt lat="40.01794290765377" lon="15.888283423010773"><ele>725.0</ele><time>2026-03-22T12:02:18Z</time></trkpt><trkpt lat="40.0178090310511" lon="15.888715490277844"><ele>724.0</ele><time>2026-03-22T12:02:19Z</time></trkpt><trkpt lat="40.01768736214937" lon="15.889160464554942"><ele>724.0</ele><time>2026-03-22T12:02:20Z</time></trkpt><trkpt lat="40.01757226792328" lon="15.889605357797702"><ele>724.0</ele><time>2026-03-22T12:02:21Z</time></trkpt><trkpt lat="40.01745471027517" lon="15.890052573013447"><ele>724.5</ele><time>2026-03-22T12:02:22Z</time></trkpt><trkpt lat="40.017325481965464" lon="15.890497665141405"><ele>725.0</ele><time>2026-03-22T12:02:22.999Z</time></trkpt><trkpt lat="40.01718345149012" lon="15.890928799398791"><ele>725.5</ele><time>2026-03-22T12:02:23.999Z</time></trkpt><trkpt lat="40.01702487279756" lon="15.891350231806216"><ele>726.0</ele><time>2026-03-22T12:02:24.999Z</time></trkpt><trkpt lat="40.016852641397435" lon="15.891754044691144"><ele>727.0</ele><time>2026-03-22T12:02:25.999Z</time></trkpt><trkpt lat="40.01666772441278" lon="15.892154838691567"><ele>728.0</ele><time>2026-03-22T12:02:26.999Z</time></trkpt><trkpt lat="40.01647286225971" lon="15.892548838945837"><ele>727.5</ele><time>2026-03-22T12:02:27.999Z</time></trkpt><trkpt lat="40.01627255031416" lon="15.892938943774698"><ele>727.0</ele><time>2026-03-22T12:02:28.999Z</time></trkpt><trkpt lat="40.01606944079376" lon="15.893326157001963"><ele>727.5</ele><time>2026-03-22T12:02:29.999Z</time></trkpt><trkpt lat="40.01586289083939" lon="15.893715018883661"><ele>728.0</ele><time>2026-03-22T12:02:30.999Z</time></trkpt><trkpt lat="40.01565258852003" lon="15.894101875110323"><ele>729.0</ele><time>2026-03-22T12:02:31.999Z</time></trkpt><trkpt lat="40.01544577399701" lon="15.89449766200601"><ele>730.0</ele><time>2026-03-22T12:02:32.999Z</time></trkpt><trkpt lat="40.015236665343544" lon="15.89489281941253"><ele>727.5</ele><time>2026-03-22T12:02:33.999Z</time></trkpt><trkpt lat="40.0150274808866" lon="15.895287126796116"><ele>725.0</ele><time>2026-03-22T12:02:34.999Z</time></trkpt><trkpt lat="40.01481760029222" lon="15.895682129890456"><ele>724.5</ele><time>2026-03-22T12:02:35.999Z</time></trkpt><trkpt lat="40.014609226606304" lon="15.896075917857758"><ele>724.0</ele><time>2026-03-22T12:02:36.999Z</time></trkpt><trkpt lat="40.014400674948966" lon="15.896466068681644"><ele>724.5</ele><time>2026-03-22T12:02:37.999Z</time></trkpt><trkpt lat="40.01419138022057" lon="15.896856279912095"><ele>725.0</ele><time>2026-03-22T12:02:38.999Z</time></trkpt><trkpt lat="40.013981015238656" lon="15.897245164830244"><ele>725.0</ele><time>2026-03-22T12:02:39.999Z</time></trkpt><trkpt lat="40.013769010546305" lon="15.89763057447933"><ele>725.0</ele><time>2026-03-22T12:02:40.999Z</time></trkpt><trkpt lat="40.01355107889999" lon="15.898013741801117"><ele>725.0</ele><time>2026-03-22T12:02:41.999Z</time></trkpt><trkpt lat="40.01332881910607" lon="15.898386322416624"><ele>725.0</ele><time>2026-03-22T12:02:42.999Z</time></trkpt><trkpt lat="40.01309785550882" lon="15.898754010197576"><ele>724.5</ele><time>2026-03-22T12:02:43.999Z</time></trkpt><trkpt lat="40.01285718700467" lon="15.899106366137357"><ele>724.0</ele><time>2026-03-22T12:02:44.999Z</time></trkpt><trkpt lat="40.012609945832295" lon="15.899447570062305"><ele>726.5</ele><time>2026-03-22T12:02:45.999Z</time></trkpt><trkpt lat="40.01235568375789" lon="15.89978116664209"><ele>729.0</ele><time>2026-03-22T12:02:46.999Z</time></trkpt><trkpt lat="40.01209267109883" lon="15.90010697960664"><ele>730.0</ele><time>2026-03-22T12:02:47.999Z</time></trkpt><trkpt lat="40.01182258803526" lon="15.900424158481254"><ele>731.0</ele><time>2026-03-22T12:02:48.999Z</time></trkpt><trkpt lat="40.011546911769756" lon="15.90073068468478"><ele>752.5</ele><time>2026-03-22T12:02:49.999Z</time></trkpt><trkpt lat="40.01126846871461" lon="15.901032104293636"><ele>774.0</ele><time>2026-03-22T12:02:50.999Z</time></trkpt><trkpt lat="40.010987985691195" lon="15.901333819285261"><ele>791.5</ele><time>2026-03-22T12:02:51.999Z</time></trkpt><trkpt lat="40.010708376829086" lon="15.901635240923483"><ele>809.0</ele><time>2026-03-22T12:02:52.999Z</time></trkpt><trkpt lat="40.010431842582086" lon="15.901938546358789"><ele>809.0</ele><time>2026-03-22T12:02:53.999Z</time></trkpt><trkpt lat="40.01016060074162" lon="15.902245267736504"><ele>809.0</ele><time>2026-03-22T12:02:54.999Z</time></trkpt><trkpt lat="40.00989619085908" lon="15.902554951065243"><ele>808.5</ele><time>2026-03-22T12:02:55.999Z</time></trkpt><trkpt lat="40.0096353399554" lon="15.902866644826274"><ele>808.0</ele><time>2026-03-22T12:02:56.999Z</time></trkpt><trkpt lat="40.00938390222108" lon="15.903181733338977"><ele>791.5</ele><time>2026-03-22T12:02:57.999Z</time></trkpt><trkpt lat="40.00914621288312" lon="15.90350212090896"><ele>775.0</ele><time>2026-03-22T12:02:58.999Z</time></trkpt><trkpt lat="40.00892100767631" lon="15.90382631698888"><ele>775.0</ele><time>2026-03-22T12:02:59.999Z</time></trkpt><trkpt lat="40.008519697735174" lon="15.904242585614321"><ele>782.5</ele><time>2026-03-22T12:03:00.999Z</time></trkpt><trkpt lat="40.00829937404295" lon="15.904592711559644"><ele>790.0</ele><time>2026-03-22T12:03:01.999Z</time></trkpt><trkpt lat="40.00809474464098" lon="15.904954013371782"><ele>789.0</ele><time>2026-03-22T12:03:02.999Z</time></trkpt><trkpt lat="40.00789195525547" lon="15.905312503180216"><ele>788.0</ele><time>2026-03-22T12:03:03.999Z</time></trkpt><trkpt lat="40.007687250690886" lon="15.905670226140542"><ele>780.5</ele><time>2026-03-22T12:03:04.999Z</time></trkpt><trkpt lat="40.00749690586187" lon="15.906041595580804"><ele>773.0</ele><time>2026-03-22T12:03:05.999Z</time></trkpt><trkpt lat="40.0073167262196" lon="15.906409784422172"><ele>752.0</ele><time>2026-03-22T12:03:06.999Z</time></trkpt><trkpt lat="40.00712925679981" lon="15.906774645047221"><ele>731.0</ele><time>2026-03-22T12:03:07.999Z</time></trkpt><trkpt lat="40.0069504132288" lon="15.907143156231566"><ele>731.0</ele><time>2026-03-22T12:03:08.999Z</time></trkpt><trkpt lat="40.0067724131059" lon="15.907505867078703"><ele>731.0</ele><time>2026-03-22T12:03:09.999Z</time></trkpt><trkpt lat="40.00661602263265" lon="15.907947820999693"><ele>728.0</ele><time>2026-03-22T12:03:10.999Z</time></trkpt><trkpt lat="40.00638919313404" lon="15.908165668528566"><ele>725.0</ele><time>2026-03-22T12:03:11.999Z</time></trkpt><trkpt lat="40.00619833991342" lon="15.908532194621365"><ele>724.0</ele><time>2026-03-22T12:03:12.999Z</time></trkpt><trkpt lat="40.00596696088207" lon="15.908823258004457"><ele>723.0</ele><time>2026-03-22T12:03:13.999Z</time></trkpt><trkpt lat="40.00576135693713" lon="15.909149604234464"><ele>724.0</ele><time>2026-03-22T12:03:14.999Z</time></trkpt><trkpt lat="40.00555094665759" lon="15.90946567196287"><ele>725.0</ele><time>2026-03-22T12:03:15.999Z</time></trkpt><trkpt lat="40.00534681786662" lon="15.909783084291364"><ele>724.5</ele><time>2026-03-22T12:03:16.999Z</time></trkpt><trkpt lat="40.005133503298694" lon="15.910082476787942"><ele>724.0</ele><time>2026-03-22T12:03:17.999Z</time></trkpt><trkpt lat="40.004914339726355" lon="15.910374654453616"><ele>725.5</ele><time>2026-03-22T12:03:18.999Z</time></trkpt><trkpt lat="40.00468759398107" lon="15.910661133687567"><ele>727.0</ele><time>2026-03-22T12:03:19.999Z</time></trkpt><trkpt lat="40.00445439244644" lon="15.910954016203899"><ele>727.0</ele><time>2026-03-22T12:03:20.999Z</time></trkpt><trkpt lat="40.00420953515357" lon="15.911256876761822"><ele>727.0</ele><time>2026-03-22T12:03:21.999Z</time></trkpt><trkpt lat="40.00396598006168" lon="15.911586723436724"><ele>730.5</ele><time>2026-03-22T12:03:22.999Z</time></trkpt><trkpt lat="40.00371111364216" lon="15.911902436208967"><ele>734.0</ele><time>2026-03-22T12:03:23.999Z</time></trkpt><trkpt lat="40.00343907820126" lon="15.91220648606234"><ele>736.0</ele><time>2026-03-22T12:03:24.999Z</time></trkpt><trkpt lat="40.003173843754645" lon="15.912520634665718"><ele>738.0</ele><time>2026-03-22T12:03:25.999Z</time></trkpt><trkpt lat="40.00290814564999" lon="15.91283967833483"><ele>738.0</ele><time>2026-03-22T12:03:26.999Z</time></trkpt><trkpt lat="40.002647085333635" lon="15.913163297939237"><ele>738.0</ele><time>2026-03-22T12:03:27.999Z</time></trkpt><trkpt lat="40.00238406127519" lon="15.91348866029625"><ele>744.5</ele><time>2026-03-22T12:03:28.999Z</time></trkpt><trkpt lat="40.0021311534444" lon="15.913825713042238"><ele>751.0</ele><time>2026-03-22T12:03:29.999Z</time></trkpt><trkpt lat="40.00188165224623" lon="15.9141663373383"><ele>761.5</ele><time>2026-03-22T12:03:30.999Z</time></trkpt><trkpt lat="40.00165125136398" lon="15.914531983794857"><ele>772.0</ele><time>2026-03-22T12:03:31.999Z</time></trkpt><trkpt lat="40.00141662460341" lon="15.914889191598986"><ele>782.0</ele><time>2026-03-22T12:03:32.999Z</time></trkpt><trkpt lat="40.001185785742294" lon="15.915256425598868"><ele>792.0</ele><time>2026-03-22T12:03:33.999Z</time></trkpt><trkpt lat="40.00095610134662" lon="15.915627667226618"><ele>813.0</ele><time>2026-03-22T12:03:34.999Z</time></trkpt><trkpt lat="40.000724543549616" lon="15.916000739193105"><ele>834.0</ele><time>2026-03-22T12:03:35.999Z</time></trkpt><trkpt lat="40.00049294936312" lon="15.916375425904366"><ele>847.0</ele><time>2026-03-22T12:03:36.999Z</time></trkpt><trkpt lat="40.00026373176294" lon="15.91675362383802"><ele>860.0</ele><time>2026-03-22T12:03:37.999Z</time></trkpt><trkpt lat="40.000038656046776" lon="15.917133859082423"><ele>860.0</ele><time>2026-03-22T12:03:38.999Z</time></trkpt><trkpt lat="39.99981764280454" lon="15.917516346306696"><ele>860.0</ele><time>2026-03-22T12:03:39.999Z</time></trkpt><trkpt lat="39.99958477251009" lon="15.917887219431808"><ele>867.0</ele><time>2026-03-22T12:03:41Z</time></trkpt><trkpt lat="39.99935719236778" lon="15.918261222269464"><ele>874.0</ele><time>2026-03-22T12:03:42Z</time></trkpt><trkpt lat="39.99910255681824" lon="15.91864231792937"><ele>878.5</ele><time>2026-03-22T12:03:43Z</time></trkpt><trkpt lat="39.99888269139559" lon="15.919007751013634"><ele>883.0</ele><time>2026-03-22T12:03:44Z</time></trkpt><trkpt lat="39.99866541146166" lon="15.919379358290394"><ele>889.0</ele><time>2026-03-22T12:03:45Z</time></trkpt><trkpt lat="39.99844851326974" lon="15.91974436586981"><ele>895.0</ele><time>2026-03-22T12:03:46Z</time></trkpt><trkpt lat="39.99822853542889" lon="15.920102068473394"><ele>910.5</ele><time>2026-03-22T12:03:47Z</time></trkpt><trkpt lat="39.99801844426144" lon="15.920464862554896"><ele>926.0</ele><time>2026-03-22T12:03:48Z</time></trkpt><trkpt lat="39.99779174682241" lon="15.920812630801157"><ele>930.5</ele><time>2026-03-22T12:03:49Z</time></trkpt><trkpt lat="39.997580545389866" lon="15.921168279018572"><ele>935.0</ele><time>2026-03-22T12:03:50Z</time></trkpt><trkpt lat="39.99736500162391" lon="15.921527175751397"><ele>855.0</ele><time>2026-03-22T12:03:51.028Z</time></trkpt><trkpt lat="39.99605529921612" lon="15.923540827731367"><ele>710.0</ele><time>2026-03-22T12:03:54.257Z</time></trkpt><trkpt lat="39.99202198787802" lon="15.930085106348859"><ele>710.0</ele><time>2026-03-22T12:04:14Z</time></trkpt><trkpt lat="39.991854519507825" lon="15.930433066634754"><ele>710.0</ele><time>2026-03-22T12:04:15Z</time></trkpt><trkpt lat="39.99164522805119" lon="15.930821728692816"><ele>708.5</ele><time>2026-03-22T12:04:16Z</time></trkpt><trkpt lat="39.99143471629499" lon="15.931173677430733"><ele>707.0</ele><time>2026-03-22T12:04:17Z</time></trkpt><trkpt lat="39.99119698282059" lon="15.931515855155263"><ele>710.0</ele><time>2026-03-22T12:04:18Z</time></trkpt><trkpt lat="39.990947636694116" lon="15.931835318965566"><ele>713.0</ele><time>2026-03-22T12:04:19Z</time></trkpt><trkpt lat="39.990686062313834" lon="15.932142085255984"><ele>700.5</ele><time>2026-03-22T12:04:20Z</time></trkpt><trkpt lat="39.990410168763994" lon="15.932435388860895"><ele>688.0</ele><time>2026-03-22T12:04:21Z</time></trkpt><trkpt lat="39.990121953835725" lon="15.932712199311071"><ele>680.0</ele><time>2026-03-22T12:04:22Z</time></trkpt><trkpt lat="39.989828284571104" lon="15.932963612566587"><ele>672.0</ele><time>2026-03-22T12:04:23Z</time></trkpt><trkpt lat="39.98953261182499" lon="15.933187220669831"><ele>671.0</ele><time>2026-03-22T12:04:24Z</time></trkpt><trkpt lat="39.98923150836685" lon="15.93339200081289"><ele>670.0</ele><time>2026-03-22T12:04:25Z</time></trkpt><trkpt lat="39.98891935194194" lon="15.933582705351352"><ele>668.0</ele><time>2026-03-22T12:04:25.999Z</time></trkpt><trkpt lat="39.98860188048785" lon="15.933753552560379"><ele>666.0</ele><time>2026-03-22T12:04:26.999Z</time></trkpt><trkpt lat="39.9882769176135" lon="15.93390190335747"><ele>666.0</ele><time>2026-03-22T12:04:27.999Z</time></trkpt><trkpt lat="39.98794176604098" lon="15.934024908022542"><ele>666.0</ele><time>2026-03-22T12:04:28.999Z</time></trkpt><trkpt lat="39.987596727160806" lon="15.934123790948808"><ele>665.0</ele><time>2026-03-22T12:04:29.999Z</time></trkpt><trkpt lat="39.98724085521787" lon="15.93420338552608"><ele>664.0</ele><time>2026-03-22T12:04:30.999Z</time></trkpt><trkpt lat="39.986877415050365" lon="15.93426594304752"><ele>646.5</ele><time>2026-03-22T12:04:31.999Z</time></trkpt><trkpt lat="39.98651405810272" lon="15.934314969908966"><ele>629.0</ele><time>2026-03-22T12:04:32.999Z</time></trkpt><trkpt lat="39.98614886926571" lon="15.93435528002262"><ele>637.5</ele><time>2026-03-22T12:04:33.999Z</time></trkpt><trkpt lat="39.985782566398484" lon="15.934391009244823"><ele>646.0</ele><time>2026-03-22T12:04:34.999Z</time></trkpt><trkpt lat="39.985416349239514" lon="15.934430618641526"><ele>646.0</ele><time>2026-03-22T12:04:35.999Z</time></trkpt><trkpt lat="39.98504806274923" lon="15.934472639867097"><ele>646.0</ele><time>2026-03-22T12:04:36.999Z</time></trkpt><trkpt lat="39.9846799264079" lon="15.934515028675182"><ele>649.5</ele><time>2026-03-22T12:04:37.999Z</time></trkpt><trkpt lat="39.984313215232525" lon="15.934554810725784"><ele>653.0</ele><time>2026-03-22T12:04:38.999Z</time></trkpt><trkpt lat="39.983946434778" lon="15.934590500903536"><ele>653.0</ele><time>2026-03-22T12:04:39.999Z</time></trkpt><trkpt lat="39.98358119642358" lon="15.934621536081048"><ele>653.0</ele><time>2026-03-22T12:04:40.999Z</time></trkpt><trkpt lat="39.98321620276101" lon="15.934651137173493"><ele>643.0</ele><time>2026-03-22T12:04:41.999Z</time></trkpt><trkpt lat="39.982851424969034" lon="15.93468086920121"><ele>633.0</ele><time>2026-03-22T12:04:42.999Z</time></trkpt><trkpt lat="39.982485097826896" lon="15.934713676850466"><ele>633.0</ele><time>2026-03-22T12:04:43.999Z</time></trkpt><trkpt lat="39.98212123716721" lon="15.934750321120692"><ele>633.0</ele><time>2026-03-22T12:04:44.999Z</time></trkpt><trkpt lat="39.9817583519045" lon="15.934789558562601"><ele>636.5</ele><time>2026-03-22T12:04:45.999Z</time></trkpt><trkpt lat="39.98139597857991" lon="15.93483386417731"><ele>640.0</ele><time>2026-03-22T12:04:46.999Z</time></trkpt><trkpt lat="39.98103517110025" lon="15.934887515633582"><ele>629.5</ele><time>2026-03-22T12:04:47.999Z</time></trkpt><trkpt lat="39.980676809246674" lon="15.93495262576446"><ele>619.0</ele><time>2026-03-22T12:04:48.999Z</time></trkpt><trkpt lat="39.9803197736614" lon="15.935028362233428"><ele>604.0</ele><time>2026-03-22T12:04:49.999Z</time></trkpt><trkpt lat="39.97996383766611" lon="15.935110267560995"><ele>589.0</ele><time>2026-03-22T12:04:50.999Z</time></trkpt><trkpt lat="39.979606529003455" lon="15.935194227238467"><ele>589.0</ele><time>2026-03-22T12:04:51.999Z</time></trkpt><trkpt lat="39.97924815029174" lon="15.935276358990652"><ele>589.0</ele><time>2026-03-22T12:04:52.999Z</time></trkpt><trkpt lat="39.97888940508338" lon="15.935357720187517"><ele>598.5</ele><time>2026-03-22T12:04:53.999Z</time></trkpt><trkpt lat="39.978529860962745" lon="15.935438658469026"><ele>608.0</ele><time>2026-03-22T12:04:54.999Z</time></trkpt><trkpt lat="39.978170634480186" lon="15.93551795865806"><ele>612.5</ele><time>2026-03-22T12:04:55.999Z</time></trkpt><trkpt lat="39.977811850392776" lon="15.9355983602271"><ele>617.0</ele><time>2026-03-22T12:04:56.999Z</time></trkpt><trkpt lat="39.97745593032402" lon="15.935679870552136"><ele>617.0</ele><time>2026-03-22T12:04:57.999Z</time></trkpt><trkpt lat="39.97710016156261" lon="15.935761931384604"><ele>617.0</ele><time>2026-03-22T12:04:58.999Z</time></trkpt><trkpt lat="39.97675254855205" lon="15.935844412501844"><ele>612.0</ele><time>2026-03-22T12:04:59.999Z</time></trkpt><trkpt lat="39.976408265772754" lon="15.935924121423463"><ele>607.0</ele><time>2026-03-22T12:05:00.999Z</time></trkpt><trkpt lat="39.97606460196635" lon="15.936004158835798"><ele>607.0</ele><time>2026-03-22T12:05:01.999Z</time></trkpt><trkpt lat="39.97572015150959" lon="15.936087463302107"><ele>607.0</ele><time>2026-03-22T12:05:02.999Z</time></trkpt><trkpt lat="39.97537670955613" lon="15.93617141851406"><ele>607.0</ele><time>2026-03-22T12:05:03.999Z</time></trkpt><trkpt lat="39.975037237900715" lon="15.936258247347102"><ele>607.0</ele><time>2026-03-22T12:05:04.999Z</time></trkpt><trkpt lat="39.974702842742225" lon="15.936335406425739"><ele>606.0</ele><time>2026-03-22T12:05:05.999Z</time></trkpt><trkpt lat="39.97437079305531" lon="15.936381108428096"><ele>605.0</ele><time>2026-03-22T12:05:06.999Z</time></trkpt><trkpt lat="39.97404042128212" lon="15.936386195632933"><ele>601.5</ele><time>2026-03-22T12:05:07.999Z</time></trkpt><trkpt lat="39.97370971733397" lon="15.93635156318009"><ele>598.0</ele><time>2026-03-22T12:05:08.999Z</time></trkpt><trkpt lat="39.97337902881135" lon="15.93627600207178"><ele>596.0</ele><time>2026-03-22T12:05:09.999Z</time></trkpt><trkpt lat="39.97305724167621" lon="15.936156129904814"><ele>594.0</ele><time>2026-03-22T12:05:10.999Z</time></trkpt><trkpt lat="39.972743512894574" lon="15.935996936256982"><ele>594.0</ele><time>2026-03-22T12:05:11.999Z</time></trkpt><trkpt lat="39.97244339808854" lon="15.935793469356272"><ele>594.0</ele><time>2026-03-22T12:05:12.999Z</time></trkpt><trkpt lat="39.97215521356374" lon="15.935560860110467"><ele>594.0</ele><time>2026-03-22T12:05:13.999Z</time></trkpt><trkpt lat="39.971883214217485" lon="15.935293875008844"><ele>594.0</ele><time>2026-03-22T12:05:14.999Z</time></trkpt><trkpt lat="39.97162781481957" lon="15.934998625851653"><ele>591.0</ele><time>2026-03-22T12:05:15.999Z</time></trkpt><trkpt lat="39.971381503756994" lon="15.934691153269904"><ele>588.0</ele><time>2026-03-22T12:05:16.999Z</time></trkpt><trkpt lat="39.9711382522773" lon="15.934384829469929"><ele>586.5</ele><time>2026-03-22T12:05:17.999Z</time></trkpt><trkpt lat="39.97089677137733" lon="15.934085925709848"><ele>585.0</ele><time>2026-03-22T12:05:18.999Z</time></trkpt><trkpt lat="39.9706514068017" lon="15.933791087863243"><ele>584.5</ele><time>2026-03-22T12:05:19.999Z</time></trkpt><trkpt lat="39.970401336923835" lon="15.933514286396077"><ele>584.0</ele><time>2026-03-22T12:05:20.999Z</time></trkpt><trkpt lat="39.97013166843609" lon="15.933269400633934"><ele>579.5</ele><time>2026-03-22T12:05:21.999Z</time></trkpt><trkpt lat="39.9698450154203" lon="15.933056370522046"><ele>575.0</ele><time>2026-03-22T12:05:22.999Z</time></trkpt><trkpt lat="39.96954529383223" lon="15.932872974356304"><ele>575.0</ele><time>2026-03-22T12:05:23.999Z</time></trkpt><trkpt lat="39.96923007513918" lon="15.93272954382483"><ele>575.0</ele><time>2026-03-22T12:05:24.999Z</time></trkpt><trkpt lat="39.9689039905319" lon="15.932622970254588"><ele>571.0</ele><time>2026-03-22T12:05:25.999Z</time></trkpt><trkpt lat="39.96857034339667" lon="15.932556835183943"><ele>567.0</ele><time>2026-03-22T12:05:26.999Z</time></trkpt><trkpt lat="39.96822959536367" lon="15.932529379511706"><ele>567.0</ele><time>2026-03-22T12:05:27.999Z</time></trkpt><trkpt lat="39.967881600304345" lon="15.93253455127523"><ele>567.0</ele><time>2026-03-22T12:05:28.999Z</time></trkpt><trkpt lat="39.96752821337608" lon="15.932555067804568"><ele>564.0</ele><time>2026-03-22T12:05:29.999Z</time></trkpt><trkpt lat="39.96717088082794" lon="15.932569875613412"><ele>561.0</ele><time>2026-03-22T12:05:30.999Z</time></trkpt><trkpt lat="39.96681061926031" lon="15.932582175952094"><ele>560.0</ele><time>2026-03-22T12:05:31.999Z</time></trkpt><trkpt lat="39.96644948040784" lon="15.93259283897809"><ele>559.0</ele><time>2026-03-22T12:05:32.999Z</time></trkpt><trkpt lat="39.966087916329336" lon="15.932605212774378"><ele>557.5</ele><time>2026-03-22T12:05:33.999Z</time></trkpt><trkpt lat="39.965724892748966" lon="15.932618144688572"><ele>556.0</ele><time>2026-03-22T12:05:34.999Z</time></trkpt><trkpt lat="39.96535927801291" lon="15.9326315287729"><ele>555.5</ele><time>2026-03-22T12:05:35.999Z</time></trkpt><trkpt lat="39.96499259314348" lon="15.93264627043867"><ele>555.0</ele><time>2026-03-22T12:05:36.999Z</time></trkpt><trkpt lat="39.96462533753705" lon="15.932663805627996"><ele>555.0</ele><time>2026-03-22T12:05:37.999Z</time></trkpt><trkpt lat="39.964258167776634" lon="15.932688444752438"><ele>555.0</ele><time>2026-03-22T12:05:38.999Z</time></trkpt><trkpt lat="39.963893123234016" lon="15.9327249481741"><ele>554.0</ele><time>2026-03-22T12:05:39.999Z</time></trkpt><trkpt lat="39.96352870556832" lon="15.932777025753914"><ele>553.0</ele><time>2026-03-22T12:05:40.999Z</time></trkpt><trkpt lat="39.96316613509674" lon="15.93284426031441"><ele>549.5</ele><time>2026-03-22T12:05:41.999Z</time></trkpt><trkpt lat="39.96280475513104" lon="15.932917044343737"><ele>546.0</ele><time>2026-03-22T12:05:42.999Z</time></trkpt><trkpt lat="39.96244482804587" lon="15.932987693291944"><ele>541.0</ele><time>2026-03-22T12:05:43.999Z</time></trkpt><trkpt lat="39.96208410155919" lon="15.933056132642827"><ele>536.0</ele><time>2026-03-22T12:05:44.999Z</time></trkpt><trkpt lat="39.96172407228275" lon="15.933122625784186"><ele>533.0</ele><time>2026-03-22T12:05:46Z</time></trkpt><trkpt lat="39.96136881947914" lon="15.933193777381474"><ele>530.0</ele><time>2026-03-22T12:05:47Z</time></trkpt><trkpt lat="39.961014846105364" lon="15.933278939011576"><ele>526.0</ele><time>2026-03-22T12:05:48Z</time></trkpt><trkpt lat="39.960664458299476" lon="15.933381681044965"><ele>522.0</ele><time>2026-03-22T12:05:49Z</time></trkpt><trkpt lat="39.96031941768948" lon="15.93350106602024"><ele>504.5</ele><time>2026-03-22T12:05:50Z</time></trkpt><trkpt lat="39.959976982133" lon="15.933640547961454"><ele>487.0</ele><time>2026-03-22T12:05:51Z</time></trkpt><trkpt lat="39.95963930496973" lon="15.933800479452126"><ele>487.0</ele><time>2026-03-22T12:05:52Z</time></trkpt><trkpt lat="39.95930512232666" lon="15.933976606941421"><ele>487.0</ele><time>2026-03-22T12:05:53Z</time></trkpt><trkpt lat="39.95897218653177" lon="15.934164086210217"><ele>464.5</ele><time>2026-03-22T12:05:54Z</time></trkpt><trkpt lat="39.95863841962223" lon="15.93435596015567"><ele>442.0</ele><time>2026-03-22T12:05:55Z</time></trkpt><trkpt lat="39.95830249128208" lon="15.934548753764611"><ele>434.5</ele><time>2026-03-22T12:05:56Z</time></trkpt><trkpt lat="39.95796730629325" lon="15.934741711358688"><ele>427.0</ele><time>2026-03-22T12:05:57Z</time></trkpt><trkpt lat="39.95763099567077" lon="15.93493223480272"><ele>419.5</ele><time>2026-03-22T12:05:58Z</time></trkpt><trkpt lat="39.95729378188024" lon="15.935121390605532"><ele>412.0</ele><time>2026-03-22T12:05:59Z</time></trkpt><trkpt lat="39.95695822180469" lon="15.935312885322071"><ele>432.0</ele><time>2026-03-22T12:06:00Z</time></trkpt><trkpt lat="39.956625122750104" lon="15.93551103412714"><ele>452.0</ele><time>2026-03-22T12:06:01Z</time></trkpt><trkpt lat="39.95629534582545" lon="15.935720815986263"><ele>456.0</ele><time>2026-03-22T12:06:02Z</time></trkpt><trkpt lat="39.955972149730165" lon="15.935941683310576"><ele>460.0</ele><time>2026-03-22T12:06:03Z</time></trkpt><trkpt lat="39.95565572502482" lon="15.936176145694045"><ele>487.5</ele><time>2026-03-22T12:06:04Z</time></trkpt><trkpt lat="39.9553457804413" lon="15.936420263571414"><ele>515.0</ele><time>2026-03-22T12:06:05Z</time></trkpt><trkpt lat="39.95504064757834" lon="15.936678122671918"><ele>521.0</ele><time>2026-03-22T12:06:06Z</time></trkpt><trkpt lat="39.95474211001022" lon="15.936949842638834"><ele>527.0</ele><time>2026-03-22T12:06:07Z</time></trkpt><trkpt lat="39.95445110681856" lon="15.93723417278095"><ele>535.5</ele><time>2026-03-22T12:06:08Z</time></trkpt><trkpt lat="39.954165298078884" lon="15.937528245750514"><ele>544.0</ele><time>2026-03-22T12:06:09Z</time></trkpt><trkpt lat="39.95388207275757" lon="15.937830654129888"><ele>547.5</ele><time>2026-03-22T12:06:10Z</time></trkpt><trkpt lat="39.95358492703899" lon="15.938118829222006"><ele>551.0</ele><time>2026-03-22T12:06:11Z</time></trkpt><trkpt lat="39.95333007672798" lon="15.93848063522921"><ele>568.0</ele><time>2026-03-22T12:06:12Z</time></trkpt><trkpt lat="39.95306692931838" lon="15.938831297005779"><ele>585.0</ele><time>2026-03-22T12:06:13Z</time></trkpt><trkpt lat="39.95281232981711" lon="15.939199342979725"><ele>585.5</ele><time>2026-03-22T12:06:14Z</time></trkpt><trkpt lat="39.952563800769035" lon="15.939580864145572"><ele>586.0</ele><time>2026-03-22T12:06:15Z</time></trkpt><trkpt lat="39.95232055693411" lon="15.939975750749037"><ele>602.0</ele><time>2026-03-22T12:06:16Z</time></trkpt><trkpt lat="39.95208375143687" lon="15.940383381607065"><ele>618.0</ele><time>2026-03-22T12:06:17Z</time></trkpt><trkpt lat="39.95185410633116" lon="15.940804025475911"><ele>636.0</ele><time>2026-03-22T12:06:18Z</time></trkpt><trkpt lat="39.95163232452735" lon="15.941237866474498"><ele>654.0</ele><time>2026-03-22T12:06:19Z</time></trkpt><trkpt lat="39.95141673983808" lon="15.94168131243212"><ele>653.0</ele><time>2026-03-22T12:06:20Z</time></trkpt><trkpt lat="39.951204927392915" lon="15.942130964007413"><ele>652.0</ele><time>2026-03-22T12:06:21Z</time></trkpt><trkpt lat="39.95111006935073" lon="15.942331795990857"><ele>650.0</ele><time>2026-03-22T12:06:22Z</time></trkpt><trkpt lat="39.95094709281772" lon="15.942766762760359"><ele>648.0</ele><time>2026-03-22T12:06:23Z</time></trkpt><trkpt lat="39.95079328764141" lon="15.94320791606982"><ele>649.5</ele><time>2026-03-22T12:06:24Z</time></trkpt><trkpt lat="39.950657106485636" lon="15.94365528157063"><ele>651.0</ele><time>2026-03-22T12:06:25Z</time></trkpt><trkpt lat="39.95052742297726" lon="15.944110673910693"><ele>646.0</ele><time>2026-03-22T12:06:26Z</time></trkpt><trkpt lat="39.95043173544173" lon="15.94455872066304"><ele>641.0</ele><time>2026-03-22T12:06:27Z</time></trkpt><trkpt lat="39.95034314275667" lon="15.945011377820625"><ele>640.5</ele><time>2026-03-22T12:06:28Z</time></trkpt><trkpt lat="39.950257392428654" lon="15.945473259911681"><ele>640.0</ele><time>2026-03-22T12:06:29Z</time></trkpt><trkpt lat="39.95019571771636" lon="15.945925391445057"><ele>634.0</ele><time>2026-03-22T12:06:30Z</time></trkpt><trkpt lat="39.95013630078714" lon="15.946380485664093"><ele>628.0</ele><time>2026-03-22T12:06:31Z</time></trkpt><trkpt lat="39.950070778338485" lon="15.94685053603763"><ele>632.0</ele><time>2026-03-22T12:06:32Z</time></trkpt><trkpt lat="39.94999669765029" lon="15.947330874785278"><ele>636.0</ele><time>2026-03-22T12:06:33Z</time></trkpt><trkpt lat="39.94992576355241" lon="15.947806683004242"><ele>621.5</ele><time>2026-03-22T12:06:34Z</time></trkpt><trkpt lat="39.94984445841129" lon="15.948246743608236"><ele>607.0</ele><time>2026-03-22T12:06:34.999Z</time></trkpt><trkpt lat="39.949772412325125" lon="15.948707413623978"><ele>596.5</ele><time>2026-03-22T12:06:35.999Z</time></trkpt><trkpt lat="39.94969508735028" lon="15.949130857225759"><ele>586.0</ele><time>2026-03-22T12:06:36.999Z</time></trkpt><trkpt lat="39.949622462718565" lon="15.94957474073622"><ele>586.0</ele><time>2026-03-22T12:06:37.999Z</time></trkpt><trkpt lat="39.94955430707255" lon="15.950036800306101"><ele>586.0</ele><time>2026-03-22T12:06:38.999Z</time></trkpt><trkpt lat="39.949482866996284" lon="15.950493299731065"><ele>611.5</ele><time>2026-03-22T12:06:39.999Z</time></trkpt><trkpt lat="39.94941602046" lon="15.950962089755269"><ele>637.0</ele><time>2026-03-22T12:06:40.999Z</time></trkpt><trkpt lat="39.94934460171758" lon="15.95141967194678"><ele>638.5</ele><time>2026-03-22T12:06:41.999Z</time></trkpt><trkpt lat="39.94927185300468" lon="15.951820805260084"><ele>640.0</ele><time>2026-03-22T12:06:42.999Z</time></trkpt><trkpt lat="39.94920034368951" lon="15.952251043483852"><ele>625.5</ele><time>2026-03-22T12:06:43.999Z</time></trkpt><trkpt lat="39.94913883957719" lon="15.952717805548435"><ele>611.0</ele><time>2026-03-22T12:06:44.999Z</time></trkpt><trkpt lat="39.94905741313215" lon="15.953189912681388"><ele>600.0</ele><time>2026-03-22T12:06:45.999Z</time></trkpt><trkpt lat="39.94899037203905" lon="15.953412239786429"><ele>589.0</ele><time>2026-03-22T12:06:46.999Z</time></trkpt><trkpt lat="39.94888058225253" lon="15.95385611117778"><ele>589.0</ele><time>2026-03-22T12:06:47.999Z</time></trkpt><trkpt lat="39.948760003255806" lon="15.95415107642147"><ele>589.0</ele><time>2026-03-22T12:06:48.999Z</time></trkpt><trkpt lat="39.94860673139161" lon="15.954581105758145"><ele>580.0</ele><time>2026-03-22T12:06:49.999Z</time></trkpt><trkpt lat="39.94843248462303" lon="15.955002317634085"><ele>571.0</ele><time>2026-03-22T12:06:50.999Z</time></trkpt><trkpt lat="39.94826722365177" lon="15.955275549169667"><ele>565.0</ele><time>2026-03-22T12:06:51.999Z</time></trkpt><trkpt lat="39.94806354634077" lon="15.955650009848773"><ele>559.0</ele><time>2026-03-22T12:06:52.999Z</time></trkpt><trkpt lat="39.94784418166479" lon="15.955987525429181"><ele>559.0</ele><time>2026-03-22T12:06:53.999Z</time></trkpt><trkpt lat="39.947602027372135" lon="15.956330274853531"><ele>559.0</ele><time>2026-03-22T12:06:54.999Z</time></trkpt><trkpt lat="39.94733141652398" lon="15.956685381988773"><ele>554.5</ele><time>2026-03-22T12:06:55.999Z</time></trkpt><trkpt lat="39.94705580161224" lon="15.956980783601194"><ele>550.0</ele><time>2026-03-22T12:06:56.999Z</time></trkpt><trkpt lat="39.94676648290844" lon="15.957264747550447"><ele>553.0</ele><time>2026-03-22T12:06:57.999Z</time></trkpt><trkpt lat="39.94647625082573" lon="15.957507083826059"><ele>556.0</ele><time>2026-03-22T12:06:58.999Z</time></trkpt><trkpt lat="39.946157064948906" lon="15.957759631215362"><ele>559.0</ele><time>2026-03-22T12:06:59.999Z</time></trkpt><trkpt lat="39.94583774890854" lon="15.957973852214675"><ele>562.0</ele><time>2026-03-22T12:07:00.999Z</time></trkpt><trkpt lat="39.9455334788522" lon="15.958141877393277"><ele>562.0</ele><time>2026-03-22T12:07:01.999Z</time></trkpt><trkpt lat="39.94520615658702" lon="15.958301035498653"><ele>562.0</ele><time>2026-03-22T12:07:02.999Z</time></trkpt><trkpt lat="39.94488801865549" lon="15.95840502621837"><ele>559.0</ele><time>2026-03-22T12:07:03.999Z</time></trkpt><trkpt lat="39.94457923721137" lon="15.958468671992305"><ele>556.0</ele><time>2026-03-22T12:07:04.999Z</time></trkpt><trkpt lat="39.94425358916042" lon="15.958525526498148"><ele>544.5</ele><time>2026-03-22T12:07:05.999Z</time></trkpt><trkpt lat="39.943943000488176" lon="15.958535144523347"><ele>533.0</ele><time>2026-03-22T12:07:06.999Z</time></trkpt><trkpt lat="39.94360150651785" lon="15.95855313713361"><ele>481.0</ele><time>2026-03-22T12:07:07.999Z</time></trkpt><trkpt lat="39.94270479292526" lon="15.959256726846277"><ele>442.0</ele><time>2026-03-22T12:07:08.999Z</time></trkpt><trkpt lat="39.942192896201114" lon="15.959356746541701"><ele>442.0</ele><time>2026-03-22T12:07:09.999Z</time></trkpt><trkpt lat="39.941812323490865" lon="15.959384233357797"><ele>442.0</ele><time>2026-03-22T12:07:10.999Z</time></trkpt><trkpt lat="39.94143354273393" lon="15.9594187930757"><ele>436.5</ele><time>2026-03-22T12:07:11.999Z</time></trkpt><trkpt lat="39.94113430868851" lon="15.95908311884917"><ele>431.0</ele><time>2026-03-22T12:07:12.999Z</time></trkpt><trkpt lat="39.94077154997634" lon="15.95908063082099"><ele>413.0</ele><time>2026-03-22T12:07:13.999Z</time></trkpt><trkpt lat="39.940409829292854" lon="15.95911703077075"><ele>395.0</ele><time>2026-03-22T12:07:14.999Z</time></trkpt><trkpt lat="39.940058815485976" lon="15.959204728683815"><ele>360.0</ele><time>2026-03-22T12:07:15.999Z</time></trkpt><trkpt lat="39.93972575128954" lon="15.959330122379153"><ele>325.0</ele><time>2026-03-22T12:07:16.999Z</time></trkpt><trkpt lat="39.93937763940445" lon="15.959438877812238"><ele>321.0</ele><time>2026-03-22T12:07:17.999Z</time></trkpt><trkpt lat="39.93902301235693" lon="15.959539235990443"><ele>317.0</ele><time>2026-03-22T12:07:18.999Z</time></trkpt><trkpt lat="39.938660524456274" lon="15.959639262800623"><ele>331.0</ele><time>2026-03-22T12:07:19.999Z</time></trkpt><trkpt lat="39.93829794099616" lon="15.959732233364303"><ele>345.0</ele><time>2026-03-22T12:07:20.999Z</time></trkpt><trkpt lat="39.93793718615236" lon="15.959830886065824"><ele>345.0</ele><time>2026-03-22T12:07:21.999Z</time></trkpt><trkpt lat="39.93757109428757" lon="15.959916156762981"><ele>345.0</ele><time>2026-03-22T12:07:22.999Z</time></trkpt><trkpt lat="39.93721294695733" lon="15.960009941563193"><ele>354.0</ele><time>2026-03-22T12:07:23.999Z</time></trkpt><trkpt lat="39.9368529378235" lon="15.960105064413135"><ele>363.0</ele><time>2026-03-22T12:07:24.999Z</time></trkpt><trkpt lat="39.93649396928857" lon="15.96019971668181"><ele>379.5</ele><time>2026-03-22T12:07:25.999Z</time></trkpt><trkpt lat="39.936136739702754" lon="15.96029413986523"><ele>396.0</ele><time>2026-03-22T12:07:26.999Z</time></trkpt><trkpt lat="39.93577950056" lon="15.960397022068047"><ele>411.5</ele><time>2026-03-22T12:07:27.999Z</time></trkpt><trkpt lat="39.93543259761394" lon="15.960498706311007"><ele>427.0</ele><time>2026-03-22T12:07:28.999Z</time></trkpt><trkpt lat="39.93508195466089" lon="15.960619830050387"><ele>441.5</ele><time>2026-03-22T12:07:29.999Z</time></trkpt><trkpt lat="39.93473769291209" lon="15.96077300045251"><ele>456.0</ele><time>2026-03-22T12:07:30.999Z</time></trkpt><trkpt lat="39.93447206066987" lon="15.960930462543713"><ele>471.5</ele><time>2026-03-22T12:07:31.999Z</time></trkpt><trkpt lat="39.934144721553864" lon="15.961121921941672"><ele>487.0</ele><time>2026-03-22T12:07:32.999Z</time></trkpt><trkpt lat="39.933823329650835" lon="15.961342946883788"><ele>487.0</ele><time>2026-03-22T12:07:33.999Z</time></trkpt><trkpt lat="39.933512390234064" lon="15.961579049529242"><ele>487.0</ele><time>2026-03-22T12:07:34.999Z</time></trkpt><trkpt lat="39.93320385638549" lon="15.961849107219235"><ele>494.0</ele><time>2026-03-22T12:07:35.999Z</time></trkpt><trkpt lat="39.93290102683578" lon="15.962105755892747"><ele>501.0</ele><time>2026-03-22T12:07:36.999Z</time></trkpt><trkpt lat="39.93259559421945" lon="15.962363451401567"><ele>501.0</ele><time>2026-03-22T12:07:37.999Z</time></trkpt><trkpt lat="39.93228621279657" lon="15.962619751548706"><ele>501.0</ele><time>2026-03-22T12:07:38.999Z</time></trkpt><trkpt lat="39.93197741987552" lon="15.962869200056051"><ele>494.0</ele><time>2026-03-22T12:07:39.999Z</time></trkpt><trkpt lat="39.9316638558223" lon="15.9631091674628"><ele>487.0</ele><time>2026-03-22T12:07:40.999Z</time></trkpt><trkpt lat="39.93134671536633" lon="15.963338938307121"><ele>497.5</ele><time>2026-03-22T12:07:41.999Z</time></trkpt><trkpt lat="39.93102609559282" lon="15.963556527235024"><ele>508.0</ele><time>2026-03-22T12:07:42.999Z</time></trkpt><trkpt lat="39.93070029515474" lon="15.963758224541861"><ele>508.0</ele><time>2026-03-22T12:07:43.999Z</time></trkpt><trkpt lat="39.93037274329905" lon="15.963949617351702"><ele>508.0</ele><time>2026-03-22T12:07:44.999Z</time></trkpt><trkpt lat="39.93003987319435" lon="15.964128262186858"><ele>516.5</ele><time>2026-03-22T12:07:45.999Z</time></trkpt><trkpt lat="39.929707077272745" lon="15.964292954740198"><ele>525.0</ele><time>2026-03-22T12:07:46.999Z</time></trkpt><trkpt lat="39.92937133320719" lon="15.964448037130659"><ele>531.0</ele><time>2026-03-22T12:07:47.999Z</time></trkpt><trkpt lat="39.929037870665404" lon="15.964597531774785"><ele>537.0</ele><time>2026-03-22T12:07:48.999Z</time></trkpt><trkpt lat="39.92870593039159" lon="15.964747322021589"><ele>542.0</ele><time>2026-03-22T12:07:49.999Z</time></trkpt><trkpt lat="39.92837321396092" lon="15.964897626897574"><ele>547.0</ele><time>2026-03-22T12:07:51Z</time></trkpt><trkpt lat="39.92804052163682" lon="15.96504535573126"><ele>549.0</ele><time>2026-03-22T12:07:52Z</time></trkpt><trkpt lat="39.92767606104005" lon="15.965172463928559"><ele>551.0</ele><time>2026-03-22T12:07:53.076Z</time></trkpt><trkpt lat="39.9273408267784" lon="15.965304313723816"><ele>548.5</ele><time>2026-03-22T12:07:54.072Z</time></trkpt><trkpt lat="39.927004106669386" lon="15.965435400539533"><ele>546.0</ele><time>2026-03-22T12:07:55.072Z</time></trkpt><trkpt lat="39.92504702539206" lon="15.96611328150624"><ele>536.0</ele><time>2026-03-22T12:07:58.254Z</time></trkpt><trkpt lat="39.924116592883536" lon="15.966513673912704"><ele>536.0</ele><time>2026-03-22T12:08:03Z</time></trkpt><trkpt lat="39.92377046151558" lon="15.966651416529485"><ele>536.0</ele><time>2026-03-22T12:08:04Z</time></trkpt><trkpt lat="39.92343330737745" lon="15.966775134432904"><ele>543.0</ele><time>2026-03-22T12:08:05Z</time></trkpt><trkpt lat="39.92308795602322" lon="15.966914939180825"><ele>550.0</ele><time>2026-03-22T12:08:06Z</time></trkpt><trkpt lat="39.92273788521303" lon="15.96704911203118"><ele>546.5</ele><time>2026-03-22T12:08:07Z</time></trkpt><trkpt lat="39.92239061720436" lon="15.967179950175034"><ele>543.0</ele><time>2026-03-22T12:08:08Z</time></trkpt><trkpt lat="39.92204319643806" lon="15.96729345069169"><ele>542.5</ele><time>2026-03-22T12:08:09Z</time></trkpt><trkpt lat="39.921701297702114" lon="15.967409049320032"><ele>542.0</ele><time>2026-03-22T12:08:10Z</time></trkpt><trkpt lat="39.921343993944554" lon="15.967487984042123"><ele>555.5</ele><time>2026-03-22T12:08:11Z</time></trkpt><trkpt lat="39.920987328154105" lon="15.967541950341872"><ele>569.0</ele><time>2026-03-22T12:08:12Z</time></trkpt><trkpt lat="39.920630651392685" lon="15.967568697589568"><ele>569.0</ele><time>2026-03-22T12:08:13Z</time></trkpt><trkpt lat="39.92027352343285" lon="15.967572865021705"><ele>569.0</ele><time>2026-03-22T12:08:14Z</time></trkpt><trkpt lat="39.91991495424269" lon="15.96755685719146"><ele>562.5</ele><time>2026-03-22T12:08:15Z</time></trkpt><trkpt lat="39.919558133044106" lon="15.967518885381267"><ele>556.0</ele><time>2026-03-22T12:08:16Z</time></trkpt><trkpt lat="39.919203730550976" lon="15.967456386596737"><ele>556.0</ele><time>2026-03-22T12:08:17Z</time></trkpt><trkpt lat="39.91885124077706" lon="15.967372234441465"><ele>556.0</ele><time>2026-03-22T12:08:18Z</time></trkpt><trkpt lat="39.91850124137432" lon="15.96726117448384"><ele>560.5</ele><time>2026-03-22T12:08:19Z</time></trkpt><trkpt lat="39.9181570911982" lon="15.967127204932652"><ele>565.0</ele><time>2026-03-22T12:08:20Z</time></trkpt><trkpt lat="39.91781785954357" lon="15.966972189021867"><ele>564.0</ele><time>2026-03-22T12:08:21Z</time></trkpt><trkpt lat="39.91748484804124" lon="15.966801807189823"><ele>563.0</ele><time>2026-03-22T12:08:22Z</time></trkpt><trkpt lat="39.9171581127266" lon="15.966610931965059"><ele>563.0</ele><time>2026-03-22T12:08:23Z</time></trkpt><trkpt lat="39.91683362624408" lon="15.966408334396322"><ele>563.0</ele><time>2026-03-22T12:08:24Z</time></trkpt><trkpt lat="39.916510223918664" lon="15.966204467874153"><ele>566.5</ele><time>2026-03-22T12:08:25Z</time></trkpt><trkpt lat="39.91618746938504" lon="15.966001374462833"><ele>570.0</ele><time>2026-03-22T12:08:26Z</time></trkpt><trkpt lat="39.9158640860824" lon="15.965797044133478"><ele>570.0</ele><time>2026-03-22T12:08:27Z</time></trkpt><trkpt lat="39.9155390151764" lon="15.965590534513252"><ele>570.0</ele><time>2026-03-22T12:08:28Z</time></trkpt><trkpt lat="39.91521567896469" lon="15.965385648122664"><ele>571.5</ele><time>2026-03-22T12:08:29Z</time></trkpt><trkpt lat="39.91489057407079" lon="15.965180854735035"><ele>573.0</ele><time>2026-03-22T12:08:30Z</time></trkpt><trkpt lat="39.91456739433005" lon="15.96498159587831"><ele>573.0</ele><time>2026-03-22T12:08:31Z</time></trkpt><trkpt lat="39.91424067616626" lon="15.964779257455938"><ele>573.0</ele><time>2026-03-22T12:08:32Z</time></trkpt><trkpt lat="39.91391779696956" lon="15.964578540102353"><ele>574.5</ele><time>2026-03-22T12:08:33Z</time></trkpt><trkpt lat="39.91359409865371" lon="15.964376402791546"><ele>576.0</ele><time>2026-03-22T12:08:34Z</time></trkpt><trkpt lat="39.913271638142206" lon="15.964175191255592"><ele>581.5</ele><time>2026-03-22T12:08:35Z</time></trkpt><trkpt lat="39.91294455268514" lon="15.963974588721756"><ele>587.0</ele><time>2026-03-22T12:08:36Z</time></trkpt><trkpt lat="39.91261817561263" lon="15.963772505309926"><ele>590.5</ele><time>2026-03-22T12:08:37Z</time></trkpt><trkpt lat="39.91229250124306" lon="15.963569691420263"><ele>594.0</ele><time>2026-03-22T12:08:38Z</time></trkpt><trkpt lat="39.91196587681492" lon="15.96336624871305"><ele>594.5</ele><time>2026-03-22T12:08:39Z</time></trkpt><trkpt lat="39.911639984888545" lon="15.963163141783136"><ele>595.0</ele><time>2026-03-22T12:08:40Z</time></trkpt><trkpt lat="39.911312678094525" lon="15.962966007459272"><ele>595.0</ele><time>2026-03-22T12:08:41Z</time></trkpt><trkpt lat="39.910982990971426" lon="15.962786317380978"><ele>595.0</ele><time>2026-03-22T12:08:42Z</time></trkpt><trkpt lat="39.910646119963225" lon="15.962631770254836"><ele>595.0</ele><time>2026-03-22T12:08:42.999Z</time></trkpt><trkpt lat="39.91030218782189" lon="15.962500326884525"><ele>595.0</ele><time>2026-03-22T12:08:43.999Z</time></trkpt><trkpt lat="39.9099553332095" lon="15.962390126787358"><ele>597.0</ele><time>2026-03-22T12:08:44.999Z</time></trkpt><trkpt lat="39.90960994030435" lon="15.962272200509112"><ele>599.0</ele><time>2026-03-22T12:08:45.999Z</time></trkpt><trkpt lat="39.90926893373172" lon="15.96214875617057"><ele>603.5</ele><time>2026-03-22T12:08:46.999Z</time></trkpt><trkpt lat="39.90888947068043" lon="15.962204627353819"><ele>608.0</ele><time>2026-03-22T12:08:47.999Z</time></trkpt><trkpt lat="39.90852973140724" lon="15.96219797473919"><ele>612.0</ele><time>2026-03-22T12:08:48.999Z</time></trkpt><trkpt lat="39.908170004341365" lon="15.96222148868383"><ele>616.0</ele><time>2026-03-22T12:08:49.999Z</time></trkpt><trkpt lat="39.90781258917124" lon="15.96226985672041"><ele>614.5</ele><time>2026-03-22T12:08:50.999Z</time></trkpt><trkpt lat="39.90745803005177" lon="15.962348154504351"><ele>613.0</ele><time>2026-03-22T12:08:51.999Z</time></trkpt><trkpt lat="39.90710502422189" lon="15.962454864215339"><ele>615.0</ele><time>2026-03-22T12:08:52.999Z</time></trkpt><trkpt lat="39.90675794850236" lon="15.962588015933052"><ele>617.0</ele><time>2026-03-22T12:08:53.999Z</time></trkpt><trkpt lat="39.90641798753541" lon="15.962750203988124"><ele>617.0</ele><time>2026-03-22T12:08:54.999Z</time></trkpt><trkpt lat="39.906090563917836" lon="15.962949931217205"><ele>617.0</ele><time>2026-03-22T12:08:55.999Z</time></trkpt><trkpt lat="39.90578266318937" lon="15.963181711061953"><ele>623.0</ele><time>2026-03-22T12:08:56.999Z</time></trkpt><trkpt lat="39.90547982836969" lon="15.963432941042925"><ele>629.0</ele><time>2026-03-22T12:08:57.999Z</time></trkpt><trkpt lat="39.9051879055367" lon="15.963713091432862"><ele>630.5</ele><time>2026-03-22T12:08:58.999Z</time></trkpt><trkpt lat="39.90491437887659" lon="15.964016952108969"><ele>632.0</ele><time>2026-03-22T12:08:59.999Z</time></trkpt><trkpt lat="39.90466166403444" lon="15.964346918741946"><ele>632.0</ele><time>2026-03-22T12:09:00.999Z</time></trkpt><trkpt lat="39.90442766964392" lon="15.964703056905297"><ele>632.0</ele><time>2026-03-22T12:09:01.999Z</time></trkpt><trkpt lat="39.90420757114328" lon="15.965070671985258"><ele>644.5</ele><time>2026-03-22T12:09:02.999Z</time></trkpt><trkpt lat="39.90399472621658" lon="15.965452476537418"><ele>657.0</ele><time>2026-03-22T12:09:03.999Z</time></trkpt><trkpt lat="39.90379125387973" lon="15.965847907879422"><ele>670.5</ele><time>2026-03-22T12:09:04.999Z</time></trkpt><trkpt lat="39.90358877497273" lon="15.96626652338722"><ele>684.0</ele><time>2026-03-22T12:09:05.999Z</time></trkpt><trkpt lat="39.903388232594196" lon="15.966690463319857"><ele>716.5</ele><time>2026-03-22T12:09:06.999Z</time></trkpt><trkpt lat="39.90318994828724" lon="15.967105264794885"><ele>749.0</ele><time>2026-03-22T12:09:07.999Z</time></trkpt><trkpt lat="39.90299794412043" lon="15.96752628062105"><ele>750.0</ele><time>2026-03-22T12:09:08.999Z</time></trkpt><trkpt lat="39.90281334566329" lon="15.96795343575585"><ele>751.0</ele><time>2026-03-22T12:09:09.999Z</time></trkpt><trkpt lat="39.9026260708968" lon="15.968381505606413"><ele>756.0</ele><time>2026-03-22T12:09:10.999Z</time></trkpt><trkpt lat="39.90247737733269" lon="15.96876143999084"><ele>761.0</ele><time>2026-03-22T12:09:11.999Z</time></trkpt><trkpt lat="39.90230485609037" lon="15.969183048819367"><ele>747.5</ele><time>2026-03-22T12:09:12.999Z</time></trkpt><trkpt lat="39.902126722687036" lon="15.969600829497288"><ele>734.0</ele><time>2026-03-22T12:09:13.999Z</time></trkpt><trkpt lat="39.90195203186655" lon="15.970020819312348"><ele>721.0</ele><time>2026-03-22T12:09:14.999Z</time></trkpt><trkpt lat="39.90177753862647" lon="15.970439724354994"><ele>708.0</ele><time>2026-03-22T12:09:15.999Z</time></trkpt><trkpt lat="39.90160868421359" lon="15.970860287123266"><ele>700.0</ele><time>2026-03-22T12:09:16.999Z</time></trkpt><trkpt lat="39.90143721184467" lon="15.971277512461556"><ele>692.0</ele><time>2026-03-22T12:09:17.999Z</time></trkpt><trkpt lat="39.90126183022969" lon="15.971685845071379"><ele>688.0</ele><time>2026-03-22T12:09:18.999Z</time></trkpt><trkpt lat="39.90108539647304" lon="15.972096172116636"><ele>684.0</ele><time>2026-03-22T12:09:19.999Z</time></trkpt><trkpt lat="39.90090907797992" lon="15.972504792298137"><ele>675.5</ele><time>2026-03-22T12:09:20.999Z</time></trkpt><trkpt lat="39.900739558308324" lon="15.972918874698468"><ele>667.0</ele><time>2026-03-22T12:09:21.999Z</time></trkpt><trkpt lat="39.90057513962331" lon="15.973333967561272"><ele>663.5</ele><time>2026-03-22T12:09:22.999Z</time></trkpt><trkpt lat="39.90040544186035" lon="15.973741193238812"><ele>660.0</ele><time>2026-03-22T12:09:23.999Z</time></trkpt><trkpt lat="39.900209654640584" lon="15.97413088621226"><ele>662.0</ele><time>2026-03-22T12:09:24.999Z</time></trkpt><trkpt lat="39.90005743622126" lon="15.974527563839251"><ele>664.0</ele><time>2026-03-22T12:09:25.999Z</time></trkpt><trkpt lat="39.89991956899548" lon="15.974956806908285"><ele>661.5</ele><time>2026-03-22T12:09:26.999Z</time></trkpt><trkpt lat="39.899753976181096" lon="15.975387152049812"><ele>659.0</ele><time>2026-03-22T12:09:27.999Z</time></trkpt><trkpt lat="39.899568958285684" lon="15.975783786712833"><ele>655.0</ele><time>2026-03-22T12:09:28.999Z</time></trkpt><trkpt lat="39.89935753781319" lon="15.976158351047816"><ele>651.0</ele><time>2026-03-22T12:09:29.999Z</time></trkpt><trkpt lat="39.899132657339536" lon="15.976515247448669"><ele>657.5</ele><time>2026-03-22T12:09:30.999Z</time></trkpt><trkpt lat="39.898892165003176" lon="15.976860227476708"><ele>664.0</ele><time>2026-03-22T12:09:31.999Z</time></trkpt><trkpt lat="39.898636720674915" lon="15.977185079233548"><ele>682.0</ele><time>2026-03-22T12:09:32.999Z</time></trkpt><trkpt lat="39.89836932762074" lon="15.977484093583161"><ele>700.0</ele><time>2026-03-22T12:09:33.999Z</time></trkpt><trkpt lat="39.89809368025494" lon="15.977761795408716"><ele>700.0</ele><time>2026-03-22T12:09:34.999Z</time></trkpt><trkpt lat="39.89781475872384" lon="15.978024511958774"><ele>700.0</ele><time>2026-03-22T12:09:35.999Z</time></trkpt><trkpt lat="39.89753488441081" lon="15.978283252430336"><ele>695.5</ele><time>2026-03-22T12:09:36.999Z</time></trkpt><trkpt lat="39.897258679432866" lon="15.978542490916494"><ele>691.0</ele><time>2026-03-22T12:09:37.999Z</time></trkpt><trkpt lat="39.896980553505514" lon="15.978802254140708"><ele>699.5</ele><time>2026-03-22T12:09:38.999Z</time></trkpt><trkpt lat="39.896698219105694" lon="15.979061047685269"><ele>708.0</ele><time>2026-03-22T12:09:39.999Z</time></trkpt><trkpt lat="39.896413807655" lon="15.979320409486359"><ele>697.0</ele><time>2026-03-22T12:09:40.999Z</time></trkpt><trkpt lat="39.89612962490745" lon="15.979575748295542"><ele>686.0</ele><time>2026-03-22T12:09:41.999Z</time></trkpt><trkpt lat="39.895846586648375" lon="15.97983001150538"><ele>686.0</ele><time>2026-03-22T12:09:42.999Z</time></trkpt><trkpt lat="39.895096634443" lon="15.97935322495938"><ele>696.0</ele><time>2026-03-22T12:09:43.999Z</time></trkpt><trkpt lat="39.89474149299518" lon="15.979423062169094"><ele>706.0</ele><time>2026-03-22T12:09:44.999Z</time></trkpt><trkpt lat="39.89438499131715" lon="15.979471757764275"><ele>719.5</ele><time>2026-03-22T12:09:45.999Z</time></trkpt><trkpt lat="39.89402797197799" lon="15.979493587978745"><ele>733.0</ele><time>2026-03-22T12:09:46.999Z</time></trkpt><trkpt lat="39.8936740938289" lon="15.979491885633669"><ele>739.5</ele><time>2026-03-22T12:09:47.999Z</time></trkpt><trkpt lat="39.89332269231766" lon="15.97947244881514"><ele>746.0</ele><time>2026-03-22T12:09:48.999Z</time></trkpt><trkpt lat="39.89297140998442" lon="15.979444556765742"><ele>746.0</ele><time>2026-03-22T12:09:49.999Z</time></trkpt><trkpt lat="39.89261520831115" lon="15.979420661563823"><ele>746.0</ele><time>2026-03-22T12:09:50.999Z</time></trkpt><trkpt lat="39.89226688598029" lon="15.979370464268685"><ele>744.0</ele><time>2026-03-22T12:09:51.999Z</time></trkpt><trkpt lat="39.89192227921324" lon="15.97931343844891"><ele>742.0</ele><time>2026-03-22T12:09:52.999Z</time></trkpt><trkpt lat="39.89156972563517" lon="15.979267994852586"><ele>742.0</ele><time>2026-03-22T12:09:53.999Z</time></trkpt><trkpt lat="39.89121481643671" lon="15.97922262468351"><ele>742.0</ele><time>2026-03-22T12:09:54.999Z</time></trkpt><trkpt lat="39.890855656648554" lon="15.979173600984678"><ele>762.0</ele><time>2026-03-22T12:09:55.999Z</time></trkpt><trkpt lat="39.89049145680494" lon="15.979133561681824"><ele>782.0</ele><time>2026-03-22T12:09:57Z</time></trkpt><trkpt lat="39.89013786950199" lon="15.979116977085486"><ele>775.5</ele><time>2026-03-22T12:09:58Z</time></trkpt><trkpt lat="39.88978886781316" lon="15.979116821397255"><ele>769.0</ele><time>2026-03-22T12:09:59Z</time></trkpt><trkpt lat="39.88945040878844" lon="15.979135790382728"><ele>769.5</ele><time>2026-03-22T12:10:00Z</time></trkpt><trkpt lat="39.889119988363966" lon="15.97916937938838"><ele>770.0</ele><time>2026-03-22T12:10:01Z</time></trkpt><trkpt lat="39.88878735381" lon="15.979217007745019"><ele>770.0</ele><time>2026-03-22T12:10:02Z</time></trkpt><trkpt lat="39.8884470116148" lon="15.979282651328793"><ele>770.0</ele><time>2026-03-22T12:10:03Z</time></trkpt><trkpt lat="39.88811649476198" lon="15.979361815850808"><ele>773.0</ele><time>2026-03-22T12:10:04Z</time></trkpt><trkpt lat="39.88776060662411" lon="15.97945146783474"><ele>776.0</ele><time>2026-03-22T12:10:05Z</time></trkpt><trkpt lat="39.88739559749982" lon="15.979557302719723"><ele>780.0</ele><time>2026-03-22T12:10:06Z</time></trkpt><trkpt lat="39.88703951077802" lon="15.979676868153643"><ele>784.0</ele><time>2026-03-22T12:10:07Z</time></trkpt><trkpt lat="39.88669469551294" lon="15.979809260627832"><ele>782.0</ele><time>2026-03-22T12:10:08Z</time></trkpt><trkpt lat="39.886367182193716" lon="15.979953375164436"><ele>780.0</ele><time>2026-03-22T12:10:09Z</time></trkpt><trkpt lat="39.88601221151905" lon="15.980109177291173"><ele>795.0</ele><time>2026-03-22T12:10:10Z</time></trkpt><trkpt lat="39.885642862686765" lon="15.980283489150288"><ele>810.0</ele><time>2026-03-22T12:10:11Z</time></trkpt><trkpt lat="39.88530732871928" lon="15.980474413819625"><ele>810.5</ele><time>2026-03-22T12:10:12Z</time></trkpt><trkpt lat="39.88501155949577" lon="15.980669681737428"><ele>811.0</ele><time>2026-03-22T12:10:13Z</time></trkpt><trkpt lat="39.88475939738733" lon="15.980865098116126"><ele>792.5</ele><time>2026-03-22T12:10:14Z</time></trkpt><trkpt lat="39.88450244390322" lon="15.981077033013701"><ele>774.0</ele><time>2026-03-22T12:10:15Z</time></trkpt><trkpt lat="39.884288250299235" lon="15.981292572452757"><ele>783.5</ele><time>2026-03-22T12:10:16Z</time></trkpt><trkpt lat="39.88405516982156" lon="15.981528142963121"><ele>793.0</ele><time>2026-03-22T12:10:17Z</time></trkpt><trkpt lat="39.88379386408101" lon="15.981743281379766"><ele>793.0</ele><time>2026-03-22T12:10:18Z</time></trkpt><trkpt lat="39.88354871972347" lon="15.981968254388994"><ele>793.0</ele><time>2026-03-22T12:10:19Z</time></trkpt><trkpt lat="39.8832766011582" lon="15.982231916142887"><ele>797.5</ele><time>2026-03-22T12:10:20Z</time></trkpt><trkpt lat="39.88305843173505" lon="15.982457924152513"><ele>802.0</ele><time>2026-03-22T12:10:21Z</time></trkpt><trkpt lat="39.88280595176453" lon="15.982731695305766"><ele>805.5</ele><time>2026-03-22T12:10:22Z</time></trkpt><trkpt lat="39.882536872284355" lon="15.983042652705716"><ele>809.0</ele><time>2026-03-22T12:10:23.008Z</time></trkpt><trkpt lat="39.88112896592754" lon="15.984920035425244"><ele>767.0</ele><time>2026-03-22T12:10:26.252Z</time></trkpt><trkpt lat="39.88042581695408" lon="15.986135052906494"><ele>738.0</ele><time>2026-03-22T12:10:27.252Z</time></trkpt><trkpt lat="39.8797627947796" lon="15.987441762037665"><ele>742.5</ele><time>2026-03-22T12:10:33Z</time></trkpt><trkpt lat="39.87954548634183" lon="15.987814062342329"><ele>747.0</ele><time>2026-03-22T12:10:34Z</time></trkpt><trkpt lat="39.879294393449314" lon="15.988220244165923"><ele>758.5</ele><time>2026-03-22T12:10:35Z</time></trkpt><trkpt lat="39.87908953722245" lon="15.988608032376442"><ele>770.0</ele><time>2026-03-22T12:10:36Z</time></trkpt><trkpt lat="39.87885793639633" lon="15.989005771443507"><ele>770.5</ele><time>2026-03-22T12:10:37Z</time></trkpt><trkpt lat="39.87863579197876" lon="15.989386568924514"><ele>771.0</ele><time>2026-03-22T12:10:38Z</time></trkpt><trkpt lat="39.87841150263446" lon="15.989776917310492"><ele>776.0</ele><time>2026-03-22T12:10:39Z</time></trkpt><trkpt lat="39.8781928312816" lon="15.990161261875945"><ele>781.0</ele><time>2026-03-22T12:10:40Z</time></trkpt><trkpt lat="39.877980488963495" lon="15.990550229715257"><ele>778.5</ele><time>2026-03-22T12:10:41Z</time></trkpt><trkpt lat="39.877774318050406" lon="15.99094155775107"><ele>776.0</ele><time>2026-03-22T12:10:42Z</time></trkpt><trkpt lat="39.87757979432165" lon="15.991342373722604"><ele>776.0</ele><time>2026-03-22T12:10:43Z</time></trkpt><trkpt lat="39.87740489139262" lon="15.991755602760197"><ele>776.0</ele><time>2026-03-22T12:10:44Z</time></trkpt><trkpt lat="39.877251433614305" lon="15.992183427756082"><ele>778.5</ele><time>2026-03-22T12:10:45Z</time></trkpt><trkpt lat="39.87712402735818" lon="15.99262050575952"><ele>781.0</ele><time>2026-03-22T12:10:46Z</time></trkpt><trkpt lat="39.87703086489825" lon="15.993065531407918"><ele>782.5</ele><time>2026-03-22T12:10:47Z</time></trkpt><trkpt lat="39.87696068069996" lon="15.99352162113258"><ele>784.0</ele><time>2026-03-22T12:10:48Z</time></trkpt><trkpt lat="39.87691875542991" lon="15.993986697741285"><ele>784.0</ele><time>2026-03-22T12:10:48.999Z</time></trkpt><trkpt lat="39.87690210040304" lon="15.994450818548035"><ele>784.0</ele><time>2026-03-22T12:10:49.999Z</time></trkpt><trkpt lat="39.876906881484146" lon="15.99491482120965"><ele>783.0</ele><time>2026-03-22T12:10:50.999Z</time></trkpt><trkpt lat="39.87693721220741" lon="15.995377656164981"><ele>782.0</ele><time>2026-03-22T12:10:51.999Z</time></trkpt><trkpt lat="39.8769823099433" lon="15.995838454468494"><ele>781.5</ele><time>2026-03-22T12:10:52.999Z</time></trkpt><trkpt lat="39.87704212102501" lon="15.996303794192036"><ele>781.0</ele><time>2026-03-22T12:10:53.999Z</time></trkpt><trkpt lat="39.877116812347964" lon="15.996763174293992"><ele>781.0</ele><time>2026-03-22T12:10:54.999Z</time></trkpt><trkpt lat="39.87719463621496" lon="15.997221523149733"><ele>781.0</ele><time>2026-03-22T12:10:55.999Z</time></trkpt><trkpt lat="39.87727441720584" lon="15.997683086133936"><ele>781.5</ele><time>2026-03-22T12:10:56.999Z</time></trkpt><trkpt lat="39.87741860482197" lon="15.998163544783406"><ele>782.0</ele><time>2026-03-22T12:10:57.999Z</time></trkpt><trkpt lat="39.87750721968161" lon="15.99862087185047"><ele>782.0</ele><time>2026-03-22T12:10:58.999Z</time></trkpt><trkpt lat="39.87758926686376" lon="15.999079912800028"><ele>782.0</ele><time>2026-03-22T12:10:59.999Z</time></trkpt><trkpt lat="39.8776678159772" lon="15.999543730813421"><ele>789.0</ele><time>2026-03-22T12:11:00.999Z</time></trkpt><trkpt lat="39.87775881117911" lon="16.0000066895376"><ele>796.0</ele><time>2026-03-22T12:11:01.999Z</time></trkpt><trkpt lat="39.877845470044406" lon="16.00046610172589"><ele>796.5</ele><time>2026-03-22T12:11:02.999Z</time></trkpt><trkpt lat="39.87792655129248" lon="16.00092494153394"><ele>797.0</ele><time>2026-03-22T12:11:03.999Z</time></trkpt><trkpt lat="39.878009282864106" lon="16.00138251315589"><ele>796.5</ele><time>2026-03-22T12:11:04.999Z</time></trkpt><trkpt lat="39.878091721784074" lon="16.001846925102154"><ele>796.0</ele><time>2026-03-22T12:11:05.999Z</time></trkpt><trkpt lat="39.87817327232835" lon="16.002309425908326"><ele>796.0</ele><time>2026-03-22T12:11:06.999Z</time></trkpt><trkpt lat="39.87825318887821" lon="16.002763113092737"><ele>796.0</ele><time>2026-03-22T12:11:07.999Z</time></trkpt><trkpt lat="39.878334362881105" lon="16.003215743745994"><ele>797.0</ele><time>2026-03-22T12:11:08.999Z</time></trkpt><trkpt lat="39.878419893043635" lon="16.003667287585955"><ele>798.0</ele><time>2026-03-22T12:11:09.999Z</time></trkpt><trkpt lat="39.87849652297845" lon="16.004120950570833"><ele>808.5</ele><time>2026-03-22T12:11:10.999Z</time></trkpt><trkpt lat="39.878578456273175" lon="16.004578227780097"><ele>819.0</ele><time>2026-03-22T12:11:11.999Z</time></trkpt><trkpt lat="39.8786620976175" lon="16.00503595545732"><ele>821.5</ele><time>2026-03-22T12:11:12.999Z</time></trkpt><trkpt lat="39.87875100249393" lon="16.005491108889537"><ele>824.0</ele><time>2026-03-22T12:11:13.999Z</time></trkpt><trkpt lat="39.87884916121996" lon="16.005943144389395"><ele>824.0</ele><time>2026-03-22T12:11:14.999Z</time></trkpt><trkpt lat="39.87896162974016" lon="16.006386910388628"><ele>824.0</ele><time>2026-03-22T12:11:15.999Z</time></trkpt><trkpt lat="39.87909365991431" lon="16.006821011616097"><ele>823.5</ele><time>2026-03-22T12:11:16.999Z</time></trkpt><trkpt lat="39.87924710079478" lon="16.007240981025927"><ele>823.0</ele><time>2026-03-22T12:11:17.999Z</time></trkpt><trkpt lat="39.87941812674908" lon="16.007647083344615"><ele>824.5</ele><time>2026-03-22T12:11:18.999Z</time></trkpt><trkpt lat="39.87960704064449" lon="16.008040597620855"><ele>826.0</ele><time>2026-03-22T12:11:19.999Z</time></trkpt><trkpt lat="39.87981588261205" lon="16.0084202169306"><ele>826.0</ele><time>2026-03-22T12:11:20.999Z</time></trkpt><trkpt lat="39.88003776335386" lon="16.00878391820314"><ele>826.0</ele><time>2026-03-22T12:11:21.999Z</time></trkpt><trkpt lat="39.88027579361522" lon="16.009134098575142"><ele>828.0</ele><time>2026-03-22T12:11:22.999Z</time></trkpt><trkpt lat="39.8805264841457" lon="16.009466935489083"><ele>830.0</ele><time>2026-03-22T12:11:23.999Z</time></trkpt><trkpt lat="39.880791234182794" lon="16.00978294359061"><ele>831.5</ele><time>2026-03-22T12:11:24.999Z</time></trkpt><trkpt lat="39.88106736822795" lon="16.010085172794682"><ele>833.0</ele><time>2026-03-22T12:11:25.999Z</time></trkpt><trkpt lat="39.88135108866688" lon="16.010378887493687"><ele>833.0</ele><time>2026-03-22T12:11:26.999Z</time></trkpt><trkpt lat="39.8816346946668" lon="16.010671758263957"><ele>833.0</ele><time>2026-03-22T12:11:27.999Z</time></trkpt><trkpt lat="39.881916337375486" lon="16.010971960030542"><ele>836.0</ele><time>2026-03-22T12:11:28.999Z</time></trkpt><trkpt lat="39.882192122441126" lon="16.011280824648495"><ele>839.0</ele><time>2026-03-22T12:11:29.999Z</time></trkpt><trkpt lat="39.88245969523111" lon="16.0115986496664"><ele>840.5</ele><time>2026-03-22T12:11:30.999Z</time></trkpt><trkpt lat="39.882718361292255" lon="16.011927156422615"><ele>842.0</ele><time>2026-03-22T12:11:31.999Z</time></trkpt><trkpt lat="39.88296355416914" lon="16.012263983496894"><ele>841.5</ele><time>2026-03-22T12:11:32.999Z</time></trkpt><trkpt lat="39.88319564428165" lon="16.01261517158588"><ele>841.0</ele><time>2026-03-22T12:11:33.999Z</time></trkpt><trkpt lat="39.88341185475362" lon="16.012985893625647"><ele>851.5</ele><time>2026-03-22T12:11:34.999Z</time></trkpt><trkpt lat="39.88359987120673" lon="16.01337715715404"><ele>862.0</ele><time>2026-03-22T12:11:35.999Z</time></trkpt><trkpt lat="39.883763658292324" lon="16.013785575985004"><ele>863.0</ele><time>2026-03-22T12:11:36.999Z</time></trkpt><trkpt lat="39.88391285861895" lon="16.01420579412205"><ele>864.0</ele><time>2026-03-22T12:11:37.999Z</time></trkpt><trkpt lat="39.884039693425514" lon="16.014636450340344"><ele>862.0</ele><time>2026-03-22T12:11:38.999Z</time></trkpt><trkpt lat="39.884147743222584" lon="16.015080613876155"><ele>860.0</ele><time>2026-03-22T12:11:39.999Z</time></trkpt><trkpt lat="39.884233782457365" lon="16.015530918651702"><ele>884.0</ele><time>2026-03-22T12:11:40.999Z</time></trkpt><trkpt lat="39.88430371465831" lon="16.015985461119577"><ele>908.0</ele><time>2026-03-22T12:11:41.999Z</time></trkpt><trkpt lat="39.88437043828025" lon="16.016443015146272"><ele>902.5</ele><time>2026-03-22T12:11:42.999Z</time></trkpt><trkpt lat="39.884439772192266" lon="16.01690140554046"><ele>897.0</ele><time>2026-03-22T12:11:43.999Z</time></trkpt><trkpt lat="39.88451665895851" lon="16.01735830893395"><ele>892.5</ele><time>2026-03-22T12:11:44.999Z</time></trkpt><trkpt lat="39.88459808424971" lon="16.01781753416102"><ele>888.0</ele><time>2026-03-22T12:11:45.999Z</time></trkpt><trkpt lat="39.88467919709889" lon="16.01827754771843"><ele>884.5</ele><time>2026-03-22T12:11:46.999Z</time></trkpt><trkpt lat="39.884760324158606" lon="16.01873782617698"><ele>881.0</ele><time>2026-03-22T12:11:47.999Z</time></trkpt><trkpt lat="39.884843193433184" lon="16.019196660757306"><ele>877.5</ele><time>2026-03-22T12:11:48.999Z</time></trkpt><trkpt lat="39.884933076890334" lon="16.019652377777646"><ele>874.0</ele><time>2026-03-22T12:11:49.999Z</time></trkpt><trkpt lat="39.885034387216976" lon="16.020101645900233"><ele>876.5</ele><time>2026-03-22T12:11:50.999Z</time></trkpt><trkpt lat="39.88514887369769" lon="16.02054594661114"><ele>879.0</ele><time>2026-03-22T12:11:51.999Z</time></trkpt><trkpt lat="39.88527080519136" lon="16.020986073869175"><ele>879.0</ele><time>2026-03-22T12:11:52.999Z</time></trkpt><trkpt lat="39.885396741719944" lon="16.02142742702017"><ele>879.0</ele><time>2026-03-22T12:11:53.999Z</time></trkpt><trkpt lat="39.88552231312682" lon="16.021868445629238"><ele>878.0</ele><time>2026-03-22T12:11:54.999Z</time></trkpt><trkpt lat="39.885647234568616" lon="16.022311987271568"><ele>877.0</ele><time>2026-03-22T12:11:55.999Z</time></trkpt><trkpt lat="39.88577002324814" lon="16.022757006091062"><ele>880.0</ele><time>2026-03-22T12:11:56.999Z</time></trkpt><trkpt lat="39.88589154066447" lon="16.023200622116775"><ele>883.0</ele><time>2026-03-22T12:11:57.999Z</time></trkpt><trkpt lat="39.88601478407549" lon="16.0236473732878"><ele>890.5</ele><time>2026-03-22T12:11:58.999Z</time></trkpt><trkpt lat="39.88614219771084" lon="16.024086795529218"><ele>898.0</ele><time>2026-03-22T12:11:59.999Z</time></trkpt><trkpt lat="39.88627828830647" lon="16.02452150692554"><ele>898.0</ele><time>2026-03-22T12:12:00.999Z</time></trkpt><trkpt lat="39.88642611909045" lon="16.024953662611793"><ele>898.0</ele><time>2026-03-22T12:12:02Z</time></trkpt><trkpt lat="39.88658529491312" lon="16.025373902616842"><ele>898.0</ele><time>2026-03-22T12:12:03Z</time></trkpt><trkpt lat="39.88675784729177" lon="16.025785923332105"><ele>898.0</ele><time>2026-03-22T12:12:04Z</time></trkpt><trkpt lat="39.886943749978606" lon="16.02618898047207"><ele>901.5</ele><time>2026-03-22T12:12:05Z</time></trkpt><trkpt lat="39.88713705890093" lon="16.026583713051668"><ele>905.0</ele><time>2026-03-22T12:12:06Z</time></trkpt><trkpt lat="39.887329547813245" lon="16.026981817501643"><ele>905.0</ele><time>2026-03-22T12:12:07Z</time></trkpt><trkpt lat="39.88751500779548" lon="16.027386944496673"><ele>905.0</ele><time>2026-03-22T12:12:08Z</time></trkpt><trkpt lat="39.887691968833494" lon="16.027798884651023"><ele>908.0</ele><time>2026-03-22T12:12:09Z</time></trkpt><trkpt lat="39.88785744267711" lon="16.028216453333908"><ele>911.0</ele><time>2026-03-22T12:12:10Z</time></trkpt><trkpt lat="39.888008663675066" lon="16.028645094252813"><ele>913.5</ele><time>2026-03-22T12:12:11Z</time></trkpt><trkpt lat="39.88814347074747" lon="16.02907808508906"><ele>916.0</ele><time>2026-03-22T12:12:12Z</time></trkpt><trkpt lat="39.888264845601" lon="16.0295191831259"><ele>921.0</ele><time>2026-03-22T12:12:13Z</time></trkpt><trkpt lat="39.888370058889656" lon="16.029970728341723"><ele>926.0</ele><time>2026-03-22T12:12:14Z</time></trkpt><trkpt lat="39.88845938836314" lon="16.030427817363428"><ele>932.0</ele><time>2026-03-22T12:12:15Z</time></trkpt><trkpt lat="39.88853522513598" lon="16.03088922459151"><ele>938.0</ele><time>2026-03-22T12:12:16Z</time></trkpt><trkpt lat="39.88859339710043" lon="16.031355980053664"><ele>939.0</ele><time>2026-03-22T12:12:17Z</time></trkpt><trkpt lat="39.88863583843067" lon="16.03182752849751"><ele>940.0</ele><time>2026-03-22T12:12:18Z</time></trkpt><trkpt lat="39.88866999057312" lon="16.032300642960593"><ele>942.5</ele><time>2026-03-22T12:12:19Z</time></trkpt><trkpt lat="39.888695580671545" lon="16.032766725341947"><ele>945.0</ele><time>2026-03-22T12:12:20Z</time></trkpt><trkpt lat="39.888717169845656" lon="16.033226539075667"><ele>952.0</ele><time>2026-03-22T12:12:21Z</time></trkpt><trkpt lat="39.88873252511914" lon="16.033682012569592"><ele>959.0</ele><time>2026-03-22T12:12:22Z</time></trkpt><trkpt lat="39.88874674285255" lon="16.03413718264801"><ele>968.5</ele><time>2026-03-22T12:12:23Z</time></trkpt><trkpt lat="39.8887625186148" lon="16.034593717492832"><ele>978.0</ele><time>2026-03-22T12:12:24Z</time></trkpt><trkpt lat="39.888779113341776" lon="16.03505051438412"><ele>981.5</ele><time>2026-03-22T12:12:25Z</time></trkpt><trkpt lat="39.88879283022159" lon="16.03550541844864"><ele>985.0</ele><time>2026-03-22T12:12:26Z</time></trkpt><trkpt lat="39.8889449062813" lon="16.036178497412145"><ele>977.5</ele><time>2026-03-22T12:12:27Z</time></trkpt><trkpt lat="39.88897931035272" lon="16.03665905367646"><ele>970.0</ele><time>2026-03-22T12:12:28Z</time></trkpt><trkpt lat="39.889018882003995" lon="16.037138551564084"><ele>960.0</ele><time>2026-03-22T12:12:29Z</time></trkpt><trkpt lat="39.889055597240315" lon="16.0376187967399"><ele>950.0</ele><time>2026-03-22T12:12:30Z</time></trkpt><trkpt lat="39.88908602699289" lon="16.03809910813672"><ele>944.0</ele><time>2026-03-22T12:12:31Z</time></trkpt><trkpt lat="39.889118857809585" lon="16.03857930624059"><ele>938.0</ele><time>2026-03-22T12:12:32Z</time></trkpt><trkpt lat="39.88916356361654" lon="16.03905765916082"><ele>931.5</ele><time>2026-03-22T12:12:33Z</time></trkpt><trkpt lat="39.889200233989506" lon="16.039507147604166"><ele>925.0</ele><time>2026-03-22T12:12:34Z</time></trkpt><trkpt lat="39.889221712388505" lon="16.039956556947196"><ele>924.5</ele><time>2026-03-22T12:12:35Z</time></trkpt><trkpt lat="39.88923846584399" lon="16.040397155059885"><ele>924.0</ele><time>2026-03-22T12:12:36Z</time></trkpt><trkpt lat="39.889263009603674" lon="16.040857938395103"><ele>937.5</ele><time>2026-03-22T12:12:37Z</time></trkpt><trkpt lat="39.88930518597836" lon="16.041289705497608"><ele>951.0</ele><time>2026-03-22T12:12:38Z</time></trkpt><trkpt lat="39.88931023088683" lon="16.041758546707864"><ele>958.0</ele><time>2026-03-22T12:12:39Z</time></trkpt><trkpt lat="39.889300883653924" lon="16.042216051833602"><ele>965.0</ele><time>2026-03-22T12:12:40Z</time></trkpt><trkpt lat="39.889287275176876" lon="16.042662884610976"><ele>977.0</ele><time>2026-03-22T12:12:41Z</time></trkpt><trkpt lat="39.889276600020864" lon="16.043110972768606"><ele>989.0</ele><time>2026-03-22T12:12:42Z</time></trkpt><trkpt lat="39.889270104314804" lon="16.043557083989885"><ele>984.5</ele><time>2026-03-22T12:12:43Z</time></trkpt><trkpt lat="39.889209198113114" lon="16.043990317490763"><ele>980.0</ele><time>2026-03-22T12:12:44Z</time></trkpt><trkpt lat="39.889140666647705" lon="16.0444207520418"><ele>991.5</ele><time>2026-03-22T12:12:45Z</time></trkpt><trkpt lat="39.88906135512651" lon="16.04484337782821"><ele>1003.0</ele><time>2026-03-22T12:12:46Z</time></trkpt><trkpt lat="39.888825053076424" lon="16.045484156267655"><ele>1013.5</ele><time>2026-03-22T12:12:47Z</time></trkpt><trkpt lat="39.88870917662427" lon="16.04592739530353"><ele>1024.0</ele><time>2026-03-22T12:12:48Z</time></trkpt><trkpt lat="39.88857372672062" lon="16.046360265995553"><ele>1022.5</ele><time>2026-03-22T12:12:49Z</time></trkpt><trkpt lat="39.88843656683074" lon="16.046795975690895"><ele>1021.0</ele><time>2026-03-22T12:12:50Z</time></trkpt><trkpt lat="39.888287267076045" lon="16.04722847746041"><ele>1010.5</ele><time>2026-03-22T12:12:51Z</time></trkpt><trkpt lat="39.88811890411682" lon="16.04764948457643"><ele>1000.0</ele><time>2026-03-22T12:12:52Z</time></trkpt><trkpt lat="39.88794175172416" lon="16.048063617249724"><ele>997.5</ele><time>2026-03-22T12:12:53Z</time></trkpt><trkpt lat="39.88775814796506" lon="16.048478513647396"><ele>995.0</ele><time>2026-03-22T12:12:53.999Z</time></trkpt><trkpt lat="39.88755406528051" lon="16.048864348867422"><ele>987.0</ele><time>2026-03-22T12:12:54.999Z</time></trkpt><trkpt lat="39.887343024382545" lon="16.049249510673906"><ele>979.0</ele><time>2026-03-22T12:12:55.999Z</time></trkpt><trkpt lat="39.887117184575146" lon="16.04962074554194"><ele>977.5</ele><time>2026-03-22T12:12:56.999Z</time></trkpt><trkpt lat="39.88688200374816" lon="16.050004497460883"><ele>976.0</ele><time>2026-03-22T12:12:57.999Z</time></trkpt><trkpt lat="39.88663503618586" lon="16.05037186290327"><ele>972.5</ele><time>2026-03-22T12:12:58.999Z</time></trkpt><trkpt lat="39.88637785810024" lon="16.05073452521273"><ele>969.0</ele><time>2026-03-22T12:12:59.999Z</time></trkpt><trkpt lat="39.88611562916798" lon="16.051055403334203"><ele>965.0</ele><time>2026-03-22T12:13:00.999Z</time></trkpt><trkpt lat="39.88584859346627" lon="16.051381886601437"><ele>961.0</ele><time>2026-03-22T12:13:01.999Z</time></trkpt><trkpt lat="39.885577746747735" lon="16.0516985457877"><ele>959.0</ele><time>2026-03-22T12:13:02.999Z</time></trkpt><trkpt lat="39.88530681199919" lon="16.052020977926386"><ele>957.0</ele><time>2026-03-22T12:13:03.999Z</time></trkpt><trkpt lat="39.885040878328574" lon="16.05233732213297"><ele>952.0</ele><time>2026-03-22T12:13:04.999Z</time></trkpt><trkpt lat="39.884770009914085" lon="16.05263610601144"><ele>947.0</ele><time>2026-03-22T12:13:05.999Z</time></trkpt><trkpt lat="39.88450090467928" lon="16.052946370763443"><ele>946.0</ele><time>2026-03-22T12:13:06.999Z</time></trkpt><trkpt lat="39.8842408426794" lon="16.053266292396447"><ele>945.0</ele><time>2026-03-22T12:13:07.999Z</time></trkpt><trkpt lat="39.88396835548421" lon="16.05357469226619"><ele>945.0</ele><time>2026-03-22T12:13:08.999Z</time></trkpt><trkpt lat="39.88369366561659" lon="16.05387835634045"><ele>945.0</ele><time>2026-03-22T12:13:09.999Z</time></trkpt><trkpt lat="39.88342010573649" lon="16.054185094117333"><ele>946.0</ele><time>2026-03-22T12:13:10.999Z</time></trkpt><trkpt lat="39.88314372522699" lon="16.054484998401005"><ele>947.0</ele><time>2026-03-22T12:13:11.999Z</time></trkpt><trkpt lat="39.88286815150721" lon="16.054788750090637"><ele>948.5</ele><time>2026-03-22T12:13:12.999Z</time></trkpt><trkpt lat="39.88260733571058" lon="16.055105921273455"><ele>950.0</ele><time>2026-03-22T12:13:13.999Z</time></trkpt><trkpt lat="39.88233117924213" lon="16.05542078616279"><ele>950.0</ele><time>2026-03-22T12:13:14.999Z</time></trkpt><trkpt lat="39.882059644902455" lon="16.055736871989893"><ele>950.0</ele><time>2026-03-22T12:13:15.999Z</time></trkpt><trkpt lat="39.88178287766609" lon="16.056047208802962"><ele>952.0</ele><time>2026-03-22T12:13:16.999Z</time></trkpt><trkpt lat="39.88151175104908" lon="16.056357437588726"><ele>954.0</ele><time>2026-03-22T12:13:17.999Z</time></trkpt><trkpt lat="39.881235221519255" lon="16.05665960385741"><ele>956.5</ele><time>2026-03-22T12:13:18.999Z</time></trkpt><trkpt lat="39.88096049143336" lon="16.05696925988997"><ele>959.0</ele><time>2026-03-22T12:13:19.999Z</time></trkpt><trkpt lat="39.880696179237525" lon="16.057292946731327"><ele>962.0</ele><time>2026-03-22T12:13:20.999Z</time></trkpt><trkpt lat="39.88042608076973" lon="16.057603853964544"><ele>965.0</ele><time>2026-03-22T12:13:21.999Z</time></trkpt><trkpt lat="39.880152747430834" lon="16.057914426616424"><ele>964.5</ele><time>2026-03-22T12:13:22.999Z</time></trkpt><trkpt lat="39.87988470621918" lon="16.05823062443437"><ele>964.0</ele><time>2026-03-22T12:13:23.999Z</time></trkpt><trkpt lat="39.87967024394616" lon="16.058519885801108"><ele>965.5</ele><time>2026-03-22T12:13:24.999Z</time></trkpt><trkpt lat="39.87942248512774" lon="16.058861779288346"><ele>967.0</ele><time>2026-03-22T12:13:25.999Z</time></trkpt><trkpt lat="39.879188299886124" lon="16.059217807395818"><ele>969.0</ele><time>2026-03-22T12:13:26.999Z</time></trkpt><trkpt lat="39.87896521646223" lon="16.05958697884431"><ele>971.0</ele><time>2026-03-22T12:13:27.999Z</time></trkpt><trkpt lat="39.87874862165406" lon="16.059962544724378"><ele>972.0</ele><time>2026-03-22T12:13:28.999Z</time></trkpt><trkpt lat="39.87854267193349" lon="16.06034908117533"><ele>973.0</ele><time>2026-03-22T12:13:29.999Z</time></trkpt><trkpt lat="39.8783536743683" lon="16.06074973816146"><ele>975.0</ele><time>2026-03-22T12:13:30.999Z</time></trkpt><trkpt lat="39.87817686226867" lon="16.06116097495874"><ele>977.0</ele><time>2026-03-22T12:13:31.999Z</time></trkpt><trkpt lat="39.8780142349909" lon="16.06158209279575"><ele>978.0</ele><time>2026-03-22T12:13:32.999Z</time></trkpt><trkpt lat="39.87786326766932" lon="16.062011196725436"><ele>979.0</ele><time>2026-03-22T12:13:33.999Z</time></trkpt><trkpt lat="39.877729428285" lon="16.06244779761427"><ele>979.0</ele><time>2026-03-22T12:13:34.999Z</time></trkpt><trkpt lat="39.87760572753763" lon="16.062894117739184"><ele>979.0</ele><time>2026-03-22T12:13:35.999Z</time></trkpt><trkpt lat="39.8774885027005" lon="16.063341249225985"><ele>979.0</ele><time>2026-03-22T12:13:36.999Z</time></trkpt><trkpt lat="39.87737372886393" lon="16.06379572399653"><ele>979.0</ele><time>2026-03-22T12:13:37.999Z</time></trkpt><trkpt lat="39.87725312868474" lon="16.064243770022976"><ele>980.5</ele><time>2026-03-22T12:13:38.999Z</time></trkpt><trkpt lat="39.8771304629994" lon="16.0646933664646"><ele>982.0</ele><time>2026-03-22T12:13:39.999Z</time></trkpt><trkpt lat="39.87700326668223" lon="16.065136712263943"><ele>983.0</ele><time>2026-03-22T12:13:40.999Z</time></trkpt><trkpt lat="39.87686352378907" lon="16.06557000806768"><ele>984.0</ele><time>2026-03-22T12:13:41.999Z</time></trkpt><trkpt lat="39.87670605310533" lon="16.065988416539465"><ele>982.0</ele><time>2026-03-22T12:13:42.999Z</time></trkpt><trkpt lat="39.87653403900105" lon="16.06639872229947"><ele>980.0</ele><time>2026-03-22T12:13:43.999Z</time></trkpt><trkpt lat="39.87635192708218" lon="16.066800466363755"><ele>980.0</ele><time>2026-03-22T12:13:44.999Z</time></trkpt><trkpt lat="39.8761567155398" lon="16.067194446270133"><ele>980.0</ele><time>2026-03-22T12:13:45.999Z</time></trkpt><trkpt lat="39.87594794811118" lon="16.06757683191948"><ele>981.0</ele><time>2026-03-22T12:13:46.999Z</time></trkpt><trkpt lat="39.87572791328512" lon="16.06795113179874"><ele>982.0</ele><time>2026-03-22T12:13:47.999Z</time></trkpt><trkpt lat="39.87549826794735" lon="16.068312781615237"><ele>984.0</ele><time>2026-03-22T12:13:48.999Z</time></trkpt><trkpt lat="39.87526039659717" lon="16.068668063776833"><ele>986.0</ele><time>2026-03-22T12:13:49.999Z</time></trkpt><trkpt lat="39.87501886476905" lon="16.069021546686855"><ele>988.0</ele><time>2026-03-22T12:13:50.999Z</time></trkpt><trkpt lat="39.87477762583041" lon="16.069378638514472"><ele>990.0</ele><time>2026-03-22T12:13:51.999Z</time></trkpt><trkpt lat="39.874537064171946" lon="16.069738454221753"><ele>990.5</ele><time>2026-03-22T12:13:52.999Z</time></trkpt><trkpt lat="39.874294677417296" lon="16.070097962767466"><ele>991.0</ele><time>2026-03-22T12:13:53.999Z</time></trkpt><trkpt lat="39.87405516331432" lon="16.070451407798576"><ele>994.0</ele><time>2026-03-22T12:13:54.999Z</time></trkpt><trkpt lat="39.87381872029626" lon="16.07079747909017"><ele>997.0</ele><time>2026-03-22T12:13:55.999Z</time></trkpt><trkpt lat="39.87358884919283" lon="16.07113956213629"><ele>995.5</ele><time>2026-03-22T12:13:56.999Z</time></trkpt><trkpt lat="39.8733566374929" lon="16.071486811156362"><ele>994.0</ele><time>2026-03-22T12:13:57.999Z</time></trkpt><trkpt lat="39.873117713791004" lon="16.07184011450477"><ele>994.0</ele><time>2026-03-22T12:13:58.999Z</time></trkpt><trkpt lat="39.872878667984274" lon="16.07219650954976"><ele>994.0</ele><time>2026-03-22T12:13:59.999Z</time></trkpt><trkpt lat="39.872645424870385" lon="16.07255818702341"><ele>991.5</ele><time>2026-03-22T12:14:00.999Z</time></trkpt><trkpt lat="39.87241953481025" lon="16.072925563131527"><ele>989.0</ele><time>2026-03-22T12:14:01.999Z</time></trkpt><trkpt lat="39.8721975365387" lon="16.0732982312166"><ele>989.0</ele><time>2026-03-22T12:14:02.999Z</time></trkpt><trkpt lat="39.871977497220186" lon="16.073672822680436"><ele>989.0</ele><time>2026-03-22T12:14:03.999Z</time></trkpt><trkpt lat="39.871755385935366" lon="16.074052061500055"><ele>986.5</ele><time>2026-03-22T12:14:04.999Z</time></trkpt><trkpt lat="39.87153325416655" lon="16.074430143515958"><ele>984.0</ele><time>2026-03-22T12:14:05.999Z</time></trkpt><trkpt lat="39.871310446783674" lon="16.07480949504966"><ele>984.5</ele><time>2026-03-22T12:14:06.999Z</time></trkpt><trkpt lat="39.871086421745616" lon="16.075188574906218"><ele>985.0</ele><time>2026-03-22T12:14:08Z</time></trkpt><trkpt lat="39.870862049753605" lon="16.07556660170674"><ele>983.0</ele><time>2026-03-22T12:14:09Z</time></trkpt><trkpt lat="39.87063628205683" lon="16.075942077020375"><ele>981.0</ele><time>2026-03-22T12:14:10Z</time></trkpt><trkpt lat="39.87040522011523" lon="16.076309907992545"><ele>982.0</ele><time>2026-03-22T12:14:11Z</time></trkpt><trkpt lat="39.870167019042654" lon="16.076669313357048"><ele>983.0</ele><time>2026-03-22T12:14:12Z</time></trkpt><trkpt lat="39.869916493072466" lon="16.077012112407747"><ele>984.5</ele><time>2026-03-22T12:14:13Z</time></trkpt><trkpt lat="39.86965151194034" lon="16.077333265129177"><ele>986.0</ele><time>2026-03-22T12:14:14Z</time></trkpt><trkpt lat="39.8693769169799" lon="16.0776329158851"><ele>981.5</ele><time>2026-03-22T12:14:15Z</time></trkpt><trkpt lat="39.86909230676034" lon="16.077914142621154"><ele>977.0</ele><time>2026-03-22T12:14:16Z</time></trkpt><trkpt lat="39.86879855528513" lon="16.07818077100838"><ele>978.5</ele><time>2026-03-22T12:14:17Z</time></trkpt><trkpt lat="39.86849754554678" lon="16.078435853922862"><ele>980.0</ele><time>2026-03-22T12:14:18Z</time></trkpt><trkpt lat="39.86819367697655" lon="16.078682355485554"><ele>980.0</ele><time>2026-03-22T12:14:19Z</time></trkpt><trkpt lat="39.86788740590674" lon="16.078928839157754"><ele>980.0</ele><time>2026-03-22T12:14:20Z</time></trkpt><trkpt lat="39.867578897535864" lon="16.079174865809076"><ele>986.0</ele><time>2026-03-22T12:14:21Z</time></trkpt><trkpt lat="39.86727016025254" lon="16.079418154017915"><ele>992.0</ele><time>2026-03-22T12:14:22Z</time></trkpt><trkpt lat="39.866960034595834" lon="16.07966359505948"><ele>990.0</ele><time>2026-03-22T12:14:23Z</time></trkpt><trkpt lat="39.86665179774518" lon="16.079910444427586"><ele>988.0</ele><time>2026-03-22T12:14:24Z</time></trkpt><trkpt lat="39.86634478873539" lon="16.080160092070685"><ele>995.5</ele><time>2026-03-22T12:14:25Z</time></trkpt><trkpt lat="39.86604003970272" lon="16.080413248208323"><ele>1003.0</ele><time>2026-03-22T12:14:26Z</time></trkpt><trkpt lat="39.86573470181803" lon="16.080664415111222"><ele>1018.5</ele><time>2026-03-22T12:14:27Z</time></trkpt><trkpt lat="39.865426252844514" lon="16.08091250664091"><ele>1034.0</ele><time>2026-03-22T12:14:28Z</time></trkpt><trkpt lat="39.86512217549839" lon="16.08116737595195"><ele>1033.5</ele><time>2026-03-22T12:14:29Z</time></trkpt><trkpt lat="39.864826214126076" lon="16.081429222510316"><ele>1033.0</ele><time>2026-03-22T12:14:30Z</time></trkpt><trkpt lat="39.864472733344094" lon="16.081783446082547"><ele>1020.0</ele><time>2026-03-22T12:14:31Z</time></trkpt><trkpt lat="39.864182420367705" lon="16.082040923623296"><ele>1007.0</ele><time>2026-03-22T12:14:32Z</time></trkpt><trkpt lat="39.86421715836556" lon="16.082703666046502"><ele>1006.0</ele><time>2026-03-22T12:14:33Z</time></trkpt><trkpt lat="39.86422811668922" lon="16.08342787843319"><ele>1006.0</ele><time>2026-03-22T12:14:34Z</time></trkpt><trkpt lat="39.8640833808371" lon="16.083828692627545"><ele>1006.0</ele><time>2026-03-22T12:14:35Z</time></trkpt><trkpt lat="39.86396293350113" lon="16.084222810173056"><ele>1006.0</ele><time>2026-03-22T12:14:36Z</time></trkpt><trkpt lat="39.86385382600984" lon="16.084647045400263"><ele>1006.0</ele><time>2026-03-22T12:14:37Z</time></trkpt><trkpt lat="39.86375024312277" lon="16.085091953763577"><ele>1005.5</ele><time>2026-03-22T12:14:38Z</time></trkpt><trkpt lat="39.86365964215737" lon="16.08553652130981"><ele>1005.0</ele><time>2026-03-22T12:14:39Z</time></trkpt><trkpt lat="39.863589884597936" lon="16.085996236191768"><ele>1005.0</ele><time>2026-03-22T12:14:40Z</time></trkpt><trkpt lat="39.863541353309" lon="16.08646436955738"><ele>1005.0</ele><time>2026-03-22T12:14:41Z</time></trkpt><trkpt lat="39.863514144436515" lon="16.086935747869447"><ele>1005.0</ele><time>2026-03-22T12:14:42Z</time></trkpt><trkpt lat="39.863505818335966" lon="16.08740478494447"><ele>1005.0</ele><time>2026-03-22T12:14:43Z</time></trkpt><trkpt lat="39.863509962233785" lon="16.087874916712156"><ele>1006.5</ele><time>2026-03-22T12:14:44Z</time></trkpt><trkpt lat="39.86353051912982" lon="16.088351750586735"><ele>1008.0</ele><time>2026-03-22T12:14:45Z</time></trkpt><trkpt lat="39.86357178342339" lon="16.08882197877276"><ele>1009.0</ele><time>2026-03-22T12:14:46Z</time></trkpt><trkpt lat="39.86363196649306" lon="16.08928578694444"><ele>1010.0</ele><time>2026-03-22T12:14:47Z</time></trkpt><trkpt lat="39.8637198967321" lon="16.08974533067178"><ele>1011.0</ele><time>2026-03-22T12:14:48Z</time></trkpt><trkpt lat="39.863824951731075" lon="16.090199515931563"><ele>1012.0</ele><time>2026-03-22T12:14:49Z</time></trkpt><trkpt lat="39.86394278887824" lon="16.090645325322015"><ele>1013.5</ele><time>2026-03-22T12:14:50Z</time></trkpt><trkpt lat="39.86407925134611" lon="16.091085221084942"><ele>1015.0</ele><time>2026-03-22T12:14:51Z</time></trkpt><trkpt lat="39.8642346506774" lon="16.091514651786866"><ele>1017.0</ele><time>2026-03-22T12:14:52Z</time></trkpt><trkpt lat="39.86440529983159" lon="16.091936272144185"><ele>1019.0</ele><time>2026-03-22T12:14:53Z</time></trkpt><trkpt lat="39.86458052233597" lon="16.09235433510056"><ele>1022.0</ele><time>2026-03-22T12:14:54Z</time></trkpt><trkpt lat="39.86475647085925" lon="16.092777529028467"><ele>1025.0</ele><time>2026-03-22T12:14:55Z</time></trkpt><trkpt lat="39.8649306773464" lon="16.093205101780047"><ele>1031.0</ele><time>2026-03-22T12:14:56Z</time></trkpt><trkpt lat="39.86510701785084" lon="16.093632657394444"><ele>1037.0</ele><time>2026-03-22T12:14:57Z</time></trkpt><trkpt lat="39.865284149193556" lon="16.094062141296078"><ele>1049.0</ele><time>2026-03-22T12:14:58Z</time></trkpt><trkpt lat="39.86546876528455" lon="16.094494225417076"><ele>1061.0</ele><time>2026-03-22T12:14:59Z</time></trkpt><trkpt lat="39.86564645998754" lon="16.094923260765942"><ele>1066.0</ele><time>2026-03-22T12:14:59.999Z</time></trkpt><trkpt lat="39.865821079781995" lon="16.09535478956872"><ele>1071.0</ele><time>2026-03-22T12:15:00.999Z</time></trkpt><trkpt lat="39.86599590102803" lon="16.095788550184015"><ele>1071.0</ele><time>2026-03-22T12:15:01.999Z</time></trkpt><trkpt lat="39.86617587052468" lon="16.09621764717187"><ele>1071.0</ele><time>2026-03-22T12:15:02.999Z</time></trkpt><trkpt lat="39.86626518714832" lon="16.096557793648092"><ele>1071.0</ele><time>2026-03-22T12:15:03.999Z</time></trkpt><trkpt lat="39.866443863492286" lon="16.096961664433785"><ele>1071.0</ele><time>2026-03-22T12:15:04.999Z</time></trkpt><trkpt lat="39.86662282259753" lon="16.09736485067701"><ele>1064.0</ele><time>2026-03-22T12:15:05.999Z</time></trkpt><trkpt lat="39.86679794969147" lon="16.097771396358556"><ele>1057.0</ele><time>2026-03-22T12:15:06.999Z</time></trkpt><trkpt lat="39.8669435353806" lon="16.098193555196005"><ele>1039.5</ele><time>2026-03-22T12:15:07.999Z</time></trkpt><trkpt lat="39.867068964322925" lon="16.098610775994445"><ele>1022.0</ele><time>2026-03-22T12:15:08.999Z</time></trkpt><trkpt lat="39.867227619751425" lon="16.099060611750232"><ele>1011.0</ele><time>2026-03-22T12:15:09.999Z</time></trkpt><trkpt lat="39.86730323071021" lon="16.099522827661804"><ele>1000.0</ele><time>2026-03-22T12:15:10.999Z</time></trkpt><trkpt lat="39.86734982685216" lon="16.10000307690833"><ele>1000.0</ele><time>2026-03-22T12:15:11.999Z</time></trkpt><trkpt lat="39.86739706665428" lon="16.10048474190881"><ele>1000.0</ele><time>2026-03-22T12:15:12.999Z</time></trkpt><trkpt lat="39.86744662385871" lon="16.100974890861433"><ele>1003.0</ele><time>2026-03-22T12:15:13.999Z</time></trkpt><trkpt lat="39.86749594737244" lon="16.101445586847532"><ele>1006.0</ele><time>2026-03-22T12:15:14.999Z</time></trkpt><trkpt lat="39.867522628417895" lon="16.10191394691991"><ele>1006.0</ele><time>2026-03-22T12:15:15.999Z</time></trkpt><trkpt lat="39.867545092290065" lon="16.102387541609065"><ele>1006.0</ele><time>2026-03-22T12:15:16.999Z</time></trkpt><trkpt lat="39.86756246842773" lon="16.102862688229667"><ele>998.0</ele><time>2026-03-22T12:15:17.999Z</time></trkpt><trkpt lat="39.86757863717911" lon="16.103337687222854"><ele>990.0</ele><time>2026-03-22T12:15:18.999Z</time></trkpt><trkpt lat="39.86759447969213" lon="16.103814105065315"><ele>1004.5</ele><time>2026-03-22T12:15:19.999Z</time></trkpt><trkpt lat="39.86761470992467" lon="16.10429119268242"><ele>1019.0</ele><time>2026-03-22T12:15:20.999Z</time></trkpt><trkpt lat="39.867631893497624" lon="16.104766454400608"><ele>1014.0</ele><time>2026-03-22T12:15:21.999Z</time></trkpt><trkpt lat="39.86765009700894" lon="16.105242093921927"><ele>1009.0</ele><time>2026-03-22T12:15:22.999Z</time></trkpt><trkpt lat="39.86767006674751" lon="16.105718772438394"><ele>1006.5</ele><time>2026-03-22T12:15:23.999Z</time></trkpt><trkpt lat="39.86769277206333" lon="16.106192004261032"><ele>1004.0</ele><time>2026-03-22T12:15:24.999Z</time></trkpt><trkpt lat="39.86772364345191" lon="16.106665573862575"><ele>1009.0</ele><time>2026-03-22T12:15:25.999Z</time></trkpt><trkpt lat="39.86776571359676" lon="16.10713505419763"><ele>1014.0</ele><time>2026-03-22T12:15:26.999Z</time></trkpt><trkpt lat="39.86781603156424" lon="16.107602823469172"><ele>1014.0</ele><time>2026-03-22T12:15:27.999Z</time></trkpt><trkpt lat="39.86786905052048" lon="16.108068823930218"><ele>1014.0</ele><time>2026-03-22T12:15:28.999Z</time></trkpt><trkpt lat="39.86792255935636" lon="16.108537930590586"><ele>1009.5</ele><time>2026-03-22T12:15:29.999Z</time></trkpt><trkpt lat="39.86796717416796" lon="16.10899645971335"><ele>1005.0</ele><time>2026-03-22T12:15:30.999Z</time></trkpt><trkpt lat="39.8680187089402" lon="16.10947168516618"><ele>996.0</ele><time>2026-03-22T12:15:31.999Z</time></trkpt><trkpt lat="39.868069891307655" lon="16.10994067592464"><ele>987.0</ele><time>2026-03-22T12:15:32.999Z</time></trkpt><trkpt lat="39.86812047063367" lon="16.110410001735456"><ele>986.5</ele><time>2026-03-22T12:15:33.999Z</time></trkpt><trkpt lat="39.86817397485957" lon="16.110880534301245"><ele>986.0</ele><time>2026-03-22T12:15:34.999Z</time></trkpt><trkpt lat="39.868229096728825" lon="16.111351270020666"><ele>986.0</ele><time>2026-03-22T12:15:35.999Z</time></trkpt><trkpt lat="39.86828482378942" lon="16.111818516124725"><ele>986.0</ele><time>2026-03-22T12:15:36.999Z</time></trkpt><trkpt lat="39.86833914767709" lon="16.112286632217817"><ele>984.0</ele><time>2026-03-22T12:15:37.999Z</time></trkpt><trkpt lat="39.86839808237845" lon="16.11275306381611"><ele>982.0</ele><time>2026-03-22T12:15:38.999Z</time></trkpt><trkpt lat="39.86846161720485" lon="16.113216354280556"><ele>978.0</ele><time>2026-03-22T12:15:39.999Z</time></trkpt><trkpt lat="39.868533501544896" lon="16.113674325597092"><ele>974.0</ele><time>2026-03-22T12:15:40.999Z</time></trkpt><trkpt lat="39.8686181497542" lon="16.11413300952817"><ele>975.5</ele><time>2026-03-22T12:15:41.999Z</time></trkpt><trkpt lat="39.8687049391122" lon="16.114592969432923"><ele>977.0</ele><time>2026-03-22T12:15:42.999Z</time></trkpt><trkpt lat="39.86879265567238" lon="16.115056446238682"><ele>977.0</ele><time>2026-03-22T12:15:43.999Z</time></trkpt><trkpt lat="39.8688755493294" lon="16.11551478759834"><ele>977.0</ele><time>2026-03-22T12:15:44.999Z</time></trkpt><trkpt lat="39.8689628942199" lon="16.115978617899493"><ele>978.0</ele><time>2026-03-22T12:15:45.999Z</time></trkpt><trkpt lat="39.86905372882255" lon="16.116439956215824"><ele>979.0</ele><time>2026-03-22T12:15:46.999Z</time></trkpt><trkpt lat="39.86914494883494" lon="16.116898703585704"><ele>979.0</ele><time>2026-03-22T12:15:47.999Z</time></trkpt><trkpt lat="39.86923768706245" lon="16.11735754879732"><ele>979.0</ele><time>2026-03-22T12:15:48.999Z</time></trkpt><trkpt lat="39.86933323976391" lon="16.11781044078055"><ele>966.0</ele><time>2026-03-22T12:15:49.999Z</time></trkpt><trkpt lat="39.86943754290941" lon="16.11825929937135"><ele>953.0</ele><time>2026-03-22T12:15:50.999Z</time></trkpt><trkpt lat="39.86956016286808" lon="16.118699919592782"><ele>951.0</ele><time>2026-03-22T12:15:51.999Z</time></trkpt><trkpt lat="39.86970310446109" lon="16.11913346410577"><ele>949.0</ele><time>2026-03-22T12:15:52.999Z</time></trkpt><trkpt lat="39.86985383750602" lon="16.119554643465325"><ele>954.5</ele><time>2026-03-22T12:15:53.999Z</time></trkpt><trkpt lat="39.87001928124626" lon="16.119972135517934"><ele>960.0</ele><time>2026-03-22T12:15:54.999Z</time></trkpt><trkpt lat="39.870198268342584" lon="16.120379004958494"><ele>986.5</ele><time>2026-03-22T12:15:55.999Z</time></trkpt><trkpt lat="39.87038618097518" lon="16.120766455342505"><ele>1013.0</ele><time>2026-03-22T12:15:56.999Z</time></trkpt><trkpt lat="39.87059048491242" lon="16.121144589265718"><ele>1013.0</ele><time>2026-03-22T12:15:57.999Z</time></trkpt><trkpt lat="39.870809332507214" lon="16.12150735991914"><ele>1013.0</ele><time>2026-03-22T12:15:58.999Z</time></trkpt><trkpt lat="39.87104554244498" lon="16.12184978174124"><ele>1023.5</ele><time>2026-03-22T12:15:59.999Z</time></trkpt><trkpt lat="39.871292441456795" lon="16.122178097904193"><ele>1034.0</ele><time>2026-03-22T12:16:00.999Z</time></trkpt><trkpt lat="39.871553978827954" lon="16.122487073437938"><ele>1036.0</ele><time>2026-03-22T12:16:01.999Z</time></trkpt><trkpt lat="39.87182482182882" lon="16.122780313420307"><ele>1038.0</ele><time>2026-03-22T12:16:02.999Z</time></trkpt><trkpt lat="39.87210433898897" lon="16.12305648573127"><ele>1035.5</ele><time>2026-03-22T12:16:03.999Z</time></trkpt><trkpt lat="39.87239109317815" lon="16.123317443588338"><ele>1033.0</ele><time>2026-03-22T12:16:04.999Z</time></trkpt><trkpt lat="39.87268046126042" lon="16.123571574636916"><ele>1033.0</ele><time>2026-03-22T12:16:05.999Z</time></trkpt><trkpt lat="39.873061631605516" lon="16.123992186327627"><ele>1025.0</ele><time>2026-03-22T12:16:06.999Z</time></trkpt><trkpt lat="39.87338354643432" lon="16.124239121566763"><ele>1017.0</ele><time>2026-03-22T12:16:07.999Z</time></trkpt><trkpt lat="39.873708692977985" lon="16.124499234578153"><ele>1013.0</ele><time>2026-03-22T12:16:08.999Z</time></trkpt><trkpt lat="39.874034481455645" lon="16.12475327661644"><ele>1009.0</ele><time>2026-03-22T12:16:09.999Z</time></trkpt><trkpt lat="39.8743583340677" lon="16.125010753699087"><ele>1001.0</ele><time>2026-03-22T12:16:10.999Z</time></trkpt><trkpt lat="39.87468032006017" lon="16.125275164922492"><ele>993.0</ele><time>2026-03-22T12:16:11.999Z</time></trkpt><trkpt lat="39.87500356557555" lon="16.125535944375986"><ele>993.5</ele><time>2026-03-22T12:16:12.999Z</time></trkpt><trkpt lat="39.87532979663214" lon="16.125790087667152"><ele>994.0</ele><time>2026-03-22T12:16:14Z</time></trkpt><trkpt lat="39.87565369773161" lon="16.126043996345835"><ele>1001.0</ele><time>2026-03-22T12:16:15Z</time></trkpt><trkpt lat="39.87597875135826" lon="16.12629524876076"><ele>1008.0</ele><time>2026-03-22T12:16:16Z</time></trkpt><trkpt lat="39.87629542602554" lon="16.126558254196834"><ele>988.5</ele><time>2026-03-22T12:16:17Z</time></trkpt><trkpt lat="39.876618650821335" lon="16.126809045130713"><ele>969.0</ele><time>2026-03-22T12:16:18Z</time></trkpt><trkpt lat="39.87694359944043" lon="16.12705410618907"><ele>963.5</ele><time>2026-03-22T12:16:19Z</time></trkpt><trkpt lat="39.87725975947944" lon="16.127312686486743"><ele>958.0</ele><time>2026-03-22T12:16:20Z</time></trkpt><trkpt lat="39.87757694345153" lon="16.127568252422137"><ele>945.0</ele><time>2026-03-22T12:16:21Z</time></trkpt><trkpt lat="39.87758395103395" lon="16.1278405710056"><ele>932.0</ele><time>2026-03-22T12:16:22Z</time></trkpt><trkpt lat="39.878007327461816" lon="16.127966510946198"><ele>920.0</ele><time>2026-03-22T12:16:23Z</time></trkpt><trkpt lat="39.87835393599823" lon="16.12818925216703"><ele>908.0</ele><time>2026-03-22T12:16:24Z</time></trkpt><trkpt lat="39.8786642763245" lon="16.128428295715914"><ele>891.0</ele><time>2026-03-22T12:16:25Z</time></trkpt><trkpt lat="39.87897892290436" lon="16.128678839466453"><ele>874.0</ele><time>2026-03-22T12:16:26Z</time></trkpt><trkpt lat="39.87929070337868" lon="16.12892554418135"><ele>878.0</ele><time>2026-03-22T12:16:27Z</time></trkpt><trkpt lat="39.87960027656518" lon="16.12917624805084"><ele>882.0</ele><time>2026-03-22T12:16:28Z</time></trkpt><trkpt lat="39.879904931381354" lon="16.12943177154183"><ele>905.5</ele><time>2026-03-22T12:16:29Z</time></trkpt><trkpt lat="39.88020736429979" lon="16.129693149405114"><ele>929.0</ele><time>2026-03-22T12:16:30Z</time></trkpt><trkpt lat="39.880500799748226" lon="16.12997526893587"><ele>929.0</ele><time>2026-03-22T12:16:31Z</time></trkpt><trkpt lat="39.8807786058836" lon="16.130277784551364"><ele>929.0</ele><time>2026-03-22T12:16:32Z</time></trkpt><trkpt lat="39.88104259670305" lon="16.130597343835813"><ele>937.5</ele><time>2026-03-22T12:16:33Z</time></trkpt><trkpt lat="39.88130015391808" lon="16.130923137149676"><ele>946.0</ele><time>2026-03-22T12:16:34Z</time></trkpt><trkpt lat="39.88155579778159" lon="16.131251875209657"><ele>943.0</ele><time>2026-03-22T12:16:35Z</time></trkpt><trkpt lat="39.88181476360364" lon="16.131579919019103"><ele>940.0</ele><time>2026-03-22T12:16:36Z</time></trkpt><trkpt lat="39.882080804382284" lon="16.131900148919243"><ele>940.0</ele><time>2026-03-22T12:16:37Z</time></trkpt><trkpt lat="39.8823459843729" lon="16.132224053137634"><ele>940.0</ele><time>2026-03-22T12:16:38Z</time></trkpt><trkpt lat="39.88261103610102" lon="16.13255211501752"><ele>938.5</ele><time>2026-03-22T12:16:39Z</time></trkpt><trkpt lat="39.8828760504585" lon="16.132879802978373"><ele>937.0</ele><time>2026-03-22T12:16:40Z</time></trkpt><trkpt lat="39.883139135475616" lon="16.1332075734708"><ele>936.0</ele><time>2026-03-22T12:16:41Z</time></trkpt><trkpt lat="39.88340272133845" lon="16.133535997203243"><ele>935.0</ele><time>2026-03-22T12:16:42Z</time></trkpt><trkpt lat="39.88366601870573" lon="16.13386591205486"><ele>936.5</ele><time>2026-03-22T12:16:43Z</time></trkpt><trkpt lat="39.88393089920107" lon="16.13419739835707"><ele>938.0</ele><time>2026-03-22T12:16:44Z</time></trkpt><trkpt lat="39.88418868796512" lon="16.134528249654167"><ele>952.5</ele><time>2026-03-22T12:16:45Z</time></trkpt><trkpt lat="39.88444257914776" lon="16.13486222761541"><ele>967.0</ele><time>2026-03-22T12:16:46Z</time></trkpt><trkpt lat="39.88469164120758" lon="16.13519766058096"><ele>978.5</ele><time>2026-03-22T12:16:47Z</time></trkpt><trkpt lat="39.88493557442023" lon="16.135533999545576"><ele>990.0</ele><time>2026-03-22T12:16:48Z</time></trkpt><trkpt lat="39.885173841746735" lon="16.13586775784769"><ele>1002.0</ele><time>2026-03-22T12:16:49Z</time></trkpt><trkpt lat="39.88541729971373" lon="16.136213622438177"><ele>1014.0</ele><time>2026-03-22T12:16:50Z</time></trkpt><trkpt lat="39.88566457005465" lon="16.13651885209687"><ele>1008.0</ele><time>2026-03-22T12:16:51Z</time></trkpt><trkpt lat="39.885912585995" lon="16.13682615039027"><ele>1002.0</ele><time>2026-03-22T12:16:52Z</time></trkpt><trkpt lat="39.88616435542856" lon="16.137138099310675"><ele>995.0</ele><time>2026-03-22T12:16:53Z</time></trkpt><trkpt lat="39.886409029618726" lon="16.137442515327066"><ele>988.0</ele><time>2026-03-22T12:16:54Z</time></trkpt><trkpt lat="39.88664132280201" lon="16.137732469295187"><ele>960.0</ele><time>2026-03-22T12:16:55Z</time></trkpt><trkpt lat="39.887037998653426" lon="16.138246483873637"><ele>960.0</ele><time>2026-03-22T12:16:56Z</time></trkpt><trkpt lat="39.88726774420476" lon="16.138572110607942"><ele>960.0</ele><time>2026-03-22T12:16:57Z</time></trkpt><trkpt lat="39.88749783661527" lon="16.138924667863378"><ele>949.5</ele><time>2026-03-22T12:16:58Z</time></trkpt><trkpt lat="39.88770471052698" lon="16.13926409750311"><ele>939.0</ele><time>2026-03-22T12:16:59Z</time></trkpt><trkpt lat="39.88790882194831" lon="16.13963018542517"><ele>932.5</ele><time>2026-03-22T12:17:00Z</time></trkpt><trkpt lat="39.88810767462994" lon="16.1400188378168"><ele>926.0</ele><time>2026-03-22T12:17:01Z</time></trkpt><trkpt lat="39.888299431451316" lon="16.1404298814086"><ele>897.5</ele><time>2026-03-22T12:17:02Z</time></trkpt><trkpt lat="39.88846409767993" lon="16.140817960106954"><ele>869.0</ele><time>2026-03-22T12:17:03Z</time></trkpt><trkpt lat="39.8886163093404" lon="16.14120399647019"><ele>869.0</ele><time>2026-03-22T12:17:04Z</time></trkpt><trkpt lat="39.88873374688598" lon="16.141539214613214"><ele>869.0</ele><time>2026-03-22T12:17:05Z</time></trkpt><trkpt lat="39.88890074504159" lon="16.1419359652853"><ele>867.5</ele><time>2026-03-22T12:17:06Z</time></trkpt><trkpt lat="39.88905405563144" lon="16.142364025562973"><ele>866.0</ele><time>2026-03-22T12:17:07Z</time></trkpt><trkpt lat="39.88917923824372" lon="16.14281652464139"><ele>880.5</ele><time>2026-03-22T12:17:08Z</time></trkpt><trkpt lat="39.88930044622501" lon="16.143222807181004"><ele>895.0</ele><time>2026-03-22T12:17:08.999Z</time></trkpt><trkpt lat="39.88938186835371" lon="16.143683079698512"><ele>895.5</ele><time>2026-03-22T12:17:09.999Z</time></trkpt><trkpt lat="39.8894465940973" lon="16.144145862519135"><ele>896.0</ele><time>2026-03-22T12:17:10.999Z</time></trkpt><trkpt lat="39.88949586832332" lon="16.144612846124165"><ele>901.5</ele><time>2026-03-22T12:17:11.999Z</time></trkpt><trkpt lat="39.889534883869324" lon="16.145083289296537"><ele>907.0</ele><time>2026-03-22T12:17:12.999Z</time></trkpt><trkpt lat="39.88955835929643" lon="16.145556327902717"><ele>904.0</ele><time>2026-03-22T12:17:13.999Z</time></trkpt><trkpt lat="39.88956676747" lon="16.146031927553185"><ele>901.0</ele><time>2026-03-22T12:17:14.999Z</time></trkpt><trkpt lat="39.8895615444195" lon="16.146506026916214"><ele>896.5</ele><time>2026-03-22T12:17:15.999Z</time></trkpt><trkpt lat="39.889545231641684" lon="16.146976551258458"><ele>892.0</ele><time>2026-03-22T12:17:16.999Z</time></trkpt><trkpt lat="39.889518349264954" lon="16.147450110268572"><ele>892.0</ele><time>2026-03-22T12:17:17.999Z</time></trkpt><trkpt lat="39.889477418890344" lon="16.14792069627897"><ele>892.0</ele><time>2026-03-22T12:17:18.999Z</time></trkpt><trkpt lat="39.88942042685138" lon="16.14838670003911"><ele>895.0</ele><time>2026-03-22T12:17:19.999Z</time></trkpt><trkpt lat="39.88934856856379" lon="16.148848136893616"><ele>898.0</ele><time>2026-03-22T12:17:20.999Z</time></trkpt><trkpt lat="39.88926203248856" lon="16.149305696938466"><ele>888.5</ele><time>2026-03-22T12:17:21.999Z</time></trkpt><trkpt lat="39.88915943003443" lon="16.149758719004087"><ele>879.0</ele><time>2026-03-22T12:17:22.999Z</time></trkpt><trkpt lat="39.889042397196306" lon="16.15020736523533"><ele>878.5</ele><time>2026-03-22T12:17:23.999Z</time></trkpt><trkpt lat="39.8889133560902" lon="16.15064883955104"><ele>878.0</ele><time>2026-03-22T12:17:24.999Z</time></trkpt><trkpt lat="39.88877342803079" lon="16.151084518487462"><ele>888.0</ele><time>2026-03-22T12:17:25.999Z</time></trkpt><trkpt lat="39.888626772444645" lon="16.15151808131986"><ele>898.0</ele><time>2026-03-22T12:17:26.999Z</time></trkpt><trkpt lat="39.888477048938114" lon="16.151948889228755"><ele>886.0</ele><time>2026-03-22T12:17:27.999Z</time></trkpt><trkpt lat="39.88832215471202" lon="16.152376068879427"><ele>874.0</ele><time>2026-03-22T12:17:28.999Z</time></trkpt><trkpt lat="39.888160985637846" lon="16.152795807436693"><ele>874.5</ele><time>2026-03-22T12:17:29.999Z</time></trkpt><trkpt lat="39.888005274661744" lon="16.153225132841925"><ele>875.0</ele><time>2026-03-22T12:17:30.999Z</time></trkpt><trkpt lat="39.88783866724782" lon="16.153629186386972"><ele>875.0</ele><time>2026-03-22T12:17:31.999Z</time></trkpt><trkpt lat="39.88765671967437" lon="16.154017894416082"><ele>875.0</ele><time>2026-03-22T12:17:32.999Z</time></trkpt><trkpt lat="39.88745918334452" lon="16.154400328561728"><ele>875.0</ele><time>2026-03-22T12:17:33.999Z</time></trkpt><trkpt lat="39.887249554506504" lon="16.154772858891505"><ele>875.0</ele><time>2026-03-22T12:17:34.999Z</time></trkpt><trkpt lat="39.887032207535576" lon="16.15514037627173"><ele>875.0</ele><time>2026-03-22T12:17:35.999Z</time></trkpt><trkpt lat="39.886814797909004" lon="16.15551018880016"><ele>875.0</ele><time>2026-03-22T12:17:36.999Z</time></trkpt><trkpt lat="39.88659472511672" lon="16.155881824207448"><ele>866.0</ele><time>2026-03-22T12:17:37.999Z</time></trkpt><trkpt lat="39.88637140657691" lon="16.156255505427065"><ele>857.0</ele><time>2026-03-22T12:17:38.999Z</time></trkpt><trkpt lat="39.88614932371209" lon="16.156631558599702"><ele>856.5</ele><time>2026-03-22T12:17:39.999Z</time></trkpt><trkpt lat="39.885923973799734" lon="16.157008730925376"><ele>856.0</ele><time>2026-03-22T12:17:40.999Z</time></trkpt><trkpt lat="39.88569621291501" lon="16.157382458317283"><ele>856.0</ele><time>2026-03-22T12:17:41.999Z</time></trkpt><trkpt lat="39.885461648592184" lon="16.15774676539019"><ele>856.0</ele><time>2026-03-22T12:17:42.999Z</time></trkpt><trkpt lat="39.885216968933406" lon="16.158095695195044"><ele>852.0</ele><time>2026-03-22T12:17:43.999Z</time></trkpt><trkpt lat="39.884963247560854" lon="16.1584318040735"><ele>848.0</ele><time>2026-03-22T12:17:44.999Z</time></trkpt><trkpt lat="39.884698905608346" lon="16.15875330329812"><ele>846.5</ele><time>2026-03-22T12:17:45.999Z</time></trkpt><trkpt lat="39.88442557923816" lon="16.15905931343547"><ele>845.0</ele><time>2026-03-22T12:17:46.999Z</time></trkpt><trkpt lat="39.88414299202416" lon="16.159351242155502"><ele>845.0</ele><time>2026-03-22T12:17:47.999Z</time></trkpt><trkpt lat="39.88385428351464" lon="16.15963369059731"><ele>845.0</ele><time>2026-03-22T12:17:48.999Z</time></trkpt><trkpt lat="39.883562551727024" lon="16.15991363233112"><ele>845.0</ele><time>2026-03-22T12:17:49.999Z</time></trkpt><trkpt lat="39.88326885622475" lon="16.160194787477987"><ele>845.0</ele><time>2026-03-22T12:17:50.999Z</time></trkpt><trkpt lat="39.88297177201695" lon="16.160472394924636"><ele>842.5</ele><time>2026-03-22T12:17:51.999Z</time></trkpt><trkpt lat="39.88267634168476" lon="16.16074927178268"><ele>840.0</ele><time>2026-03-22T12:17:52.999Z</time></trkpt><trkpt lat="39.882404937177235" lon="16.161003642815995"><ele>840.0</ele><time>2026-03-22T12:17:53.999Z</time></trkpt><trkpt lat="39.88216792719907" lon="16.16122909802566"><ele>840.0</ele><time>2026-03-22T12:17:54.999Z</time></trkpt><trkpt lat="39.88193159922803" lon="16.16144240227754"><ele>837.0</ele><time>2026-03-22T12:17:55.999Z</time></trkpt><trkpt lat="39.88169909109728" lon="16.161649220689604"><ele>834.0</ele><time>2026-03-22T12:17:56.999Z</time></trkpt><trkpt lat="39.881453557425395" lon="16.16187943591722"><ele>834.0</ele><time>2026-03-22T12:17:57.999Z</time></trkpt><trkpt lat="39.88120263364095" lon="16.162111516026854"><ele>834.0</ele><time>2026-03-22T12:17:58.999Z</time></trkpt><trkpt lat="39.880941532915784" lon="16.162351816108124"><ele>830.0</ele><time>2026-03-22T12:17:59.999Z</time></trkpt><trkpt lat="39.880667477898456" lon="16.162600510660692"><ele>826.0</ele><time>2026-03-22T12:18:00.999Z</time></trkpt><trkpt lat="39.88038697910144" lon="16.162852462310642"><ele>826.0</ele><time>2026-03-22T12:18:01.999Z</time></trkpt><trkpt lat="39.88009629823439" lon="16.163107982241762"><ele>826.0</ele><time>2026-03-22T12:18:02.999Z</time></trkpt><trkpt lat="39.87979975379986" lon="16.16336919741925"><ele>826.0</ele><time>2026-03-22T12:18:03.999Z</time></trkpt><trkpt lat="39.87950066131944" lon="16.16363403581166"><ele>826.0</ele><time>2026-03-22T12:18:04.999Z</time></trkpt><trkpt lat="39.87920536980832" lon="16.163901648830254"><ele>824.0</ele><time>2026-03-22T12:18:05.999Z</time></trkpt><trkpt lat="39.878909602515506" lon="16.164172513601187"><ele>822.0</ele><time>2026-03-22T12:18:06.999Z</time></trkpt><trkpt lat="39.878614887636004" lon="16.164446767368517"><ele>819.0</ele><time>2026-03-22T12:18:07.999Z</time></trkpt><trkpt lat="39.87832132055764" lon="16.164721674124415"><ele>816.0</ele><time>2026-03-22T12:18:08.999Z</time></trkpt><trkpt lat="39.878026324308" lon="16.1649966034618"><ele>816.0</ele><time>2026-03-22T12:18:09.999Z</time></trkpt><trkpt lat="39.8777317830065" lon="16.165271304604808"><ele>816.0</ele><time>2026-03-22T12:18:10.999Z</time></trkpt><trkpt lat="39.87743669996054" lon="16.16554527485688"><ele>812.5</ele><time>2026-03-22T12:18:11.999Z</time></trkpt><trkpt lat="39.8771414159759" lon="16.16582205585086"><ele>809.0</ele><time>2026-03-22T12:18:12.999Z</time></trkpt><trkpt lat="39.87684941892613" lon="16.166102372127376"><ele>809.0</ele><time>2026-03-22T12:18:13.999Z</time></trkpt><trkpt lat="39.87656044653145" lon="16.166385057960603"><ele>809.0</ele><time>2026-03-22T12:18:14.999Z</time></trkpt><trkpt lat="39.87627447631755" lon="16.166670166144737"><ele>809.0</ele><time>2026-03-22T12:18:15.999Z</time></trkpt><trkpt lat="39.87598924278332" lon="16.166955301073685"><ele>809.0</ele><time>2026-03-22T12:18:16.999Z</time></trkpt><trkpt lat="39.87570363208135" lon="16.167246783503696"><ele>807.5</ele><time>2026-03-22T12:18:17.999Z</time></trkpt><trkpt lat="39.87542277499386" lon="16.167545335431278"><ele>806.0</ele><time>2026-03-22T12:18:19Z</time></trkpt><trkpt lat="39.87515794542919" lon="16.167842532898376"><ele>803.5</ele><time>2026-03-22T12:18:20Z</time></trkpt><trkpt lat="39.87491033005818" lon="16.168139380128554"><ele>801.0</ele><time>2026-03-22T12:18:21Z</time></trkpt><trkpt lat="39.87467659365115" lon="16.168441868367704"><ele>801.0</ele><time>2026-03-22T12:18:22Z</time></trkpt><trkpt lat="39.87445775812571" lon="16.168747866544216"><ele>801.0</ele><time>2026-03-22T12:18:23Z</time></trkpt><trkpt lat="39.87424659411974" lon="16.169061643770316"><ele>798.5</ele><time>2026-03-22T12:18:24Z</time></trkpt><trkpt lat="39.87404119448677" lon="16.169374010853712"><ele>796.0</ele><time>2026-03-22T12:18:25Z</time></trkpt><trkpt lat="39.87384038049908" lon="16.16968348592373"><ele>797.0</ele><time>2026-03-22T12:18:26Z</time></trkpt><trkpt lat="39.87363916614115" lon="16.16999251364286"><ele>798.0</ele><time>2026-03-22T12:18:27Z</time></trkpt><trkpt lat="39.873438307648314" lon="16.170301118825567"><ele>795.0</ele><time>2026-03-22T12:18:28Z</time></trkpt><trkpt lat="39.873236892842954" lon="16.17060950737976"><ele>792.0</ele><time>2026-03-22T12:18:29Z</time></trkpt><trkpt lat="39.873034804129084" lon="16.170918448790196"><ele>792.0</ele><time>2026-03-22T12:18:30Z</time></trkpt><trkpt lat="39.872830846178715" lon="16.17122869001165"><ele>792.0</ele><time>2026-03-22T12:18:31Z</time></trkpt><trkpt lat="39.87262672686473" lon="16.171543340539287"><ele>789.0</ele><time>2026-03-22T12:18:32Z</time></trkpt><trkpt lat="39.87242134670645" lon="16.171860365599095"><ele>786.0</ele><time>2026-03-22T12:18:33Z</time></trkpt><trkpt lat="39.872213715493" lon="16.172178710958942"><ele>786.0</ele><time>2026-03-22T12:18:34Z</time></trkpt><trkpt lat="39.87200457906174" lon="16.172498314820213"><ele>786.0</ele><time>2026-03-22T12:18:35Z</time></trkpt><trkpt lat="39.87179451740811" lon="16.172822402629205"><ele>786.0</ele><time>2026-03-22T12:18:36Z</time></trkpt><trkpt lat="39.871585106434665" lon="16.173146193505904"><ele>786.0</ele><time>2026-03-22T12:18:37Z</time></trkpt><trkpt lat="39.87137342803157" lon="16.173469802001758"><ele>786.0</ele><time>2026-03-22T12:18:38Z</time></trkpt><trkpt lat="39.87116132394507" lon="16.173794291848306"><ele>786.0</ele><time>2026-03-22T12:18:39Z</time></trkpt><trkpt lat="39.87094755954088" lon="16.174119535971258"><ele>781.0</ele><time>2026-03-22T12:18:40Z</time></trkpt><trkpt lat="39.870735204150314" lon="16.174448431824676"><ele>776.0</ele><time>2026-03-22T12:18:41Z</time></trkpt><trkpt lat="39.87052094947331" lon="16.174777632879486"><ele>777.0</ele><time>2026-03-22T12:18:42Z</time></trkpt><trkpt lat="39.87030385247154" lon="16.175107114737774"><ele>778.0</ele><time>2026-03-22T12:18:43Z</time></trkpt><trkpt lat="39.870087053422765" lon="16.17543678687644"><ele>772.0</ele><time>2026-03-22T12:18:44Z</time></trkpt><trkpt lat="39.86986953358236" lon="16.17576586860307"><ele>766.0</ele><time>2026-03-22T12:18:45Z</time></trkpt><trkpt lat="39.86965267159884" lon="16.176095400067172"><ele>766.0</ele><time>2026-03-22T12:18:46Z</time></trkpt><trkpt lat="39.869436716778395" lon="16.17642740543212"><ele>766.0</ele><time>2026-03-22T12:18:47Z</time></trkpt><trkpt lat="39.86922007180361" lon="16.176761621655636"><ele>764.0</ele><time>2026-03-22T12:18:48Z</time></trkpt><trkpt lat="39.869003884493914" lon="16.177096107459096"><ele>762.0</ele><time>2026-03-22T12:18:49Z</time></trkpt><trkpt lat="39.86878503034731" lon="16.177433721181014"><ele>762.0</ele><time>2026-03-22T12:18:50Z</time></trkpt><trkpt lat="39.86856658680146" lon="16.17776910761782"><ele>762.0</ele><time>2026-03-22T12:18:51Z</time></trkpt><trkpt lat="39.86834843128779" lon="16.178103692056858"><ele>763.0</ele><time>2026-03-22T12:18:52Z</time></trkpt><trkpt lat="39.868129347853994" lon="16.17843754136511"><ele>764.0</ele><time>2026-03-22T12:18:53Z</time></trkpt><trkpt lat="39.86790988375495" lon="16.178772005149774"><ele>763.0</ele><time>2026-03-22T12:18:54Z</time></trkpt><trkpt lat="39.86768992071896" lon="16.179107283870998"><ele>762.0</ele><time>2026-03-22T12:18:55Z</time></trkpt><trkpt lat="39.86747172394571" lon="16.17944215431586"><ele>762.0</ele><time>2026-03-22T12:18:56Z</time></trkpt><trkpt lat="39.867256587992145" lon="16.17977424280761"><ele>762.0</ele><time>2026-03-22T12:18:57Z</time></trkpt><trkpt lat="39.86704169567902" lon="16.180105103692473"><ele>760.5</ele><time>2026-03-22T12:18:58Z</time></trkpt><trkpt lat="39.866827097867194" lon="16.18043541943342"><ele>759.0</ele><time>2026-03-22T12:18:59Z</time></trkpt><trkpt lat="39.86661257563151" lon="16.180765418891863"><ele>759.0</ele><time>2026-03-22T12:19:00Z</time></trkpt><trkpt lat="39.866397491472696" lon="16.181096144616777"><ele>759.0</ele><time>2026-03-22T12:19:01Z</time></trkpt><trkpt lat="39.866181421070486" lon="16.18142800404709"><ele>761.5</ele><time>2026-03-22T12:19:02Z</time></trkpt><trkpt lat="39.865965003052516" lon="16.181758586396242"><ele>764.0</ele><time>2026-03-22T12:19:03Z</time></trkpt><trkpt lat="39.865750171368454" lon="16.18208824158886"><ele>758.5</ele><time>2026-03-22T12:19:04Z</time></trkpt><trkpt lat="39.86553691337098" lon="16.182418441360635"><ele>753.0</ele><time>2026-03-22T12:19:04.999Z</time></trkpt><trkpt lat="39.86532579052387" lon="16.182748769136378"><ele>753.0</ele><time>2026-03-22T12:19:05.999Z</time></trkpt><trkpt lat="39.865117417070934" lon="16.183081321645382"><ele>753.0</ele><time>2026-03-22T12:19:06.999Z</time></trkpt><trkpt lat="39.86491410816453" lon="16.183420027123674"><ele>748.5</ele><time>2026-03-22T12:19:07.999Z</time></trkpt><trkpt lat="39.86471654847198" lon="16.183765143846973"><ele>744.0</ele><time>2026-03-22T12:19:08.999Z</time></trkpt><trkpt lat="39.86452624292579" lon="16.184115461632356"><ele>743.0</ele><time>2026-03-22T12:19:09.999Z</time></trkpt><trkpt lat="39.86434195473057" lon="16.18447203157093"><ele>742.0</ele><time>2026-03-22T12:19:10.999Z</time></trkpt><trkpt lat="39.86416327816731" lon="16.18483314517453"><ele>736.5</ele><time>2026-03-22T12:19:11.999Z</time></trkpt><trkpt lat="39.863988371289516" lon="16.18519872650643"><ele>731.0</ele><time>2026-03-22T12:19:12.999Z</time></trkpt><trkpt lat="39.86381342440926" lon="16.185570681910534"><ele>730.0</ele><time>2026-03-22T12:19:13.999Z</time></trkpt><trkpt lat="39.86363489932046" lon="16.185949721674913"><ele>729.0</ele><time>2026-03-22T12:19:14.999Z</time></trkpt><trkpt lat="39.86345374613398" lon="16.186337906395632"><ele>729.0</ele><time>2026-03-22T12:19:15.999Z</time></trkpt><trkpt lat="39.863268025514415" lon="16.186729937216683"><ele>729.0</ele><time>2026-03-22T12:19:16.999Z</time></trkpt><trkpt lat="39.86307750811915" lon="16.18712712981331"><ele>734.0</ele><time>2026-03-22T12:19:17.999Z</time></trkpt><trkpt lat="39.86288713957638" lon="16.187523290373115"><ele>739.0</ele><time>2026-03-22T12:19:18.999Z</time></trkpt><trkpt lat="39.8626966721621" lon="16.187920883796103"><ele>732.5</ele><time>2026-03-22T12:19:19.999Z</time></trkpt><trkpt lat="39.86250287455463" lon="16.188316877277842"><ele>726.0</ele><time>2026-03-22T12:19:20.999Z</time></trkpt><trkpt lat="39.86231001259385" lon="16.18871321074174"><ele>727.0</ele><time>2026-03-22T12:19:21.999Z</time></trkpt><trkpt lat="39.86211818204821" lon="16.189112436078716"><ele>728.0</ele><time>2026-03-22T12:19:22.999Z</time></trkpt><trkpt lat="39.86192545551656" lon="16.18951599071415"><ele>723.5</ele><time>2026-03-22T12:19:23.999Z</time></trkpt><trkpt lat="39.86173410883683" lon="16.18991527157748"><ele>719.0</ele><time>2026-03-22T12:19:24.999Z</time></trkpt><trkpt lat="39.86154224254731" lon="16.19031388638287"><ele>721.5</ele><time>2026-03-22T12:19:25.999Z</time></trkpt><trkpt lat="39.861346457871925" lon="16.19071192475719"><ele>724.0</ele><time>2026-03-22T12:19:26.999Z</time></trkpt><trkpt lat="39.861145790045995" lon="16.19110676538903"><ele>720.5</ele><time>2026-03-22T12:19:27.999Z</time></trkpt><trkpt lat="39.860938152924625" lon="16.191493943823986"><ele>717.0</ele><time>2026-03-22T12:19:28.999Z</time></trkpt><trkpt lat="39.86072147776899" lon="16.191870063355267"><ele>717.0</ele><time>2026-03-22T12:19:29.999Z</time></trkpt><trkpt lat="39.860500440621124" lon="16.19224237194915"><ele>717.0</ele><time>2026-03-22T12:19:30.999Z</time></trkpt><trkpt lat="39.860269320127856" lon="16.192606513341044"><ele>718.0</ele><time>2026-03-22T12:19:31.999Z</time></trkpt><trkpt lat="39.8600327388939" lon="16.19296300772809"><ele>719.0</ele><time>2026-03-22T12:19:32.999Z</time></trkpt><trkpt lat="39.859790824692496" lon="16.19331495345238"><ele>719.0</ele><time>2026-03-22T12:19:33.999Z</time></trkpt><trkpt lat="39.859547820426926" lon="16.19366439468952"><ele>719.0</ele><time>2026-03-22T12:19:34.999Z</time></trkpt><trkpt lat="39.85930509860091" lon="16.19401473231115"><ele>717.0</ele><time>2026-03-22T12:19:35.999Z</time></trkpt><trkpt lat="39.859063523374" lon="16.194367004478437"><ele>715.0</ele><time>2026-03-22T12:19:36.999Z</time></trkpt><trkpt lat="39.85882541625964" lon="16.194721195519232"><ele>714.5</ele><time>2026-03-22T12:19:37.999Z</time></trkpt><trkpt lat="39.85858582961575" lon="16.195075565891226"><ele>714.0</ele><time>2026-03-22T12:19:38.999Z</time></trkpt><trkpt lat="39.858345207850604" lon="16.195430777412955"><ele>715.5</ele><time>2026-03-22T12:19:39.999Z</time></trkpt><trkpt lat="39.858103171353825" lon="16.195784664961483"><ele>717.0</ele><time>2026-03-22T12:19:40.999Z</time></trkpt><trkpt lat="39.85786148318651" lon="16.19613941072378"><ele>717.0</ele><time>2026-03-22T12:19:41.999Z</time></trkpt><trkpt lat="39.85762121926012" lon="16.1964953485174"><ele>717.0</ele><time>2026-03-22T12:19:42.999Z</time></trkpt><trkpt lat="39.857381221559315" lon="16.196853515735476"><ele>715.0</ele><time>2026-03-22T12:19:43.999Z</time></trkpt><trkpt lat="39.85714045030455" lon="16.197211203841405"><ele>713.0</ele><time>2026-03-22T12:19:44.999Z</time></trkpt><trkpt lat="39.85689952621706" lon="16.19756911939333"><ele>709.0</ele><time>2026-03-22T12:19:45.999Z</time></trkpt><trkpt lat="39.856654906973446" lon="16.197923762762674"><ele>705.0</ele><time>2026-03-22T12:19:46.999Z</time></trkpt><trkpt lat="39.8564097405682" lon="16.198277102772924"><ele>704.5</ele><time>2026-03-22T12:19:47.999Z</time></trkpt><trkpt lat="39.85616395240497" lon="16.198629446670683"><ele>704.0</ele><time>2026-03-22T12:19:48.999Z</time></trkpt><trkpt lat="39.85591971761411" lon="16.198983341108843"><ele>700.5</ele><time>2026-03-22T12:19:49.999Z</time></trkpt><trkpt lat="39.855675476500075" lon="16.199338091365814"><ele>697.0</ele><time>2026-03-22T12:19:50.999Z</time></trkpt><trkpt lat="39.85543231480766" lon="16.199693922093857"><ele>696.5</ele><time>2026-03-22T12:19:51.999Z</time></trkpt><trkpt lat="39.85518842989258" lon="16.20004950836531"><ele>696.0</ele><time>2026-03-22T12:19:52.999Z</time></trkpt><trkpt lat="39.8549470597941" lon="16.200406641298553"><ele>691.0</ele><time>2026-03-22T12:19:53.999Z</time></trkpt><trkpt lat="39.8547074445339" lon="16.200763521009463"><ele>686.0</ele><time>2026-03-22T12:19:54.999Z</time></trkpt><trkpt lat="39.85446828493927" lon="16.201119412187754"><ele>683.5</ele><time>2026-03-22T12:19:55.999Z</time></trkpt><trkpt lat="39.85422593257629" lon="16.20147157260204"><ele>681.0</ele><time>2026-03-22T12:19:56.999Z</time></trkpt><trkpt lat="39.85398285031785" lon="16.201823114464098"><ele>681.0</ele><time>2026-03-22T12:19:57.999Z</time></trkpt><trkpt lat="39.85374121187824" lon="16.202176041803412"><ele>681.0</ele><time>2026-03-22T12:19:58.999Z</time></trkpt><trkpt lat="39.85349996093268" lon="16.202532785031483"><ele>680.0</ele><time>2026-03-22T12:19:59.999Z</time></trkpt><trkpt lat="39.85325749505671" lon="16.202890271548636"><ele>679.0</ele><time>2026-03-22T12:20:00.999Z</time></trkpt><trkpt lat="39.85301534154972" lon="16.203247535622936"><ele>679.0</ele><time>2026-03-22T12:20:01.999Z</time></trkpt><trkpt lat="39.85277626921228" lon="16.203605132015973"><ele>679.0</ele><time>2026-03-22T12:20:02.999Z</time></trkpt><trkpt lat="39.852545196714146" lon="16.203970366425164"><ele>677.0</ele><time>2026-03-22T12:20:03.999Z</time></trkpt><trkpt lat="39.852325828489235" lon="16.204345155869635"><ele>675.0</ele><time>2026-03-22T12:20:04.999Z</time></trkpt><trkpt lat="39.85211923755267" lon="16.204730648346366"><ele>679.0</ele><time>2026-03-22T12:20:05.999Z</time></trkpt><trkpt lat="39.851926815435554" lon="16.205124454814626"><ele>683.0</ele><time>2026-03-22T12:20:06.999Z</time></trkpt><trkpt lat="39.85174154077822" lon="16.205525338201472"><ele>666.0</ele><time>2026-03-22T12:20:07.999Z</time></trkpt><trkpt lat="39.85155830943048" lon="16.20592949784892"><ele>649.0</ele><time>2026-03-22T12:20:08.999Z</time></trkpt><trkpt lat="39.851373547102654" lon="16.20633503156688"><ele>646.5</ele><time>2026-03-22T12:20:09.999Z</time></trkpt><trkpt lat="39.851187644535756" lon="16.206740988017113"><ele>644.0</ele><time>2026-03-22T12:20:10.999Z</time></trkpt><trkpt lat="39.85099950273352" lon="16.207147710024106"><ele>646.5</ele><time>2026-03-22T12:20:11.999Z</time></trkpt><trkpt lat="39.85081055119495" lon="16.207554827080568"><ele>649.0</ele><time>2026-03-22T12:20:12.999Z</time></trkpt><trkpt lat="39.85062187780483" lon="16.207960830040516"><ele>656.0</ele><time>2026-03-22T12:20:13.999Z</time></trkpt><trkpt lat="39.850434622415" lon="16.208368393585435"><ele>663.0</ele><time>2026-03-22T12:20:14.999Z</time></trkpt><trkpt lat="39.850247870076785" lon="16.20877752489242"><ele>663.0</ele><time>2026-03-22T12:20:15.999Z</time></trkpt><trkpt lat="39.850060699168345" lon="16.20918549262445"><ele>663.0</ele><time>2026-03-22T12:20:16.999Z</time></trkpt><trkpt lat="39.849877102166765" lon="16.20959220199081"><ele>668.5</ele><time>2026-03-22T12:20:17.999Z</time></trkpt><trkpt lat="39.84970397756447" lon="16.21001156107082"><ele>674.0</ele><time>2026-03-22T12:20:18.999Z</time></trkpt><trkpt lat="39.84955450580054" lon="16.210440014161282"><ele>682.5</ele><time>2026-03-22T12:20:19.999Z</time></trkpt><trkpt lat="39.84942447831541" lon="16.210866520990624"><ele>691.0</ele><time>2026-03-22T12:20:20.999Z</time></trkpt><trkpt lat="39.84931679710404" lon="16.21127815727869"><ele>688.5</ele><time>2026-03-22T12:20:21.999Z</time></trkpt><trkpt lat="39.84922586621871" lon="16.21170592757618"><ele>686.0</ele><time>2026-03-22T12:20:22.999Z</time></trkpt><trkpt lat="39.84915076128755" lon="16.21214922862821"><ele>677.0</ele><time>2026-03-22T12:20:23.999Z</time></trkpt><trkpt lat="39.84908596145963" lon="16.21259825385582"><ele>668.0</ele><time>2026-03-22T12:20:25Z</time></trkpt><trkpt lat="39.84902911282273" lon="16.21303299982607"><ele>661.0</ele><time>2026-03-22T12:20:26Z</time></trkpt><trkpt lat="39.848979971111675" lon="16.213512782090728"><ele>654.0</ele><time>2026-03-22T12:20:27Z</time></trkpt><trkpt lat="39.84890604314956" lon="16.213987969943492"><ele>648.0</ele><time>2026-03-22T12:20:28Z</time></trkpt><trkpt lat="39.848844833533676" lon="16.21445395625125"><ele>642.0</ele><time>2026-03-22T12:20:29Z</time></trkpt><trkpt lat="39.84878375975892" lon="16.214922600461286"><ele>642.0</ele><time>2026-03-22T12:20:30Z</time></trkpt><trkpt lat="39.84872014844493" lon="16.215391912145044"><ele>642.0</ele><time>2026-03-22T12:20:31Z</time></trkpt><trkpt lat="39.84865504993168" lon="16.21585820052278"><ele>642.0</ele><time>2026-03-22T12:20:32Z</time></trkpt><trkpt lat="39.848590431528585" lon="16.21632060077693"><ele>642.0</ele><time>2026-03-22T12:20:33Z</time></trkpt><trkpt lat="39.84852464706137" lon="16.216783518291624"><ele>638.5</ele><time>2026-03-22T12:20:34Z</time></trkpt><trkpt lat="39.8484561802623" lon="16.217245330634398"><ele>635.0</ele><time>2026-03-22T12:20:35Z</time></trkpt><trkpt lat="39.84838716102216" lon="16.217709366577182"><ele>635.0</ele><time>2026-03-22T12:20:36Z</time></trkpt><trkpt lat="39.848317929079904" lon="16.218172365306373"><ele>635.0</ele><time>2026-03-22T12:20:37Z</time></trkpt><trkpt lat="39.84824756111498" lon="16.21863614875089"><ele>635.5</ele><time>2026-03-22T12:20:38Z</time></trkpt><trkpt lat="39.848178171205795" lon="16.219101273462236"><ele>636.0</ele><time>2026-03-22T12:20:39Z</time></trkpt><trkpt lat="39.84810974994388" lon="16.21956614648769"><ele>636.0</ele><time>2026-03-22T12:20:40Z</time></trkpt><trkpt lat="39.84804417449635" lon="16.22003197226047"><ele>636.0</ele><time>2026-03-22T12:20:41Z</time></trkpt><trkpt lat="39.84798033834338" lon="16.22049727366088"><ele>635.5</ele><time>2026-03-22T12:20:42Z</time></trkpt><trkpt lat="39.847919036382834" lon="16.22096489379711"><ele>635.0</ele><time>2026-03-22T12:20:43Z</time></trkpt><trkpt lat="39.84786300277175" lon="16.22143258274153"><ele>634.5</ele><time>2026-03-22T12:20:44Z</time></trkpt><trkpt lat="39.847813779671114" lon="16.2219000291901"><ele>634.0</ele><time>2026-03-22T12:20:45Z</time></trkpt><trkpt lat="39.84777441387732" lon="16.222369069730835"><ele>634.0</ele><time>2026-03-22T12:20:46Z</time></trkpt><trkpt lat="39.847744089154034" lon="16.22283833574415"><ele>634.0</ele><time>2026-03-22T12:20:47Z</time></trkpt><trkpt lat="39.847720120407374" lon="16.22330869553136"><ele>633.0</ele><time>2026-03-22T12:20:48Z</time></trkpt><trkpt lat="39.847698626033164" lon="16.223780427704376"><ele>632.0</ele><time>2026-03-22T12:20:49Z</time></trkpt><trkpt lat="39.84767984080318" lon="16.22425290528977"><ele>631.0</ele><time>2026-03-22T12:20:50Z</time></trkpt><trkpt lat="39.84765985549147" lon="16.22472834610369"><ele>630.0</ele><time>2026-03-22T12:20:51Z</time></trkpt><trkpt lat="39.84763949968368" lon="16.225202993359286"><ele>621.5</ele><time>2026-03-22T12:20:52Z</time></trkpt><trkpt lat="39.84761713810946" lon="16.225678729058167"><ele>613.0</ele><time>2026-03-22T12:20:53Z</time></trkpt><trkpt lat="39.84759382504583" lon="16.226153072143674"><ele>612.0</ele><time>2026-03-22T12:20:54Z</time></trkpt><trkpt lat="39.84757067009543" lon="16.226627329331418"><ele>611.0</ele><time>2026-03-22T12:20:55Z</time></trkpt><trkpt lat="39.847548731408345" lon="16.22710184935095"><ele>609.5</ele><time>2026-03-22T12:20:56Z</time></trkpt><trkpt lat="39.84752697349357" lon="16.227576605942332"><ele>608.0</ele><time>2026-03-22T12:20:57Z</time></trkpt><trkpt lat="39.847504820611185" lon="16.228049710277613"><ele>606.5</ele><time>2026-03-22T12:20:58Z</time></trkpt><trkpt lat="39.8474845397447" lon="16.22852475822011"><ele>605.0</ele><time>2026-03-22T12:20:59Z</time></trkpt><trkpt lat="39.84746547710855" lon="16.22900023813928"><ele>603.0</ele><time>2026-03-22T12:21:00Z</time></trkpt><trkpt lat="39.84744587400495" lon="16.229474400691956"><ele>601.0</ele><time>2026-03-22T12:21:01Z</time></trkpt><trkpt lat="39.847424946492566" lon="16.22994915139051"><ele>599.5</ele><time>2026-03-22T12:21:02Z</time></trkpt><trkpt lat="39.847401265064775" lon="16.230424156881202"><ele>598.0</ele><time>2026-03-22T12:21:03Z</time></trkpt><trkpt lat="39.84737346239927" lon="16.23089674923948"><ele>596.5</ele><time>2026-03-22T12:21:04Z</time></trkpt><trkpt lat="39.84733683940394" lon="16.23136760071986"><ele>595.0</ele><time>2026-03-22T12:21:05Z</time></trkpt><trkpt lat="39.847287117298706" lon="16.231830226009013"><ele>593.0</ele><time>2026-03-22T12:21:06Z</time></trkpt><trkpt lat="39.847222547549386" lon="16.232290581216898"><ele>591.0</ele><time>2026-03-22T12:21:07Z</time></trkpt><trkpt lat="39.847148601014744" lon="16.232750416259442"><ele>589.0</ele><time>2026-03-22T12:21:08Z</time></trkpt><trkpt lat="39.84706470141175" lon="16.233206110984415"><ele>587.0</ele><time>2026-03-22T12:21:08.999Z</time></trkpt><trkpt lat="39.84696800363381" lon="16.233656443883632"><ele>585.0</ele><time>2026-03-22T12:21:09.999Z</time></trkpt><trkpt lat="39.84685923192536" lon="16.2341021523118"><ele>583.0</ele><time>2026-03-22T12:21:10.999Z</time></trkpt><trkpt lat="39.84673931294931" lon="16.234544490981243"><ele>576.5</ele><time>2026-03-22T12:21:11.999Z</time></trkpt><trkpt lat="39.84660893210244" lon="16.23498155217584"><ele>570.0</ele><time>2026-03-22T12:21:12.999Z</time></trkpt><trkpt lat="39.846467919811694" lon="16.235413105343877"><ele>571.0</ele><time>2026-03-22T12:21:13.999Z</time></trkpt><trkpt lat="39.84631689210466" lon="16.2358369166007"><ele>572.0</ele><time>2026-03-22T12:21:14.999Z</time></trkpt><trkpt lat="39.846154464137676" lon="16.236255075350016"><ele>575.0</ele><time>2026-03-22T12:21:15.999Z</time></trkpt><trkpt lat="39.84598337678065" lon="16.23666978068814"><ele>578.0</ele><time>2026-03-22T12:21:16.999Z</time></trkpt><trkpt lat="39.84580789458609" lon="16.237085305604754"><ele>580.0</ele><time>2026-03-22T12:21:17.999Z</time></trkpt><trkpt lat="39.845631584453" lon="16.237501330150735"><ele>582.0</ele><time>2026-03-22T12:21:18.999Z</time></trkpt><trkpt lat="39.84545530083718" lon="16.237915925522675"><ele>582.0</ele><time>2026-03-22T12:21:19.999Z</time></trkpt><trkpt lat="39.84527713945469" lon="16.238331350033402"><ele>582.0</ele><time>2026-03-22T12:21:20.999Z</time></trkpt><trkpt lat="39.84509975482987" lon="16.238746415077063"><ele>577.5</ele><time>2026-03-22T12:21:21.999Z</time></trkpt><trkpt lat="39.844925033559214" lon="16.239160071919297"><ele>573.0</ele><time>2026-03-22T12:21:22.999Z</time></trkpt><trkpt lat="39.84475566219214" lon="16.239559475369624"><ele>572.0</ele><time>2026-03-22T12:21:23.999Z</time></trkpt><trkpt lat="39.844589120707965" lon="16.239953419635736"><ele>571.0</ele><time>2026-03-22T12:21:24.999Z</time></trkpt><trkpt lat="39.84442404736908" lon="16.24034540285134"><ele>566.0</ele><time>2026-03-22T12:21:25.999Z</time></trkpt><trkpt lat="39.84426037585882" lon="16.240734214351725"><ele>561.0</ele><time>2026-03-22T12:21:26.999Z</time></trkpt><trkpt lat="39.84409722161728" lon="16.241126050641178"><ele>560.5</ele><time>2026-03-22T12:21:27.999Z</time></trkpt><trkpt lat="39.84393393385984" lon="16.241520924908702"><ele>560.0</ele><time>2026-03-22T12:21:28.999Z</time></trkpt><trkpt lat="39.84377092422335" lon="16.241915418315422"><ele>561.5</ele><time>2026-03-22T12:21:29.999Z</time></trkpt><trkpt lat="39.843607219748314" lon="16.2423096978657"><ele>563.0</ele><time>2026-03-22T12:21:30.999Z</time></trkpt><trkpt lat="39.84344373723149" lon="16.2427015868343"><ele>557.0</ele><time>2026-03-22T12:21:31.999Z</time></trkpt><trkpt lat="39.84328114151463" lon="16.243091389946528"><ele>551.0</ele><time>2026-03-22T12:21:32.999Z</time></trkpt><trkpt lat="39.84311980132275" lon="16.243479609390125"><ele>551.0</ele><time>2026-03-22T12:21:33.999Z</time></trkpt><trkpt lat="39.84295658181568" lon="16.243868675506402"><ele>551.0</ele><time>2026-03-22T12:21:34.999Z</time></trkpt><trkpt lat="39.84279007030761" lon="16.244261168459257"><ele>547.0</ele><time>2026-03-22T12:21:35.999Z</time></trkpt><trkpt lat="39.84262024363219" lon="16.24465770366476"><ele>543.0</ele><time>2026-03-22T12:21:36.999Z</time></trkpt><trkpt lat="39.84244847567959" lon="16.24505970437419"><ele>543.0</ele><time>2026-03-22T12:21:37.999Z</time></trkpt><trkpt lat="39.84227285059148" lon="16.2454690394811"><ele>543.0</ele><time>2026-03-22T12:21:38.999Z</time></trkpt><trkpt lat="39.84209317321319" lon="16.245879346354247"><ele>544.0</ele><time>2026-03-22T12:21:39.999Z</time></trkpt><trkpt lat="39.84190564223466" lon="16.24628663319769"><ele>545.0</ele><time>2026-03-22T12:21:40.999Z</time></trkpt><trkpt lat="39.841707423235995" lon="16.246687130803988"><ele>540.5</ele><time>2026-03-22T12:21:41.999Z</time></trkpt><trkpt lat="39.84150208485128" lon="16.24707940268262"><ele>536.0</ele><time>2026-03-22T12:21:42.999Z</time></trkpt><trkpt lat="39.8412896101023" lon="16.24746667432913"><ele>535.5</ele><time>2026-03-22T12:21:43.999Z</time></trkpt><trkpt lat="39.84107334576044" lon="16.24784830100654"><ele>535.0</ele><time>2026-03-22T12:21:44.999Z</time></trkpt><trkpt lat="39.84085566324951" lon="16.248230995242622"><ele>531.0</ele><time>2026-03-22T12:21:45.999Z</time></trkpt><trkpt lat="39.84063762714703" lon="16.24861392574917"><ele>527.0</ele><time>2026-03-22T12:21:46.999Z</time></trkpt><trkpt lat="39.84041928983739" lon="16.24899623255832"><ele>527.0</ele><time>2026-03-22T12:21:47.999Z</time></trkpt><trkpt lat="39.840200636133" lon="16.24937999040004"><ele>527.0</ele><time>2026-03-22T12:21:48.999Z</time></trkpt><trkpt lat="39.839982880785236" lon="16.249761881057104"><ele>525.0</ele><time>2026-03-22T12:21:49.999Z</time></trkpt><trkpt lat="39.83976590516313" lon="16.25014457870817"><ele>523.0</ele><time>2026-03-22T12:21:50.999Z</time></trkpt><trkpt lat="39.8395498516403" lon="16.250527041419836"><ele>520.5</ele><time>2026-03-22T12:21:51.999Z</time></trkpt><trkpt lat="39.839334938532744" lon="16.250910295998082"><ele>518.0</ele><time>2026-03-22T12:21:52.999Z</time></trkpt><trkpt lat="39.83912005098799" lon="16.251294078589417"><ele>519.5</ele><time>2026-03-22T12:21:53.999Z</time></trkpt><trkpt lat="39.83890581110796" lon="16.251674874302967"><ele>521.0</ele><time>2026-03-22T12:21:54.999Z</time></trkpt><trkpt lat="39.83869036509666" lon="16.252052330002407"><ele>522.0</ele><time>2026-03-22T12:21:55.999Z</time></trkpt><trkpt lat="39.83847376918828" lon="16.25242585067594"><ele>523.0</ele><time>2026-03-22T12:21:56.999Z</time></trkpt><trkpt lat="39.838252173231375" lon="16.252792419363153"><ele>517.0</ele><time>2026-03-22T12:21:57.999Z</time></trkpt><trkpt lat="39.838022297941286" lon="16.25314837882736"><ele>511.0</ele><time>2026-03-22T12:21:58.999Z</time></trkpt><trkpt lat="39.83778155688084" lon="16.253494765004366"><ele>507.5</ele><time>2026-03-22T12:21:59.999Z</time></trkpt><trkpt lat="39.8375299307562" lon="16.253827751882685"><ele>504.0</ele><time>2026-03-22T12:22:00.999Z</time></trkpt><trkpt lat="39.83726797455493" lon="16.254148190138075"><ele>503.0</ele><time>2026-03-22T12:22:01.999Z</time></trkpt><trkpt lat="39.836996844339666" lon="16.254456234484408"><ele>502.0</ele><time>2026-03-22T12:22:02.999Z</time></trkpt><trkpt lat="39.8367176925707" lon="16.25475222282708"><ele>499.5</ele><time>2026-03-22T12:22:03.999Z</time></trkpt><trkpt lat="39.83643015963714" lon="16.255033081891295"><ele>497.0</ele><time>2026-03-22T12:22:04.999Z</time></trkpt><trkpt lat="39.83613359958481" lon="16.255299231705813"><ele>494.5</ele><time>2026-03-22T12:22:05.999Z</time></trkpt><trkpt lat="39.8358278375537" lon="16.255550848171055"><ele>492.0</ele><time>2026-03-22T12:22:06.999Z</time></trkpt><trkpt lat="39.83551421782741" lon="16.255786615567654"><ele>491.5</ele><time>2026-03-22T12:22:07.999Z</time></trkpt><trkpt lat="39.835193790015545" lon="16.256006689797115"><ele>491.0</ele><time>2026-03-22T12:22:08.999Z</time></trkpt><trkpt lat="39.8348667039493" lon="16.25620920956613"><ele>488.0</ele><time>2026-03-22T12:22:09.999Z</time></trkpt><trkpt lat="39.83453385805488" lon="16.25639645670879"><ele>485.0</ele><time>2026-03-22T12:22:10.999Z</time></trkpt><trkpt lat="39.83419849529869" lon="16.256567318570056"><ele>483.5</ele><time>2026-03-22T12:22:11.999Z</time></trkpt><trkpt lat="39.83385870001773" lon="16.256730275757853"><ele>482.0</ele><time>2026-03-22T12:22:12.999Z</time></trkpt><trkpt lat="39.833515888070934" lon="16.256894466106495"><ele>479.5</ele><time>2026-03-22T12:22:13.999Z</time></trkpt><trkpt lat="39.83317463687577" lon="16.257058513653817"><ele>477.0</ele><time>2026-03-22T12:22:14.999Z</time></trkpt><trkpt lat="39.83283031560544" lon="16.25723822772504"><ele>475.0</ele><time>2026-03-22T12:22:15.999Z</time></trkpt><trkpt lat="39.832486746223694" lon="16.257409541005376"><ele>473.0</ele><time>2026-03-22T12:22:16.999Z</time></trkpt><trkpt lat="39.83214435987848" lon="16.257577625719012"><ele>471.5</ele><time>2026-03-22T12:22:17.999Z</time></trkpt><trkpt lat="39.831804017462666" lon="16.25774627841907"><ele>470.0</ele><time>2026-03-22T12:22:18.999Z</time></trkpt><trkpt lat="39.83146084369938" lon="16.257916952016437"><ele>470.0</ele><time>2026-03-22T12:22:19.999Z</time></trkpt><trkpt lat="39.83111721678718" lon="16.258082823008642"><ele>470.0</ele><time>2026-03-22T12:22:20.999Z</time></trkpt><trkpt lat="39.8307745634687" lon="16.25824619077592"><ele>469.0</ele><time>2026-03-22T12:22:21.999Z</time></trkpt><trkpt lat="39.830433142154995" lon="16.25841082601096"><ele>468.0</ele><time>2026-03-22T12:22:22.999Z</time></trkpt><trkpt lat="39.83009350201976" lon="16.258571733314298"><ele>467.0</ele><time>2026-03-22T12:22:23.999Z</time></trkpt><trkpt lat="39.82975167863931" lon="16.25873598936854"><ele>466.0</ele><time>2026-03-22T12:22:24.999Z</time></trkpt><trkpt lat="39.82941457451984" lon="16.258905727628107"><ele>466.5</ele><time>2026-03-22T12:22:25.999Z</time></trkpt><trkpt lat="39.82907866298091" lon="16.259075475481527"><ele>467.0</ele><time>2026-03-22T12:22:26.999Z</time></trkpt><trkpt lat="39.82873818350121" lon="16.259241942807517"><ele>466.5</ele><time>2026-03-22T12:22:27.999Z</time></trkpt><trkpt lat="39.82839654361123" lon="16.259383506429135"><ele>466.0</ele><time>2026-03-22T12:22:28.999Z</time></trkpt><trkpt lat="39.828043522389365" lon="16.259490812724906"><ele>466.0</ele><time>2026-03-22T12:22:29.999Z</time></trkpt><trkpt lat="39.82769195070078" lon="16.25956530257586"><ele>466.0</ele><time>2026-03-22T12:22:31Z</time></trkpt><trkpt lat="39.827336867681794" lon="16.259617089452632"><ele>465.5</ele><time>2026-03-22T12:22:32Z</time></trkpt><trkpt lat="39.82697724707265" lon="16.25964241944249"><ele>465.0</ele><time>2026-03-22T12:22:33Z</time></trkpt><trkpt lat="39.82661897799814" lon="16.259647260648173"><ele>465.0</ele><time>2026-03-22T12:22:34Z</time></trkpt><trkpt lat="39.826260479946356" lon="16.25962523146948"><ele>465.0</ele><time>2026-03-22T12:22:35Z</time></trkpt><trkpt lat="39.825903839382875" lon="16.259578714344663"><ele>463.5</ele><time>2026-03-22T12:22:36Z</time></trkpt><trkpt lat="39.825546507084034" lon="16.259499522475636"><ele>462.0</ele><time>2026-03-22T12:22:37Z</time></trkpt><trkpt lat="39.825179944648056" lon="16.259385515952495"><ele>461.0</ele><time>2026-03-22T12:22:38Z</time></trkpt><trkpt lat="39.824834535365035" lon="16.259267368384293"><ele>460.0</ele><time>2026-03-22T12:22:39Z</time></trkpt><trkpt lat="39.824494775135" lon="16.25911848419044"><ele>459.5</ele><time>2026-03-22T12:22:40Z</time></trkpt><trkpt lat="39.824156487055745" lon="16.25894164365909"><ele>459.0</ele><time>2026-03-22T12:22:41Z</time></trkpt><trkpt lat="39.82382418689089" lon="16.258743969324684"><ele>459.0</ele><time>2026-03-22T12:22:42Z</time></trkpt><trkpt lat="39.82350032076845" lon="16.25852681743886"><ele>459.0</ele><time>2026-03-22T12:22:43Z</time></trkpt><trkpt lat="39.82318375737222" lon="16.25829289391871"><ele>458.0</ele><time>2026-03-22T12:22:44Z</time></trkpt><trkpt lat="39.82287376709913" lon="16.258043255404672"><ele>457.0</ele><time>2026-03-22T12:22:45Z</time></trkpt><trkpt lat="39.82256564581105" lon="16.257785914785813"><ele>454.0</ele><time>2026-03-22T12:22:46Z</time></trkpt><trkpt lat="39.822253316384575" lon="16.257528016935293"><ele>451.0</ele><time>2026-03-22T12:22:47Z</time></trkpt><trkpt lat="39.8219388719778" lon="16.257268450961604"><ele>447.0</ele><time>2026-03-22T12:22:48Z</time></trkpt><trkpt lat="39.82162362153991" lon="16.257008789080302"><ele>443.0</ele><time>2026-03-22T12:22:49Z</time></trkpt><trkpt lat="39.82130740588587" lon="16.256752012107178"><ele>443.0</ele><time>2026-03-22T12:22:50Z</time></trkpt><trkpt lat="39.8209930681432" lon="16.256499695025447"><ele>443.0</ele><time>2026-03-22T12:22:51Z</time></trkpt><trkpt lat="39.8206742898776" lon="16.256253933978087"><ele>439.0</ele><time>2026-03-22T12:22:52Z</time></trkpt><trkpt lat="39.820345494860184" lon="16.256028849573365"><ele>435.0</ele><time>2026-03-22T12:22:53Z</time></trkpt><trkpt lat="39.82001457873822" lon="16.25582054416381"><ele>431.5</ele><time>2026-03-22T12:22:54Z</time></trkpt><trkpt lat="39.81967904419456" lon="16.25563596227221"><ele>428.0</ele><time>2026-03-22T12:22:55Z</time></trkpt><trkpt lat="39.81934267400692" lon="16.255456473438215"><ele>424.5</ele><time>2026-03-22T12:22:56Z</time></trkpt><trkpt lat="39.819001900195246" lon="16.255287997613795"><ele>421.0</ele><time>2026-03-22T12:22:57Z</time></trkpt><trkpt lat="39.81865759996031" lon="16.25513547228365"><ele>420.0</ele><time>2026-03-22T12:22:58Z</time></trkpt><trkpt lat="39.8183109404896" lon="16.25499979973737"><ele>419.0</ele><time>2026-03-22T12:22:59Z</time></trkpt><trkpt lat="39.81796080510843" lon="16.254873019825297"><ele>417.5</ele><time>2026-03-22T12:23:00Z</time></trkpt><trkpt lat="39.81760897314651" lon="16.25474906161604"><ele>416.0</ele><time>2026-03-22T12:23:01Z</time></trkpt><trkpt lat="39.8172582735834" lon="16.254620692173578"><ele>416.0</ele><time>2026-03-22T12:23:02Z</time></trkpt><trkpt lat="39.81690839428411" lon="16.25448949282245"><ele>416.0</ele><time>2026-03-22T12:23:03Z</time></trkpt><trkpt lat="39.81655498150089" lon="16.254360208473127"><ele>415.0</ele><time>2026-03-22T12:23:04Z</time></trkpt><trkpt lat="39.81620400719653" lon="16.25423099821919"><ele>414.0</ele><time>2026-03-22T12:23:05Z</time></trkpt><trkpt lat="39.8158507404068" lon="16.25410178125449"><ele>413.0</ele><time>2026-03-22T12:23:06Z</time></trkpt><trkpt lat="39.815497371903994" lon="16.253972450843918"><ele>412.0</ele><time>2026-03-22T12:23:07Z</time></trkpt><trkpt lat="39.81514327287667" lon="16.253846428762696"><ele>410.5</ele><time>2026-03-22T12:23:08Z</time></trkpt><trkpt lat="39.814789185007136" lon="16.25371846168042"><ele>409.0</ele><time>2026-03-22T12:23:09Z</time></trkpt><trkpt lat="39.81444035408632" lon="16.25358608104958"><ele>406.5</ele><time>2026-03-22T12:23:10Z</time></trkpt><trkpt lat="39.81409408119678" lon="16.25345208227742"><ele>404.0</ele><time>2026-03-22T12:23:11Z</time></trkpt><trkpt lat="39.81374511596312" lon="16.253318371729666"><ele>398.5</ele><time>2026-03-22T12:23:12Z</time></trkpt><trkpt lat="39.813395934668414" lon="16.253187345757514"><ele>393.0</ele><time>2026-03-22T12:23:13Z</time></trkpt><trkpt lat="39.81304766952401" lon="16.253058418032957"><ele>390.5</ele><time>2026-03-22T12:23:14Z</time></trkpt><trkpt lat="39.812695536570494" lon="16.252930772626296"><ele>388.0</ele><time>2026-03-22T12:23:15Z</time></trkpt><trkpt lat="39.81234515140972" lon="16.25280102379019"><ele>380.5</ele><time>2026-03-22T12:23:16Z</time></trkpt><trkpt lat="39.81199342735736" lon="16.252672797107028"><ele>373.0</ele><time>2026-03-22T12:23:17Z</time></trkpt><trkpt lat="39.81164148757553" lon="16.2525454706864"><ele>369.5</ele><time>2026-03-22T12:23:18Z</time></trkpt><trkpt lat="39.8112924173897" lon="16.252419701177374"><ele>366.0</ele><time>2026-03-22T12:23:19Z</time></trkpt><trkpt lat="39.810942651507695" lon="16.252290429692916"><ele>366.0</ele><time>2026-03-22T12:23:19.999Z</time></trkpt><trkpt lat="39.81059713658277" lon="16.252153460835025"><ele>366.0</ele><time>2026-03-22T12:23:20.999Z</time></trkpt><trkpt lat="39.81026174538842" lon="16.251986619471186"><ele>371.5</ele><time>2026-03-22T12:23:21.999Z</time></trkpt><trkpt lat="39.80994510152356" lon="16.25178234603349"><ele>377.0</ele><time>2026-03-22T12:23:22.999Z</time></trkpt><trkpt lat="39.80964351999483" lon="16.251541990545505"><ele>377.0</ele><time>2026-03-22T12:23:23.999Z</time></trkpt><trkpt lat="39.80935411943318" lon="16.251273091337918"><ele>377.0</ele><time>2026-03-22T12:23:24.999Z</time></trkpt><trkpt lat="39.809081243607714" lon="16.250979150571997"><ele>381.0</ele><time>2026-03-22T12:23:25.999Z</time></trkpt><trkpt lat="39.808820416351175" lon="16.250665526822946"><ele>385.0</ele><time>2026-03-22T12:23:26.999Z</time></trkpt><trkpt lat="39.808565630330385" lon="16.250339231856156"><ele>385.0</ele><time>2026-03-22T12:23:27.999Z</time></trkpt><trkpt lat="39.80830697362097" lon="16.25000974758485"><ele>385.0</ele><time>2026-03-22T12:23:28.999Z</time></trkpt><trkpt lat="39.80804046884161" lon="16.249688473796464"><ele>385.0</ele><time>2026-03-22T12:23:29.999Z</time></trkpt><trkpt lat="39.807771075932884" lon="16.249372675596934"><ele>385.0</ele><time>2026-03-22T12:23:30.999Z</time></trkpt><trkpt lat="39.80749781252742" lon="16.2490531226215"><ele>380.0</ele><time>2026-03-22T12:23:31.999Z</time></trkpt><trkpt lat="39.80722566315137" lon="16.24873135440181"><ele>375.0</ele><time>2026-03-22T12:23:32.999Z</time></trkpt><trkpt lat="39.80695315390824" lon="16.2484094612143"><ele>372.0</ele><time>2026-03-22T12:23:33.999Z</time></trkpt><trkpt lat="39.806680899197474" lon="16.248087468963938"><ele>369.0</ele><time>2026-03-22T12:23:34.999Z</time></trkpt><trkpt lat="39.806409530389864" lon="16.247766754449884"><ele>369.0</ele><time>2026-03-22T12:23:35.999Z</time></trkpt><trkpt lat="39.80613995077331" lon="16.24744651276327"><ele>369.0</ele><time>2026-03-22T12:23:36.999Z</time></trkpt><trkpt lat="39.80587043626018" lon="16.247126428583716"><ele>369.5</ele><time>2026-03-22T12:23:37.999Z</time></trkpt><trkpt lat="39.805605278649594" lon="16.246809922491078"><ele>370.0</ele><time>2026-03-22T12:23:38.999Z</time></trkpt><trkpt lat="39.80534661749557" lon="16.246504672060855"><ele>369.0</ele><time>2026-03-22T12:23:39.999Z</time></trkpt><trkpt lat="39.80509154586409" lon="16.246210461214137"><ele>368.0</ele><time>2026-03-22T12:23:40.999Z</time></trkpt><trkpt lat="39.804833086798396" lon="16.24591374510449"><ele>365.5</ele><time>2026-03-22T12:23:41.999Z</time></trkpt><trkpt lat="39.804570805163074" lon="16.24561303354852"><ele>363.0</ele><time>2026-03-22T12:23:42.999Z</time></trkpt><trkpt lat="39.804304350291474" lon="16.24530588495842"><ele>363.0</ele><time>2026-03-22T12:23:43.999Z</time></trkpt><trkpt lat="39.80403675630629" lon="16.2449930714906"><ele>363.0</ele><time>2026-03-22T12:23:44.999Z</time></trkpt><trkpt lat="39.803770287833174" lon="16.244675321955906"><ele>363.0</ele><time>2026-03-22T12:23:45.999Z</time></trkpt><trkpt lat="39.803506135196976" lon="16.244353923522024"><ele>363.0</ele><time>2026-03-22T12:23:46.999Z</time></trkpt><trkpt lat="39.80324404819473" lon="16.244030814255"><ele>359.0</ele><time>2026-03-22T12:23:47.999Z</time></trkpt><trkpt lat="39.8029821099858" lon="16.243707710847087"><ele>355.0</ele><time>2026-03-22T12:23:48.999Z</time></trkpt><trkpt lat="39.80272160375392" lon="16.243383709627548"><ele>355.0</ele><time>2026-03-22T12:23:49.999Z</time></trkpt><trkpt lat="39.80245647989196" lon="16.24306028920218"><ele>355.0</ele><time>2026-03-22T12:23:50.999Z</time></trkpt><trkpt lat="39.80218992648365" lon="16.242740302959"><ele>355.0</ele><time>2026-03-22T12:23:51.999Z</time></trkpt><trkpt lat="39.801920847918694" lon="16.242421800296142"><ele>355.0</ele><time>2026-03-22T12:23:52.999Z</time></trkpt><trkpt lat="39.801650556818224" lon="16.24210479732041"><ele>355.0</ele><time>2026-03-22T12:23:53.999Z</time></trkpt><trkpt lat="39.80138096723185" lon="16.241787883553616"><ele>355.0</ele><time>2026-03-22T12:23:54.999Z</time></trkpt><trkpt lat="39.8011131967708" lon="16.241471121395826"><ele>354.5</ele><time>2026-03-22T12:23:55.999Z</time></trkpt><trkpt lat="39.800849444326374" lon="16.241154652724227"><ele>354.0</ele><time>2026-03-22T12:23:56.999Z</time></trkpt><trkpt lat="39.800584357839476" lon="16.24083608000651"><ele>352.5</ele><time>2026-03-22T12:23:57.999Z</time></trkpt><trkpt lat="39.800316706017206" lon="16.240519516758223"><ele>351.0</ele><time>2026-03-22T12:23:58.999Z</time></trkpt><trkpt lat="39.800048353162346" lon="16.240202295738197"><ele>351.0</ele><time>2026-03-22T12:23:59.999Z</time></trkpt><trkpt lat="39.79978144962378" lon="16.239886809619833"><ele>351.0</ele><time>2026-03-22T12:24:00.999Z</time></trkpt><trkpt lat="39.79951632739333" lon="16.239573256930957"><ele>350.0</ele><time>2026-03-22T12:24:01.999Z</time></trkpt><trkpt lat="39.7992502054076" lon="16.23925727600539"><ele>349.0</ele><time>2026-03-22T12:24:02.999Z</time></trkpt><trkpt lat="39.79898499379062" lon="16.238942441601818"><ele>349.0</ele><time>2026-03-22T12:24:03.999Z</time></trkpt><trkpt lat="39.79872005920935" lon="16.238624807862536"><ele>349.0</ele><time>2026-03-22T12:24:04.999Z</time></trkpt><trkpt lat="39.798462558549744" lon="16.23829788810812"><ele>350.0</ele><time>2026-03-22T12:24:05.999Z</time></trkpt><trkpt lat="39.79822449582218" lon="16.23794938260946"><ele>351.0</ele><time>2026-03-22T12:24:06.999Z</time></trkpt><trkpt lat="39.79801101987022" lon="16.237576066847165"><ele>351.5</ele><time>2026-03-22T12:24:07.999Z</time></trkpt><trkpt lat="39.797823927394084" lon="16.23718284994779"><ele>352.0</ele><time>2026-03-22T12:24:08.999Z</time></trkpt><trkpt lat="39.797658762119056" lon="16.236772942097875"><ele>351.0</ele><time>2026-03-22T12:24:09.999Z</time></trkpt><trkpt lat="39.79750865990391" lon="16.23635141324952"><ele>350.0</ele><time>2026-03-22T12:24:10.999Z</time></trkpt><trkpt lat="39.7973832678047" lon="16.235912284926734"><ele>349.0</ele><time>2026-03-22T12:24:11.999Z</time></trkpt><trkpt lat="39.797269091086925" lon="16.23547009510711"><ele>348.0</ele><time>2026-03-22T12:24:12.999Z</time></trkpt><trkpt lat="39.797150364715826" lon="16.23502225030831"><ele>347.0</ele><time>2026-03-22T12:24:13.999Z</time></trkpt><trkpt lat="39.797019746617075" lon="16.23457376704848"><ele>346.0</ele><time>2026-03-22T12:24:14.999Z</time></trkpt><trkpt lat="39.796881061186504" lon="16.23413261055289"><ele>350.0</ele><time>2026-03-22T12:24:15.999Z</time></trkpt><trkpt lat="39.79673079884625" lon="16.233698838740374"><ele>354.0</ele><time>2026-03-22T12:24:16.999Z</time></trkpt><trkpt lat="39.79656746983807" lon="16.23327639659795"><ele>352.5</ele><time>2026-03-22T12:24:17.999Z</time></trkpt><trkpt lat="39.79638624350723" lon="16.232866665090484"><ele>351.0</ele><time>2026-03-22T12:24:18.999Z</time></trkpt><trkpt lat="39.796190320034015" lon="16.232471396534553"><ele>350.0</ele><time>2026-03-22T12:24:19.999Z</time></trkpt><trkpt lat="39.79598227095471" lon="16.23208595141234"><ele>349.0</ele><time>2026-03-22T12:24:20.999Z</time></trkpt><trkpt lat="39.79576148094736" lon="16.23171095453934"><ele>346.0</ele><time>2026-03-22T12:24:21.999Z</time></trkpt><trkpt lat="39.79552804808674" lon="16.23134677503684"><ele>343.0</ele><time>2026-03-22T12:24:22.999Z</time></trkpt><trkpt lat="39.7952872880876" lon="16.230995420470805"><ele>341.5</ele><time>2026-03-22T12:24:23.999Z</time></trkpt><trkpt lat="39.79503617262908" lon="16.23065317962369"><ele>340.0</ele><time>2026-03-22T12:24:24.999Z</time></trkpt><trkpt lat="39.79477055655724" lon="16.23032383762039"><ele>340.0</ele><time>2026-03-22T12:24:25.999Z</time></trkpt><trkpt lat="39.79449635393549" lon="16.230014545400714"><ele>340.0</ele><time>2026-03-22T12:24:26.999Z</time></trkpt><trkpt lat="39.7942130561108" lon="16.229720100305197"><ele>338.0</ele><time>2026-03-22T12:24:27.999Z</time></trkpt><trkpt lat="39.79391879837959" lon="16.229439313183175"><ele>336.0</ele><time>2026-03-22T12:24:28.999Z</time></trkpt><trkpt lat="39.793618087056124" lon="16.229172352613745"><ele>334.5</ele><time>2026-03-22T12:24:29.999Z</time></trkpt><trkpt lat="39.793308089095156" lon="16.228927929120065"><ele>333.0</ele><time>2026-03-22T12:24:30.999Z</time></trkpt><trkpt lat="39.79299059528513" lon="16.228701658988722"><ele>333.5</ele><time>2026-03-22T12:24:31.999Z</time></trkpt><trkpt lat="39.792666097459986" lon="16.22849478921046"><ele>334.0</ele><time>2026-03-22T12:24:32.999Z</time></trkpt><trkpt lat="39.792335658648085" lon="16.22831071811013"><ele>331.0</ele><time>2026-03-22T12:24:33.999Z</time></trkpt><trkpt lat="39.79199601756847" lon="16.228141312459655"><ele>328.0</ele><time>2026-03-22T12:24:34.999Z</time></trkpt><trkpt lat="39.791652644514485" lon="16.22798438294483"><ele>328.0</ele><time>2026-03-22T12:24:35.999Z</time></trkpt><trkpt lat="39.79130607210117" lon="16.22783982632752"><ele>328.0</ele><time>2026-03-22T12:24:37Z</time></trkpt><trkpt lat="39.7909588947826" lon="16.227708245391554"><ele>330.5</ele><time>2026-03-22T12:24:38Z</time></trkpt><trkpt lat="39.7906070859717" lon="16.227585352545212"><ele>333.0</ele><time>2026-03-22T12:24:39Z</time></trkpt><trkpt lat="39.79025566392" lon="16.227462538016596"><ele>334.5</ele><time>2026-03-22T12:24:40Z</time></trkpt><trkpt lat="39.789900284764755" lon="16.227332365479842"><ele>336.0</ele><time>2026-03-22T12:24:41Z</time></trkpt><trkpt lat="39.789546165551194" lon="16.227198091016945"><ele>334.5</ele><time>2026-03-22T12:24:42Z</time></trkpt><trkpt lat="39.78919319508334" lon="16.227064638667652"><ele>333.0</ele><time>2026-03-22T12:24:43Z</time></trkpt><trkpt lat="39.788842432785586" lon="16.226931371194215"><ele>331.0</ele><time>2026-03-22T12:24:44Z</time></trkpt><trkpt lat="39.78849097444598" lon="16.226803620065468"><ele>329.0</ele><time>2026-03-22T12:24:45Z</time></trkpt><trkpt lat="39.78814021631799" lon="16.226673803286786"><ele>329.0</ele><time>2026-03-22T12:24:46Z</time></trkpt><trkpt lat="39.78778997214949" lon="16.226542278047244"><ele>329.0</ele><time>2026-03-22T12:24:47Z</time></trkpt><trkpt lat="39.787439946394805" lon="16.226410242905068"><ele>326.5</ele><time>2026-03-22T12:24:48Z</time></trkpt><trkpt lat="39.787090694700616" lon="16.226278184589205"><ele>324.0</ele><time>2026-03-22T12:24:49Z</time></trkpt><trkpt lat="39.78674124793786" lon="16.226145874764114"><ele>321.0</ele><time>2026-03-22T12:24:50Z</time></trkpt><trkpt lat="39.7863944434292" lon="16.226014336543113"><ele>318.0</ele><time>2026-03-22T12:24:51Z</time></trkpt><trkpt lat="39.78604726617883" lon="16.225883894554205"><ele>317.0</ele><time>2026-03-22T12:24:52Z</time></trkpt><trkpt lat="39.78570028584087" lon="16.22575821348181"><ele>316.0</ele><time>2026-03-22T12:24:53Z</time></trkpt><trkpt lat="39.785350699775115" lon="16.225631905553584"><ele>313.0</ele><time>2026-03-22T12:24:54Z</time></trkpt><trkpt lat="39.78499963097195" lon="16.225504358040013"><ele>310.0</ele><time>2026-03-22T12:24:55Z</time></trkpt><trkpt lat="39.784648087148284" lon="16.22537493033946"><ele>305.5</ele><time>2026-03-22T12:24:56Z</time></trkpt><trkpt lat="39.784294813377244" lon="16.225244448825922"><ele>301.0</ele><time>2026-03-22T12:24:57Z</time></trkpt><trkpt lat="39.78394182163809" lon="16.225113752143066"><ele>301.0</ele><time>2026-03-22T12:24:58Z</time></trkpt><trkpt lat="39.78358892953291" lon="16.224984950961478"><ele>301.0</ele><time>2026-03-22T12:24:59Z</time></trkpt><trkpt lat="39.7832423930726" lon="16.224857317973555"><ele>278.5</ele><time>2026-03-22T12:25:00Z</time></trkpt><trkpt lat="39.78288968849396" lon="16.22472847512797"><ele>256.0</ele><time>2026-03-22T12:25:01Z</time></trkpt><trkpt lat="39.782538034969946" lon="16.224596786785394"><ele>234.5</ele><time>2026-03-22T12:25:02Z</time></trkpt><trkpt lat="39.782188470968045" lon="16.22446678635975"><ele>213.0</ele><time>2026-03-22T12:25:03Z</time></trkpt><trkpt lat="39.78184108474097" lon="16.22433353059712"><ele>196.0</ele><time>2026-03-22T12:25:04Z</time></trkpt><trkpt lat="39.781493130750434" lon="16.224206803429894"><ele>179.0</ele><time>2026-03-22T12:25:05Z</time></trkpt><trkpt lat="39.78115066557537" lon="16.224069897813916"><ele>184.0</ele><time>2026-03-22T12:25:06Z</time></trkpt><trkpt lat="39.7808063418673" lon="16.22393915820103"><ele>189.0</ele><time>2026-03-22T12:25:07Z</time></trkpt><trkpt lat="39.780456751118464" lon="16.223811436386292"><ele>207.0</ele><time>2026-03-22T12:25:08Z</time></trkpt><trkpt lat="39.780105125763065" lon="16.223683285771003"><ele>225.0</ele><time>2026-03-22T12:25:09Z</time></trkpt><trkpt lat="39.77975876926932" lon="16.223557436140652"><ele>225.0</ele><time>2026-03-22T12:25:10Z</time></trkpt><trkpt lat="39.779411136286505" lon="16.22342735184539"><ele>225.0</ele><time>2026-03-22T12:25:11Z</time></trkpt><trkpt lat="39.77906149100994" lon="16.223301169859077"><ele>233.0</ele><time>2026-03-22T12:25:12Z</time></trkpt><trkpt lat="39.778708375597446" lon="16.22317702833843"><ele>241.0</ele><time>2026-03-22T12:25:13Z</time></trkpt><trkpt lat="39.77836253880837" lon="16.22306105702899"><ele>255.5</ele><time>2026-03-22T12:25:14Z</time></trkpt><trkpt lat="39.778011333754634" lon="16.222962912019185"><ele>270.0</ele><time>2026-03-22T12:25:15Z</time></trkpt><trkpt lat="39.77765024060346" lon="16.22290060220539"><ele>271.0</ele><time>2026-03-22T12:25:16Z</time></trkpt><trkpt lat="39.777294248045536" lon="16.222873486974322"><ele>272.0</ele><time>2026-03-22T12:25:17Z</time></trkpt><trkpt lat="39.77693626178359" lon="16.222866495320787"><ele>271.0</ele><time>2026-03-22T12:25:18Z</time></trkpt><trkpt lat="39.776583308649755" lon="16.222890787287632"><ele>270.0</ele><time>2026-03-22T12:25:19Z</time></trkpt><trkpt lat="39.77623188837695" lon="16.222940210207774"><ele>271.0</ele><time>2026-03-22T12:25:20Z</time></trkpt><trkpt lat="39.7758950815901" lon="16.223007763947997"><ele>272.0</ele><time>2026-03-22T12:25:21Z</time></trkpt><trkpt lat="39.77556955477845" lon="16.22310040411513"><ele>267.0</ele><time>2026-03-22T12:25:22Z</time></trkpt><trkpt lat="39.77524423033888" lon="16.223214683916524"><ele>262.0</ele><time>2026-03-22T12:25:23Z</time></trkpt><trkpt lat="39.77490385904816" lon="16.223340414598752"><ele>264.5</ele><time>2026-03-22T12:25:24Z</time></trkpt><trkpt lat="39.774556039782134" lon="16.22345337783607"><ele>267.0</ele><time>2026-03-22T12:25:25Z</time></trkpt><trkpt lat="39.77420026545474" lon="16.22355830037934"><ele>267.0</ele><time>2026-03-22T12:25:26Z</time></trkpt><trkpt lat="39.77385109758673" lon="16.223661301917847"><ele>267.0</ele><time>2026-03-22T12:25:27Z</time></trkpt><trkpt lat="39.77349339072835" lon="16.2237663496911"><ele>270.5</ele><time>2026-03-22T12:25:28Z</time></trkpt><trkpt lat="39.77314465209596" lon="16.223870016191114"><ele>274.0</ele><time>2026-03-22T12:25:29Z</time></trkpt><trkpt lat="39.772793507578385" lon="16.223971867359865"><ele>271.5</ele><time>2026-03-22T12:25:30Z</time></trkpt><trkpt lat="39.77243863119455" lon="16.224057604744523"><ele>269.0</ele><time>2026-03-22T12:25:30.999Z</time></trkpt><trkpt lat="39.77207601349936" lon="16.22411662428576"><ele>268.0</ele><time>2026-03-22T12:25:31.999Z</time></trkpt><trkpt lat="39.771717715966176" lon="16.224155860834266"><ele>267.0</ele><time>2026-03-22T12:25:32.999Z</time></trkpt><trkpt lat="39.77135560594407" lon="16.224186132716223"><ele>266.0</ele><time>2026-03-22T12:25:33.999Z</time></trkpt><trkpt lat="39.77099369615888" lon="16.224202462851682"><ele>265.0</ele><time>2026-03-22T12:25:34.999Z</time></trkpt><trkpt lat="39.7706267188412" lon="16.224201751996628"><ele>265.0</ele><time>2026-03-22T12:25:35.999Z</time></trkpt><trkpt lat="39.770263128074724" lon="16.22416985980033"><ele>265.0</ele><time>2026-03-22T12:25:36.999Z</time></trkpt><trkpt lat="39.76990315357512" lon="16.224113997043276"><ele>264.0</ele><time>2026-03-22T12:25:37.999Z</time></trkpt><trkpt lat="39.76954634490374" lon="16.224041202037828"><ele>263.0</ele><time>2026-03-22T12:25:38.999Z</time></trkpt><trkpt lat="39.76919224185224" lon="16.223949939995393"><ele>262.0</ele><time>2026-03-22T12:25:39.999Z</time></trkpt><trkpt lat="39.76883998726712" lon="16.22384025021549"><ele>261.0</ele><time>2026-03-22T12:25:40.999Z</time></trkpt><trkpt lat="39.76849351486326" lon="16.2237163675556"><ele>257.0</ele><time>2026-03-22T12:25:41.999Z</time></trkpt><trkpt lat="39.76815094896394" lon="16.223575895621885"><ele>253.0</ele><time>2026-03-22T12:25:42.999Z</time></trkpt><trkpt lat="39.767811202822266" lon="16.223416503968142"><ele>240.5</ele><time>2026-03-22T12:25:43.999Z</time></trkpt><trkpt lat="39.767474338741245" lon="16.223248956914393"><ele>228.0</ele><time>2026-03-22T12:25:44.999Z</time></trkpt><trkpt lat="39.76713822638597" lon="16.22307635747854"><ele>235.5</ele><time>2026-03-22T12:25:45.999Z</time></trkpt><trkpt lat="39.76680331963412" lon="16.222905957008738"><ele>243.0</ele><time>2026-03-22T12:25:46.999Z</time></trkpt><trkpt lat="39.766468597101294" lon="16.222737247552207"><ele>243.0</ele><time>2026-03-22T12:25:47.999Z</time></trkpt><trkpt lat="39.766129661379104" lon="16.222569441794366"><ele>243.0</ele><time>2026-03-22T12:25:48.999Z</time></trkpt><trkpt lat="39.76579023459022" lon="16.222401045707915"><ele>247.0</ele><time>2026-03-22T12:25:49.999Z</time></trkpt><trkpt lat="39.765450218862114" lon="16.222232588831076"><ele>251.0</ele><time>2026-03-22T12:25:50.999Z</time></trkpt><trkpt lat="39.765110722378" lon="16.222064474920145"><ele>251.0</ele><time>2026-03-22T12:25:51.999Z</time></trkpt><trkpt lat="39.76477125376631" lon="16.221897300789017"><ele>251.0</ele><time>2026-03-22T12:25:52.999Z</time></trkpt><trkpt lat="39.764432476539824" lon="16.221728654193594"><ele>250.0</ele><time>2026-03-22T12:25:53.999Z</time></trkpt><trkpt lat="39.7640948282038" lon="16.221561288372104"><ele>249.0</ele><time>2026-03-22T12:25:54.999Z</time></trkpt><trkpt lat="39.76376720582948" lon="16.2213978921844"><ele>241.5</ele><time>2026-03-22T12:25:55.999Z</time></trkpt><trkpt lat="39.76344745560096" lon="16.22123786004099"><ele>234.0</ele><time>2026-03-22T12:25:56.999Z</time></trkpt><trkpt lat="39.76313784482131" lon="16.221082830251458"><ele>234.0</ele><time>2026-03-22T12:25:57.999Z</time></trkpt><trkpt lat="39.762835791132545" lon="16.22093264733507"><ele>234.0</ele><time>2026-03-22T12:25:58.999Z</time></trkpt><trkpt lat="39.76254220132977" lon="16.2207901729401"><ele>226.5</ele><time>2026-03-22T12:25:59.999Z</time></trkpt><trkpt lat="39.762257437131886" lon="16.22065989306456"><ele>219.0</ele><time>2026-03-22T12:26:00.999Z</time></trkpt><trkpt lat="39.76197279899844" lon="16.22054050836837"><ele>210.5</ele><time>2026-03-22T12:26:01.999Z</time></trkpt><trkpt lat="39.76168767213969" lon="16.220449253315092"><ele>202.0</ele><time>2026-03-22T12:26:02.999Z</time></trkpt><trkpt lat="39.761396852878526" lon="16.220393327630823"><ele>202.0</ele><time>2026-03-22T12:26:03.999Z</time></trkpt><trkpt lat="39.76110423148064" lon="16.220370831768893"><ele>202.0</ele><time>2026-03-22T12:26:04.999Z</time></trkpt><trkpt lat="39.760799998205385" lon="16.220368776727327"><ele>192.5</ele><time>2026-03-22T12:26:05.999Z</time></trkpt><trkpt lat="39.760487932175366" lon="16.220378107681633"><ele>183.0</ele><time>2026-03-22T12:26:06.999Z</time></trkpt><trkpt lat="39.76017023235819" lon="16.220393742895418"><ele>170.5</ele><time>2026-03-22T12:26:07.999Z</time></trkpt><trkpt lat="39.759849405557304" lon="16.220412211182808"><ele>158.0</ele><time>2026-03-22T12:26:08.999Z</time></trkpt><trkpt lat="39.75952450433681" lon="16.2204318993342"><ele>150.5</ele><time>2026-03-22T12:26:09.999Z</time></trkpt><trkpt lat="39.75919829933882" lon="16.22045287677561"><ele>143.0</ele><time>2026-03-22T12:26:10.999Z</time></trkpt><trkpt lat="39.75886958783942" lon="16.220470377370578"><ele>143.0</ele><time>2026-03-22T12:26:11.999Z</time></trkpt><trkpt lat="39.758543127474375" lon="16.22048248027149"><ele>143.0</ele><time>2026-03-22T12:26:12.999Z</time></trkpt><trkpt lat="39.75821733573106" lon="16.220492226515436"><ele>143.0</ele><time>2026-03-22T12:26:13.999Z</time></trkpt><trkpt lat="39.757893552115235" lon="16.220509326613016"><ele>143.0</ele><time>2026-03-22T12:26:14.999Z</time></trkpt><trkpt lat="39.75757025016795" lon="16.220532113720036"><ele>152.5</ele><time>2026-03-22T12:26:15.999Z</time></trkpt><trkpt lat="39.75725136662876" lon="16.220552712195012"><ele>162.0</ele><time>2026-03-22T12:26:16.999Z</time></trkpt><trkpt lat="39.75694046363879" lon="16.22057172832848"><ele>176.5</ele><time>2026-03-22T12:26:17.999Z</time></trkpt><trkpt lat="39.75663282638359" lon="16.22059678899994"><ele>191.0</ele><time>2026-03-22T12:26:18.999Z</time></trkpt><trkpt lat="39.756324387533404" lon="16.220640178756973"><ele>198.0</ele><time>2026-03-22T12:26:19.999Z</time></trkpt><trkpt lat="39.75601840579609" lon="16.220717676421064"><ele>205.0</ele><time>2026-03-22T12:26:20.999Z</time></trkpt><trkpt lat="39.75571545412971" lon="16.22083899611876"><ele>205.0</ele><time>2026-03-22T12:26:21.999Z</time></trkpt><trkpt lat="39.7554239900156" lon="16.22100482750617"><ele>205.0</ele><time>2026-03-22T12:26:22.999Z</time></trkpt><trkpt lat="39.755143973657376" lon="16.22121032871747"><ele>204.0</ele><time>2026-03-22T12:26:23.999Z</time></trkpt><trkpt lat="39.754883687276184" lon="16.221448001090263"><ele>203.0</ele><time>2026-03-22T12:26:24.999Z</time></trkpt><trkpt lat="39.75464137792999" lon="16.221714286099143"><ele>203.0</ele><time>2026-03-22T12:26:25.999Z</time></trkpt><trkpt lat="39.754415978208684" lon="16.222007094782917"><ele>203.0</ele><time>2026-03-22T12:26:26.999Z</time></trkpt><trkpt lat="39.75421534273703" lon="16.22232334949785"><ele>201.0</ele><time>2026-03-22T12:26:27.999Z</time></trkpt><trkpt lat="39.754010995328876" lon="16.22263195190175"><ele>199.0</ele><time>2026-03-22T12:26:28.999Z</time></trkpt><trkpt lat="39.75379613141705" lon="16.2229247559238"><ele>196.5</ele><time>2026-03-22T12:26:29.999Z</time></trkpt><trkpt lat="39.75356506632877" lon="16.22320088749728"><ele>194.0</ele><time>2026-03-22T12:26:30.999Z</time></trkpt><trkpt lat="39.753313631280285" lon="16.223447918046844"><ele>194.0</ele><time>2026-03-22T12:26:31.999Z</time></trkpt><trkpt lat="39.753036406484654" lon="16.22365815928958"><ele>194.0</ele><time>2026-03-22T12:26:32.999Z</time></trkpt><trkpt lat="39.75274172375943" lon="16.22383389081774"><ele>194.5</ele><time>2026-03-22T12:26:33.999Z</time></trkpt><trkpt lat="39.75243502922591" lon="16.223970861907784"><ele>195.0</ele><time>2026-03-22T12:26:34.999Z</time></trkpt><trkpt lat="39.75211607354783" lon="16.224068328253182"><ele>186.5</ele><time>2026-03-22T12:26:35.999Z</time></trkpt><trkpt lat="39.751783348498954" lon="16.22414628716065"><ele>178.0</ele><time>2026-03-22T12:26:36.999Z</time></trkpt><trkpt lat="39.751448063102046" lon="16.224220454871105"><ele>178.0</ele><time>2026-03-22T12:26:37.999Z</time></trkpt><trkpt lat="39.751107473608364" lon="16.224301606086414"><ele>178.0</ele><time>2026-03-22T12:26:38.999Z</time></trkpt><trkpt lat="39.7507611330537" lon="16.224389542419708"><ele>179.5</ele><time>2026-03-22T12:26:39.999Z</time></trkpt><trkpt lat="39.75040673387806" lon="16.224484277384743"><ele>181.0</ele><time>2026-03-22T12:26:40.999Z</time></trkpt><trkpt lat="39.750050456777075" lon="16.224578641083905"><ele>182.5</ele><time>2026-03-22T12:26:41.999Z</time></trkpt><trkpt lat="39.74969235988689" lon="16.224672281344823"><ele>184.0</ele><time>2026-03-22T12:26:43Z</time></trkpt><trkpt lat="39.749333252662865" lon="16.224765695194762"><ele>177.5</ele><time>2026-03-22T12:26:44Z</time></trkpt><trkpt lat="39.74897379627097" lon="16.22485865341511"><ele>171.0</ele><time>2026-03-22T12:26:45Z</time></trkpt><trkpt lat="39.748615413897596" lon="16.22495099761781"><ele>169.0</ele><time>2026-03-22T12:26:46Z</time></trkpt><trkpt lat="39.7482564170243" lon="16.225043481400537"><ele>167.0</ele><time>2026-03-22T12:26:47Z</time></trkpt><trkpt lat="39.74789666500127" lon="16.2251342341559"><ele>164.5</ele><time>2026-03-22T12:26:48Z</time></trkpt><trkpt lat="39.74753571537341" lon="16.22522562223485"><ele>162.0</ele><time>2026-03-22T12:26:49Z</time></trkpt><trkpt lat="39.74717455659893" lon="16.225317729294805"><ele>157.5</ele><time>2026-03-22T12:26:50Z</time></trkpt><trkpt lat="39.74681373384043" lon="16.225411569979837"><ele>153.0</ele><time>2026-03-22T12:26:51Z</time></trkpt><trkpt lat="39.74645408211445" lon="16.225508634568275"><ele>153.0</ele><time>2026-03-22T12:26:52Z</time></trkpt><trkpt lat="39.7460970786373" lon="16.225614637858413"><ele>153.0</ele><time>2026-03-22T12:26:53Z</time></trkpt><trkpt lat="39.74574696567563" lon="16.225738330653"><ele>153.5</ele><time>2026-03-22T12:26:54Z</time></trkpt><trkpt lat="39.74540274441908" lon="16.225880562527202"><ele>154.0</ele><time>2026-03-22T12:26:55Z</time></trkpt><trkpt lat="39.7450637961505" lon="16.226043060306036"><ele>152.0</ele><time>2026-03-22T12:26:56Z</time></trkpt><trkpt lat="39.74473227391916" lon="16.226225661726147"><ele>150.0</ele><time>2026-03-22T12:26:57Z</time></trkpt><trkpt lat="39.744406140271316" lon="16.22642464768672"><ele>146.0</ele><time>2026-03-22T12:26:58Z</time></trkpt><trkpt lat="39.74408693227607" lon="16.226638192690725"><ele>142.0</ele><time>2026-03-22T12:26:59Z</time></trkpt><trkpt lat="39.74377510395571" lon="16.226867673658077"><ele>142.5</ele><time>2026-03-22T12:27:00Z</time></trkpt><trkpt lat="39.74347055830528" lon="16.22711297404044"><ele>143.0</ele><time>2026-03-22T12:27:01Z</time></trkpt><trkpt lat="39.743170582221126" lon="16.227375705866184"><ele>138.5</ele><time>2026-03-22T12:27:02Z</time></trkpt><trkpt lat="39.7428728036701" lon="16.227647223099147"><ele>134.0</ele><time>2026-03-22T12:27:03Z</time></trkpt><trkpt lat="39.74257399956839" lon="16.22791837485696"><ele>129.5</ele><time>2026-03-22T12:27:04Z</time></trkpt><trkpt lat="39.742271887965096" lon="16.228189601671613"><ele>125.0</ele><time>2026-03-22T12:27:05Z</time></trkpt><trkpt lat="39.74196878374881" lon="16.228456975415853"><ele>125.0</ele><time>2026-03-22T12:27:06Z</time></trkpt><trkpt lat="39.74166518674074" lon="16.228724671875057"><ele>125.0</ele><time>2026-03-22T12:27:07Z</time></trkpt><trkpt lat="39.741363424198845" lon="16.2289924882251"><ele>122.5</ele><time>2026-03-22T12:27:08Z</time></trkpt><trkpt lat="39.74106307438181" lon="16.22926212254737"><ele>120.0</ele><time>2026-03-22T12:27:09Z</time></trkpt><trkpt lat="39.74076249141485" lon="16.229531070671335"><ele>123.5</ele><time>2026-03-22T12:27:10Z</time></trkpt><trkpt lat="39.740461442136336" lon="16.229798673592537"><ele>127.0</ele><time>2026-03-22T12:27:11Z</time></trkpt><trkpt lat="39.74015849506308" lon="16.230064848352534"><ele>127.0</ele><time>2026-03-22T12:27:12Z</time></trkpt><trkpt lat="39.73985437884115" lon="16.230327700135174"><ele>127.0</ele><time>2026-03-22T12:27:13Z</time></trkpt><trkpt lat="39.739547252747684" lon="16.230584575524336"><ele>124.0</ele><time>2026-03-22T12:27:14Z</time></trkpt><trkpt lat="39.73923298168837" lon="16.23081890469829"><ele>121.0</ele><time>2026-03-22T12:27:15Z</time></trkpt><trkpt lat="39.73890989564371" lon="16.231022799020884"><ele>121.0</ele><time>2026-03-22T12:27:16Z</time></trkpt><trkpt lat="39.738577880749496" lon="16.23119962384655"><ele>121.0</ele><time>2026-03-22T12:27:17Z</time></trkpt><trkpt lat="39.73824139428314" lon="16.231363181400614"><ele>116.0</ele><time>2026-03-22T12:27:18Z</time></trkpt><trkpt lat="39.73790008695747" lon="16.231518628170107"><ele>111.0</ele><time>2026-03-22T12:27:19Z</time></trkpt><trkpt lat="39.7375550955434" lon="16.23165907173118"><ele>111.0</ele><time>2026-03-22T12:27:20Z</time></trkpt><trkpt lat="39.73720550792924" lon="16.23178046050293"><ele>111.0</ele><time>2026-03-22T12:27:21Z</time></trkpt><trkpt lat="39.73685209706737" lon="16.231881501205653"><ele>111.0</ele><time>2026-03-22T12:27:22Z</time></trkpt><trkpt lat="39.73649716625255" lon="16.2319728141862"><ele>111.0</ele><time>2026-03-22T12:27:23Z</time></trkpt><trkpt lat="39.73614019589299" lon="16.23205679381793"><ele>111.5</ele><time>2026-03-22T12:27:24Z</time></trkpt><trkpt lat="39.735782684576904" lon="16.232138536585826"><ele>112.0</ele><time>2026-03-22T12:27:25Z</time></trkpt><trkpt lat="39.73542566510418" lon="16.23222721405704"><ele>108.5</ele><time>2026-03-22T12:27:26Z</time></trkpt><trkpt lat="39.73506841750719" lon="16.23231614174551"><ele>105.0</ele><time>2026-03-22T12:27:27Z</time></trkpt><trkpt lat="39.73471166541036" lon="16.2324050746924"><ele>105.0</ele><time>2026-03-22T12:27:28Z</time></trkpt><trkpt lat="39.73435287739868" lon="16.232497734840493"><ele>105.0</ele><time>2026-03-22T12:27:29Z</time></trkpt><trkpt lat="39.73399841976486" lon="16.232598315186795"><ele>105.0</ele><time>2026-03-22T12:27:30Z</time></trkpt><trkpt lat="39.73364655616696" lon="16.232715768636755"><ele>105.0</ele><time>2026-03-22T12:27:31Z</time></trkpt><trkpt lat="39.73330265568941" lon="16.232856575579554"><ele>104.0</ele><time>2026-03-22T12:27:32Z</time></trkpt><trkpt lat="39.732966856390284" lon="16.233017747206404"><ele>103.0</ele><time>2026-03-22T12:27:33Z</time></trkpt><trkpt lat="39.73263401211265" lon="16.233187373622023"><ele>102.0</ele><time>2026-03-22T12:27:34Z</time></trkpt><trkpt lat="39.7323025949999" lon="16.233369676131417"><ele>101.0</ele><time>2026-03-22T12:27:35Z</time></trkpt><trkpt lat="39.73197543103626" lon="16.233558388685893"><ele>101.0</ele><time>2026-03-22T12:27:36Z</time></trkpt><trkpt lat="39.73164655292896" lon="16.233744085004293"><ele>101.0</ele><time>2026-03-22T12:27:37Z</time></trkpt><trkpt lat="39.73131556904298" lon="16.233929114121338"><ele>99.5</ele><time>2026-03-22T12:27:38Z</time></trkpt><trkpt lat="39.73098553624615" lon="16.234110308853722"><ele>98.0</ele><time>2026-03-22T12:27:39Z</time></trkpt><trkpt lat="39.73066023212463" lon="16.234289255001542"><ele>98.0</ele><time>2026-03-22T12:27:39.999Z</time></trkpt><trkpt lat="39.730348931008145" lon="16.2344644702316"><ele>98.0</ele><time>2026-03-22T12:27:40.999Z</time></trkpt><trkpt lat="39.73004286387858" lon="16.234641195243494"><ele>97.5</ele><time>2026-03-22T12:27:41.999Z</time></trkpt><trkpt lat="39.729723372302175" lon="16.23481791559752"><ele>97.0</ele><time>2026-03-22T12:27:42.999Z</time></trkpt><trkpt lat="39.729395803208966" lon="16.234996697896808"><ele>99.5</ele><time>2026-03-22T12:27:43.999Z</time></trkpt><trkpt lat="39.72906657568454" lon="16.235174749482592"><ele>102.0</ele><time>2026-03-22T12:27:44.999Z</time></trkpt><trkpt lat="39.728736767419036" lon="16.235350820782834"><ele>102.0</ele><time>2026-03-22T12:27:45.999Z</time></trkpt><trkpt lat="39.728403389237855" lon="16.235525366554644"><ele>102.0</ele><time>2026-03-22T12:27:46.999Z</time></trkpt><trkpt lat="39.72806890076829" lon="16.235696245304084"><ele>102.0</ele><time>2026-03-22T12:27:47.999Z</time></trkpt><trkpt lat="39.727733969429835" lon="16.23586142438785"><ele>102.0</ele><time>2026-03-22T12:27:48.999Z</time></trkpt><trkpt lat="39.72739937642185" lon="16.236027178119425"><ele>102.0</ele><time>2026-03-22T12:27:49.999Z</time></trkpt><trkpt lat="39.72706588408081" lon="16.236193409444198"><ele>102.0</ele><time>2026-03-22T12:27:50.999Z</time></trkpt><trkpt lat="39.72673161394392" lon="16.236361442389047"><ele>102.0</ele><time>2026-03-22T12:27:51.999Z</time></trkpt><trkpt lat="39.72639819089953" lon="16.23653174951985"><ele>102.0</ele><time>2026-03-22T12:27:52.999Z</time></trkpt><trkpt lat="39.726064370700925" lon="16.23670515481881"><ele>103.0</ele><time>2026-03-22T12:27:53.999Z</time></trkpt><trkpt lat="39.725732745582285" lon="16.236882199867594"><ele>104.0</ele><time>2026-03-22T12:27:54.999Z</time></trkpt><trkpt lat="39.72540057596068" lon="16.23706146258708"><ele>104.5</ele><time>2026-03-22T12:27:55.999Z</time></trkpt><trkpt lat="39.725067482236106" lon="16.237242495181583"><ele>105.0</ele><time>2026-03-22T12:27:56.999Z</time></trkpt><trkpt lat="39.72473350530042" lon="16.237421085106273"><ele>105.0</ele><time>2026-03-22T12:27:57.999Z</time></trkpt><trkpt lat="39.72440028704256" lon="16.23759693322155"><ele>105.0</ele><time>2026-03-22T12:27:58.999Z</time></trkpt><trkpt lat="39.724064142775624" lon="16.23777374572416"><ele>105.0</ele><time>2026-03-22T12:27:59.999Z</time></trkpt><trkpt lat="39.72372975441704" lon="16.237950822601324"><ele>105.0</ele><time>2026-03-22T12:28:00.999Z</time></trkpt><trkpt lat="39.72339346787468" lon="16.23812278439305"><ele>106.0</ele><time>2026-03-22T12:28:01.999Z</time></trkpt><trkpt lat="39.72305719250673" lon="16.238293492706443"><ele>107.0</ele><time>2026-03-22T12:28:02.999Z</time></trkpt><trkpt lat="39.72272137479913" lon="16.238465168872654"><ele>107.0</ele><time>2026-03-22T12:28:03.999Z</time></trkpt><trkpt lat="39.72238386114968" lon="16.238635909577887"><ele>107.0</ele><time>2026-03-22T12:28:04.999Z</time></trkpt><trkpt lat="39.72204847897228" lon="16.23880991883806"><ele>107.0</ele><time>2026-03-22T12:28:05.999Z</time></trkpt><trkpt lat="39.72171366597128" lon="16.238986620304715"><ele>107.0</ele><time>2026-03-22T12:28:06.999Z</time></trkpt><trkpt lat="39.72137860908031" lon="16.23916341585949"><ele>108.0</ele><time>2026-03-22T12:28:07.999Z</time></trkpt><trkpt lat="39.7210430865393" lon="16.239341270534815"><ele>109.0</ele><time>2026-03-22T12:28:08.999Z</time></trkpt><trkpt lat="39.720709130344865" lon="16.23951705306584"><ele>109.0</ele><time>2026-03-22T12:28:09.999Z</time></trkpt><trkpt lat="39.72037048228991" lon="16.23969010931898"><ele>109.0</ele><time>2026-03-22T12:28:10.999Z</time></trkpt><trkpt lat="39.72003360499423" lon="16.239863764437487"><ele>108.5</ele><time>2026-03-22T12:28:11.999Z</time></trkpt><trkpt lat="39.71969535298097" lon="16.24004041085231"><ele>108.0</ele><time>2026-03-22T12:28:12.999Z</time></trkpt><trkpt lat="39.71935651260136" lon="16.240218633741804"><ele>107.5</ele><time>2026-03-22T12:28:13.999Z</time></trkpt><trkpt lat="39.71901834730445" lon="16.24039707563456"><ele>107.0</ele><time>2026-03-22T12:28:14.999Z</time></trkpt><trkpt lat="39.718678177093494" lon="16.240574530729386"><ele>107.0</ele><time>2026-03-22T12:28:15.999Z</time></trkpt><trkpt lat="39.718338925520406" lon="16.24074938825239"><ele>107.0</ele><time>2026-03-22T12:28:16.999Z</time></trkpt><trkpt lat="39.71799996689201" lon="16.240925274563047"><ele>109.0</ele><time>2026-03-22T12:28:17.999Z</time></trkpt><trkpt lat="39.717660155712814" lon="16.24110186397003"><ele>111.0</ele><time>2026-03-22T12:28:18.999Z</time></trkpt><trkpt lat="39.71731979545697" lon="16.24127839262258"><ele>111.0</ele><time>2026-03-22T12:28:19.999Z</time></trkpt><trkpt lat="39.71698048046071" lon="16.24145365799658"><ele>111.0</ele><time>2026-03-22T12:28:20.999Z</time></trkpt><trkpt lat="39.716639910519824" lon="16.241630178637063"><ele>111.0</ele><time>2026-03-22T12:28:21.999Z</time></trkpt><trkpt lat="39.7162996838786" lon="16.24180693385277"><ele>111.0</ele><time>2026-03-22T12:28:22.999Z</time></trkpt><trkpt lat="39.71595939304626" lon="16.24198539404477"><ele>111.0</ele><time>2026-03-22T12:28:23.999Z</time></trkpt><trkpt lat="39.71561796799672" lon="16.24216464693673"><ele>111.0</ele><time>2026-03-22T12:28:24.999Z</time></trkpt><trkpt lat="39.715276131524284" lon="16.24234483079583"><ele>108.5</ele><time>2026-03-22T12:28:25.999Z</time></trkpt><trkpt lat="39.71493264368798" lon="16.242522287362107"><ele>106.0</ele><time>2026-03-22T12:28:26.999Z</time></trkpt><trkpt lat="39.71458960269932" lon="16.242696652189164"><ele>103.5</ele><time>2026-03-22T12:28:27.999Z</time></trkpt><trkpt lat="39.71424317130105" lon="16.242870007637613"><ele>101.0</ele><time>2026-03-22T12:28:28.999Z</time></trkpt><trkpt lat="39.71389662849514" lon="16.243037569879668"><ele>96.5</ele><time>2026-03-22T12:28:29.999Z</time></trkpt><trkpt lat="39.71354786476163" lon="16.24319852082922"><ele>92.0</ele><time>2026-03-22T12:28:30.999Z</time></trkpt><trkpt lat="39.713197558368215" lon="16.24334804663198"><ele>92.0</ele><time>2026-03-22T12:28:31.999Z</time></trkpt><trkpt lat="39.71284465585966" lon="16.243482630458846"><ele>92.0</ele><time>2026-03-22T12:28:32.999Z</time></trkpt><trkpt lat="39.71249006739339" lon="16.243601930451884"><ele>90.0</ele><time>2026-03-22T12:28:33.999Z</time></trkpt><trkpt lat="39.71213323852869" lon="16.24370559695209"><ele>88.0</ele><time>2026-03-22T12:28:34.999Z</time></trkpt><trkpt lat="39.7117749600002" lon="16.243793313352928"><ele>94.5</ele><time>2026-03-22T12:28:35.999Z</time></trkpt><trkpt lat="39.71141439894031" lon="16.243863964401605"><ele>101.0</ele><time>2026-03-22T12:28:36.999Z</time></trkpt><trkpt lat="39.71105384067767" lon="16.24392103944582"><ele>100.0</ele><time>2026-03-22T12:28:37.999Z</time></trkpt><trkpt lat="39.71069094967963" lon="16.243957720975256"><ele>99.0</ele><time>2026-03-22T12:28:38.999Z</time></trkpt><trkpt lat="39.71032609224011" lon="16.24398803815293"><ele>97.5</ele><time>2026-03-22T12:28:39.999Z</time></trkpt><trkpt lat="39.70996028680294" lon="16.244003488280438"><ele>96.0</ele><time>2026-03-22T12:28:40.999Z</time></trkpt><trkpt lat="39.7095939420226" lon="16.24400392470351"><ele>96.5</ele><time>2026-03-22T12:28:41.999Z</time></trkpt><trkpt lat="39.70922943356996" lon="16.243989804802077"><ele>97.0</ele><time>2026-03-22T12:28:42.999Z</time></trkpt><trkpt lat="39.708864365980176" lon="16.243958179255856"><ele>101.0</ele><time>2026-03-22T12:28:43.999Z</time></trkpt><trkpt lat="39.70850261144154" lon="16.243913866714614"><ele>105.0</ele><time>2026-03-22T12:28:44.999Z</time></trkpt><trkpt lat="39.70814053450225" lon="16.243852592806338"><ele>105.0</ele><time>2026-03-22T12:28:45.999Z</time></trkpt><trkpt lat="39.70778016817744" lon="16.243776053337314"><ele>105.0</ele><time>2026-03-22T12:28:46.999Z</time></trkpt><trkpt lat="39.707421298338005" lon="16.243686700841845"><ele>102.5</ele><time>2026-03-22T12:28:47.999Z</time></trkpt><trkpt lat="39.7070629794103" lon="16.243582514200515"><ele>100.0</ele><time>2026-03-22T12:28:49Z</time></trkpt><trkpt lat="39.706709257937945" lon="16.24346565111277"><ele>99.0</ele><time>2026-03-22T12:28:50Z</time></trkpt><trkpt lat="39.70635788422686" lon="16.243335803801845"><ele>98.0</ele><time>2026-03-22T12:28:51Z</time></trkpt><trkpt lat="39.70601073327306" lon="16.243192462199698"><ele>99.0</ele><time>2026-03-22T12:28:52Z</time></trkpt><trkpt lat="39.70566695315169" lon="16.243034147289254"><ele>100.0</ele><time>2026-03-22T12:28:53Z</time></trkpt><trkpt lat="39.70532676860374" lon="16.242858994057887"><ele>96.0</ele><time>2026-03-22T12:28:54Z</time></trkpt><trkpt lat="39.70499022409647" lon="16.242671856752033"><ele>92.0</ele><time>2026-03-22T12:28:55Z</time></trkpt><trkpt lat="39.70465541195606" lon="16.24248267167574"><ele>92.0</ele><time>2026-03-22T12:28:56Z</time></trkpt><trkpt lat="39.70432256371817" lon="16.242284062857426"><ele>92.0</ele><time>2026-03-22T12:28:57Z</time></trkpt><trkpt lat="39.70398949901297" lon="16.242084797024333"><ele>92.0</ele><time>2026-03-22T12:28:58Z</time></trkpt><trkpt lat="39.70365607604078" lon="16.241884525322124"><ele>92.0</ele><time>2026-03-22T12:28:59Z</time></trkpt><trkpt lat="39.70332349207482" lon="16.241687118751223"><ele>91.0</ele><time>2026-03-22T12:29:00Z</time></trkpt><trkpt lat="39.70299124479905" lon="16.241493984780455"><ele>90.0</ele><time>2026-03-22T12:29:01Z</time></trkpt><trkpt lat="39.70265750571878" lon="16.24129992519631"><ele>90.0</ele><time>2026-03-22T12:29:02Z</time></trkpt><trkpt lat="39.70232309037517" lon="16.24110500332779"><ele>90.0</ele><time>2026-03-22T12:29:03Z</time></trkpt><trkpt lat="39.70198878117603" lon="16.24090903705495"><ele>89.5</ele><time>2026-03-22T12:29:04Z</time></trkpt><trkpt lat="39.70165505594227" lon="16.24071477146511"><ele>89.0</ele><time>2026-03-22T12:29:05Z</time></trkpt><trkpt lat="39.70132566125871" lon="16.240520320863563"><ele>89.0</ele><time>2026-03-22T12:29:06Z</time></trkpt><trkpt lat="39.70100303812719" lon="16.240328619618094"><ele>89.0</ele><time>2026-03-22T12:29:07Z</time></trkpt><trkpt lat="39.7006911786429" lon="16.240142056588958"><ele>89.0</ele><time>2026-03-22T12:29:08Z</time></trkpt><trkpt lat="39.700389091700366" lon="16.23996010211568"><ele>89.0</ele><time>2026-03-22T12:29:09Z</time></trkpt><trkpt lat="39.700097424981806" lon="16.239782678132244"><ele>89.0</ele><time>2026-03-22T12:29:10Z</time></trkpt><trkpt lat="39.699815858937384" lon="16.23961254899012"><ele>89.0</ele><time>2026-03-22T12:29:11Z</time></trkpt><trkpt lat="39.69954184854253" lon="16.23944733360765"><ele>88.0</ele><time>2026-03-22T12:29:12Z</time></trkpt><trkpt lat="39.6992736524864" lon="16.23928544807048"><ele>87.0</ele><time>2026-03-22T12:29:13Z</time></trkpt><trkpt lat="39.6990089151035" lon="16.23912501951864"><ele>87.5</ele><time>2026-03-22T12:29:14Z</time></trkpt><trkpt lat="39.6987446701407" lon="16.238964945943465"><ele>88.0</ele><time>2026-03-22T12:29:15Z</time></trkpt><trkpt lat="39.69848002452927" lon="16.238805192194167"><ele>88.0</ele><time>2026-03-22T12:29:16Z</time></trkpt><trkpt lat="39.69821638990679" lon="16.2386453802773"><ele>88.0</ele><time>2026-03-22T12:29:17Z</time></trkpt><trkpt lat="39.697953169206926" lon="16.23848546281097"><ele>89.0</ele><time>2026-03-22T12:29:18Z</time></trkpt><trkpt lat="39.69768197462667" lon="16.238324108499537"><ele>90.0</ele><time>2026-03-22T12:29:19Z</time></trkpt><trkpt lat="39.69739741288227" lon="16.238154851952128"><ele>90.0</ele><time>2026-03-22T12:29:20Z</time></trkpt><trkpt lat="39.697104436663714" lon="16.237979297399985"><ele>90.0</ele><time>2026-03-22T12:29:21Z</time></trkpt><trkpt lat="39.69680204201673" lon="16.237797831656717"><ele>90.0</ele><time>2026-03-22T12:29:22Z</time></trkpt><trkpt lat="39.69649009399355" lon="16.237608666626095"><ele>90.0</ele><time>2026-03-22T12:29:23Z</time></trkpt><trkpt lat="39.69617351025005" lon="16.237411258802513"><ele>90.5</ele><time>2026-03-22T12:29:24Z</time></trkpt><trkpt lat="39.69585608068199" lon="16.237208644546648"><ele>91.0</ele><time>2026-03-22T12:29:25Z</time></trkpt><trkpt lat="39.69553955682645" lon="16.236997871496666"><ele>92.0</ele><time>2026-03-22T12:29:26Z</time></trkpt><trkpt lat="39.69522592688479" lon="16.23677282414937"><ele>93.0</ele><time>2026-03-22T12:29:27Z</time></trkpt><trkpt lat="39.69491500417879" lon="16.236532642271605"><ele>93.0</ele><time>2026-03-22T12:29:28Z</time></trkpt><trkpt lat="39.69461120382326" lon="16.236276480344138"><ele>93.0</ele><time>2026-03-22T12:29:29Z</time></trkpt><trkpt lat="39.69431603714702" lon="16.236005343027948"><ele>93.0</ele><time>2026-03-22T12:29:30Z</time></trkpt><trkpt lat="39.694028595833025" lon="16.235720579092142"><ele>93.0</ele><time>2026-03-22T12:29:31Z</time></trkpt><trkpt lat="39.69374970070229" lon="16.235424220207946"><ele>93.5</ele><time>2026-03-22T12:29:32Z</time></trkpt><trkpt lat="39.693479623739954" lon="16.235116946908825"><ele>94.0</ele><time>2026-03-22T12:29:33Z</time></trkpt><trkpt lat="39.69321422613325" lon="16.234800564137693"><ele>94.0</ele><time>2026-03-22T12:29:34Z</time></trkpt><trkpt lat="39.69295079572604" lon="16.23447967273125"><ele>94.0</ele><time>2026-03-22T12:29:35Z</time></trkpt><trkpt lat="39.69269054298413" lon="16.234151700985354"><ele>93.0</ele><time>2026-03-22T12:29:36Z</time></trkpt><trkpt lat="39.69243731900467" lon="16.23381626597875"><ele>92.0</ele><time>2026-03-22T12:29:37Z</time></trkpt><trkpt lat="39.69218996381312" lon="16.233474604505904"><ele>91.5</ele><time>2026-03-22T12:29:38Z</time></trkpt><trkpt lat="39.69194445586066" lon="16.233126444371475"><ele>91.0</ele><time>2026-03-22T12:29:39Z</time></trkpt><trkpt lat="39.69169939081036" lon="16.232774688081683"><ele>92.5</ele><time>2026-03-22T12:29:40Z</time></trkpt><trkpt lat="39.69145275403561" lon="16.23242314070724"><ele>94.0</ele><time>2026-03-22T12:29:41Z</time></trkpt><trkpt lat="39.69120520129899" lon="16.232070735368588"><ele>95.5</ele><time>2026-03-22T12:29:42Z</time></trkpt><trkpt lat="39.69095686588388" lon="16.23172160566926"><ele>97.0</ele><time>2026-03-22T12:29:43Z</time></trkpt><trkpt lat="39.69070640171074" lon="16.23137244089025"><ele>97.0</ele><time>2026-03-22T12:29:44Z</time></trkpt><trkpt lat="39.690455329652785" lon="16.231025422252948"><ele>97.0</ele><time>2026-03-22T12:29:45Z</time></trkpt><trkpt lat="39.690204921441634" lon="16.230676931779822"><ele>98.0</ele><time>2026-03-22T12:29:45.999Z</time></trkpt><trkpt lat="39.68995728935484" lon="16.230329337713915"><ele>99.0</ele><time>2026-03-22T12:29:46.999Z</time></trkpt><trkpt lat="39.68970763015833" lon="16.229981780578672"><ele>99.0</ele><time>2026-03-22T12:29:47.999Z</time></trkpt><trkpt lat="39.68945610965127" lon="16.22963602664624"><ele>99.0</ele><time>2026-03-22T12:29:48.999Z</time></trkpt><trkpt lat="39.689202733168926" lon="16.229292649466732"><ele>98.0</ele><time>2026-03-22T12:29:49.999Z</time></trkpt><trkpt lat="39.688949529762624" lon="16.228950283421682"><ele>97.0</ele><time>2026-03-22T12:29:50.999Z</time></trkpt><trkpt lat="39.68869678475698" lon="16.22860710233665"><ele>97.0</ele><time>2026-03-22T12:29:51.999Z</time></trkpt><trkpt lat="39.68844670038349" lon="16.228264501524187"><ele>97.0</ele><time>2026-03-22T12:29:52.999Z</time></trkpt><trkpt lat="39.6881988252424" lon="16.227920455814413"><ele>97.0</ele><time>2026-03-22T12:29:53.999Z</time></trkpt><trkpt lat="39.68795299954153" lon="16.22757616047525"><ele>97.0</ele><time>2026-03-22T12:29:54.999Z</time></trkpt><trkpt lat="39.687706392510584" lon="16.227233334388508"><ele>97.5</ele><time>2026-03-22T12:29:55.999Z</time></trkpt><trkpt lat="39.68745556989248" lon="16.226894328578684"><ele>98.0</ele><time>2026-03-22T12:29:56.999Z</time></trkpt><trkpt lat="39.687200214095405" lon="16.226557693484377"><ele>96.5</ele><time>2026-03-22T12:29:57.999Z</time></trkpt><trkpt lat="39.68694311307583" lon="16.22622584139921"><ele>95.0</ele><time>2026-03-22T12:29:58.999Z</time></trkpt><trkpt lat="39.68668452754185" lon="16.225897378918226"><ele>94.0</ele><time>2026-03-22T12:29:59.999Z</time></trkpt><trkpt lat="39.68642586504997" lon="16.225568463472836"><ele>93.0</ele><time>2026-03-22T12:30:00.999Z</time></trkpt><trkpt lat="39.68616784546472" lon="16.225239648408877"><ele>93.0</ele><time>2026-03-22T12:30:01.999Z</time></trkpt><trkpt lat="39.68590764748586" lon="16.224910654125523"><ele>93.0</ele><time>2026-03-22T12:30:02.999Z</time></trkpt><trkpt lat="39.68564826840821" lon="16.22458265216692"><ele>92.0</ele><time>2026-03-22T12:30:03.999Z</time></trkpt><trkpt lat="39.68538860733367" lon="16.22425535768511"><ele>91.0</ele><time>2026-03-22T12:30:04.999Z</time></trkpt><trkpt lat="39.685129059316864" lon="16.223926896242563"><ele>90.5</ele><time>2026-03-22T12:30:05.999Z</time></trkpt><trkpt lat="39.68486849075082" lon="16.223597510448815"><ele>90.0</ele><time>2026-03-22T12:30:06.999Z</time></trkpt><trkpt lat="39.68460852958626" lon="16.22326571305092"><ele>89.5</ele><time>2026-03-22T12:30:07.999Z</time></trkpt><trkpt lat="39.68434797215698" lon="16.222935821974595"><ele>89.0</ele><time>2026-03-22T12:30:08.999Z</time></trkpt><trkpt lat="39.68408502098242" lon="16.222610910535714"><ele>88.5</ele><time>2026-03-22T12:30:09.999Z</time></trkpt><trkpt lat="39.683817417590355" lon="16.222292079709952"><ele>88.0</ele><time>2026-03-22T12:30:10.999Z</time></trkpt><trkpt lat="39.68354542370653" lon="16.22198133228734"><ele>88.5</ele><time>2026-03-22T12:30:11.999Z</time></trkpt><trkpt lat="39.683269859941724" lon="16.22167718736727"><ele>89.0</ele><time>2026-03-22T12:30:12.999Z</time></trkpt><trkpt lat="39.682989851646184" lon="16.221379875498428"><ele>89.5</ele><time>2026-03-22T12:30:13.999Z</time></trkpt><trkpt lat="39.68270256626418" lon="16.221091216836395"><ele>90.0</ele><time>2026-03-22T12:30:14.999Z</time></trkpt><trkpt lat="39.68240990417322" lon="16.220817031066925"><ele>90.0</ele><time>2026-03-22T12:30:15.999Z</time></trkpt><trkpt lat="39.68210750698383" lon="16.220558519291526"><ele>90.0</ele><time>2026-03-22T12:30:16.999Z</time></trkpt><trkpt lat="39.68179579718949" lon="16.220310431506608"><ele>90.0</ele><time>2026-03-22T12:30:17.999Z</time></trkpt><trkpt lat="39.68148145694283" lon="16.220075902780273"><ele>90.0</ele><time>2026-03-22T12:30:18.999Z</time></trkpt><trkpt lat="39.68116482783625" lon="16.219852845496543"><ele>90.5</ele><time>2026-03-22T12:30:19.999Z</time></trkpt><trkpt lat="39.680844000109154" lon="16.21964183135653"><ele>91.0</ele><time>2026-03-22T12:30:20.999Z</time></trkpt><trkpt lat="39.68051940226838" lon="16.2194433345759"><ele>92.0</ele><time>2026-03-22T12:30:21.999Z</time></trkpt><trkpt lat="39.68018926402236" lon="16.219258376942562"><ele>93.0</ele><time>2026-03-22T12:30:22.999Z</time></trkpt><trkpt lat="39.67985385939259" lon="16.21908850203232"><ele>92.5</ele><time>2026-03-22T12:30:23.999Z</time></trkpt><trkpt lat="39.67951614048705" lon="16.218933008710657"><ele>92.0</ele><time>2026-03-22T12:30:24.999Z</time></trkpt><trkpt lat="39.679172465849724" lon="16.21879041766666"><ele>92.0</ele><time>2026-03-22T12:30:25.999Z</time></trkpt><trkpt lat="39.678826529286916" lon="16.2186533977175"><ele>92.0</ele><time>2026-03-22T12:30:26.999Z</time></trkpt><trkpt lat="39.678478062315" lon="16.218530822908463"><ele>92.5</ele><time>2026-03-22T12:30:27.999Z</time></trkpt><trkpt lat="39.67812751010714" lon="16.218408780629595"><ele>93.0</ele><time>2026-03-22T12:30:28.999Z</time></trkpt><trkpt lat="39.6777743000459" lon="16.218287007280125"><ele>93.0</ele><time>2026-03-22T12:30:29.999Z</time></trkpt><trkpt lat="39.67741897030394" lon="16.218164764462657"><ele>93.0</ele><time>2026-03-22T12:30:30.999Z</time></trkpt><trkpt lat="39.677065513480414" lon="16.21804242658624"><ele>93.5</ele><time>2026-03-22T12:30:31.999Z</time></trkpt><trkpt lat="39.67671007937249" lon="16.217921945719972"><ele>94.0</ele><time>2026-03-22T12:30:32.999Z</time></trkpt><trkpt lat="39.67635473635561" lon="16.217801514870665"><ele>94.0</ele><time>2026-03-22T12:30:33.999Z</time></trkpt><trkpt lat="39.675997372990885" lon="16.21768315593151"><ele>94.0</ele><time>2026-03-22T12:30:34.999Z</time></trkpt><trkpt lat="39.675640773500824" lon="16.217568012819637"><ele>94.0</ele><time>2026-03-22T12:30:35.999Z</time></trkpt><trkpt lat="39.675283920228104" lon="16.21745144626242"><ele>94.0</ele><time>2026-03-22T12:30:36.999Z</time></trkpt><trkpt lat="39.674926922346295" lon="16.21733174789511"><ele>93.0</ele><time>2026-03-22T12:30:37.999Z</time></trkpt><trkpt lat="39.67457154791131" lon="16.217212538719025"><ele>92.0</ele><time>2026-03-22T12:30:38.999Z</time></trkpt><trkpt lat="39.6742163667357" lon="16.217094163135904"><ele>92.0</ele><time>2026-03-22T12:30:39.999Z</time></trkpt><trkpt lat="39.67386178369643" lon="16.216977123864456"><ele>92.0</ele><time>2026-03-22T12:30:40.999Z</time></trkpt><trkpt lat="39.673508700383245" lon="16.216859588197813"><ele>92.0</ele><time>2026-03-22T12:30:41.999Z</time></trkpt><trkpt lat="39.673154811103565" lon="16.216743286712617"><ele>92.0</ele><time>2026-03-22T12:30:42.999Z</time></trkpt><trkpt lat="39.67280213602077" lon="16.216626582005517"><ele>91.0</ele><time>2026-03-22T12:30:43.999Z</time></trkpt><trkpt lat="39.67244806778215" lon="16.216509815642443"><ele>90.0</ele><time>2026-03-22T12:30:44.999Z</time></trkpt><trkpt lat="39.67209598523102" lon="16.216393676566142"><ele>90.0</ele><time>2026-03-22T12:30:45.999Z</time></trkpt><trkpt lat="39.67174376115537" lon="16.216278358509435"><ele>90.0</ele><time>2026-03-22T12:30:46.999Z</time></trkpt><trkpt lat="39.67139273811697" lon="16.216163121645387"><ele>89.0</ele><time>2026-03-22T12:30:47.999Z</time></trkpt><trkpt lat="39.67105055731897" lon="16.216051706524222"><ele>88.0</ele><time>2026-03-22T12:30:48.999Z</time></trkpt><trkpt lat="39.67071591579664" lon="16.215948797246508"><ele>88.0</ele><time>2026-03-22T12:30:49.999Z</time></trkpt><trkpt lat="39.670378826027765" lon="16.21584894924187"><ele>88.0</ele><time>2026-03-22T12:30:50.999Z</time></trkpt><trkpt lat="39.67003440521412" lon="16.21574582443314"><ele>87.0</ele><time>2026-03-22T12:30:51.999Z</time></trkpt><trkpt lat="39.66968813913576" lon="16.21563720806837"><ele>86.0</ele><time>2026-03-22T12:30:52.999Z</time></trkpt><trkpt lat="39.66934109025632" lon="16.215523550613625"><ele>86.0</ele><time>2026-03-22T12:30:53.999Z</time></trkpt><trkpt lat="39.66899434457479" lon="16.21540589992299"><ele>86.0</ele><time>2026-03-22T12:30:55Z</time></trkpt><trkpt lat="39.668647216794454" lon="16.21528634513377"><ele>86.0</ele><time>2026-03-22T12:30:56Z</time></trkpt><trkpt lat="39.668301097087806" lon="16.2151652303853"><ele>86.0</ele><time>2026-03-22T12:30:57Z</time></trkpt><trkpt lat="39.66795255471703" lon="16.215044517479082"><ele>86.5</ele><time>2026-03-22T12:30:58Z</time></trkpt><trkpt lat="39.66760209424969" lon="16.21493069706786"><ele>87.0</ele><time>2026-03-22T12:30:59Z</time></trkpt><trkpt lat="39.66725206556821" lon="16.214816254263035"><ele>86.0</ele><time>2026-03-22T12:31:00Z</time></trkpt><trkpt lat="39.66690017640565" lon="16.21470299418826"><ele>85.0</ele><time>2026-03-22T12:31:01Z</time></trkpt><trkpt lat="39.666547501095714" lon="16.214589039385963"><ele>85.0</ele><time>2026-03-22T12:31:02Z</time></trkpt><trkpt lat="39.66619323790734" lon="16.21447710329653"><ele>85.0</ele><time>2026-03-22T12:31:03Z</time></trkpt><trkpt lat="39.66583995266499" lon="16.214371400027556"><ele>84.5</ele><time>2026-03-22T12:31:04Z</time></trkpt><trkpt lat="39.66548533476124" lon="16.214275736441614"><ele>84.0</ele><time>2026-03-22T12:31:05Z</time></trkpt><trkpt lat="39.66512913958413" lon="16.21419531092119"><ele>84.0</ele><time>2026-03-22T12:31:06Z</time></trkpt><trkpt lat="39.66477147657181" lon="16.214127802711925"><ele>84.0</ele><time>2026-03-22T12:31:07Z</time></trkpt><trkpt lat="39.66441224645731" lon="16.214074130613447"><ele>84.0</ele><time>2026-03-22T12:31:08Z</time></trkpt><trkpt lat="39.664050639817134" lon="16.214033094068366"><ele>84.0</ele><time>2026-03-22T12:31:09Z</time></trkpt><trkpt lat="39.66368947599689" lon="16.214004849178544"><ele>83.5</ele><time>2026-03-22T12:31:10Z</time></trkpt><trkpt lat="39.663328963604286" lon="16.21399061015173"><ele>83.0</ele><time>2026-03-22T12:31:11Z</time></trkpt><trkpt lat="39.662969062779986" lon="16.21399360193872"><ele>83.0</ele><time>2026-03-22T12:31:12Z</time></trkpt><trkpt lat="39.6626085958417" lon="16.21401269591097"><ele>83.0</ele><time>2026-03-22T12:31:13Z</time></trkpt><trkpt lat="39.662248125794356" lon="16.214045531834287"><ele>82.5</ele><time>2026-03-22T12:31:14Z</time></trkpt><trkpt lat="39.661888958778725" lon="16.214091068515746"><ele>82.0</ele><time>2026-03-22T12:31:15Z</time></trkpt><trkpt lat="39.661529315708684" lon="16.214146120002066"><ele>82.0</ele><time>2026-03-22T12:31:16Z</time></trkpt><trkpt lat="39.661168804298285" lon="16.214212416354094"><ele>82.0</ele><time>2026-03-22T12:31:17Z</time></trkpt><trkpt lat="39.66080871066699" lon="16.214283968516522"><ele>82.5</ele><time>2026-03-22T12:31:18Z</time></trkpt><trkpt lat="39.66044959330886" lon="16.214358314723416"><ele>83.0</ele><time>2026-03-22T12:31:19Z</time></trkpt><trkpt lat="39.660089637075984" lon="16.214433799781666"><ele>83.0</ele><time>2026-03-22T12:31:20Z</time></trkpt><trkpt lat="39.65972852172409" lon="16.214509631880095"><ele>83.0</ele><time>2026-03-22T12:31:21Z</time></trkpt><trkpt lat="39.65936724677765" lon="16.214587202097945"><ele>82.5</ele><time>2026-03-22T12:31:22Z</time></trkpt><trkpt lat="39.659007859214654" lon="16.21466417939958"><ele>82.0</ele><time>2026-03-22T12:31:23Z</time></trkpt><trkpt lat="39.65864826876654" lon="16.21474275712906"><ele>81.5</ele><time>2026-03-22T12:31:24Z</time></trkpt><trkpt lat="39.6582884734085" lon="16.21482243705198"><ele>81.0</ele><time>2026-03-22T12:31:25Z</time></trkpt><trkpt lat="39.65793037098903" lon="16.21490321193877"><ele>82.0</ele><time>2026-03-22T12:31:26Z</time></trkpt><trkpt lat="39.65757114801999" lon="16.214984189353046"><ele>83.0</ele><time>2026-03-22T12:31:27Z</time></trkpt><trkpt lat="39.65721289910036" lon="16.21506699782651"><ele>83.0</ele><time>2026-03-22T12:31:28Z</time></trkpt><trkpt lat="39.656853426830764" lon="16.215151951174665"><ele>83.0</ele><time>2026-03-22T12:31:29Z</time></trkpt><trkpt lat="39.656494457125625" lon="16.2152362551619"><ele>83.0</ele><time>2026-03-22T12:31:30Z</time></trkpt><trkpt lat="39.656135436933816" lon="16.215318786774077"><ele>83.0</ele><time>2026-03-22T12:31:31Z</time></trkpt><trkpt lat="39.65577675655598" lon="16.215400615817842"><ele>83.0</ele><time>2026-03-22T12:31:32Z</time></trkpt><trkpt lat="39.65541700856279" lon="16.215482003927633"><ele>83.0</ele><time>2026-03-22T12:31:33Z</time></trkpt><trkpt lat="39.65505776357382" lon="16.21556366387099"><ele>83.0</ele><time>2026-03-22T12:31:34Z</time></trkpt><trkpt lat="39.6547000672624" lon="16.215646996944866"><ele>83.0</ele><time>2026-03-22T12:31:35Z</time></trkpt><trkpt lat="39.65434232060491" lon="16.215731183951533"><ele>83.5</ele><time>2026-03-22T12:31:36Z</time></trkpt><trkpt lat="39.65398595840016" lon="16.215816276017154"><ele>84.0</ele><time>2026-03-22T12:31:37Z</time></trkpt><trkpt lat="39.65363659316375" lon="16.21590207733275"><ele>84.0</ele><time>2026-03-22T12:31:38Z</time></trkpt><trkpt lat="39.65328584477281" lon="16.21599064160478"><ele>84.0</ele><time>2026-03-22T12:31:39Z</time></trkpt><trkpt lat="39.65293232354536" lon="16.216081961169444"><ele>83.5</ele><time>2026-03-22T12:31:40Z</time></trkpt><trkpt lat="39.65257927791268" lon="16.216171139173877"><ele>83.0</ele><time>2026-03-22T12:31:41Z</time></trkpt><trkpt lat="39.65222605773488" lon="16.216261870044193"><ele>83.5</ele><time>2026-03-22T12:31:42Z</time></trkpt><trkpt lat="39.65187290912898" lon="16.216361406890073"><ele>84.0</ele><time>2026-03-22T12:31:43Z</time></trkpt><trkpt lat="39.65152427122108" lon="16.2164736742636"><ele>83.5</ele><time>2026-03-22T12:31:44Z</time></trkpt><trkpt lat="39.65117860593156" lon="16.216602602826498"><ele>83.0</ele><time>2026-03-22T12:31:45Z</time></trkpt><trkpt lat="39.65084043801765" lon="16.216758434472105"><ele>84.0</ele><time>2026-03-22T12:31:46Z</time></trkpt><trkpt lat="39.65050630585731" lon="16.21692475880722"><ele>85.0</ele><time>2026-03-22T12:31:46.999Z</time></trkpt><trkpt lat="39.65017984178912" lon="16.217114484966174"><ele>89.5</ele><time>2026-03-22T12:31:47.999Z</time></trkpt><trkpt lat="39.64985946071989" lon="16.217326756056714"><ele>94.0</ele><time>2026-03-22T12:31:48.999Z</time></trkpt><trkpt lat="39.649549844870265" lon="16.21755584239645"><ele>92.5</ele><time>2026-03-22T12:31:49.999Z</time></trkpt><trkpt lat="39.64924341483176" lon="16.217799378323758"><ele>91.0</ele><time>2026-03-22T12:31:50.999Z</time></trkpt><trkpt lat="39.648945957904814" lon="16.218063317793465"><ele>90.5</ele><time>2026-03-22T12:31:51.999Z</time></trkpt><trkpt lat="39.64865751938174" lon="16.218343411600657"><ele>90.0</ele><time>2026-03-22T12:31:52.999Z</time></trkpt><trkpt lat="39.64838163999186" lon="16.218640776820777"><ele>90.0</ele><time>2026-03-22T12:31:53.999Z</time></trkpt><trkpt lat="39.6481113277293" lon="16.21895361890627"><ele>90.0</ele><time>2026-03-22T12:31:54.999Z</time></trkpt><trkpt lat="39.64785200757992" lon="16.21928145133107"><ele>89.0</ele><time>2026-03-22T12:31:55.999Z</time></trkpt><trkpt lat="39.64760540797085" lon="16.219621742457054"><ele>88.0</ele><time>2026-03-22T12:31:56.999Z</time></trkpt><trkpt lat="39.64737133027847" lon="16.21997492166585"><ele>88.0</ele><time>2026-03-22T12:31:57.999Z</time></trkpt><trkpt lat="39.647148684843714" lon="16.220341537166792"><ele>88.0</ele><time>2026-03-22T12:31:58.999Z</time></trkpt><trkpt lat="39.64693944454129" lon="16.220721112118973"><ele>91.5</ele><time>2026-03-22T12:31:59.999Z</time></trkpt><trkpt lat="39.646745201237906" lon="16.221109899330727"><ele>95.0</ele><time>2026-03-22T12:32:00.999Z</time></trkpt><trkpt lat="39.64656259048289" lon="16.22150903023348"><ele>95.0</ele><time>2026-03-22T12:32:01.999Z</time></trkpt><trkpt lat="39.646390054582824" lon="16.22191354632847"><ele>95.0</ele><time>2026-03-22T12:32:02.999Z</time></trkpt><trkpt lat="39.64622269702777" lon="16.222327609895768"><ele>98.5</ele><time>2026-03-22T12:32:03.999Z</time></trkpt><trkpt lat="39.646057472758734" lon="16.22274633621577"><ele>102.0</ele><time>2026-03-22T12:32:04.999Z</time></trkpt><trkpt lat="39.64589358888452" lon="16.223166928876843"><ele>102.0</ele><time>2026-03-22T12:32:05.999Z</time></trkpt><trkpt lat="39.645729251028584" lon="16.22358860695783"><ele>102.0</ele><time>2026-03-22T12:32:06.999Z</time></trkpt><trkpt lat="39.64556275626467" lon="16.224010814891464"><ele>98.5</ele><time>2026-03-22T12:32:07.999Z</time></trkpt><trkpt lat="39.64539262967795" lon="16.22443068589388"><ele>95.0</ele><time>2026-03-22T12:32:08.999Z</time></trkpt><trkpt lat="39.64521751835962" lon="16.22484995334252"><ele>90.5</ele><time>2026-03-22T12:32:09.999Z</time></trkpt><trkpt lat="39.64503673404635" lon="16.225266303526354"><ele>86.0</ele><time>2026-03-22T12:32:10.999Z</time></trkpt><trkpt lat="39.64484694515744" lon="16.225673897979583"><ele>84.5</ele><time>2026-03-22T12:32:11.999Z</time></trkpt><trkpt lat="39.6446436818337" lon="16.22606484469191"><ele>83.0</ele><time>2026-03-22T12:32:12.999Z</time></trkpt><trkpt lat="39.64443008245151" lon="16.226442991317818"><ele>83.0</ele><time>2026-03-22T12:32:13.999Z</time></trkpt><trkpt lat="39.64420449268222" lon="16.226809548116574"><ele>83.0</ele><time>2026-03-22T12:32:14.999Z</time></trkpt><trkpt lat="39.64396306537618" lon="16.22716077065959"><ele>83.0</ele><time>2026-03-22T12:32:15.999Z</time></trkpt><trkpt lat="39.6437080118545" lon="16.227493240776614"><ele>83.0</ele><time>2026-03-22T12:32:16.999Z</time></trkpt><trkpt lat="39.64344085002563" lon="16.227811122677423"><ele>83.0</ele><time>2026-03-22T12:32:17.999Z</time></trkpt><trkpt lat="39.64316292284587" lon="16.228113437951176"><ele>83.0</ele><time>2026-03-22T12:32:18.999Z</time></trkpt><trkpt lat="39.64287410213528" lon="16.228397240905522"><ele>82.5</ele><time>2026-03-22T12:32:19.999Z</time></trkpt><trkpt lat="39.64257590223332" lon="16.228663776706938"><ele>82.0</ele><time>2026-03-22T12:32:20.999Z</time></trkpt><trkpt lat="39.64226973647183" lon="16.228915855960587"><ele>81.5</ele><time>2026-03-22T12:32:21.999Z</time></trkpt><trkpt lat="39.641957394753774" lon="16.229152561861365"><ele>81.0</ele><time>2026-03-22T12:32:22.999Z</time></trkpt><trkpt lat="39.64163928837777" lon="16.229372435363334"><ele>81.0</ele><time>2026-03-22T12:32:23.999Z</time></trkpt><trkpt lat="39.64131577212801" lon="16.22957593287477"><ele>81.0</ele><time>2026-03-22T12:32:24.999Z</time></trkpt><trkpt lat="39.64098653897114" lon="16.229764520047492"><ele>81.0</ele><time>2026-03-22T12:32:25.999Z</time></trkpt><trkpt lat="39.64065263321148" lon="16.229935720834227"><ele>81.0</ele><time>2026-03-22T12:32:26.999Z</time></trkpt><trkpt lat="39.6403141000735" lon="16.230086985889148"><ele>82.5</ele><time>2026-03-22T12:32:27.999Z</time></trkpt><trkpt lat="39.63997106059672" lon="16.230226202180667"><ele>84.0</ele><time>2026-03-22T12:32:28.999Z</time></trkpt><trkpt lat="39.63962830617407" lon="16.23036537901967"><ele>85.5</ele><time>2026-03-22T12:32:29.999Z</time></trkpt><trkpt lat="39.639285550027914" lon="16.230505644139917"><ele>87.0</ele><time>2026-03-22T12:32:30.999Z</time></trkpt><trkpt lat="39.63894070457699" lon="16.23064617857659"><ele>87.5</ele><time>2026-03-22T12:32:31.999Z</time></trkpt><trkpt lat="39.638596423322646" lon="16.23078882066051"><ele>88.0</ele><time>2026-03-22T12:32:32.999Z</time></trkpt><trkpt lat="39.63825207994396" lon="16.230933306977015"><ele>88.0</ele><time>2026-03-22T12:32:33.999Z</time></trkpt><trkpt lat="39.637908062983165" lon="16.231077337513465"><ele>88.0</ele><time>2026-03-22T12:32:34.999Z</time></trkpt><trkpt lat="39.637562563559285" lon="16.231217453931695"><ele>89.0</ele><time>2026-03-22T12:32:35.999Z</time></trkpt><trkpt lat="39.6372157300026" lon="16.231352894147832"><ele>90.0</ele><time>2026-03-22T12:32:36.999Z</time></trkpt><trkpt lat="39.63686587204824" lon="16.231480070894364"><ele>91.0</ele><time>2026-03-22T12:32:37.999Z</time></trkpt><trkpt lat="39.636515392212026" lon="16.231592875725106"><ele>92.0</ele><time>2026-03-22T12:32:38.999Z</time></trkpt><trkpt lat="39.63616242988867" lon="16.231688073364026"><ele>93.5</ele><time>2026-03-22T12:32:39.999Z</time></trkpt><trkpt lat="39.635806860578874" lon="16.231760841318753"><ele>95.0</ele><time>2026-03-22T12:32:40.999Z</time></trkpt><trkpt lat="39.635447276987364" lon="16.23180991665953"><ele>97.5</ele><time>2026-03-22T12:32:41.999Z</time></trkpt><trkpt lat="39.635085595234855" lon="16.23183793558594"><ele>100.0</ele><time>2026-03-22T12:32:42.999Z</time></trkpt><trkpt lat="39.63472047017446" lon="16.231846463352603"><ele>101.0</ele><time>2026-03-22T12:32:43.999Z</time></trkpt><trkpt lat="39.6343550056654" lon="16.231835119351306"><ele>102.0</ele><time>2026-03-22T12:32:44.999Z</time></trkpt><trkpt lat="39.633991672669104" lon="16.231803056092865"><ele>103.0</ele><time>2026-03-22T12:32:45.999Z</time></trkpt><trkpt lat="39.63363100890628" lon="16.231748345294978"><ele>104.0</ele><time>2026-03-22T12:32:46.999Z</time></trkpt><trkpt lat="39.633271142090074" lon="16.231672691058954"><ele>104.0</ele><time>2026-03-22T12:32:47.999Z</time></trkpt><trkpt lat="39.63291508710592" lon="16.231572956307343"><ele>104.0</ele><time>2026-03-22T12:32:48.999Z</time></trkpt><trkpt lat="39.63256371496427" lon="16.23145423920233"><ele>104.5</ele><time>2026-03-22T12:32:49.999Z</time></trkpt><trkpt lat="39.632215985006745" lon="16.231313379614548"><ele>105.0</ele><time>2026-03-22T12:32:50.999Z</time></trkpt><trkpt lat="39.63187340292741" lon="16.23115534860601"><ele>107.5</ele><time>2026-03-22T12:32:51.999Z</time></trkpt><trkpt lat="39.631534728770404" lon="16.23098229720854"><ele>110.0</ele><time>2026-03-22T12:32:52.999Z</time></trkpt><trkpt lat="39.63119930183467" lon="16.23079930694786"><ele>110.0</ele><time>2026-03-22T12:32:53.999Z</time></trkpt><trkpt lat="39.63086487282334" lon="16.230612052227833"><ele>110.0</ele><time>2026-03-22T12:32:54.999Z</time></trkpt><trkpt lat="39.63052938300011" lon="16.230429034519094"><ele>115.0</ele><time>2026-03-22T12:32:55.999Z</time></trkpt><trkpt lat="39.63019420669723" lon="16.230253016640035"><ele>120.0</ele><time>2026-03-22T12:32:56.999Z</time></trkpt><trkpt lat="39.62985410683903" lon="16.23008120084568"><ele>120.0</ele><time>2026-03-22T12:32:57.999Z</time></trkpt><trkpt lat="39.629509673459744" lon="16.229921146573414"><ele>120.0</ele><time>2026-03-22T12:32:58.999Z</time></trkpt><trkpt lat="39.629163335983854" lon="16.22977663282656"><ele>120.5</ele><time>2026-03-22T12:33:00Z</time></trkpt><trkpt lat="39.62881459568949" lon="16.22965013853074"><ele>121.0</ele><time>2026-03-22T12:33:01Z</time></trkpt><trkpt lat="39.628463810247545" lon="16.22954067266593"><ele>121.0</ele><time>2026-03-22T12:33:02Z</time></trkpt><trkpt lat="39.628110969317575" lon="16.229440543117807"><ele>121.0</ele><time>2026-03-22T12:33:03Z</time></trkpt><trkpt lat="39.62775421830676" lon="16.2293462168735"><ele>122.0</ele><time>2026-03-22T12:33:04Z</time></trkpt><trkpt lat="39.62739945013958" lon="16.2292558062794"><ele>123.0</ele><time>2026-03-22T12:33:05Z</time></trkpt><trkpt lat="39.6270442951576" lon="16.229169059585033"><ele>126.5</ele><time>2026-03-22T12:33:06Z</time></trkpt><trkpt lat="39.62668610737371" lon="16.229084992280992"><ele>130.0</ele><time>2026-03-22T12:33:07Z</time></trkpt><trkpt lat="39.62632690320364" lon="16.22900255555326"><ele>127.5</ele><time>2026-03-22T12:33:08Z</time></trkpt><trkpt lat="39.62596674747898" lon="16.228926850373092"><ele>125.0</ele><time>2026-03-22T12:33:09Z</time></trkpt><trkpt lat="39.62560574842824" lon="16.22886878235005"><ele>126.5</ele><time>2026-03-22T12:33:10Z</time></trkpt><trkpt lat="39.625243533195864" lon="16.22882878211857"><ele>128.0</ele><time>2026-03-22T12:33:11Z</time></trkpt><trkpt lat="39.624881061788884" lon="16.228810109647004"><ele>128.0</ele><time>2026-03-22T12:33:12Z</time></trkpt><trkpt lat="39.62451872791776" lon="16.228814354457235"><ele>128.0</ele><time>2026-03-22T12:33:13Z</time></trkpt><trkpt lat="39.624159840977484" lon="16.228841367192167"><ele>128.5</ele><time>2026-03-22T12:33:14Z</time></trkpt><trkpt lat="39.623810632952235" lon="16.22889334590506"><ele>129.0</ele><time>2026-03-22T12:33:15Z</time></trkpt><trkpt lat="39.623474367324505" lon="16.228970307934123"><ele>131.5</ele><time>2026-03-22T12:33:16Z</time></trkpt><trkpt lat="39.623145920686866" lon="16.22905849224679"><ele>134.0</ele><time>2026-03-22T12:33:17Z</time></trkpt><trkpt lat="39.6228121572345" lon="16.22915237346538"><ele>136.5</ele><time>2026-03-22T12:33:18Z</time></trkpt><trkpt lat="39.62246915621993" lon="16.229247998291083"><ele>139.0</ele><time>2026-03-22T12:33:19Z</time></trkpt><trkpt lat="39.622119575983426" lon="16.22934162503862"><ele>142.0</ele><time>2026-03-22T12:33:20Z</time></trkpt><trkpt lat="39.62176932799986" lon="16.22943115345425"><ele>145.0</ele><time>2026-03-22T12:33:21Z</time></trkpt><trkpt lat="39.62141551442866" lon="16.229521814961537"><ele>145.0</ele><time>2026-03-22T12:33:22Z</time></trkpt><trkpt lat="39.62106217285235" lon="16.229610814251068"><ele>145.0</ele><time>2026-03-22T12:33:23Z</time></trkpt><trkpt lat="39.620708375604096" lon="16.2296970636887"><ele>145.0</ele><time>2026-03-22T12:33:24Z</time></trkpt><trkpt lat="39.620354363362765" lon="16.22977669695901"><ele>145.0</ele><time>2026-03-22T12:33:25Z</time></trkpt><trkpt lat="39.61999939990778" lon="16.229846795844345"><ele>147.0</ele><time>2026-03-22T12:33:26Z</time></trkpt><trkpt lat="39.61964079132423" lon="16.22991117579928"><ele>149.0</ele><time>2026-03-22T12:33:27Z</time></trkpt><trkpt lat="39.619279562883484" lon="16.229967310917196"><ele>149.0</ele><time>2026-03-22T12:33:28Z</time></trkpt><trkpt lat="39.61891856690203" lon="16.2300102165209"><ele>149.0</ele><time>2026-03-22T12:33:29Z</time></trkpt><trkpt lat="39.61855806005306" lon="16.230034281570923"><ele>150.5</ele><time>2026-03-22T12:33:30Z</time></trkpt><trkpt lat="39.61819699268227" lon="16.230036749977582"><ele>152.0</ele><time>2026-03-22T12:33:31Z</time></trkpt><trkpt lat="39.617836492607765" lon="16.230019218641434"><ele>152.0</ele><time>2026-03-22T12:33:32Z</time></trkpt><trkpt lat="39.61747650267496" lon="16.229990029612853"><ele>152.0</ele><time>2026-03-22T12:33:33Z</time></trkpt><trkpt lat="39.617116509273224" lon="16.229959294198885"><ele>156.5</ele><time>2026-03-22T12:33:34Z</time></trkpt><trkpt lat="39.61675351659885" lon="16.22992915072957"><ele>161.0</ele><time>2026-03-22T12:33:35Z</time></trkpt><trkpt lat="39.61638988079447" lon="16.229911674055973"><ele>162.0</ele><time>2026-03-22T12:33:36Z</time></trkpt><trkpt lat="39.616025952125725" lon="16.229912621933902"><ele>163.0</ele><time>2026-03-22T12:33:37Z</time></trkpt><trkpt lat="39.615663990230544" lon="16.229935423108678"><ele>161.5</ele><time>2026-03-22T12:33:38Z</time></trkpt><trkpt lat="39.61530455725761" lon="16.229981536572588"><ele>160.0</ele><time>2026-03-22T12:33:39Z</time></trkpt><trkpt lat="39.61494927308427" lon="16.23004912451251"><ele>160.0</ele><time>2026-03-22T12:33:40Z</time></trkpt><trkpt lat="39.61459741564131" lon="16.230132332389523"><ele>160.0</ele><time>2026-03-22T12:33:41Z</time></trkpt><trkpt lat="39.61424524884242" lon="16.230227549438442"><ele>161.0</ele><time>2026-03-22T12:33:42Z</time></trkpt><trkpt lat="39.61389410402591" lon="16.23033029059031"><ele>162.0</ele><time>2026-03-22T12:33:43Z</time></trkpt><trkpt lat="39.61354211965957" lon="16.230438211578246"><ele>164.0</ele><time>2026-03-22T12:33:44Z</time></trkpt><trkpt lat="39.61318820278673" lon="16.230548050107135"><ele>166.0</ele><time>2026-03-22T12:33:45Z</time></trkpt><trkpt lat="39.61283227441496" lon="16.23065852626741"><ele>169.0</ele><time>2026-03-22T12:33:46Z</time></trkpt><trkpt lat="39.61247629564854" lon="16.230768018357196"><ele>172.0</ele><time>2026-03-22T12:33:46.999Z</time></trkpt><trkpt lat="39.61211906376746" lon="16.23087897485392"><ele>172.0</ele><time>2026-03-22T12:33:47.999Z</time></trkpt><trkpt lat="39.611761054519725" lon="16.230991460860253"><ele>172.0</ele><time>2026-03-22T12:33:48.999Z</time></trkpt><trkpt lat="39.611402399911945" lon="16.231103710289325"><ele>175.0</ele><time>2026-03-22T12:33:49.999Z</time></trkpt><trkpt lat="39.61104341774792" lon="16.23121547813159"><ele>178.0</ele><time>2026-03-22T12:33:50.999Z</time></trkpt><trkpt lat="39.610684551829095" lon="16.23132673891549"><ele>178.0</ele><time>2026-03-22T12:33:51.999Z</time></trkpt><trkpt lat="39.61032638497906" lon="16.231439318816868"><ele>178.0</ele><time>2026-03-22T12:33:52.999Z</time></trkpt><trkpt lat="39.60996842053521" lon="16.231556359186555"><ele>185.5</ele><time>2026-03-22T12:33:53.999Z</time></trkpt><trkpt lat="39.60961233419579" lon="16.23167835895257"><ele>193.0</ele><time>2026-03-22T12:33:54.999Z</time></trkpt><trkpt lat="39.609258521350576" lon="16.231803488129305"><ele>204.0</ele><time>2026-03-22T12:33:55.999Z</time></trkpt><trkpt lat="39.608906033827004" lon="16.231928818778293"><ele>215.0</ele><time>2026-03-22T12:33:56.999Z</time></trkpt><trkpt lat="39.60855369232515" lon="16.232053763433218"><ele>225.5</ele><time>2026-03-22T12:33:57.999Z</time></trkpt><trkpt lat="39.60820203043721" lon="16.23217676472421"><ele>236.0</ele><time>2026-03-22T12:33:58.999Z</time></trkpt><trkpt lat="39.60797925352352" lon="16.232200895252543"><ele>226.0</ele><time>2026-03-22T12:33:59.999Z</time></trkpt><trkpt lat="39.60743906137352" lon="16.232396587794895"><ele>226.0</ele><time>2026-03-22T12:34:00.999Z</time></trkpt><trkpt lat="39.60709409800889" lon="16.232497068950305"><ele>226.0</ele><time>2026-03-22T12:34:01.999Z</time></trkpt><trkpt lat="39.60674779159835" lon="16.232607938054354"><ele>228.0</ele><time>2026-03-22T12:34:02.999Z</time></trkpt><trkpt lat="39.60640326698899" lon="16.23271642003334"><ele>230.0</ele><time>2026-03-22T12:34:03.999Z</time></trkpt><trkpt lat="39.60606276495279" lon="16.232838816086964"><ele>233.5</ele><time>2026-03-22T12:34:04.999Z</time></trkpt><trkpt lat="39.60572940085226" lon="16.232984601941673"><ele>237.0</ele><time>2026-03-22T12:34:05.999Z</time></trkpt><trkpt lat="39.60540715573496" lon="16.233143954131386"><ele>225.0</ele><time>2026-03-22T12:34:06.999Z</time></trkpt><trkpt lat="39.6050821785234" lon="16.23330752169587"><ele>213.0</ele><time>2026-03-22T12:34:07.999Z</time></trkpt><trkpt lat="39.604757745471424" lon="16.233473519101107"><ele>197.5</ele><time>2026-03-22T12:34:08.999Z</time></trkpt><trkpt lat="39.60443927654404" lon="16.233657181036595"><ele>182.0</ele><time>2026-03-22T12:34:09.999Z</time></trkpt><trkpt lat="39.604118689455966" lon="16.233849210115434"><ele>184.0</ele><time>2026-03-22T12:34:10.999Z</time></trkpt><trkpt lat="39.60379850959074" lon="16.234053030476694"><ele>186.0</ele><time>2026-03-22T12:34:11.999Z</time></trkpt><trkpt lat="39.60347989880646" lon="16.23426958778596"><ele>179.5</ele><time>2026-03-22T12:34:12.999Z</time></trkpt><trkpt lat="39.6031819631234" lon="16.234501222208404"><ele>173.0</ele><time>2026-03-22T12:34:13.999Z</time></trkpt><trkpt lat="39.60288635125679" lon="16.234740442243115"><ele>167.5</ele><time>2026-03-22T12:34:14.999Z</time></trkpt><trkpt lat="39.60261079119974" lon="16.23498929919343"><ele>162.0</ele><time>2026-03-22T12:34:15.999Z</time></trkpt><trkpt lat="39.60233784155762" lon="16.235266937917675"><ele>162.0</ele><time>2026-03-22T12:34:16.999Z</time></trkpt><trkpt lat="39.60205863714552" lon="16.235558406272574"><ele>162.0</ele><time>2026-03-22T12:34:17.999Z</time></trkpt><trkpt lat="39.60181325905278" lon="16.23582979558978"><ele>153.0</ele><time>2026-03-22T12:34:18.999Z</time></trkpt><trkpt lat="39.60156828286844" lon="16.236116492361404"><ele>144.0</ele><time>2026-03-22T12:34:19.999Z</time></trkpt><trkpt lat="39.60132287190665" lon="16.23642012872122"><ele>132.0</ele><time>2026-03-22T12:34:20.999Z</time></trkpt><trkpt lat="39.60091184712058" lon="16.23720423957495"><ele>135.5</ele><time>2026-03-22T12:34:21.999Z</time></trkpt><trkpt lat="39.60066236557117" lon="16.23755815300017"><ele>139.0</ele><time>2026-03-22T12:34:22.999Z</time></trkpt><trkpt lat="39.60042818015428" lon="16.23791306228349"><ele>133.5</ele><time>2026-03-22T12:34:23.999Z</time></trkpt><trkpt lat="39.600198075624" lon="16.238262694099355"><ele>128.0</ele><time>2026-03-22T12:34:24.999Z</time></trkpt><trkpt lat="39.59997904487614" lon="16.23862722627594"><ele>129.5</ele><time>2026-03-22T12:34:25.999Z</time></trkpt><trkpt lat="39.59981101232507" lon="16.23898599966392"><ele>131.0</ele><time>2026-03-22T12:34:26.999Z</time></trkpt><trkpt lat="39.599595610304675" lon="16.23936397836771"><ele>123.5</ele><time>2026-03-22T12:34:27.999Z</time></trkpt><trkpt lat="39.5993827490989" lon="16.239744901919448"><ele>116.0</ele><time>2026-03-22T12:34:28.999Z</time></trkpt><trkpt lat="39.599170042484324" lon="16.24012810038466"><ele>116.0</ele><time>2026-03-22T12:34:29.999Z</time></trkpt><trkpt lat="39.59894693141501" lon="16.240499592147252"><ele>116.0</ele><time>2026-03-22T12:34:30.999Z</time></trkpt><trkpt lat="39.598721159889465" lon="16.240867743459795"><ele>112.5</ele><time>2026-03-22T12:34:31.999Z</time></trkpt><trkpt lat="39.59849107870601" lon="16.241228345916408"><ele>109.0</ele><time>2026-03-22T12:34:32.999Z</time></trkpt><trkpt lat="39.59825665638316" lon="16.24158678507607"><ele>109.0</ele><time>2026-03-22T12:34:33.999Z</time></trkpt><trkpt lat="39.59801155576939" lon="16.24193431998746"><ele>109.0</ele><time>2026-03-22T12:34:34.999Z</time></trkpt><trkpt lat="39.59775733718003" lon="16.2422711253446"><ele>109.0</ele><time>2026-03-22T12:34:35.999Z</time></trkpt><trkpt lat="39.59749266106044" lon="16.242593607440885"><ele>109.0</ele><time>2026-03-22T12:34:36.999Z</time></trkpt><trkpt lat="39.59721692747994" lon="16.242899218042925"><ele>108.5</ele><time>2026-03-22T12:34:37.999Z</time></trkpt><trkpt lat="39.59693334069711" lon="16.243191476838046"><ele>108.0</ele><time>2026-03-22T12:34:38.999Z</time></trkpt><trkpt lat="39.596641664958" lon="16.24347245170839"><ele>108.0</ele><time>2026-03-22T12:34:39.999Z</time></trkpt><trkpt lat="39.596342797052735" lon="16.24374007286546"><ele>108.0</ele><time>2026-03-22T12:34:40.999Z</time></trkpt><trkpt lat="39.59603812960256" lon="16.243991185496252"><ele>103.0</ele><time>2026-03-22T12:34:41.999Z</time></trkpt><trkpt lat="39.595723429295774" lon="16.244228026315213"><ele>98.0</ele><time>2026-03-22T12:34:42.999Z</time></trkpt><trkpt lat="39.5954038662275" lon="16.24445049259292"><ele>98.0</ele><time>2026-03-22T12:34:43.999Z</time></trkpt><trkpt lat="39.59507825056586" lon="16.24465828768173"><ele>98.0</ele><time>2026-03-22T12:34:44.999Z</time></trkpt><trkpt lat="39.59474573140941" lon="16.244849975595958"><ele>92.0</ele><time>2026-03-22T12:34:45.999Z</time></trkpt><trkpt lat="39.59440741793412" lon="16.24502837584273"><ele>86.0</ele><time>2026-03-22T12:34:46.999Z</time></trkpt><trkpt lat="39.5940648102934" lon="16.245192066022604"><ele>86.0</ele><time>2026-03-22T12:34:47.999Z</time></trkpt><trkpt lat="39.5937170412511" lon="16.24533780244703"><ele>86.0</ele><time>2026-03-22T12:34:48.999Z</time></trkpt><trkpt lat="39.593366944712514" lon="16.245463013430392"><ele>78.5</ele><time>2026-03-22T12:34:49.999Z</time></trkpt><trkpt lat="39.59301250294513" lon="16.245570627081"><ele>71.0</ele><time>2026-03-22T12:34:50.999Z</time></trkpt><trkpt lat="39.59265458194791" lon="16.245658214123488"><ele>71.0</ele><time>2026-03-22T12:34:51.999Z</time></trkpt><trkpt lat="39.59229586867502" lon="16.245731212319544"><ele>71.0</ele><time>2026-03-22T12:34:52.999Z</time></trkpt><trkpt lat="39.59193586588855" lon="16.245789998186822"><ele>75.0</ele><time>2026-03-22T12:34:53.999Z</time></trkpt><trkpt lat="39.59157310909843" lon="16.245835382679445"><ele>79.0</ele><time>2026-03-22T12:34:54.999Z</time></trkpt><trkpt lat="39.59120984453721" lon="16.24587136873809"><ele>76.5</ele><time>2026-03-22T12:34:55.999Z</time></trkpt><trkpt lat="39.59084536564502" lon="16.245884366620245"><ele>74.0</ele><time>2026-03-22T12:34:56.999Z</time></trkpt><trkpt lat="39.59048230126774" lon="16.245885216770247"><ele>73.5</ele><time>2026-03-22T12:34:57.999Z</time></trkpt><trkpt lat="39.59011864521324" lon="16.245875918955583"><ele>73.0</ele><time>2026-03-22T12:34:58.999Z</time></trkpt><trkpt lat="39.589752279614345" lon="16.245863190990452"><ele>71.0</ele><time>2026-03-22T12:34:59.999Z</time></trkpt><trkpt lat="39.58938534101945" lon="16.245849169358415"><ele>69.0</ele><time>2026-03-22T12:35:00.999Z</time></trkpt><trkpt lat="39.5890168521568" lon="16.245831358407706"><ele>66.5</ele><time>2026-03-22T12:35:01.998Z</time></trkpt><trkpt lat="39.58864948411487" lon="16.24581418616156"><ele>64.0</ele><time>2026-03-22T12:35:02.998Z</time></trkpt><trkpt lat="39.58828272994206" lon="16.245797491186092"><ele>64.0</ele><time>2026-03-22T12:35:03.998Z</time></trkpt><trkpt lat="39.58791836680974" lon="16.24578259754627"><ele>64.0</ele><time>2026-03-22T12:35:04.998Z</time></trkpt><trkpt lat="39.58755304744957" lon="16.24576758820037"><ele>62.5</ele><time>2026-03-22T12:35:06Z</time></trkpt><trkpt lat="39.58719059742856" lon="16.245754439214167"><ele>61.0</ele><time>2026-03-22T12:35:07Z</time></trkpt><trkpt lat="39.58683050827042" lon="16.245742723534537"><ele>60.5</ele><time>2026-03-22T12:35:08Z</time></trkpt><trkpt lat="39.58647005977876" lon="16.245731933124098"><ele>60.0</ele><time>2026-03-22T12:35:09Z</time></trkpt><trkpt lat="39.5861089222798" lon="16.24572165789258"><ele>60.0</ele><time>2026-03-22T12:35:10Z</time></trkpt><trkpt lat="39.58574858039091" lon="16.245709604712328"><ele>60.0</ele><time>2026-03-22T12:35:11Z</time></trkpt><trkpt lat="39.58538695509382" lon="16.245694540602493"><ele>60.5</ele><time>2026-03-22T12:35:12Z</time></trkpt><trkpt lat="39.5850267531185" lon="16.245665453361312"><ele>61.0</ele><time>2026-03-22T12:35:13Z</time></trkpt><trkpt lat="39.584667408838754" lon="16.2456301190259"><ele>60.5</ele><time>2026-03-22T12:35:14Z</time></trkpt><trkpt lat="39.584307549808436" lon="16.245590376890696"><ele>60.0</ele><time>2026-03-22T12:35:15Z</time></trkpt><trkpt lat="39.58394559698517" lon="16.245538820312788"><ele>60.5</ele><time>2026-03-22T12:35:16Z</time></trkpt><trkpt lat="39.58358525641053" lon="16.245478183152347"><ele>61.0</ele><time>2026-03-22T12:35:17Z</time></trkpt><trkpt lat="39.5832254075891" lon="16.24540776250629"><ele>61.0</ele><time>2026-03-22T12:35:18Z</time></trkpt><trkpt lat="39.582867622874524" lon="16.245323133565133"><ele>61.0</ele><time>2026-03-22T12:35:19Z</time></trkpt><trkpt lat="39.58251244825365" lon="16.245225131314907"><ele>61.5</ele><time>2026-03-22T12:35:20Z</time></trkpt><trkpt lat="39.582159802641876" lon="16.245116403024483"><ele>62.0</ele><time>2026-03-22T12:35:21Z</time></trkpt><trkpt lat="39.58181080131469" lon="16.24499224668599"><ele>61.0</ele><time>2026-03-22T12:35:22Z</time></trkpt><trkpt lat="39.58146394599682" lon="16.244855070654634"><ele>60.0</ele><time>2026-03-22T12:35:23Z</time></trkpt><trkpt lat="39.58112030088154" lon="16.244709003881866"><ele>59.5</ele><time>2026-03-22T12:35:24Z</time></trkpt><trkpt lat="39.58077946121786" lon="16.244553022469486"><ele>59.0</ele><time>2026-03-22T12:35:25Z</time></trkpt><trkpt lat="39.58043978188547" lon="16.244385240976502"><ele>60.5</ele><time>2026-03-22T12:35:26Z</time></trkpt><trkpt lat="39.580102940883044" lon="16.24420643063468"><ele>62.0</ele><time>2026-03-22T12:35:27Z</time></trkpt><trkpt lat="39.579769139420534" lon="16.244016347491154"><ele>62.0</ele><time>2026-03-22T12:35:28Z</time></trkpt><trkpt lat="39.579440765257864" lon="16.24381283620265"><ele>62.0</ele><time>2026-03-22T12:35:29Z</time></trkpt><trkpt lat="39.579116428007694" lon="16.243596280070953"><ele>62.0</ele><time>2026-03-22T12:35:30Z</time></trkpt><trkpt lat="39.578795916983005" lon="16.243368031769055"><ele>62.0</ele><time>2026-03-22T12:35:31Z</time></trkpt><trkpt lat="39.57847987966151" lon="16.24312849009345"><ele>62.5</ele><time>2026-03-22T12:35:32Z</time></trkpt><trkpt lat="39.57816902625512" lon="16.242879586726566"><ele>63.0</ele><time>2026-03-22T12:35:33Z</time></trkpt><trkpt lat="39.57786167344051" lon="16.242623321179014"><ele>62.0</ele><time>2026-03-22T12:35:34Z</time></trkpt><trkpt lat="39.57755579505866" lon="16.242361067755187"><ele>61.0</ele><time>2026-03-22T12:35:35Z</time></trkpt><trkpt lat="39.57725407091472" lon="16.24209241368945"><ele>62.0</ele><time>2026-03-22T12:35:36Z</time></trkpt><trkpt lat="39.576953835240964" lon="16.241818724908715"><ele>63.0</ele><time>2026-03-22T12:35:37Z</time></trkpt><trkpt lat="39.57665583257534" lon="16.241541277025934"><ele>63.5</ele><time>2026-03-22T12:35:38Z</time></trkpt><trkpt lat="39.5763593064185" lon="16.241263328274744"><ele>64.0</ele><time>2026-03-22T12:35:39Z</time></trkpt><trkpt lat="39.5760631317403" lon="16.240984776136855"><ele>64.0</ele><time>2026-03-22T12:35:40Z</time></trkpt><trkpt lat="39.57576740112681" lon="16.240706416515586"><ele>64.0</ele><time>2026-03-22T12:35:41Z</time></trkpt><trkpt lat="39.57547074482356" lon="16.240430914532546"><ele>63.5</ele><time>2026-03-22T12:35:42Z</time></trkpt><trkpt lat="39.57517156031793" lon="16.24016012991332"><ele>63.0</ele><time>2026-03-22T12:35:43Z</time></trkpt><trkpt lat="39.574868400019504" lon="16.239898178475418"><ele>63.0</ele><time>2026-03-22T12:35:44Z</time></trkpt><trkpt lat="39.57456171532235" lon="16.23964322129014"><ele>63.0</ele><time>2026-03-22T12:35:45Z</time></trkpt><trkpt lat="39.574249961627764" lon="16.239401735448766"><ele>63.0</ele><time>2026-03-22T12:35:46Z</time></trkpt><trkpt lat="39.57393352895069" lon="16.239175749899438"><ele>63.0</ele><time>2026-03-22T12:35:47Z</time></trkpt><trkpt lat="39.57361034746578" lon="16.238966678882225"><ele>65.0</ele><time>2026-03-22T12:35:48Z</time></trkpt><trkpt lat="39.5732808897455" lon="16.23877418978735"><ele>67.0</ele><time>2026-03-22T12:35:48.999Z</time></trkpt><trkpt lat="39.57294615525348" lon="16.238598508630275"><ele>65.5</ele><time>2026-03-22T12:35:49.999Z</time></trkpt><trkpt lat="39.57260468180912" lon="16.23844001511026"><ele>64.0</ele><time>2026-03-22T12:35:50.999Z</time></trkpt><trkpt lat="39.5722596814826" lon="16.2382996022331"><ele>64.0</ele><time>2026-03-22T12:35:51.999Z</time></trkpt><trkpt lat="39.571911950817956" lon="16.238175595249572"><ele>64.0</ele><time>2026-03-22T12:35:52.999Z</time></trkpt><trkpt lat="39.57156175770838" lon="16.238060466415536"><ele>64.5</ele><time>2026-03-22T12:35:53.999Z</time></trkpt><trkpt lat="39.57120752245184" lon="16.23795391956443"><ele>65.0</ele><time>2026-03-22T12:35:54.999Z</time></trkpt><trkpt lat="39.57085374502384" lon="16.237845639354685"><ele>65.0</ele><time>2026-03-22T12:35:55.999Z</time></trkpt><trkpt lat="39.57049739320613" lon="16.237746279724256"><ele>65.0</ele><time>2026-03-22T12:35:56.999Z</time></trkpt><trkpt lat="39.570141239653786" lon="16.23764157790192"><ele>64.0</ele><time>2026-03-22T12:35:57.999Z</time></trkpt><trkpt lat="39.56978494090901" lon="16.237535198046064"><ele>63.0</ele><time>2026-03-22T12:35:58.999Z</time></trkpt><trkpt lat="39.56942851336727" lon="16.23742884403529"><ele>63.0</ele><time>2026-03-22T12:35:59.999Z</time></trkpt><trkpt lat="39.56907243060651" lon="16.23732449119639"><ele>63.0</ele><time>2026-03-22T12:36:00.999Z</time></trkpt><trkpt lat="39.56871637059986" lon="16.23722098632031"><ele>64.0</ele><time>2026-03-22T12:36:01.999Z</time></trkpt><trkpt lat="39.56835852931314" lon="16.237117963611436"><ele>65.0</ele><time>2026-03-22T12:36:02.999Z</time></trkpt><trkpt lat="39.56800053878604" lon="16.237013592119574"><ele>64.0</ele><time>2026-03-22T12:36:03.999Z</time></trkpt><trkpt lat="39.56764306767549" lon="16.236908640051716"><ele>63.0</ele><time>2026-03-22T12:36:04.999Z</time></trkpt><trkpt lat="39.56728627879986" lon="16.236803870287318"><ele>63.0</ele><time>2026-03-22T12:36:05.999Z</time></trkpt><trkpt lat="39.566931116405286" lon="16.23670067536496"><ele>63.0</ele><time>2026-03-22T12:36:06.999Z</time></trkpt><trkpt lat="39.56657469934435" lon="16.236596028851807"><ele>63.0</ele><time>2026-03-22T12:36:07.999Z</time></trkpt><trkpt lat="39.56621864520154" lon="16.236491881358145"><ele>63.0</ele><time>2026-03-22T12:36:08.999Z</time></trkpt><trkpt lat="39.565864845456495" lon="16.236390184134272"><ele>64.0</ele><time>2026-03-22T12:36:09.999Z</time></trkpt><trkpt lat="39.56551081456026" lon="16.236286608278604"><ele>65.0</ele><time>2026-03-22T12:36:10.999Z</time></trkpt><trkpt lat="39.56515693812198" lon="16.236183398991898"><ele>65.0</ele><time>2026-03-22T12:36:11.999Z</time></trkpt><trkpt lat="39.564803168687234" lon="16.23608114016508"><ele>65.0</ele><time>2026-03-22T12:36:12.999Z</time></trkpt><trkpt lat="39.56444816288238" lon="16.235975715011552"><ele>64.5</ele><time>2026-03-22T12:36:13.999Z</time></trkpt><trkpt lat="39.564092516134906" lon="16.235869036321326"><ele>64.0</ele><time>2026-03-22T12:36:14.999Z</time></trkpt><trkpt lat="39.56373787883212" lon="16.235761697825403"><ele>64.5</ele><time>2026-03-22T12:36:15.999Z</time></trkpt><trkpt lat="39.56338148474848" lon="16.235652074188433"><ele>65.0</ele><time>2026-03-22T12:36:16.999Z</time></trkpt><trkpt lat="39.563026786308434" lon="16.23554360581599"><ele>65.0</ele><time>2026-03-22T12:36:17.999Z</time></trkpt><trkpt lat="39.56267227866562" lon="16.2354325835909"><ele>65.0</ele><time>2026-03-22T12:36:18.999Z</time></trkpt><trkpt lat="39.562320823799055" lon="16.235313259742146"><ele>65.5</ele><time>2026-03-22T12:36:19.999Z</time></trkpt><trkpt lat="39.56197063372032" lon="16.23518952312685"><ele>66.0</ele><time>2026-03-22T12:36:20.999Z</time></trkpt><trkpt lat="39.56162121854168" lon="16.235060662926685"><ele>66.0</ele><time>2026-03-22T12:36:21.999Z</time></trkpt><trkpt lat="39.56127144165423" lon="16.234924331494298"><ele>66.0</ele><time>2026-03-22T12:36:22.999Z</time></trkpt><trkpt lat="39.56092512800135" lon="16.23478244360307"><ele>66.5</ele><time>2026-03-22T12:36:23.999Z</time></trkpt><trkpt lat="39.56058005399077" lon="16.23463612713932"><ele>67.0</ele><time>2026-03-22T12:36:24.999Z</time></trkpt><trkpt lat="39.560235743561456" lon="16.23448482845786"><ele>67.0</ele><time>2026-03-22T12:36:25.999Z</time></trkpt><trkpt lat="39.55989319657101" lon="16.234329522933898"><ele>67.0</ele><time>2026-03-22T12:36:26.999Z</time></trkpt><trkpt lat="39.55954991112222" lon="16.234168869526112"><ele>68.0</ele><time>2026-03-22T12:36:27.999Z</time></trkpt><trkpt lat="39.559206360602076" lon="16.23400752265789"><ele>69.0</ele><time>2026-03-22T12:36:28.999Z</time></trkpt><trkpt lat="39.558863160408144" lon="16.233844048212923"><ele>69.5</ele><time>2026-03-22T12:36:29.999Z</time></trkpt><trkpt lat="39.55852124948817" lon="16.23368027237113"><ele>70.0</ele><time>2026-03-22T12:36:30.999Z</time></trkpt><trkpt lat="39.55817960679008" lon="16.233515776859974"><ele>70.0</ele><time>2026-03-22T12:36:31.999Z</time></trkpt><trkpt lat="39.55783740470053" lon="16.233351504291175"><ele>70.0</ele><time>2026-03-22T12:36:32.999Z</time></trkpt><trkpt lat="39.55749497451468" lon="16.23318577999834"><ele>69.5</ele><time>2026-03-22T12:36:33.999Z</time></trkpt><trkpt lat="39.557153703860294" lon="16.233018493056935"><ele>69.0</ele><time>2026-03-22T12:36:34.999Z</time></trkpt><trkpt lat="39.556812844094964" lon="16.232851261193"><ele>69.0</ele><time>2026-03-22T12:36:35.999Z</time></trkpt><trkpt lat="39.556471059157644" lon="16.232686168947666"><ele>69.0</ele><time>2026-03-22T12:36:36.999Z</time></trkpt><trkpt lat="39.556129609731215" lon="16.232522726210238"><ele>70.5</ele><time>2026-03-22T12:36:37.999Z</time></trkpt><trkpt lat="39.55578844215703" lon="16.232357531114765"><ele>72.0</ele><time>2026-03-22T12:36:38.999Z</time></trkpt><trkpt lat="39.55544772901672" lon="16.232194090981416"><ele>72.5</ele><time>2026-03-22T12:36:39.999Z</time></trkpt><trkpt lat="39.555105889719265" lon="16.232028853570913"><ele>73.0</ele><time>2026-03-22T12:36:40.999Z</time></trkpt><trkpt lat="39.554762985184645" lon="16.231863251700744"><ele>72.5</ele><time>2026-03-22T12:36:41.999Z</time></trkpt><trkpt lat="39.554422668752316" lon="16.231700771402956"><ele>72.0</ele><time>2026-03-22T12:36:42.999Z</time></trkpt><trkpt lat="39.55408036984847" lon="16.231539347808603"><ele>72.0</ele><time>2026-03-22T12:36:43.999Z</time></trkpt><trkpt lat="39.55373902881278" lon="16.23137730365475"><ele>72.0</ele><time>2026-03-22T12:36:44.999Z</time></trkpt><trkpt lat="39.553395334288105" lon="16.23121491911974"><ele>72.0</ele><time>2026-03-22T12:36:45.999Z</time></trkpt><trkpt lat="39.55305273966341" lon="16.231052499677208"><ele>72.0</ele><time>2026-03-22T12:36:46.999Z</time></trkpt><trkpt lat="39.55271089545593" lon="16.230893345150555"><ele>72.0</ele><time>2026-03-22T12:36:47.999Z</time></trkpt><trkpt lat="39.55236856478076" lon="16.230735156884208"><ele>72.0</ele><time>2026-03-22T12:36:48.999Z</time></trkpt><trkpt lat="39.55202502100029" lon="16.23057728113052"><ele>72.5</ele><time>2026-03-22T12:36:49.999Z</time></trkpt><trkpt lat="39.551682383452146" lon="16.230416795878927"><ele>73.0</ele><time>2026-03-22T12:36:50.999Z</time></trkpt><trkpt lat="39.55133999877572" lon="16.230254189782382"><ele>72.5</ele><time>2026-03-22T12:36:51.999Z</time></trkpt><trkpt lat="39.550997468160425" lon="16.230088660446214"><ele>72.0</ele><time>2026-03-22T12:36:52.999Z</time></trkpt><trkpt lat="39.55065463851178" lon="16.229923415147415"><ele>72.0</ele><time>2026-03-22T12:36:53.999Z</time></trkpt><trkpt lat="39.55031243028654" lon="16.229754061879667"><ele>72.0</ele><time>2026-03-22T12:36:54.999Z</time></trkpt><trkpt lat="39.549972223130425" lon="16.22958132618818"><ele>72.0</ele><time>2026-03-22T12:36:55.999Z</time></trkpt><trkpt lat="39.549629697066976" lon="16.229406310104388"><ele>72.0</ele><time>2026-03-22T12:36:56.999Z</time></trkpt><trkpt lat="39.549287123557434" lon="16.22923386491644"><ele>72.0</ele><time>2026-03-22T12:36:57.999Z</time></trkpt><trkpt lat="39.54894229598921" lon="16.2290630884542"><ele>72.0</ele><time>2026-03-22T12:36:58.999Z</time></trkpt><trkpt lat="39.54859879607236" lon="16.22889789921109"><ele>71.5</ele><time>2026-03-22T12:36:59.999Z</time></trkpt><trkpt lat="39.54825642897774" lon="16.22873648213593"><ele>71.0</ele><time>2026-03-22T12:37:00.999Z</time></trkpt><trkpt lat="39.54791237697551" lon="16.228572034256235"><ele>71.0</ele><time>2026-03-22T12:37:01.999Z</time></trkpt><trkpt lat="39.547569465823216" lon="16.228404511974215"><ele>71.0</ele><time>2026-03-22T12:37:02.998Z</time></trkpt><trkpt lat="39.54722690370248" lon="16.228236911111505"><ele>71.0</ele><time>2026-03-22T12:37:03.998Z</time></trkpt><trkpt lat="39.546884084299194" lon="16.228070685478595"><ele>71.0</ele><time>2026-03-22T12:37:04.998Z</time></trkpt><trkpt lat="39.54654305171448" lon="16.227907468461016"><ele>70.5</ele><time>2026-03-22T12:37:05.998Z</time></trkpt><trkpt lat="39.546200706000896" lon="16.227745646355977"><ele>70.0</ele><time>2026-03-22T12:37:06.998Z</time></trkpt><trkpt lat="39.545858113908686" lon="16.22758398157515"><ele>70.0</ele><time>2026-03-22T12:37:07.998Z</time></trkpt><trkpt lat="39.54551656444658" lon="16.22742072378697"><ele>70.0</ele><time>2026-03-22T12:37:08.998Z</time></trkpt><trkpt lat="39.54517609259868" lon="16.227257287158864"><ele>71.0</ele><time>2026-03-22T12:37:09.998Z</time></trkpt><trkpt lat="39.54483616809355" lon="16.22709417535265"><ele>72.0</ele><time>2026-03-22T12:37:10.998Z</time></trkpt><trkpt lat="39.54449575382751" lon="16.226929308664516"><ele>72.0</ele><time>2026-03-22T12:37:12Z</time></trkpt><trkpt lat="39.544156648972624" lon="16.226764895356723"><ele>72.0</ele><time>2026-03-22T12:37:13Z</time></trkpt><trkpt lat="39.54381746712065" lon="16.226600696627163"><ele>72.5</ele><time>2026-03-22T12:37:14Z</time></trkpt><trkpt lat="39.54347571283018" lon="16.226436146242442"><ele>73.0</ele><time>2026-03-22T12:37:15Z</time></trkpt><trkpt lat="39.54313416845177" lon="16.226274374644397"><ele>73.0</ele><time>2026-03-22T12:37:16Z</time></trkpt><trkpt lat="39.542793262022414" lon="16.22611418434094"><ele>73.0</ele><time>2026-03-22T12:37:17Z</time></trkpt><trkpt lat="39.542451524603294" lon="16.225953754179"><ele>73.0</ele><time>2026-03-22T12:37:18Z</time></trkpt><trkpt lat="39.54211105941944" lon="16.225792545249483"><ele>73.0</ele><time>2026-03-22T12:37:19Z</time></trkpt><trkpt lat="39.54177097052836" lon="16.22562927640033"><ele>73.5</ele><time>2026-03-22T12:37:20Z</time></trkpt><trkpt lat="39.54143078697245" lon="16.225464669781392"><ele>74.0</ele><time>2026-03-22T12:37:21Z</time></trkpt><trkpt lat="39.54109142699116" lon="16.225299183477098"><ele>75.5</ele><time>2026-03-22T12:37:22Z</time></trkpt><trkpt lat="39.54075165841828" lon="16.225136723045207"><ele>77.0</ele><time>2026-03-22T12:37:23Z</time></trkpt><trkpt lat="39.540409485641675" lon="16.224972279733155"><ele>77.5</ele><time>2026-03-22T12:37:24Z</time></trkpt><trkpt lat="39.54006892013445" lon="16.22480894976773"><ele>78.0</ele><time>2026-03-22T12:37:25Z</time></trkpt><trkpt lat="39.53972801219948" lon="16.224647638779388"><ele>76.5</ele><time>2026-03-22T12:37:26Z</time></trkpt><trkpt lat="39.53938536110164" lon="16.224486372118655"><ele>75.0</ele><time>2026-03-22T12:37:27Z</time></trkpt><trkpt lat="39.53904368627552" lon="16.224326016804216"><ele>74.5</ele><time>2026-03-22T12:37:28Z</time></trkpt><trkpt lat="39.53870172078338" lon="16.2241648036577"><ele>74.0</ele><time>2026-03-22T12:37:29Z</time></trkpt><trkpt lat="39.53835958375302" lon="16.224002579949012"><ele>74.0</ele><time>2026-03-22T12:37:30Z</time></trkpt><trkpt lat="39.53801623962014" lon="16.223838824521007"><ele>74.0</ele><time>2026-03-22T12:37:31Z</time></trkpt><trkpt lat="39.537673310744644" lon="16.22367595983157"><ele>74.0</ele><time>2026-03-22T12:37:32Z</time></trkpt><trkpt lat="39.537329449549276" lon="16.223517147895773"><ele>74.0</ele><time>2026-03-22T12:37:33Z</time></trkpt><trkpt lat="39.53698381773146" lon="16.223359706261018"><ele>75.0</ele><time>2026-03-22T12:37:34Z</time></trkpt><trkpt lat="39.53664020078957" lon="16.223202855850275"><ele>76.0</ele><time>2026-03-22T12:37:35Z</time></trkpt><trkpt lat="39.536298715939665" lon="16.223043896943256"><ele>76.5</ele><time>2026-03-22T12:37:36Z</time></trkpt><trkpt lat="39.5359576928623" lon="16.22288160650277"><ele>77.0</ele><time>2026-03-22T12:37:37Z</time></trkpt><trkpt lat="39.535619042966445" lon="16.22271332609986"><ele>77.0</ele><time>2026-03-22T12:37:38Z</time></trkpt><trkpt lat="39.53528242956779" lon="16.22253306403358"><ele>77.0</ele><time>2026-03-22T12:37:39Z</time></trkpt><trkpt lat="39.534950271122966" lon="16.222343795735657"><ele>77.0</ele><time>2026-03-22T12:37:40Z</time></trkpt><trkpt lat="39.53462162043303" lon="16.22214972798112"><ele>77.0</ele><time>2026-03-22T12:37:41Z</time></trkpt><trkpt lat="39.534294289416216" lon="16.22195237790312"><ele>77.0</ele><time>2026-03-22T12:37:42Z</time></trkpt><trkpt lat="39.5339666349898" lon="16.221751595074853"><ele>77.0</ele><time>2026-03-22T12:37:43Z</time></trkpt><trkpt lat="39.533637220218004" lon="16.221548257787433"><ele>77.5</ele><time>2026-03-22T12:37:44Z</time></trkpt><trkpt lat="39.5333072276071" lon="16.22134644915125"><ele>78.0</ele><time>2026-03-22T12:37:45Z</time></trkpt><trkpt lat="39.53297479344842" lon="16.22115013775862"><ele>79.5</ele><time>2026-03-22T12:37:46Z</time></trkpt><trkpt lat="39.53263919301762" lon="16.22095697909281"><ele>81.0</ele><time>2026-03-22T12:37:47Z</time></trkpt><trkpt lat="39.53230526627183" lon="16.220765364817677"><ele>80.0</ele><time>2026-03-22T12:37:48Z</time></trkpt><trkpt lat="39.53197097892627" lon="16.220572219838196"><ele>79.0</ele><time>2026-03-22T12:37:49Z</time></trkpt><trkpt lat="39.53163678449021" lon="16.220378407461567"><ele>79.0</ele><time>2026-03-22T12:37:50Z</time></trkpt><trkpt lat="39.53130376030418" lon="16.220184556157847"><ele>79.0</ele><time>2026-03-22T12:37:51Z</time></trkpt><trkpt lat="39.530970982279015" lon="16.21999052876016"><ele>78.0</ele><time>2026-03-22T12:37:52Z</time></trkpt><trkpt lat="39.530636543492136" lon="16.219795872070147"><ele>77.0</ele><time>2026-03-22T12:37:52.999Z</time></trkpt><trkpt lat="39.53030169549584" lon="16.219600859057177"><ele>77.0</ele><time>2026-03-22T12:37:53.999Z</time></trkpt><trkpt lat="39.529966632669286" lon="16.219406379900157"><ele>77.0</ele><time>2026-03-22T12:37:54.999Z</time></trkpt><trkpt lat="39.52963215563186" lon="16.219213843551067"><ele>77.0</ele><time>2026-03-22T12:37:55.999Z</time></trkpt><trkpt lat="39.52929818022978" lon="16.219020689071574"><ele>77.0</ele><time>2026-03-22T12:37:56.999Z</time></trkpt><trkpt lat="39.528965088006636" lon="16.218826713692337"><ele>77.5</ele><time>2026-03-22T12:37:57.999Z</time></trkpt><trkpt lat="39.52863309796806" lon="16.218631465452884"><ele>78.0</ele><time>2026-03-22T12:37:58.999Z</time></trkpt><trkpt lat="39.52830213354686" lon="16.21843521622269"><ele>78.0</ele><time>2026-03-22T12:37:59.999Z</time></trkpt><trkpt lat="39.52797243392952" lon="16.218234505678097"><ele>78.0</ele><time>2026-03-22T12:38:00.999Z</time></trkpt><trkpt lat="39.52764738701055" lon="16.21802309380027"><ele>77.5</ele><time>2026-03-22T12:38:01.999Z</time></trkpt><trkpt lat="39.52732863178854" lon="16.217800273278453"><ele>77.0</ele><time>2026-03-22T12:38:02.999Z</time></trkpt><trkpt lat="39.5270166051189" lon="16.217566610411563"><ele>76.5</ele><time>2026-03-22T12:38:03.999Z</time></trkpt><trkpt lat="39.52670987517964" lon="16.217320598921397"><ele>76.0</ele><time>2026-03-22T12:38:04.999Z</time></trkpt><trkpt lat="39.52640628491133" lon="16.217067388634543"><ele>75.0</ele><time>2026-03-22T12:38:05.999Z</time></trkpt><trkpt lat="39.52610346896781" lon="16.216806807990768"><ele>74.0</ele><time>2026-03-22T12:38:06.999Z</time></trkpt><trkpt lat="39.52580222404513" lon="16.216541473468677"><ele>74.5</ele><time>2026-03-22T12:38:07.999Z</time></trkpt><trkpt lat="39.52550508258101" lon="16.216274177434144"><ele>75.0</ele><time>2026-03-22T12:38:08.999Z</time></trkpt><trkpt lat="39.52521035881206" lon="16.216000962108243"><ele>75.0</ele><time>2026-03-22T12:38:09.999Z</time></trkpt><trkpt lat="39.524916914731094" lon="16.215731426168354"><ele>75.0</ele><time>2026-03-22T12:38:10.999Z</time></trkpt><trkpt lat="39.524620802043344" lon="16.21545758511944"><ele>76.0</ele><time>2026-03-22T12:38:11.999Z</time></trkpt><trkpt lat="39.52432408952562" lon="16.215187462503213"><ele>77.0</ele><time>2026-03-22T12:38:12.999Z</time></trkpt><trkpt lat="39.52402538965925" lon="16.2149203279968"><ele>78.0</ele><time>2026-03-22T12:38:13.999Z</time></trkpt><trkpt lat="39.523722955282814" lon="16.214662793119604"><ele>79.0</ele><time>2026-03-22T12:38:14.999Z</time></trkpt><trkpt lat="39.523420690146764" lon="16.21441554939515"><ele>79.0</ele><time>2026-03-22T12:38:15.999Z</time></trkpt><trkpt lat="39.52311113440165" lon="16.214177890240858"><ele>79.0</ele><time>2026-03-22T12:38:16.999Z</time></trkpt><trkpt lat="39.52279598291641" lon="16.213951824755945"><ele>81.0</ele><time>2026-03-22T12:38:17.999Z</time></trkpt><trkpt lat="39.52247050840903" lon="16.213755954744"><ele>83.0</ele><time>2026-03-22T12:38:18.999Z</time></trkpt><trkpt lat="39.522136274671006" lon="16.213578423841746"><ele>83.0</ele><time>2026-03-22T12:38:19.999Z</time></trkpt><trkpt lat="39.521796047002354" lon="16.21341877969159"><ele>83.0</ele><time>2026-03-22T12:38:20.999Z</time></trkpt><trkpt lat="39.521451095819884" lon="16.213272080824122"><ele>83.5</ele><time>2026-03-22T12:38:21.999Z</time></trkpt><trkpt lat="39.52110292013477" lon="16.21313267148319"><ele>84.0</ele><time>2026-03-22T12:38:22.999Z</time></trkpt><trkpt lat="39.52075421933881" lon="16.212994939983567"><ele>84.0</ele><time>2026-03-22T12:38:23.999Z</time></trkpt><trkpt lat="39.52040427973855" lon="16.212857253976267"><ele>84.0</ele><time>2026-03-22T12:38:24.999Z</time></trkpt><trkpt lat="39.5200542940328" lon="16.212718309038436"><ele>83.5</ele><time>2026-03-22T12:38:25.999Z</time></trkpt><trkpt lat="39.519703500745315" lon="16.21257672878698"><ele>83.0</ele><time>2026-03-22T12:38:26.999Z</time></trkpt><trkpt lat="39.519354141953514" lon="16.212433934666503"><ele>83.5</ele><time>2026-03-22T12:38:27.999Z</time></trkpt><trkpt lat="39.51900385642751" lon="16.212292636290517"><ele>84.0</ele><time>2026-03-22T12:38:28.999Z</time></trkpt><trkpt lat="39.51865276904206" lon="16.212154238066663"><ele>85.0</ele><time>2026-03-22T12:38:29.999Z</time></trkpt><trkpt lat="39.51830265750043" lon="16.21201897113331"><ele>86.0</ele><time>2026-03-22T12:38:30.999Z</time></trkpt><trkpt lat="39.51795340816673" lon="16.211885171668328"><ele>86.0</ele><time>2026-03-22T12:38:31.999Z</time></trkpt><trkpt lat="39.51760368300539" lon="16.21175298605639"><ele>86.0</ele><time>2026-03-22T12:38:32.999Z</time></trkpt><trkpt lat="39.51725331801568" lon="16.211619842119937"><ele>88.5</ele><time>2026-03-22T12:38:33.999Z</time></trkpt><trkpt lat="39.51690385359454" lon="16.211485819378517"><ele>91.0</ele><time>2026-03-22T12:38:34.999Z</time></trkpt><trkpt lat="39.516556149255685" lon="16.211350883652397"><ele>90.5</ele><time>2026-03-22T12:38:35.999Z</time></trkpt><trkpt lat="39.516206402346185" lon="16.211214898365252"><ele>90.0</ele><time>2026-03-22T12:38:36.999Z</time></trkpt><trkpt lat="39.51585555273089" lon="16.211079511433244"><ele>90.0</ele><time>2026-03-22T12:38:37.999Z</time></trkpt><trkpt lat="39.51550552871399" lon="16.21094641061431"><ele>90.0</ele><time>2026-03-22T12:38:38.999Z</time></trkpt><trkpt lat="39.51515529322787" lon="16.210812656561387"><ele>90.0</ele><time>2026-03-22T12:38:39.999Z</time></trkpt><trkpt lat="39.51480512978232" lon="16.210679453588206"><ele>90.0</ele><time>2026-03-22T12:38:40.999Z</time></trkpt><trkpt lat="39.514457746650024" lon="16.210547638440023"><ele>90.0</ele><time>2026-03-22T12:38:41.999Z</time></trkpt><trkpt lat="39.514111798821226" lon="16.21041956520658"><ele>90.0</ele><time>2026-03-22T12:38:42.999Z</time></trkpt><trkpt lat="39.513762830496404" lon="16.210300017763878"><ele>90.0</ele><time>2026-03-22T12:38:43.999Z</time></trkpt><trkpt lat="39.51341304039663" lon="16.210193278276865"><ele>90.0</ele><time>2026-03-22T12:38:44.999Z</time></trkpt><trkpt lat="39.513064328670794" lon="16.210108773906867"><ele>89.0</ele><time>2026-03-22T12:38:45.999Z</time></trkpt><trkpt lat="39.512719703313934" lon="16.210049755262315"><ele>88.0</ele><time>2026-03-22T12:38:46.999Z</time></trkpt><trkpt lat="39.512379628471145" lon="16.210013283311728"><ele>89.5</ele><time>2026-03-22T12:38:47.999Z</time></trkpt><trkpt lat="39.51203690838175" lon="16.209990171257267"><ele>91.0</ele><time>2026-03-22T12:38:48.999Z</time></trkpt><trkpt lat="39.511683609198315" lon="16.20997612503377"><ele>91.0</ele><time>2026-03-22T12:38:49.999Z</time></trkpt><trkpt lat="39.51132795829265" lon="16.209969103867703"><ele>91.0</ele><time>2026-03-22T12:38:50.999Z</time></trkpt><trkpt lat="39.51096906582701" lon="16.209963366783043"><ele>91.0</ele><time>2026-03-22T12:38:51.999Z</time></trkpt><trkpt lat="39.51060808088626" lon="16.20995816431072"><ele>91.0</ele><time>2026-03-22T12:38:52.999Z</time></trkpt><trkpt lat="39.51024598541847" lon="16.209951960957977"><ele>91.0</ele><time>2026-03-22T12:38:53.999Z</time></trkpt><trkpt lat="39.50988398401703" lon="16.209941907059783"><ele>91.0</ele><time>2026-03-22T12:38:54.999Z</time></trkpt><trkpt lat="39.50952107639453" lon="16.20992850873244"><ele>90.5</ele><time>2026-03-22T12:38:55.999Z</time></trkpt><trkpt lat="39.50915774675706" lon="16.209917960248497"><ele>90.0</ele><time>2026-03-22T12:38:56.999Z</time></trkpt><trkpt lat="39.50879752601339" lon="16.209910811146504"><ele>89.5</ele><time>2026-03-22T12:38:57.999Z</time></trkpt><trkpt lat="39.50843341265263" lon="16.20990115805513"><ele>89.0</ele><time>2026-03-22T12:38:58.999Z</time></trkpt><trkpt lat="39.50806986550352" lon="16.209891421244077"><ele>88.5</ele><time>2026-03-22T12:38:59.999Z</time></trkpt><trkpt lat="39.50770452424974" lon="16.209882789036392"><ele>88.0</ele><time>2026-03-22T12:39:00.999Z</time></trkpt><trkpt lat="39.50733913532424" lon="16.209873758129582"><ele>88.0</ele><time>2026-03-22T12:39:01.999Z</time></trkpt><trkpt lat="39.50697357752968" lon="16.20986502673849"><ele>88.0</ele><time>2026-03-22T12:39:02.999Z</time></trkpt><trkpt lat="39.506607120923206" lon="16.20985540631152"><ele>87.0</ele><time>2026-03-22T12:39:03.999Z</time></trkpt><trkpt lat="39.50623992074404" lon="16.209847010732137"><ele>86.0</ele><time>2026-03-22T12:39:04.999Z</time></trkpt><trkpt lat="39.505873189555054" lon="16.20983685084368"><ele>86.0</ele><time>2026-03-22T12:39:05.999Z</time></trkpt><trkpt lat="39.50550759945129" lon="16.20982622727758"><ele>86.0</ele><time>2026-03-22T12:39:06.998Z</time></trkpt><trkpt lat="39.5051417642152" lon="16.20981465429527"><ele>84.5</ele><time>2026-03-22T12:39:07.998Z</time></trkpt><trkpt lat="39.50477723791576" lon="16.20980343784463"><ele>83.0</ele><time>2026-03-22T12:39:08.998Z</time></trkpt><trkpt lat="39.50441223706578" lon="16.209794526514273"><ele>82.5</ele><time>2026-03-22T12:39:09.998Z</time></trkpt><trkpt lat="39.5040478019786" lon="16.209789863901296"><ele>82.0</ele><time>2026-03-22T12:39:10.998Z</time></trkpt><trkpt lat="39.50368384324227" lon="16.209792188111447"><ele>82.0</ele><time>2026-03-22T12:39:11.998Z</time></trkpt><trkpt lat="39.50332281416172" lon="16.209802580172134"><ele>82.0</ele><time>2026-03-22T12:39:12.998Z</time></trkpt><trkpt lat="39.50296151073585" lon="16.209821327850225"><ele>83.0</ele><time>2026-03-22T12:39:13.998Z</time></trkpt><trkpt lat="39.5026020997187" lon="16.20985487354645"><ele>84.0</ele><time>2026-03-22T12:39:14.998Z</time></trkpt><trkpt lat="39.50224388006496" lon="16.20990114857174"><ele>84.5</ele><time>2026-03-22T12:39:15.998Z</time></trkpt><trkpt lat="39.50188804118224" lon="16.209960980783023"><ele>85.0</ele><time>2026-03-22T12:39:16.998Z</time></trkpt><trkpt lat="39.501532136767956" lon="16.210032768205064"><ele>85.0</ele><time>2026-03-22T12:39:18Z</time></trkpt><trkpt lat="39.501175574652585" lon="16.210115079041273"><ele>85.0</ele><time>2026-03-22T12:39:19Z</time></trkpt><trkpt lat="39.50082306206704" lon="16.21020545028499"><ele>85.0</ele><time>2026-03-22T12:39:20Z</time></trkpt><trkpt lat="39.500482761177466" lon="16.21029809423763"><ele>85.0</ele><time>2026-03-22T12:39:21Z</time></trkpt><trkpt lat="39.50015523280043" lon="16.210393201507912"><ele>85.5</ele><time>2026-03-22T12:39:22Z</time></trkpt><trkpt lat="39.49983533442071" lon="16.210486916872448"><ele>86.0</ele><time>2026-03-22T12:39:23Z</time></trkpt><trkpt lat="39.49951708312342" lon="16.210576387645663"><ele>87.5</ele><time>2026-03-22T12:39:24Z</time></trkpt><trkpt lat="39.49921751356254" lon="16.210658944761306"><ele>89.0</ele><time>2026-03-22T12:39:25Z</time></trkpt><trkpt lat="39.49894962749327" lon="16.21073380367151"><ele>89.0</ele><time>2026-03-22T12:39:26Z</time></trkpt><trkpt lat="39.49868631335298" lon="16.210806648322"><ele>89.0</ele><time>2026-03-22T12:39:27Z</time></trkpt><trkpt lat="39.498406080462885" lon="16.210880663395084"><ele>89.0</ele><time>2026-03-22T12:39:28Z</time></trkpt><trkpt lat="39.49810996491791" lon="16.21095669815503"><ele>89.0</ele><time>2026-03-22T12:39:29Z</time></trkpt><trkpt lat="39.49780633349338" lon="16.211033497192325"><ele>88.5</ele><time>2026-03-22T12:39:30Z</time></trkpt><trkpt lat="39.49749468320157" lon="16.211109056945073"><ele>88.0</ele><time>2026-03-22T12:39:31Z</time></trkpt><trkpt lat="39.49717106496044" lon="16.21118569617298"><ele>88.5</ele><time>2026-03-22T12:39:32Z</time></trkpt><trkpt lat="39.49682771313914" lon="16.21126720688276"><ele>89.0</ele><time>2026-03-22T12:39:33Z</time></trkpt><trkpt lat="39.4964882942499" lon="16.21134637631796"><ele>89.0</ele><time>2026-03-22T12:39:34Z</time></trkpt><trkpt lat="39.49613348858472" lon="16.211428488151913"><ele>89.0</ele><time>2026-03-22T12:39:35Z</time></trkpt><trkpt lat="39.49577782733293" lon="16.211503230608333"><ele>89.0</ele><time>2026-03-22T12:39:36Z</time></trkpt><trkpt lat="39.495422593365234" lon="16.21157806183563"><ele>89.0</ele><time>2026-03-22T12:39:37Z</time></trkpt><trkpt lat="39.495060796015814" lon="16.211641770377017"><ele>89.0</ele><time>2026-03-22T12:39:38Z</time></trkpt><trkpt lat="39.494700288763624" lon="16.2116939601329"><ele>89.0</ele><time>2026-03-22T12:39:39Z</time></trkpt><trkpt lat="39.49433801152335" lon="16.211739612697034"><ele>88.5</ele><time>2026-03-22T12:39:40Z</time></trkpt><trkpt lat="39.49397671861699" lon="16.211787012518837"><ele>88.0</ele><time>2026-03-22T12:39:41Z</time></trkpt><trkpt lat="39.49361552510954" lon="16.211836770151614"><ele>88.0</ele><time>2026-03-22T12:39:42Z</time></trkpt><trkpt lat="39.493252598874186" lon="16.21189675497514"><ele>88.0</ele><time>2026-03-22T12:39:43Z</time></trkpt><trkpt lat="39.49289212575685" lon="16.211967005524926"><ele>88.5</ele><time>2026-03-22T12:39:44Z</time></trkpt><trkpt lat="39.49253119638329" lon="16.212044045470297"><ele>89.0</ele><time>2026-03-22T12:39:45Z</time></trkpt><trkpt lat="39.49217098217782" lon="16.2121271435"><ele>89.0</ele><time>2026-03-22T12:39:46Z</time></trkpt><trkpt lat="39.491810969307565" lon="16.212216242232678"><ele>89.0</ele><time>2026-03-22T12:39:47Z</time></trkpt><trkpt lat="39.49144971950339" lon="16.212308773645567"><ele>89.0</ele><time>2026-03-22T12:39:48Z</time></trkpt><trkpt lat="39.49108951195888" lon="16.212401020377357"><ele>89.0</ele><time>2026-03-22T12:39:49Z</time></trkpt><trkpt lat="39.49073109498693" lon="16.21249171925559"><ele>89.5</ele><time>2026-03-22T12:39:50Z</time></trkpt><trkpt lat="39.490372554020716" lon="16.212581159327744"><ele>90.0</ele><time>2026-03-22T12:39:51Z</time></trkpt><trkpt lat="39.490015205270694" lon="16.212670503101354"><ele>90.0</ele><time>2026-03-22T12:39:52Z</time></trkpt><trkpt lat="39.48965774749686" lon="16.21276071308551"><ele>90.0</ele><time>2026-03-22T12:39:53Z</time></trkpt><trkpt lat="39.48930022543661" lon="16.21285107060863"><ele>89.5</ele><time>2026-03-22T12:39:54Z</time></trkpt><trkpt lat="39.48894291306475" lon="16.212939625314117"><ele>89.0</ele><time>2026-03-22T12:39:55Z</time></trkpt><trkpt lat="39.488586411768296" lon="16.213027798640983"><ele>89.0</ele><time>2026-03-22T12:39:55.999Z</time></trkpt><trkpt lat="39.4882285463188" lon="16.213113673987202"><ele>89.0</ele><time>2026-03-22T12:39:56.999Z</time></trkpt><trkpt lat="39.487872773666304" lon="16.21319893164898"><ele>89.0</ele><time>2026-03-22T12:39:57.999Z</time></trkpt><trkpt lat="39.48751716152505" lon="16.21328871208841"><ele>89.0</ele><time>2026-03-22T12:39:58.999Z</time></trkpt><trkpt lat="39.48716349937048" lon="16.2133807558389"><ele>89.5</ele><time>2026-03-22T12:39:59.999Z</time></trkpt><trkpt lat="39.48681227395568" lon="16.213473388162164"><ele>90.0</ele><time>2026-03-22T12:40:00.999Z</time></trkpt><trkpt lat="39.4864636727387" lon="16.21356938268819"><ele>90.0</ele><time>2026-03-22T12:40:01.999Z</time></trkpt><trkpt lat="39.48611305086991" lon="16.213670743908683"><ele>90.0</ele><time>2026-03-22T12:40:02.999Z</time></trkpt><trkpt lat="39.485759064190795" lon="16.213768894277777"><ele>90.5</ele><time>2026-03-22T12:40:03.999Z</time></trkpt><trkpt lat="39.48540549789293" lon="16.213862464866388"><ele>91.0</ele><time>2026-03-22T12:40:04.999Z</time></trkpt><trkpt lat="39.485052354643564" lon="16.213953158441107"><ele>90.5</ele><time>2026-03-22T12:40:05.999Z</time></trkpt><trkpt lat="39.484699137704254" lon="16.214042353915147"><ele>90.0</ele><time>2026-03-22T12:40:06.999Z</time></trkpt><trkpt lat="39.484345073584606" lon="16.2141296513483"><ele>91.0</ele><time>2026-03-22T12:40:07.999Z</time></trkpt><trkpt lat="39.483990613384805" lon="16.21421545157136"><ele>92.0</ele><time>2026-03-22T12:40:08.999Z</time></trkpt><trkpt lat="39.48363511563066" lon="16.214300881079616"><ele>92.5</ele><time>2026-03-22T12:40:09.999Z</time></trkpt><trkpt lat="39.483278562250135" lon="16.214387539763678"><ele>93.0</ele><time>2026-03-22T12:40:10.999Z</time></trkpt><trkpt lat="39.48292132507494" lon="16.214475778237148"><ele>93.5</ele><time>2026-03-22T12:40:11.999Z</time></trkpt><trkpt lat="39.482562748973585" lon="16.214563458881717"><ele>94.0</ele><time>2026-03-22T12:40:12.999Z</time></trkpt><trkpt lat="39.48220602967257" lon="16.21465068811454"><ele>94.5</ele><time>2026-03-22T12:40:13.999Z</time></trkpt><trkpt lat="39.4818477067486" lon="16.21473676312595"><ele>95.0</ele><time>2026-03-22T12:40:14.999Z</time></trkpt><trkpt lat="39.48148961343138" lon="16.214825515861715"><ele>95.5</ele><time>2026-03-22T12:40:15.999Z</time></trkpt><trkpt lat="39.48113274022366" lon="16.21491702249325"><ele>96.0</ele><time>2026-03-22T12:40:16.999Z</time></trkpt><trkpt lat="39.48077402080078" lon="16.215008878904527"><ele>96.0</ele><time>2026-03-22T12:40:17.999Z</time></trkpt><trkpt lat="39.48041399916205" lon="16.2151016197905"><ele>96.0</ele><time>2026-03-22T12:40:18.999Z</time></trkpt><trkpt lat="39.48005311741147" lon="16.215194547545632"><ele>96.0</ele><time>2026-03-22T12:40:19.999Z</time></trkpt><trkpt lat="39.47969441661947" lon="16.21528517408029"><ele>96.0</ele><time>2026-03-22T12:40:20.999Z</time></trkpt><trkpt lat="39.47933536577973" lon="16.21537455736342"><ele>95.5</ele><time>2026-03-22T12:40:21.999Z</time></trkpt><trkpt lat="39.47897889054358" lon="16.215463082110002"><ele>95.0</ele><time>2026-03-22T12:40:22.999Z</time></trkpt><trkpt lat="39.478622124393624" lon="16.215552871225228"><ele>95.0</ele><time>2026-03-22T12:40:23.999Z</time></trkpt><trkpt lat="39.478264817072485" lon="16.215643831821605"><ele>95.0</ele><time>2026-03-22T12:40:24.999Z</time></trkpt><trkpt lat="39.47790944378504" lon="16.21573547834761"><ele>95.0</ele><time>2026-03-22T12:40:25.999Z</time></trkpt><trkpt lat="39.47755333662818" lon="16.215828212659382"><ele>95.0</ele><time>2026-03-22T12:40:26.999Z</time></trkpt><trkpt lat="39.47719601406458" lon="16.215921212429436"><ele>94.0</ele><time>2026-03-22T12:40:27.999Z</time></trkpt><trkpt lat="39.47683760100117" lon="16.21601226971299"><ele>93.0</ele><time>2026-03-22T12:40:28.999Z</time></trkpt><trkpt lat="39.47647930986173" lon="16.216098422129075"><ele>93.0</ele><time>2026-03-22T12:40:29.999Z</time></trkpt><trkpt lat="39.47612353582909" lon="16.216183228557576"><ele>93.0</ele><time>2026-03-22T12:40:30.999Z</time></trkpt><trkpt lat="39.47577006170162" lon="16.21627859039058"><ele>92.5</ele><time>2026-03-22T12:40:31.999Z</time></trkpt><trkpt lat="39.47541820325661" lon="16.216387090718317"><ele>92.0</ele><time>2026-03-22T12:40:32.999Z</time></trkpt><trkpt lat="39.47506988295282" lon="16.216508861906508"><ele>92.5</ele><time>2026-03-22T12:40:33.999Z</time></trkpt><trkpt lat="39.47472814354633" lon="16.216637417849046"><ele>93.0</ele><time>2026-03-22T12:40:34.999Z</time></trkpt><trkpt lat="39.474397063821925" lon="16.216770504280323"><ele>93.0</ele><time>2026-03-22T12:40:35.999Z</time></trkpt><trkpt lat="39.47407460979275" lon="16.216911423360745"><ele>93.0</ele><time>2026-03-22T12:40:36.999Z</time></trkpt><trkpt lat="39.47375887079864" lon="16.21705740196323"><ele>93.0</ele><time>2026-03-22T12:40:37.999Z</time></trkpt><trkpt lat="39.47343719697863" lon="16.217207241679553"><ele>93.0</ele><time>2026-03-22T12:40:38.999Z</time></trkpt><trkpt lat="39.47310528016871" lon="16.21735889423551"><ele>93.0</ele><time>2026-03-22T12:40:39.999Z</time></trkpt><trkpt lat="39.47276782565054" lon="16.21750770551272"><ele>93.0</ele><time>2026-03-22T12:40:40.999Z</time></trkpt><trkpt lat="39.47242850737728" lon="16.217654469334395"><ele>93.0</ele><time>2026-03-22T12:40:41.999Z</time></trkpt><trkpt lat="39.472088540012365" lon="16.217799646007396"><ele>93.0</ele><time>2026-03-22T12:40:42.999Z</time></trkpt><trkpt lat="39.47174713155931" lon="16.217946706755882"><ele>93.0</ele><time>2026-03-22T12:40:43.999Z</time></trkpt><trkpt lat="39.47140356208805" lon="16.218092956527233"><ele>93.0</ele><time>2026-03-22T12:40:44.999Z</time></trkpt><trkpt lat="39.47105883656053" lon="16.218234872272866"><ele>94.5</ele><time>2026-03-22T12:40:45.999Z</time></trkpt><trkpt lat="39.47071302524464" lon="16.218373694841283"><ele>96.0</ele><time>2026-03-22T12:40:46.999Z</time></trkpt><trkpt lat="39.47036626493485" lon="16.218513951986626"><ele>96.0</ele><time>2026-03-22T12:40:47.999Z</time></trkpt><trkpt lat="39.47001842208522" lon="16.218655653058196"><ele>96.0</ele><time>2026-03-22T12:40:48.999Z</time></trkpt><trkpt lat="39.46967173468381" lon="16.21879915896309"><ele>96.0</ele><time>2026-03-22T12:40:49.999Z</time></trkpt><trkpt lat="39.46932516113728" lon="16.21894263908678"><ele>96.0</ele><time>2026-03-22T12:40:50.999Z</time></trkpt><trkpt lat="39.4689777813232" lon="16.21908658056427"><ele>96.5</ele><time>2026-03-22T12:40:51.999Z</time></trkpt><trkpt lat="39.46863174325932" lon="16.219232134743795"><ele>97.0</ele><time>2026-03-22T12:40:52.999Z</time></trkpt><trkpt lat="39.468285269330195" lon="16.219379429630578"><ele>96.5</ele><time>2026-03-22T12:40:53.999Z</time></trkpt><trkpt lat="39.4679397942283" lon="16.2195278469856"><ele>96.0</ele><time>2026-03-22T12:40:54.999Z</time></trkpt><trkpt lat="39.46759386597125" lon="16.219676171928796"><ele>96.5</ele><time>2026-03-22T12:40:55.999Z</time></trkpt><trkpt lat="39.46724929836734" lon="16.219824704970012"><ele>97.0</ele><time>2026-03-22T12:40:56.999Z</time></trkpt><trkpt lat="39.4669045666474" lon="16.219977274695218"><ele>97.0</ele><time>2026-03-22T12:40:57.999Z</time></trkpt><trkpt lat="39.466562223802185" lon="16.220135707890574"><ele>97.0</ele><time>2026-03-22T12:40:58.999Z</time></trkpt><trkpt lat="39.46622211711646" lon="16.22030337944025"><ele>97.5</ele><time>2026-03-22T12:40:59.999Z</time></trkpt><trkpt lat="39.465885233370685" lon="16.22048130250828"><ele>98.0</ele><time>2026-03-22T12:41:00.999Z</time></trkpt><trkpt lat="39.46555144707227" lon="16.220670744799392"><ele>99.0</ele><time>2026-03-22T12:41:01.999Z</time></trkpt><trkpt lat="39.46522014323196" lon="16.22086793331469"><ele>100.0</ele><time>2026-03-22T12:41:02.999Z</time></trkpt><trkpt lat="39.464894682685454" lon="16.221071182078905"><ele>101.5</ele><time>2026-03-22T12:41:03.999Z</time></trkpt><trkpt lat="39.46457332776064" lon="16.221284740452514"><ele>103.0</ele><time>2026-03-22T12:41:04.999Z</time></trkpt><trkpt lat="39.4642572367419" lon="16.221510593712377"><ele>100.5</ele><time>2026-03-22T12:41:05.999Z</time></trkpt><trkpt lat="39.463943571931004" lon="16.221747735050002"><ele>98.0</ele><time>2026-03-22T12:41:06.999Z</time></trkpt><trkpt lat="39.46363443300695" lon="16.22199111346926"><ele>98.0</ele><time>2026-03-22T12:41:07.999Z</time></trkpt><trkpt lat="39.463329262972024" lon="16.222240429983234"><ele>98.0</ele><time>2026-03-22T12:41:08.998Z</time></trkpt><trkpt lat="39.463027831811395" lon="16.2225001969481"><ele>98.5</ele><time>2026-03-22T12:41:09.998Z</time></trkpt><trkpt lat="39.462727566147436" lon="16.222768895750292"><ele>99.0</ele><time>2026-03-22T12:41:10.998Z</time></trkpt><trkpt lat="39.46243076487426" lon="16.223038691729215"><ele>99.0</ele><time>2026-03-22T12:41:11.998Z</time></trkpt><trkpt lat="39.46214202488426" lon="16.223322976103074"><ele>99.0</ele><time>2026-03-22T12:41:12.998Z</time></trkpt><trkpt lat="39.46186048190329" lon="16.22362265408392"><ele>99.5</ele><time>2026-03-22T12:41:13.998Z</time></trkpt><trkpt lat="39.46158534572879" lon="16.223927737925283"><ele>100.0</ele><time>2026-03-22T12:41:14.998Z</time></trkpt><trkpt lat="39.46131362364332" lon="16.224239988001333"><ele>100.0</ele><time>2026-03-22T12:41:15.998Z</time></trkpt><trkpt lat="39.46105087248062" lon="16.22455856832558"><ele>100.0</ele><time>2026-03-22T12:41:16.998Z</time></trkpt><trkpt lat="39.46079115461477" lon="16.224884626696305"><ele>100.0</ele><time>2026-03-22T12:41:17.998Z</time></trkpt><trkpt lat="39.460536443018164" lon="16.225217640559887"><ele>100.0</ele><time>2026-03-22T12:41:18.998Z</time></trkpt><trkpt lat="39.460289169380694" lon="16.225557048456295"><ele>100.0</ele><time>2026-03-22T12:41:19.998Z</time></trkpt><trkpt lat="39.46004066983438" lon="16.22590702338522"><ele>100.0</ele><time>2026-03-22T12:41:20.998Z</time></trkpt><trkpt lat="39.45980102948567" lon="16.226252695175006"><ele>101.5</ele><time>2026-03-22T12:41:21.998Z</time></trkpt><trkpt lat="39.45955690689463" lon="16.226603127775874"><ele>103.0</ele><time>2026-03-22T12:41:23Z</time></trkpt><trkpt lat="39.45931239689124" lon="16.226952139389287"><ele>103.0</ele><time>2026-03-22T12:41:24Z</time></trkpt><trkpt lat="39.4590692987551" lon="16.227301762317595"><ele>103.0</ele><time>2026-03-22T12:41:25Z</time></trkpt><trkpt lat="39.45882420208371" lon="16.227652437669835"><ele>103.5</ele><time>2026-03-22T12:41:26Z</time></trkpt><trkpt lat="39.4585803080766" lon="16.22800174424845"><ele>104.0</ele><time>2026-03-22T12:41:27Z</time></trkpt><trkpt lat="39.458335900235895" lon="16.22835104656352"><ele>103.5</ele><time>2026-03-22T12:41:28Z</time></trkpt><trkpt lat="39.458091683162884" lon="16.228700329839175"><ele>103.0</ele><time>2026-03-22T12:41:29Z</time></trkpt><trkpt lat="39.45784684188086" lon="16.22904967408596"><ele>103.0</ele><time>2026-03-22T12:41:30Z</time></trkpt><trkpt lat="39.45760363936019" lon="16.22939939462958"><ele>103.0</ele><time>2026-03-22T12:41:31Z</time></trkpt><trkpt lat="39.45735994528254" lon="16.229749752520704"><ele>102.5</ele><time>2026-03-22T12:41:32Z</time></trkpt><trkpt lat="39.45711567196473" lon="16.230099805082606"><ele>102.0</ele><time>2026-03-22T12:41:33Z</time></trkpt><trkpt lat="39.45687179703319" lon="16.230449833370503"><ele>102.5</ele><time>2026-03-22T12:41:34Z</time></trkpt><trkpt lat="39.45662794498428" lon="16.23080164595117"><ele>103.0</ele><time>2026-03-22T12:41:35Z</time></trkpt><trkpt lat="39.45638707905056" lon="16.23115210534675"><ele>103.5</ele><time>2026-03-22T12:41:36Z</time></trkpt><trkpt lat="39.45614702362865" lon="16.231504475341044"><ele>104.0</ele><time>2026-03-22T12:41:37Z</time></trkpt><trkpt lat="39.45590777242278" lon="16.2318590292932"><ele>104.0</ele><time>2026-03-22T12:41:38Z</time></trkpt><trkpt lat="39.45566752290743" lon="16.232212543249645"><ele>104.0</ele><time>2026-03-22T12:41:39Z</time></trkpt><trkpt lat="39.455427201232624" lon="16.23256396057206"><ele>104.0</ele><time>2026-03-22T12:41:40Z</time></trkpt><trkpt lat="39.45518595117377" lon="16.23291382257397"><ele>104.0</ele><time>2026-03-22T12:41:41Z</time></trkpt><trkpt lat="39.45494257978166" lon="16.233261413848886"><ele>104.0</ele><time>2026-03-22T12:41:42Z</time></trkpt><trkpt lat="39.4546995438777" lon="16.233606256058117"><ele>104.0</ele><time>2026-03-22T12:41:43Z</time></trkpt><trkpt lat="39.454450342322126" lon="16.233946023860575"><ele>104.0</ele><time>2026-03-22T12:41:44Z</time></trkpt><trkpt lat="39.454191809336656" lon="16.2342736125333"><ele>104.0</ele><time>2026-03-22T12:41:45Z</time></trkpt><trkpt lat="39.453920336403776" lon="16.234577984232125"><ele>104.0</ele><time>2026-03-22T12:41:46Z</time></trkpt><trkpt lat="39.45363680375357" lon="16.23486050200617"><ele>104.0</ele><time>2026-03-22T12:41:47Z</time></trkpt><trkpt lat="39.453345903372195" lon="16.235130617444113"><ele>104.0</ele><time>2026-03-22T12:41:48Z</time></trkpt><trkpt lat="39.45304786945004" lon="16.235395594667526"><ele>104.0</ele><time>2026-03-22T12:41:49Z</time></trkpt><trkpt lat="39.45274664045274" lon="16.23565166230543"><ele>105.0</ele><time>2026-03-22T12:41:50Z</time></trkpt><trkpt lat="39.452439321566125" lon="16.235901408332918"><ele>106.0</ele><time>2026-03-22T12:41:51Z</time></trkpt><trkpt lat="39.45212766088061" lon="16.23613944122114"><ele>106.5</ele><time>2026-03-22T12:41:52Z</time></trkpt><trkpt lat="39.45180804726987" lon="16.236363488401615"><ele>107.0</ele><time>2026-03-22T12:41:53Z</time></trkpt><trkpt lat="39.4514844613857" lon="16.236570567964083"><ele>109.5</ele><time>2026-03-22T12:41:54Z</time></trkpt><trkpt lat="39.45115486142835" lon="16.236764227657886"><ele>112.0</ele><time>2026-03-22T12:41:55Z</time></trkpt><trkpt lat="39.450818958143806" lon="16.236941909990698"><ele>112.0</ele><time>2026-03-22T12:41:56Z</time></trkpt><trkpt lat="39.45047734073807" lon="16.237104932573324"><ele>112.0</ele><time>2026-03-22T12:41:57Z</time></trkpt><trkpt lat="39.45013216107779" lon="16.237250944624485"><ele>112.0</ele><time>2026-03-22T12:41:58Z</time></trkpt><trkpt lat="39.449781945467585" lon="16.23738127540856"><ele>112.0</ele><time>2026-03-22T12:41:59Z</time></trkpt><trkpt lat="39.44943151342352" lon="16.237496608128087"><ele>112.0</ele><time>2026-03-22T12:41:59.999Z</time></trkpt><trkpt lat="39.44907736947048" lon="16.23759921172721"><ele>112.0</ele><time>2026-03-22T12:42:00.999Z</time></trkpt><trkpt lat="39.448721073247974" lon="16.237681870241264"><ele>113.0</ele><time>2026-03-22T12:42:01.999Z</time></trkpt><trkpt lat="39.44836094407856" lon="16.237749706277654"><ele>114.0</ele><time>2026-03-22T12:42:02.999Z</time></trkpt><trkpt lat="39.448000103718506" lon="16.237800996841276"><ele>116.5</ele><time>2026-03-22T12:42:03.999Z</time></trkpt><trkpt lat="39.447636487741974" lon="16.237837936921"><ele>119.0</ele><time>2026-03-22T12:42:04.999Z</time></trkpt><trkpt lat="39.44727270225835" lon="16.2378629396397"><ele>120.5</ele><time>2026-03-22T12:42:05.999Z</time></trkpt><trkpt lat="39.44690747279461" lon="16.23787532693049"><ele>122.0</ele><time>2026-03-22T12:42:06.999Z</time></trkpt><trkpt lat="39.4465423127582" lon="16.237873597418236"><ele>122.5</ele><time>2026-03-22T12:42:07.999Z</time></trkpt><trkpt lat="39.446178044030205" lon="16.237859927280297"><ele>123.0</ele><time>2026-03-22T12:42:08.999Z</time></trkpt><trkpt lat="39.44581363759229" lon="16.237835549154333"><ele>123.5</ele><time>2026-03-22T12:42:09.999Z</time></trkpt><trkpt lat="39.44544881917176" lon="16.23780497624188"><ele>124.0</ele><time>2026-03-22T12:42:10.999Z</time></trkpt><trkpt lat="39.445083159798735" lon="16.237773733388682"><ele>124.0</ele><time>2026-03-22T12:42:11.999Z</time></trkpt><trkpt lat="39.444718255953084" lon="16.23774967686874"><ele>124.0</ele><time>2026-03-22T12:42:12.999Z</time></trkpt><trkpt lat="39.44435244624791" lon="16.23773509823711"><ele>123.5</ele><time>2026-03-22T12:42:13.999Z</time></trkpt><trkpt lat="39.44398564583454" lon="16.237733280517936"><ele>123.0</ele><time>2026-03-22T12:42:14.999Z</time></trkpt><trkpt lat="39.44362038422548" lon="16.237747189452996"><ele>124.0</ele><time>2026-03-22T12:42:15.999Z</time></trkpt><trkpt lat="39.44326257599198" lon="16.23777997464253"><ele>125.0</ele><time>2026-03-22T12:42:16.999Z</time></trkpt><trkpt lat="39.44289872343236" lon="16.237831105900927"><ele>123.0</ele><time>2026-03-22T12:42:17.999Z</time></trkpt><trkpt lat="39.442541007834976" lon="16.23790212617604"><ele>121.0</ele><time>2026-03-22T12:42:18.999Z</time></trkpt><trkpt lat="39.442184677253294" lon="16.237990614235674"><ele>120.5</ele><time>2026-03-22T12:42:19.999Z</time></trkpt><trkpt lat="39.441831018453364" lon="16.238101128025004"><ele>120.0</ele><time>2026-03-22T12:42:20.999Z</time></trkpt><trkpt lat="39.441480357357314" lon="16.23822818413749"><ele>119.5</ele><time>2026-03-22T12:42:21.999Z</time></trkpt><trkpt lat="39.44113316087465" lon="16.238370109246645"><ele>119.0</ele><time>2026-03-22T12:42:22.999Z</time></trkpt><trkpt lat="39.440789053946" lon="16.238524752016655"><ele>119.0</ele><time>2026-03-22T12:42:23.999Z</time></trkpt><trkpt lat="39.44044702258108" lon="16.23869220466036"><ele>119.0</ele><time>2026-03-22T12:42:24.999Z</time></trkpt><trkpt lat="39.44010591627763" lon="16.23886349173012"><ele>118.5</ele><time>2026-03-22T12:42:25.999Z</time></trkpt><trkpt lat="39.43976157953017" lon="16.239035840774186"><ele>118.0</ele><time>2026-03-22T12:42:26.999Z</time></trkpt><trkpt lat="39.439418599357" lon="16.239210074052664"><ele>120.5</ele><time>2026-03-22T12:42:27.999Z</time></trkpt><trkpt lat="39.43908152057178" lon="16.23939079729259"><ele>123.0</ele><time>2026-03-22T12:42:28.999Z</time></trkpt><trkpt lat="39.43874444427469" lon="16.239572176119026"><ele>124.5</ele><time>2026-03-22T12:42:29.999Z</time></trkpt><trkpt lat="39.43840611318255" lon="16.239749819301963"><ele>126.0</ele><time>2026-03-22T12:42:30.999Z</time></trkpt><trkpt lat="39.43806748829541" lon="16.23992105561238"><ele>126.0</ele><time>2026-03-22T12:42:31.999Z</time></trkpt><trkpt lat="39.437727505262174" lon="16.240084251411144"><ele>126.0</ele><time>2026-03-22T12:42:32.999Z</time></trkpt><trkpt lat="39.4373868086376" lon="16.24024327571364"><ele>126.5</ele><time>2026-03-22T12:42:33.999Z</time></trkpt><trkpt lat="39.437042866035036" lon="16.24038996997033"><ele>127.0</ele><time>2026-03-22T12:42:34.999Z</time></trkpt><trkpt lat="39.43669918393059" lon="16.240523638921342"><ele>127.0</ele><time>2026-03-22T12:42:35.999Z</time></trkpt><trkpt lat="39.436348841086755" lon="16.24064045059605"><ele>127.0</ele><time>2026-03-22T12:42:36.999Z</time></trkpt><trkpt lat="39.43599741885994" lon="16.240737424998613"><ele>127.0</ele><time>2026-03-22T12:42:37.999Z</time></trkpt><trkpt lat="39.43564502306341" lon="16.24081483863512"><ele>127.0</ele><time>2026-03-22T12:42:38.999Z</time></trkpt><trkpt lat="39.43528822845334" lon="16.240875023432583"><ele>127.0</ele><time>2026-03-22T12:42:39.999Z</time></trkpt><trkpt lat="39.434928996468024" lon="16.24091829034051"><ele>127.0</ele><time>2026-03-22T12:42:40.999Z</time></trkpt><trkpt lat="39.43457073654216" lon="16.240944653335987"><ele>128.0</ele><time>2026-03-22T12:42:41.999Z</time></trkpt><trkpt lat="39.434208741127414" lon="16.240949863881784"><ele>129.0</ele><time>2026-03-22T12:42:42.999Z</time></trkpt><trkpt lat="39.43384640685475" lon="16.24095700266051"><ele>129.5</ele><time>2026-03-22T12:42:43.999Z</time></trkpt><trkpt lat="39.43348096436318" lon="16.24095715423254"><ele>130.0</ele><time>2026-03-22T12:42:44.999Z</time></trkpt><trkpt lat="39.433107096534414" lon="16.240954988408205"><ele>131.0</ele><time>2026-03-22T12:42:45.999Z</time></trkpt><trkpt lat="39.43272735244803" lon="16.240954587768044"><ele>132.0</ele><time>2026-03-22T12:42:46.999Z</time></trkpt><trkpt lat="39.432343972468615" lon="16.240956538367843"><ele>132.0</ele><time>2026-03-22T12:42:47.999Z</time></trkpt><trkpt lat="39.43196161606747" lon="16.240961345771776"><ele>132.0</ele><time>2026-03-22T12:42:48.999Z</time></trkpt><trkpt lat="39.43157483531109" lon="16.240966804951395"><ele>132.5</ele><time>2026-03-22T12:42:49.999Z</time></trkpt><trkpt lat="39.43118816406723" lon="16.240973425317822"><ele>133.0</ele><time>2026-03-22T12:42:50.999Z</time></trkpt><trkpt lat="39.430802549804234" lon="16.240983160433704"><ele>133.5</ele><time>2026-03-22T12:42:51.999Z</time></trkpt><trkpt lat="39.43041630487746" lon="16.240997560665715"><ele>134.0</ele><time>2026-03-22T12:42:52.999Z</time></trkpt><trkpt lat="39.430028150393284" lon="16.241019654940214"><ele>134.0</ele><time>2026-03-22T12:42:53.999Z</time></trkpt><trkpt lat="39.42964353457997" lon="16.24105514442324"><ele>134.0</ele><time>2026-03-22T12:42:54.999Z</time></trkpt><trkpt lat="39.429257988734705" lon="16.241104351011245"><ele>134.5</ele><time>2026-03-22T12:42:55.999Z</time></trkpt><trkpt lat="39.42887512175868" lon="16.24116445927852"><ele>135.0</ele><time>2026-03-22T12:42:56.999Z</time></trkpt><trkpt lat="39.428493177973266" lon="16.241232688839805"><ele>138.0</ele><time>2026-03-22T12:42:57.999Z</time></trkpt><trkpt lat="39.428109413753916" lon="16.24130424934884"><ele>141.0</ele><time>2026-03-22T12:42:58.999Z</time></trkpt><trkpt lat="39.42772463013914" lon="16.241376466388814"><ele>141.0</ele><time>2026-03-22T12:42:59.999Z</time></trkpt><trkpt lat="39.427338839469236" lon="16.24144980839206"><ele>141.0</ele><time>2026-03-22T12:43:00.999Z</time></trkpt><trkpt lat="39.42695260650988" lon="16.241523371027917"><ele>140.5</ele><time>2026-03-22T12:43:01.999Z</time></trkpt><trkpt lat="39.42656777254667" lon="16.241596765403436"><ele>140.0</ele><time>2026-03-22T12:43:02.999Z</time></trkpt><trkpt lat="39.42618235302123" lon="16.24167079837812"><ele>140.0</ele><time>2026-03-22T12:43:03.999Z</time></trkpt><trkpt lat="39.425795254316014" lon="16.241744250880302"><ele>140.0</ele><time>2026-03-22T12:43:04.999Z</time></trkpt><trkpt lat="39.425408891751324" lon="16.241815938986523"><ele>140.5</ele><time>2026-03-22T12:43:05.999Z</time></trkpt><trkpt lat="39.42502303237985" lon="16.241888420743724"><ele>141.0</ele><time>2026-03-22T12:43:06.999Z</time></trkpt><trkpt lat="39.42463698129923" lon="16.241959856306934"><ele>142.0</ele><time>2026-03-22T12:43:07.999Z</time></trkpt><trkpt lat="39.42425156757237" lon="16.242030973867074"><ele>143.0</ele><time>2026-03-22T12:43:08.999Z</time></trkpt><trkpt lat="39.4238672720983" lon="16.242102568935437"><ele>142.5</ele><time>2026-03-22T12:43:09.999Z</time></trkpt><trkpt lat="39.42348340188668" lon="16.24217628793985"><ele>142.0</ele><time>2026-03-22T12:43:10.999Z</time></trkpt><trkpt lat="39.423101685904946" lon="16.242251072946974"><ele>142.0</ele><time>2026-03-22T12:43:11.999Z</time></trkpt><trkpt lat="39.422732693709975" lon="16.242327004232415"><ele>142.0</ele><time>2026-03-22T12:43:12.999Z</time></trkpt><trkpt lat="39.42236939641437" lon="16.24240199313269"><ele>142.5</ele><time>2026-03-22T12:43:13.998Z</time></trkpt><trkpt lat="39.422000000248936" lon="16.242477248891518"><ele>143.0</ele><time>2026-03-22T12:43:14.998Z</time></trkpt><trkpt lat="39.42162603202374" lon="16.242552897321467"><ele>143.0</ele><time>2026-03-22T12:43:15.998Z</time></trkpt><trkpt lat="39.421250148117956" lon="16.242627080921856"><ele>143.0</ele><time>2026-03-22T12:43:16.998Z</time></trkpt><trkpt lat="39.42087180727392" lon="16.242703483308258"><ele>143.0</ele><time>2026-03-22T12:43:17.998Z</time></trkpt><trkpt lat="39.42049168472338" lon="16.242782765922176"><ele>143.0</ele><time>2026-03-22T12:43:18.998Z</time></trkpt><trkpt lat="39.420111484439076" lon="16.24286811214949"><ele>143.0</ele><time>2026-03-22T12:43:19.998Z</time></trkpt><trkpt lat="39.41973148736434" lon="16.242960334602817"><ele>143.0</ele><time>2026-03-22T12:43:20.998Z</time></trkpt><trkpt lat="39.41935285323363" lon="16.243060444980912"><ele>142.5</ele><time>2026-03-22T12:43:21.998Z</time></trkpt><trkpt lat="39.41897397701661" lon="16.243170607765208"><ele>142.0</ele><time>2026-03-22T12:43:22.998Z</time></trkpt><trkpt lat="39.41859819506485" lon="16.243290622059444"><ele>142.0</ele><time>2026-03-22T12:43:23.998Z</time></trkpt><trkpt lat="39.41822425843313" lon="16.243421026749914"><ele>142.0</ele><time>2026-03-22T12:43:24.998Z</time></trkpt><trkpt lat="39.41785164056497" lon="16.24355884268455"><ele>142.0</ele><time>2026-03-22T12:43:25.998Z</time></trkpt><trkpt lat="39.41747985230582" lon="16.24370141790876"><ele>142.0</ele><time>2026-03-22T12:43:26.998Z</time></trkpt><trkpt lat="39.41710875651391" lon="16.24384301682561"><ele>136.5</ele><time>2026-03-22T12:43:27.998Z</time></trkpt><trkpt lat="39.41673590744521" lon="16.243982848905414"><ele>131.0</ele><time>2026-03-22T12:43:29Z</time></trkpt><trkpt lat="39.416362354945214" lon="16.24411610036879"><ele>131.0</ele><time>2026-03-22T12:43:30Z</time></trkpt><trkpt lat="39.41598833543838" lon="16.244239893608388"><ele>131.0</ele><time>2026-03-22T12:43:31Z</time></trkpt><trkpt lat="39.41561454165532" lon="16.24435651917997"><ele>133.5</ele><time>2026-03-22T12:43:32Z</time></trkpt><trkpt lat="39.41523832798408" lon="16.24446666960359"><ele>136.0</ele><time>2026-03-22T12:43:33Z</time></trkpt><trkpt lat="39.41486200261419" lon="16.244569228026187"><ele>141.0</ele><time>2026-03-22T12:43:34Z</time></trkpt><trkpt lat="39.4144849488645" lon="16.244656731505934"><ele>146.0</ele><time>2026-03-22T12:43:35Z</time></trkpt><trkpt lat="39.4141066213934" lon="16.244728040079117"><ele>146.0</ele><time>2026-03-22T12:43:36Z</time></trkpt><trkpt lat="39.41372680499612" lon="16.24478180666923"><ele>146.0</ele><time>2026-03-22T12:43:37Z</time></trkpt><trkpt lat="39.41334486963201" lon="16.244818497389506"><ele>144.0</ele><time>2026-03-22T12:43:38Z</time></trkpt><trkpt lat="39.41296119336485" lon="16.24484199545227"><ele>142.0</ele><time>2026-03-22T12:43:39Z</time></trkpt><trkpt lat="39.41257732058824" lon="16.244850070530806"><ele>142.0</ele><time>2026-03-22T12:43:40Z</time></trkpt><trkpt lat="39.41219224710999" lon="16.244843665339584"><ele>142.0</ele><time>2026-03-22T12:43:41Z</time></trkpt><trkpt lat="39.41180586473058" lon="16.244824339224447"><ele>144.0</ele><time>2026-03-22T12:43:42Z</time></trkpt><trkpt lat="39.41142181895754" lon="16.244795250488423"><ele>146.0</ele><time>2026-03-22T12:43:43Z</time></trkpt><trkpt lat="39.411035214666306" lon="16.244761207351416"><ele>146.5</ele><time>2026-03-22T12:43:44Z</time></trkpt><trkpt lat="39.41064850208091" lon="16.244721890187687"><ele>147.0</ele><time>2026-03-22T12:43:45Z</time></trkpt><trkpt lat="39.41026237359611" lon="16.244678304645756"><ele>147.5</ele><time>2026-03-22T12:43:46Z</time></trkpt><trkpt lat="39.409875957530225" lon="16.24462948613453"><ele>148.0</ele><time>2026-03-22T12:43:47Z</time></trkpt><trkpt lat="39.40948963033343" lon="16.244580243705176"><ele>148.5</ele><time>2026-03-22T12:43:48Z</time></trkpt><trkpt lat="39.409102821478484" lon="16.244531757912625"><ele>149.0</ele><time>2026-03-22T12:43:49Z</time></trkpt><trkpt lat="39.40871437741528" lon="16.24448378064809"><ele>149.5</ele><time>2026-03-22T12:43:50Z</time></trkpt><trkpt lat="39.408326888446034" lon="16.244434990592953"><ele>150.0</ele><time>2026-03-22T12:43:51Z</time></trkpt><trkpt lat="39.40793887194971" lon="16.244384910031357"><ele>149.0</ele><time>2026-03-22T12:43:52Z</time></trkpt><trkpt lat="39.407551525947326" lon="16.24433418054665"><ele>148.0</ele><time>2026-03-22T12:43:53Z</time></trkpt><trkpt lat="39.40716386008428" lon="16.24428434466992"><ele>149.5</ele><time>2026-03-22T12:43:54Z</time></trkpt><trkpt lat="39.4067777048163" lon="16.244236598093583"><ele>151.0</ele><time>2026-03-22T12:43:55Z</time></trkpt><trkpt lat="39.40639131037296" lon="16.24418883950809"><ele>151.0</ele><time>2026-03-22T12:43:56Z</time></trkpt><trkpt lat="39.406003009697066" lon="16.24414154862157"><ele>151.0</ele><time>2026-03-22T12:43:57Z</time></trkpt><trkpt lat="39.40561540907853" lon="16.24409236043692"><ele>150.5</ele><time>2026-03-22T12:43:58Z</time></trkpt><trkpt lat="39.40522725527784" lon="16.244044234758654"><ele>150.0</ele><time>2026-03-22T12:43:59Z</time></trkpt><trkpt lat="39.40484099926753" lon="16.243994967981227"><ele>151.0</ele><time>2026-03-22T12:44:00Z</time></trkpt><trkpt lat="39.404452797792935" lon="16.243944566329194"><ele>152.0</ele><time>2026-03-22T12:44:01Z</time></trkpt><trkpt lat="39.40406524860818" lon="16.243893566331447"><ele>150.0</ele><time>2026-03-22T12:44:02Z</time></trkpt><trkpt lat="39.403678962465015" lon="16.243844524105068"><ele>148.0</ele><time>2026-03-22T12:44:03Z</time></trkpt><trkpt lat="39.403293063233605" lon="16.243794914995043"><ele>146.0</ele><time>2026-03-22T12:44:03.999Z</time></trkpt><trkpt lat="39.4029075881628" lon="16.243746718397635"><ele>144.0</ele><time>2026-03-22T12:44:04.999Z</time></trkpt><trkpt lat="39.40252115559979" lon="16.243698838729365"><ele>143.5</ele><time>2026-03-22T12:44:05.999Z</time></trkpt><trkpt lat="39.40213499069039" lon="16.243651198037163"><ele>143.0</ele><time>2026-03-22T12:44:06.999Z</time></trkpt><trkpt lat="39.40174870444584" lon="16.243602062076693"><ele>143.0</ele><time>2026-03-22T12:44:07.999Z</time></trkpt><trkpt lat="39.401363549832546" lon="16.243554675932135"><ele>143.0</ele><time>2026-03-22T12:44:08.999Z</time></trkpt><trkpt lat="39.40097660053956" lon="16.24350694199605"><ele>143.5</ele><time>2026-03-22T12:44:09.999Z</time></trkpt><trkpt lat="39.400590204684775" lon="16.243457515024517"><ele>144.0</ele><time>2026-03-22T12:44:10.999Z</time></trkpt><trkpt lat="39.400205714160414" lon="16.243405979158634"><ele>144.0</ele><time>2026-03-22T12:44:11.999Z</time></trkpt><trkpt lat="39.39982054637075" lon="16.243353712100358"><ele>144.0</ele><time>2026-03-22T12:44:12.999Z</time></trkpt><trkpt lat="39.39943411796281" lon="16.24330182332909"><ele>144.0</ele><time>2026-03-22T12:44:13.999Z</time></trkpt><trkpt lat="39.399048766903654" lon="16.243250450591944"><ele>144.0</ele><time>2026-03-22T12:44:14.999Z</time></trkpt><trkpt lat="39.39866234448805" lon="16.243199822290126"><ele>144.5</ele><time>2026-03-22T12:44:15.999Z</time></trkpt><trkpt lat="39.39827683345916" lon="16.24315210743071"><ele>145.0</ele><time>2026-03-22T12:44:16.999Z</time></trkpt><trkpt lat="39.39789176764048" lon="16.243105762286895"><ele>145.5</ele><time>2026-03-22T12:44:17.999Z</time></trkpt><trkpt lat="39.397506387465654" lon="16.243058734765658"><ele>146.0</ele><time>2026-03-22T12:44:18.999Z</time></trkpt><trkpt lat="39.39711940945055" lon="16.24301139436552"><ele>147.0</ele><time>2026-03-22T12:44:19.999Z</time></trkpt><trkpt lat="39.396733373565546" lon="16.24296336393883"><ele>148.0</ele><time>2026-03-22T12:44:20.999Z</time></trkpt><trkpt lat="39.39634775617252" lon="16.242914541446506"><ele>150.0</ele><time>2026-03-22T12:44:21.999Z</time></trkpt><trkpt lat="39.39596228399207" lon="16.24286240450498"><ele>152.0</ele><time>2026-03-22T12:44:22.999Z</time></trkpt><trkpt lat="39.395576794807226" lon="16.24281194392693"><ele>154.0</ele><time>2026-03-22T12:44:23.999Z</time></trkpt><trkpt lat="39.395191566753915" lon="16.24276458662611"><ele>156.0</ele><time>2026-03-22T12:44:24.999Z</time></trkpt><trkpt lat="39.39480853947353" lon="16.242717415071287"><ele>156.5</ele><time>2026-03-22T12:44:25.999Z</time></trkpt><trkpt lat="39.39442626324263" lon="16.242667288590184"><ele>157.0</ele><time>2026-03-22T12:44:26.999Z</time></trkpt><trkpt lat="39.39404422268845" lon="16.242608847770214"><ele>158.5</ele><time>2026-03-22T12:44:27.999Z</time></trkpt><trkpt lat="39.39366198580821" lon="16.24254118071566"><ele>160.0</ele><time>2026-03-22T12:44:28.999Z</time></trkpt><trkpt lat="39.39328127021846" lon="16.242461826250782"><ele>160.0</ele><time>2026-03-22T12:44:29.999Z</time></trkpt><trkpt lat="39.392903167919364" lon="16.242367346632907"><ele>160.0</ele><time>2026-03-22T12:44:30.999Z</time></trkpt><trkpt lat="39.39252791996076" lon="16.24225962143527"><ele>162.0</ele><time>2026-03-22T12:44:31.999Z</time></trkpt><trkpt lat="39.39215959930033" lon="16.242117852125652"><ele>164.0</ele><time>2026-03-22T12:44:32.999Z</time></trkpt><trkpt lat="39.39179698718529" lon="16.241956871996837"><ele>164.0</ele><time>2026-03-22T12:44:33.999Z</time></trkpt><trkpt lat="39.391439723531334" lon="16.24177574768229"><ele>164.0</ele><time>2026-03-22T12:44:34.999Z</time></trkpt><trkpt lat="39.39108598537023" lon="16.241576318645862"><ele>165.0</ele><time>2026-03-22T12:44:35.999Z</time></trkpt><trkpt lat="39.39073869651887" lon="16.241360268437127"><ele>166.0</ele><time>2026-03-22T12:44:36.999Z</time></trkpt><trkpt lat="39.39039782414158" lon="16.24112561930223"><ele>166.0</ele><time>2026-03-22T12:44:37.999Z</time></trkpt><trkpt lat="39.39006420698799" lon="16.240872881022863"><ele>166.0</ele><time>2026-03-22T12:44:38.999Z</time></trkpt><trkpt lat="39.38973784673393" lon="16.240603922012948"><ele>165.5</ele><time>2026-03-22T12:44:39.999Z</time></trkpt><trkpt lat="39.389417411279034" lon="16.240320395053217"><ele>165.0</ele><time>2026-03-22T12:44:40.999Z</time></trkpt><trkpt lat="39.389103149977515" lon="16.240023750628644"><ele>164.0</ele><time>2026-03-22T12:44:41.999Z</time></trkpt><trkpt lat="39.3887920837478" lon="16.239722164276003"><ele>163.0</ele><time>2026-03-22T12:44:42.999Z</time></trkpt><trkpt lat="39.388483266106725" lon="16.23941847254931"><ele>163.0</ele><time>2026-03-22T12:44:43.999Z</time></trkpt><trkpt lat="39.38817248182792" lon="16.23911274962035"><ele>163.0</ele><time>2026-03-22T12:44:44.999Z</time></trkpt><trkpt lat="39.38785790649149" lon="16.238810504886995"><ele>161.5</ele><time>2026-03-22T12:44:45.999Z</time></trkpt><trkpt lat="39.38753961905088" lon="16.23851716697576"><ele>160.0</ele><time>2026-03-22T12:44:46.999Z</time></trkpt><trkpt lat="39.38721411991336" lon="16.238236716318962"><ele>162.5</ele><time>2026-03-22T12:44:47.999Z</time></trkpt><trkpt lat="39.38688332236952" lon="16.237969694203027"><ele>165.0</ele><time>2026-03-22T12:44:48.999Z</time></trkpt><trkpt lat="39.386545049679995" lon="16.23771983763468"><ele>166.0</ele><time>2026-03-22T12:44:49.999Z</time></trkpt><trkpt lat="39.386199799092026" lon="16.237485758410113"><ele>167.0</ele><time>2026-03-22T12:44:50.999Z</time></trkpt><trkpt lat="39.38584793664529" lon="16.23727124568074"><ele>163.0</ele><time>2026-03-22T12:44:51.999Z</time></trkpt><trkpt lat="39.38548943462924" lon="16.237084038210348"><ele>159.0</ele><time>2026-03-22T12:44:52.999Z</time></trkpt><trkpt lat="39.385124006411836" lon="16.23691845018334"><ele>159.0</ele><time>2026-03-22T12:44:53.999Z</time></trkpt><trkpt lat="39.38475344856265" lon="16.236775155106294"><ele>159.0</ele><time>2026-03-22T12:44:54.999Z</time></trkpt><trkpt lat="39.38437956858104" lon="16.236651455377405"><ele>159.0</ele><time>2026-03-22T12:44:55.999Z</time></trkpt><trkpt lat="39.384001764713084" lon="16.236545964842275"><ele>159.0</ele><time>2026-03-22T12:44:56.999Z</time></trkpt><trkpt lat="39.383620147015826" lon="16.236461523915608"><ele>159.0</ele><time>2026-03-22T12:44:57.999Z</time></trkpt><trkpt lat="39.38323703044499" lon="16.23639965759938"><ele>159.0</ele><time>2026-03-22T12:44:58.999Z</time></trkpt><trkpt lat="39.382855560711" lon="16.236357792497223"><ele>159.0</ele><time>2026-03-22T12:44:59.999Z</time></trkpt><trkpt lat="39.38247169492837" lon="16.236333903250394"><ele>159.0</ele><time>2026-03-22T12:45:00.999Z</time></trkpt><trkpt lat="39.38208724859459" lon="16.236321494640034"><ele>160.0</ele><time>2026-03-22T12:45:01.999Z</time></trkpt><trkpt lat="39.38170279104324" lon="16.236320461134632"><ele>161.0</ele><time>2026-03-22T12:45:02.999Z</time></trkpt><trkpt lat="39.38131679422358" lon="16.23632676531341"><ele>161.0</ele><time>2026-03-22T12:45:03.999Z</time></trkpt><trkpt lat="39.380930599627526" lon="16.236337570365322"><ele>161.0</ele><time>2026-03-22T12:45:04.999Z</time></trkpt><trkpt lat="39.380542565273764" lon="16.236347532838618"><ele>161.5</ele><time>2026-03-22T12:45:05.999Z</time></trkpt><trkpt lat="39.38015481354988" lon="16.23635419591769"><ele>162.0</ele><time>2026-03-22T12:45:06.999Z</time></trkpt><trkpt lat="39.37976751565777" lon="16.23635987961556"><ele>163.0</ele><time>2026-03-22T12:45:07.999Z</time></trkpt><trkpt lat="39.37937795217165" lon="16.236366956971256"><ele>164.0</ele><time>2026-03-22T12:45:08.999Z</time></trkpt><trkpt lat="39.378988189220756" lon="16.236371733532806"><ele>166.5</ele><time>2026-03-22T12:45:09.999Z</time></trkpt><trkpt lat="39.37859921034404" lon="16.236376483156057"><ele>169.0</ele><time>2026-03-22T12:45:10.999Z</time></trkpt><trkpt lat="39.378210753409576" lon="16.23638476974716"><ele>171.0</ele><time>2026-03-22T12:45:11.999Z</time></trkpt><trkpt lat="39.377822230078145" lon="16.236396247968756"><ele>173.0</ele><time>2026-03-22T12:45:12.999Z</time></trkpt><trkpt lat="39.37743274922635" lon="16.236407456825635"><ele>173.5</ele><time>2026-03-22T12:45:13.999Z</time></trkpt><trkpt lat="39.37704316005284" lon="16.23641645103996"><ele>174.0</ele><time>2026-03-22T12:45:14.999Z</time></trkpt><trkpt lat="39.3766541022282" lon="16.236423321134"><ele>173.0</ele><time>2026-03-22T12:45:15.999Z</time></trkpt><trkpt lat="39.37626598984097" lon="16.236426584921258"><ele>172.0</ele><time>2026-03-22T12:45:16.999Z</time></trkpt><trkpt lat="39.375878155434535" lon="16.23642997953632"><ele>171.0</ele><time>2026-03-22T12:45:17.998Z</time></trkpt><trkpt lat="39.37548926775269" lon="16.236434231866042"><ele>170.0</ele><time>2026-03-22T12:45:18.998Z</time></trkpt><trkpt lat="39.375098967318614" lon="16.236438687804494"><ele>170.0</ele><time>2026-03-22T12:45:19.998Z</time></trkpt><trkpt lat="39.374711016290824" lon="16.236443399674165"><ele>170.0</ele><time>2026-03-22T12:45:20.998Z</time></trkpt><trkpt lat="39.37432477853341" lon="16.23644963224526"><ele>171.0</ele><time>2026-03-22T12:45:21.998Z</time></trkpt><trkpt lat="39.37393914972055" lon="16.236455786052428"><ele>172.0</ele><time>2026-03-22T12:45:22.998Z</time></trkpt><trkpt lat="39.37355193827491" lon="16.236460369156823"><ele>175.5</ele><time>2026-03-22T12:45:23.998Z</time></trkpt><trkpt lat="39.37316540615106" lon="16.23646201829442"><ele>179.0</ele><time>2026-03-22T12:45:24.998Z</time></trkpt><trkpt lat="39.372778665699954" lon="16.23646387866133"><ele>179.0</ele><time>2026-03-22T12:45:25.998Z</time></trkpt><trkpt lat="39.37239018038241" lon="16.236463691263353"><ele>179.0</ele><time>2026-03-22T12:45:26.998Z</time></trkpt><trkpt lat="39.37200090543676" lon="16.23646363472517"><ele>179.0</ele><time>2026-03-22T12:45:27.998Z</time></trkpt><trkpt lat="39.37161244527316" lon="16.23646196801619"><ele>179.0</ele><time>2026-03-22T12:45:28.998Z</time></trkpt><trkpt lat="39.37122373058623" lon="16.236460554453405"><ele>176.5</ele><time>2026-03-22T12:45:29.998Z</time></trkpt><trkpt lat="39.370836496379" lon="16.23646056640298"><ele>174.0</ele><time>2026-03-22T12:45:30.998Z</time></trkpt><trkpt lat="39.370447540601006" lon="16.2364613900055"><ele>174.0</ele><time>2026-03-22T12:45:31.998Z</time></trkpt><trkpt lat="39.37005890604757" lon="16.23646140957103"><ele>174.0</ele><time>2026-03-22T12:45:32.998Z</time></trkpt><trkpt lat="39.369670835379615" lon="16.23646183329786"><ele>174.5</ele><time>2026-03-22T12:45:33.998Z</time></trkpt><trkpt lat="39.36928197617441" lon="16.236461133083786"><ele>175.0</ele><time>2026-03-22T12:45:35Z</time></trkpt><trkpt lat="39.368893668376145" lon="16.236456332032123"><ele>177.5</ele><time>2026-03-22T12:45:36Z</time></trkpt><trkpt lat="39.36850609541173" lon="16.23644059827907"><ele>180.0</ele><time>2026-03-22T12:45:37Z</time></trkpt><trkpt lat="39.36811994351225" lon="16.23640784746775"><ele>182.0</ele><time>2026-03-22T12:45:38Z</time></trkpt><trkpt lat="39.3677384231116" lon="16.236355673236538"><ele>184.0</ele><time>2026-03-22T12:45:39Z</time></trkpt><trkpt lat="39.36735973839151" lon="16.23628064065565"><ele>182.5</ele><time>2026-03-22T12:45:40Z</time></trkpt><trkpt lat="39.36698584624421" lon="16.23618113265098"><ele>181.0</ele><time>2026-03-22T12:45:41Z</time></trkpt><trkpt lat="39.36661553987391" lon="16.236062595402203"><ele>181.0</ele><time>2026-03-22T12:45:42Z</time></trkpt><trkpt lat="39.366244386681366" lon="16.23593259197782"><ele>181.0</ele><time>2026-03-22T12:45:43Z</time></trkpt><trkpt lat="39.365873382654996" lon="16.235792604743306"><ele>183.5</ele><time>2026-03-22T12:45:44Z</time></trkpt><trkpt lat="39.36555256547115" lon="16.23541960585132"><ele>186.0</ele><time>2026-03-22T12:45:45Z</time></trkpt><trkpt lat="39.36516978431965" lon="16.235305386533447"><ele>186.0</ele><time>2026-03-22T12:45:46Z</time></trkpt><trkpt lat="39.36481282398136" lon="16.23516308152836"><ele>186.0</ele><time>2026-03-22T12:45:47Z</time></trkpt><trkpt lat="39.36454685476081" lon="16.234941827231715"><ele>184.5</ele><time>2026-03-22T12:45:48Z</time></trkpt><trkpt lat="39.36435112844669" lon="16.234697312055378"><ele>183.0</ele><time>2026-03-22T12:45:49Z</time></trkpt><trkpt lat="39.364191630755826" lon="16.23444753942446"><ele>181.0</ele><time>2026-03-22T12:45:50Z</time></trkpt><trkpt lat="39.36326873147705" lon="16.234764144534164"><ele>182.5</ele><time>2026-03-22T12:45:51Z</time></trkpt><trkpt lat="39.362900699301754" lon="16.234616088718766"><ele>184.0</ele><time>2026-03-22T12:45:52Z</time></trkpt><trkpt lat="39.36253338583414" lon="16.234469566539616"><ele>183.5</ele><time>2026-03-22T12:45:53Z</time></trkpt><trkpt lat="39.362166622814755" lon="16.234326275772567"><ele>183.0</ele><time>2026-03-22T12:45:54Z</time></trkpt><trkpt lat="39.36179958911904" lon="16.234185988814374"><ele>183.0</ele><time>2026-03-22T12:45:55Z</time></trkpt><trkpt lat="39.3614308563941" lon="16.234057575428913"><ele>183.0</ele><time>2026-03-22T12:45:56Z</time></trkpt><trkpt lat="39.3610601354405" lon="16.23394142937195"><ele>185.0</ele><time>2026-03-22T12:45:57Z</time></trkpt><trkpt lat="39.36068768711554" lon="16.233833904088545"><ele>187.0</ele><time>2026-03-22T12:45:58Z</time></trkpt><trkpt lat="39.36031141659275" lon="16.233740282861344"><ele>187.0</ele><time>2026-03-22T12:45:59Z</time></trkpt><trkpt lat="39.35993386309818" lon="16.23366764038689"><ele>187.0</ele><time>2026-03-22T12:46:00Z</time></trkpt><trkpt lat="39.3595527089909" lon="16.233617841022795"><ele>187.0</ele><time>2026-03-22T12:46:01Z</time></trkpt><trkpt lat="39.359170717667936" lon="16.233585146521737"><ele>187.0</ele><time>2026-03-22T12:46:02Z</time></trkpt><trkpt lat="39.35878456338392" lon="16.233563440976592"><ele>190.5</ele><time>2026-03-22T12:46:03Z</time></trkpt><trkpt lat="39.35839719479259" lon="16.23354833777888"><ele>194.0</ele><time>2026-03-22T12:46:04Z</time></trkpt><trkpt lat="39.358008186478806" lon="16.233541907501078"><ele>195.5</ele><time>2026-03-22T12:46:05Z</time></trkpt><trkpt lat="39.357618813102796" lon="16.233539503306186"><ele>197.0</ele><time>2026-03-22T12:46:06Z</time></trkpt><trkpt lat="39.35723021437297" lon="16.23354094676979"><ele>199.5</ele><time>2026-03-22T12:46:07Z</time></trkpt><trkpt lat="39.35684168948901" lon="16.23354402751687"><ele>202.0</ele><time>2026-03-22T12:46:08Z</time></trkpt><trkpt lat="39.356452028412484" lon="16.2335468976665"><ele>201.5</ele><time>2026-03-22T12:46:08.999Z</time></trkpt><trkpt lat="39.35606176922524" lon="16.233550547427306"><ele>201.0</ele><time>2026-03-22T12:46:09.999Z</time></trkpt><trkpt lat="39.35567208778192" lon="16.233555653799794"><ele>198.5</ele><time>2026-03-22T12:46:10.999Z</time></trkpt><trkpt lat="39.355283888383724" lon="16.233563935107647"><ele>196.0</ele><time>2026-03-22T12:46:11.999Z</time></trkpt><trkpt lat="39.354895051613234" lon="16.233574302814812"><ele>196.0</ele><time>2026-03-22T12:46:12.999Z</time></trkpt><trkpt lat="39.35450598160634" lon="16.233587871450364"><ele>196.0</ele><time>2026-03-22T12:46:13.999Z</time></trkpt><trkpt lat="39.35411617619704" lon="16.23360770553729"><ele>196.0</ele><time>2026-03-22T12:46:14.999Z</time></trkpt><trkpt lat="39.35372776557857" lon="16.233636824203945"><ele>196.0</ele><time>2026-03-22T12:46:15.999Z</time></trkpt><trkpt lat="39.35334118148455" lon="16.233677431875282"><ele>196.0</ele><time>2026-03-22T12:46:16.999Z</time></trkpt><trkpt lat="39.3529549390333" lon="16.233726963757647"><ele>196.0</ele><time>2026-03-22T12:46:17.999Z</time></trkpt><trkpt lat="39.35256885987126" lon="16.233781689329625"><ele>196.0</ele><time>2026-03-22T12:46:18.999Z</time></trkpt><trkpt lat="39.35218363867667" lon="16.23384576282517"><ele>196.0</ele><time>2026-03-22T12:46:19.999Z</time></trkpt><trkpt lat="39.351799255999566" lon="16.233920411751917"><ele>196.0</ele><time>2026-03-22T12:46:20.999Z</time></trkpt><trkpt lat="39.351415893354144" lon="16.23400306260209"><ele>196.0</ele><time>2026-03-22T12:46:21.999Z</time></trkpt><trkpt lat="39.35103282837144" lon="16.23409278512747"><ele>196.0</ele><time>2026-03-22T12:46:22.999Z</time></trkpt><trkpt lat="39.350651534352416" lon="16.23418614694569"><ele>196.0</ele><time>2026-03-22T12:46:23.999Z</time></trkpt><trkpt lat="39.35026948220615" lon="16.234282647576737"><ele>196.0</ele><time>2026-03-22T12:46:24.999Z</time></trkpt><trkpt lat="39.349887131692746" lon="16.23438188760205"><ele>196.0</ele><time>2026-03-22T12:46:25.999Z</time></trkpt><trkpt lat="39.34950608352985" lon="16.23448214061192"><ele>196.5</ele><time>2026-03-22T12:46:26.999Z</time></trkpt><trkpt lat="39.34912410561672" lon="16.234583912666235"><ele>197.0</ele><time>2026-03-22T12:46:27.999Z</time></trkpt><trkpt lat="39.348744344497476" lon="16.234682711017033"><ele>197.0</ele><time>2026-03-22T12:46:28.999Z</time></trkpt><trkpt lat="39.348362999551384" lon="16.23478116868968"><ele>197.0</ele><time>2026-03-22T12:46:29.999Z</time></trkpt><trkpt lat="39.34798100658816" lon="16.234876553501245"><ele>196.0</ele><time>2026-03-22T12:46:30.999Z</time></trkpt><trkpt lat="39.34759894329769" lon="16.23496472375866"><ele>195.0</ele><time>2026-03-22T12:46:31.999Z</time></trkpt><trkpt lat="39.34721659741061" lon="16.23503538478447"><ele>194.0</ele><time>2026-03-22T12:46:32.999Z</time></trkpt><trkpt lat="39.34683619001161" lon="16.235098062738324"><ele>193.0</ele><time>2026-03-22T12:46:33.999Z</time></trkpt><trkpt lat="39.34645323119343" lon="16.235142130146215"><ele>195.0</ele><time>2026-03-22T12:46:34.999Z</time></trkpt><trkpt lat="39.346073266161476" lon="16.23516210164246"><ele>197.0</ele><time>2026-03-22T12:46:35.999Z</time></trkpt><trkpt lat="39.3456996527317" lon="16.235157107191732"><ele>199.0</ele><time>2026-03-22T12:46:36.999Z</time></trkpt><trkpt lat="39.34533730534504" lon="16.23513471800553"><ele>201.0</ele><time>2026-03-22T12:46:37.999Z</time></trkpt><trkpt lat="39.34497675308647" lon="16.23509640286691"><ele>201.0</ele><time>2026-03-22T12:46:38.999Z</time></trkpt><trkpt lat="39.344609978506526" lon="16.235040670353232"><ele>201.0</ele><time>2026-03-22T12:46:39.999Z</time></trkpt><trkpt lat="39.34423728236212" lon="16.234973591938857"><ele>201.5</ele><time>2026-03-22T12:46:40.999Z</time></trkpt><trkpt lat="39.343861122105245" lon="16.234900014187403"><ele>202.0</ele><time>2026-03-22T12:46:41.999Z</time></trkpt><trkpt lat="39.34348210171872" lon="16.23482585326779"><ele>202.0</ele><time>2026-03-22T12:46:42.999Z</time></trkpt><trkpt lat="39.343099874590784" lon="16.23475366665264"><ele>202.0</ele><time>2026-03-22T12:46:43.999Z</time></trkpt><trkpt lat="39.34271667331102" lon="16.234687415096246"><ele>202.0</ele><time>2026-03-22T12:46:44.999Z</time></trkpt><trkpt lat="39.34233259843809" lon="16.23463186578556"><ele>202.0</ele><time>2026-03-22T12:46:45.999Z</time></trkpt><trkpt lat="39.34194680976313" lon="16.234590918954943"><ele>201.5</ele><time>2026-03-22T12:46:46.999Z</time></trkpt><trkpt lat="39.34155901152339" lon="16.234571691822513"><ele>201.0</ele><time>2026-03-22T12:46:47.999Z</time></trkpt><trkpt lat="39.34117167413599" lon="16.234573193186733"><ele>199.5</ele><time>2026-03-22T12:46:48.999Z</time></trkpt><trkpt lat="39.34078654785102" lon="16.234600825962183"><ele>198.0</ele><time>2026-03-22T12:46:49.999Z</time></trkpt><trkpt lat="39.340402997652504" lon="16.234650687340793"><ele>197.5</ele><time>2026-03-22T12:46:50.999Z</time></trkpt><trkpt lat="39.34002124155598" lon="16.234723199158875"><ele>197.0</ele><time>2026-03-22T12:46:51.999Z</time></trkpt><trkpt lat="39.33964361889412" lon="16.234815126658738"><ele>195.0</ele><time>2026-03-22T12:46:52.999Z</time></trkpt><trkpt lat="39.33926750822347" lon="16.23492487859058"><ele>193.0</ele><time>2026-03-22T12:46:53.999Z</time></trkpt><trkpt lat="39.33889530312676" lon="16.235056378459046"><ele>192.5</ele><time>2026-03-22T12:46:54.999Z</time></trkpt><trkpt lat="39.338527409345595" lon="16.235204334042976"><ele>192.0</ele><time>2026-03-22T12:46:55.999Z</time></trkpt><trkpt lat="39.3381594032338" lon="16.235362113351993"><ele>191.5</ele><time>2026-03-22T12:46:56.999Z</time></trkpt><trkpt lat="39.337790911558635" lon="16.235522447995933"><ele>191.0</ele><time>2026-03-22T12:46:57.999Z</time></trkpt><trkpt lat="39.3374209482912" lon="16.235680089860757"><ele>192.5</ele><time>2026-03-22T12:46:58.999Z</time></trkpt><trkpt lat="39.33704975027226" lon="16.235835346734806"><ele>194.0</ele><time>2026-03-22T12:46:59.999Z</time></trkpt><trkpt lat="39.336679841145155" lon="16.23598969064683"><ele>195.5</ele><time>2026-03-22T12:47:00.999Z</time></trkpt><trkpt lat="39.33630967003209" lon="16.23614471880089"><ele>197.0</ele><time>2026-03-22T12:47:01.999Z</time></trkpt><trkpt lat="39.33594102499271" lon="16.23629834507193"><ele>197.0</ele><time>2026-03-22T12:47:02.999Z</time></trkpt><trkpt lat="39.33557257725765" lon="16.236451109386206"><ele>197.0</ele><time>2026-03-22T12:47:03.999Z</time></trkpt><trkpt lat="39.33520611403685" lon="16.236604054557684"><ele>198.0</ele><time>2026-03-22T12:47:04.999Z</time></trkpt><trkpt lat="39.33483848974603" lon="16.23675703549285"><ele>199.0</ele><time>2026-03-22T12:47:05.999Z</time></trkpt><trkpt lat="39.33447044156743" lon="16.236909110746264"><ele>200.0</ele><time>2026-03-22T12:47:06.999Z</time></trkpt><trkpt lat="39.33410306393184" lon="16.23706159252969"><ele>201.0</ele><time>2026-03-22T12:47:07.999Z</time></trkpt><trkpt lat="39.33373593101855" lon="16.237215666226813"><ele>203.0</ele><time>2026-03-22T12:47:08.999Z</time></trkpt><trkpt lat="39.33336815980161" lon="16.237370008046838"><ele>205.0</ele><time>2026-03-22T12:47:09.999Z</time></trkpt><trkpt lat="39.33300051333136" lon="16.237523828710078"><ele>206.0</ele><time>2026-03-22T12:47:10.999Z</time></trkpt><trkpt lat="39.33263240155575" lon="16.23767593609204"><ele>207.0</ele><time>2026-03-22T12:47:11.999Z</time></trkpt><trkpt lat="39.332260504636125" lon="16.23782940289673"><ele>208.5</ele><time>2026-03-22T12:47:12.999Z</time></trkpt><trkpt lat="39.33188930808242" lon="16.237981788478113"><ele>210.0</ele><time>2026-03-22T12:47:13.999Z</time></trkpt><trkpt lat="39.33151816805995" lon="16.23813428734662"><ele>211.5</ele><time>2026-03-22T12:47:14.999Z</time></trkpt><trkpt lat="39.33114716700493" lon="16.238290112272246"><ele>213.0</ele><time>2026-03-22T12:47:15.999Z</time></trkpt><trkpt lat="39.3307755314649" lon="16.2384459295944"><ele>214.0</ele><time>2026-03-22T12:47:16.999Z</time></trkpt><trkpt lat="39.330403723516255" lon="16.238600774438268"><ele>215.0</ele><time>2026-03-22T12:47:17.999Z</time></trkpt><trkpt lat="39.330032187112785" lon="16.23875488344195"><ele>215.5</ele><time>2026-03-22T12:47:18.999Z</time></trkpt><trkpt lat="39.32966011654206" lon="16.238908063305274"><ele>216.0</ele><time>2026-03-22T12:47:19.999Z</time></trkpt><trkpt lat="39.329288562248664" lon="16.239060372857516"><ele>216.0</ele><time>2026-03-22T12:47:20.999Z</time></trkpt><trkpt lat="39.328918098605996" lon="16.239206715010855"><ele>216.0</ele><time>2026-03-22T12:47:21.999Z</time></trkpt><trkpt lat="39.32854947282395" lon="16.23933998810381"><ele>216.5</ele><time>2026-03-22T12:47:22.998Z</time></trkpt><trkpt lat="39.32817387731961" lon="16.239455096764623"><ele>217.0</ele><time>2026-03-22T12:47:23.998Z</time></trkpt><trkpt lat="39.32779530696969" lon="16.239546946861623"><ele>218.0</ele><time>2026-03-22T12:47:24.998Z</time></trkpt><trkpt lat="39.32741658924298" lon="16.23961823973918"><ele>219.0</ele><time>2026-03-22T12:47:25.998Z</time></trkpt><trkpt lat="39.32703570201017" lon="16.239664953770973"><ele>220.5</ele><time>2026-03-22T12:47:26.998Z</time></trkpt><trkpt lat="39.326653190496344" lon="16.239690420109838"><ele>222.0</ele><time>2026-03-22T12:47:27.998Z</time></trkpt><trkpt lat="39.32626907275143" lon="16.23970061190313"><ele>222.5</ele><time>2026-03-22T12:47:28.998Z</time></trkpt><trkpt lat="39.32588236577596" lon="16.239702291531714"><ele>223.0</ele><time>2026-03-22T12:47:29.998Z</time></trkpt><trkpt lat="39.32549469353738" lon="16.239702150474084"><ele>223.0</ele><time>2026-03-22T12:47:30.998Z</time></trkpt><trkpt lat="39.325110713588515" lon="16.23970194160718"><ele>223.0</ele><time>2026-03-22T12:47:31.998Z</time></trkpt><trkpt lat="39.324730041206216" lon="16.239704180082416"><ele>223.5</ele><time>2026-03-22T12:47:32.998Z</time></trkpt><trkpt lat="39.324344109493026" lon="16.239709548821143"><ele>224.0</ele><time>2026-03-22T12:47:33.998Z</time></trkpt><trkpt lat="39.32395633756291" lon="16.239717954637428"><ele>222.5</ele><time>2026-03-22T12:47:34.998Z</time></trkpt><trkpt lat="39.32356869245808" lon="16.239733380754384"><ele>221.0</ele><time>2026-03-22T12:47:35.998Z</time></trkpt><trkpt lat="39.32318045021671" lon="16.23976280612466"><ele>219.0</ele><time>2026-03-22T12:47:36.998Z</time></trkpt><trkpt lat="39.32279508834623" lon="16.23980994485532"><ele>217.0</ele><time>2026-03-22T12:47:37.998Z</time></trkpt><trkpt lat="39.3224114075802" lon="16.23987156625123"><ele>216.0</ele><time>2026-03-22T12:47:38.998Z</time></trkpt><trkpt lat="39.32202847286024" lon="16.239951416690893"><ele>215.0</ele><time>2026-03-22T12:47:40Z</time></trkpt><trkpt lat="39.321648762923374" lon="16.24004874165258"><ele>214.0</ele><time>2026-03-22T12:47:41Z</time></trkpt><trkpt lat="39.32127458301205" lon="16.240167027877096"><ele>213.0</ele><time>2026-03-22T12:47:42Z</time></trkpt><trkpt lat="39.32090302851882" lon="16.240301403547374"><ele>212.0</ele><time>2026-03-22T12:47:43Z</time></trkpt><trkpt lat="39.32053263005981" lon="16.24044567672953"><ele>211.0</ele><time>2026-03-22T12:47:44Z</time></trkpt><trkpt lat="39.32016215660479" lon="16.24059158186859"><ele>211.0</ele><time>2026-03-22T12:47:45Z</time></trkpt><trkpt lat="39.31978965668945" lon="16.240735378624628"><ele>211.0</ele><time>2026-03-22T12:47:46Z</time></trkpt><trkpt lat="39.31941652125095" lon="16.240876528706778"><ele>211.5</ele><time>2026-03-22T12:47:47Z</time></trkpt><trkpt lat="39.31904199713814" lon="16.24101032023237"><ele>212.0</ele><time>2026-03-22T12:47:48Z</time></trkpt><trkpt lat="39.318666297505125" lon="16.241131729801538"><ele>211.0</ele><time>2026-03-22T12:47:49Z</time></trkpt><trkpt lat="39.31828802023824" lon="16.241237018307"><ele>210.0</ele><time>2026-03-22T12:47:50Z</time></trkpt><trkpt lat="39.3179087606795" lon="16.24132116180542"><ele>210.0</ele><time>2026-03-22T12:47:51Z</time></trkpt><trkpt lat="39.3175275761954" lon="16.241378745182136"><ele>210.0</ele><time>2026-03-22T12:47:52Z</time></trkpt><trkpt lat="39.31714583053699" lon="16.24140546082786"><ele>211.0</ele><time>2026-03-22T12:47:53Z</time></trkpt><trkpt lat="39.31676536197667" lon="16.2414031140578"><ele>212.0</ele><time>2026-03-22T12:47:54Z</time></trkpt><trkpt lat="39.31638420456263" lon="16.24137288775273"><ele>212.5</ele><time>2026-03-22T12:47:55Z</time></trkpt><trkpt lat="39.31600578056105" lon="16.241314829208683"><ele>213.0</ele><time>2026-03-22T12:47:56Z</time></trkpt><trkpt lat="39.31563208408603" lon="16.241226033077183"><ele>215.5</ele><time>2026-03-22T12:47:57Z</time></trkpt><trkpt lat="39.31525915175429" lon="16.24111399457371"><ele>218.0</ele><time>2026-03-22T12:47:58Z</time></trkpt><trkpt lat="39.31489355460169" lon="16.240972230605426"><ele>220.0</ele><time>2026-03-22T12:47:59Z</time></trkpt><trkpt lat="39.31453423960764" lon="16.240805349564518"><ele>222.0</ele><time>2026-03-22T12:48:00Z</time></trkpt><trkpt lat="39.31418257169894" lon="16.24061463535314"><ele>227.5</ele><time>2026-03-22T12:48:01Z</time></trkpt><trkpt lat="39.31383677651646" lon="16.240401966670483"><ele>233.0</ele><time>2026-03-22T12:48:02Z</time></trkpt><trkpt lat="39.313495169800774" lon="16.240174027211843"><ele>233.0</ele><time>2026-03-22T12:48:03Z</time></trkpt><trkpt lat="39.313160924598286" lon="16.23994222285262"><ele>233.0</ele><time>2026-03-22T12:48:04Z</time></trkpt><trkpt lat="39.31282646616718" lon="16.239716645702096"><ele>232.5</ele><time>2026-03-22T12:48:05Z</time></trkpt><trkpt lat="39.31248447733863" lon="16.239493850966785"><ele>232.0</ele><time>2026-03-22T12:48:06Z</time></trkpt><trkpt lat="39.31213886790705" lon="16.239275109947602"><ele>233.5</ele><time>2026-03-22T12:48:07Z</time></trkpt><trkpt lat="39.31178740751569" lon="16.23906787418228"><ele>235.0</ele><time>2026-03-22T12:48:08Z</time></trkpt><trkpt lat="39.311429176298766" lon="16.238881230435457"><ele>240.5</ele><time>2026-03-22T12:48:09Z</time></trkpt><trkpt lat="39.311066481779854" lon="16.23872049520031"><ele>246.0</ele><time>2026-03-22T12:48:10Z</time></trkpt><trkpt lat="39.310700158670684" lon="16.238580128231128"><ele>251.0</ele><time>2026-03-22T12:48:11Z</time></trkpt><trkpt lat="39.310328723294425" lon="16.238454504355122"><ele>256.0</ele><time>2026-03-22T12:48:12Z</time></trkpt><trkpt lat="39.30995574959311" lon="16.238334845052535"><ele>258.0</ele><time>2026-03-22T12:48:13Z</time></trkpt><trkpt lat="39.30958113851742" lon="16.238212335665903"><ele>260.0</ele><time>2026-03-22T12:48:13.999Z</time></trkpt><trkpt lat="39.309205507584586" lon="16.238091193827458"><ele>267.0</ele><time>2026-03-22T12:48:14.999Z</time></trkpt><trkpt lat="39.30882783784905" lon="16.237970960551053"><ele>274.0</ele><time>2026-03-22T12:48:15.999Z</time></trkpt><trkpt lat="39.308451323655234" lon="16.237846014722034"><ele>281.0</ele><time>2026-03-22T12:48:16.999Z</time></trkpt><trkpt lat="39.30807514435744" lon="16.23771715599317"><ele>288.0</ele><time>2026-03-22T12:48:17.999Z</time></trkpt><trkpt lat="39.30769832510162" lon="16.237582711336348"><ele>288.0</ele><time>2026-03-22T12:48:18.999Z</time></trkpt><trkpt lat="39.30732098981939" lon="16.237444429364324"><ele>288.0</ele><time>2026-03-22T12:48:19.999Z</time></trkpt><trkpt lat="39.30694328079303" lon="16.23730708844366"><ele>295.0</ele><time>2026-03-22T12:48:20.999Z</time></trkpt><trkpt lat="39.30656397357864" lon="16.237174354809575"><ele>302.0</ele><time>2026-03-22T12:48:21.999Z</time></trkpt><trkpt lat="39.306183285311" lon="16.237046647018094"><ele>301.5</ele><time>2026-03-22T12:48:22.999Z</time></trkpt><trkpt lat="39.305802083153665" lon="16.236922591352304"><ele>301.0</ele><time>2026-03-22T12:48:23.999Z</time></trkpt><trkpt lat="39.30542060141845" lon="16.236799995237345"><ele>301.0</ele><time>2026-03-22T12:48:24.999Z</time></trkpt><trkpt lat="39.30503906020441" lon="16.23667764850247"><ele>301.0</ele><time>2026-03-22T12:48:25.999Z</time></trkpt><trkpt lat="39.30465665719826" lon="16.236552582306476"><ele>300.5</ele><time>2026-03-22T12:48:26.999Z</time></trkpt><trkpt lat="39.30427092939298" lon="16.236425338560966"><ele>300.0</ele><time>2026-03-22T12:48:27.999Z</time></trkpt><trkpt lat="39.303852317131714" lon="16.236291131158715"><ele>295.5</ele><time>2026-03-22T12:48:28.999Z</time></trkpt><trkpt lat="39.30346961616984" lon="16.236155782134997"><ele>291.0</ele><time>2026-03-22T12:48:29.999Z</time></trkpt><trkpt lat="39.30308763120627" lon="16.23603179827169"><ele>283.5</ele><time>2026-03-22T12:48:30.999Z</time></trkpt><trkpt lat="39.30269644049279" lon="16.23591035560967"><ele>276.0</ele><time>2026-03-22T12:48:31.999Z</time></trkpt><trkpt lat="39.30232699253167" lon="16.235884345388037"><ele>273.0</ele><time>2026-03-22T12:48:32.999Z</time></trkpt><trkpt lat="39.301979193603856" lon="16.23582100019405"><ele>270.0</ele><time>2026-03-22T12:48:33.999Z</time></trkpt><trkpt lat="39.30163342155968" lon="16.235794348473224"><ele>269.0</ele><time>2026-03-22T12:48:34.999Z</time></trkpt><trkpt lat="39.30131628218915" lon="16.23578217625913"><ele>268.0</ele><time>2026-03-22T12:48:35.999Z</time></trkpt><trkpt lat="39.301044205533984" lon="16.23579136911018"><ele>268.0</ele><time>2026-03-22T12:48:36.999Z</time></trkpt><trkpt lat="39.300751776145574" lon="16.23581450736802"><ele>268.0</ele><time>2026-03-22T12:48:37.999Z</time></trkpt><trkpt lat="39.300475133182154" lon="16.235851558160643"><ele>269.0</ele><time>2026-03-22T12:48:38.999Z</time></trkpt><trkpt lat="39.30021802557892" lon="16.23589623855901"><ele>270.0</ele><time>2026-03-22T12:48:39.999Z</time></trkpt><trkpt lat="39.29998038966418" lon="16.235937450847768"><ele>270.0</ele><time>2026-03-22T12:48:40.999Z</time></trkpt><trkpt lat="39.29975617470986" lon="16.235972738658667"><ele>270.0</ele><time>2026-03-22T12:48:41.999Z</time></trkpt><trkpt lat="39.29955539970859" lon="16.235985396540134"><ele>270.0</ele><time>2026-03-22T12:48:42.999Z</time></trkpt><trkpt lat="39.29937315908924" lon="16.23595982042653"><ele>271.6666666666667</ele><time>2026-03-22T12:48:43.999Z</time></trkpt><trkpt lat="39.299222056478385" lon="16.235866173043256"><ele>273.33333333333337</ele><time>2026-03-22T12:48:44.999Z</time></trkpt><trkpt lat="39.29909151409182" lon="16.23577014156313"><ele>275.0</ele><time>2026-03-22T12:48:45.999Z</time></trkpt><trkpt lat="39.29900023961952" lon="16.235622779304986"><ele>275.0</ele><time>2026-03-22T12:48:46.999Z</time></trkpt><trkpt lat="39.29893209617493" lon="16.235455389698625"><ele>275.0</ele><time>2026-03-22T12:48:47.999Z</time></trkpt><trkpt lat="39.298879045061994" lon="16.235279558125153"><ele>275.0</ele><time>2026-03-22T12:48:48.999Z</time></trkpt><trkpt lat="39.29887642153654" lon="16.235081880286824"><ele>275.0</ele><time>2026-03-22T12:48:49.999Z</time></trkpt><trkpt lat="39.298913946459614" lon="16.234882979694287"><ele>276.6666666666667</ele><time>2026-03-22T12:48:50.999Z</time></trkpt><trkpt lat="39.298999962323165" lon="16.234698510996257"><ele>278.3333333333333</ele><time>2026-03-22T12:48:51.999Z</time></trkpt><trkpt lat="39.29911942252308" lon="16.234553819268385"><ele>280.0</ele><time>2026-03-22T12:48:52.999Z</time></trkpt><trkpt lat="39.299270520195414" lon="16.234460822817077"><ele>280.0</ele><time>2026-03-22T12:48:53.999Z</time></trkpt><trkpt lat="39.299431151598185" lon="16.234426764396833"><ele>280.0</ele><time>2026-03-22T12:48:54.999Z</time></trkpt><trkpt lat="39.299595624038325" lon="16.234450815410376"><ele>280.0</ele><time>2026-03-22T12:48:55.999Z</time></trkpt><trkpt lat="39.29975459261909" lon="16.234543631204613"><ele>277.3333333333333</ele><time>2026-03-22T12:48:56.999Z</time></trkpt><trkpt lat="39.29988234587523" lon="16.234704630638888"><ele>274.6666666666667</ele><time>2026-03-22T12:48:57.999Z</time></trkpt><trkpt lat="39.29999498331416" lon="16.234883980084554"><ele>272.0</ele><time>2026-03-22T12:48:58.999Z</time></trkpt><trkpt lat="39.300086369754624" lon="16.235108060266544"><ele>272.0</ele><time>2026-03-22T12:48:59.999Z</time></trkpt><trkpt lat="39.300177338462355" lon="16.2353580906152"><ele>272.0</ele><time>2026-03-22T12:49:00.999Z</time></trkpt><trkpt lat="39.30028918218952" lon="16.235613876445772"><ele>272.0</ele><time>2026-03-22T12:49:01.999Z</time></trkpt><trkpt lat="39.300397321402805" lon="16.235880688914104"><ele>271.0</ele><time>2026-03-22T12:49:02.999Z</time></trkpt><trkpt lat="39.30052193662241" lon="16.236177060436308"><ele>270.0</ele><time>2026-03-22T12:49:03.999Z</time></trkpt><trkpt lat="39.30066870983967" lon="16.23648275445343"><ele>269.0</ele><time>2026-03-22T12:49:04.999Z</time></trkpt><trkpt lat="39.300833108113544" lon="16.23675787490169"><ele>268.0</ele><time>2026-03-22T12:49:05.999Z</time></trkpt><trkpt lat="39.30102020356298" lon="16.237004325467105"><ele>268.0</ele><time>2026-03-22T12:49:06.999Z</time></trkpt><trkpt lat="39.30125431191986" lon="16.23720711016629"><ele>268.0</ele><time>2026-03-22T12:49:07.999Z</time></trkpt><trkpt lat="39.30148361405457" lon="16.237436805872772"><ele>268.0</ele><time>2026-03-22T12:49:08.999Z</time></trkpt><trkpt lat="39.30173615723008" lon="16.237640559936356"><ele>268.0</ele><time>2026-03-22T12:49:09.999Z</time></trkpt><trkpt lat="39.30198674118264" lon="16.237854506939456"><ele>268.0</ele><time>2026-03-22T12:49:10.999Z</time></trkpt><trkpt lat="39.30222321074558" lon="16.238097636313956"><ele>268.0</ele><time>2026-03-22T12:49:11.999Z</time></trkpt><trkpt lat="39.302438485920916" lon="16.238369095513985"><ele>266.5</ele><time>2026-03-22T12:49:12.999Z</time></trkpt><trkpt lat="39.302636077592126" lon="16.23865747960924"><ele>265.0</ele><time>2026-03-22T12:49:13.999Z</time></trkpt><trkpt lat="39.302825511731456" lon="16.2389344141927"><ele>266.0</ele><time>2026-03-22T12:49:14.999Z</time></trkpt><trkpt lat="39.303005743305775" lon="16.239205782002415"><ele>267.0</ele><time>2026-03-22T12:49:15.999Z</time></trkpt><trkpt lat="39.30317975412915" lon="16.239472743476295"><ele>265.0</ele><time>2026-03-22T12:49:16.999Z</time></trkpt><trkpt lat="39.30336978109101" lon="16.239720689256867"><ele>263.0</ele><time>2026-03-22T12:49:17.999Z</time></trkpt><trkpt lat="39.30355067158898" lon="16.239979493085396"><ele>263.0</ele><time>2026-03-22T12:49:18.999Z</time></trkpt><trkpt lat="39.30372881845228" lon="16.240236165072652"><ele>263.0</ele><time>2026-03-22T12:49:19.999Z</time></trkpt><trkpt lat="39.303900168300174" lon="16.240485762604823"><ele>260.5</ele><time>2026-03-22T12:49:20.999Z</time></trkpt><trkpt lat="39.30407023528607" lon="16.240729935095782"><ele>258.0</ele><time>2026-03-22T12:49:21.999Z</time></trkpt><trkpt lat="39.30423657176973" lon="16.240981024860243"><ele>258.0</ele><time>2026-03-22T12:49:22.999Z</time></trkpt><trkpt lat="39.30437263053052" lon="16.241260489331395"><ele>258.0</ele><time>2026-03-22T12:49:23.999Z</time></trkpt><trkpt lat="39.30450303544601" lon="16.241542143186084"><ele>259.5</ele><time>2026-03-22T12:49:24.999Z</time></trkpt><trkpt lat="39.30460400967203" lon="16.241832418629862"><ele>261.0</ele><time>2026-03-22T12:49:25.999Z</time></trkpt><trkpt lat="39.30468244903778" lon="16.242117368058903"><ele>258.6666666666667</ele><time>2026-03-22T12:49:26.999Z</time></trkpt><trkpt lat="39.30475587074705" lon="16.242392175580065"><ele>256.33333333333337</ele><time>2026-03-22T12:49:27.998Z</time></trkpt><trkpt lat="39.30482780551993" lon="16.242653993237898"><ele>254.0</ele><time>2026-03-22T12:49:28.998Z</time></trkpt><trkpt lat="39.30490083285336" lon="16.242897190509385"><ele>254.0</ele><time>2026-03-22T12:49:29.998Z</time></trkpt><trkpt lat="39.30497303123773" lon="16.243129806395675"><ele>254.0</ele><time>2026-03-22T12:49:30.998Z</time></trkpt><trkpt lat="39.30504169706124" lon="16.24335072533746"><ele>254.0</ele><time>2026-03-22T12:49:31.998Z</time></trkpt><trkpt lat="39.305108444143734" lon="16.24355911865304"><ele>253.66666666666669</ele><time>2026-03-22T12:49:32.998Z</time></trkpt><trkpt lat="39.30517091952906" lon="16.243754236284893"><ele>253.33333333333331</ele><time>2026-03-22T12:49:33.998Z</time></trkpt><trkpt lat="39.305224305786545" lon="16.24394454384068"><ele>253.0</ele><time>2026-03-22T12:49:34.998Z</time></trkpt><trkpt lat="39.30523364343138" lon="16.244132741885327"><ele>254.0</ele><time>2026-03-22T12:49:35.998Z</time></trkpt><trkpt lat="39.305228759790246" lon="16.244305141402492"><ele>255.0</ele><time>2026-03-22T12:49:36.998Z</time></trkpt><trkpt lat="39.305232360025336" lon="16.244464904957926"><ele>256.0</ele><time>2026-03-22T12:49:37.998Z</time></trkpt><trkpt lat="39.30522312832355" lon="16.244607473590616"><ele>257.0</ele><time>2026-03-22T12:49:38.998Z</time></trkpt><trkpt lat="39.3052162132713" lon="16.244730902958427"><ele>256.8</ele><time>2026-03-22T12:49:39.998Z</time></trkpt><trkpt lat="39.30521090970147" lon="16.244830613508466"><ele>256.6</ele><time>2026-03-22T12:49:40.998Z</time></trkpt><trkpt lat="39.30520148441933" lon="16.244995672439046"><ele>256.40000000000003</ele><time>2026-03-22T12:49:42.998Z</time></trkpt><trkpt lat="39.30517950854735" lon="16.245180106595612"><ele>256.2</ele><time>2026-03-22T12:49:44.998Z</time></trkpt><trkpt lat="39.30517946023104" lon="16.245284244098304"><ele>256.0</ele><time>2026-03-22T12:49:46Z</time></trkpt><trkpt lat="39.305126979577004" lon="16.245410589850756"><ele>256.0</ele><time>2026-03-22T12:49:47Z</time></trkpt><trkpt lat="39.3050785824232" lon="16.24553217655959"><ele>256.0</ele><time>2026-03-22T12:49:48Z</time></trkpt><trkpt lat="39.30501121910266" lon="16.245654196726896"><ele>256.0</ele><time>2026-03-22T12:49:49Z</time></trkpt><trkpt lat="39.30493286237676" lon="16.24576591436222"><ele>256.0</ele><time>2026-03-22T12:49:50Z</time></trkpt><trkpt lat="39.30482829400501" lon="16.245853571285746"><ele>257.5</ele><time>2026-03-22T12:49:51Z</time></trkpt><trkpt lat="39.30472962478652" lon="16.2459563266933"><ele>259.0</ele><time>2026-03-22T12:49:52Z</time></trkpt><trkpt lat="39.30462896022549" lon="16.246057271344558"><ele>260.5</ele><time>2026-03-22T12:49:53Z</time></trkpt><trkpt lat="39.304532329169774" lon="16.246160578740618"><ele>262.0</ele><time>2026-03-22T12:49:54Z</time></trkpt><trkpt lat="39.304439424851694" lon="16.24627380643633"><ele>262.0</ele><time>2026-03-22T12:49:55Z</time></trkpt><trkpt lat="39.304344458274485" lon="16.246388582043057"><ele>262.0</ele><time>2026-03-22T12:49:56Z</time></trkpt><trkpt lat="39.30424268391461" lon="16.246495112766496"><ele>262.0</ele><time>2026-03-22T12:49:57Z</time></trkpt><trkpt lat="39.30414859766713" lon="16.246617332605833"><ele>262.0</ele><time>2026-03-22T12:49:58Z</time></trkpt><trkpt lat="39.30404306808919" lon="16.24672614637918"><ele>261.0</ele><time>2026-03-22T12:49:59Z</time></trkpt><trkpt lat="39.30393551211437" lon="16.246844625316704"><ele>260.0</ele><time>2026-03-22T12:50:00Z</time></trkpt><trkpt lat="39.30382118268352" lon="16.246964745948222"><ele>259.0</ele><time>2026-03-22T12:50:01Z</time></trkpt><trkpt lat="39.303703341490895" lon="16.24708291499928"><ele>258.0</ele><time>2026-03-22T12:50:02Z</time></trkpt><trkpt lat="39.30358913039625" lon="16.247200136695316"><ele>258.5</ele><time>2026-03-22T12:50:03Z</time></trkpt><trkpt lat="39.30347797263499" lon="16.247311502996663"><ele>259.0</ele><time>2026-03-22T12:50:04Z</time></trkpt><trkpt lat="39.30336970054162" lon="16.247419590112106"><ele>259.5</ele><time>2026-03-22T12:50:05Z</time></trkpt><trkpt lat="39.30326539068733" lon="16.247525186269314"><ele>260.0</ele><time>2026-03-22T12:50:06Z</time></trkpt><trkpt lat="39.303169625979955" lon="16.24762255763243"><ele>260.0</ele><time>2026-03-22T12:50:07Z</time></trkpt><trkpt lat="39.30308225693307" lon="16.24771238489884"><ele>260.0</ele><time>2026-03-22T12:50:08Z</time></trkpt><trkpt lat="39.30298739530262" lon="16.247777491101555"><ele>260.0</ele><time>2026-03-22T12:50:09Z</time></trkpt><trkpt lat="39.302906617023886" lon="16.247853673633834"><ele>260.0</ele><time>2026-03-22T12:50:10Z</time></trkpt><trkpt lat="39.3028083990151" lon="16.247892506396223"><ele>260.0</ele><time>2026-03-22T12:50:11Z</time></trkpt><trkpt lat="39.302697719004264" lon="16.247918864715444"><ele>262.25</ele><time>2026-03-22T12:50:12Z</time></trkpt><trkpt lat="39.302579548875045" lon="16.247926943387053"><ele>264.5</ele><time>2026-03-22T12:50:13Z</time></trkpt><trkpt lat="39.30246320473762" lon="16.247929209295723"><ele>266.75</ele><time>2026-03-22T12:50:14Z</time></trkpt><trkpt lat="39.30234158958074" lon="16.24792626662192"><ele>269.0</ele><time>2026-03-22T12:50:15Z</time></trkpt><trkpt lat="39.302232080684945" lon="16.247903701915877"><ele>269.59999999999997</ele><time>2026-03-22T12:50:16Z</time></trkpt><trkpt lat="39.302117008046054" lon="16.247884930886997"><ele>270.2</ele><time>2026-03-22T12:50:16.999Z</time></trkpt><trkpt lat="39.302013915721076" lon="16.247866392345806"><ele>270.79999999999995</ele><time>2026-03-22T12:50:17.999Z</time></trkpt><trkpt lat="39.301909177674176" lon="16.24785905272525"><ele>271.4</ele><time>2026-03-22T12:50:18.999Z</time></trkpt><trkpt lat="39.301813806498544" lon="16.24784347719839"><ele>272.0</ele><time>2026-03-22T12:50:19.999Z</time></trkpt><trkpt lat="39.30170916132052" lon="16.24783607383072"><ele>272.0</ele><time>2026-03-22T12:50:20.999Z</time></trkpt><trkpt lat="39.30159378122751" lon="16.24780395962347"><ele>272.0</ele><time>2026-03-22T12:50:21.999Z</time></trkpt><trkpt lat="39.30147993668985" lon="16.247768861739022"><ele>272.0</ele><time>2026-03-22T12:50:22.999Z</time></trkpt><trkpt lat="39.30136424624663" lon="16.247742489201435"><ele>272.0</ele><time>2026-03-22T12:50:23.999Z</time></trkpt><trkpt lat="39.30123661418034" lon="16.247721562741532"><ele>271.25</ele><time>2026-03-22T12:50:24.999Z</time></trkpt><trkpt lat="39.30111882432777" lon="16.247706617527776"><ele>270.5</ele><time>2026-03-22T12:50:25.999Z</time></trkpt><trkpt lat="39.3010099699764" lon="16.24769207728042"><ele>269.75</ele><time>2026-03-22T12:50:26.999Z</time></trkpt><trkpt lat="39.300897710563966" lon="16.247685912763977"><ele>269.0</ele><time>2026-03-22T12:50:27.999Z</time></trkpt><trkpt lat="39.30078830440762" lon="16.247666579135764"><ele>269.0</ele><time>2026-03-22T12:50:28.999Z</time></trkpt><trkpt lat="39.30066721288664" lon="16.247642581383737"><ele>269.0</ele><time>2026-03-22T12:50:29.999Z</time></trkpt><trkpt lat="39.30055630501826" lon="16.24762210242992"><ele>269.0</ele><time>2026-03-22T12:50:30.999Z</time></trkpt><trkpt lat="39.300460652926915" lon="16.24757970941872"><ele>269.0</ele><time>2026-03-22T12:50:31.999Z</time></trkpt><trkpt lat="39.30036391748634" lon="16.247562162440417"><ele>269.0</ele><time>2026-03-22T12:50:32.999Z</time></trkpt><trkpt lat="39.30026175125518" lon="16.24753696150266"><ele>268.5</ele><time>2026-03-22T12:50:33.999Z</time></trkpt><trkpt lat="39.300154415924766" lon="16.247512002090314"><ele>268.0</ele><time>2026-03-22T12:50:34.999Z</time></trkpt><trkpt lat="39.30004812167668" lon="16.24748959849581"><ele>267.5</ele><time>2026-03-22T12:50:35.999Z</time></trkpt><trkpt lat="39.29993300216953" lon="16.247481730983417"><ele>267.0</ele><time>2026-03-22T12:50:36.999Z</time></trkpt><trkpt lat="39.299813626008344" lon="16.247456833171537"><ele>266.5</ele><time>2026-03-22T12:50:37.999Z</time></trkpt><trkpt lat="39.299694819473736" lon="16.247438544008233"><ele>266.0</ele><time>2026-03-22T12:50:38.999Z</time></trkpt><trkpt lat="39.29958064928953" lon="16.247424590041806"><ele>265.5</ele><time>2026-03-22T12:50:39.999Z</time></trkpt><trkpt lat="39.29946623166022" lon="16.247415483845646"><ele>265.0</ele><time>2026-03-22T12:50:40.999Z</time></trkpt><trkpt lat="39.299345443250004" lon="16.24741294814936"><ele>265.0</ele><time>2026-03-22T12:50:41.999Z</time></trkpt><trkpt lat="39.2992138643644" lon="16.247403744424847"><ele>265.0</ele><time>2026-03-22T12:50:42.999Z</time></trkpt><trkpt lat="39.29907803685714" lon="16.247397666602282"><ele>265.0</ele><time>2026-03-22T12:50:43.999Z</time></trkpt><trkpt lat="39.29894530473952" lon="16.24739749472418"><ele>265.0</ele><time>2026-03-22T12:50:44.999Z</time></trkpt><trkpt lat="39.29881824619396" lon="16.247400412350963"><ele>264.5</ele><time>2026-03-22T12:50:45.999Z</time></trkpt><trkpt lat="39.298692216201935" lon="16.24739583421533"><ele>264.0</ele><time>2026-03-22T12:50:46.999Z</time></trkpt><trkpt lat="39.29857178609264" lon="16.247391377999264"><ele>263.5</ele><time>2026-03-22T12:50:47.999Z</time></trkpt><trkpt lat="39.29845221342116" lon="16.247388022966653"><ele>263.0</ele><time>2026-03-22T12:50:48.999Z</time></trkpt><trkpt lat="39.29833203539407" lon="16.247387687197484"><ele>263.0</ele><time>2026-03-22T12:50:49.999Z</time></trkpt><trkpt lat="39.29820133915379" lon="16.247390931043803"><ele>263.0</ele><time>2026-03-22T12:50:50.999Z</time></trkpt><trkpt lat="39.29806447948814" lon="16.24738653246727"><ele>263.0</ele><time>2026-03-22T12:50:51.999Z</time></trkpt><trkpt lat="39.297930169852656" lon="16.247378460452822"><ele>263.0</ele><time>2026-03-22T12:50:52.999Z</time></trkpt><trkpt lat="39.29780068046853" lon="16.247374925929883"><ele>263.75</ele><time>2026-03-22T12:50:53.999Z</time></trkpt><trkpt lat="39.297671818430864" lon="16.247369521252455"><ele>264.5</ele><time>2026-03-22T12:50:54.999Z</time></trkpt><trkpt lat="39.29754724092247" lon="16.247368394769325"><ele>265.25</ele><time>2026-03-22T12:50:55.999Z</time></trkpt><trkpt lat="39.29743268035055" lon="16.247366901808242"><ele>266.0</ele><time>2026-03-22T12:50:56.999Z</time></trkpt><trkpt lat="39.2973218769967" lon="16.247364603473137"><ele>266.6</ele><time>2026-03-22T12:50:57.999Z</time></trkpt><trkpt lat="39.29721080278531" lon="16.247364325824293"><ele>267.20000000000005</ele><time>2026-03-22T12:50:58.999Z</time></trkpt><trkpt lat="39.29709627103843" lon="16.24736537002929"><ele>267.79999999999995</ele><time>2026-03-22T12:50:59.999Z</time></trkpt><trkpt lat="39.29698265205499" lon="16.247366449288155"><ele>268.4</ele><time>2026-03-22T12:51:00.999Z</time></trkpt><trkpt lat="39.2968800471698" lon="16.24737074964697"><ele>269.0</ele><time>2026-03-22T12:51:01.999Z</time></trkpt><trkpt lat="39.296777398605855" lon="16.247376765713657"><ele>269.0</ele><time>2026-03-22T12:51:02.999Z</time></trkpt><trkpt lat="39.29667721310667" lon="16.24738212300736"><ele>269.0</ele><time>2026-03-22T12:51:03.999Z</time></trkpt><trkpt lat="39.29657415766031" lon="16.24738486228696"><ele>269.0</ele><time>2026-03-22T12:51:04.999Z</time></trkpt><trkpt lat="39.29647397044665" lon="16.24738633836873"><ele>269.0</ele><time>2026-03-22T12:51:05.999Z</time></trkpt><trkpt lat="39.29637165769151" lon="16.24738615749186"><ele>269.0</ele><time>2026-03-22T12:51:06.999Z</time></trkpt><trkpt lat="39.29627487748331" lon="16.2473834221575"><ele>269.6666666666667</ele><time>2026-03-22T12:51:07.999Z</time></trkpt><trkpt lat="39.29618287358329" lon="16.247388395399746"><ele>270.33333333333337</ele><time>2026-03-22T12:51:08.999Z</time></trkpt><trkpt lat="39.29609412757835" lon="16.247387226382283"><ele>271.0</ele><time>2026-03-22T12:51:09.999Z</time></trkpt><trkpt lat="39.296001535427365" lon="16.247392701613187"><ele>271.6666666666667</ele><time>2026-03-22T12:51:10.999Z</time></trkpt><trkpt lat="39.29591402686722" lon="16.247392867071728"><ele>272.3333333333333</ele><time>2026-03-22T12:51:11.999Z</time></trkpt><trkpt lat="39.29582650034765" lon="16.247393183165464"><ele>273.0</ele><time>2026-03-22T12:51:12.999Z</time></trkpt><trkpt lat="39.29574483962067" lon="16.24739735498222"><ele>273.0</ele><time>2026-03-22T12:51:13.999Z</time></trkpt><trkpt lat="39.29566830570246" lon="16.247403041181517"><ele>273.0</ele><time>2026-03-22T12:51:14.999Z</time></trkpt><trkpt lat="39.295593873291615" lon="16.24740832545551"><ele>273.0</ele><time>2026-03-22T12:51:15.999Z</time></trkpt><trkpt lat="39.29551835605477" lon="16.24741433201181"><ele>273.0</ele><time>2026-03-22T12:51:16.999Z</time></trkpt><trkpt lat="39.29544655040449" lon="16.247420588772584"><ele>273.0</ele><time>2026-03-22T12:51:17.999Z</time></trkpt><trkpt lat="39.29536753306345" lon="16.247429122996753"><ele>273.0</ele><time>2026-03-22T12:51:18.999Z</time></trkpt><trkpt lat="39.29528947490932" lon="16.247443351920605"><ele>272.5</ele><time>2026-03-22T12:51:19.999Z</time></trkpt><trkpt lat="39.295210708843314" lon="16.247449551757217"><ele>272.0</ele><time>2026-03-22T12:51:20.999Z</time></trkpt><trkpt lat="39.295141711283705" lon="16.24745428281586"><ele>271.5</ele><time>2026-03-22T12:51:21.999Z</time></trkpt><trkpt lat="39.295027602060955" lon="16.247465390436144"><ele>271.0</ele><time>2026-03-22T12:51:23.999Z</time></trkpt><trkpt lat="39.294950909130286" lon="16.24746970173167"><ele>270.5</ele><time>2026-03-22T12:51:25.999Z</time></trkpt><trkpt lat="39.2948692579101" lon="16.247467589052423"><ele>270.0</ele><time>2026-03-22T12:51:28.999Z</time></trkpt><trkpt lat="39.294792997664146" lon="16.247472805429137"><ele>270.2</ele><time>2026-03-22T12:51:30.998Z</time></trkpt><trkpt lat="39.29466530946734" lon="16.247499245352806"><ele>270.4</ele><time>2026-03-22T12:51:32.998Z</time></trkpt><trkpt lat="39.29457846332593" lon="16.247508081345746"><ele>270.6</ele><time>2026-03-22T12:51:33.998Z</time></trkpt><trkpt lat="39.294478054076265" lon="16.247513180950563"><ele>270.8</ele><time>2026-03-22T12:51:34.998Z</time></trkpt><trkpt lat="39.29437486698696" lon="16.247522858485762"><ele>271.0</ele><time>2026-03-22T12:51:35.998Z</time></trkpt><trkpt lat="39.2942671740828" lon="16.247536966125995"><ele>271.0</ele><time>2026-03-22T12:51:36.998Z</time></trkpt><trkpt lat="39.294165927433795" lon="16.247542478214704"><ele>271.0</ele><time>2026-03-22T12:51:37.998Z</time></trkpt><trkpt lat="39.29408397467039" lon="16.247547405458523"><ele>271.0</ele><time>2026-03-22T12:51:38.998Z</time></trkpt><trkpt lat="39.294001966899096" lon="16.247566149995748"><ele>271.0</ele><time>2026-03-22T12:51:39.998Z</time></trkpt><trkpt lat="39.29391159146988" lon="16.247581152881516"><ele>271.0</ele><time>2026-03-22T12:51:40.998Z</time></trkpt><trkpt lat="39.293814575559686" lon="16.247597353322572"><ele>270.2</ele><time>2026-03-22T12:51:41.998Z</time></trkpt><trkpt lat="39.29371096924213" lon="16.247587066425435"><ele>269.40000000000003</ele><time>2026-03-22T12:51:42.998Z</time></trkpt><trkpt lat="39.2936029034112" lon="16.247598191390924"><ele>268.6</ele><time>2026-03-22T12:51:43.998Z</time></trkpt><trkpt lat="39.29349385795579" lon="16.247610058276717"><ele>267.8</ele><time>2026-03-22T12:51:44.998Z</time></trkpt><trkpt lat="39.29339750125384" lon="16.2476228098792"><ele>267.0</ele><time>2026-03-22T12:51:45.998Z</time></trkpt><trkpt lat="39.29331086274552" lon="16.24765234182507"><ele>267.0</ele><time>2026-03-22T12:51:46.998Z</time></trkpt><trkpt lat="39.29322452988161" lon="16.247653309352156"><ele>267.0</ele><time>2026-03-22T12:51:47.998Z</time></trkpt><trkpt lat="39.293153147188654" lon="16.247655819313543"><ele>267.0</ele><time>2026-03-22T12:51:48.998Z</time></trkpt><trkpt lat="39.293037710450726" lon="16.247655456650477"><ele>267.0</ele><time>2026-03-22T12:51:50.998Z</time></trkpt><trkpt lat="39.292925562592686" lon="16.247650448023553"><ele>267.0</ele><time>2026-03-22T12:51:53Z</time></trkpt><trkpt lat="39.29281708650207" lon="16.247642489587385"><ele>267.2</ele><time>2026-03-22T12:51:55Z</time></trkpt><trkpt lat="39.29272898920836" lon="16.24764380120391"><ele>267.4</ele><time>2026-03-22T12:51:57Z</time></trkpt><trkpt lat="39.29263989624468" lon="16.247635844275003"><ele>267.6</ele><time>2026-03-22T12:51:59Z</time></trkpt><trkpt lat="39.292533647114126" lon="16.247616875692927"><ele>267.8</ele><time>2026-03-22T12:52:01Z</time></trkpt><trkpt lat="39.292444063432534" lon="16.247665291003155"><ele>268.0</ele><time>2026-03-22T12:52:03Z</time></trkpt><trkpt lat="39.29233838644327" lon="16.247784248544555"><ele>268.0</ele><time>2026-03-22T12:52:05Z</time></trkpt><trkpt lat="39.29226258728094" lon="16.24784386801464"><ele>268.0</ele><time>2026-03-22T12:52:06Z</time></trkpt><trkpt lat="39.29217186589106" lon="16.247856132549668"><ele>268.0</ele><time>2026-03-22T12:52:07Z</time></trkpt><trkpt lat="39.29208710816399" lon="16.24789877637597"><ele>268.0</ele><time>2026-03-22T12:52:08Z</time></trkpt><trkpt lat="39.292003491889915" lon="16.24794084590864"><ele>268.0</ele><time>2026-03-22T12:52:09Z</time></trkpt><trkpt lat="39.29192789627054" lon="16.24797888004796"><ele>268.0</ele><time>2026-03-22T12:52:10Z</time></trkpt><trkpt lat="39.291852706043166" lon="16.24801848140591"><ele>268.14285714285717</ele><time>2026-03-22T12:52:11Z</time></trkpt><trkpt lat="39.29179338526235" lon="16.248049828356297"><ele>268.2857142857143</ele><time>2026-03-22T12:52:12Z</time></trkpt><trkpt lat="39.29173417789842" lon="16.248081054288125"><ele>268.42857142857144</ele><time>2026-03-22T12:52:13Z</time></trkpt><trkpt lat="39.291672787365485" lon="16.248114124512448"><ele>268.57142857142856</ele><time>2026-03-22T12:52:14Z</time></trkpt><trkpt lat="39.29161327512181" lon="16.24814604807559"><ele>268.7142857142857</ele><time>2026-03-22T12:52:15Z</time></trkpt><trkpt lat="39.29155409964217" lon="16.24817769110533"><ele>268.8571428571429</ele><time>2026-03-22T12:52:16Z</time></trkpt><trkpt lat="39.291489774258146" lon="16.248212087988946"><ele>269.0</ele><time>2026-03-22T12:52:17Z</time></trkpt><trkpt lat="39.29142162117576" lon="16.24824853165148"><ele>269.0</ele><time>2026-03-22T12:52:18Z</time></trkpt><trkpt lat="39.29134797564448" lon="16.248287912294032"><ele>269.0</ele><time>2026-03-22T12:52:19Z</time></trkpt><trkpt lat="39.29127371074909" lon="16.248327624141076"><ele>269.0</ele><time>2026-03-22T12:52:19.999Z</time></trkpt><trkpt lat="39.29119856960455" lon="16.248367804541395"><ele>269.0</ele><time>2026-03-22T12:52:20.999Z</time></trkpt><trkpt lat="39.291125498660996" lon="16.248407057401547"><ele>269.0</ele><time>2026-03-22T12:52:21.999Z</time></trkpt><trkpt lat="39.291047690048465" lon="16.248448971813932"><ele>269.0</ele><time>2026-03-22T12:52:22.999Z</time></trkpt><trkpt lat="39.29096956957296" lon="16.24851235642746"><ele>269.0</ele><time>2026-03-22T12:52:23.999Z</time></trkpt><trkpt lat="39.290880536969716" lon="16.248564262396947"><ele>269.0</ele><time>2026-03-22T12:52:24.999Z</time></trkpt><trkpt lat="39.29078278946366" lon="16.248611194940718"><ele>269.0</ele><time>2026-03-22T12:52:25.999Z</time></trkpt><trkpt lat="39.290693543023245" lon="16.24869564880299"><ele>269.0</ele><time>2026-03-22T12:52:26.999Z</time></trkpt><trkpt lat="39.290608943590634" lon="16.248792404317424"><ele>269.0</ele><time>2026-03-22T12:52:27.999Z</time></trkpt><trkpt lat="39.2905258518023" lon="16.24891323651939"><ele>263.6666666666667</ele><time>2026-03-22T12:52:28.999Z</time></trkpt><trkpt lat="39.29042929866755" lon="16.249058189137585"><ele>258.3333333333333</ele><time>2026-03-22T12:52:29.999Z</time></trkpt><trkpt lat="39.2903188020946" lon="16.249223609433173"><ele>253.0</ele><time>2026-03-22T12:52:30.999Z</time></trkpt><trkpt lat="39.290204882604804" lon="16.249396420850655"><ele>253.0</ele><time>2026-03-22T12:52:31.999Z</time></trkpt><trkpt lat="39.29009394110551" lon="16.2495652526456"><ele>253.0</ele><time>2026-03-22T12:52:32.999Z</time></trkpt><trkpt lat="39.289976121854146" lon="16.24974455073907"><ele>253.0</ele><time>2026-03-22T12:52:33.999Z</time></trkpt><trkpt lat="39.289848877337825" lon="16.24993452170667"><ele>250.66666666666666</ele><time>2026-03-22T12:52:34.999Z</time></trkpt><trkpt lat="39.28970770411062" lon="16.25014274215097"><ele>248.33333333333331</ele><time>2026-03-22T12:52:35.999Z</time></trkpt><trkpt lat="39.28956230491191" lon="16.25035938043286"><ele>246.0</ele><time>2026-03-22T12:52:36.999Z</time></trkpt><trkpt lat="39.28940566588086" lon="16.25059507345485"><ele>245.0</ele><time>2026-03-22T12:52:37.999Z</time></trkpt><trkpt lat="39.289241131119034" lon="16.250840821215217"><ele>244.0</ele><time>2026-03-22T12:52:38.999Z</time></trkpt><trkpt lat="39.28908815024127" lon="16.251089453668875"><ele>244.0</ele><time>2026-03-22T12:52:39.999Z</time></trkpt><trkpt lat="39.28893167689549" lon="16.251320921372287"><ele>244.0</ele><time>2026-03-22T12:52:40.999Z</time></trkpt><trkpt lat="39.288782600779136" lon="16.25154912325679"><ele>245.0</ele><time>2026-03-22T12:52:41.999Z</time></trkpt><trkpt lat="39.288637645450585" lon="16.251770233668456"><ele>246.0</ele><time>2026-03-22T12:52:42.999Z</time></trkpt><trkpt lat="39.28849985492886" lon="16.251977386385924"><ele>247.0</ele><time>2026-03-22T12:52:43.999Z</time></trkpt><trkpt lat="39.28837350451581" lon="16.252165748830713"><ele>250.66666666666666</ele><time>2026-03-22T12:52:44.999Z</time></trkpt><trkpt lat="39.28825510275448" lon="16.252340695391513"><ele>254.33333333333331</ele><time>2026-03-22T12:52:45.999Z</time></trkpt><trkpt lat="39.28814873388205" lon="16.25249968220277"><ele>258.0</ele><time>2026-03-22T12:52:46.999Z</time></trkpt><trkpt lat="39.288049838327886" lon="16.252646073132105"><ele>260.3333333333333</ele><time>2026-03-22T12:52:47.999Z</time></trkpt><trkpt lat="39.28794924237702" lon="16.252807381372204"><ele>262.66666666666663</ele><time>2026-03-22T12:52:48.999Z</time></trkpt><trkpt lat="39.28785337350635" lon="16.252997130315602"><ele>265.0</ele><time>2026-03-22T12:52:49.999Z</time></trkpt><trkpt lat="39.28777386755572" lon="16.253218333832066"><ele>266.0</ele><time>2026-03-22T12:52:50.999Z</time></trkpt><trkpt lat="39.28771609035132" lon="16.253458227342936"><ele>267.0</ele><time>2026-03-22T12:52:51.999Z</time></trkpt><trkpt lat="39.28763722123596" lon="16.253683909287297"><ele>268.0</ele><time>2026-03-22T12:52:52.999Z</time></trkpt><trkpt lat="39.28754556576433" lon="16.253907151294353"><ele>269.0</ele><time>2026-03-22T12:52:53.999Z</time></trkpt><trkpt lat="39.287443738683926" lon="16.254134588733024"><ele>270.0</ele><time>2026-03-22T12:52:54.999Z</time></trkpt><trkpt lat="39.28733268985075" lon="16.254356419656183"><ele>271.0</ele><time>2026-03-22T12:52:55.999Z</time></trkpt><trkpt lat="39.28719711723105" lon="16.25455130337744"><ele>271.0</ele><time>2026-03-22T12:52:56.999Z</time></trkpt><trkpt lat="39.28704419015525" lon="16.254728278397454"><ele>271.0</ele><time>2026-03-22T12:52:57.999Z</time></trkpt><trkpt lat="39.28687591130154" lon="16.254910708365355"><ele>271.0</ele><time>2026-03-22T12:52:58.999Z</time></trkpt><trkpt lat="39.28670719736827" lon="16.2550846082159"><ele>273.3333333333333</ele><time>2026-03-22T12:52:59.999Z</time></trkpt><trkpt lat="39.28653953803511" lon="16.255251603232207"><ele>275.6666666666667</ele><time>2026-03-22T12:53:00.999Z</time></trkpt><trkpt lat="39.286376670521854" lon="16.25541316711662"><ele>278.0</ele><time>2026-03-22T12:53:01.999Z</time></trkpt><trkpt lat="39.28622085804652" lon="16.25556614515886"><ele>282.33333333333337</ele><time>2026-03-22T12:53:02.999Z</time></trkpt><trkpt lat="39.28606805747833" lon="16.255710564557916"><ele>286.6666666666667</ele><time>2026-03-22T12:53:03.999Z</time></trkpt><trkpt lat="39.28591756883967" lon="16.255830279652383"><ele>291.0</ele><time>2026-03-22T12:53:04.999Z</time></trkpt><trkpt lat="39.28577195522299" lon="16.255925328672657"><ele>291.0</ele><time>2026-03-22T12:53:05.999Z</time></trkpt><trkpt lat="39.285629712891506" lon="16.25601747759251"><ele>291.0</ele><time>2026-03-22T12:53:06.999Z</time></trkpt><trkpt lat="39.28548435001365" lon="16.256169482821033"><ele>291.0</ele><time>2026-03-22T12:53:07.999Z</time></trkpt><trkpt lat="39.28534814963242" lon="16.256351013374847"><ele>291.3333333333333</ele><time>2026-03-22T12:53:08.999Z</time></trkpt><trkpt lat="39.28519392173249" lon="16.256512516484836"><ele>291.66666666666663</ele><time>2026-03-22T12:53:09.999Z</time></trkpt><trkpt lat="39.285036087404826" lon="16.256669493371664"><ele>292.0</ele><time>2026-03-22T12:53:10.999Z</time></trkpt><trkpt lat="39.284885010207155" lon="16.256819750244503"><ele>292.3333333333333</ele><time>2026-03-22T12:53:11.999Z</time></trkpt><trkpt lat="39.284747448415224" lon="16.256948267073266"><ele>292.6666666666667</ele><time>2026-03-22T12:53:12.999Z</time></trkpt><trkpt lat="39.28463149223517" lon="16.257080098195104"><ele>293.0</ele><time>2026-03-22T12:53:13.999Z</time></trkpt><trkpt lat="39.28455733006303" lon="16.25723120678792"><ele>293.5</ele><time>2026-03-22T12:53:14.999Z</time></trkpt><trkpt lat="39.28454090685285" lon="16.257427787341516"><ele>294.0</ele><time>2026-03-22T12:53:15.999Z</time></trkpt><trkpt lat="39.28450037390278" lon="16.257597488556588"><ele>294.5</ele><time>2026-03-22T12:53:16.999Z</time></trkpt><trkpt lat="39.284436389992266" lon="16.257737805472605"><ele>295.0</ele><time>2026-03-22T12:53:17.999Z</time></trkpt><trkpt lat="39.284340378708734" lon="16.257837523288604"><ele>295.0</ele><time>2026-03-22T12:53:18.999Z</time></trkpt><trkpt lat="39.284224724346224" lon="16.257887829766855"><ele>295.0</ele><time>2026-03-22T12:53:19.999Z</time></trkpt><trkpt lat="39.28409765612564" lon="16.25794703216686"><ele>295.0</ele><time>2026-03-22T12:53:20.999Z</time></trkpt><trkpt lat="39.28397658842833" lon="16.258042183960566"><ele>295.0</ele><time>2026-03-22T12:53:21.999Z</time></trkpt><trkpt lat="39.28386801236015" lon="16.2581812849361"><ele>297.0</ele><time>2026-03-22T12:53:22.999Z</time></trkpt><trkpt lat="39.28376073097735" lon="16.25833323445882"><ele>299.0</ele><time>2026-03-22T12:53:23.999Z</time></trkpt><trkpt lat="39.28365026888296" lon="16.258489689062838"><ele>301.0</ele><time>2026-03-22T12:53:24.999Z</time></trkpt><trkpt lat="39.28353382590035" lon="16.2586494655692"><ele>301.0</ele><time>2026-03-22T12:53:25.999Z</time></trkpt><trkpt lat="39.2834163836085" lon="16.258810418383526"><ele>301.0</ele><time>2026-03-22T12:53:26.999Z</time></trkpt><trkpt lat="39.283301495607" lon="16.258961376167946"><ele>301.0</ele><time>2026-03-22T12:53:27.999Z</time></trkpt><trkpt lat="39.28317691378032" lon="16.25907950796886"><ele>304.3333333333333</ele><time>2026-03-22T12:53:28.999Z</time></trkpt><trkpt lat="39.283027742850685" lon="16.259108330743363"><ele>307.6666666666667</ele><time>2026-03-22T12:53:29.999Z</time></trkpt><trkpt lat="39.282880809062796" lon="16.259164620636646"><ele>311.0</ele><time>2026-03-22T12:53:30.999Z</time></trkpt><trkpt lat="39.2827420154585" lon="16.259226623839552"><ele>311.0</ele><time>2026-03-22T12:53:31.999Z</time></trkpt><trkpt lat="39.282607310563684" lon="16.25930993508082"><ele>311.0</ele><time>2026-03-22T12:53:32.999Z</time></trkpt><trkpt lat="39.28249190064522" lon="16.25940759466505"><ele>311.0</ele><time>2026-03-22T12:53:33.999Z</time></trkpt><trkpt lat="39.2823849759611" lon="16.25949688155553"><ele>311.0</ele><time>2026-03-22T12:53:34.999Z</time></trkpt><trkpt lat="39.28228130420883" lon="16.25957528380276"><ele>310.8</ele><time>2026-03-22T12:53:35.998Z</time></trkpt><trkpt lat="39.282182235684026" lon="16.259623257090972"><ele>310.6</ele><time>2026-03-22T12:53:36.998Z</time></trkpt><trkpt lat="39.282084990087284" lon="16.259634994387664"><ele>310.4</ele><time>2026-03-22T12:53:37.998Z</time></trkpt><trkpt lat="39.281991548230685" lon="16.259645320597127"><ele>310.2</ele><time>2026-03-22T12:53:38.998Z</time></trkpt><trkpt lat="39.281912653904826" lon="16.259684250055965"><ele>310.0</ele><time>2026-03-22T12:53:39.998Z</time></trkpt><trkpt lat="39.28185108270801" lon="16.259725714116357"><ele>314.0</ele><time>2026-03-22T12:53:40.998Z</time></trkpt><trkpt lat="39.28182630516783" lon="16.259806402554993"><ele>318.0</ele><time>2026-03-22T12:53:41.998Z</time></trkpt><trkpt lat="39.28185162107678" lon="16.259886710765816"><ele>322.0</ele><time>2026-03-22T12:53:42.998Z</time></trkpt><trkpt lat="39.281993549136516" lon="16.25993631791366"><ele>326.0</ele><time>2026-03-22T12:53:44.998Z</time></trkpt><trkpt lat="39.2820862548712" lon="16.259901874203347"><ele>330.0</ele><time>2026-03-22T12:53:45.998Z</time></trkpt><trkpt lat="39.28219241866431" lon="16.2598852102554"><ele>332.25</ele><time>2026-03-22T12:53:46.998Z</time></trkpt><trkpt lat="39.28230879542113" lon="16.259874608539057"><ele>334.5</ele><time>2026-03-22T12:53:47.998Z</time></trkpt><trkpt lat="39.282432895251674" lon="16.259858167333917"><ele>336.75</ele><time>2026-03-22T12:53:48.998Z</time></trkpt><trkpt lat="39.28255955028028" lon="16.259835628487114"><ele>339.0</ele><time>2026-03-22T12:53:49.998Z</time></trkpt><trkpt lat="39.2826873427049" lon="16.259810556668832"><ele>339.0</ele><time>2026-03-22T12:53:50.998Z</time></trkpt><trkpt lat="39.28281072420692" lon="16.259785398073642"><ele>339.0</ele><time>2026-03-22T12:53:51.998Z</time></trkpt><trkpt lat="39.28291815837077" lon="16.259757468591495"><ele>339.0</ele><time>2026-03-22T12:53:52.998Z</time></trkpt><trkpt lat="39.2830013897827" lon="16.25970643891529"><ele>339.0</ele><time>2026-03-22T12:53:53.998Z</time></trkpt><trkpt lat="39.283065460901774" lon="16.259660193883853"><ele>339.0</ele><time>2026-03-22T12:53:54.998Z</time></trkpt><trkpt lat="39.283164259407236" lon="16.25969942262293"><ele>339.0</ele><time>2026-03-22T12:53:56.998Z</time></trkpt><trkpt lat="39.283157893682485" lon="16.259828626938486"><ele>339.0</ele><time>2026-03-22T12:53:59Z</time></trkpt><trkpt lat="39.28310714891307" lon="16.25989478086203"><ele>339.0</ele><time>2026-03-22T12:54:00Z</time></trkpt><trkpt lat="39.283011875865405" lon="16.25991101551657"><ele>339.0</ele><time>2026-03-22T12:54:01Z</time></trkpt><trkpt lat="39.28293559085087" lon="16.259985592361097"><ele>339.0</ele><time>2026-03-22T12:54:02Z</time></trkpt><trkpt lat="39.282836908808555" lon="16.260084073479916"><ele>339.0</ele><time>2026-03-22T12:54:03Z</time></trkpt><trkpt lat="39.28273921463739" lon="16.260176795211798"><ele>339.0</ele><time>2026-03-22T12:54:04Z</time></trkpt><trkpt lat="39.28262463539137" lon="16.26024341867026"><ele>339.0</ele><time>2026-03-22T12:54:05Z</time></trkpt><trkpt lat="39.28247986416611" lon="16.26031312143567"><ele>339.0</ele><time>2026-03-22T12:54:06Z</time></trkpt><trkpt lat="39.28232730478252" lon="16.260385289734593"><ele>336.0</ele><time>2026-03-22T12:54:07Z</time></trkpt><trkpt lat="39.28216826683098" lon="16.260457493996803"><ele>333.0</ele><time>2026-03-22T12:54:08Z</time></trkpt><trkpt lat="39.28200569270067" lon="16.260523073059826"><ele>330.0</ele><time>2026-03-22T12:54:09Z</time></trkpt><trkpt lat="39.28184275860568" lon="16.260588137841985"><ele>334.0</ele><time>2026-03-22T12:54:10Z</time></trkpt><trkpt lat="39.281689432986155" lon="16.26072440387956"><ele>338.0</ele><time>2026-03-22T12:54:11Z</time></trkpt><trkpt lat="39.28153910591363" lon="16.26084804052441"><ele>342.0</ele><time>2026-03-22T12:54:12Z</time></trkpt><trkpt lat="39.28140228156006" lon="16.260986302441584"><ele>342.0</ele><time>2026-03-22T12:54:13Z</time></trkpt><trkpt lat="39.28126256157184" lon="16.26110586995134"><ele>342.0</ele><time>2026-03-22T12:54:14Z</time></trkpt><trkpt lat="39.28111647805375" lon="16.26115739935878"><ele>342.0</ele><time>2026-03-22T12:54:15Z</time></trkpt><trkpt lat="39.2809593349762" lon="16.261133927248004"><ele>342.0</ele><time>2026-03-22T12:54:16Z</time></trkpt><trkpt lat="39.28079885653912" lon="16.26112803983927"><ele>342.0</ele><time>2026-03-22T12:54:17Z</time></trkpt><trkpt lat="39.28064206584036" lon="16.26110250853602"><ele>342.0</ele><time>2026-03-22T12:54:18Z</time></trkpt><trkpt lat="39.28050247141814" lon="16.261167742733875"><ele>345.3333333333333</ele><time>2026-03-22T12:54:19Z</time></trkpt><trkpt lat="39.28037369706186" lon="16.261342363568698"><ele>348.66666666666663</ele><time>2026-03-22T12:54:19.999Z</time></trkpt><trkpt lat="39.28024590737746" lon="16.26153139745602"><ele>352.0</ele><time>2026-03-22T12:54:20.999Z</time></trkpt><trkpt lat="39.28009732943898" lon="16.26172539942011"><ele>352.0</ele><time>2026-03-22T12:54:21.999Z</time></trkpt><trkpt lat="39.2799902477298" lon="16.261952858275954"><ele>352.0</ele><time>2026-03-22T12:54:22.999Z</time></trkpt><trkpt lat="39.27989834325155" lon="16.262174381366997"><ele>352.0</ele><time>2026-03-22T12:54:23.999Z</time></trkpt><trkpt lat="39.27984400214357" lon="16.262400232678747"><ele>355.40000000000003</ele><time>2026-03-22T12:54:24.999Z</time></trkpt><trkpt lat="39.27977443015463" lon="16.26257201573326"><ele>358.8</ele><time>2026-03-22T12:54:25.999Z</time></trkpt><trkpt lat="39.27970713087667" lon="16.262709156140893"><ele>362.2</ele><time>2026-03-22T12:54:26.999Z</time></trkpt><trkpt lat="39.279637031672976" lon="16.262781195822267"><ele>365.6</ele><time>2026-03-22T12:54:27.999Z</time></trkpt><trkpt lat="39.27955656646755" lon="16.262802027592368"><ele>369.0</ele><time>2026-03-22T12:54:28.999Z</time></trkpt><trkpt lat="39.27946966011946" lon="16.26277207573529"><ele>369.0</ele><time>2026-03-22T12:54:29.999Z</time></trkpt><trkpt lat="39.27938673982977" lon="16.2627107162811"><ele>369.0</ele><time>2026-03-22T12:54:30.999Z</time></trkpt><trkpt lat="39.2792734035524" lon="16.26262812373258"><ele>369.0</ele><time>2026-03-22T12:54:31.999Z</time></trkpt><trkpt lat="39.27914643808289" lon="16.262585206530872"><ele>369.0</ele><time>2026-03-22T12:54:32.999Z</time></trkpt><trkpt lat="39.278964794589534" lon="16.262622893983803"><ele>369.6666666666667</ele><time>2026-03-22T12:54:33.999Z</time></trkpt><trkpt lat="39.27878077548997" lon="16.262616013317455"><ele>370.33333333333337</ele><time>2026-03-22T12:54:34.999Z</time></trkpt><trkpt lat="39.27860509390699" lon="16.26263018180978"><ele>371.0</ele><time>2026-03-22T12:54:35.999Z</time></trkpt><trkpt lat="39.27842635366788" lon="16.262661029641635"><ele>371.0</ele><time>2026-03-22T12:54:36.999Z</time></trkpt><trkpt lat="39.27825473785596" lon="16.26276511269388"><ele>371.0</ele><time>2026-03-22T12:54:37.999Z</time></trkpt><trkpt lat="39.27808306019248" lon="16.26288673277861"><ele>371.0</ele><time>2026-03-22T12:54:38.999Z</time></trkpt><trkpt lat="39.2779063055379" lon="16.262955441095436"><ele>376.6666666666667</ele><time>2026-03-22T12:54:39.999Z</time></trkpt><trkpt lat="39.27770607200492" lon="16.263015296473885"><ele>382.33333333333337</ele><time>2026-03-22T12:54:40.999Z</time></trkpt><trkpt lat="39.27753500304695" lon="16.263103550316895"><ele>388.0</ele><time>2026-03-22T12:54:41.999Z</time></trkpt><trkpt lat="39.27739944276182" lon="16.263283692337954"><ele>383.5</ele><time>2026-03-22T12:54:42.999Z</time></trkpt><trkpt lat="39.27725335132728" lon="16.26349544459099"><ele>379.0</ele><time>2026-03-22T12:54:43.999Z</time></trkpt><trkpt lat="39.27711509339391" lon="16.26375366232603"><ele>388.5</ele><time>2026-03-22T12:54:44.999Z</time></trkpt><trkpt lat="39.276950668009796" lon="16.26401707525899"><ele>398.0</ele><time>2026-03-22T12:54:45.999Z</time></trkpt><trkpt lat="39.276815077930195" lon="16.2642207416977"><ele>398.0</ele><time>2026-03-22T12:54:46.999Z</time></trkpt><trkpt lat="39.276696787768444" lon="16.264347547467505"><ele>398.0</ele><time>2026-03-22T12:54:47.999Z</time></trkpt><trkpt lat="39.2765830073015" lon="16.264418371790462"><ele>398.0</ele><time>2026-03-22T12:54:48.999Z</time></trkpt><trkpt lat="39.276488613908064" lon="16.26441417382736"><ele>398.0</ele><time>2026-03-22T12:54:49.999Z</time></trkpt><trkpt lat="39.27641858090416" lon="16.264375872903724"><ele>396.25</ele><time>2026-03-22T12:54:50.999Z</time></trkpt><trkpt lat="39.276370190913966" lon="16.264302287014676"><ele>394.5</ele><time>2026-03-22T12:54:51.999Z</time></trkpt><trkpt lat="39.27634322578023" lon="16.264163629018135"><ele>392.75</ele><time>2026-03-22T12:54:52.999Z</time></trkpt><trkpt lat="39.27632731799781" lon="16.263972444198284"><ele>391.0</ele><time>2026-03-22T12:54:53.999Z</time></trkpt><trkpt lat="39.27629378948363" lon="16.263808620837818"><ele>391.0</ele><time>2026-03-22T12:54:54.999Z</time></trkpt><trkpt lat="39.276210820501575" lon="16.263678647409883"><ele>391.0</ele><time>2026-03-22T12:54:55.999Z</time></trkpt><trkpt lat="39.276070597110646" lon="16.263606323025073"><ele>391.0</ele><time>2026-03-22T12:54:56.999Z</time></trkpt><trkpt lat="39.275880505853806" lon="16.263573462448388"><ele>391.0</ele><time>2026-03-22T12:54:57.999Z</time></trkpt><trkpt lat="39.27567918525083" lon="16.26350216886223"><ele>391.0</ele><time>2026-03-22T12:54:58.999Z</time></trkpt><trkpt lat="39.275452176394914" lon="16.26351872033903"><ele>391.0</ele><time>2026-03-22T12:54:59.999Z</time></trkpt><trkpt lat="39.2752275994676" lon="16.263560042717373"><ele>392.33333333333337</ele><time>2026-03-22T12:55:00.999Z</time></trkpt><trkpt lat="39.27501101617284" lon="16.26356523633034"><ele>393.66666666666663</ele><time>2026-03-22T12:55:01.999Z</time></trkpt><trkpt lat="39.27480814581699" lon="16.26355239244214"><ele>395.0</ele><time>2026-03-22T12:55:02.999Z</time></trkpt><trkpt lat="39.274615044848716" lon="16.26361310066719"><ele>391.3333333333333</ele><time>2026-03-22T12:55:03.999Z</time></trkpt><trkpt lat="39.27443411549753" lon="16.263775340191707"><ele>387.66666666666663</ele><time>2026-03-22T12:55:04.999Z</time></trkpt><trkpt lat="39.27422214578702" lon="16.263854579692758"><ele>384.0</ele><time>2026-03-22T12:55:05.999Z</time></trkpt><trkpt lat="39.27400025145451" lon="16.263860876393164"><ele>391.33333333333337</ele><time>2026-03-22T12:55:06.999Z</time></trkpt><trkpt lat="39.27379677713084" lon="16.263957639438452"><ele>398.6666666666667</ele><time>2026-03-22T12:55:07.999Z</time></trkpt><trkpt lat="39.27361641763519" lon="16.264087961622785"><ele>406.0</ele><time>2026-03-22T12:55:08.999Z</time></trkpt><trkpt lat="39.27346160727998" lon="16.264249581056255"><ele>406.0</ele><time>2026-03-22T12:55:09.999Z</time></trkpt><trkpt lat="39.27333514834232" lon="16.264439955599947"><ele>406.0</ele><time>2026-03-22T12:55:10.999Z</time></trkpt><trkpt lat="39.27325803079186" lon="16.26466576221989"><ele>406.0</ele><time>2026-03-22T12:55:11.999Z</time></trkpt><trkpt lat="39.27322672238329" lon="16.26488026067899"><ele>408.0</ele><time>2026-03-22T12:55:12.999Z</time></trkpt><trkpt lat="39.27317022614809" lon="16.26504561481548"><ele>410.0</ele><time>2026-03-22T12:55:13.999Z</time></trkpt><trkpt lat="39.273027211975915" lon="16.265040072544593"><ele>412.0</ele><time>2026-03-22T12:55:14.999Z</time></trkpt><trkpt lat="39.27292617935128" lon="16.265062361277284"><ele>414.0</ele><time>2026-03-22T12:55:15.999Z</time></trkpt><trkpt lat="39.27268739313008" lon="16.26500491700534"><ele>414.0</ele><time>2026-03-22T12:55:16.999Z</time></trkpt><trkpt lat="39.27253836212257" lon="16.265052464179675"><ele>414.0</ele><time>2026-03-22T12:55:17.999Z</time></trkpt><trkpt lat="39.2724558476624" lon="16.26517757214476"><ele>414.0</ele><time>2026-03-22T12:55:18.999Z</time></trkpt><trkpt lat="39.27238358514472" lon="16.265335772988813"><ele>414.0</ele><time>2026-03-22T12:55:19.999Z</time></trkpt><trkpt lat="39.272367627211636" lon="16.265520492676774"><ele>419.0</ele><time>2026-03-22T12:55:20.999Z</time></trkpt><trkpt lat="39.27239573647768" lon="16.265713917854203"><ele>424.0</ele><time>2026-03-22T12:55:21.999Z</time></trkpt><trkpt lat="39.272483972298076" lon="16.26592466271478"><ele>429.0</ele><time>2026-03-22T12:55:22.999Z</time></trkpt><trkpt lat="39.27265176555865" lon="16.266227973265803"><ele>429.0</ele><time>2026-03-22T12:55:23.999Z</time></trkpt><trkpt lat="39.272809716146945" lon="16.2664530657933"><ele>429.0</ele><time>2026-03-22T12:55:24.999Z</time></trkpt><trkpt lat="39.27292206698971" lon="16.26664554436439"><ele>429.0</ele><time>2026-03-22T12:55:25.999Z</time></trkpt><trkpt lat="39.2729717408705" lon="16.266830255807175"><ele>429.0</ele><time>2026-03-22T12:55:26.999Z</time></trkpt><trkpt lat="39.27294859177126" lon="16.267015424185566"><ele>429.0</ele><time>2026-03-22T12:55:27.999Z</time></trkpt><trkpt lat="39.27289367100145" lon="16.26714891999041"><ele>429.0</ele><time>2026-03-22T12:55:28.999Z</time></trkpt><trkpt lat="39.27281261838702" lon="16.267306220205068"><ele>429.0</ele><time>2026-03-22T12:55:29.999Z</time></trkpt><trkpt lat="39.272721163056104" lon="16.267456654477293"><ele>433.0</ele><time>2026-03-22T12:55:30.999Z</time></trkpt><trkpt lat="39.27262459224637" lon="16.267605401863275"><ele>437.0</ele><time>2026-03-22T12:55:31.999Z</time></trkpt><trkpt lat="39.272508850461705" lon="16.267780512198406"><ele>441.0</ele><time>2026-03-22T12:55:32.999Z</time></trkpt><trkpt lat="39.27243142129495" lon="16.267966546641624"><ele>441.0</ele><time>2026-03-22T12:55:33.999Z</time></trkpt><trkpt lat="39.27231484693452" lon="16.2681083579905"><ele>441.0</ele><time>2026-03-22T12:55:34.999Z</time></trkpt><trkpt lat="39.27220880584894" lon="16.26827432389859"><ele>441.0</ele><time>2026-03-22T12:55:35.999Z</time></trkpt><trkpt lat="39.27209251031605" lon="16.26848549956822"><ele>445.5</ele><time>2026-03-22T12:55:36.999Z</time></trkpt><trkpt lat="39.27190697407293" lon="16.268665297089548"><ele>450.0</ele><time>2026-03-22T12:55:37.999Z</time></trkpt><trkpt lat="39.271722427888065" lon="16.2689365118768"><ele>443.0</ele><time>2026-03-22T12:55:38.999Z</time></trkpt><trkpt lat="39.27155356731454" lon="16.269188104728507"><ele>436.0</ele><time>2026-03-22T12:55:39.998Z</time></trkpt><trkpt lat="39.27139833902736" lon="16.269420757166714"><ele>433.5</ele><time>2026-03-22T12:55:40.998Z</time></trkpt><trkpt lat="39.27124334557234" lon="16.269650587043493"><ele>431.0</ele><time>2026-03-22T12:55:41.998Z</time></trkpt><trkpt lat="39.27109542605728" lon="16.26985986335938"><ele>431.0</ele><time>2026-03-22T12:55:42.998Z</time></trkpt><trkpt lat="39.27093540954778" lon="16.27005776760613"><ele>431.0</ele><time>2026-03-22T12:55:43.998Z</time></trkpt><trkpt lat="39.27076568252552" lon="16.270247537932853"><ele>431.0</ele><time>2026-03-22T12:55:44.998Z</time></trkpt><trkpt lat="39.27058666920427" lon="16.270407760698774"><ele>432.3333333333333</ele><time>2026-03-22T12:55:45.998Z</time></trkpt><trkpt lat="39.27039564185251" lon="16.270555557291956"><ele>433.66666666666663</ele><time>2026-03-22T12:55:46.998Z</time></trkpt><trkpt lat="39.270209388784785" lon="16.270703140538203"><ele>435.0</ele><time>2026-03-22T12:55:47.998Z</time></trkpt><trkpt lat="39.270027671212375" lon="16.270847721887034"><ele>435.0</ele><time>2026-03-22T12:55:48.998Z</time></trkpt><trkpt lat="39.26984509721072" lon="16.27099612231248"><ele>435.0</ele><time>2026-03-22T12:55:49.998Z</time></trkpt><trkpt lat="39.2696942986905" lon="16.271148052731103"><ele>435.0</ele><time>2026-03-22T12:55:50.998Z</time></trkpt><trkpt lat="39.269594219568944" lon="16.27134631053873"><ele>436.33333333333337</ele><time>2026-03-22T12:55:51.998Z</time></trkpt><trkpt lat="39.26951088177073" lon="16.271583137925944"><ele>437.6666666666667</ele><time>2026-03-22T12:55:52.998Z</time></trkpt><trkpt lat="39.26943807938587" lon="16.27184505685732"><ele>439.0</ele><time>2026-03-22T12:55:53.998Z</time></trkpt><trkpt lat="39.269371577949066" lon="16.27209023059193"><ele>438.0</ele><time>2026-03-22T12:55:54.998Z</time></trkpt><trkpt lat="39.26926805466344" lon="16.272338091718826"><ele>437.0</ele><time>2026-03-22T12:55:55.998Z</time></trkpt><trkpt lat="39.269155852241106" lon="16.27257948202242"><ele>436.0</ele><time>2026-03-22T12:55:56.998Z</time></trkpt><trkpt lat="39.26902793229281" lon="16.272797331482305"><ele>436.0</ele><time>2026-03-22T12:55:57.998Z</time></trkpt><trkpt lat="39.26889983198955" lon="16.27300721965177"><ele>436.0</ele><time>2026-03-22T12:55:58.998Z</time></trkpt><trkpt lat="39.268776068625115" lon="16.273190156333612"><ele>436.0</ele><time>2026-03-22T12:55:59.998Z</time></trkpt><trkpt lat="39.268643254924875" lon="16.273322852579685"><ele>435.33333333333337</ele><time>2026-03-22T12:56:00.998Z</time></trkpt><trkpt lat="39.26849308512848" lon="16.273454652887093"><ele>434.66666666666663</ele><time>2026-03-22T12:56:01.998Z</time></trkpt><trkpt lat="39.26836032327776" lon="16.27357344632308"><ele>434.0</ele><time>2026-03-22T12:56:02.998Z</time></trkpt><trkpt lat="39.268239595849984" lon="16.273677974624192"><ele>434.0</ele><time>2026-03-22T12:56:04Z</time></trkpt><trkpt lat="39.2681265186274" lon="16.273775349279614"><ele>434.0</ele><time>2026-03-22T12:56:05Z</time></trkpt><trkpt lat="39.26803477173813" lon="16.273850314519397"><ele>434.0</ele><time>2026-03-22T12:56:06Z</time></trkpt><trkpt lat="39.26796956910322" lon="16.27390082921431"><ele>434.0</ele><time>2026-03-22T12:56:07Z</time></trkpt><trkpt lat="39.26788911193241" lon="16.273958769118725"><ele>434.0</ele><time>2026-03-22T12:56:09Z</time></trkpt><trkpt lat="39.26782835029848" lon="16.273997234209787"><ele>434.66666666666663</ele><time>2026-03-22T12:56:13Z</time></trkpt><trkpt lat="39.26773297239514" lon="16.274049204720736"><ele>435.3333333333333</ele><time>2026-03-22T12:56:51.999Z</time></trkpt><trkpt lat="39.26765982428333" lon="16.274079411010618"><ele>436.0</ele><time>2026-03-22T12:56:52.999Z</time></trkpt><trkpt lat="39.26758108997804" lon="16.27410412340646"><ele>436.66666666666663</ele><time>2026-03-22T12:56:53.999Z</time></trkpt><trkpt lat="39.267505854537234" lon="16.274126163607654"><ele>437.3333333333333</ele><time>2026-03-22T12:56:54.999Z</time></trkpt><trkpt lat="39.26742423433549" lon="16.274152716190525"><ele>438.0</ele><time>2026-03-22T12:56:55.999Z</time></trkpt><trkpt lat="39.267334817263" lon="16.274181768319462"><ele>439.0</ele><time>2026-03-22T12:56:56.999Z</time></trkpt><trkpt lat="39.26723125584956" lon="16.27422279608264"><ele>440.0</ele><time>2026-03-22T12:56:57.999Z</time></trkpt><trkpt lat="39.26712894099746" lon="16.27429354742188"><ele>441.0</ele><time>2026-03-22T12:56:58.999Z</time></trkpt><trkpt lat="39.267033606688244" lon="16.27438682024879"><ele>442.0</ele><time>2026-03-22T12:56:59.999Z</time></trkpt><trkpt lat="39.26694244905635" lon="16.274511263339626"><ele>442.0</ele><time>2026-03-22T12:57:00.999Z</time></trkpt><trkpt lat="39.26687577542502" lon="16.27465600518344"><ele>442.0</ele><time>2026-03-22T12:57:01.999Z</time></trkpt><trkpt lat="39.26682321401034" lon="16.274819245890395"><ele>442.0</ele><time>2026-03-22T12:57:02.999Z</time></trkpt><trkpt lat="39.26677482470045" lon="16.274975968844142"><ele>442.0</ele><time>2026-03-22T12:57:03.999Z</time></trkpt><trkpt lat="39.26672769314714" lon="16.27513236438223"><ele>444.0</ele><time>2026-03-22T12:57:04.999Z</time></trkpt><trkpt lat="39.26668071266965" lon="16.275290055739077"><ele>446.0</ele><time>2026-03-22T12:57:05.999Z</time></trkpt><trkpt lat="39.26663302024358" lon="16.27545266298546"><ele>448.0</ele><time>2026-03-22T12:57:06.999Z</time></trkpt><trkpt lat="39.26658194422922" lon="16.275630473217856"><ele>450.0</ele><time>2026-03-22T12:57:07.999Z</time></trkpt><trkpt lat="39.266527943486224" lon="16.27581141679537"><ele>450.0</ele><time>2026-03-22T12:57:08.999Z</time></trkpt><trkpt lat="39.26647288704382" lon="16.275987102854547"><ele>450.0</ele><time>2026-03-22T12:57:09.999Z</time></trkpt><trkpt lat="39.266410021792076" lon="16.27615226270757"><ele>450.0</ele><time>2026-03-22T12:57:10.999Z</time></trkpt><trkpt lat="39.266315855770436" lon="16.276281110464545"><ele>450.0</ele><time>2026-03-22T12:57:11.999Z</time></trkpt><trkpt lat="39.26620755043455" lon="16.276406076204143"><ele>448.5</ele><time>2026-03-22T12:57:12.999Z</time></trkpt><trkpt lat="39.26608887099372" lon="16.276524285341303"><ele>447.0</ele><time>2026-03-22T12:57:13.999Z</time></trkpt><trkpt lat="39.26596516569467" lon="16.276632450669922"><ele>445.5</ele><time>2026-03-22T12:57:14.999Z</time></trkpt><trkpt lat="39.265834040455914" lon="16.276711009299298"><ele>444.0</ele><time>2026-03-22T12:57:15.999Z</time></trkpt><trkpt lat="39.26568936784607" lon="16.27678725152375"><ele>442.66666666666663</ele><time>2026-03-22T12:57:16.999Z</time></trkpt><trkpt lat="39.26553586463577" lon="16.276865260267833"><ele>441.3333333333333</ele><time>2026-03-22T12:57:17.999Z</time></trkpt><trkpt lat="39.265381476093225" lon="16.27694386526096"><ele>440.0</ele><time>2026-03-22T12:57:18.999Z</time></trkpt><trkpt lat="39.26522749654642" lon="16.277022262127893"><ele>440.0</ele><time>2026-03-22T12:57:19.999Z</time></trkpt><trkpt lat="39.26507273674814" lon="16.277101756450108"><ele>440.0</ele><time>2026-03-22T12:57:20.999Z</time></trkpt><trkpt lat="39.26491689358267" lon="16.277180344848798"><ele>440.0</ele><time>2026-03-22T12:57:21.999Z</time></trkpt><trkpt lat="39.26476872859454" lon="16.27725107927418"><ele>439.75</ele><time>2026-03-22T12:57:22.999Z</time></trkpt><trkpt lat="39.264625575255316" lon="16.277313460028903"><ele>439.5</ele><time>2026-03-22T12:57:23.999Z</time></trkpt><trkpt lat="39.264485798175535" lon="16.277364887396235"><ele>439.25</ele><time>2026-03-22T12:57:24.999Z</time></trkpt><trkpt lat="39.26435473538671" lon="16.277435905346636"><ele>439.0</ele><time>2026-03-22T12:57:25.999Z</time></trkpt><trkpt lat="39.26424577201922" lon="16.27757076223036"><ele>439.0</ele><time>2026-03-22T12:57:26.999Z</time></trkpt><trkpt lat="39.26416043508914" lon="16.277724541657342"><ele>439.0</ele><time>2026-03-22T12:57:27.999Z</time></trkpt><trkpt lat="39.264064295885454" lon="16.277858454039944"><ele>439.0</ele><time>2026-03-22T12:57:28.999Z</time></trkpt><trkpt lat="39.263959600906254" lon="16.27795204244865"><ele>439.0</ele><time>2026-03-22T12:57:29.999Z</time></trkpt><trkpt lat="39.26383473968339" lon="16.278001916172588"><ele>436.5</ele><time>2026-03-22T12:57:30.999Z</time></trkpt><trkpt lat="39.26369702074532" lon="16.27807495238534"><ele>434.0</ele><time>2026-03-22T12:57:31.999Z</time></trkpt><trkpt lat="39.2635754419499" lon="16.27818723767484"><ele>431.5</ele><time>2026-03-22T12:57:32.999Z</time></trkpt><trkpt lat="39.263464020289426" lon="16.27831866200886"><ele>429.0</ele><time>2026-03-22T12:57:33.999Z</time></trkpt><trkpt lat="39.26336822993485" lon="16.278464297256633"><ele>428.75</ele><time>2026-03-22T12:57:34.999Z</time></trkpt><trkpt lat="39.26331340289604" lon="16.278650577297004"><ele>428.5</ele><time>2026-03-22T12:57:35.999Z</time></trkpt><trkpt lat="39.26328269690818" lon="16.27883791473701"><ele>428.25</ele><time>2026-03-22T12:57:36.999Z</time></trkpt><trkpt lat="39.26325602903026" lon="16.27901889424313"><ele>428.0</ele><time>2026-03-22T12:57:37.999Z</time></trkpt><trkpt lat="39.26323274091522" lon="16.279201093853434"><ele>427.25</ele><time>2026-03-22T12:57:38.999Z</time></trkpt><trkpt lat="39.263201925996384" lon="16.279379263804806"><ele>426.5</ele><time>2026-03-22T12:57:39.999Z</time></trkpt><trkpt lat="39.263147758525974" lon="16.279537165003923"><ele>425.75</ele><time>2026-03-22T12:57:40.999Z</time></trkpt><trkpt lat="39.26306045702949" lon="16.279669820044212"><ele>425.0</ele><time>2026-03-22T12:57:41.999Z</time></trkpt><trkpt lat="39.2629496752347" lon="16.279783757244537"><ele>427.66666666666663</ele><time>2026-03-22T12:57:42.999Z</time></trkpt><trkpt lat="39.262828818421966" lon="16.279882292582155"><ele>430.33333333333337</ele><time>2026-03-22T12:57:43.999Z</time></trkpt><trkpt lat="39.26269921043555" lon="16.279975961980917"><ele>433.0</ele><time>2026-03-22T12:57:44.999Z</time></trkpt><trkpt lat="39.2625494074289" lon="16.28008394359893"><ele>433.0</ele><time>2026-03-22T12:57:45.999Z</time></trkpt><trkpt lat="39.26241215486274" lon="16.280191889506163"><ele>433.0</ele><time>2026-03-22T12:57:46.999Z</time></trkpt><trkpt lat="39.26228772139375" lon="16.280299803888564"><ele>433.0</ele><time>2026-03-22T12:57:47.998Z</time></trkpt><trkpt lat="39.26216716050036" lon="16.280415564434403"><ele>433.75</ele><time>2026-03-22T12:57:48.998Z</time></trkpt><trkpt lat="39.26205284298176" lon="16.280529114535707"><ele>434.5</ele><time>2026-03-22T12:57:49.998Z</time></trkpt><trkpt lat="39.261945704858235" lon="16.28062974004336"><ele>435.25</ele><time>2026-03-22T12:57:50.998Z</time></trkpt><trkpt lat="39.2618180722887" lon="16.280740332771263"><ele>436.0</ele><time>2026-03-22T12:57:51.998Z</time></trkpt><trkpt lat="39.26166434551353" lon="16.28084915625378"><ele>437.6666666666667</ele><time>2026-03-22T12:57:52.998Z</time></trkpt><trkpt lat="39.26149067517349" lon="16.280950864304703"><ele>439.33333333333337</ele><time>2026-03-22T12:57:53.998Z</time></trkpt><trkpt lat="39.26132596948297" lon="16.281068355188946"><ele>441.0</ele><time>2026-03-22T12:57:54.998Z</time></trkpt><trkpt lat="39.261172741438436" lon="16.281213439532063"><ele>442.33333333333337</ele><time>2026-03-22T12:57:55.998Z</time></trkpt><trkpt lat="39.26101996192318" lon="16.281362118274494"><ele>443.6666666666667</ele><time>2026-03-22T12:57:56.998Z</time></trkpt><trkpt lat="39.26087063820927" lon="16.281531537938854"><ele>445.0</ele><time>2026-03-22T12:57:57.998Z</time></trkpt><trkpt lat="39.260758556033416" lon="16.281741264943474"><ele>447.6666666666667</ele><time>2026-03-22T12:57:58.998Z</time></trkpt><trkpt lat="39.26064993982504" lon="16.281953755086835"><ele>450.33333333333337</ele><time>2026-03-22T12:57:59.998Z</time></trkpt><trkpt lat="39.26054087765558" lon="16.282169899960742"><ele>453.0</ele><time>2026-03-22T12:58:00.998Z</time></trkpt><trkpt lat="39.26042867841677" lon="16.282384876432566"><ele>453.0</ele><time>2026-03-22T12:58:01.998Z</time></trkpt><trkpt lat="39.2603212004534" lon="16.28261677551229"><ele>453.0</ele><time>2026-03-22T12:58:02.998Z</time></trkpt><trkpt lat="39.2602187502514" lon="16.282888182245426"><ele>453.0</ele><time>2026-03-22T12:58:03.998Z</time></trkpt><trkpt lat="39.26010941793882" lon="16.283200043538113"><ele>455.5</ele><time>2026-03-22T12:58:04.998Z</time></trkpt><trkpt lat="39.259985966950815" lon="16.283548183218276"><ele>458.0</ele><time>2026-03-22T12:58:05.998Z</time></trkpt><trkpt lat="39.25987022406586" lon="16.283873630533908"><ele>464.0</ele><time>2026-03-22T12:58:06.998Z</time></trkpt><trkpt lat="39.259767771693696" lon="16.28416144093549"><ele>470.0</ele><time>2026-03-22T12:58:07.998Z</time></trkpt><trkpt lat="39.259676350693624" lon="16.28441826124124"><ele>470.0</ele><time>2026-03-22T12:58:08.998Z</time></trkpt><trkpt lat="39.259594600568256" lon="16.28465885263035"><ele>470.0</ele><time>2026-03-22T12:58:10Z</time></trkpt><trkpt lat="39.2595023006806" lon="16.284870982758033"><ele>470.0</ele><time>2026-03-22T12:58:11Z</time></trkpt><trkpt lat="39.259382266225785" lon="16.285049385413814"><ele>470.3333333333333</ele><time>2026-03-22T12:58:12Z</time></trkpt><trkpt lat="39.2592292536191" lon="16.28519670833306"><ele>470.66666666666663</ele><time>2026-03-22T12:58:13Z</time></trkpt><trkpt lat="39.25905267094491" lon="16.28534208720031"><ele>471.0</ele><time>2026-03-22T12:58:14Z</time></trkpt><trkpt lat="39.2588689017889" lon="16.28547026296558"><ele>473.33333333333337</ele><time>2026-03-22T12:58:15Z</time></trkpt><trkpt lat="39.258681892867976" lon="16.285559863084604"><ele>475.6666666666667</ele><time>2026-03-22T12:58:16Z</time></trkpt><trkpt lat="39.25847120628768" lon="16.285633092183694"><ele>478.0</ele><time>2026-03-22T12:58:17Z</time></trkpt><trkpt lat="39.25825943848824" lon="16.28570190330767"><ele>480.0</ele><time>2026-03-22T12:58:18Z</time></trkpt><trkpt lat="39.25806222829731" lon="16.285765869505326"><ele>482.0</ele><time>2026-03-22T12:58:19Z</time></trkpt><trkpt lat="39.25790537353525" lon="16.285816746260075"><ele>484.0</ele><time>2026-03-22T12:58:20Z</time></trkpt><trkpt lat="39.25778025655402" lon="16.28585804007623"><ele>484.0</ele><time>2026-03-22T12:58:21Z</time></trkpt><trkpt lat="39.25765477698585" lon="16.28589885194049"><ele>484.0</ele><time>2026-03-22T12:58:22Z</time></trkpt><trkpt lat="39.25749374372509" lon="16.285953589054145"><ele>484.0</ele><time>2026-03-22T12:58:23Z</time></trkpt><trkpt lat="39.25732639230426" lon="16.286010722429392"><ele>484.6666666666667</ele><time>2026-03-22T12:58:24Z</time></trkpt><trkpt lat="39.257144722465334" lon="16.28607322398359"><ele>485.33333333333337</ele><time>2026-03-22T12:58:25Z</time></trkpt><trkpt lat="39.25696957727408" lon="16.286125802251735"><ele>486.0</ele><time>2026-03-22T12:58:26Z</time></trkpt><trkpt lat="39.256781866447064" lon="16.286148705570525"><ele>486.0</ele><time>2026-03-22T12:58:27Z</time></trkpt><trkpt lat="39.25659808962285" lon="16.28615067109581"><ele>486.0</ele><time>2026-03-22T12:58:28Z</time></trkpt><trkpt lat="39.256426822146516" lon="16.286127736009874"><ele>486.0</ele><time>2026-03-22T12:58:29Z</time></trkpt><trkpt lat="39.25625219785219" lon="16.28609241311334"><ele>485.25</ele><time>2026-03-22T12:58:30Z</time></trkpt><trkpt lat="39.25609436187527" lon="16.286053692257674"><ele>484.5</ele><time>2026-03-22T12:58:31Z</time></trkpt><trkpt lat="39.25595898391509" lon="16.286018204101868"><ele>483.75</ele><time>2026-03-22T12:58:32Z</time></trkpt><trkpt lat="39.25583405140769" lon="16.28598403043844"><ele>483.0</ele><time>2026-03-22T12:58:33Z</time></trkpt><trkpt lat="39.25573172249626" lon="16.28595135735065"><ele>483.0</ele><time>2026-03-22T12:58:34Z</time></trkpt><trkpt lat="39.255655113087734" lon="16.285913074197065"><ele>482.99999999999994</ele><time>2026-03-22T12:58:35Z</time></trkpt><trkpt lat="39.25558913666156" lon="16.285848795262467"><ele>482.99999999999994</ele><time>2026-03-22T12:58:36Z</time></trkpt><trkpt lat="39.255463641946925" lon="16.28580376531776"><ele>483.0</ele><time>2026-03-22T12:58:36.999Z</time></trkpt><trkpt lat="39.2553301828129" lon="16.28582180823017"><ele>483.0</ele><time>2026-03-22T12:58:37.999Z</time></trkpt><trkpt lat="39.25517612310456" lon="16.285848438727207"><ele>481.33333333333337</ele><time>2026-03-22T12:58:38.999Z</time></trkpt><trkpt lat="39.25502289848353" lon="16.285874924877962"><ele>479.6666666666667</ele><time>2026-03-22T12:58:39.999Z</time></trkpt><trkpt lat="39.25485440860061" lon="16.28590630515756"><ele>478.0</ele><time>2026-03-22T12:58:40.999Z</time></trkpt><trkpt lat="39.254666323295716" lon="16.285948935098613"><ele>478.0</ele><time>2026-03-22T12:58:41.999Z</time></trkpt><trkpt lat="39.25446250589939" lon="16.286016680631132"><ele>478.0</ele><time>2026-03-22T12:58:42.999Z</time></trkpt><trkpt lat="39.25425415468732" lon="16.286103437374507"><ele>478.0</ele><time>2026-03-22T12:58:43.999Z</time></trkpt><trkpt lat="39.25406205021837" lon="16.28619076185797"><ele>471.6666666666667</ele><time>2026-03-22T12:58:44.999Z</time></trkpt><trkpt lat="39.25389210639869" lon="16.28629923473783"><ele>465.33333333333337</ele><time>2026-03-22T12:58:45.999Z</time></trkpt><trkpt lat="39.2537438858807" lon="16.286432257848556"><ele>459.0</ele><time>2026-03-22T12:58:46.999Z</time></trkpt><trkpt lat="39.25362367875826" lon="16.28656857491965"><ele>459.0</ele><time>2026-03-22T12:58:47.999Z</time></trkpt><trkpt lat="39.253514078699396" lon="16.286728471858428"><ele>459.0</ele><time>2026-03-22T12:58:48.999Z</time></trkpt><trkpt lat="39.253438382011026" lon="16.286928863395886"><ele>459.0</ele><time>2026-03-22T12:58:49.999Z</time></trkpt><trkpt lat="39.25340465429096" lon="16.287133849272514"><ele>460.0</ele><time>2026-03-22T12:58:50.999Z</time></trkpt><trkpt lat="39.25335304937012" lon="16.287308867616403"><ele>461.0</ele><time>2026-03-22T12:58:51.999Z</time></trkpt><trkpt lat="39.253253578018025" lon="16.287451469589488"><ele>462.0</ele><time>2026-03-22T12:58:52.999Z</time></trkpt><trkpt lat="39.253141203279675" lon="16.2875606594179"><ele>463.0</ele><time>2026-03-22T12:58:53.999Z</time></trkpt><trkpt lat="39.25303679955801" lon="16.28765682959113"><ele>464.5</ele><time>2026-03-22T12:58:54.999Z</time></trkpt><trkpt lat="39.25294581542444" lon="16.28776739948446"><ele>466.0</ele><time>2026-03-22T12:58:55.999Z</time></trkpt><trkpt lat="39.25287627674358" lon="16.287902827305153"><ele>467.5</ele><time>2026-03-22T12:58:56.999Z</time></trkpt><trkpt lat="39.25283454400583" lon="16.288054971088677"><ele>469.0</ele><time>2026-03-22T12:58:57.999Z</time></trkpt><trkpt lat="39.25280942182995" lon="16.28820660380159"><ele>472.25</ele><time>2026-03-22T12:58:58.999Z</time></trkpt><trkpt lat="39.2527913904987" lon="16.288362451141342"><ele>475.5</ele><time>2026-03-22T12:58:59.999Z</time></trkpt><trkpt lat="39.252775745068725" lon="16.288507364573483"><ele>478.75</ele><time>2026-03-22T12:59:00.999Z</time></trkpt><trkpt lat="39.25276040281225" lon="16.288649469617578"><ele>482.0</ele><time>2026-03-22T12:59:01.999Z</time></trkpt><trkpt lat="39.25273976916424" lon="16.288781355947442"><ele>482.0</ele><time>2026-03-22T12:59:02.999Z</time></trkpt><trkpt lat="39.252706741018336" lon="16.288917470493242"><ele>482.00000000000006</ele><time>2026-03-22T12:59:03.999Z</time></trkpt><trkpt lat="39.25264657951144" lon="16.289033883687498"><ele>482.00000000000006</ele><time>2026-03-22T12:59:04.999Z</time></trkpt><trkpt lat="39.252563606728174" lon="16.28911091942065"><ele>482.0</ele><time>2026-03-22T12:59:05.999Z</time></trkpt><trkpt lat="39.25247118347689" lon="16.28918021934486"><ele>482.0</ele><time>2026-03-22T12:59:06.999Z</time></trkpt><trkpt lat="39.25237191479254" lon="16.28923982732621"><ele>480.5</ele><time>2026-03-22T12:59:07.999Z</time></trkpt><trkpt lat="39.25226687459296" lon="16.289298504903506"><ele>479.0</ele><time>2026-03-22T12:59:08.999Z</time></trkpt><trkpt lat="39.25216038903862" lon="16.289357989947277"><ele>477.5</ele><time>2026-03-22T12:59:09.999Z</time></trkpt><trkpt lat="39.25205031175148" lon="16.28941948145317"><ele>476.0</ele><time>2026-03-22T12:59:10.999Z</time></trkpt><trkpt lat="39.25193242554717" lon="16.289484802272817"><ele>476.0</ele><time>2026-03-22T12:59:11.999Z</time></trkpt><trkpt lat="39.251811886251204" lon="16.289556793399147"><ele>476.0</ele><time>2026-03-22T12:59:12.999Z</time></trkpt><trkpt lat="39.251690278825265" lon="16.289640507885522"><ele>476.0</ele><time>2026-03-22T12:59:13.999Z</time></trkpt><trkpt lat="39.25157442485559" lon="16.2897228523188"><ele>476.0</ele><time>2026-03-22T12:59:14.999Z</time></trkpt><trkpt lat="39.25145442555536" lon="16.289798227818565"><ele>476.0</ele><time>2026-03-22T12:59:15.999Z</time></trkpt><trkpt lat="39.251334691475606" lon="16.289862207956162"><ele>476.0</ele><time>2026-03-22T12:59:16.999Z</time></trkpt><trkpt lat="39.25121343462624" lon="16.289925360549873"><ele>476.0</ele><time>2026-03-22T12:59:17.999Z</time></trkpt><trkpt lat="39.25111372867542" lon="16.290060783048087"><ele>476.0</ele><time>2026-03-22T12:59:18.999Z</time></trkpt><trkpt lat="39.25099590007724" lon="16.290149097279073"><ele>476.0</ele><time>2026-03-22T12:59:19.999Z</time></trkpt><trkpt lat="39.2508911142487" lon="16.290237554804047"><ele>476.0</ele><time>2026-03-22T12:59:20.999Z</time></trkpt><trkpt lat="39.25080424663212" lon="16.290325730952357"><ele>476.0</ele><time>2026-03-22T12:59:21.999Z</time></trkpt><trkpt lat="39.25072649284081" lon="16.29042190004755"><ele>476.0</ele><time>2026-03-22T12:59:22.999Z</time></trkpt><trkpt lat="39.25065547714007" lon="16.290525267067704"><ele>478.8</ele><time>2026-03-22T12:59:23.999Z</time></trkpt><trkpt lat="39.25058091354855" lon="16.29061901681812"><ele>481.6</ele><time>2026-03-22T12:59:24.999Z</time></trkpt><trkpt lat="39.25049795562779" lon="16.290700952275678"><ele>484.4</ele><time>2026-03-22T12:59:25.999Z</time></trkpt><trkpt lat="39.250403548838705" lon="16.29076187990905"><ele>487.2</ele><time>2026-03-22T12:59:26.999Z</time></trkpt><trkpt lat="39.25029505052081" lon="16.29079479886829"><ele>490.0</ele><time>2026-03-22T12:59:27.999Z</time></trkpt><trkpt lat="39.25018658513719" lon="16.290802798406464"><ele>490.0</ele><time>2026-03-22T12:59:28.999Z</time></trkpt><trkpt lat="39.250081341716886" lon="16.290783350746228"><ele>490.0</ele><time>2026-03-22T12:59:29.999Z</time></trkpt><trkpt lat="39.24999416455252" lon="16.290686827083455"><ele>490.0</ele><time>2026-03-22T12:59:30.999Z</time></trkpt><trkpt lat="39.24991420046342" lon="16.290647203640226"><ele>490.0</ele><time>2026-03-22T12:59:31.999Z</time></trkpt><trkpt lat="39.249835331295735" lon="16.290609663456227"><ele>490.0</ele><time>2026-03-22T12:59:32.999Z</time></trkpt><trkpt lat="39.24975557032492" lon="16.29057802981701"><ele>487.0</ele><time>2026-03-22T12:59:33.999Z</time></trkpt><trkpt lat="39.249685857193995" lon="16.290553810890696"><ele>484.0</ele><time>2026-03-22T12:59:34.999Z</time></trkpt><trkpt lat="39.24956884440796" lon="16.290635050979354"><ele>481.0</ele><time>2026-03-22T12:59:35.999Z</time></trkpt><trkpt lat="39.24951178077806" lon="16.2907544700751"><ele>478.0</ele><time>2026-03-22T12:59:36.999Z</time></trkpt><trkpt lat="39.249489919148054" lon="16.290866307159224"><ele>475.0</ele><time>2026-03-22T12:59:37.999Z</time></trkpt><trkpt lat="39.249539542593915" lon="16.290984277936694"><ele>475.0</ele><time>2026-03-22T12:59:38.999Z</time></trkpt><trkpt lat="39.249578472560714" lon="16.29108439546184"><ele>475.0</ele><time>2026-03-22T12:59:39.999Z</time></trkpt><trkpt lat="39.249638915866576" lon="16.291177203684505"><ele>475.0</ele><time>2026-03-22T12:59:40.999Z</time></trkpt><trkpt lat="39.24970058443241" lon="16.29126286703307"><ele>475.0</ele><time>2026-03-22T12:59:41.999Z</time></trkpt><trkpt lat="39.24976155901377" lon="16.291353278595075"><ele>475.0</ele><time>2026-03-22T12:59:42.999Z</time></trkpt><trkpt lat="39.24981746919418" lon="16.291441828351505"><ele>477.50000000000006</ele><time>2026-03-22T12:59:43.999Z</time></trkpt><trkpt lat="39.249867221683694" lon="16.291527617744322"><ele>480.0</ele><time>2026-03-22T12:59:44.999Z</time></trkpt><trkpt lat="39.24991413786096" lon="16.2916205699445"><ele>482.5</ele><time>2026-03-22T12:59:45.999Z</time></trkpt><trkpt lat="39.24995804586683" lon="16.291719428172957"><ele>485.0</ele><time>2026-03-22T12:59:46.999Z</time></trkpt><trkpt lat="39.250000462415734" lon="16.291822457663336"><ele>487.50000000000006</ele><time>2026-03-22T12:59:47.999Z</time></trkpt><trkpt lat="39.250042100001586" lon="16.291933065465038"><ele>490.0</ele><time>2026-03-22T12:59:48.999Z</time></trkpt><trkpt lat="39.25008110565412" lon="16.292053210704783"><ele>490.00000000000006</ele><time>2026-03-22T12:59:49.999Z</time></trkpt><trkpt lat="39.25009778278129" lon="16.29218308978187"><ele>490.0</ele><time>2026-03-22T12:59:50.999Z</time></trkpt><trkpt lat="39.25012696190004" lon="16.29230232479294"><ele>490.0</ele><time>2026-03-22T12:59:51.999Z</time></trkpt><trkpt lat="39.250149321630516" lon="16.292410359905645"><ele>490.0</ele><time>2026-03-22T12:59:52.999Z</time></trkpt><trkpt lat="39.25015452470389" lon="16.292509327542582"><ele>490.00000000000006</ele><time>2026-03-22T12:59:53.998Z</time></trkpt><trkpt lat="39.25015934649956" lon="16.292619261283185"><ele>490.0</ele><time>2026-03-22T12:59:54.998Z</time></trkpt><trkpt lat="39.25013242477175" lon="16.292726064996245"><ele>490.0</ele><time>2026-03-22T12:59:55.998Z</time></trkpt><trkpt lat="39.25010842026871" lon="16.292855759493786"><ele>490.0</ele><time>2026-03-22T12:59:56.998Z</time></trkpt><trkpt lat="39.25007908144053" lon="16.292997086991583"><ele>490.0</ele><time>2026-03-22T12:59:57.998Z</time></trkpt><trkpt lat="39.25004857181104" lon="16.293135796293594"><ele>490.0</ele><time>2026-03-22T12:59:58.998Z</time></trkpt><trkpt lat="39.25002079402493" lon="16.293273837595414"><ele>490.0</ele><time>2026-03-22T12:59:59.998Z</time></trkpt><trkpt lat="39.2499967726989" lon="16.293433663190193"><ele>490.0</ele><time>2026-03-22T13:00:00.998Z</time></trkpt><trkpt lat="39.25003317505415" lon="16.29361908120465"><ele>490.0</ele><time>2026-03-22T13:00:01.998Z</time></trkpt><trkpt lat="39.25001113871676" lon="16.293811157489085"><ele>490.0</ele><time>2026-03-22T13:00:02.998Z</time></trkpt><trkpt lat="39.24996850909737" lon="16.294067340450116"><ele>495.5</ele><time>2026-03-22T13:00:03.998Z</time></trkpt><trkpt lat="39.2499144445283" lon="16.294370973955658"><ele>501.0</ele><time>2026-03-22T13:00:04.998Z</time></trkpt><trkpt lat="39.24982430774783" lon="16.294654941856784"><ele>505.66666666666663</ele><time>2026-03-22T13:00:05.998Z</time></trkpt><trkpt lat="39.249766215312526" lon="16.29492131403919"><ele>510.3333333333333</ele><time>2026-03-22T13:00:06.998Z</time></trkpt><trkpt lat="39.24969857762254" lon="16.29517499085118"><ele>515.0</ele><time>2026-03-22T13:00:07.998Z</time></trkpt><trkpt lat="39.24961310027221" lon="16.29541342201362"><ele>512.3333333333333</ele><time>2026-03-22T13:00:08.998Z</time></trkpt><trkpt lat="39.24952563602844" lon="16.295617726272837"><ele>509.66666666666663</ele><time>2026-03-22T13:00:09.998Z</time></trkpt><trkpt lat="39.249415892453996" lon="16.295783046927703"><ele>507.0</ele><time>2026-03-22T13:00:10.998Z</time></trkpt><trkpt lat="39.24927718241086" lon="16.295936127249316"><ele>507.0</ele><time>2026-03-22T13:00:11.998Z</time></trkpt><trkpt lat="39.249115131800764" lon="16.296067763828283"><ele>507.0</ele><time>2026-03-22T13:00:12.998Z</time></trkpt><trkpt lat="39.248945298224115" lon="16.296180852238283"><ele>507.0</ele><time>2026-03-22T13:00:13.998Z</time></trkpt><trkpt lat="39.248775123170894" lon="16.296271545816204"><ele>506.33333333333337</ele><time>2026-03-22T13:00:14.998Z</time></trkpt><trkpt lat="39.2485803418712" lon="16.29634169251488"><ele>505.6666666666667</ele><time>2026-03-22T13:00:16Z</time></trkpt><trkpt lat="39.24835903831799" lon="16.296403858249047"><ele>505.0</ele><time>2026-03-22T13:00:17Z</time></trkpt><trkpt lat="39.24815814310137" lon="16.29651575867927"><ele>503.0</ele><time>2026-03-22T13:00:18Z</time></trkpt><trkpt lat="39.24798487843322" lon="16.29663571099423"><ele>501.0</ele><time>2026-03-22T13:00:19Z</time></trkpt><trkpt lat="39.24784156088869" lon="16.296775505096512"><ele>499.0</ele><time>2026-03-22T13:00:20Z</time></trkpt><trkpt lat="39.247727603705165" lon="16.29696612486682"><ele>499.0</ele><time>2026-03-22T13:00:21Z</time></trkpt><trkpt lat="39.247644515138845" lon="16.297203450259573"><ele>499.0</ele><time>2026-03-22T13:00:22Z</time></trkpt><trkpt lat="39.24759028811416" lon="16.297420415524808"><ele>499.0</ele><time>2026-03-22T13:00:23Z</time></trkpt><trkpt lat="39.24760556575864" lon="16.29764279593262"><ele>502.6</ele><time>2026-03-22T13:00:24Z</time></trkpt><trkpt lat="39.24760329165108" lon="16.297812257928847"><ele>506.2</ele><time>2026-03-22T13:00:25Z</time></trkpt><trkpt lat="39.24756865751696" lon="16.29795171348587"><ele>509.80000000000007</ele><time>2026-03-22T13:00:26Z</time></trkpt><trkpt lat="39.24753699158972" lon="16.298080012490146"><ele>513.4</ele><time>2026-03-22T13:00:27Z</time></trkpt><trkpt lat="39.24754343776005" lon="16.298187874041073"><ele>517.0</ele><time>2026-03-22T13:00:28Z</time></trkpt><trkpt lat="39.247610289239155" lon="16.298255454351743"><ele>517.0</ele><time>2026-03-22T13:00:29Z</time></trkpt><trkpt lat="39.24768290013093" lon="16.29827595861289"><ele>517.0</ele><time>2026-03-22T13:00:30Z</time></trkpt><trkpt lat="39.247760321433006" lon="16.298228772444347"><ele>517.0</ele><time>2026-03-22T13:00:31Z</time></trkpt><trkpt lat="39.2478247547066" lon="16.298134107186506"><ele>517.0</ele><time>2026-03-22T13:00:32Z</time></trkpt><trkpt lat="39.247873339112935" lon="16.298062408028343"><ele>517.0</ele><time>2026-03-22T13:00:33Z</time></trkpt><trkpt lat="39.247965842297006" lon="16.297997927479095"><ele>517.0</ele><time>2026-03-22T13:00:35Z</time></trkpt><trkpt lat="39.24801315121141" lon="16.298098586001046"><ele>520.0</ele><time>2026-03-22T13:00:37Z</time></trkpt><trkpt lat="39.247930551062794" lon="16.29813039598638"><ele>523.0</ele><time>2026-03-22T13:00:38Z</time></trkpt><trkpt lat="39.2479109762078" lon="16.29824965328548"><ele>526.0</ele><time>2026-03-22T13:00:39Z</time></trkpt><trkpt lat="39.24783011712417" lon="16.2983401708714"><ele>529.0</ele><time>2026-03-22T13:00:40Z</time></trkpt><trkpt lat="39.24771908918341" lon="16.29848226769066"><ele>532.0</ele><time>2026-03-22T13:00:40.999Z</time></trkpt><trkpt lat="39.24763121716638" lon="16.298640788502308"><ele>532.0</ele><time>2026-03-22T13:00:41.999Z</time></trkpt><trkpt lat="39.2475035567562" lon="16.298795611667003"><ele>532.0</ele><time>2026-03-22T13:00:42.999Z</time></trkpt><trkpt lat="39.24738760475164" lon="16.29904998364132"><ele>532.0</ele><time>2026-03-22T13:00:43.999Z</time></trkpt><trkpt lat="39.24723788693452" lon="16.29930461681932"><ele>534.0</ele><time>2026-03-22T13:00:44.999Z</time></trkpt><trkpt lat="39.24712091544719" lon="16.299540095286538"><ele>536.0</ele><time>2026-03-22T13:00:45.999Z</time></trkpt><trkpt lat="39.24704282253709" lon="16.29979332024196"><ele>538.0</ele><time>2026-03-22T13:00:46.999Z</time></trkpt><trkpt lat="39.24697518660105" lon="16.30004128315029"><ele>538.0</ele><time>2026-03-22T13:00:47.999Z</time></trkpt><trkpt lat="39.24690625463415" lon="16.30028496568043"><ele>538.0</ele><time>2026-03-22T13:00:48.999Z</time></trkpt><trkpt lat="39.24681927813118" lon="16.300504659665428"><ele>538.0</ele><time>2026-03-22T13:00:49.999Z</time></trkpt><trkpt lat="39.24668658705102" lon="16.300772236866447"><ele>542.5</ele><time>2026-03-22T13:00:50.999Z</time></trkpt><trkpt lat="39.24651480871845" lon="16.30111788666538"><ele>547.0</ele><time>2026-03-22T13:00:51.999Z</time></trkpt><trkpt lat="39.24638428831968" lon="16.301428314862534"><ele>550.0</ele><time>2026-03-22T13:00:52.999Z</time></trkpt><trkpt lat="39.246292329696196" lon="16.301690103994403"><ele>553.0</ele><time>2026-03-22T13:00:53.999Z</time></trkpt><trkpt lat="39.246225894526916" lon="16.301932088174308"><ele>556.0</ele><time>2026-03-22T13:00:54.999Z</time></trkpt><trkpt lat="39.246159474294515" lon="16.302173637827103"><ele>556.0</ele><time>2026-03-22T13:00:55.999Z</time></trkpt><trkpt lat="39.24608199429566" lon="16.30239812367683"><ele>556.0</ele><time>2026-03-22T13:00:56.999Z</time></trkpt><trkpt lat="39.245987953223036" lon="16.30261656590755"><ele>556.0</ele><time>2026-03-22T13:00:57.999Z</time></trkpt><trkpt lat="39.245891700789535" lon="16.3028326914451"><ele>556.0</ele><time>2026-03-22T13:00:58.999Z</time></trkpt><trkpt lat="39.245799855826334" lon="16.303056736003626"><ele>556.0</ele><time>2026-03-22T13:00:59.999Z</time></trkpt><trkpt lat="39.24572205537866" lon="16.303271967339217"><ele>556.0</ele><time>2026-03-22T13:01:00.999Z</time></trkpt><trkpt lat="39.24567103915723" lon="16.30348183936431"><ele>555.6666666666667</ele><time>2026-03-22T13:01:01.999Z</time></trkpt><trkpt lat="39.245644756666344" lon="16.303721070129274"><ele>555.3333333333334</ele><time>2026-03-22T13:01:02.999Z</time></trkpt><trkpt lat="39.245627392393644" lon="16.303973376439938"><ele>555.0</ele><time>2026-03-22T13:01:03.999Z</time></trkpt><trkpt lat="39.245609928423356" lon="16.304223658128404"><ele>555.3333333333334</ele><time>2026-03-22T13:01:04.999Z</time></trkpt><trkpt lat="39.245607717687506" lon="16.304467857506367"><ele>555.6666666666667</ele><time>2026-03-22T13:01:05.999Z</time></trkpt><trkpt lat="39.245631815392" lon="16.304705017693372"><ele>556.0</ele><time>2026-03-22T13:01:06.999Z</time></trkpt><trkpt lat="39.24569145077923" lon="16.30492416353349"><ele>556.0</ele><time>2026-03-22T13:01:07.999Z</time></trkpt><trkpt lat="39.24572194161535" lon="16.305138404381086"><ele>556.0</ele><time>2026-03-22T13:01:08.999Z</time></trkpt><trkpt lat="39.24572773783597" lon="16.305350085437432"><ele>556.0</ele><time>2026-03-22T13:01:09.999Z</time></trkpt><trkpt lat="39.245690637879676" lon="16.305566395520266"><ele>556.5</ele><time>2026-03-22T13:01:10.999Z</time></trkpt><trkpt lat="39.24564503096062" lon="16.305842351705262"><ele>557.0</ele><time>2026-03-22T13:01:11.999Z</time></trkpt><trkpt lat="39.24560001098178" lon="16.306171010298996"><ele>553.0</ele><time>2026-03-22T13:01:12.999Z</time></trkpt><trkpt lat="39.24558050947515" lon="16.306556095676207"><ele>549.0</ele><time>2026-03-22T13:01:13.999Z</time></trkpt><trkpt lat="39.24556500744467" lon="16.306934370233844"><ele>547.5</ele><time>2026-03-22T13:01:14.999Z</time></trkpt><trkpt lat="39.245550692662206" lon="16.30725541077142"><ele>546.0</ele><time>2026-03-22T13:01:15.999Z</time></trkpt><trkpt lat="39.24554040778118" lon="16.307544273293264"><ele>546.0</ele><time>2026-03-22T13:01:16.999Z</time></trkpt><trkpt lat="39.245525175812986" lon="16.307801617189508"><ele>546.0</ele><time>2026-03-22T13:01:17.999Z</time></trkpt><trkpt lat="39.245484086403906" lon="16.308016819214387"><ele>546.0</ele><time>2026-03-22T13:01:18.999Z</time></trkpt><trkpt lat="39.245415573759125" lon="16.30820748652511"><ele>548.6666666666666</ele><time>2026-03-22T13:01:19.999Z</time></trkpt><trkpt lat="39.24530954295317" lon="16.30835719602195"><ele>551.3333333333333</ele><time>2026-03-22T13:01:20.999Z</time></trkpt><trkpt lat="39.24517580952042" lon="16.30855873560285"><ele>554.0</ele><time>2026-03-22T13:01:21.999Z</time></trkpt><trkpt lat="39.24503144353145" lon="16.308785352274484"><ele>555.5</ele><time>2026-03-22T13:01:22.999Z</time></trkpt><trkpt lat="39.24487955282999" lon="16.309031228940388"><ele>557.0</ele><time>2026-03-22T13:01:23.999Z</time></trkpt><trkpt lat="39.24472806528245" lon="16.30932978860408"><ele>553.5</ele><time>2026-03-22T13:01:24.999Z</time></trkpt><trkpt lat="39.24456843260206" lon="16.309672529674522"><ele>550.0</ele><time>2026-03-22T13:01:25.999Z</time></trkpt><trkpt lat="39.24445840591716" lon="16.310034356321733"><ele>550.0</ele><time>2026-03-22T13:01:26.999Z</time></trkpt><trkpt lat="39.24432743456101" lon="16.310328083890262"><ele>550.0</ele><time>2026-03-22T13:01:27.999Z</time></trkpt><trkpt lat="39.24420430696163" lon="16.310598685079814"><ele>550.6666666666667</ele><time>2026-03-22T13:01:28.999Z</time></trkpt><trkpt lat="39.244087468375916" lon="16.310854726208866"><ele>551.3333333333334</ele><time>2026-03-22T13:01:29.999Z</time></trkpt><trkpt lat="39.24397721980276" lon="16.31109690023804"><ele>552.0</ele><time>2026-03-22T13:01:30.999Z</time></trkpt><trkpt lat="39.24382577972043" lon="16.311302261300547"><ele>551.0</ele><time>2026-03-22T13:01:31.999Z</time></trkpt><trkpt lat="39.24370862003045" lon="16.31151618216528"><ele>550.0</ele><time>2026-03-22T13:01:32.999Z</time></trkpt><trkpt lat="39.2435643595862" lon="16.311680667816532"><ele>549.0</ele><time>2026-03-22T13:01:33.999Z</time></trkpt><trkpt lat="39.24339612222779" lon="16.311795457224775"><ele>549.0</ele><time>2026-03-22T13:01:34.999Z</time></trkpt><trkpt lat="39.24320865227925" lon="16.311911416807742"><ele>549.0</ele><time>2026-03-22T13:01:35.999Z</time></trkpt><trkpt lat="39.24300982645943" lon="16.312053482774164"><ele>549.0</ele><time>2026-03-22T13:01:36.999Z</time></trkpt><trkpt lat="39.24281225492068" lon="16.312284955827465"><ele>552.5</ele><time>2026-03-22T13:01:37.999Z</time></trkpt><trkpt lat="39.24265169611436" lon="16.312599222069487"><ele>556.0</ele><time>2026-03-22T13:01:38.999Z</time></trkpt><trkpt lat="39.24244200012401" lon="16.31287105208563"><ele>557.5</ele><time>2026-03-22T13:01:39.999Z</time></trkpt><trkpt lat="39.242245003791744" lon="16.313099737000165"><ele>559.0</ele><time>2026-03-22T13:01:40.999Z</time></trkpt><trkpt lat="39.24204602300919" lon="16.31329252334444"><ele>559.0</ele><time>2026-03-22T13:01:41.999Z</time></trkpt><trkpt lat="39.24183743964528" lon="16.31347181689112"><ele>559.0</ele><time>2026-03-22T13:01:42.999Z</time></trkpt><trkpt lat="39.24158623509151" lon="16.313589901886054"><ele>555.0</ele><time>2026-03-22T13:01:43.999Z</time></trkpt><trkpt lat="39.24137429256876" lon="16.31372611732822"><ele>551.0</ele><time>2026-03-22T13:01:44.999Z</time></trkpt><trkpt lat="39.24117668547816" lon="16.31384544580857"><ele>555.0</ele><time>2026-03-22T13:01:45.999Z</time></trkpt><trkpt lat="39.241007675531364" lon="16.313978932123312"><ele>559.0</ele><time>2026-03-22T13:01:46.999Z</time></trkpt><trkpt lat="39.24088374562961" lon="16.314134801740636"><ele>563.0</ele><time>2026-03-22T13:01:47.999Z</time></trkpt><trkpt lat="39.24078723711367" lon="16.314309326353488"><ele>563.0</ele><time>2026-03-22T13:01:48.999Z</time></trkpt><trkpt lat="39.24068438739564" lon="16.31451026572082"><ele>563.0</ele><time>2026-03-22T13:01:49.999Z</time></trkpt><trkpt lat="39.24056506503055" lon="16.314739692092946"><ele>563.0</ele><time>2026-03-22T13:01:50.999Z</time></trkpt><trkpt lat="39.24043595407252" lon="16.314992037684437"><ele>563.5</ele><time>2026-03-22T13:01:51.999Z</time></trkpt><trkpt lat="39.24030201466355" lon="16.315257164388907"><ele>564.0</ele><time>2026-03-22T13:01:52.999Z</time></trkpt><trkpt lat="39.24016037216546" lon="16.315524128742467"><ele>566.0</ele><time>2026-03-22T13:01:53.999Z</time></trkpt><trkpt lat="39.23999610774848" lon="16.315783701254176"><ele>568.0</ele><time>2026-03-22T13:01:54.999Z</time></trkpt><trkpt lat="39.23983836229692" lon="16.316024187337124"><ele>567.6666666666667</ele><time>2026-03-22T13:01:55.999Z</time></trkpt><trkpt lat="39.239691925031565" lon="16.316249312431946"><ele>567.3333333333334</ele><time>2026-03-22T13:01:56.999Z</time></trkpt><trkpt lat="39.23956862061124" lon="16.31647379144842"><ele>567.0</ele><time>2026-03-22T13:01:57.999Z</time></trkpt><trkpt lat="39.23946067666624" lon="16.316705610200827"><ele>567.0</ele><time>2026-03-22T13:01:58.999Z</time></trkpt><trkpt lat="39.23935516670908" lon="16.3169599657728"><ele>567.0</ele><time>2026-03-22T13:01:59.999Z</time></trkpt><trkpt lat="39.239259573792204" lon="16.317186598600383"><ele>567.0</ele><time>2026-03-22T13:02:00.999Z</time></trkpt><trkpt lat="39.239174602770134" lon="16.31736405667795"><ele>566.8000000000001</ele><time>2026-03-22T13:02:01.999Z</time></trkpt><trkpt lat="39.23910559411403" lon="16.317487051046392"><ele>566.6</ele><time>2026-03-22T13:02:02.998Z</time></trkpt><trkpt lat="39.2390365016512" lon="16.317594424216104"><ele>566.4000000000001</ele><time>2026-03-22T13:02:03.998Z</time></trkpt><trkpt lat="39.23897374511057" lon="16.317692420238206"><ele>566.2</ele><time>2026-03-22T13:02:04.998Z</time></trkpt><trkpt lat="39.23890291621155" lon="16.317788059318477"><ele>566.0</ele><time>2026-03-22T13:02:05.998Z</time></trkpt><trkpt lat="39.23880628827113" lon="16.317900985539758"><ele>566.0</ele><time>2026-03-22T13:02:06.998Z</time></trkpt><trkpt lat="39.23867620597102" lon="16.318021798078245"><ele>566.0</ele><time>2026-03-22T13:02:07.998Z</time></trkpt><trkpt lat="39.23853399420035" lon="16.31814109480078"><ele>566.0</ele><time>2026-03-22T13:02:08.998Z</time></trkpt><trkpt lat="39.23837961195222" lon="16.318257707845543"><ele>566.3333333333333</ele><time>2026-03-22T13:02:09.998Z</time></trkpt><trkpt lat="39.23822251325864" lon="16.31836056565879"><ele>566.6666666666666</ele><time>2026-03-22T13:02:10.998Z</time></trkpt><trkpt lat="39.23807689786025" lon="16.31844133980227"><ele>567.0</ele><time>2026-03-22T13:02:11.998Z</time></trkpt><trkpt lat="39.23793769316069" lon="16.31850909034261"><ele>567.0</ele><time>2026-03-22T13:02:12.998Z</time></trkpt><trkpt lat="39.23781956722721" lon="16.318566182416543"><ele>567.0</ele><time>2026-03-22T13:02:13.998Z</time></trkpt><trkpt lat="39.23774712742758" lon="16.318600729265018"><ele>567.0</ele><time>2026-03-22T13:02:14.998Z</time></trkpt><trkpt lat="39.237709386461326" lon="16.318711943452186"><ele>567.0</ele><time>2026-03-22T13:02:17.998Z</time></trkpt><trkpt lat="39.2376555983302" lon="16.318840678879415"><ele>567.0</ele><time>2026-03-22T13:02:19.998Z</time></trkpt><trkpt lat="39.23763482850238" lon="16.31893748251166"><ele>567.2857142857143</ele><time>2026-03-22T13:02:20.998Z</time></trkpt><trkpt lat="39.237615324880345" lon="16.319014891737467"><ele>567.5714285714286</ele><time>2026-03-22T13:02:23Z</time></trkpt><trkpt lat="39.23755610978918" lon="16.319057246730797"><ele>567.8571428571429</ele><time>2026-03-22T13:06:08.999Z</time></trkpt><trkpt lat="39.23747674758742" lon="16.319079377757646"><ele>568.1428571428571</ele><time>2026-03-22T13:06:10.999Z</time></trkpt><trkpt lat="39.23741720916996" lon="16.319039629700494"><ele>568.4285714285714</ele><time>2026-03-22T13:06:11.999Z</time></trkpt><trkpt lat="39.23735689914994" lon="16.319009002262735"><ele>568.7142857142858</ele><time>2026-03-22T13:06:16.999Z</time></trkpt><trkpt lat="39.237269662673754" lon="16.319002666341945"><ele>569.0</ele><time>2026-03-22T13:06:18.998Z</time></trkpt><trkpt lat="39.23719236899196" lon="16.31905653927662"><ele>569.75</ele><time>2026-03-22T13:06:19.998Z</time></trkpt><trkpt lat="39.23704066679289" lon="16.31904912016812"><ele>570.5</ele><time>2026-03-22T13:06:20.998Z</time></trkpt><trkpt lat="39.23694868949674" lon="16.319145362166093"><ele>571.25</ele><time>2026-03-22T13:06:21.998Z</time></trkpt><trkpt lat="39.23682979728831" lon="16.319275515686552"><ele>572.0</ele><time>2026-03-22T13:06:22.998Z</time></trkpt><trkpt lat="39.23667648697464" lon="16.319444957157312"><ele>572.0</ele><time>2026-03-22T13:06:23.998Z</time></trkpt><trkpt lat="39.2364930470105" lon="16.319652589239762"><ele>572.0</ele><time>2026-03-22T13:06:24.998Z</time></trkpt><trkpt lat="39.23631439892112" lon="16.319857978599035"><ele>573.3333333333333</ele><time>2026-03-22T13:06:25.998Z</time></trkpt><trkpt lat="39.2361549930832" lon="16.320042832934103"><ele>574.6666666666666</ele><time>2026-03-22T13:06:26.998Z</time></trkpt><trkpt lat="39.23602117110906" lon="16.32021026482334"><ele>576.0</ele><time>2026-03-22T13:06:27.998Z</time></trkpt><trkpt lat="39.23592030527643" lon="16.32035277130462"><ele>576.0</ele><time>2026-03-22T13:06:28.998Z</time></trkpt><trkpt lat="39.23582948809334" lon="16.320459012618127"><ele>576.0</ele><time>2026-03-22T13:06:29.998Z</time></trkpt><trkpt lat="39.23573839611334" lon="16.3205461950308"><ele>576.0</ele><time>2026-03-22T13:06:30.998Z</time></trkpt><trkpt lat="39.23565391095797" lon="16.32056286465711"><ele>576.0</ele><time>2026-03-22T13:06:31.998Z</time></trkpt><trkpt lat="39.235567315273386" lon="16.320629843241356"><ele>576.0</ele><time>2026-03-22T13:06:34Z</time></trkpt><trkpt lat="39.235622031994545" lon="16.320801024783595"><ele>576.8</ele><time>2026-03-22T13:06:35Z</time></trkpt><trkpt lat="39.23566992356286" lon="16.320915242889157"><ele>577.6</ele><time>2026-03-22T13:06:37Z</time></trkpt><trkpt lat="39.235595895901845" lon="16.321045090392985"><ele>578.4</ele><time>2026-03-22T13:06:39Z</time></trkpt><trkpt lat="39.235541677470856" lon="16.321130730406928"><ele>579.2</ele><time>2026-03-22T13:06:40Z</time></trkpt><trkpt lat="39.23547668368958" lon="16.321270588796544"><ele>580.0</ele><time>2026-03-22T13:06:41Z</time></trkpt><trkpt lat="39.23539875561237" lon="16.321438279997526"><ele>581.6666666666667</ele><time>2026-03-22T13:06:42Z</time></trkpt><trkpt lat="39.235311907074106" lon="16.321618728903264"><ele>583.3333333333334</ele><time>2026-03-22T13:06:43Z</time></trkpt><trkpt lat="39.235227954067774" lon="16.321787650738568"><ele>585.0</ele><time>2026-03-22T13:06:44Z</time></trkpt><trkpt lat="39.235141958899064" lon="16.32194852174836"><ele>585.0</ele><time>2026-03-22T13:06:45Z</time></trkpt><trkpt lat="39.23505314312225" lon="16.322079896139552"><ele>585.0</ele><time>2026-03-22T13:06:46Z</time></trkpt><trkpt lat="39.234949627307884" lon="16.32215540029873"><ele>585.0</ele><time>2026-03-22T13:06:47Z</time></trkpt><trkpt lat="39.234817932004745" lon="16.322239000323037"><ele>585.0</ele><time>2026-03-22T13:06:48Z</time></trkpt><trkpt lat="39.23471451197731" lon="16.32234161145051"><ele>585.6666666666666</ele><time>2026-03-22T13:06:49Z</time></trkpt><trkpt lat="39.234635279570554" lon="16.322522416761295"><ele>586.3333333333333</ele><time>2026-03-22T13:06:50Z</time></trkpt><trkpt lat="39.23458730012995" lon="16.322699288954198"><ele>587.0</ele><time>2026-03-22T13:06:51Z</time></trkpt><trkpt lat="39.234554209705486" lon="16.322908553239174"><ele>588.0</ele><time>2026-03-22T13:06:52Z</time></trkpt><trkpt lat="39.23453011903952" lon="16.323099212470744"><ele>589.0</ele><time>2026-03-22T13:06:53Z</time></trkpt><trkpt lat="39.23450676695631" lon="16.32328402508114"><ele>590.0</ele><time>2026-03-22T13:06:54Z</time></trkpt><trkpt lat="39.2344869016121" lon="16.323467039753897"><ele>591.0</ele><time>2026-03-22T13:06:55Z</time></trkpt><trkpt lat="39.23446890523243" lon="16.32363532331505"><ele>591.0</ele><time>2026-03-22T13:06:56Z</time></trkpt><trkpt lat="39.23445487363532" lon="16.323781675308513"><ele>591.0</ele><time>2026-03-22T13:06:57Z</time></trkpt><trkpt lat="39.23444284592704" lon="16.323907837444086"><ele>591.0</ele><time>2026-03-22T13:06:58Z</time></trkpt><trkpt lat="39.23443373136355" lon="16.3240262937694"><ele>591.0</ele><time>2026-03-22T13:06:59Z</time></trkpt><trkpt lat="39.23442472407874" lon="16.324152936373967"><ele>591.0</ele><time>2026-03-22T13:07:00Z</time></trkpt><trkpt lat="39.234460214130294" lon="16.324299097458653"><ele>591.5</ele><time>2026-03-22T13:07:01Z</time></trkpt><trkpt lat="39.23446323088397" lon="16.324444349573977"><ele>592.0</ele><time>2026-03-22T13:07:01.999Z</time></trkpt><trkpt lat="39.23445494044959" lon="16.32459628812296"><ele>592.5</ele><time>2026-03-22T13:07:02.999Z</time></trkpt><trkpt lat="39.23442593496927" lon="16.324752615779317"><ele>593.0</ele><time>2026-03-22T13:07:03.999Z</time></trkpt><trkpt lat="39.23438917817802" lon="16.324932362759768"><ele>593.5</ele><time>2026-03-22T13:07:04.999Z</time></trkpt><trkpt lat="39.234344368207886" lon="16.325112373849997"><ele>594.0</ele><time>2026-03-22T13:07:05.999Z</time></trkpt><trkpt lat="39.234289842235206" lon="16.32526819637688"><ele>594.5</ele><time>2026-03-22T13:07:06.999Z</time></trkpt><trkpt lat="39.23423250012539" lon="16.325399793967613"><ele>595.0</ele><time>2026-03-22T13:07:07.999Z</time></trkpt><trkpt lat="39.234164144948885" lon="16.32553974099746"><ele>596.0</ele><time>2026-03-22T13:07:08.999Z</time></trkpt><trkpt lat="39.23409932277941" lon="16.32569402318282"><ele>597.0</ele><time>2026-03-22T13:07:09.999Z</time></trkpt><trkpt lat="39.234057713940075" lon="16.325840634003967"><ele>598.0</ele><time>2026-03-22T13:07:10.999Z</time></trkpt><trkpt lat="39.234027695609605" lon="16.325969959250937"><ele>599.0</ele><time>2026-03-22T13:07:11.999Z</time></trkpt><trkpt lat="39.23399745930215" lon="16.326098261420576"><ele>599.2</ele><time>2026-03-22T13:07:12.999Z</time></trkpt><trkpt lat="39.23396848573958" lon="16.326221205344773"><ele>599.4</ele><time>2026-03-22T13:07:13.999Z</time></trkpt><trkpt lat="39.23393577483339" lon="16.326358614039496"><ele>599.6</ele><time>2026-03-22T13:07:14.999Z</time></trkpt><trkpt lat="39.23390117671031" lon="16.326501875305812"><ele>599.8</ele><time>2026-03-22T13:07:15.999Z</time></trkpt><trkpt lat="39.23386596394504" lon="16.32664266613619"><ele>600.0</ele><time>2026-03-22T13:07:16.999Z</time></trkpt><trkpt lat="39.233830105064484" lon="16.32678695327726"><ele>600.0</ele><time>2026-03-22T13:07:17.999Z</time></trkpt><trkpt lat="39.233800362713886" lon="16.32690708963237"><ele>600.0</ele><time>2026-03-22T13:07:18.999Z</time></trkpt><trkpt lat="39.233776061174446" lon="16.327005266183633"><ele>600.0</ele><time>2026-03-22T13:07:19.999Z</time></trkpt><trkpt lat="39.23375707927002" lon="16.32709717022139"><ele>600.0</ele><time>2026-03-22T13:07:20.999Z</time></trkpt><trkpt lat="39.23374165065807" lon="16.327188413445178"><ele>600.0</ele><time>2026-03-22T13:07:22.999Z</time></trkpt><trkpt lat="39.23353991916513" lon="16.327163465987823"><ele>600.0</ele><time>2026-03-22T13:09:48.024Z</time></trkpt></trkseg></trk></gpx>